<?xml version="1.0" encoding="UTF-8" standalone="no" ?>
<gpx xmlns="http://www.topografix.com/GPX/1/1" xmlns:xsi="http://www.w3.org/2001/XMLSchema-instance" xsi:schemaLocation="http://www.topografix.com/GPX/1/1 http://www.topografix.com/GPX/1/1/gpx.xsd" version="1.1" creator="VisuGPX - https://www.visugpx.com">
  <metadata>
    <name>French-divide 2021</name>
  </metadata>
  <trk>
    <name><![CDATA[04 FD]]></name>
    <trkseg>
      <trkpt lat="48.86984" lon="4.59369">
        <ele>160.68</ele>
        <time>2021-08-10T05:03:08Z</time>
      </trkpt>
      <trkpt lat="48.8699" lon="4.59387">
        <ele>160.68</ele>
        <time>2021-08-10T05:03:16Z</time>
      </trkpt>
      <trkpt lat="48.86994" lon="4.59397">
        <ele>160.68</ele>
        <time>2021-08-10T05:03:19Z</time>
      </trkpt>
      <trkpt lat="48.86996" lon="4.59403">
        <ele>161.64</ele>
        <time>2021-08-10T05:03:21Z</time>
      </trkpt>
      <trkpt lat="48.8701" lon="4.59443">
        <ele>161.64</ele>
        <time>2021-08-10T05:03:31Z</time>
      </trkpt>
      <trkpt lat="48.87015" lon="4.5946">
        <ele>161.64</ele>
        <time>2021-08-10T05:03:38Z</time>
      </trkpt>
      <trkpt lat="48.87016" lon="4.5946">
        <ele>161.64</ele>
        <time>2021-08-10T05:03:52Z</time>
      </trkpt>
      <trkpt lat="48.87016" lon="4.59455">
        <ele>160.68</ele>
        <time>2021-08-10T05:04:04Z</time>
      </trkpt>
      <trkpt lat="48.87012" lon="4.59451">
        <ele>160.68</ele>
        <time>2021-08-10T05:04:24Z</time>
      </trkpt>
      <trkpt lat="48.87012" lon="4.59451">
        <ele>160.68</ele>
        <time>2021-08-10T05:04:42Z</time>
      </trkpt>
      <trkpt lat="48.87017" lon="4.59457">
        <ele>160.68</ele>
        <time>2021-08-10T05:04:58Z</time>
      </trkpt>
      <trkpt lat="48.87016" lon="4.59458">
        <ele>160.68</ele>
        <time>2021-08-10T05:05:13Z</time>
      </trkpt>
      <trkpt lat="48.87013" lon="4.59456">
        <ele>160.68</ele>
        <time>2021-08-10T05:05:23Z</time>
      </trkpt>
      <trkpt lat="48.87015" lon="4.59463">
        <ele>160.68</ele>
        <time>2021-08-10T05:05:30Z</time>
      </trkpt>
      <trkpt lat="48.87022" lon="4.59484">
        <ele>160.68</ele>
        <time>2021-08-10T05:05:36Z</time>
      </trkpt>
      <trkpt lat="48.87032" lon="4.59521">
        <ele>161.64</ele>
        <time>2021-08-10T05:05:44Z</time>
      </trkpt>
      <trkpt lat="48.87034" lon="4.59535">
        <ele>163.08</ele>
        <time>2021-08-10T05:05:48Z</time>
      </trkpt>
      <trkpt lat="48.87033" lon="4.59538">
        <ele>163.08</ele>
        <time>2021-08-10T05:05:49Z</time>
      </trkpt>
      <trkpt lat="48.87017" lon="4.5957">
        <ele>161.16</ele>
        <time>2021-08-10T05:05:55Z</time>
      </trkpt>
      <trkpt lat="48.87001" lon="4.59592">
        <ele>160.68</ele>
        <time>2021-08-10T05:05:59Z</time>
      </trkpt>
      <trkpt lat="48.8697" lon="4.59621">
        <ele>160.2</ele>
        <time>2021-08-10T05:06:07Z</time>
      </trkpt>
      <trkpt lat="48.86958" lon="4.59631">
        <ele>161.64</ele>
        <time>2021-08-10T05:06:14Z</time>
      </trkpt>
      <trkpt lat="48.86947" lon="4.59641">
        <ele>163.56</ele>
        <time>2021-08-10T05:06:23Z</time>
      </trkpt>
      <trkpt lat="48.86936" lon="4.5965">
        <ele>165.48</ele>
        <time>2021-08-10T05:06:32Z</time>
      </trkpt>
      <trkpt lat="48.86929" lon="4.59656">
        <ele>166.45</ele>
        <time>2021-08-10T05:06:38Z</time>
      </trkpt>
      <trkpt lat="48.86928" lon="4.59657">
        <ele>166.93</ele>
        <time>2021-08-10T05:06:39Z</time>
      </trkpt>
      <trkpt lat="48.86927" lon="4.59658">
        <ele>166.93</ele>
        <time>2021-08-10T05:06:40Z</time>
      </trkpt>
      <trkpt lat="48.86926" lon="4.5966">
        <ele>167.41</ele>
        <time>2021-08-10T05:06:41Z</time>
      </trkpt>
      <trkpt lat="48.86925" lon="4.59661">
        <ele>167.41</ele>
        <time>2021-08-10T05:06:42Z</time>
      </trkpt>
      <trkpt lat="48.86919" lon="4.59665">
        <ele>168.85</ele>
        <time>2021-08-10T05:06:47Z</time>
      </trkpt>
      <trkpt lat="48.86918" lon="4.59666">
        <ele>168.85</ele>
        <time>2021-08-10T05:06:48Z</time>
      </trkpt>
      <trkpt lat="48.86917" lon="4.59667">
        <ele>169.33</ele>
        <time>2021-08-10T05:06:49Z</time>
      </trkpt>
      <trkpt lat="48.86916" lon="4.59669">
        <ele>169.33</ele>
        <time>2021-08-10T05:06:50Z</time>
      </trkpt>
      <trkpt lat="48.86915" lon="4.5967">
        <ele>169.33</ele>
        <time>2021-08-10T05:06:51Z</time>
      </trkpt>
      <trkpt lat="48.86914" lon="4.59671">
        <ele>169.81</ele>
        <time>2021-08-10T05:06:52Z</time>
      </trkpt>
      <trkpt lat="48.86913" lon="4.59672">
        <ele>169.81</ele>
        <time>2021-08-10T05:06:53Z</time>
      </trkpt>
      <trkpt lat="48.86912" lon="4.59673">
        <ele>170.29</ele>
        <time>2021-08-10T05:06:54Z</time>
      </trkpt>
      <trkpt lat="48.86911" lon="4.59674">
        <ele>170.29</ele>
        <time>2021-08-10T05:06:55Z</time>
      </trkpt>
      <trkpt lat="48.8691" lon="4.59675">
        <ele>170.77</ele>
        <time>2021-08-10T05:06:56Z</time>
      </trkpt>
      <trkpt lat="48.86909" lon="4.59676">
        <ele>170.77</ele>
        <time>2021-08-10T05:06:57Z</time>
      </trkpt>
      <trkpt lat="48.86908" lon="4.59677">
        <ele>170.77</ele>
        <time>2021-08-10T05:06:58Z</time>
      </trkpt>
      <trkpt lat="48.86907" lon="4.59678">
        <ele>171.25</ele>
        <time>2021-08-10T05:06:59Z</time>
      </trkpt>
      <trkpt lat="48.86906" lon="4.59679">
        <ele>171.25</ele>
        <time>2021-08-10T05:07:00Z</time>
      </trkpt>
      <trkpt lat="48.86893" lon="4.5969">
        <ele>173.17</ele>
        <time>2021-08-10T05:07:12Z</time>
      </trkpt>
      <trkpt lat="48.86891" lon="4.59691">
        <ele>173.66</ele>
        <time>2021-08-10T05:07:14Z</time>
      </trkpt>
      <trkpt lat="48.86882" lon="4.59698">
        <ele>175.1</ele>
        <time>2021-08-10T05:07:22Z</time>
      </trkpt>
      <trkpt lat="48.86873" lon="4.59706">
        <ele>176.54</ele>
        <time>2021-08-10T05:07:30Z</time>
      </trkpt>
      <trkpt lat="48.86872" lon="4.59707">
        <ele>176.54</ele>
        <time>2021-08-10T05:07:31Z</time>
      </trkpt>
      <trkpt lat="48.86871" lon="4.59708">
        <ele>177.02</ele>
        <time>2021-08-10T05:07:32Z</time>
      </trkpt>
      <trkpt lat="48.8687" lon="4.59708">
        <ele>177.02</ele>
        <time>2021-08-10T05:07:33Z</time>
      </trkpt>
      <trkpt lat="48.86869" lon="4.59709">
        <ele>177.5</ele>
        <time>2021-08-10T05:07:34Z</time>
      </trkpt>
      <trkpt lat="48.86861" lon="4.59717">
        <ele>178.46</ele>
        <time>2021-08-10T05:07:42Z</time>
      </trkpt>
      <trkpt lat="48.86851" lon="4.59726">
        <ele>179.42</ele>
        <time>2021-08-10T05:07:52Z</time>
      </trkpt>
      <trkpt lat="48.8684" lon="4.59735">
        <ele>180.87</ele>
        <time>2021-08-10T05:08:02Z</time>
      </trkpt>
      <trkpt lat="48.86828" lon="4.59745">
        <ele>182.31</ele>
        <time>2021-08-10T05:08:11Z</time>
      </trkpt>
      <trkpt lat="48.86817" lon="4.59755">
        <ele>184.23</ele>
        <time>2021-08-10T05:08:20Z</time>
      </trkpt>
      <trkpt lat="48.86804" lon="4.59766">
        <ele>184.71</ele>
        <time>2021-08-10T05:08:29Z</time>
      </trkpt>
      <trkpt lat="48.86789" lon="4.5978">
        <ele>186.63</ele>
        <time>2021-08-10T05:08:39Z</time>
      </trkpt>
      <trkpt lat="48.86775" lon="4.59791">
        <ele>188.08</ele>
        <time>2021-08-10T05:08:47Z</time>
      </trkpt>
      <trkpt lat="48.86757" lon="4.59808">
        <ele>189.04</ele>
        <time>2021-08-10T05:08:56Z</time>
      </trkpt>
      <trkpt lat="48.86731" lon="4.59833">
        <ele>190.48</ele>
        <time>2021-08-10T05:09:07Z</time>
      </trkpt>
      <trkpt lat="48.86702" lon="4.5986">
        <ele>191.44</ele>
        <time>2021-08-10T05:09:19Z</time>
      </trkpt>
      <trkpt lat="48.86679" lon="4.59884">
        <ele>192.4</ele>
        <time>2021-08-10T05:09:28Z</time>
      </trkpt>
      <trkpt lat="48.8665" lon="4.59912">
        <ele>192.4</ele>
        <time>2021-08-10T05:09:39Z</time>
      </trkpt>
      <trkpt lat="48.86622" lon="4.59938">
        <ele>192.4</ele>
        <time>2021-08-10T05:09:48Z</time>
      </trkpt>
      <trkpt lat="48.86591" lon="4.59966">
        <ele>192.88</ele>
        <time>2021-08-10T05:09:58Z</time>
      </trkpt>
      <trkpt lat="48.86568" lon="4.59986">
        <ele>193.84</ele>
        <time>2021-08-10T05:10:07Z</time>
      </trkpt>
      <trkpt lat="48.86543" lon="4.60011">
        <ele>196.25</ele>
        <time>2021-08-10T05:10:17Z</time>
      </trkpt>
      <trkpt lat="48.86516" lon="4.60028">
        <ele>197.69</ele>
        <time>2021-08-10T05:10:27Z</time>
      </trkpt>
      <trkpt lat="48.86514" lon="4.60026">
        <ele>197.69</ele>
        <time>2021-08-10T05:10:28Z</time>
      </trkpt>
      <trkpt lat="48.86512" lon="4.60023">
        <ele>197.69</ele>
        <time>2021-08-10T05:10:29Z</time>
      </trkpt>
      <trkpt lat="48.8651" lon="4.6002">
        <ele>197.69</ele>
        <time>2021-08-10T05:10:30Z</time>
      </trkpt>
      <trkpt lat="48.86508" lon="4.60016">
        <ele>197.69</ele>
        <time>2021-08-10T05:10:31Z</time>
      </trkpt>
      <trkpt lat="48.86507" lon="4.60012">
        <ele>197.69</ele>
        <time>2021-08-10T05:10:32Z</time>
      </trkpt>
      <trkpt lat="48.86491" lon="4.5997">
        <ele>195.77</ele>
        <time>2021-08-10T05:10:41Z</time>
      </trkpt>
      <trkpt lat="48.86471" lon="4.59919">
        <ele>194.32</ele>
        <time>2021-08-10T05:10:51Z</time>
      </trkpt>
      <trkpt lat="48.86464" lon="4.59904">
        <ele>194.32</ele>
        <time>2021-08-10T05:10:54Z</time>
      </trkpt>
      <trkpt lat="48.8646" lon="4.59901">
        <ele>194.32</ele>
        <time>2021-08-10T05:10:55Z</time>
      </trkpt>
      <trkpt lat="48.86457" lon="4.59898">
        <ele>193.84</ele>
        <time>2021-08-10T05:10:56Z</time>
      </trkpt>
      <trkpt lat="48.86453" lon="4.59898">
        <ele>194.32</ele>
        <time>2021-08-10T05:10:57Z</time>
      </trkpt>
      <trkpt lat="48.86449" lon="4.599">
        <ele>194.32</ele>
        <time>2021-08-10T05:10:58Z</time>
      </trkpt>
      <trkpt lat="48.86445" lon="4.59902">
        <ele>194.32</ele>
        <time>2021-08-10T05:10:59Z</time>
      </trkpt>
      <trkpt lat="48.86442" lon="4.59903">
        <ele>194.32</ele>
        <time>2021-08-10T05:11:00Z</time>
      </trkpt>
      <trkpt lat="48.86439" lon="4.59906">
        <ele>194.32</ele>
        <time>2021-08-10T05:11:01Z</time>
      </trkpt>
      <trkpt lat="48.86436" lon="4.59908">
        <ele>194.32</ele>
        <time>2021-08-10T05:11:02Z</time>
      </trkpt>
      <trkpt lat="48.86406" lon="4.59935">
        <ele>196.25</ele>
        <time>2021-08-10T05:11:12Z</time>
      </trkpt>
      <trkpt lat="48.86361" lon="4.59972">
        <ele>196.73</ele>
        <time>2021-08-10T05:11:26Z</time>
      </trkpt>
      <trkpt lat="48.86337" lon="4.59996">
        <ele>196.73</ele>
        <time>2021-08-10T05:11:33Z</time>
      </trkpt>
      <trkpt lat="48.86296" lon="4.6003">
        <ele>194.32</ele>
        <time>2021-08-10T05:11:42Z</time>
      </trkpt>
      <trkpt lat="48.8626" lon="4.60061">
        <ele>190.96</ele>
        <time>2021-08-10T05:11:49Z</time>
      </trkpt>
      <trkpt lat="48.86233" lon="4.60083">
        <ele>188.08</ele>
        <time>2021-08-10T05:11:53Z</time>
      </trkpt>
      <trkpt lat="48.86204" lon="4.60108">
        <ele>184.23</ele>
        <time>2021-08-10T05:11:57Z</time>
      </trkpt>
      <trkpt lat="48.86178" lon="4.6013">
        <ele>180.87</ele>
        <time>2021-08-10T05:12:00Z</time>
      </trkpt>
      <trkpt lat="48.86149" lon="4.60154">
        <ele>177.02</ele>
        <time>2021-08-10T05:12:03Z</time>
      </trkpt>
      <trkpt lat="48.86119" lon="4.60179">
        <ele>173.17</ele>
        <time>2021-08-10T05:12:06Z</time>
      </trkpt>
      <trkpt lat="48.86097" lon="4.60197">
        <ele>169.81</ele>
        <time>2021-08-10T05:12:08Z</time>
      </trkpt>
      <trkpt lat="48.86064" lon="4.60225">
        <ele>165.96</ele>
        <time>2021-08-10T05:12:11Z</time>
      </trkpt>
      <trkpt lat="48.8603" lon="4.60253">
        <ele>163.08</ele>
        <time>2021-08-10T05:12:14Z</time>
      </trkpt>
      <trkpt lat="48.85997" lon="4.6028">
        <ele>159.72</ele>
        <time>2021-08-10T05:12:17Z</time>
      </trkpt>
      <trkpt lat="48.85953" lon="4.60317">
        <ele>156.35</ele>
        <time>2021-08-10T05:12:21Z</time>
      </trkpt>
      <trkpt lat="48.85912" lon="4.60351">
        <ele>154.91</ele>
        <time>2021-08-10T05:12:25Z</time>
      </trkpt>
      <trkpt lat="48.85882" lon="4.60375">
        <ele>158.27</ele>
        <time>2021-08-10T05:12:29Z</time>
      </trkpt>
      <trkpt lat="48.85863" lon="4.60391">
        <ele>160.68</ele>
        <time>2021-08-10T05:12:34Z</time>
      </trkpt>
      <trkpt lat="48.8584" lon="4.60413">
        <ele>163.08</ele>
        <time>2021-08-10T05:12:43Z</time>
      </trkpt>
      <trkpt lat="48.85816" lon="4.60433">
        <ele>165</ele>
        <time>2021-08-10T05:12:53Z</time>
      </trkpt>
      <trkpt lat="48.85787" lon="4.60453">
        <ele>168.37</ele>
        <time>2021-08-10T05:13:05Z</time>
      </trkpt>
      <trkpt lat="48.85776" lon="4.60452">
        <ele>168.85</ele>
        <time>2021-08-10T05:13:09Z</time>
      </trkpt>
      <trkpt lat="48.85773" lon="4.60449">
        <ele>169.33</ele>
        <time>2021-08-10T05:13:10Z</time>
      </trkpt>
      <trkpt lat="48.85772" lon="4.60447">
        <ele>169.33</ele>
        <time>2021-08-10T05:13:11Z</time>
      </trkpt>
      <trkpt lat="48.85754" lon="4.60414">
        <ele>168.85</ele>
        <time>2021-08-10T05:13:18Z</time>
      </trkpt>
      <trkpt lat="48.8573" lon="4.60364">
        <ele>168.85</ele>
        <time>2021-08-10T05:13:26Z</time>
      </trkpt>
      <trkpt lat="48.85707" lon="4.60316">
        <ele>167.89</ele>
        <time>2021-08-10T05:13:33Z</time>
      </trkpt>
      <trkpt lat="48.85672" lon="4.60247">
        <ele>167.41</ele>
        <time>2021-08-10T05:13:43Z</time>
      </trkpt>
      <trkpt lat="48.85641" lon="4.60184">
        <ele>166.93</ele>
        <time>2021-08-10T05:13:52Z</time>
      </trkpt>
      <trkpt lat="48.85606" lon="4.60114">
        <ele>165.96</ele>
        <time>2021-08-10T05:14:02Z</time>
      </trkpt>
      <trkpt lat="48.85573" lon="4.60053">
        <ele>164.52</ele>
        <time>2021-08-10T05:14:10Z</time>
      </trkpt>
      <trkpt lat="48.8557" lon="4.60045">
        <ele>164.04</ele>
        <time>2021-08-10T05:14:11Z</time>
      </trkpt>
      <trkpt lat="48.85568" lon="4.60034">
        <ele>164.04</ele>
        <time>2021-08-10T05:14:12Z</time>
      </trkpt>
      <trkpt lat="48.85568" lon="4.60025">
        <ele>163.56</ele>
        <time>2021-08-10T05:14:13Z</time>
      </trkpt>
      <trkpt lat="48.85568" lon="4.60016">
        <ele>162.6</ele>
        <time>2021-08-10T05:14:14Z</time>
      </trkpt>
      <trkpt lat="48.85568" lon="4.60006">
        <ele>162.6</ele>
        <time>2021-08-10T05:14:15Z</time>
      </trkpt>
      <trkpt lat="48.8557" lon="4.59996">
        <ele>162.12</ele>
        <time>2021-08-10T05:14:16Z</time>
      </trkpt>
      <trkpt lat="48.85578" lon="4.59928">
        <ele>158.75</ele>
        <time>2021-08-10T05:14:22Z</time>
      </trkpt>
      <trkpt lat="48.85581" lon="4.59903">
        <ele>157.79</ele>
        <time>2021-08-10T05:14:24Z</time>
      </trkpt>
      <trkpt lat="48.85587" lon="4.59835">
        <ele>154.91</ele>
        <time>2021-08-10T05:14:29Z</time>
      </trkpt>
      <trkpt lat="48.85592" lon="4.5978">
        <ele>151.54</ele>
        <time>2021-08-10T05:14:33Z</time>
      </trkpt>
      <trkpt lat="48.85593" lon="4.59718">
        <ele>148.18</ele>
        <time>2021-08-10T05:14:38Z</time>
      </trkpt>
      <trkpt lat="48.8558" lon="4.59647">
        <ele>145.78</ele>
        <time>2021-08-10T05:14:44Z</time>
      </trkpt>
      <trkpt lat="48.85574" lon="4.59618">
        <ele>145.3</ele>
        <time>2021-08-10T05:14:47Z</time>
      </trkpt>
      <trkpt lat="48.85571" lon="4.5961">
        <ele>145.3</ele>
        <time>2021-08-10T05:14:48Z</time>
      </trkpt>
      <trkpt lat="48.85566" lon="4.59605">
        <ele>144.82</ele>
        <time>2021-08-10T05:14:49Z</time>
      </trkpt>
      <trkpt lat="48.85561" lon="4.59603">
        <ele>144.82</ele>
        <time>2021-08-10T05:14:50Z</time>
      </trkpt>
      <trkpt lat="48.85556" lon="4.59604">
        <ele>144.82</ele>
        <time>2021-08-10T05:14:51Z</time>
      </trkpt>
      <trkpt lat="48.85551" lon="4.59605">
        <ele>144.82</ele>
        <time>2021-08-10T05:14:52Z</time>
      </trkpt>
      <trkpt lat="48.85543" lon="4.59607">
        <ele>144.82</ele>
        <time>2021-08-10T05:14:54Z</time>
      </trkpt>
      <trkpt lat="48.85539" lon="4.59608">
        <ele>145.78</ele>
        <time>2021-08-10T05:14:55Z</time>
      </trkpt>
      <trkpt lat="48.8552" lon="4.59616">
        <ele>147.22</ele>
        <time>2021-08-10T05:15:02Z</time>
      </trkpt>
      <trkpt lat="48.85502" lon="4.59622">
        <ele>149.14</ele>
        <time>2021-08-10T05:15:11Z</time>
      </trkpt>
      <trkpt lat="48.85484" lon="4.59639">
        <ele>151.06</ele>
        <time>2021-08-10T05:15:22Z</time>
      </trkpt>
      <trkpt lat="48.85475" lon="4.59669">
        <ele>153.47</ele>
        <time>2021-08-10T05:15:32Z</time>
      </trkpt>
      <trkpt lat="48.85471" lon="4.59709">
        <ele>154.43</ele>
        <time>2021-08-10T05:15:41Z</time>
      </trkpt>
      <trkpt lat="48.85467" lon="4.59746">
        <ele>155.87</ele>
        <time>2021-08-10T05:15:49Z</time>
      </trkpt>
      <trkpt lat="48.85461" lon="4.598">
        <ele>158.27</ele>
        <time>2021-08-10T05:16:01Z</time>
      </trkpt>
      <trkpt lat="48.85453" lon="4.59858">
        <ele>159.72</ele>
        <time>2021-08-10T05:16:14Z</time>
      </trkpt>
      <trkpt lat="48.85446" lon="4.59909">
        <ele>161.64</ele>
        <time>2021-08-10T05:16:26Z</time>
      </trkpt>
      <trkpt lat="48.85441" lon="4.59944">
        <ele>162.12</ele>
        <time>2021-08-10T05:16:34Z</time>
      </trkpt>
      <trkpt lat="48.85435" lon="4.59989">
        <ele>163.56</ele>
        <time>2021-08-10T05:16:44Z</time>
      </trkpt>
      <trkpt lat="48.85427" lon="4.60033">
        <ele>164.52</ele>
        <time>2021-08-10T05:16:54Z</time>
      </trkpt>
      <trkpt lat="48.8542" lon="4.60064">
        <ele>165.48</ele>
        <time>2021-08-10T05:17:01Z</time>
      </trkpt>
      <trkpt lat="48.85411" lon="4.60107">
        <ele>166.45</ele>
        <time>2021-08-10T05:17:11Z</time>
      </trkpt>
      <trkpt lat="48.85407" lon="4.6015">
        <ele>167.41</ele>
        <time>2021-08-10T05:17:20Z</time>
      </trkpt>
      <trkpt lat="48.85407" lon="4.60206">
        <ele>167.41</ele>
        <time>2021-08-10T05:17:30Z</time>
      </trkpt>
      <trkpt lat="48.85399" lon="4.60241">
        <ele>167.89</ele>
        <time>2021-08-10T05:17:37Z</time>
      </trkpt>
      <trkpt lat="48.85384" lon="4.60252">
        <ele>169.81</ele>
        <time>2021-08-10T05:17:43Z</time>
      </trkpt>
      <trkpt lat="48.85362" lon="4.60253">
        <ele>173.17</ele>
        <time>2021-08-10T05:17:53Z</time>
      </trkpt>
      <trkpt lat="48.85343" lon="4.60252">
        <ele>175.1</ele>
        <time>2021-08-10T05:18:02Z</time>
      </trkpt>
      <trkpt lat="48.85316" lon="4.60254">
        <ele>177.5</ele>
        <time>2021-08-10T05:18:13Z</time>
      </trkpt>
      <trkpt lat="48.85286" lon="4.60257">
        <ele>179.9</ele>
        <time>2021-08-10T05:18:25Z</time>
      </trkpt>
      <trkpt lat="48.85253" lon="4.6026">
        <ele>182.31</ele>
        <time>2021-08-10T05:18:38Z</time>
      </trkpt>
      <trkpt lat="48.85236" lon="4.60262">
        <ele>183.27</ele>
        <time>2021-08-10T05:18:46Z</time>
      </trkpt>
      <trkpt lat="48.85211" lon="4.60265">
        <ele>184.71</ele>
        <time>2021-08-10T05:18:57Z</time>
      </trkpt>
      <trkpt lat="48.85189" lon="4.60267">
        <ele>185.19</ele>
        <time>2021-08-10T05:19:06Z</time>
      </trkpt>
      <trkpt lat="48.85153" lon="4.6027">
        <ele>187.11</ele>
        <time>2021-08-10T05:19:20Z</time>
      </trkpt>
      <trkpt lat="48.85121" lon="4.60273">
        <ele>188.56</ele>
        <time>2021-08-10T05:19:32Z</time>
      </trkpt>
      <trkpt lat="48.85099" lon="4.60277">
        <ele>190</ele>
        <time>2021-08-10T05:19:41Z</time>
      </trkpt>
      <trkpt lat="48.85087" lon="4.60277">
        <ele>190.96</ele>
        <time>2021-08-10T05:19:46Z</time>
      </trkpt>
      <trkpt lat="48.85085" lon="4.60274">
        <ele>190.48</ele>
        <time>2021-08-10T05:19:47Z</time>
      </trkpt>
      <trkpt lat="48.85083" lon="4.60272">
        <ele>190.96</ele>
        <time>2021-08-10T05:19:48Z</time>
      </trkpt>
      <trkpt lat="48.85065" lon="4.60239">
        <ele>190.48</ele>
        <time>2021-08-10T05:19:57Z</time>
      </trkpt>
      <trkpt lat="48.85046" lon="4.60204">
        <ele>190.48</ele>
        <time>2021-08-10T05:20:05Z</time>
      </trkpt>
      <trkpt lat="48.85041" lon="4.60196">
        <ele>190.48</ele>
        <time>2021-08-10T05:20:07Z</time>
      </trkpt>
      <trkpt lat="48.85027" lon="4.60172">
        <ele>190.48</ele>
        <time>2021-08-10T05:20:12Z</time>
      </trkpt>
      <trkpt lat="48.85025" lon="4.60168">
        <ele>190.48</ele>
        <time>2021-08-10T05:20:13Z</time>
      </trkpt>
      <trkpt lat="48.84998" lon="4.60114">
        <ele>190.48</ele>
        <time>2021-08-10T05:20:23Z</time>
      </trkpt>
      <trkpt lat="48.84956" lon="4.60035">
        <ele>190.48</ele>
        <time>2021-08-10T05:20:37Z</time>
      </trkpt>
      <trkpt lat="48.84925" lon="4.59979">
        <ele>190.48</ele>
        <time>2021-08-10T05:20:47Z</time>
      </trkpt>
      <trkpt lat="48.84905" lon="4.59941">
        <ele>190.48</ele>
        <time>2021-08-10T05:20:54Z</time>
      </trkpt>
      <trkpt lat="48.84903" lon="4.59935">
        <ele>190.48</ele>
        <time>2021-08-10T05:20:55Z</time>
      </trkpt>
      <trkpt lat="48.849" lon="4.5993">
        <ele>190.48</ele>
        <time>2021-08-10T05:20:56Z</time>
      </trkpt>
      <trkpt lat="48.84866" lon="4.59868">
        <ele>190.48</ele>
        <time>2021-08-10T05:21:07Z</time>
      </trkpt>
      <trkpt lat="48.84828" lon="4.59797">
        <ele>190.48</ele>
        <time>2021-08-10T05:21:19Z</time>
      </trkpt>
      <trkpt lat="48.84799" lon="4.59745">
        <ele>190.48</ele>
        <time>2021-08-10T05:21:28Z</time>
      </trkpt>
      <trkpt lat="48.8477" lon="4.59698">
        <ele>191.92</ele>
        <time>2021-08-10T05:21:37Z</time>
      </trkpt>
      <trkpt lat="48.84749" lon="4.59658">
        <ele>192.4</ele>
        <time>2021-08-10T05:21:45Z</time>
      </trkpt>
      <trkpt lat="48.84729" lon="4.59616">
        <ele>190</ele>
        <time>2021-08-10T05:21:51Z</time>
      </trkpt>
      <trkpt lat="48.84721" lon="4.59599">
        <ele>189.52</ele>
        <time>2021-08-10T05:21:53Z</time>
      </trkpt>
      <trkpt lat="48.84676" lon="4.59515">
        <ele>187.59</ele>
        <time>2021-08-10T05:22:04Z</time>
      </trkpt>
      <trkpt lat="48.84637" lon="4.59445">
        <ele>186.15</ele>
        <time>2021-08-10T05:22:14Z</time>
      </trkpt>
      <trkpt lat="48.84595" lon="4.59366">
        <ele>184.23</ele>
        <time>2021-08-10T05:22:24Z</time>
      </trkpt>
      <trkpt lat="48.84543" lon="4.5927">
        <ele>182.31</ele>
        <time>2021-08-10T05:22:36Z</time>
      </trkpt>
      <trkpt lat="48.84502" lon="4.59195">
        <ele>179.9</ele>
        <time>2021-08-10T05:22:45Z</time>
      </trkpt>
      <trkpt lat="48.84463" lon="4.59124">
        <ele>178.46</ele>
        <time>2021-08-10T05:22:54Z</time>
      </trkpt>
      <trkpt lat="48.84429" lon="4.59063">
        <ele>176.54</ele>
        <time>2021-08-10T05:23:02Z</time>
      </trkpt>
      <trkpt lat="48.84388" lon="4.58987">
        <ele>174.62</ele>
        <time>2021-08-10T05:23:12Z</time>
      </trkpt>
      <trkpt lat="48.84352" lon="4.5892">
        <ele>172.21</ele>
        <time>2021-08-10T05:23:21Z</time>
      </trkpt>
      <trkpt lat="48.84322" lon="4.58858">
        <ele>169.81</ele>
        <time>2021-08-10T05:23:29Z</time>
      </trkpt>
      <trkpt lat="48.84318" lon="4.58853">
        <ele>169.33</ele>
        <time>2021-08-10T05:23:30Z</time>
      </trkpt>
      <trkpt lat="48.84314" lon="4.58849">
        <ele>168.85</ele>
        <time>2021-08-10T05:23:31Z</time>
      </trkpt>
      <trkpt lat="48.84309" lon="4.58849">
        <ele>168.85</ele>
        <time>2021-08-10T05:23:32Z</time>
      </trkpt>
      <trkpt lat="48.84304" lon="4.58851">
        <ele>168.37</ele>
        <time>2021-08-10T05:23:33Z</time>
      </trkpt>
      <trkpt lat="48.843" lon="4.58856">
        <ele>168.37</ele>
        <time>2021-08-10T05:23:34Z</time>
      </trkpt>
      <trkpt lat="48.84295" lon="4.5886">
        <ele>168.37</ele>
        <time>2021-08-10T05:23:35Z</time>
      </trkpt>
      <trkpt lat="48.84265" lon="4.58897">
        <ele>168.37</ele>
        <time>2021-08-10T05:23:42Z</time>
      </trkpt>
      <trkpt lat="48.84261" lon="4.58904">
        <ele>167.89</ele>
        <time>2021-08-10T05:23:43Z</time>
      </trkpt>
      <trkpt lat="48.84257" lon="4.58909">
        <ele>167.89</ele>
        <time>2021-08-10T05:23:44Z</time>
      </trkpt>
      <trkpt lat="48.84213" lon="4.58963">
        <ele>165</ele>
        <time>2021-08-10T05:23:54Z</time>
      </trkpt>
      <trkpt lat="48.84178" lon="4.59005">
        <ele>160.68</ele>
        <time>2021-08-10T05:24:01Z</time>
      </trkpt>
      <trkpt lat="48.84146" lon="4.59042">
        <ele>157.31</ele>
        <time>2021-08-10T05:24:07Z</time>
      </trkpt>
      <trkpt lat="48.84113" lon="4.59085">
        <ele>154.43</ele>
        <time>2021-08-10T05:24:13Z</time>
      </trkpt>
      <trkpt lat="48.84104" lon="4.59096">
        <ele>153.95</ele>
        <time>2021-08-10T05:24:15Z</time>
      </trkpt>
      <trkpt lat="48.84094" lon="4.59105">
        <ele>153.47</ele>
        <time>2021-08-10T05:24:17Z</time>
      </trkpt>
      <trkpt lat="48.84092" lon="4.59109">
        <ele>153.47</ele>
        <time>2021-08-10T05:24:18Z</time>
      </trkpt>
      <trkpt lat="48.84089" lon="4.59115">
        <ele>153.47</ele>
        <time>2021-08-10T05:24:19Z</time>
      </trkpt>
      <trkpt lat="48.84087" lon="4.59119">
        <ele>152.99</ele>
        <time>2021-08-10T05:24:20Z</time>
      </trkpt>
      <trkpt lat="48.84085" lon="4.59123">
        <ele>154.43</ele>
        <time>2021-08-10T05:24:21Z</time>
      </trkpt>
      <trkpt lat="48.8407" lon="4.59157">
        <ele>156.83</ele>
        <time>2021-08-10T05:24:29Z</time>
      </trkpt>
      <trkpt lat="48.84055" lon="4.59194">
        <ele>157.31</ele>
        <time>2021-08-10T05:24:37Z</time>
      </trkpt>
      <trkpt lat="48.84032" lon="4.59252">
        <ele>155.87</ele>
        <time>2021-08-10T05:24:48Z</time>
      </trkpt>
      <trkpt lat="48.84014" lon="4.593">
        <ele>152.51</ele>
        <time>2021-08-10T05:24:57Z</time>
      </trkpt>
      <trkpt lat="48.84009" lon="4.59327">
        <ele>150.58</ele>
        <time>2021-08-10T05:25:03Z</time>
      </trkpt>
      <trkpt lat="48.84007" lon="4.59332">
        <ele>149.62</ele>
        <time>2021-08-10T05:25:04Z</time>
      </trkpt>
      <trkpt lat="48.84005" lon="4.59338">
        <ele>148.66</ele>
        <time>2021-08-10T05:25:05Z</time>
      </trkpt>
      <trkpt lat="48.84002" lon="4.59344">
        <ele>148.18</ele>
        <time>2021-08-10T05:25:06Z</time>
      </trkpt>
      <trkpt lat="48.84001" lon="4.59349">
        <ele>147.22</ele>
        <time>2021-08-10T05:25:07Z</time>
      </trkpt>
      <trkpt lat="48.84" lon="4.59355">
        <ele>146.74</ele>
        <time>2021-08-10T05:25:08Z</time>
      </trkpt>
      <trkpt lat="48.84" lon="4.59359">
        <ele>146.26</ele>
        <time>2021-08-10T05:25:09Z</time>
      </trkpt>
      <trkpt lat="48.84" lon="4.59363">
        <ele>146.26</ele>
        <time>2021-08-10T05:25:10Z</time>
      </trkpt>
      <trkpt lat="48.84" lon="4.59365">
        <ele>146.26</ele>
        <time>2021-08-10T05:25:11Z</time>
      </trkpt>
      <trkpt lat="48.84" lon="4.59368">
        <ele>145.78</ele>
        <time>2021-08-10T05:25:12Z</time>
      </trkpt>
      <trkpt lat="48.84003" lon="4.59384">
        <ele>141.93</ele>
        <time>2021-08-10T05:25:17Z</time>
      </trkpt>
      <trkpt lat="48.84005" lon="4.59386">
        <ele>141.45</ele>
        <time>2021-08-10T05:25:18Z</time>
      </trkpt>
      <trkpt lat="48.84005" lon="4.59388">
        <ele>141.45</ele>
        <time>2021-08-10T05:25:19Z</time>
      </trkpt>
      <trkpt lat="48.84007" lon="4.59392">
        <ele>140.49</ele>
        <time>2021-08-10T05:25:25Z</time>
      </trkpt>
      <trkpt lat="48.84007" lon="4.59394">
        <ele>140.01</ele>
        <time>2021-08-10T05:25:28Z</time>
      </trkpt>
      <trkpt lat="48.84007" lon="4.59397">
        <ele>139.53</ele>
        <time>2021-08-10T05:25:29Z</time>
      </trkpt>
      <trkpt lat="48.84007" lon="4.594">
        <ele>138.57</ele>
        <time>2021-08-10T05:25:30Z</time>
      </trkpt>
      <trkpt lat="48.84007" lon="4.59402">
        <ele>138.09</ele>
        <time>2021-08-10T05:25:31Z</time>
      </trkpt>
      <trkpt lat="48.84007" lon="4.59405">
        <ele>137.61</ele>
        <time>2021-08-10T05:25:32Z</time>
      </trkpt>
      <trkpt lat="48.84008" lon="4.59408">
        <ele>137.13</ele>
        <time>2021-08-10T05:25:33Z</time>
      </trkpt>
      <trkpt lat="48.84009" lon="4.5941">
        <ele>137.13</ele>
        <time>2021-08-10T05:25:34Z</time>
      </trkpt>
      <trkpt lat="48.84012" lon="4.59416">
        <ele>136.16</ele>
        <time>2021-08-10T05:25:40Z</time>
      </trkpt>
      <trkpt lat="48.84014" lon="4.59419">
        <ele>135.68</ele>
        <time>2021-08-10T05:25:43Z</time>
      </trkpt>
      <trkpt lat="48.84014" lon="4.59422">
        <ele>135.68</ele>
        <time>2021-08-10T05:25:44Z</time>
      </trkpt>
      <trkpt lat="48.84012" lon="4.59433">
        <ele>131.84</ele>
        <time>2021-08-10T05:25:48Z</time>
      </trkpt>
      <trkpt lat="48.84012" lon="4.59435">
        <ele>131.84</ele>
        <time>2021-08-10T05:25:49Z</time>
      </trkpt>
      <trkpt lat="48.84011" lon="4.5944">
        <ele>130.88</ele>
        <time>2021-08-10T05:25:51Z</time>
      </trkpt>
      <trkpt lat="48.84008" lon="4.5945">
        <ele>130.4</ele>
        <time>2021-08-10T05:25:56Z</time>
      </trkpt>
      <trkpt lat="48.84007" lon="4.5945">
        <ele>129.92</ele>
        <time>2021-08-10T05:25:57Z</time>
      </trkpt>
      <trkpt lat="48.84005" lon="4.5945">
        <ele>129.92</ele>
        <time>2021-08-10T05:25:58Z</time>
      </trkpt>
      <trkpt lat="48.84002" lon="4.5945">
        <ele>129.92</ele>
        <time>2021-08-10T05:25:59Z</time>
      </trkpt>
      <trkpt lat="48.84" lon="4.59451">
        <ele>129.92</ele>
        <time>2021-08-10T05:26:00Z</time>
      </trkpt>
      <trkpt lat="48.83996" lon="4.59451">
        <ele>129.92</ele>
        <time>2021-08-10T05:26:01Z</time>
      </trkpt>
      <trkpt lat="48.83965" lon="4.59454">
        <ele>128.47</ele>
        <time>2021-08-10T05:26:10Z</time>
      </trkpt>
      <trkpt lat="48.83964" lon="4.59458">
        <ele>128.47</ele>
        <time>2021-08-10T05:26:11Z</time>
      </trkpt>
      <trkpt lat="48.83964" lon="4.59463">
        <ele>128.47</ele>
        <time>2021-08-10T05:26:12Z</time>
      </trkpt>
      <trkpt lat="48.83964" lon="4.59467">
        <ele>128.47</ele>
        <time>2021-08-10T05:26:13Z</time>
      </trkpt>
      <trkpt lat="48.83964" lon="4.59471">
        <ele>128.47</ele>
        <time>2021-08-10T05:26:14Z</time>
      </trkpt>
      <trkpt lat="48.83965" lon="4.59475">
        <ele>128.47</ele>
        <time>2021-08-10T05:26:15Z</time>
      </trkpt>
      <trkpt lat="48.83965" lon="4.59478">
        <ele>128.47</ele>
        <time>2021-08-10T05:26:16Z</time>
      </trkpt>
      <trkpt lat="48.83966" lon="4.59481">
        <ele>128.47</ele>
        <time>2021-08-10T05:26:17Z</time>
      </trkpt>
      <trkpt lat="48.83966" lon="4.59484">
        <ele>128.47</ele>
        <time>2021-08-10T05:26:18Z</time>
      </trkpt>
      <trkpt lat="48.83967" lon="4.59486">
        <ele>128.47</ele>
        <time>2021-08-10T05:26:19Z</time>
      </trkpt>
      <trkpt lat="48.83967" lon="4.59489">
        <ele>128.47</ele>
        <time>2021-08-10T05:26:20Z</time>
      </trkpt>
      <trkpt lat="48.83973" lon="4.59516">
        <ele>129.92</ele>
        <time>2021-08-10T05:26:30Z</time>
      </trkpt>
      <trkpt lat="48.83973" lon="4.59522">
        <ele>130.4</ele>
        <time>2021-08-10T05:26:33Z</time>
      </trkpt>
      <trkpt lat="48.83974" lon="4.59525">
        <ele>130.88</ele>
        <time>2021-08-10T05:26:35Z</time>
      </trkpt>
      <trkpt lat="48.83974" lon="4.59527">
        <ele>130.88</ele>
        <time>2021-08-10T05:26:36Z</time>
      </trkpt>
      <trkpt lat="48.83974" lon="4.59529">
        <ele>130.88</ele>
        <time>2021-08-10T05:26:37Z</time>
      </trkpt>
      <trkpt lat="48.83975" lon="4.59531">
        <ele>130.88</ele>
        <time>2021-08-10T05:26:38Z</time>
      </trkpt>
      <trkpt lat="48.83975" lon="4.59533">
        <ele>131.36</ele>
        <time>2021-08-10T05:26:39Z</time>
      </trkpt>
      <trkpt lat="48.83979" lon="4.59555">
        <ele>132.8</ele>
        <time>2021-08-10T05:26:50Z</time>
      </trkpt>
      <trkpt lat="48.83982" lon="4.59568">
        <ele>133.76</ele>
        <time>2021-08-10T05:26:57Z</time>
      </trkpt>
      <trkpt lat="48.83983" lon="4.5957">
        <ele>133.76</ele>
        <time>2021-08-10T05:26:58Z</time>
      </trkpt>
      <trkpt lat="48.83983" lon="4.59572">
        <ele>134.24</ele>
        <time>2021-08-10T05:26:59Z</time>
      </trkpt>
      <trkpt lat="48.83984" lon="4.59573">
        <ele>134.72</ele>
        <time>2021-08-10T05:27:00Z</time>
      </trkpt>
      <trkpt lat="48.83985" lon="4.59575">
        <ele>134.72</ele>
        <time>2021-08-10T05:27:01Z</time>
      </trkpt>
      <trkpt lat="48.83985" lon="4.59577">
        <ele>134.72</ele>
        <time>2021-08-10T05:27:02Z</time>
      </trkpt>
      <trkpt lat="48.83985" lon="4.59579">
        <ele>135.2</ele>
        <time>2021-08-10T05:27:03Z</time>
      </trkpt>
      <trkpt lat="48.83991" lon="4.596">
        <ele>136.64</ele>
        <time>2021-08-10T05:27:14Z</time>
      </trkpt>
      <trkpt lat="48.83996" lon="4.59618">
        <ele>139.05</ele>
        <time>2021-08-10T05:27:23Z</time>
      </trkpt>
      <trkpt lat="48.83999" lon="4.59634">
        <ele>141.45</ele>
        <time>2021-08-10T05:27:32Z</time>
      </trkpt>
      <trkpt lat="48.84" lon="4.59636">
        <ele>141.45</ele>
        <time>2021-08-10T05:27:33Z</time>
      </trkpt>
      <trkpt lat="48.84002" lon="4.59647">
        <ele>142.41</ele>
        <time>2021-08-10T05:27:39Z</time>
      </trkpt>
      <trkpt lat="48.84002" lon="4.59649">
        <ele>142.89</ele>
        <time>2021-08-10T05:27:40Z</time>
      </trkpt>
      <trkpt lat="48.84002" lon="4.59651">
        <ele>142.89</ele>
        <time>2021-08-10T05:27:41Z</time>
      </trkpt>
      <trkpt lat="48.84002" lon="4.59653">
        <ele>142.89</ele>
        <time>2021-08-10T05:27:42Z</time>
      </trkpt>
      <trkpt lat="48.84002" lon="4.59655">
        <ele>143.37</ele>
        <time>2021-08-10T05:27:43Z</time>
      </trkpt>
      <trkpt lat="48.84003" lon="4.59657">
        <ele>143.37</ele>
        <time>2021-08-10T05:27:44Z</time>
      </trkpt>
      <trkpt lat="48.84003" lon="4.59659">
        <ele>143.85</ele>
        <time>2021-08-10T05:27:45Z</time>
      </trkpt>
      <trkpt lat="48.84003" lon="4.59661">
        <ele>143.85</ele>
        <time>2021-08-10T05:27:46Z</time>
      </trkpt>
      <trkpt lat="48.84003" lon="4.59663">
        <ele>144.34</ele>
        <time>2021-08-10T05:27:47Z</time>
      </trkpt>
      <trkpt lat="48.84003" lon="4.59665">
        <ele>144.34</ele>
        <time>2021-08-10T05:27:48Z</time>
      </trkpt>
      <trkpt lat="48.84003" lon="4.59667">
        <ele>144.82</ele>
        <time>2021-08-10T05:27:49Z</time>
      </trkpt>
      <trkpt lat="48.84003" lon="4.59669">
        <ele>144.82</ele>
        <time>2021-08-10T05:27:50Z</time>
      </trkpt>
      <trkpt lat="48.84003" lon="4.59671">
        <ele>145.3</ele>
        <time>2021-08-10T05:27:51Z</time>
      </trkpt>
      <trkpt lat="48.84002" lon="4.59673">
        <ele>145.3</ele>
        <time>2021-08-10T05:27:52Z</time>
      </trkpt>
      <trkpt lat="48.84002" lon="4.59675">
        <ele>145.3</ele>
        <time>2021-08-10T05:27:53Z</time>
      </trkpt>
      <trkpt lat="48.84002" lon="4.59677">
        <ele>145.3</ele>
        <time>2021-08-10T05:27:54Z</time>
      </trkpt>
      <trkpt lat="48.83996" lon="4.59695">
        <ele>147.22</ele>
        <time>2021-08-10T05:28:04Z</time>
      </trkpt>
      <trkpt lat="48.83989" lon="4.59716">
        <ele>149.62</ele>
        <time>2021-08-10T05:28:17Z</time>
      </trkpt>
      <trkpt lat="48.83986" lon="4.59721">
        <ele>150.1</ele>
        <time>2021-08-10T05:28:20Z</time>
      </trkpt>
      <trkpt lat="48.83986" lon="4.59723">
        <ele>150.1</ele>
        <time>2021-08-10T05:28:21Z</time>
      </trkpt>
      <trkpt lat="48.83985" lon="4.59725">
        <ele>150.1</ele>
        <time>2021-08-10T05:28:22Z</time>
      </trkpt>
      <trkpt lat="48.83985" lon="4.59727">
        <ele>150.58</ele>
        <time>2021-08-10T05:28:23Z</time>
      </trkpt>
      <trkpt lat="48.83984" lon="4.59728">
        <ele>151.06</ele>
        <time>2021-08-10T05:28:24Z</time>
      </trkpt>
      <trkpt lat="48.83983" lon="4.5973">
        <ele>151.06</ele>
        <time>2021-08-10T05:28:25Z</time>
      </trkpt>
      <trkpt lat="48.83983" lon="4.59732">
        <ele>151.06</ele>
        <time>2021-08-10T05:28:26Z</time>
      </trkpt>
      <trkpt lat="48.83982" lon="4.59733">
        <ele>151.54</ele>
        <time>2021-08-10T05:28:27Z</time>
      </trkpt>
      <trkpt lat="48.83975" lon="4.59753">
        <ele>152.99</ele>
        <time>2021-08-10T05:28:38Z</time>
      </trkpt>
      <trkpt lat="48.83969" lon="4.59771">
        <ele>154.43</ele>
        <time>2021-08-10T05:28:48Z</time>
      </trkpt>
      <trkpt lat="48.83965" lon="4.59784">
        <ele>155.39</ele>
        <time>2021-08-10T05:28:55Z</time>
      </trkpt>
      <trkpt lat="48.83964" lon="4.59786">
        <ele>155.39</ele>
        <time>2021-08-10T05:28:56Z</time>
      </trkpt>
      <trkpt lat="48.83964" lon="4.59788">
        <ele>155.87</ele>
        <time>2021-08-10T05:28:57Z</time>
      </trkpt>
      <trkpt lat="48.83963" lon="4.59789">
        <ele>155.87</ele>
        <time>2021-08-10T05:28:58Z</time>
      </trkpt>
      <trkpt lat="48.83962" lon="4.59791">
        <ele>155.87</ele>
        <time>2021-08-10T05:28:59Z</time>
      </trkpt>
      <trkpt lat="48.83961" lon="4.59793">
        <ele>156.35</ele>
        <time>2021-08-10T05:29:00Z</time>
      </trkpt>
      <trkpt lat="48.83961" lon="4.59795">
        <ele>156.35</ele>
        <time>2021-08-10T05:29:01Z</time>
      </trkpt>
      <trkpt lat="48.83955" lon="4.59811">
        <ele>158.27</ele>
        <time>2021-08-10T05:29:10Z</time>
      </trkpt>
      <trkpt lat="48.83948" lon="4.5983">
        <ele>159.24</ele>
        <time>2021-08-10T05:29:20Z</time>
      </trkpt>
      <trkpt lat="48.83942" lon="4.59848">
        <ele>160.68</ele>
        <time>2021-08-10T05:29:30Z</time>
      </trkpt>
      <trkpt lat="48.83937" lon="4.59864">
        <ele>161.64</ele>
        <time>2021-08-10T05:29:38Z</time>
      </trkpt>
      <trkpt lat="48.8393" lon="4.59883">
        <ele>162.6</ele>
        <time>2021-08-10T05:29:48Z</time>
      </trkpt>
      <trkpt lat="48.83922" lon="4.59905">
        <ele>164.04</ele>
        <time>2021-08-10T05:29:59Z</time>
      </trkpt>
      <trkpt lat="48.83919" lon="4.59912">
        <ele>164.52</ele>
        <time>2021-08-10T05:30:02Z</time>
      </trkpt>
      <trkpt lat="48.83918" lon="4.59914">
        <ele>164.52</ele>
        <time>2021-08-10T05:30:03Z</time>
      </trkpt>
      <trkpt lat="48.83918" lon="4.59916">
        <ele>164.52</ele>
        <time>2021-08-10T05:30:04Z</time>
      </trkpt>
      <trkpt lat="48.83917" lon="4.59919">
        <ele>164.52</ele>
        <time>2021-08-10T05:30:05Z</time>
      </trkpt>
      <trkpt lat="48.83916" lon="4.59921">
        <ele>165</ele>
        <time>2021-08-10T05:30:06Z</time>
      </trkpt>
      <trkpt lat="48.83909" lon="4.59942">
        <ele>165.96</ele>
        <time>2021-08-10T05:30:14Z</time>
      </trkpt>
      <trkpt lat="48.83899" lon="4.5997">
        <ele>166.45</ele>
        <time>2021-08-10T05:30:24Z</time>
      </trkpt>
      <trkpt lat="48.83888" lon="4.6">
        <ele>166.93</ele>
        <time>2021-08-10T05:30:33Z</time>
      </trkpt>
      <trkpt lat="48.83878" lon="4.60026">
        <ele>166.93</ele>
        <time>2021-08-10T05:30:40Z</time>
      </trkpt>
      <trkpt lat="48.8387" lon="4.60052">
        <ele>165.48</ele>
        <time>2021-08-10T05:30:45Z</time>
      </trkpt>
      <trkpt lat="48.8385" lon="4.60108">
        <ele>163.08</ele>
        <time>2021-08-10T05:30:54Z</time>
      </trkpt>
      <trkpt lat="48.83841" lon="4.60135">
        <ele>161.64</ele>
        <time>2021-08-10T05:30:58Z</time>
      </trkpt>
      <trkpt lat="48.83838" lon="4.60141">
        <ele>161.16</ele>
        <time>2021-08-10T05:30:59Z</time>
      </trkpt>
      <trkpt lat="48.83834" lon="4.60146">
        <ele>160.68</ele>
        <time>2021-08-10T05:31:00Z</time>
      </trkpt>
      <trkpt lat="48.83829" lon="4.60148">
        <ele>159.72</ele>
        <time>2021-08-10T05:31:01Z</time>
      </trkpt>
      <trkpt lat="48.83823" lon="4.60148">
        <ele>159.24</ele>
        <time>2021-08-10T05:31:02Z</time>
      </trkpt>
      <trkpt lat="48.83818" lon="4.60147">
        <ele>159.24</ele>
        <time>2021-08-10T05:31:03Z</time>
      </trkpt>
      <trkpt lat="48.83813" lon="4.60145">
        <ele>158.27</ele>
        <time>2021-08-10T05:31:04Z</time>
      </trkpt>
      <trkpt lat="48.83801" lon="4.6014">
        <ele>157.79</ele>
        <time>2021-08-10T05:31:06Z</time>
      </trkpt>
      <trkpt lat="48.83795" lon="4.60137">
        <ele>157.31</ele>
        <time>2021-08-10T05:31:07Z</time>
      </trkpt>
      <trkpt lat="48.83736" lon="4.6011">
        <ele>154.91</ele>
        <time>2021-08-10T05:31:17Z</time>
      </trkpt>
      <trkpt lat="48.83692" lon="4.60092">
        <ele>152.03</ele>
        <time>2021-08-10T05:31:24Z</time>
      </trkpt>
      <trkpt lat="48.83653" lon="4.60077">
        <ele>149.14</ele>
        <time>2021-08-10T05:31:29Z</time>
      </trkpt>
      <trkpt lat="48.83619" lon="4.60062">
        <ele>145.78</ele>
        <time>2021-08-10T05:31:33Z</time>
      </trkpt>
      <trkpt lat="48.83583" lon="4.60048">
        <ele>141.93</ele>
        <time>2021-08-10T05:31:37Z</time>
      </trkpt>
      <trkpt lat="48.83537" lon="4.60038">
        <ele>138.09</ele>
        <time>2021-08-10T05:31:42Z</time>
      </trkpt>
      <trkpt lat="48.83489" lon="4.60033">
        <ele>134.24</ele>
        <time>2021-08-10T05:31:47Z</time>
      </trkpt>
      <trkpt lat="48.83452" lon="4.60028">
        <ele>130.4</ele>
        <time>2021-08-10T05:31:51Z</time>
      </trkpt>
      <trkpt lat="48.83416" lon="4.60022">
        <ele>127.03</ele>
        <time>2021-08-10T05:31:55Z</time>
      </trkpt>
      <trkpt lat="48.83379" lon="4.60015">
        <ele>123.19</ele>
        <time>2021-08-10T05:31:59Z</time>
      </trkpt>
      <trkpt lat="48.83362" lon="4.60012">
        <ele>121.74</ele>
        <time>2021-08-10T05:32:01Z</time>
      </trkpt>
      <trkpt lat="48.83352" lon="4.60014">
        <ele>120.78</ele>
        <time>2021-08-10T05:32:02Z</time>
      </trkpt>
      <trkpt lat="48.83346" lon="4.60016">
        <ele>121.26</ele>
        <time>2021-08-10T05:32:03Z</time>
      </trkpt>
      <trkpt lat="48.83338" lon="4.6002">
        <ele>120.3</ele>
        <time>2021-08-10T05:32:04Z</time>
      </trkpt>
      <trkpt lat="48.8333" lon="4.60024">
        <ele>119.34</ele>
        <time>2021-08-10T05:32:05Z</time>
      </trkpt>
      <trkpt lat="48.83323" lon="4.60029">
        <ele>119.34</ele>
        <time>2021-08-10T05:32:06Z</time>
      </trkpt>
      <trkpt lat="48.83247" lon="4.60073">
        <ele>115.98</ele>
        <time>2021-08-10T05:32:16Z</time>
      </trkpt>
      <trkpt lat="48.83171" lon="4.60116">
        <ele>113.57</ele>
        <time>2021-08-10T05:32:27Z</time>
      </trkpt>
      <trkpt lat="48.83166" lon="4.60118">
        <ele>114.05</ele>
        <time>2021-08-10T05:32:28Z</time>
      </trkpt>
      <trkpt lat="48.83161" lon="4.60118">
        <ele>114.05</ele>
        <time>2021-08-10T05:32:29Z</time>
      </trkpt>
      <trkpt lat="48.83157" lon="4.60116">
        <ele>113.09</ele>
        <time>2021-08-10T05:32:30Z</time>
      </trkpt>
      <trkpt lat="48.83154" lon="4.60112">
        <ele>113.09</ele>
        <time>2021-08-10T05:32:31Z</time>
      </trkpt>
      <trkpt lat="48.83151" lon="4.60106">
        <ele>113.09</ele>
        <time>2021-08-10T05:32:32Z</time>
      </trkpt>
      <trkpt lat="48.83149" lon="4.601">
        <ele>113.09</ele>
        <time>2021-08-10T05:32:33Z</time>
      </trkpt>
      <trkpt lat="48.83147" lon="4.60093">
        <ele>113.09</ele>
        <time>2021-08-10T05:32:34Z</time>
      </trkpt>
      <trkpt lat="48.83146" lon="4.60086">
        <ele>113.09</ele>
        <time>2021-08-10T05:32:35Z</time>
      </trkpt>
      <trkpt lat="48.83132" lon="4.6003">
        <ele>111.65</ele>
        <time>2021-08-10T05:32:42Z</time>
      </trkpt>
      <trkpt lat="48.83124" lon="4.6001">
        <ele>111.65</ele>
        <time>2021-08-10T05:32:45Z</time>
      </trkpt>
      <trkpt lat="48.83103" lon="4.59961">
        <ele>112.13</ele>
        <time>2021-08-10T05:32:53Z</time>
      </trkpt>
      <trkpt lat="48.83094" lon="4.59939">
        <ele>112.13</ele>
        <time>2021-08-10T05:32:58Z</time>
      </trkpt>
      <trkpt lat="48.83094" lon="4.59933">
        <ele>112.13</ele>
        <time>2021-08-10T05:32:59Z</time>
      </trkpt>
      <trkpt lat="48.83092" lon="4.59898">
        <ele>111.17</ele>
        <time>2021-08-10T05:33:04Z</time>
      </trkpt>
      <trkpt lat="48.83083" lon="4.59825">
        <ele>110.21</ele>
        <time>2021-08-10T05:33:14Z</time>
      </trkpt>
      <trkpt lat="48.83083" lon="4.59812">
        <ele>110.21</ele>
        <time>2021-08-10T05:33:16Z</time>
      </trkpt>
      <trkpt lat="48.83082" lon="4.59806">
        <ele>110.21</ele>
        <time>2021-08-10T05:33:17Z</time>
      </trkpt>
      <trkpt lat="48.83077" lon="4.59783">
        <ele>109.25</ele>
        <time>2021-08-10T05:33:21Z</time>
      </trkpt>
      <trkpt lat="48.83076" lon="4.59777">
        <ele>109.25</ele>
        <time>2021-08-10T05:33:22Z</time>
      </trkpt>
      <trkpt lat="48.83064" lon="4.5972">
        <ele>110.69</ele>
        <time>2021-08-10T05:33:32Z</time>
      </trkpt>
      <trkpt lat="48.83058" lon="4.59689">
        <ele>109.25</ele>
        <time>2021-08-10T05:33:37Z</time>
      </trkpt>
      <trkpt lat="48.83051" lon="4.59652">
        <ele>107.32</ele>
        <time>2021-08-10T05:33:43Z</time>
      </trkpt>
      <trkpt lat="48.83051" lon="4.59648">
        <ele>108.77</ele>
        <time>2021-08-10T05:33:44Z</time>
      </trkpt>
      <trkpt lat="48.83051" lon="4.59642">
        <ele>108.77</ele>
        <time>2021-08-10T05:33:45Z</time>
      </trkpt>
      <trkpt lat="48.83049" lon="4.59631">
        <ele>106.36</ele>
        <time>2021-08-10T05:33:47Z</time>
      </trkpt>
      <trkpt lat="48.83048" lon="4.59626">
        <ele>105.4</ele>
        <time>2021-08-10T05:33:48Z</time>
      </trkpt>
      <trkpt lat="48.83048" lon="4.5962">
        <ele>104.92</ele>
        <time>2021-08-10T05:33:49Z</time>
      </trkpt>
      <trkpt lat="48.83048" lon="4.59589">
        <ele>105.88</ele>
        <time>2021-08-10T05:33:55Z</time>
      </trkpt>
      <trkpt lat="48.83045" lon="4.59545">
        <ele>105.88</ele>
        <time>2021-08-10T05:34:02Z</time>
      </trkpt>
      <trkpt lat="48.83041" lon="4.59524">
        <ele>105.4</ele>
        <time>2021-08-10T05:34:06Z</time>
      </trkpt>
      <trkpt lat="48.83041" lon="4.59516">
        <ele>105.4</ele>
        <time>2021-08-10T05:34:07Z</time>
      </trkpt>
      <trkpt lat="48.8304" lon="4.5951">
        <ele>105.4</ele>
        <time>2021-08-10T05:34:08Z</time>
      </trkpt>
      <trkpt lat="48.83036" lon="4.59473">
        <ele>105.4</ele>
        <time>2021-08-10T05:34:16Z</time>
      </trkpt>
      <trkpt lat="48.83039" lon="4.59447">
        <ele>105.4</ele>
        <time>2021-08-10T05:34:23Z</time>
      </trkpt>
      <trkpt lat="48.83038" lon="4.59443">
        <ele>105.4</ele>
        <time>2021-08-10T05:34:30Z</time>
      </trkpt>
      <trkpt lat="48.8304" lon="4.5944">
        <ele>105.4</ele>
        <time>2021-08-10T05:34:58Z</time>
      </trkpt>
      <trkpt lat="48.83037" lon="4.59439">
        <ele>105.4</ele>
        <time>2021-08-10T05:35:12Z</time>
      </trkpt>
      <trkpt lat="48.83035" lon="4.59438">
        <ele>105.4</ele>
        <time>2021-08-10T05:35:26Z</time>
      </trkpt>
      <trkpt lat="48.83035" lon="4.59438">
        <ele>105.4</ele>
        <time>2021-08-10T05:35:41Z</time>
      </trkpt>
      <trkpt lat="48.83035" lon="4.59441">
        <ele>105.4</ele>
        <time>2021-08-10T05:35:58Z</time>
      </trkpt>
      <trkpt lat="48.83035" lon="4.59441">
        <ele>104.92</ele>
        <time>2021-08-10T05:36:12Z</time>
      </trkpt>
      <trkpt lat="48.83033" lon="4.5944">
        <ele>104.92</ele>
        <time>2021-08-10T05:36:27Z</time>
      </trkpt>
      <trkpt lat="48.83033" lon="4.59427">
        <ele>104.92</ele>
        <time>2021-08-10T05:36:35Z</time>
      </trkpt>
      <trkpt lat="48.83033" lon="4.59398">
        <ele>103.96</ele>
        <time>2021-08-10T05:36:40Z</time>
      </trkpt>
      <trkpt lat="48.83032" lon="4.59391">
        <ele>103.96</ele>
        <time>2021-08-10T05:36:41Z</time>
      </trkpt>
      <trkpt lat="48.8303" lon="4.59384">
        <ele>103.96</ele>
        <time>2021-08-10T05:36:42Z</time>
      </trkpt>
      <trkpt lat="48.83018" lon="4.59347">
        <ele>103.96</ele>
        <time>2021-08-10T05:36:48Z</time>
      </trkpt>
      <trkpt lat="48.83011" lon="4.59337">
        <ele>103.96</ele>
        <time>2021-08-10T05:36:50Z</time>
      </trkpt>
      <trkpt lat="48.83008" lon="4.59332">
        <ele>103.96</ele>
        <time>2021-08-10T05:36:51Z</time>
      </trkpt>
      <trkpt lat="48.83005" lon="4.59328">
        <ele>103.96</ele>
        <time>2021-08-10T05:36:52Z</time>
      </trkpt>
      <trkpt lat="48.82984" lon="4.59304">
        <ele>103.96</ele>
        <time>2021-08-10T05:36:58Z</time>
      </trkpt>
      <trkpt lat="48.82979" lon="4.593">
        <ele>103.96</ele>
        <time>2021-08-10T05:36:59Z</time>
      </trkpt>
      <trkpt lat="48.82976" lon="4.59295">
        <ele>103.96</ele>
        <time>2021-08-10T05:37:00Z</time>
      </trkpt>
      <trkpt lat="48.82958" lon="4.59261">
        <ele>104.44</ele>
        <time>2021-08-10T05:37:07Z</time>
      </trkpt>
      <trkpt lat="48.82956" lon="4.59255">
        <ele>104.44</ele>
        <time>2021-08-10T05:37:08Z</time>
      </trkpt>
      <trkpt lat="48.82954" lon="4.59248">
        <ele>104.44</ele>
        <time>2021-08-10T05:37:09Z</time>
      </trkpt>
      <trkpt lat="48.82953" lon="4.59241">
        <ele>104.44</ele>
        <time>2021-08-10T05:37:10Z</time>
      </trkpt>
      <trkpt lat="48.82952" lon="4.59235">
        <ele>104.44</ele>
        <time>2021-08-10T05:37:11Z</time>
      </trkpt>
      <trkpt lat="48.82952" lon="4.59228">
        <ele>104.44</ele>
        <time>2021-08-10T05:37:12Z</time>
      </trkpt>
      <trkpt lat="48.82951" lon="4.59214">
        <ele>104.44</ele>
        <time>2021-08-10T05:37:14Z</time>
      </trkpt>
      <trkpt lat="48.82951" lon="4.59207">
        <ele>104.44</ele>
        <time>2021-08-10T05:37:15Z</time>
      </trkpt>
      <trkpt lat="48.82952" lon="4.592">
        <ele>104.44</ele>
        <time>2021-08-10T05:37:16Z</time>
      </trkpt>
      <trkpt lat="48.82952" lon="4.59166">
        <ele>105.4</ele>
        <time>2021-08-10T05:37:22Z</time>
      </trkpt>
      <trkpt lat="48.82949" lon="4.59132">
        <ele>105.88</ele>
        <time>2021-08-10T05:37:28Z</time>
      </trkpt>
      <trkpt lat="48.82939" lon="4.59097">
        <ele>105.88</ele>
        <time>2021-08-10T05:37:34Z</time>
      </trkpt>
      <trkpt lat="48.82933" lon="4.59073">
        <ele>106.36</ele>
        <time>2021-08-10T05:37:40Z</time>
      </trkpt>
      <trkpt lat="48.82933" lon="4.59051">
        <ele>106.84</ele>
        <time>2021-08-10T05:37:46Z</time>
      </trkpt>
      <trkpt lat="48.82942" lon="4.59015">
        <ele>107.81</ele>
        <time>2021-08-10T05:37:52Z</time>
      </trkpt>
      <trkpt lat="48.82944" lon="4.59009">
        <ele>106.36</ele>
        <time>2021-08-10T05:37:53Z</time>
      </trkpt>
      <trkpt lat="48.8295" lon="4.58997">
        <ele>105.4</ele>
        <time>2021-08-10T05:37:55Z</time>
      </trkpt>
      <trkpt lat="48.82953" lon="4.58991">
        <ele>104.44</ele>
        <time>2021-08-10T05:37:56Z</time>
      </trkpt>
      <trkpt lat="48.82955" lon="4.58986">
        <ele>104.44</ele>
        <time>2021-08-10T05:37:57Z</time>
      </trkpt>
      <trkpt lat="48.82957" lon="4.58979">
        <ele>103.96</ele>
        <time>2021-08-10T05:37:58Z</time>
      </trkpt>
      <trkpt lat="48.82957" lon="4.58972">
        <ele>103.96</ele>
        <time>2021-08-10T05:37:59Z</time>
      </trkpt>
      <trkpt lat="48.82957" lon="4.58965">
        <ele>103.96</ele>
        <time>2021-08-10T05:38:00Z</time>
      </trkpt>
      <trkpt lat="48.82958" lon="4.58942">
        <ele>103.96</ele>
        <time>2021-08-10T05:38:03Z</time>
      </trkpt>
      <trkpt lat="48.82957" lon="4.58934">
        <ele>103.96</ele>
        <time>2021-08-10T05:38:04Z</time>
      </trkpt>
      <trkpt lat="48.82957" lon="4.58928">
        <ele>103.96</ele>
        <time>2021-08-10T05:38:05Z</time>
      </trkpt>
      <trkpt lat="48.82956" lon="4.58921">
        <ele>103.96</ele>
        <time>2021-08-10T05:38:06Z</time>
      </trkpt>
      <trkpt lat="48.82954" lon="4.58914">
        <ele>103.48</ele>
        <time>2021-08-10T05:38:07Z</time>
      </trkpt>
      <trkpt lat="48.82953" lon="4.58907">
        <ele>103.48</ele>
        <time>2021-08-10T05:38:08Z</time>
      </trkpt>
      <trkpt lat="48.82951" lon="4.589">
        <ele>103.48</ele>
        <time>2021-08-10T05:38:09Z</time>
      </trkpt>
      <trkpt lat="48.82949" lon="4.58894">
        <ele>103.48</ele>
        <time>2021-08-10T05:38:10Z</time>
      </trkpt>
      <trkpt lat="48.82947" lon="4.58888">
        <ele>103.48</ele>
        <time>2021-08-10T05:38:11Z</time>
      </trkpt>
      <trkpt lat="48.82946" lon="4.58881">
        <ele>103.48</ele>
        <time>2021-08-10T05:38:12Z</time>
      </trkpt>
      <trkpt lat="48.82944" lon="4.58868">
        <ele>103.48</ele>
        <time>2021-08-10T05:38:14Z</time>
      </trkpt>
      <trkpt lat="48.82943" lon="4.58861">
        <ele>103.48</ele>
        <time>2021-08-10T05:38:15Z</time>
      </trkpt>
      <trkpt lat="48.82938" lon="4.58841">
        <ele>103.48</ele>
        <time>2021-08-10T05:38:18Z</time>
      </trkpt>
      <trkpt lat="48.82925" lon="4.58816">
        <ele>104.92</ele>
        <time>2021-08-10T05:38:23Z</time>
      </trkpt>
      <trkpt lat="48.82906" lon="4.58783">
        <ele>105.88</ele>
        <time>2021-08-10T05:38:30Z</time>
      </trkpt>
      <trkpt lat="48.82894" lon="4.58762">
        <ele>106.36</ele>
        <time>2021-08-10T05:38:34Z</time>
      </trkpt>
      <trkpt lat="48.82891" lon="4.58756">
        <ele>105.4</ele>
        <time>2021-08-10T05:38:35Z</time>
      </trkpt>
      <trkpt lat="48.82872" lon="4.58719">
        <ele>104.44</ele>
        <time>2021-08-10T05:38:41Z</time>
      </trkpt>
      <trkpt lat="48.82868" lon="4.58714">
        <ele>104.44</ele>
        <time>2021-08-10T05:38:42Z</time>
      </trkpt>
      <trkpt lat="48.82857" lon="4.58696">
        <ele>103.96</ele>
        <time>2021-08-10T05:38:45Z</time>
      </trkpt>
      <trkpt lat="48.82854" lon="4.5869">
        <ele>103.96</ele>
        <time>2021-08-10T05:38:46Z</time>
      </trkpt>
      <trkpt lat="48.82851" lon="4.58682">
        <ele>103.48</ele>
        <time>2021-08-10T05:38:47Z</time>
      </trkpt>
      <trkpt lat="48.82838" lon="4.58655">
        <ele>103.48</ele>
        <time>2021-08-10T05:38:51Z</time>
      </trkpt>
      <trkpt lat="48.82825" lon="4.58637">
        <ele>103.48</ele>
        <time>2021-08-10T05:38:54Z</time>
      </trkpt>
      <trkpt lat="48.82799" lon="4.58588">
        <ele>103.48</ele>
        <time>2021-08-10T05:39:02Z</time>
      </trkpt>
      <trkpt lat="48.82772" lon="4.58548">
        <ele>103.48</ele>
        <time>2021-08-10T05:39:10Z</time>
      </trkpt>
      <trkpt lat="48.82744" lon="4.58515">
        <ele>103.48</ele>
        <time>2021-08-10T05:39:17Z</time>
      </trkpt>
      <trkpt lat="48.82732" lon="4.585">
        <ele>103.48</ele>
        <time>2021-08-10T05:39:20Z</time>
      </trkpt>
      <trkpt lat="48.82728" lon="4.58495">
        <ele>103.48</ele>
        <time>2021-08-10T05:39:21Z</time>
      </trkpt>
      <trkpt lat="48.82725" lon="4.58489">
        <ele>103.48</ele>
        <time>2021-08-10T05:39:22Z</time>
      </trkpt>
      <trkpt lat="48.82718" lon="4.58477">
        <ele>103.48</ele>
        <time>2021-08-10T05:39:24Z</time>
      </trkpt>
      <trkpt lat="48.82714" lon="4.58471">
        <ele>103.48</ele>
        <time>2021-08-10T05:39:25Z</time>
      </trkpt>
      <trkpt lat="48.82702" lon="4.58458">
        <ele>103.48</ele>
        <time>2021-08-10T05:39:28Z</time>
      </trkpt>
      <trkpt lat="48.82698" lon="4.58455">
        <ele>103.48</ele>
        <time>2021-08-10T05:39:29Z</time>
      </trkpt>
      <trkpt lat="48.82693" lon="4.58452">
        <ele>103.48</ele>
        <time>2021-08-10T05:39:30Z</time>
      </trkpt>
      <trkpt lat="48.8266" lon="4.58437">
        <ele>102.52</ele>
        <time>2021-08-10T05:39:36Z</time>
      </trkpt>
      <trkpt lat="48.82631" lon="4.58421">
        <ele>102.52</ele>
        <time>2021-08-10T05:39:41Z</time>
      </trkpt>
      <trkpt lat="48.8261" lon="4.58405">
        <ele>102.52</ele>
        <time>2021-08-10T05:39:45Z</time>
      </trkpt>
      <trkpt lat="48.82592" lon="4.58379">
        <ele>103.96</ele>
        <time>2021-08-10T05:39:51Z</time>
      </trkpt>
      <trkpt lat="48.82572" lon="4.58365">
        <ele>103.96</ele>
        <time>2021-08-10T05:39:57Z</time>
      </trkpt>
      <trkpt lat="48.82545" lon="4.5836">
        <ele>103.96</ele>
        <time>2021-08-10T05:40:04Z</time>
      </trkpt>
      <trkpt lat="48.82525" lon="4.58358">
        <ele>103.96</ele>
        <time>2021-08-10T05:40:08Z</time>
      </trkpt>
      <trkpt lat="48.8251" lon="4.58352">
        <ele>103</ele>
        <time>2021-08-10T05:40:11Z</time>
      </trkpt>
      <trkpt lat="48.82505" lon="4.5835">
        <ele>103</ele>
        <time>2021-08-10T05:40:12Z</time>
      </trkpt>
      <trkpt lat="48.82473" lon="4.58332">
        <ele>103</ele>
        <time>2021-08-10T05:40:19Z</time>
      </trkpt>
      <trkpt lat="48.82459" lon="4.58324">
        <ele>104.44</ele>
        <time>2021-08-10T05:40:23Z</time>
      </trkpt>
      <trkpt lat="48.82431" lon="4.58306">
        <ele>104.44</ele>
        <time>2021-08-10T05:40:30Z</time>
      </trkpt>
      <trkpt lat="48.82403" lon="4.58287">
        <ele>104.92</ele>
        <time>2021-08-10T05:40:37Z</time>
      </trkpt>
      <trkpt lat="48.8237" lon="4.58271">
        <ele>103.48</ele>
        <time>2021-08-10T05:40:43Z</time>
      </trkpt>
      <trkpt lat="48.82336" lon="4.58263">
        <ele>103.96</ele>
        <time>2021-08-10T05:40:50Z</time>
      </trkpt>
      <trkpt lat="48.82297" lon="4.58264">
        <ele>102.52</ele>
        <time>2021-08-10T05:40:57Z</time>
      </trkpt>
      <trkpt lat="48.82262" lon="4.58261">
        <ele>102.04</ele>
        <time>2021-08-10T05:41:03Z</time>
      </trkpt>
      <trkpt lat="48.82229" lon="4.58254">
        <ele>102.52</ele>
        <time>2021-08-10T05:41:10Z</time>
      </trkpt>
      <trkpt lat="48.82224" lon="4.58252">
        <ele>102.52</ele>
        <time>2021-08-10T05:41:11Z</time>
      </trkpt>
      <trkpt lat="48.8222" lon="4.58251">
        <ele>103.48</ele>
        <time>2021-08-10T05:41:12Z</time>
      </trkpt>
      <trkpt lat="48.82216" lon="4.58251">
        <ele>103.48</ele>
        <time>2021-08-10T05:41:13Z</time>
      </trkpt>
      <trkpt lat="48.82211" lon="4.58252">
        <ele>103.96</ele>
        <time>2021-08-10T05:41:14Z</time>
      </trkpt>
      <trkpt lat="48.82207" lon="4.58253">
        <ele>103.96</ele>
        <time>2021-08-10T05:41:15Z</time>
      </trkpt>
      <trkpt lat="48.82184" lon="4.58258">
        <ele>104.92</ele>
        <time>2021-08-10T05:41:22Z</time>
      </trkpt>
      <trkpt lat="48.82163" lon="4.58277">
        <ele>106.36</ele>
        <time>2021-08-10T05:41:30Z</time>
      </trkpt>
      <trkpt lat="48.8215" lon="4.58295">
        <ele>107.81</ele>
        <time>2021-08-10T05:41:37Z</time>
      </trkpt>
      <trkpt lat="48.82133" lon="4.58323">
        <ele>109.25</ele>
        <time>2021-08-10T05:41:46Z</time>
      </trkpt>
      <trkpt lat="48.82114" lon="4.5835">
        <ele>111.17</ele>
        <time>2021-08-10T05:41:55Z</time>
      </trkpt>
      <trkpt lat="48.82096" lon="4.58373">
        <ele>113.09</ele>
        <time>2021-08-10T05:42:04Z</time>
      </trkpt>
      <trkpt lat="48.82083" lon="4.58397">
        <ele>114.05</ele>
        <time>2021-08-10T05:42:11Z</time>
      </trkpt>
      <trkpt lat="48.82062" lon="4.58431">
        <ele>114.53</ele>
        <time>2021-08-10T05:42:21Z</time>
      </trkpt>
      <trkpt lat="48.8205" lon="4.5845">
        <ele>114.53</ele>
        <time>2021-08-10T05:42:25Z</time>
      </trkpt>
      <trkpt lat="48.82047" lon="4.58455">
        <ele>114.53</ele>
        <time>2021-08-10T05:42:26Z</time>
      </trkpt>
      <trkpt lat="48.82044" lon="4.5846">
        <ele>114.53</ele>
        <time>2021-08-10T05:42:27Z</time>
      </trkpt>
      <trkpt lat="48.82034" lon="4.58475">
        <ele>113.09</ele>
        <time>2021-08-10T05:42:30Z</time>
      </trkpt>
      <trkpt lat="48.82003" lon="4.58518">
        <ele>112.13</ele>
        <time>2021-08-10T05:42:39Z</time>
      </trkpt>
      <trkpt lat="48.81978" lon="4.58559">
        <ele>111.65</ele>
        <time>2021-08-10T05:42:48Z</time>
      </trkpt>
      <trkpt lat="48.81975" lon="4.5857">
        <ele>111.65</ele>
        <time>2021-08-10T05:42:50Z</time>
      </trkpt>
      <trkpt lat="48.81958" lon="4.58627">
        <ele>111.17</ele>
        <time>2021-08-10T05:42:59Z</time>
      </trkpt>
      <trkpt lat="48.81938" lon="4.58685">
        <ele>111.17</ele>
        <time>2021-08-10T05:43:08Z</time>
      </trkpt>
      <trkpt lat="48.81928" lon="4.58727">
        <ele>111.17</ele>
        <time>2021-08-10T05:43:14Z</time>
      </trkpt>
      <trkpt lat="48.81917" lon="4.58804">
        <ele>112.13</ele>
        <time>2021-08-10T05:43:25Z</time>
      </trkpt>
      <trkpt lat="48.81904" lon="4.58854">
        <ele>112.13</ele>
        <time>2021-08-10T05:43:32Z</time>
      </trkpt>
      <trkpt lat="48.81897" lon="4.58877">
        <ele>111.17</ele>
        <time>2021-08-10T05:43:35Z</time>
      </trkpt>
      <trkpt lat="48.81867" lon="4.58932">
        <ele>109.73</ele>
        <time>2021-08-10T05:43:43Z</time>
      </trkpt>
      <trkpt lat="48.81835" lon="4.58977">
        <ele>111.17</ele>
        <time>2021-08-10T05:43:51Z</time>
      </trkpt>
      <trkpt lat="48.81808" lon="4.59012">
        <ele>112.13</ele>
        <time>2021-08-10T05:43:59Z</time>
      </trkpt>
      <trkpt lat="48.81788" lon="4.5904">
        <ele>113.09</ele>
        <time>2021-08-10T05:44:07Z</time>
      </trkpt>
      <trkpt lat="48.81771" lon="4.59068">
        <ele>114.53</ele>
        <time>2021-08-10T05:44:15Z</time>
      </trkpt>
      <trkpt lat="48.81756" lon="4.59097">
        <ele>116.46</ele>
        <time>2021-08-10T05:44:24Z</time>
      </trkpt>
      <trkpt lat="48.81741" lon="4.59126">
        <ele>117.42</ele>
        <time>2021-08-10T05:44:33Z</time>
      </trkpt>
      <trkpt lat="48.8173" lon="4.5915">
        <ele>118.38</ele>
        <time>2021-08-10T05:44:40Z</time>
      </trkpt>
      <trkpt lat="48.81715" lon="4.59191">
        <ele>119.34</ele>
        <time>2021-08-10T05:44:50Z</time>
      </trkpt>
      <trkpt lat="48.81698" lon="4.59234">
        <ele>119.82</ele>
        <time>2021-08-10T05:45:00Z</time>
      </trkpt>
      <trkpt lat="48.8169" lon="4.59259">
        <ele>120.3</ele>
        <time>2021-08-10T05:45:06Z</time>
      </trkpt>
      <trkpt lat="48.81671" lon="4.59297">
        <ele>120.78</ele>
        <time>2021-08-10T05:45:16Z</time>
      </trkpt>
      <trkpt lat="48.81667" lon="4.59298">
        <ele>120.78</ele>
        <time>2021-08-10T05:45:17Z</time>
      </trkpt>
      <trkpt lat="48.81663" lon="4.59297">
        <ele>120.78</ele>
        <time>2021-08-10T05:45:18Z</time>
      </trkpt>
      <trkpt lat="48.81659" lon="4.59295">
        <ele>120.78</ele>
        <time>2021-08-10T05:45:19Z</time>
      </trkpt>
      <trkpt lat="48.81655" lon="4.59291">
        <ele>120.78</ele>
        <time>2021-08-10T05:45:20Z</time>
      </trkpt>
      <trkpt lat="48.81651" lon="4.59287">
        <ele>119.34</ele>
        <time>2021-08-10T05:45:21Z</time>
      </trkpt>
      <trkpt lat="48.81646" lon="4.59283">
        <ele>119.34</ele>
        <time>2021-08-10T05:45:22Z</time>
      </trkpt>
      <trkpt lat="48.81614" lon="4.59253">
        <ele>117.9</ele>
        <time>2021-08-10T05:45:29Z</time>
      </trkpt>
      <trkpt lat="48.81586" lon="4.59231">
        <ele>116.94</ele>
        <time>2021-08-10T05:45:36Z</time>
      </trkpt>
      <trkpt lat="48.81583" lon="4.59232">
        <ele>116.94</ele>
        <time>2021-08-10T05:45:37Z</time>
      </trkpt>
      <trkpt lat="48.81581" lon="4.59235">
        <ele>116.94</ele>
        <time>2021-08-10T05:45:38Z</time>
      </trkpt>
      <trkpt lat="48.81578" lon="4.59239">
        <ele>116.94</ele>
        <time>2021-08-10T05:45:39Z</time>
      </trkpt>
      <trkpt lat="48.81576" lon="4.59245">
        <ele>116.94</ele>
        <time>2021-08-10T05:45:40Z</time>
      </trkpt>
      <trkpt lat="48.81574" lon="4.59251">
        <ele>116.46</ele>
        <time>2021-08-10T05:45:41Z</time>
      </trkpt>
      <trkpt lat="48.81549" lon="4.59319">
        <ele>116.46</ele>
        <time>2021-08-10T05:45:52Z</time>
      </trkpt>
      <trkpt lat="48.81531" lon="4.5937">
        <ele>116.46</ele>
        <time>2021-08-10T05:46:00Z</time>
      </trkpt>
      <trkpt lat="48.81504" lon="4.59445">
        <ele>116.46</ele>
        <time>2021-08-10T05:46:12Z</time>
      </trkpt>
      <trkpt lat="48.8148" lon="4.59513">
        <ele>116.46</ele>
        <time>2021-08-10T05:46:23Z</time>
      </trkpt>
      <trkpt lat="48.81461" lon="4.59568">
        <ele>116.46</ele>
        <time>2021-08-10T05:46:32Z</time>
      </trkpt>
      <trkpt lat="48.8144" lon="4.59627">
        <ele>116.46</ele>
        <time>2021-08-10T05:46:41Z</time>
      </trkpt>
      <trkpt lat="48.81406" lon="4.59724">
        <ele>115.5</ele>
        <time>2021-08-10T05:46:55Z</time>
      </trkpt>
      <trkpt lat="48.81376" lon="4.59807">
        <ele>114.53</ele>
        <time>2021-08-10T05:47:06Z</time>
      </trkpt>
      <trkpt lat="48.8135" lon="4.59891">
        <ele>112.13</ele>
        <time>2021-08-10T05:47:16Z</time>
      </trkpt>
      <trkpt lat="48.8133" lon="4.59965">
        <ele>111.65</ele>
        <time>2021-08-10T05:47:25Z</time>
      </trkpt>
      <trkpt lat="48.81319" lon="4.60037">
        <ele>113.09</ele>
        <time>2021-08-10T05:47:35Z</time>
      </trkpt>
      <trkpt lat="48.81306" lon="4.60123">
        <ele>113.57</ele>
        <time>2021-08-10T05:47:47Z</time>
      </trkpt>
      <trkpt lat="48.81292" lon="4.60195">
        <ele>113.57</ele>
        <time>2021-08-10T05:47:57Z</time>
      </trkpt>
      <trkpt lat="48.81272" lon="4.60266">
        <ele>113.57</ele>
        <time>2021-08-10T05:48:07Z</time>
      </trkpt>
      <trkpt lat="48.81246" lon="4.60327">
        <ele>111.65</ele>
        <time>2021-08-10T05:48:16Z</time>
      </trkpt>
      <trkpt lat="48.8121" lon="4.60407">
        <ele>110.69</ele>
        <time>2021-08-10T05:48:28Z</time>
      </trkpt>
      <trkpt lat="48.81181" lon="4.60469">
        <ele>110.69</ele>
        <time>2021-08-10T05:48:38Z</time>
      </trkpt>
      <trkpt lat="48.81157" lon="4.60517">
        <ele>110.69</ele>
        <time>2021-08-10T05:48:46Z</time>
      </trkpt>
      <trkpt lat="48.81141" lon="4.60547">
        <ele>110.69</ele>
        <time>2021-08-10T05:48:51Z</time>
      </trkpt>
      <trkpt lat="48.81106" lon="4.60622">
        <ele>110.21</ele>
        <time>2021-08-10T05:49:02Z</time>
      </trkpt>
      <trkpt lat="48.8108" lon="4.60682">
        <ele>110.21</ele>
        <time>2021-08-10T05:49:11Z</time>
      </trkpt>
      <trkpt lat="48.81065" lon="4.60741">
        <ele>110.21</ele>
        <time>2021-08-10T05:49:19Z</time>
      </trkpt>
      <trkpt lat="48.8106" lon="4.60752">
        <ele>110.21</ele>
        <time>2021-08-10T05:49:21Z</time>
      </trkpt>
      <trkpt lat="48.81056" lon="4.60756">
        <ele>110.21</ele>
        <time>2021-08-10T05:49:22Z</time>
      </trkpt>
      <trkpt lat="48.81048" lon="4.60753">
        <ele>110.21</ele>
        <time>2021-08-10T05:49:23Z</time>
      </trkpt>
      <trkpt lat="48.8103" lon="4.6075">
        <ele>110.21</ele>
        <time>2021-08-10T05:49:26Z</time>
      </trkpt>
      <trkpt lat="48.81024" lon="4.60752">
        <ele>110.21</ele>
        <time>2021-08-10T05:49:27Z</time>
      </trkpt>
      <trkpt lat="48.81004" lon="4.60766">
        <ele>109.73</ele>
        <time>2021-08-10T05:49:31Z</time>
      </trkpt>
      <trkpt lat="48.80967" lon="4.608">
        <ele>109.73</ele>
        <time>2021-08-10T05:49:39Z</time>
      </trkpt>
      <trkpt lat="48.80938" lon="4.60835">
        <ele>109.73</ele>
        <time>2021-08-10T05:49:46Z</time>
      </trkpt>
      <trkpt lat="48.80934" lon="4.60838">
        <ele>109.73</ele>
        <time>2021-08-10T05:49:47Z</time>
      </trkpt>
      <trkpt lat="48.8093" lon="4.60843">
        <ele>109.73</ele>
        <time>2021-08-10T05:49:48Z</time>
      </trkpt>
      <trkpt lat="48.80927" lon="4.60847">
        <ele>109.73</ele>
        <time>2021-08-10T05:49:49Z</time>
      </trkpt>
      <trkpt lat="48.80922" lon="4.60853">
        <ele>109.73</ele>
        <time>2021-08-10T05:49:50Z</time>
      </trkpt>
      <trkpt lat="48.80906" lon="4.60871">
        <ele>109.73</ele>
        <time>2021-08-10T05:49:55Z</time>
      </trkpt>
      <trkpt lat="48.80901" lon="4.6087">
        <ele>109.73</ele>
        <time>2021-08-10T05:49:56Z</time>
      </trkpt>
      <trkpt lat="48.80898" lon="4.60868">
        <ele>109.73</ele>
        <time>2021-08-10T05:49:57Z</time>
      </trkpt>
      <trkpt lat="48.80893" lon="4.60866">
        <ele>109.73</ele>
        <time>2021-08-10T05:49:58Z</time>
      </trkpt>
      <trkpt lat="48.80889" lon="4.60862">
        <ele>109.73</ele>
        <time>2021-08-10T05:49:59Z</time>
      </trkpt>
      <trkpt lat="48.8087" lon="4.60851">
        <ele>109.73</ele>
        <time>2021-08-10T05:50:03Z</time>
      </trkpt>
      <trkpt lat="48.80843" lon="4.60834">
        <ele>109.73</ele>
        <time>2021-08-10T05:50:09Z</time>
      </trkpt>
      <trkpt lat="48.80831" lon="4.60826">
        <ele>109.73</ele>
        <time>2021-08-10T05:50:12Z</time>
      </trkpt>
      <trkpt lat="48.80827" lon="4.60823">
        <ele>109.73</ele>
        <time>2021-08-10T05:50:13Z</time>
      </trkpt>
      <trkpt lat="48.80823" lon="4.6082">
        <ele>109.73</ele>
        <time>2021-08-10T05:50:14Z</time>
      </trkpt>
      <trkpt lat="48.80819" lon="4.60816">
        <ele>109.73</ele>
        <time>2021-08-10T05:50:15Z</time>
      </trkpt>
      <trkpt lat="48.80815" lon="4.60812">
        <ele>109.73</ele>
        <time>2021-08-10T05:50:16Z</time>
      </trkpt>
      <trkpt lat="48.80811" lon="4.60807">
        <ele>109.73</ele>
        <time>2021-08-10T05:50:17Z</time>
      </trkpt>
      <trkpt lat="48.80807" lon="4.60801">
        <ele>109.73</ele>
        <time>2021-08-10T05:50:18Z</time>
      </trkpt>
      <trkpt lat="48.80804" lon="4.60795">
        <ele>109.73</ele>
        <time>2021-08-10T05:50:19Z</time>
      </trkpt>
      <trkpt lat="48.80801" lon="4.60788">
        <ele>109.73</ele>
        <time>2021-08-10T05:50:20Z</time>
      </trkpt>
      <trkpt lat="48.80799" lon="4.60781">
        <ele>109.73</ele>
        <time>2021-08-10T05:50:21Z</time>
      </trkpt>
      <trkpt lat="48.80797" lon="4.60773">
        <ele>109.73</ele>
        <time>2021-08-10T05:50:22Z</time>
      </trkpt>
      <trkpt lat="48.80788" lon="4.60746">
        <ele>109.73</ele>
        <time>2021-08-10T05:50:26Z</time>
      </trkpt>
      <trkpt lat="48.80786" lon="4.60739">
        <ele>109.73</ele>
        <time>2021-08-10T05:50:27Z</time>
      </trkpt>
      <trkpt lat="48.80782" lon="4.60734">
        <ele>109.73</ele>
        <time>2021-08-10T05:50:28Z</time>
      </trkpt>
      <trkpt lat="48.80779" lon="4.60729">
        <ele>109.73</ele>
        <time>2021-08-10T05:50:29Z</time>
      </trkpt>
      <trkpt lat="48.80775" lon="4.60724">
        <ele>109.73</ele>
        <time>2021-08-10T05:50:30Z</time>
      </trkpt>
      <trkpt lat="48.8076" lon="4.60709">
        <ele>111.17</ele>
        <time>2021-08-10T05:50:34Z</time>
      </trkpt>
      <trkpt lat="48.80743" lon="4.607">
        <ele>112.13</ele>
        <time>2021-08-10T05:50:38Z</time>
      </trkpt>
      <trkpt lat="48.80739" lon="4.60699">
        <ele>112.13</ele>
        <time>2021-08-10T05:50:39Z</time>
      </trkpt>
      <trkpt lat="48.80708" lon="4.60698">
        <ele>114.05</ele>
        <time>2021-08-10T05:50:48Z</time>
      </trkpt>
      <trkpt lat="48.80684" lon="4.60715">
        <ele>115.98</ele>
        <time>2021-08-10T05:50:56Z</time>
      </trkpt>
      <trkpt lat="48.80651" lon="4.60738">
        <ele>116.94</ele>
        <time>2021-08-10T05:51:07Z</time>
      </trkpt>
      <trkpt lat="48.80621" lon="4.60752">
        <ele>118.86</ele>
        <time>2021-08-10T05:51:17Z</time>
      </trkpt>
      <trkpt lat="48.80596" lon="4.60751">
        <ele>120.3</ele>
        <time>2021-08-10T05:51:25Z</time>
      </trkpt>
      <trkpt lat="48.80561" lon="4.6074">
        <ele>121.74</ele>
        <time>2021-08-10T05:51:36Z</time>
      </trkpt>
      <trkpt lat="48.80525" lon="4.60726">
        <ele>122.71</ele>
        <time>2021-08-10T05:51:47Z</time>
      </trkpt>
      <trkpt lat="48.805" lon="4.60716">
        <ele>122.71</ele>
        <time>2021-08-10T05:51:53Z</time>
      </trkpt>
      <trkpt lat="48.80495" lon="4.60714">
        <ele>122.71</ele>
        <time>2021-08-10T05:51:54Z</time>
      </trkpt>
      <trkpt lat="48.8045" lon="4.60697">
        <ele>122.71</ele>
        <time>2021-08-10T05:52:03Z</time>
      </trkpt>
      <trkpt lat="48.80428" lon="4.60693">
        <ele>122.71</ele>
        <time>2021-08-10T05:52:07Z</time>
      </trkpt>
      <trkpt lat="48.80418" lon="4.60694">
        <ele>121.26</ele>
        <time>2021-08-10T05:52:09Z</time>
      </trkpt>
      <trkpt lat="48.80377" lon="4.60698">
        <ele>119.82</ele>
        <time>2021-08-10T05:52:16Z</time>
      </trkpt>
      <trkpt lat="48.80326" lon="4.60716">
        <ele>118.38</ele>
        <time>2021-08-10T05:52:24Z</time>
      </trkpt>
      <trkpt lat="48.80271" lon="4.6075">
        <ele>117.42</ele>
        <time>2021-08-10T05:52:33Z</time>
      </trkpt>
      <trkpt lat="48.80259" lon="4.60758">
        <ele>117.42</ele>
        <time>2021-08-10T05:52:35Z</time>
      </trkpt>
      <trkpt lat="48.80214" lon="4.60805">
        <ele>116.94</ele>
        <time>2021-08-10T05:52:44Z</time>
      </trkpt>
      <trkpt lat="48.80183" lon="4.60856">
        <ele>115.98</ele>
        <time>2021-08-10T05:52:52Z</time>
      </trkpt>
      <trkpt lat="48.8016" lon="4.60912">
        <ele>115.98</ele>
        <time>2021-08-10T05:53:00Z</time>
      </trkpt>
      <trkpt lat="48.80145" lon="4.60946">
        <ele>117.42</ele>
        <time>2021-08-10T05:53:05Z</time>
      </trkpt>
      <trkpt lat="48.80115" lon="4.60989">
        <ele>117.42</ele>
        <time>2021-08-10T05:53:12Z</time>
      </trkpt>
      <trkpt lat="48.80079" lon="4.61019">
        <ele>117.42</ele>
        <time>2021-08-10T05:53:20Z</time>
      </trkpt>
      <trkpt lat="48.80032" lon="4.61058">
        <ele>118.38</ele>
        <time>2021-08-10T05:53:31Z</time>
      </trkpt>
      <trkpt lat="48.80001" lon="4.61086">
        <ele>119.34</ele>
        <time>2021-08-10T05:53:40Z</time>
      </trkpt>
      <trkpt lat="48.79957" lon="4.61124">
        <ele>120.78</ele>
        <time>2021-08-10T05:53:53Z</time>
      </trkpt>
      <trkpt lat="48.79923" lon="4.61152">
        <ele>121.74</ele>
        <time>2021-08-10T05:54:03Z</time>
      </trkpt>
      <trkpt lat="48.79889" lon="4.61179">
        <ele>120.78</ele>
        <time>2021-08-10T05:54:10Z</time>
      </trkpt>
      <trkpt lat="48.79841" lon="4.61216">
        <ele>119.34</ele>
        <time>2021-08-10T05:54:19Z</time>
      </trkpt>
      <trkpt lat="48.798" lon="4.61249">
        <ele>118.86</ele>
        <time>2021-08-10T05:54:27Z</time>
      </trkpt>
      <trkpt lat="48.79782" lon="4.61264">
        <ele>119.34</ele>
        <time>2021-08-10T05:54:31Z</time>
      </trkpt>
      <trkpt lat="48.79776" lon="4.61268">
        <ele>118.86</ele>
        <time>2021-08-10T05:54:32Z</time>
      </trkpt>
      <trkpt lat="48.79758" lon="4.61282">
        <ele>118.86</ele>
        <time>2021-08-10T05:54:36Z</time>
      </trkpt>
      <trkpt lat="48.79753" lon="4.61285">
        <ele>118.86</ele>
        <time>2021-08-10T05:54:37Z</time>
      </trkpt>
      <trkpt lat="48.79738" lon="4.61295">
        <ele>119.34</ele>
        <time>2021-08-10T05:54:40Z</time>
      </trkpt>
      <trkpt lat="48.79734" lon="4.61299">
        <ele>119.34</ele>
        <time>2021-08-10T05:54:41Z</time>
      </trkpt>
      <trkpt lat="48.79731" lon="4.61304">
        <ele>119.34</ele>
        <time>2021-08-10T05:54:42Z</time>
      </trkpt>
      <trkpt lat="48.79729" lon="4.61312">
        <ele>119.34</ele>
        <time>2021-08-10T05:54:43Z</time>
      </trkpt>
      <trkpt lat="48.79729" lon="4.6132">
        <ele>119.34</ele>
        <time>2021-08-10T05:54:44Z</time>
      </trkpt>
      <trkpt lat="48.79731" lon="4.61327">
        <ele>119.34</ele>
        <time>2021-08-10T05:54:45Z</time>
      </trkpt>
      <trkpt lat="48.79734" lon="4.61333">
        <ele>119.34</ele>
        <time>2021-08-10T05:54:46Z</time>
      </trkpt>
      <trkpt lat="48.79738" lon="4.61339">
        <ele>118.86</ele>
        <time>2021-08-10T05:54:47Z</time>
      </trkpt>
      <trkpt lat="48.79741" lon="4.61345">
        <ele>118.86</ele>
        <time>2021-08-10T05:54:48Z</time>
      </trkpt>
      <trkpt lat="48.79743" lon="4.61353">
        <ele>118.86</ele>
        <time>2021-08-10T05:54:49Z</time>
      </trkpt>
      <trkpt lat="48.79743" lon="4.6136">
        <ele>118.86</ele>
        <time>2021-08-10T05:54:50Z</time>
      </trkpt>
      <trkpt lat="48.79741" lon="4.61368">
        <ele>118.86</ele>
        <time>2021-08-10T05:54:51Z</time>
      </trkpt>
      <trkpt lat="48.79739" lon="4.61375">
        <ele>118.86</ele>
        <time>2021-08-10T05:54:52Z</time>
      </trkpt>
      <trkpt lat="48.79737" lon="4.61381">
        <ele>118.86</ele>
        <time>2021-08-10T05:54:53Z</time>
      </trkpt>
      <trkpt lat="48.79734" lon="4.61388">
        <ele>118.86</ele>
        <time>2021-08-10T05:54:54Z</time>
      </trkpt>
      <trkpt lat="48.79731" lon="4.61393">
        <ele>118.86</ele>
        <time>2021-08-10T05:54:55Z</time>
      </trkpt>
      <trkpt lat="48.79727" lon="4.61397">
        <ele>118.86</ele>
        <time>2021-08-10T05:54:56Z</time>
      </trkpt>
      <trkpt lat="48.79682" lon="4.61455">
        <ele>118.86</ele>
        <time>2021-08-10T05:55:09Z</time>
      </trkpt>
      <trkpt lat="48.79646" lon="4.61498">
        <ele>119.82</ele>
        <time>2021-08-10T05:55:19Z</time>
      </trkpt>
      <trkpt lat="48.79624" lon="4.61524">
        <ele>119.82</ele>
        <time>2021-08-10T05:55:25Z</time>
      </trkpt>
      <trkpt lat="48.79616" lon="4.61532">
        <ele>119.82</ele>
        <time>2021-08-10T05:55:27Z</time>
      </trkpt>
      <trkpt lat="48.79585" lon="4.61574">
        <ele>120.3</ele>
        <time>2021-08-10T05:55:36Z</time>
      </trkpt>
      <trkpt lat="48.79555" lon="4.6162">
        <ele>121.26</ele>
        <time>2021-08-10T05:55:46Z</time>
      </trkpt>
      <trkpt lat="48.79535" lon="4.61656">
        <ele>122.71</ele>
        <time>2021-08-10T05:55:55Z</time>
      </trkpt>
      <trkpt lat="48.79514" lon="4.617">
        <ele>125.59</ele>
        <time>2021-08-10T05:56:07Z</time>
      </trkpt>
      <trkpt lat="48.79498" lon="4.61736">
        <ele>127.03</ele>
        <time>2021-08-10T05:56:18Z</time>
      </trkpt>
      <trkpt lat="48.79478" lon="4.61773">
        <ele>127.99</ele>
        <time>2021-08-10T05:56:28Z</time>
      </trkpt>
      <trkpt lat="48.79469" lon="4.61792">
        <ele>127.03</ele>
        <time>2021-08-10T05:56:31Z</time>
      </trkpt>
      <trkpt lat="48.79466" lon="4.61799">
        <ele>126.07</ele>
        <time>2021-08-10T05:56:32Z</time>
      </trkpt>
      <trkpt lat="48.79461" lon="4.61817">
        <ele>125.59</ele>
        <time>2021-08-10T05:56:34Z</time>
      </trkpt>
      <trkpt lat="48.79455" lon="4.61891">
        <ele>123.67</ele>
        <time>2021-08-10T05:56:42Z</time>
      </trkpt>
      <trkpt lat="48.79454" lon="4.619">
        <ele>123.67</ele>
        <time>2021-08-10T05:56:43Z</time>
      </trkpt>
      <trkpt lat="48.79451" lon="4.61907">
        <ele>123.19</ele>
        <time>2021-08-10T05:56:44Z</time>
      </trkpt>
      <trkpt lat="48.79448" lon="4.61913">
        <ele>123.19</ele>
        <time>2021-08-10T05:56:45Z</time>
      </trkpt>
      <trkpt lat="48.79444" lon="4.61915">
        <ele>123.19</ele>
        <time>2021-08-10T05:56:46Z</time>
      </trkpt>
      <trkpt lat="48.7944" lon="4.61915">
        <ele>123.19</ele>
        <time>2021-08-10T05:56:47Z</time>
      </trkpt>
      <trkpt lat="48.79436" lon="4.61914">
        <ele>123.19</ele>
        <time>2021-08-10T05:56:48Z</time>
      </trkpt>
      <trkpt lat="48.79433" lon="4.61912">
        <ele>123.19</ele>
        <time>2021-08-10T05:56:49Z</time>
      </trkpt>
      <trkpt lat="48.79431" lon="4.61909">
        <ele>123.19</ele>
        <time>2021-08-10T05:56:50Z</time>
      </trkpt>
      <trkpt lat="48.79429" lon="4.61906">
        <ele>124.63</ele>
        <time>2021-08-10T05:56:51Z</time>
      </trkpt>
      <trkpt lat="48.79427" lon="4.61903">
        <ele>124.63</ele>
        <time>2021-08-10T05:56:52Z</time>
      </trkpt>
      <trkpt lat="48.79426" lon="4.619">
        <ele>124.63</ele>
        <time>2021-08-10T05:56:53Z</time>
      </trkpt>
      <trkpt lat="48.79411" lon="4.61888">
        <ele>126.07</ele>
        <time>2021-08-10T05:57:00Z</time>
      </trkpt>
      <trkpt lat="48.79392" lon="4.61897">
        <ele>127.51</ele>
        <time>2021-08-10T05:57:08Z</time>
      </trkpt>
      <trkpt lat="48.79367" lon="4.61925">
        <ele>128.47</ele>
        <time>2021-08-10T05:57:18Z</time>
      </trkpt>
      <trkpt lat="48.79339" lon="4.61958">
        <ele>126.55</ele>
        <time>2021-08-10T05:57:25Z</time>
      </trkpt>
      <trkpt lat="48.79333" lon="4.61964">
        <ele>126.55</ele>
        <time>2021-08-10T05:57:26Z</time>
      </trkpt>
      <trkpt lat="48.79285" lon="4.62016">
        <ele>123.19</ele>
        <time>2021-08-10T05:57:35Z</time>
      </trkpt>
      <trkpt lat="48.79231" lon="4.62073">
        <ele>121.74</ele>
        <time>2021-08-10T05:57:45Z</time>
      </trkpt>
      <trkpt lat="48.79226" lon="4.62077">
        <ele>121.74</ele>
        <time>2021-08-10T05:57:46Z</time>
      </trkpt>
      <trkpt lat="48.7922" lon="4.62079">
        <ele>121.74</ele>
        <time>2021-08-10T05:57:47Z</time>
      </trkpt>
      <trkpt lat="48.79214" lon="4.62079">
        <ele>121.74</ele>
        <time>2021-08-10T05:57:48Z</time>
      </trkpt>
      <trkpt lat="48.79208" lon="4.62076">
        <ele>121.74</ele>
        <time>2021-08-10T05:57:49Z</time>
      </trkpt>
      <trkpt lat="48.79204" lon="4.62072">
        <ele>121.74</ele>
        <time>2021-08-10T05:57:50Z</time>
      </trkpt>
      <trkpt lat="48.792" lon="4.62067">
        <ele>121.74</ele>
        <time>2021-08-10T05:57:51Z</time>
      </trkpt>
      <trkpt lat="48.79196" lon="4.62061">
        <ele>121.74</ele>
        <time>2021-08-10T05:57:52Z</time>
      </trkpt>
      <trkpt lat="48.79192" lon="4.62055">
        <ele>121.74</ele>
        <time>2021-08-10T05:57:53Z</time>
      </trkpt>
      <trkpt lat="48.79165" lon="4.62017">
        <ele>121.74</ele>
        <time>2021-08-10T05:58:00Z</time>
      </trkpt>
      <trkpt lat="48.79116" lon="4.61949">
        <ele>123.19</ele>
        <time>2021-08-10T05:58:12Z</time>
      </trkpt>
      <trkpt lat="48.79075" lon="4.6188">
        <ele>123.67</ele>
        <time>2021-08-10T05:58:23Z</time>
      </trkpt>
      <trkpt lat="48.79039" lon="4.61812">
        <ele>124.63</ele>
        <time>2021-08-10T05:58:34Z</time>
      </trkpt>
      <trkpt lat="48.79006" lon="4.61769">
        <ele>125.59</ele>
        <time>2021-08-10T05:58:43Z</time>
      </trkpt>
      <trkpt lat="48.78965" lon="4.61734">
        <ele>126.07</ele>
        <time>2021-08-10T05:58:53Z</time>
      </trkpt>
      <trkpt lat="48.78926" lon="4.61711">
        <ele>126.55</ele>
        <time>2021-08-10T05:59:02Z</time>
      </trkpt>
      <trkpt lat="48.78905" lon="4.61696">
        <ele>127.03</ele>
        <time>2021-08-10T05:59:07Z</time>
      </trkpt>
      <trkpt lat="48.78901" lon="4.61694">
        <ele>127.03</ele>
        <time>2021-08-10T05:59:08Z</time>
      </trkpt>
      <trkpt lat="48.78896" lon="4.61693">
        <ele>127.03</ele>
        <time>2021-08-10T05:59:09Z</time>
      </trkpt>
      <trkpt lat="48.78862" lon="4.61688">
        <ele>128.47</ele>
        <time>2021-08-10T05:59:17Z</time>
      </trkpt>
      <trkpt lat="48.78821" lon="4.61685">
        <ele>129.92</ele>
        <time>2021-08-10T05:59:28Z</time>
      </trkpt>
      <trkpt lat="48.78785" lon="4.61686">
        <ele>131.36</ele>
        <time>2021-08-10T05:59:38Z</time>
      </trkpt>
      <trkpt lat="48.78749" lon="4.6169">
        <ele>132.32</ele>
        <time>2021-08-10T05:59:47Z</time>
      </trkpt>
      <trkpt lat="48.78731" lon="4.61693">
        <ele>132.32</ele>
        <time>2021-08-10T05:59:51Z</time>
      </trkpt>
      <trkpt lat="48.78686" lon="4.61705">
        <ele>132.32</ele>
        <time>2021-08-10T06:00:00Z</time>
      </trkpt>
      <trkpt lat="48.78644" lon="4.61717">
        <ele>132.32</ele>
        <time>2021-08-10T06:00:08Z</time>
      </trkpt>
      <trkpt lat="48.78594" lon="4.6173">
        <ele>132.32</ele>
        <time>2021-08-10T06:00:18Z</time>
      </trkpt>
      <trkpt lat="48.7854" lon="4.61742">
        <ele>130.4</ele>
        <time>2021-08-10T06:00:28Z</time>
      </trkpt>
      <trkpt lat="48.7848" lon="4.61748">
        <ele>128.47</ele>
        <time>2021-08-10T06:00:38Z</time>
      </trkpt>
      <trkpt lat="48.78416" lon="4.61749">
        <ele>127.51</ele>
        <time>2021-08-10T06:00:49Z</time>
      </trkpt>
      <trkpt lat="48.78352" lon="4.61755">
        <ele>127.51</ele>
        <time>2021-08-10T06:01:00Z</time>
      </trkpt>
      <trkpt lat="48.78303" lon="4.61755">
        <ele>126.07</ele>
        <time>2021-08-10T06:01:08Z</time>
      </trkpt>
      <trkpt lat="48.78297" lon="4.61754">
        <ele>126.07</ele>
        <time>2021-08-10T06:01:09Z</time>
      </trkpt>
      <trkpt lat="48.78247" lon="4.61742">
        <ele>125.59</ele>
        <time>2021-08-10T06:01:18Z</time>
      </trkpt>
      <trkpt lat="48.78214" lon="4.61744">
        <ele>125.59</ele>
        <time>2021-08-10T06:01:24Z</time>
      </trkpt>
      <trkpt lat="48.78163" lon="4.61761">
        <ele>126.07</ele>
        <time>2021-08-10T06:01:34Z</time>
      </trkpt>
      <trkpt lat="48.78115" lon="4.6178">
        <ele>127.51</ele>
        <time>2021-08-10T06:01:44Z</time>
      </trkpt>
      <trkpt lat="48.78079" lon="4.61801">
        <ele>128.95</ele>
        <time>2021-08-10T06:01:53Z</time>
      </trkpt>
      <trkpt lat="48.78041" lon="4.61823">
        <ele>130.88</ele>
        <time>2021-08-10T06:02:05Z</time>
      </trkpt>
      <trkpt lat="48.78014" lon="4.6184">
        <ele>132.8</ele>
        <time>2021-08-10T06:02:14Z</time>
      </trkpt>
      <trkpt lat="48.77992" lon="4.6186">
        <ele>134.24</ele>
        <time>2021-08-10T06:02:22Z</time>
      </trkpt>
      <trkpt lat="48.77967" lon="4.61881">
        <ele>134.72</ele>
        <time>2021-08-10T06:02:30Z</time>
      </trkpt>
      <trkpt lat="48.77957" lon="4.6189">
        <ele>133.28</ele>
        <time>2021-08-10T06:02:32Z</time>
      </trkpt>
      <trkpt lat="48.77946" lon="4.61899">
        <ele>131.84</ele>
        <time>2021-08-10T06:02:34Z</time>
      </trkpt>
      <trkpt lat="48.77899" lon="4.61937">
        <ele>129.43</ele>
        <time>2021-08-10T06:02:42Z</time>
      </trkpt>
      <trkpt lat="48.77839" lon="4.61986">
        <ele>127.99</ele>
        <time>2021-08-10T06:02:52Z</time>
      </trkpt>
      <trkpt lat="48.77792" lon="4.62024">
        <ele>127.51</ele>
        <time>2021-08-10T06:03:01Z</time>
      </trkpt>
      <trkpt lat="48.7774" lon="4.6207">
        <ele>127.03</ele>
        <time>2021-08-10T06:03:12Z</time>
      </trkpt>
      <trkpt lat="48.77685" lon="4.62116">
        <ele>127.03</ele>
        <time>2021-08-10T06:03:24Z</time>
      </trkpt>
      <trkpt lat="48.77665" lon="4.62134">
        <ele>128.47</ele>
        <time>2021-08-10T06:03:29Z</time>
      </trkpt>
      <trkpt lat="48.77638" lon="4.62157">
        <ele>129.43</ele>
        <time>2021-08-10T06:03:38Z</time>
      </trkpt>
      <trkpt lat="48.77606" lon="4.62182">
        <ele>129.43</ele>
        <time>2021-08-10T06:03:46Z</time>
      </trkpt>
      <trkpt lat="48.77572" lon="4.62207">
        <ele>128.47</ele>
        <time>2021-08-10T06:03:53Z</time>
      </trkpt>
      <trkpt lat="48.77558" lon="4.62218">
        <ele>128.47</ele>
        <time>2021-08-10T06:03:56Z</time>
      </trkpt>
      <trkpt lat="48.77514" lon="4.62252">
        <ele>128.47</ele>
        <time>2021-08-10T06:04:06Z</time>
      </trkpt>
      <trkpt lat="48.77502" lon="4.62262">
        <ele>127.99</ele>
        <time>2021-08-10T06:04:09Z</time>
      </trkpt>
      <trkpt lat="48.77498" lon="4.62266">
        <ele>128.47</ele>
        <time>2021-08-10T06:04:10Z</time>
      </trkpt>
      <trkpt lat="48.77454" lon="4.62304">
        <ele>128.47</ele>
        <time>2021-08-10T06:04:20Z</time>
      </trkpt>
      <trkpt lat="48.77398" lon="4.62349">
        <ele>128.47</ele>
        <time>2021-08-10T06:04:33Z</time>
      </trkpt>
      <trkpt lat="48.77369" lon="4.62367">
        <ele>129.43</ele>
        <time>2021-08-10T06:04:40Z</time>
      </trkpt>
      <trkpt lat="48.77329" lon="4.62387">
        <ele>129.92</ele>
        <time>2021-08-10T06:04:50Z</time>
      </trkpt>
      <trkpt lat="48.77291" lon="4.62402">
        <ele>130.88</ele>
        <time>2021-08-10T06:05:00Z</time>
      </trkpt>
      <trkpt lat="48.77264" lon="4.6241">
        <ele>131.84</ele>
        <time>2021-08-10T06:05:08Z</time>
      </trkpt>
      <trkpt lat="48.77241" lon="4.62418">
        <ele>132.32</ele>
        <time>2021-08-10T06:05:16Z</time>
      </trkpt>
      <trkpt lat="48.77209" lon="4.62428">
        <ele>132.8</ele>
        <time>2021-08-10T06:05:25Z</time>
      </trkpt>
      <trkpt lat="48.77173" lon="4.62438">
        <ele>132.8</ele>
        <time>2021-08-10T06:05:34Z</time>
      </trkpt>
      <trkpt lat="48.77139" lon="4.62447">
        <ele>133.28</ele>
        <time>2021-08-10T06:05:43Z</time>
      </trkpt>
      <trkpt lat="48.7711" lon="4.62455">
        <ele>133.76</ele>
        <time>2021-08-10T06:05:51Z</time>
      </trkpt>
      <trkpt lat="48.77085" lon="4.62461">
        <ele>133.76</ele>
        <time>2021-08-10T06:05:59Z</time>
      </trkpt>
      <trkpt lat="48.77049" lon="4.62472">
        <ele>134.24</ele>
        <time>2021-08-10T06:06:09Z</time>
      </trkpt>
      <trkpt lat="48.77016" lon="4.62481">
        <ele>135.68</ele>
        <time>2021-08-10T06:06:19Z</time>
      </trkpt>
      <trkpt lat="48.7699" lon="4.62489">
        <ele>137.13</ele>
        <time>2021-08-10T06:06:29Z</time>
      </trkpt>
      <trkpt lat="48.76967" lon="4.62495">
        <ele>138.57</ele>
        <time>2021-08-10T06:06:38Z</time>
      </trkpt>
      <trkpt lat="48.76944" lon="4.62501">
        <ele>140.49</ele>
        <time>2021-08-10T06:06:47Z</time>
      </trkpt>
      <trkpt lat="48.76921" lon="4.62508">
        <ele>141.93</ele>
        <time>2021-08-10T06:06:56Z</time>
      </trkpt>
      <trkpt lat="48.76885" lon="4.62517">
        <ele>143.85</ele>
        <time>2021-08-10T06:07:08Z</time>
      </trkpt>
      <trkpt lat="48.76851" lon="4.62527">
        <ele>144.82</ele>
        <time>2021-08-10T06:07:19Z</time>
      </trkpt>
      <trkpt lat="48.76809" lon="4.62538">
        <ele>146.26</ele>
        <time>2021-08-10T06:07:32Z</time>
      </trkpt>
      <trkpt lat="48.76779" lon="4.62545">
        <ele>146.74</ele>
        <time>2021-08-10T06:07:41Z</time>
      </trkpt>
      <trkpt lat="48.76749" lon="4.62551">
        <ele>146.74</ele>
        <time>2021-08-10T06:07:48Z</time>
      </trkpt>
      <trkpt lat="48.76729" lon="4.62555">
        <ele>145.78</ele>
        <time>2021-08-10T06:07:52Z</time>
      </trkpt>
      <trkpt lat="48.76687" lon="4.62563">
        <ele>144.82</ele>
        <time>2021-08-10T06:08:01Z</time>
      </trkpt>
      <trkpt lat="48.76643" lon="4.6257">
        <ele>144.82</ele>
        <time>2021-08-10T06:08:10Z</time>
      </trkpt>
      <trkpt lat="48.76639" lon="4.62571">
        <ele>144.82</ele>
        <time>2021-08-10T06:08:11Z</time>
      </trkpt>
      <trkpt lat="48.76624" lon="4.62573">
        <ele>144.82</ele>
        <time>2021-08-10T06:08:14Z</time>
      </trkpt>
      <trkpt lat="48.7662" lon="4.62572">
        <ele>144.82</ele>
        <time>2021-08-10T06:08:15Z</time>
      </trkpt>
      <trkpt lat="48.76615" lon="4.62572">
        <ele>144.82</ele>
        <time>2021-08-10T06:08:16Z</time>
      </trkpt>
      <trkpt lat="48.76611" lon="4.62573">
        <ele>144.82</ele>
        <time>2021-08-10T06:08:17Z</time>
      </trkpt>
      <trkpt lat="48.76606" lon="4.62573">
        <ele>144.82</ele>
        <time>2021-08-10T06:08:18Z</time>
      </trkpt>
      <trkpt lat="48.76566" lon="4.62581">
        <ele>144.82</ele>
        <time>2021-08-10T06:08:27Z</time>
      </trkpt>
      <trkpt lat="48.76561" lon="4.62582">
        <ele>144.82</ele>
        <time>2021-08-10T06:08:28Z</time>
      </trkpt>
      <trkpt lat="48.76556" lon="4.62582">
        <ele>144.82</ele>
        <time>2021-08-10T06:08:29Z</time>
      </trkpt>
      <trkpt lat="48.76552" lon="4.62583">
        <ele>144.82</ele>
        <time>2021-08-10T06:08:30Z</time>
      </trkpt>
      <trkpt lat="48.76547" lon="4.62584">
        <ele>144.82</ele>
        <time>2021-08-10T06:08:31Z</time>
      </trkpt>
      <trkpt lat="48.76495" lon="4.62593">
        <ele>144.82</ele>
        <time>2021-08-10T06:08:42Z</time>
      </trkpt>
      <trkpt lat="48.76475" lon="4.62595">
        <ele>144.82</ele>
        <time>2021-08-10T06:08:46Z</time>
      </trkpt>
      <trkpt lat="48.76451" lon="4.626">
        <ele>144.82</ele>
        <time>2021-08-10T06:08:51Z</time>
      </trkpt>
      <trkpt lat="48.76447" lon="4.62601">
        <ele>144.82</ele>
        <time>2021-08-10T06:08:52Z</time>
      </trkpt>
      <trkpt lat="48.76414" lon="4.62605">
        <ele>144.82</ele>
        <time>2021-08-10T06:08:59Z</time>
      </trkpt>
      <trkpt lat="48.76374" lon="4.62612">
        <ele>144.82</ele>
        <time>2021-08-10T06:09:08Z</time>
      </trkpt>
      <trkpt lat="48.76337" lon="4.62618">
        <ele>144.82</ele>
        <time>2021-08-10T06:09:16Z</time>
      </trkpt>
      <trkpt lat="48.7631" lon="4.62623">
        <ele>145.78</ele>
        <time>2021-08-10T06:09:22Z</time>
      </trkpt>
      <trkpt lat="48.76275" lon="4.62629">
        <ele>146.74</ele>
        <time>2021-08-10T06:09:30Z</time>
      </trkpt>
      <trkpt lat="48.76229" lon="4.62637">
        <ele>147.22</ele>
        <time>2021-08-10T06:09:41Z</time>
      </trkpt>
      <trkpt lat="48.76192" lon="4.62643">
        <ele>147.7</ele>
        <time>2021-08-10T06:09:50Z</time>
      </trkpt>
      <trkpt lat="48.76162" lon="4.62647">
        <ele>148.18</ele>
        <time>2021-08-10T06:09:59Z</time>
      </trkpt>
      <trkpt lat="48.76131" lon="4.62653">
        <ele>150.1</ele>
        <time>2021-08-10T06:10:10Z</time>
      </trkpt>
      <trkpt lat="48.76096" lon="4.62657">
        <ele>151.54</ele>
        <time>2021-08-10T06:10:23Z</time>
      </trkpt>
      <trkpt lat="48.76071" lon="4.62661">
        <ele>152.51</ele>
        <time>2021-08-10T06:10:33Z</time>
      </trkpt>
      <trkpt lat="48.76044" lon="4.62667">
        <ele>154.43</ele>
        <time>2021-08-10T06:10:44Z</time>
      </trkpt>
      <trkpt lat="48.76024" lon="4.6268">
        <ele>155.39</ele>
        <time>2021-08-10T06:10:52Z</time>
      </trkpt>
      <trkpt lat="48.76001" lon="4.62704">
        <ele>156.83</ele>
        <time>2021-08-10T06:11:02Z</time>
      </trkpt>
      <trkpt lat="48.75983" lon="4.62727">
        <ele>157.79</ele>
        <time>2021-08-10T06:11:10Z</time>
      </trkpt>
      <trkpt lat="48.75962" lon="4.62759">
        <ele>157.79</ele>
        <time>2021-08-10T06:11:18Z</time>
      </trkpt>
      <trkpt lat="48.7594" lon="4.62781">
        <ele>158.75</ele>
        <time>2021-08-10T06:11:25Z</time>
      </trkpt>
      <trkpt lat="48.75907" lon="4.62803">
        <ele>160.2</ele>
        <time>2021-08-10T06:11:35Z</time>
      </trkpt>
      <trkpt lat="48.75896" lon="4.6281">
        <ele>160.2</ele>
        <time>2021-08-10T06:11:38Z</time>
      </trkpt>
      <trkpt lat="48.75875" lon="4.62821">
        <ele>160.68</ele>
        <time>2021-08-10T06:11:43Z</time>
      </trkpt>
      <trkpt lat="48.75835" lon="4.6284">
        <ele>161.16</ele>
        <time>2021-08-10T06:11:52Z</time>
      </trkpt>
      <trkpt lat="48.75821" lon="4.62847">
        <ele>161.16</ele>
        <time>2021-08-10T06:11:55Z</time>
      </trkpt>
      <trkpt lat="48.75774" lon="4.62882">
        <ele>161.16</ele>
        <time>2021-08-10T06:12:05Z</time>
      </trkpt>
      <trkpt lat="48.75771" lon="4.62887">
        <ele>161.16</ele>
        <time>2021-08-10T06:12:06Z</time>
      </trkpt>
      <trkpt lat="48.75768" lon="4.62892">
        <ele>161.16</ele>
        <time>2021-08-10T06:12:07Z</time>
      </trkpt>
      <trkpt lat="48.75765" lon="4.62896">
        <ele>161.16</ele>
        <time>2021-08-10T06:12:08Z</time>
      </trkpt>
      <trkpt lat="48.75761" lon="4.62899">
        <ele>161.16</ele>
        <time>2021-08-10T06:12:09Z</time>
      </trkpt>
      <trkpt lat="48.75757" lon="4.629">
        <ele>161.16</ele>
        <time>2021-08-10T06:12:10Z</time>
      </trkpt>
      <trkpt lat="48.75754" lon="4.62899">
        <ele>161.16</ele>
        <time>2021-08-10T06:12:11Z</time>
      </trkpt>
      <trkpt lat="48.75751" lon="4.62895">
        <ele>161.16</ele>
        <time>2021-08-10T06:12:12Z</time>
      </trkpt>
      <trkpt lat="48.7575" lon="4.62893">
        <ele>161.16</ele>
        <time>2021-08-10T06:12:13Z</time>
      </trkpt>
      <trkpt lat="48.75748" lon="4.62889">
        <ele>161.16</ele>
        <time>2021-08-10T06:12:14Z</time>
      </trkpt>
      <trkpt lat="48.75737" lon="4.62864">
        <ele>164.04</ele>
        <time>2021-08-10T06:12:23Z</time>
      </trkpt>
      <trkpt lat="48.7573" lon="4.62844">
        <ele>165.96</ele>
        <time>2021-08-10T06:12:30Z</time>
      </trkpt>
      <trkpt lat="48.75724" lon="4.62823">
        <ele>167.89</ele>
        <time>2021-08-10T06:12:37Z</time>
      </trkpt>
      <trkpt lat="48.7572" lon="4.62803">
        <ele>168.85</ele>
        <time>2021-08-10T06:12:44Z</time>
      </trkpt>
      <trkpt lat="48.75717" lon="4.62769">
        <ele>170.77</ele>
        <time>2021-08-10T06:12:55Z</time>
      </trkpt>
      <trkpt lat="48.75715" lon="4.62735">
        <ele>171.73</ele>
        <time>2021-08-10T06:13:06Z</time>
      </trkpt>
      <trkpt lat="48.75713" lon="4.62712">
        <ele>172.69</ele>
        <time>2021-08-10T06:13:14Z</time>
      </trkpt>
      <trkpt lat="48.7571" lon="4.62689">
        <ele>174.14</ele>
        <time>2021-08-10T06:13:22Z</time>
      </trkpt>
      <trkpt lat="48.75705" lon="4.62665">
        <ele>176.06</ele>
        <time>2021-08-10T06:13:31Z</time>
      </trkpt>
      <trkpt lat="48.75705" lon="4.62644">
        <ele>177.5</ele>
        <time>2021-08-10T06:13:38Z</time>
      </trkpt>
      <trkpt lat="48.75706" lon="4.6262">
        <ele>178.94</ele>
        <time>2021-08-10T06:13:46Z</time>
      </trkpt>
      <trkpt lat="48.75709" lon="4.62601">
        <ele>180.38</ele>
        <time>2021-08-10T06:13:53Z</time>
      </trkpt>
      <trkpt lat="48.7571" lon="4.62563">
        <ele>180.87</ele>
        <time>2021-08-10T06:14:05Z</time>
      </trkpt>
      <trkpt lat="48.75708" lon="4.62529">
        <ele>182.79</ele>
        <time>2021-08-10T06:14:16Z</time>
      </trkpt>
      <trkpt lat="48.75707" lon="4.62497">
        <ele>184.23</ele>
        <time>2021-08-10T06:14:26Z</time>
      </trkpt>
      <trkpt lat="48.75707" lon="4.6247">
        <ele>185.67</ele>
        <time>2021-08-10T06:14:35Z</time>
      </trkpt>
      <trkpt lat="48.75708" lon="4.62441">
        <ele>187.59</ele>
        <time>2021-08-10T06:14:45Z</time>
      </trkpt>
      <trkpt lat="48.75709" lon="4.62413">
        <ele>189.52</ele>
        <time>2021-08-10T06:14:55Z</time>
      </trkpt>
      <trkpt lat="48.75709" lon="4.62388">
        <ele>191.44</ele>
        <time>2021-08-10T06:15:04Z</time>
      </trkpt>
      <trkpt lat="48.75709" lon="4.62366">
        <ele>192.4</ele>
        <time>2021-08-10T06:15:12Z</time>
      </trkpt>
      <trkpt lat="48.75708" lon="4.62341">
        <ele>193.84</ele>
        <time>2021-08-10T06:15:21Z</time>
      </trkpt>
      <trkpt lat="48.75707" lon="4.62316">
        <ele>195.28</ele>
        <time>2021-08-10T06:15:30Z</time>
      </trkpt>
      <trkpt lat="48.75707" lon="4.62314">
        <ele>195.77</ele>
        <time>2021-08-10T06:15:31Z</time>
      </trkpt>
      <trkpt lat="48.75707" lon="4.62311">
        <ele>195.77</ele>
        <time>2021-08-10T06:15:32Z</time>
      </trkpt>
      <trkpt lat="48.75707" lon="4.62308">
        <ele>195.77</ele>
        <time>2021-08-10T06:15:33Z</time>
      </trkpt>
      <trkpt lat="48.75707" lon="4.62306">
        <ele>196.25</ele>
        <time>2021-08-10T06:15:34Z</time>
      </trkpt>
      <trkpt lat="48.75707" lon="4.62303">
        <ele>196.73</ele>
        <time>2021-08-10T06:15:35Z</time>
      </trkpt>
      <trkpt lat="48.75707" lon="4.623">
        <ele>196.73</ele>
        <time>2021-08-10T06:15:36Z</time>
      </trkpt>
      <trkpt lat="48.75707" lon="4.62297">
        <ele>196.73</ele>
        <time>2021-08-10T06:15:37Z</time>
      </trkpt>
      <trkpt lat="48.75706" lon="4.62271">
        <ele>198.17</ele>
        <time>2021-08-10T06:15:46Z</time>
      </trkpt>
      <trkpt lat="48.75704" lon="4.62231">
        <ele>200.09</ele>
        <time>2021-08-10T06:15:58Z</time>
      </trkpt>
      <trkpt lat="48.75701" lon="4.62204">
        <ele>201.05</ele>
        <time>2021-08-10T06:16:05Z</time>
      </trkpt>
      <trkpt lat="48.75699" lon="4.62176">
        <ele>202.49</ele>
        <time>2021-08-10T06:16:12Z</time>
      </trkpt>
      <trkpt lat="48.75695" lon="4.62143">
        <ele>203.46</ele>
        <time>2021-08-10T06:16:20Z</time>
      </trkpt>
      <trkpt lat="48.75691" lon="4.62111">
        <ele>203.94</ele>
        <time>2021-08-10T06:16:29Z</time>
      </trkpt>
      <trkpt lat="48.75691" lon="4.6211">
        <ele>204.42</ele>
        <time>2021-08-10T06:16:41Z</time>
      </trkpt>
      <trkpt lat="48.7569" lon="4.62109">
        <ele>204.42</ele>
        <time>2021-08-10T06:16:48Z</time>
      </trkpt>
      <trkpt lat="48.75689" lon="4.62107">
        <ele>204.42</ele>
        <time>2021-08-10T06:16:49Z</time>
      </trkpt>
      <trkpt lat="48.75683" lon="4.62084">
        <ele>204.42</ele>
        <time>2021-08-10T06:16:54Z</time>
      </trkpt>
      <trkpt lat="48.75671" lon="4.62035">
        <ele>204.42</ele>
        <time>2021-08-10T06:17:03Z</time>
      </trkpt>
      <trkpt lat="48.75667" lon="4.62004">
        <ele>204.42</ele>
        <time>2021-08-10T06:17:08Z</time>
      </trkpt>
      <trkpt lat="48.75666" lon="4.61997">
        <ele>204.42</ele>
        <time>2021-08-10T06:17:09Z</time>
      </trkpt>
      <trkpt lat="48.75665" lon="4.61989">
        <ele>204.42</ele>
        <time>2021-08-10T06:17:10Z</time>
      </trkpt>
      <trkpt lat="48.75661" lon="4.61933">
        <ele>204.42</ele>
        <time>2021-08-10T06:17:18Z</time>
      </trkpt>
      <trkpt lat="48.75659" lon="4.61919">
        <ele>204.42</ele>
        <time>2021-08-10T06:17:20Z</time>
      </trkpt>
      <trkpt lat="48.75656" lon="4.61892">
        <ele>203.46</ele>
        <time>2021-08-10T06:17:24Z</time>
      </trkpt>
      <trkpt lat="48.75655" lon="4.61886">
        <ele>203.46</ele>
        <time>2021-08-10T06:17:25Z</time>
      </trkpt>
      <trkpt lat="48.75654" lon="4.61879">
        <ele>203.46</ele>
        <time>2021-08-10T06:17:26Z</time>
      </trkpt>
      <trkpt lat="48.75643" lon="4.61831">
        <ele>201.05</ele>
        <time>2021-08-10T06:17:32Z</time>
      </trkpt>
      <trkpt lat="48.75641" lon="4.61824">
        <ele>201.05</ele>
        <time>2021-08-10T06:17:33Z</time>
      </trkpt>
      <trkpt lat="48.75633" lon="4.61797">
        <ele>201.05</ele>
        <time>2021-08-10T06:17:37Z</time>
      </trkpt>
      <trkpt lat="48.75632" lon="4.61791">
        <ele>201.05</ele>
        <time>2021-08-10T06:17:38Z</time>
      </trkpt>
      <trkpt lat="48.75631" lon="4.61785">
        <ele>201.53</ele>
        <time>2021-08-10T06:17:39Z</time>
      </trkpt>
      <trkpt lat="48.75614" lon="4.61721">
        <ele>201.05</ele>
        <time>2021-08-10T06:17:48Z</time>
      </trkpt>
      <trkpt lat="48.75597" lon="4.6166">
        <ele>200.57</ele>
        <time>2021-08-10T06:17:57Z</time>
      </trkpt>
      <trkpt lat="48.75583" lon="4.61606">
        <ele>198.65</ele>
        <time>2021-08-10T06:18:05Z</time>
      </trkpt>
      <trkpt lat="48.75569" lon="4.61543">
        <ele>195.28</ele>
        <time>2021-08-10T06:18:12Z</time>
      </trkpt>
      <trkpt lat="48.75553" lon="4.61458">
        <ele>192.88</ele>
        <time>2021-08-10T06:18:20Z</time>
      </trkpt>
      <trkpt lat="48.75539" lon="4.61365">
        <ele>189.04</ele>
        <time>2021-08-10T06:18:28Z</time>
      </trkpt>
      <trkpt lat="48.75537" lon="4.61354">
        <ele>189.04</ele>
        <time>2021-08-10T06:18:29Z</time>
      </trkpt>
      <trkpt lat="48.75529" lon="4.61306">
        <ele>187.59</ele>
        <time>2021-08-10T06:18:34Z</time>
      </trkpt>
      <trkpt lat="48.75516" lon="4.61251">
        <ele>184.71</ele>
        <time>2021-08-10T06:18:40Z</time>
      </trkpt>
      <trkpt lat="48.75504" lon="4.61215">
        <ele>181.35</ele>
        <time>2021-08-10T06:18:44Z</time>
      </trkpt>
      <trkpt lat="48.755" lon="4.61209">
        <ele>180.87</ele>
        <time>2021-08-10T06:18:45Z</time>
      </trkpt>
      <trkpt lat="48.75494" lon="4.61205">
        <ele>180.87</ele>
        <time>2021-08-10T06:18:46Z</time>
      </trkpt>
      <trkpt lat="48.75489" lon="4.61204">
        <ele>180.87</ele>
        <time>2021-08-10T06:18:47Z</time>
      </trkpt>
      <trkpt lat="48.75484" lon="4.61205">
        <ele>180.87</ele>
        <time>2021-08-10T06:18:48Z</time>
      </trkpt>
      <trkpt lat="48.75478" lon="4.61206">
        <ele>180.87</ele>
        <time>2021-08-10T06:18:49Z</time>
      </trkpt>
      <trkpt lat="48.75451" lon="4.61212">
        <ele>177.98</ele>
        <time>2021-08-10T06:18:53Z</time>
      </trkpt>
      <trkpt lat="48.75435" lon="4.61215">
        <ele>173.66</ele>
        <time>2021-08-10T06:18:55Z</time>
      </trkpt>
      <trkpt lat="48.75418" lon="4.61219">
        <ele>170.77</ele>
        <time>2021-08-10T06:18:57Z</time>
      </trkpt>
      <trkpt lat="48.754" lon="4.61222">
        <ele>166.93</ele>
        <time>2021-08-10T06:18:59Z</time>
      </trkpt>
      <trkpt lat="48.75382" lon="4.61228">
        <ele>163.08</ele>
        <time>2021-08-10T06:19:01Z</time>
      </trkpt>
      <trkpt lat="48.75364" lon="4.61233">
        <ele>160.2</ele>
        <time>2021-08-10T06:19:03Z</time>
      </trkpt>
      <trkpt lat="48.75337" lon="4.61238">
        <ele>156.35</ele>
        <time>2021-08-10T06:19:06Z</time>
      </trkpt>
      <trkpt lat="48.75312" lon="4.61242">
        <ele>152.99</ele>
        <time>2021-08-10T06:19:09Z</time>
      </trkpt>
      <trkpt lat="48.75304" lon="4.61244">
        <ele>153.47</ele>
        <time>2021-08-10T06:19:10Z</time>
      </trkpt>
      <trkpt lat="48.75282" lon="4.61247">
        <ele>150.58</ele>
        <time>2021-08-10T06:19:13Z</time>
      </trkpt>
      <trkpt lat="48.75268" lon="4.61246">
        <ele>150.1</ele>
        <time>2021-08-10T06:19:15Z</time>
      </trkpt>
      <trkpt lat="48.75227" lon="4.61234">
        <ele>149.14</ele>
        <time>2021-08-10T06:19:21Z</time>
      </trkpt>
      <trkpt lat="48.75202" lon="4.61225">
        <ele>149.14</ele>
        <time>2021-08-10T06:19:25Z</time>
      </trkpt>
      <trkpt lat="48.75196" lon="4.61223">
        <ele>149.14</ele>
        <time>2021-08-10T06:19:26Z</time>
      </trkpt>
      <trkpt lat="48.7514" lon="4.61203">
        <ele>149.14</ele>
        <time>2021-08-10T06:19:36Z</time>
      </trkpt>
      <trkpt lat="48.75123" lon="4.61197">
        <ele>149.14</ele>
        <time>2021-08-10T06:19:39Z</time>
      </trkpt>
      <trkpt lat="48.75118" lon="4.61195">
        <ele>149.14</ele>
        <time>2021-08-10T06:19:40Z</time>
      </trkpt>
      <trkpt lat="48.75113" lon="4.61193">
        <ele>149.14</ele>
        <time>2021-08-10T06:19:41Z</time>
      </trkpt>
      <trkpt lat="48.75057" lon="4.61174">
        <ele>148.66</ele>
        <time>2021-08-10T06:19:50Z</time>
      </trkpt>
      <trkpt lat="48.75051" lon="4.61172">
        <ele>148.66</ele>
        <time>2021-08-10T06:19:51Z</time>
      </trkpt>
      <trkpt lat="48.74998" lon="4.61157">
        <ele>148.66</ele>
        <time>2021-08-10T06:20:00Z</time>
      </trkpt>
      <trkpt lat="48.74987" lon="4.61153">
        <ele>148.66</ele>
        <time>2021-08-10T06:20:02Z</time>
      </trkpt>
      <trkpt lat="48.74982" lon="4.6115">
        <ele>148.18</ele>
        <time>2021-08-10T06:20:03Z</time>
      </trkpt>
      <trkpt lat="48.74976" lon="4.61147">
        <ele>148.18</ele>
        <time>2021-08-10T06:20:04Z</time>
      </trkpt>
      <trkpt lat="48.74952" lon="4.6114">
        <ele>147.7</ele>
        <time>2021-08-10T06:20:08Z</time>
      </trkpt>
      <trkpt lat="48.74947" lon="4.61138">
        <ele>147.7</ele>
        <time>2021-08-10T06:20:09Z</time>
      </trkpt>
      <trkpt lat="48.74893" lon="4.61124">
        <ele>147.7</ele>
        <time>2021-08-10T06:20:19Z</time>
      </trkpt>
      <trkpt lat="48.74855" lon="4.61113">
        <ele>147.7</ele>
        <time>2021-08-10T06:20:28Z</time>
      </trkpt>
      <trkpt lat="48.74828" lon="4.61106">
        <ele>148.66</ele>
        <time>2021-08-10T06:20:36Z</time>
      </trkpt>
      <trkpt lat="48.74799" lon="4.61103">
        <ele>150.1</ele>
        <time>2021-08-10T06:20:46Z</time>
      </trkpt>
      <trkpt lat="48.74774" lon="4.61101">
        <ele>151.54</ele>
        <time>2021-08-10T06:20:56Z</time>
      </trkpt>
      <trkpt lat="48.74749" lon="4.61099">
        <ele>151.54</ele>
        <time>2021-08-10T06:21:03Z</time>
      </trkpt>
      <trkpt lat="48.74733" lon="4.61097">
        <ele>150.1</ele>
        <time>2021-08-10T06:21:07Z</time>
      </trkpt>
      <trkpt lat="48.74698" lon="4.61091">
        <ele>149.14</ele>
        <time>2021-08-10T06:21:15Z</time>
      </trkpt>
      <trkpt lat="48.7467" lon="4.61075">
        <ele>148.66</ele>
        <time>2021-08-10T06:21:23Z</time>
      </trkpt>
      <trkpt lat="48.74669" lon="4.61049">
        <ele>149.62</ele>
        <time>2021-08-10T06:21:28Z</time>
      </trkpt>
      <trkpt lat="48.7467" lon="4.60999">
        <ele>151.54</ele>
        <time>2021-08-10T06:21:40Z</time>
      </trkpt>
      <trkpt lat="48.74672" lon="4.60954">
        <ele>152.51</ele>
        <time>2021-08-10T06:21:50Z</time>
      </trkpt>
      <trkpt lat="48.74674" lon="4.60894">
        <ele>152.51</ele>
        <time>2021-08-10T06:22:01Z</time>
      </trkpt>
      <trkpt lat="48.74677" lon="4.60813">
        <ele>152.51</ele>
        <time>2021-08-10T06:22:14Z</time>
      </trkpt>
      <trkpt lat="48.74678" lon="4.60749">
        <ele>152.51</ele>
        <time>2021-08-10T06:22:24Z</time>
      </trkpt>
      <trkpt lat="48.74679" lon="4.60723">
        <ele>151.54</ele>
        <time>2021-08-10T06:22:28Z</time>
      </trkpt>
      <trkpt lat="48.74679" lon="4.60669">
        <ele>150.58</ele>
        <time>2021-08-10T06:22:36Z</time>
      </trkpt>
      <trkpt lat="48.7468" lon="4.6063">
        <ele>150.58</ele>
        <time>2021-08-10T06:22:42Z</time>
      </trkpt>
      <trkpt lat="48.74681" lon="4.60591">
        <ele>150.58</ele>
        <time>2021-08-10T06:22:50Z</time>
      </trkpt>
      <trkpt lat="48.74677" lon="4.60578">
        <ele>150.58</ele>
        <time>2021-08-10T06:22:53Z</time>
      </trkpt>
      <trkpt lat="48.74674" lon="4.60577">
        <ele>150.58</ele>
        <time>2021-08-10T06:22:54Z</time>
      </trkpt>
      <trkpt lat="48.74649" lon="4.60575">
        <ele>150.58</ele>
        <time>2021-08-10T06:23:01Z</time>
      </trkpt>
      <trkpt lat="48.74636" lon="4.60571">
        <ele>150.1</ele>
        <time>2021-08-10T06:23:05Z</time>
      </trkpt>
      <trkpt lat="48.74632" lon="4.60566">
        <ele>149.14</ele>
        <time>2021-08-10T06:23:06Z</time>
      </trkpt>
      <trkpt lat="48.7463" lon="4.6056">
        <ele>149.14</ele>
        <time>2021-08-10T06:23:07Z</time>
      </trkpt>
      <trkpt lat="48.74629" lon="4.60554">
        <ele>149.14</ele>
        <time>2021-08-10T06:23:08Z</time>
      </trkpt>
      <trkpt lat="48.74627" lon="4.60549">
        <ele>149.14</ele>
        <time>2021-08-10T06:23:09Z</time>
      </trkpt>
      <trkpt lat="48.74622" lon="4.60513">
        <ele>148.66</ele>
        <time>2021-08-10T06:23:16Z</time>
      </trkpt>
      <trkpt lat="48.74617" lon="4.6047">
        <ele>148.66</ele>
        <time>2021-08-10T06:23:23Z</time>
      </trkpt>
      <trkpt lat="48.74614" lon="4.604">
        <ele>148.66</ele>
        <time>2021-08-10T06:23:34Z</time>
      </trkpt>
      <trkpt lat="48.74614" lon="4.60381">
        <ele>148.66</ele>
        <time>2021-08-10T06:23:37Z</time>
      </trkpt>
      <trkpt lat="48.74614" lon="4.60359">
        <ele>148.66</ele>
        <time>2021-08-10T06:23:41Z</time>
      </trkpt>
      <trkpt lat="48.74613" lon="4.60357">
        <ele>148.18</ele>
        <time>2021-08-10T06:23:42Z</time>
      </trkpt>
      <trkpt lat="48.74611" lon="4.60354">
        <ele>147.7</ele>
        <time>2021-08-10T06:23:43Z</time>
      </trkpt>
      <trkpt lat="48.74609" lon="4.60352">
        <ele>147.22</ele>
        <time>2021-08-10T06:23:44Z</time>
      </trkpt>
      <trkpt lat="48.74607" lon="4.6035">
        <ele>146.26</ele>
        <time>2021-08-10T06:23:45Z</time>
      </trkpt>
      <trkpt lat="48.74603" lon="4.60347">
        <ele>143.85</ele>
        <time>2021-08-10T06:23:50Z</time>
      </trkpt>
      <trkpt lat="48.74602" lon="4.60342">
        <ele>143.85</ele>
        <time>2021-08-10T06:23:54Z</time>
      </trkpt>
      <trkpt lat="48.74602" lon="4.6034">
        <ele>143.85</ele>
        <time>2021-08-10T06:23:55Z</time>
      </trkpt>
      <trkpt lat="48.74601" lon="4.60338">
        <ele>143.85</ele>
        <time>2021-08-10T06:23:56Z</time>
      </trkpt>
      <trkpt lat="48.74601" lon="4.60336">
        <ele>143.85</ele>
        <time>2021-08-10T06:23:57Z</time>
      </trkpt>
      <trkpt lat="48.746" lon="4.60333">
        <ele>143.85</ele>
        <time>2021-08-10T06:23:58Z</time>
      </trkpt>
      <trkpt lat="48.746" lon="4.60331">
        <ele>143.85</ele>
        <time>2021-08-10T06:23:59Z</time>
      </trkpt>
      <trkpt lat="48.74599" lon="4.60328">
        <ele>143.85</ele>
        <time>2021-08-10T06:24:00Z</time>
      </trkpt>
      <trkpt lat="48.74598" lon="4.60325">
        <ele>143.85</ele>
        <time>2021-08-10T06:24:01Z</time>
      </trkpt>
      <trkpt lat="48.74598" lon="4.60323">
        <ele>143.85</ele>
        <time>2021-08-10T06:24:02Z</time>
      </trkpt>
      <trkpt lat="48.74598" lon="4.6032">
        <ele>143.37</ele>
        <time>2021-08-10T06:24:03Z</time>
      </trkpt>
      <trkpt lat="48.74597" lon="4.60318">
        <ele>143.37</ele>
        <time>2021-08-10T06:24:04Z</time>
      </trkpt>
      <trkpt lat="48.74598" lon="4.60315">
        <ele>142.89</ele>
        <time>2021-08-10T06:24:05Z</time>
      </trkpt>
      <trkpt lat="48.74597" lon="4.60311">
        <ele>141.93</ele>
        <time>2021-08-10T06:24:06Z</time>
      </trkpt>
      <trkpt lat="48.74598" lon="4.60305">
        <ele>141.93</ele>
        <time>2021-08-10T06:24:07Z</time>
      </trkpt>
      <trkpt lat="48.74598" lon="4.60301">
        <ele>142.41</ele>
        <time>2021-08-10T06:24:08Z</time>
      </trkpt>
      <trkpt lat="48.74598" lon="4.60297">
        <ele>142.41</ele>
        <time>2021-08-10T06:24:09Z</time>
      </trkpt>
      <trkpt lat="48.74597" lon="4.60294">
        <ele>142.41</ele>
        <time>2021-08-10T06:24:10Z</time>
      </trkpt>
      <trkpt lat="48.74596" lon="4.6029">
        <ele>142.41</ele>
        <time>2021-08-10T06:24:11Z</time>
      </trkpt>
      <trkpt lat="48.74595" lon="4.60286">
        <ele>141.45</ele>
        <time>2021-08-10T06:24:12Z</time>
      </trkpt>
      <trkpt lat="48.74594" lon="4.60281">
        <ele>140.97</ele>
        <time>2021-08-10T06:24:13Z</time>
      </trkpt>
      <trkpt lat="48.74595" lon="4.60278">
        <ele>140.97</ele>
        <time>2021-08-10T06:24:14Z</time>
      </trkpt>
      <trkpt lat="48.74595" lon="4.60275">
        <ele>140.97</ele>
        <time>2021-08-10T06:24:15Z</time>
      </trkpt>
      <trkpt lat="48.74596" lon="4.60273">
        <ele>140.97</ele>
        <time>2021-08-10T06:24:16Z</time>
      </trkpt>
      <trkpt lat="48.74596" lon="4.60271">
        <ele>140.97</ele>
        <time>2021-08-10T06:24:17Z</time>
      </trkpt>
      <trkpt lat="48.74597" lon="4.60269">
        <ele>140.97</ele>
        <time>2021-08-10T06:24:18Z</time>
      </trkpt>
      <trkpt lat="48.74597" lon="4.60267">
        <ele>140.97</ele>
        <time>2021-08-10T06:24:19Z</time>
      </trkpt>
      <trkpt lat="48.74603" lon="4.60248">
        <ele>140.97</ele>
        <time>2021-08-10T06:24:25Z</time>
      </trkpt>
      <trkpt lat="48.74612" lon="4.60235">
        <ele>139.05</ele>
        <time>2021-08-10T06:24:29Z</time>
      </trkpt>
      <trkpt lat="48.7462" lon="4.60226">
        <ele>137.61</ele>
        <time>2021-08-10T06:24:34Z</time>
      </trkpt>
      <trkpt lat="48.74621" lon="4.60222">
        <ele>136.64</ele>
        <time>2021-08-10T06:24:35Z</time>
      </trkpt>
      <trkpt lat="48.74622" lon="4.60214">
        <ele>134.24</ele>
        <time>2021-08-10T06:24:37Z</time>
      </trkpt>
      <trkpt lat="48.74622" lon="4.60209">
        <ele>133.76</ele>
        <time>2021-08-10T06:24:38Z</time>
      </trkpt>
      <trkpt lat="48.74622" lon="4.60205">
        <ele>133.76</ele>
        <time>2021-08-10T06:24:39Z</time>
      </trkpt>
      <trkpt lat="48.74623" lon="4.60197">
        <ele>133.76</ele>
        <time>2021-08-10T06:24:44Z</time>
      </trkpt>
      <trkpt lat="48.74624" lon="4.60195">
        <ele>135.2</ele>
        <time>2021-08-10T06:24:46Z</time>
      </trkpt>
      <trkpt lat="48.74626" lon="4.60185">
        <ele>138.09</ele>
        <time>2021-08-10T06:24:55Z</time>
      </trkpt>
      <trkpt lat="48.74625" lon="4.60178">
        <ele>140.01</ele>
        <time>2021-08-10T06:25:04Z</time>
      </trkpt>
      <trkpt lat="48.74623" lon="4.60175">
        <ele>140.49</ele>
        <time>2021-08-10T06:25:07Z</time>
      </trkpt>
      <trkpt lat="48.74621" lon="4.60163">
        <ele>141.93</ele>
        <time>2021-08-10T06:25:15Z</time>
      </trkpt>
      <trkpt lat="48.7462" lon="4.60157">
        <ele>141.93</ele>
        <time>2021-08-10T06:25:26Z</time>
      </trkpt>
      <trkpt lat="48.74619" lon="4.60152">
        <ele>141.93</ele>
        <time>2021-08-10T06:25:29Z</time>
      </trkpt>
      <trkpt lat="48.74618" lon="4.6015">
        <ele>141.93</ele>
        <time>2021-08-10T06:25:30Z</time>
      </trkpt>
      <trkpt lat="48.74618" lon="4.60147">
        <ele>141.93</ele>
        <time>2021-08-10T06:25:31Z</time>
      </trkpt>
      <trkpt lat="48.74617" lon="4.60145">
        <ele>141.93</ele>
        <time>2021-08-10T06:25:32Z</time>
      </trkpt>
      <trkpt lat="48.74616" lon="4.60142">
        <ele>141.93</ele>
        <time>2021-08-10T06:25:33Z</time>
      </trkpt>
      <trkpt lat="48.74614" lon="4.60138">
        <ele>141.93</ele>
        <time>2021-08-10T06:25:34Z</time>
      </trkpt>
      <trkpt lat="48.74612" lon="4.60134">
        <ele>140.49</ele>
        <time>2021-08-10T06:25:35Z</time>
      </trkpt>
      <trkpt lat="48.74611" lon="4.6013">
        <ele>140.49</ele>
        <time>2021-08-10T06:25:36Z</time>
      </trkpt>
      <trkpt lat="48.74608" lon="4.60104">
        <ele>139.05</ele>
        <time>2021-08-10T06:25:41Z</time>
      </trkpt>
      <trkpt lat="48.74608" lon="4.60094">
        <ele>139.05</ele>
        <time>2021-08-10T06:25:44Z</time>
      </trkpt>
      <trkpt lat="48.74608" lon="4.60091">
        <ele>139.05</ele>
        <time>2021-08-10T06:25:45Z</time>
      </trkpt>
      <trkpt lat="48.74607" lon="4.60088">
        <ele>139.05</ele>
        <time>2021-08-10T06:25:46Z</time>
      </trkpt>
      <trkpt lat="48.74607" lon="4.60084">
        <ele>139.05</ele>
        <time>2021-08-10T06:25:47Z</time>
      </trkpt>
      <trkpt lat="48.74606" lon="4.60081">
        <ele>139.05</ele>
        <time>2021-08-10T06:25:48Z</time>
      </trkpt>
      <trkpt lat="48.74605" lon="4.60077">
        <ele>139.05</ele>
        <time>2021-08-10T06:25:49Z</time>
      </trkpt>
      <trkpt lat="48.74605" lon="4.60073">
        <ele>139.05</ele>
        <time>2021-08-10T06:25:50Z</time>
      </trkpt>
      <trkpt lat="48.74605" lon="4.6007">
        <ele>139.05</ele>
        <time>2021-08-10T06:25:51Z</time>
      </trkpt>
      <trkpt lat="48.74605" lon="4.60067">
        <ele>139.05</ele>
        <time>2021-08-10T06:25:52Z</time>
      </trkpt>
      <trkpt lat="48.74604" lon="4.60064">
        <ele>139.05</ele>
        <time>2021-08-10T06:25:53Z</time>
      </trkpt>
      <trkpt lat="48.74603" lon="4.60061">
        <ele>139.05</ele>
        <time>2021-08-10T06:25:54Z</time>
      </trkpt>
      <trkpt lat="48.74602" lon="4.60058">
        <ele>139.05</ele>
        <time>2021-08-10T06:25:55Z</time>
      </trkpt>
      <trkpt lat="48.74602" lon="4.60054">
        <ele>139.05</ele>
        <time>2021-08-10T06:25:56Z</time>
      </trkpt>
      <trkpt lat="48.74601" lon="4.6005">
        <ele>139.05</ele>
        <time>2021-08-10T06:25:57Z</time>
      </trkpt>
      <trkpt lat="48.746" lon="4.60046">
        <ele>139.05</ele>
        <time>2021-08-10T06:25:58Z</time>
      </trkpt>
      <trkpt lat="48.74599" lon="4.60041">
        <ele>138.57</ele>
        <time>2021-08-10T06:25:59Z</time>
      </trkpt>
      <trkpt lat="48.74599" lon="4.60036">
        <ele>138.57</ele>
        <time>2021-08-10T06:26:00Z</time>
      </trkpt>
      <trkpt lat="48.74599" lon="4.60032">
        <ele>138.57</ele>
        <time>2021-08-10T06:26:01Z</time>
      </trkpt>
      <trkpt lat="48.74598" lon="4.60029">
        <ele>138.57</ele>
        <time>2021-08-10T06:26:02Z</time>
      </trkpt>
      <trkpt lat="48.74597" lon="4.60026">
        <ele>138.57</ele>
        <time>2021-08-10T06:26:03Z</time>
      </trkpt>
      <trkpt lat="48.74597" lon="4.60023">
        <ele>138.57</ele>
        <time>2021-08-10T06:26:04Z</time>
      </trkpt>
      <trkpt lat="48.74592" lon="4.60007">
        <ele>136.16</ele>
        <time>2021-08-10T06:26:09Z</time>
      </trkpt>
      <trkpt lat="48.74589" lon="4.59995">
        <ele>134.72</ele>
        <time>2021-08-10T06:26:12Z</time>
      </trkpt>
      <trkpt lat="48.74589" lon="4.59981">
        <ele>134.72</ele>
        <time>2021-08-10T06:26:17Z</time>
      </trkpt>
      <trkpt lat="48.74589" lon="4.59977">
        <ele>134.72</ele>
        <time>2021-08-10T06:26:19Z</time>
      </trkpt>
      <trkpt lat="48.74588" lon="4.59974">
        <ele>134.72</ele>
        <time>2021-08-10T06:26:20Z</time>
      </trkpt>
      <trkpt lat="48.74588" lon="4.59971">
        <ele>134.72</ele>
        <time>2021-08-10T06:26:21Z</time>
      </trkpt>
      <trkpt lat="48.74587" lon="4.59964">
        <ele>134.72</ele>
        <time>2021-08-10T06:26:26Z</time>
      </trkpt>
      <trkpt lat="48.74587" lon="4.59962">
        <ele>136.16</ele>
        <time>2021-08-10T06:26:27Z</time>
      </trkpt>
      <trkpt lat="48.74586" lon="4.59959">
        <ele>136.16</ele>
        <time>2021-08-10T06:26:28Z</time>
      </trkpt>
      <trkpt lat="48.74586" lon="4.59956">
        <ele>136.16</ele>
        <time>2021-08-10T06:26:29Z</time>
      </trkpt>
      <trkpt lat="48.74585" lon="4.59953">
        <ele>136.16</ele>
        <time>2021-08-10T06:26:30Z</time>
      </trkpt>
      <trkpt lat="48.74584" lon="4.59949">
        <ele>136.16</ele>
        <time>2021-08-10T06:26:31Z</time>
      </trkpt>
      <trkpt lat="48.74583" lon="4.59946">
        <ele>136.16</ele>
        <time>2021-08-10T06:26:32Z</time>
      </trkpt>
      <trkpt lat="48.74582" lon="4.59941">
        <ele>136.16</ele>
        <time>2021-08-10T06:26:33Z</time>
      </trkpt>
      <trkpt lat="48.74581" lon="4.59937">
        <ele>136.16</ele>
        <time>2021-08-10T06:26:34Z</time>
      </trkpt>
      <trkpt lat="48.74581" lon="4.59934">
        <ele>136.16</ele>
        <time>2021-08-10T06:26:35Z</time>
      </trkpt>
      <trkpt lat="48.7458" lon="4.59931">
        <ele>136.16</ele>
        <time>2021-08-10T06:26:36Z</time>
      </trkpt>
      <trkpt lat="48.74572" lon="4.59915">
        <ele>134.24</ele>
        <time>2021-08-10T06:26:42Z</time>
      </trkpt>
      <trkpt lat="48.74567" lon="4.59888">
        <ele>133.76</ele>
        <time>2021-08-10T06:26:50Z</time>
      </trkpt>
      <trkpt lat="48.74568" lon="4.59883">
        <ele>133.76</ele>
        <time>2021-08-10T06:26:55Z</time>
      </trkpt>
      <trkpt lat="48.74567" lon="4.59876">
        <ele>133.76</ele>
        <time>2021-08-10T06:27:01Z</time>
      </trkpt>
      <trkpt lat="48.74562" lon="4.59866">
        <ele>133.28</ele>
        <time>2021-08-10T06:27:06Z</time>
      </trkpt>
      <trkpt lat="48.74562" lon="4.59863">
        <ele>132.8</ele>
        <time>2021-08-10T06:27:07Z</time>
      </trkpt>
      <trkpt lat="48.74561" lon="4.59859">
        <ele>132.32</ele>
        <time>2021-08-10T06:27:08Z</time>
      </trkpt>
      <trkpt lat="48.7456" lon="4.59854">
        <ele>131.84</ele>
        <time>2021-08-10T06:27:10Z</time>
      </trkpt>
      <trkpt lat="48.74559" lon="4.59852">
        <ele>131.36</ele>
        <time>2021-08-10T06:27:11Z</time>
      </trkpt>
      <trkpt lat="48.74557" lon="4.5985">
        <ele>130.88</ele>
        <time>2021-08-10T06:27:12Z</time>
      </trkpt>
      <trkpt lat="48.74556" lon="4.59847">
        <ele>130.4</ele>
        <time>2021-08-10T06:27:13Z</time>
      </trkpt>
      <trkpt lat="48.74556" lon="4.59844">
        <ele>130.4</ele>
        <time>2021-08-10T06:27:14Z</time>
      </trkpt>
      <trkpt lat="48.74555" lon="4.59841">
        <ele>129.92</ele>
        <time>2021-08-10T06:27:15Z</time>
      </trkpt>
      <trkpt lat="48.74554" lon="4.59838">
        <ele>129.43</ele>
        <time>2021-08-10T06:27:16Z</time>
      </trkpt>
      <trkpt lat="48.74554" lon="4.59835">
        <ele>129.43</ele>
        <time>2021-08-10T06:27:17Z</time>
      </trkpt>
      <trkpt lat="48.74554" lon="4.59832">
        <ele>129.43</ele>
        <time>2021-08-10T06:27:18Z</time>
      </trkpt>
      <trkpt lat="48.74554" lon="4.59829">
        <ele>129.43</ele>
        <time>2021-08-10T06:27:19Z</time>
      </trkpt>
      <trkpt lat="48.74554" lon="4.59827">
        <ele>129.92</ele>
        <time>2021-08-10T06:27:20Z</time>
      </trkpt>
      <trkpt lat="48.74552" lon="4.59824">
        <ele>128.95</ele>
        <time>2021-08-10T06:27:21Z</time>
      </trkpt>
      <trkpt lat="48.74551" lon="4.59821">
        <ele>127.99</ele>
        <time>2021-08-10T06:27:22Z</time>
      </trkpt>
      <trkpt lat="48.74549" lon="4.59818">
        <ele>127.51</ele>
        <time>2021-08-10T06:27:23Z</time>
      </trkpt>
      <trkpt lat="48.74548" lon="4.59814">
        <ele>127.51</ele>
        <time>2021-08-10T06:27:24Z</time>
      </trkpt>
      <trkpt lat="48.74547" lon="4.5981">
        <ele>127.03</ele>
        <time>2021-08-10T06:27:25Z</time>
      </trkpt>
      <trkpt lat="48.74546" lon="4.59807">
        <ele>127.03</ele>
        <time>2021-08-10T06:27:26Z</time>
      </trkpt>
      <trkpt lat="48.74546" lon="4.59804">
        <ele>127.03</ele>
        <time>2021-08-10T06:27:27Z</time>
      </trkpt>
      <trkpt lat="48.74545" lon="4.598">
        <ele>127.03</ele>
        <time>2021-08-10T06:27:28Z</time>
      </trkpt>
      <trkpt lat="48.74544" lon="4.59795">
        <ele>126.55</ele>
        <time>2021-08-10T06:27:29Z</time>
      </trkpt>
      <trkpt lat="48.74544" lon="4.59791">
        <ele>126.55</ele>
        <time>2021-08-10T06:27:30Z</time>
      </trkpt>
      <trkpt lat="48.74543" lon="4.59788">
        <ele>126.55</ele>
        <time>2021-08-10T06:27:31Z</time>
      </trkpt>
      <trkpt lat="48.74543" lon="4.59784">
        <ele>126.55</ele>
        <time>2021-08-10T06:27:32Z</time>
      </trkpt>
      <trkpt lat="48.74541" lon="4.5978">
        <ele>126.07</ele>
        <time>2021-08-10T06:27:33Z</time>
      </trkpt>
      <trkpt lat="48.74541" lon="4.59777">
        <ele>125.59</ele>
        <time>2021-08-10T06:27:34Z</time>
      </trkpt>
      <trkpt lat="48.74541" lon="4.59774">
        <ele>125.59</ele>
        <time>2021-08-10T06:27:35Z</time>
      </trkpt>
      <trkpt lat="48.74541" lon="4.59771">
        <ele>125.59</ele>
        <time>2021-08-10T06:27:36Z</time>
      </trkpt>
      <trkpt lat="48.7454" lon="4.59769">
        <ele>125.59</ele>
        <time>2021-08-10T06:27:37Z</time>
      </trkpt>
      <trkpt lat="48.7454" lon="4.59766">
        <ele>125.59</ele>
        <time>2021-08-10T06:27:38Z</time>
      </trkpt>
      <trkpt lat="48.74538" lon="4.59759">
        <ele>125.59</ele>
        <time>2021-08-10T06:27:41Z</time>
      </trkpt>
      <trkpt lat="48.74538" lon="4.59757">
        <ele>125.11</ele>
        <time>2021-08-10T06:27:42Z</time>
      </trkpt>
      <trkpt lat="48.74537" lon="4.5975">
        <ele>124.63</ele>
        <time>2021-08-10T06:27:47Z</time>
      </trkpt>
      <trkpt lat="48.74536" lon="4.59736">
        <ele>124.15</ele>
        <time>2021-08-10T06:27:53Z</time>
      </trkpt>
      <trkpt lat="48.74531" lon="4.59718">
        <ele>122.71</ele>
        <time>2021-08-10T06:27:59Z</time>
      </trkpt>
      <trkpt lat="48.74528" lon="4.59703">
        <ele>122.22</ele>
        <time>2021-08-10T06:28:04Z</time>
      </trkpt>
      <trkpt lat="48.74528" lon="4.597">
        <ele>122.22</ele>
        <time>2021-08-10T06:28:05Z</time>
      </trkpt>
      <trkpt lat="48.74527" lon="4.59697">
        <ele>122.22</ele>
        <time>2021-08-10T06:28:06Z</time>
      </trkpt>
      <trkpt lat="48.74526" lon="4.59684">
        <ele>122.22</ele>
        <time>2021-08-10T06:28:10Z</time>
      </trkpt>
      <trkpt lat="48.74525" lon="4.59681">
        <ele>122.22</ele>
        <time>2021-08-10T06:28:11Z</time>
      </trkpt>
      <trkpt lat="48.74523" lon="4.59677">
        <ele>122.22</ele>
        <time>2021-08-10T06:28:13Z</time>
      </trkpt>
      <trkpt lat="48.74521" lon="4.59674">
        <ele>122.22</ele>
        <time>2021-08-10T06:28:14Z</time>
      </trkpt>
      <trkpt lat="48.7452" lon="4.59672">
        <ele>122.22</ele>
        <time>2021-08-10T06:28:15Z</time>
      </trkpt>
      <trkpt lat="48.74519" lon="4.5967">
        <ele>122.22</ele>
        <time>2021-08-10T06:28:16Z</time>
      </trkpt>
      <trkpt lat="48.74518" lon="4.59668">
        <ele>121.74</ele>
        <time>2021-08-10T06:28:17Z</time>
      </trkpt>
      <trkpt lat="48.74517" lon="4.59665">
        <ele>121.26</ele>
        <time>2021-08-10T06:28:18Z</time>
      </trkpt>
      <trkpt lat="48.74516" lon="4.59662">
        <ele>121.26</ele>
        <time>2021-08-10T06:28:19Z</time>
      </trkpt>
      <trkpt lat="48.74516" lon="4.59659">
        <ele>120.3</ele>
        <time>2021-08-10T06:28:20Z</time>
      </trkpt>
      <trkpt lat="48.74515" lon="4.59655">
        <ele>120.3</ele>
        <time>2021-08-10T06:28:21Z</time>
      </trkpt>
      <trkpt lat="48.74514" lon="4.5965">
        <ele>119.82</ele>
        <time>2021-08-10T06:28:22Z</time>
      </trkpt>
      <trkpt lat="48.74513" lon="4.59642">
        <ele>119.34</ele>
        <time>2021-08-10T06:28:23Z</time>
      </trkpt>
      <trkpt lat="48.7451" lon="4.59627">
        <ele>119.34</ele>
        <time>2021-08-10T06:28:27Z</time>
      </trkpt>
      <trkpt lat="48.7451" lon="4.59624">
        <ele>119.34</ele>
        <time>2021-08-10T06:28:28Z</time>
      </trkpt>
      <trkpt lat="48.7451" lon="4.59621">
        <ele>119.34</ele>
        <time>2021-08-10T06:28:29Z</time>
      </trkpt>
      <trkpt lat="48.74508" lon="4.5961">
        <ele>119.34</ele>
        <time>2021-08-10T06:28:34Z</time>
      </trkpt>
      <trkpt lat="48.74508" lon="4.59608">
        <ele>119.34</ele>
        <time>2021-08-10T06:28:35Z</time>
      </trkpt>
      <trkpt lat="48.74505" lon="4.59594">
        <ele>115.98</ele>
        <time>2021-08-10T06:28:39Z</time>
      </trkpt>
      <trkpt lat="48.74503" lon="4.59573">
        <ele>113.57</ele>
        <time>2021-08-10T06:28:45Z</time>
      </trkpt>
      <trkpt lat="48.74501" lon="4.59564">
        <ele>115.98</ele>
        <time>2021-08-10T06:28:48Z</time>
      </trkpt>
      <trkpt lat="48.74499" lon="4.59558">
        <ele>115.98</ele>
        <time>2021-08-10T06:28:50Z</time>
      </trkpt>
      <trkpt lat="48.74499" lon="4.59555">
        <ele>115.98</ele>
        <time>2021-08-10T06:28:51Z</time>
      </trkpt>
      <trkpt lat="48.74499" lon="4.5955">
        <ele>114.53</ele>
        <time>2021-08-10T06:28:52Z</time>
      </trkpt>
      <trkpt lat="48.74499" lon="4.59544">
        <ele>114.05</ele>
        <time>2021-08-10T06:28:53Z</time>
      </trkpt>
      <trkpt lat="48.745" lon="4.59539">
        <ele>114.05</ele>
        <time>2021-08-10T06:28:54Z</time>
      </trkpt>
      <trkpt lat="48.74499" lon="4.59532">
        <ele>114.05</ele>
        <time>2021-08-10T06:28:55Z</time>
      </trkpt>
      <trkpt lat="48.74498" lon="4.59528">
        <ele>113.09</ele>
        <time>2021-08-10T06:28:56Z</time>
      </trkpt>
      <trkpt lat="48.74498" lon="4.59523">
        <ele>112.61</ele>
        <time>2021-08-10T06:28:57Z</time>
      </trkpt>
      <trkpt lat="48.74497" lon="4.59519">
        <ele>111.17</ele>
        <time>2021-08-10T06:28:58Z</time>
      </trkpt>
      <trkpt lat="48.74496" lon="4.59515">
        <ele>110.69</ele>
        <time>2021-08-10T06:28:59Z</time>
      </trkpt>
      <trkpt lat="48.74495" lon="4.59511">
        <ele>109.73</ele>
        <time>2021-08-10T06:29:00Z</time>
      </trkpt>
      <trkpt lat="48.74494" lon="4.59508">
        <ele>108.77</ele>
        <time>2021-08-10T06:29:01Z</time>
      </trkpt>
      <trkpt lat="48.74493" lon="4.59503">
        <ele>107.81</ele>
        <time>2021-08-10T06:29:02Z</time>
      </trkpt>
      <trkpt lat="48.74492" lon="4.59499">
        <ele>107.32</ele>
        <time>2021-08-10T06:29:03Z</time>
      </trkpt>
      <trkpt lat="48.74492" lon="4.59495">
        <ele>106.36</ele>
        <time>2021-08-10T06:29:04Z</time>
      </trkpt>
      <trkpt lat="48.74491" lon="4.59491">
        <ele>106.36</ele>
        <time>2021-08-10T06:29:05Z</time>
      </trkpt>
      <trkpt lat="48.74491" lon="4.59487">
        <ele>105.88</ele>
        <time>2021-08-10T06:29:06Z</time>
      </trkpt>
      <trkpt lat="48.74492" lon="4.59483">
        <ele>105.4</ele>
        <time>2021-08-10T06:29:07Z</time>
      </trkpt>
      <trkpt lat="48.74492" lon="4.5948">
        <ele>104.92</ele>
        <time>2021-08-10T06:29:08Z</time>
      </trkpt>
      <trkpt lat="48.74489" lon="4.59474">
        <ele>104.44</ele>
        <time>2021-08-10T06:29:11Z</time>
      </trkpt>
      <trkpt lat="48.74487" lon="4.59474">
        <ele>103</ele>
        <time>2021-08-10T06:29:12Z</time>
      </trkpt>
      <trkpt lat="48.74484" lon="4.59473">
        <ele>101.56</ele>
        <time>2021-08-10T06:29:13Z</time>
      </trkpt>
      <trkpt lat="48.7448" lon="4.59472">
        <ele>101.08</ele>
        <time>2021-08-10T06:29:14Z</time>
      </trkpt>
      <trkpt lat="48.74477" lon="4.5947">
        <ele>101.08</ele>
        <time>2021-08-10T06:29:15Z</time>
      </trkpt>
      <trkpt lat="48.74473" lon="4.59469">
        <ele>101.08</ele>
        <time>2021-08-10T06:29:16Z</time>
      </trkpt>
      <trkpt lat="48.7447" lon="4.5947">
        <ele>101.08</ele>
        <time>2021-08-10T06:29:17Z</time>
      </trkpt>
      <trkpt lat="48.74468" lon="4.59469">
        <ele>101.08</ele>
        <time>2021-08-10T06:29:18Z</time>
      </trkpt>
      <trkpt lat="48.74467" lon="4.59467">
        <ele>101.08</ele>
        <time>2021-08-10T06:29:19Z</time>
      </trkpt>
      <trkpt lat="48.74465" lon="4.59464">
        <ele>101.08</ele>
        <time>2021-08-10T06:29:20Z</time>
      </trkpt>
      <trkpt lat="48.74464" lon="4.59459">
        <ele>101.08</ele>
        <time>2021-08-10T06:29:21Z</time>
      </trkpt>
      <trkpt lat="48.74458" lon="4.59433">
        <ele>101.56</ele>
        <time>2021-08-10T06:29:29Z</time>
      </trkpt>
      <trkpt lat="48.74453" lon="4.59424">
        <ele>102.52</ele>
        <time>2021-08-10T06:29:32Z</time>
      </trkpt>
      <trkpt lat="48.74439" lon="4.59407">
        <ele>103.48</ele>
        <time>2021-08-10T06:29:40Z</time>
      </trkpt>
      <trkpt lat="48.74438" lon="4.59406">
        <ele>103.96</ele>
        <time>2021-08-10T06:29:41Z</time>
      </trkpt>
      <trkpt lat="48.74417" lon="4.59399">
        <ele>105.4</ele>
        <time>2021-08-10T06:29:50Z</time>
      </trkpt>
      <trkpt lat="48.74398" lon="4.5939">
        <ele>106.36</ele>
        <time>2021-08-10T06:29:57Z</time>
      </trkpt>
      <trkpt lat="48.74397" lon="4.59388">
        <ele>106.36</ele>
        <time>2021-08-10T06:29:58Z</time>
      </trkpt>
      <trkpt lat="48.74396" lon="4.59385">
        <ele>106.36</ele>
        <time>2021-08-10T06:29:59Z</time>
      </trkpt>
      <trkpt lat="48.74396" lon="4.59382">
        <ele>106.36</ele>
        <time>2021-08-10T06:30:00Z</time>
      </trkpt>
      <trkpt lat="48.74396" lon="4.5938">
        <ele>106.84</ele>
        <time>2021-08-10T06:30:01Z</time>
      </trkpt>
      <trkpt lat="48.74395" lon="4.59377">
        <ele>106.84</ele>
        <time>2021-08-10T06:30:07Z</time>
      </trkpt>
      <trkpt lat="48.74394" lon="4.59376">
        <ele>107.81</ele>
        <time>2021-08-10T06:30:22Z</time>
      </trkpt>
      <trkpt lat="48.74394" lon="4.59373">
        <ele>107.81</ele>
        <time>2021-08-10T06:30:38Z</time>
      </trkpt>
      <trkpt lat="48.74395" lon="4.59371">
        <ele>107.81</ele>
        <time>2021-08-10T06:30:55Z</time>
      </trkpt>
      <trkpt lat="48.74394" lon="4.59371">
        <ele>107.81</ele>
        <time>2021-08-10T06:31:05Z</time>
      </trkpt>
      <trkpt lat="48.74394" lon="4.59364">
        <ele>107.81</ele>
        <time>2021-08-10T06:31:13Z</time>
      </trkpt>
      <trkpt lat="48.74405" lon="4.59336">
        <ele>106.84</ele>
        <time>2021-08-10T06:31:21Z</time>
      </trkpt>
      <trkpt lat="48.74409" lon="4.59334">
        <ele>106.84</ele>
        <time>2021-08-10T06:31:22Z</time>
      </trkpt>
      <trkpt lat="48.74413" lon="4.59334">
        <ele>106.36</ele>
        <time>2021-08-10T06:31:23Z</time>
      </trkpt>
      <trkpt lat="48.74417" lon="4.59334">
        <ele>106.36</ele>
        <time>2021-08-10T06:31:24Z</time>
      </trkpt>
      <trkpt lat="48.74422" lon="4.59335">
        <ele>105.88</ele>
        <time>2021-08-10T06:31:25Z</time>
      </trkpt>
      <trkpt lat="48.74437" lon="4.59335">
        <ele>104.92</ele>
        <time>2021-08-10T06:31:28Z</time>
      </trkpt>
      <trkpt lat="48.74443" lon="4.59334">
        <ele>104.44</ele>
        <time>2021-08-10T06:31:29Z</time>
      </trkpt>
      <trkpt lat="48.74449" lon="4.59333">
        <ele>103.96</ele>
        <time>2021-08-10T06:31:30Z</time>
      </trkpt>
      <trkpt lat="48.74455" lon="4.5933">
        <ele>103.48</ele>
        <time>2021-08-10T06:31:31Z</time>
      </trkpt>
      <trkpt lat="48.74461" lon="4.59327">
        <ele>103.48</ele>
        <time>2021-08-10T06:31:32Z</time>
      </trkpt>
      <trkpt lat="48.74467" lon="4.59322">
        <ele>103</ele>
        <time>2021-08-10T06:31:33Z</time>
      </trkpt>
      <trkpt lat="48.74472" lon="4.59315">
        <ele>102.52</ele>
        <time>2021-08-10T06:31:34Z</time>
      </trkpt>
      <trkpt lat="48.74476" lon="4.59307">
        <ele>102.04</ele>
        <time>2021-08-10T06:31:35Z</time>
      </trkpt>
      <trkpt lat="48.7448" lon="4.59298">
        <ele>102.04</ele>
        <time>2021-08-10T06:31:36Z</time>
      </trkpt>
      <trkpt lat="48.74483" lon="4.59289">
        <ele>101.56</ele>
        <time>2021-08-10T06:31:37Z</time>
      </trkpt>
      <trkpt lat="48.74485" lon="4.59279">
        <ele>101.08</ele>
        <time>2021-08-10T06:31:38Z</time>
      </trkpt>
      <trkpt lat="48.74487" lon="4.59269">
        <ele>101.08</ele>
        <time>2021-08-10T06:31:39Z</time>
      </trkpt>
      <trkpt lat="48.74495" lon="4.59212">
        <ele>100.6</ele>
        <time>2021-08-10T06:31:45Z</time>
      </trkpt>
      <trkpt lat="48.74495" lon="4.59202">
        <ele>100.6</ele>
        <time>2021-08-10T06:31:46Z</time>
      </trkpt>
      <trkpt lat="48.74497" lon="4.59149">
        <ele>100.6</ele>
        <time>2021-08-10T06:31:52Z</time>
      </trkpt>
      <trkpt lat="48.74498" lon="4.5914">
        <ele>100.6</ele>
        <time>2021-08-10T06:31:53Z</time>
      </trkpt>
      <trkpt lat="48.745" lon="4.59132">
        <ele>100.6</ele>
        <time>2021-08-10T06:31:54Z</time>
      </trkpt>
      <trkpt lat="48.74507" lon="4.59108">
        <ele>100.6</ele>
        <time>2021-08-10T06:31:57Z</time>
      </trkpt>
      <trkpt lat="48.74538" lon="4.59025">
        <ele>100.11</ele>
        <time>2021-08-10T06:32:08Z</time>
      </trkpt>
      <trkpt lat="48.74552" lon="4.58959">
        <ele>100.11</ele>
        <time>2021-08-10T06:32:16Z</time>
      </trkpt>
      <trkpt lat="48.7456" lon="4.58882">
        <ele>100.11</ele>
        <time>2021-08-10T06:32:25Z</time>
      </trkpt>
      <trkpt lat="48.74572" lon="4.58809">
        <ele>100.11</ele>
        <time>2021-08-10T06:32:34Z</time>
      </trkpt>
      <trkpt lat="48.74577" lon="4.58786">
        <ele>100.11</ele>
        <time>2021-08-10T06:32:37Z</time>
      </trkpt>
      <trkpt lat="48.74579" lon="4.58772">
        <ele>100.11</ele>
        <time>2021-08-10T06:32:39Z</time>
      </trkpt>
      <trkpt lat="48.7458" lon="4.58763">
        <ele>100.11</ele>
        <time>2021-08-10T06:32:40Z</time>
      </trkpt>
      <trkpt lat="48.74581" lon="4.58728">
        <ele>101.08</ele>
        <time>2021-08-10T06:32:45Z</time>
      </trkpt>
      <trkpt lat="48.74583" lon="4.58665">
        <ele>101.56</ele>
        <time>2021-08-10T06:32:55Z</time>
      </trkpt>
      <trkpt lat="48.7458" lon="4.5866">
        <ele>102.04</ele>
        <time>2021-08-10T06:32:56Z</time>
      </trkpt>
      <trkpt lat="48.74577" lon="4.58658">
        <ele>102.04</ele>
        <time>2021-08-10T06:32:57Z</time>
      </trkpt>
      <trkpt lat="48.74573" lon="4.58656">
        <ele>102.52</ele>
        <time>2021-08-10T06:32:58Z</time>
      </trkpt>
      <trkpt lat="48.7457" lon="4.58655">
        <ele>102.52</ele>
        <time>2021-08-10T06:32:59Z</time>
      </trkpt>
      <trkpt lat="48.74565" lon="4.58653">
        <ele>102.52</ele>
        <time>2021-08-10T06:33:00Z</time>
      </trkpt>
      <trkpt lat="48.74528" lon="4.58636">
        <ele>102.52</ele>
        <time>2021-08-10T06:33:08Z</time>
      </trkpt>
      <trkpt lat="48.74524" lon="4.58634">
        <ele>102.52</ele>
        <time>2021-08-10T06:33:09Z</time>
      </trkpt>
      <trkpt lat="48.74494" lon="4.58619">
        <ele>101.08</ele>
        <time>2021-08-10T06:33:15Z</time>
      </trkpt>
      <trkpt lat="48.74491" lon="4.58614">
        <ele>100.6</ele>
        <time>2021-08-10T06:33:16Z</time>
      </trkpt>
      <trkpt lat="48.74471" lon="4.58585">
        <ele>100.6</ele>
        <time>2021-08-10T06:33:23Z</time>
      </trkpt>
      <trkpt lat="48.74468" lon="4.58581">
        <ele>100.6</ele>
        <time>2021-08-10T06:33:24Z</time>
      </trkpt>
      <trkpt lat="48.74465" lon="4.58578">
        <ele>100.6</ele>
        <time>2021-08-10T06:33:25Z</time>
      </trkpt>
      <trkpt lat="48.74458" lon="4.58572">
        <ele>100.6</ele>
        <time>2021-08-10T06:33:27Z</time>
      </trkpt>
      <trkpt lat="48.74437" lon="4.58554">
        <ele>102.04</ele>
        <time>2021-08-10T06:33:33Z</time>
      </trkpt>
      <trkpt lat="48.74408" lon="4.58532">
        <ele>102.52</ele>
        <time>2021-08-10T06:33:41Z</time>
      </trkpt>
      <trkpt lat="48.74404" lon="4.5853">
        <ele>102.52</ele>
        <time>2021-08-10T06:33:42Z</time>
      </trkpt>
      <trkpt lat="48.744" lon="4.58528">
        <ele>102.52</ele>
        <time>2021-08-10T06:33:43Z</time>
      </trkpt>
      <trkpt lat="48.74396" lon="4.58527">
        <ele>102.52</ele>
        <time>2021-08-10T06:33:44Z</time>
      </trkpt>
      <trkpt lat="48.74392" lon="4.58526">
        <ele>103</ele>
        <time>2021-08-10T06:33:45Z</time>
      </trkpt>
      <trkpt lat="48.74387" lon="4.58526">
        <ele>103</ele>
        <time>2021-08-10T06:33:46Z</time>
      </trkpt>
      <trkpt lat="48.74351" lon="4.58527">
        <ele>103</ele>
        <time>2021-08-10T06:33:54Z</time>
      </trkpt>
      <trkpt lat="48.74342" lon="4.58526">
        <ele>103</ele>
        <time>2021-08-10T06:33:56Z</time>
      </trkpt>
      <trkpt lat="48.74338" lon="4.58524">
        <ele>103</ele>
        <time>2021-08-10T06:33:57Z</time>
      </trkpt>
      <trkpt lat="48.74334" lon="4.58522">
        <ele>103</ele>
        <time>2021-08-10T06:33:58Z</time>
      </trkpt>
      <trkpt lat="48.74324" lon="4.58513">
        <ele>103.96</ele>
        <time>2021-08-10T06:34:02Z</time>
      </trkpt>
      <trkpt lat="48.74323" lon="4.58509">
        <ele>103.96</ele>
        <time>2021-08-10T06:34:03Z</time>
      </trkpt>
      <trkpt lat="48.74323" lon="4.58504">
        <ele>104.44</ele>
        <time>2021-08-10T06:34:04Z</time>
      </trkpt>
      <trkpt lat="48.74323" lon="4.585">
        <ele>104.44</ele>
        <time>2021-08-10T06:34:05Z</time>
      </trkpt>
      <trkpt lat="48.74323" lon="4.58494">
        <ele>104.44</ele>
        <time>2021-08-10T06:34:06Z</time>
      </trkpt>
      <trkpt lat="48.74322" lon="4.58482">
        <ele>104.44</ele>
        <time>2021-08-10T06:34:09Z</time>
      </trkpt>
      <trkpt lat="48.74319" lon="4.5848">
        <ele>104.44</ele>
        <time>2021-08-10T06:34:10Z</time>
      </trkpt>
      <trkpt lat="48.74315" lon="4.58479">
        <ele>104.44</ele>
        <time>2021-08-10T06:34:11Z</time>
      </trkpt>
      <trkpt lat="48.74313" lon="4.5848">
        <ele>104.44</ele>
        <time>2021-08-10T06:34:12Z</time>
      </trkpt>
      <trkpt lat="48.7431" lon="4.5848">
        <ele>104.44</ele>
        <time>2021-08-10T06:34:13Z</time>
      </trkpt>
      <trkpt lat="48.74306" lon="4.5848">
        <ele>104.44</ele>
        <time>2021-08-10T06:34:14Z</time>
      </trkpt>
      <trkpt lat="48.74275" lon="4.58482">
        <ele>103.48</ele>
        <time>2021-08-10T06:34:22Z</time>
      </trkpt>
      <trkpt lat="48.74236" lon="4.58481">
        <ele>103.48</ele>
        <time>2021-08-10T06:34:31Z</time>
      </trkpt>
      <trkpt lat="48.74232" lon="4.5848">
        <ele>103.48</ele>
        <time>2021-08-10T06:34:32Z</time>
      </trkpt>
      <trkpt lat="48.74227" lon="4.5848">
        <ele>103.48</ele>
        <time>2021-08-10T06:34:33Z</time>
      </trkpt>
      <trkpt lat="48.74223" lon="4.5848">
        <ele>103.48</ele>
        <time>2021-08-10T06:34:34Z</time>
      </trkpt>
      <trkpt lat="48.74218" lon="4.58482">
        <ele>103.48</ele>
        <time>2021-08-10T06:34:35Z</time>
      </trkpt>
      <trkpt lat="48.74212" lon="4.58486">
        <ele>103.48</ele>
        <time>2021-08-10T06:34:36Z</time>
      </trkpt>
      <trkpt lat="48.74201" lon="4.58486">
        <ele>103.48</ele>
        <time>2021-08-10T06:34:39Z</time>
      </trkpt>
      <trkpt lat="48.74185" lon="4.58487">
        <ele>103.48</ele>
        <time>2021-08-10T06:34:44Z</time>
      </trkpt>
      <trkpt lat="48.74144" lon="4.58483">
        <ele>103.48</ele>
        <time>2021-08-10T06:34:54Z</time>
      </trkpt>
      <trkpt lat="48.74113" lon="4.58481">
        <ele>103.48</ele>
        <time>2021-08-10T06:35:01Z</time>
      </trkpt>
      <trkpt lat="48.74078" lon="4.5848">
        <ele>103.48</ele>
        <time>2021-08-10T06:35:08Z</time>
      </trkpt>
      <trkpt lat="48.74046" lon="4.58481">
        <ele>103.48</ele>
        <time>2021-08-10T06:35:15Z</time>
      </trkpt>
      <trkpt lat="48.74042" lon="4.58481">
        <ele>103.48</ele>
        <time>2021-08-10T06:35:16Z</time>
      </trkpt>
      <trkpt lat="48.73996" lon="4.5848">
        <ele>103</ele>
        <time>2021-08-10T06:35:25Z</time>
      </trkpt>
      <trkpt lat="48.73951" lon="4.58481">
        <ele>103</ele>
        <time>2021-08-10T06:35:34Z</time>
      </trkpt>
      <trkpt lat="48.73913" lon="4.5848">
        <ele>103</ele>
        <time>2021-08-10T06:35:42Z</time>
      </trkpt>
      <trkpt lat="48.73876" lon="4.58478">
        <ele>103</ele>
        <time>2021-08-10T06:35:50Z</time>
      </trkpt>
      <trkpt lat="48.73836" lon="4.58477">
        <ele>103</ele>
        <time>2021-08-10T06:35:59Z</time>
      </trkpt>
      <trkpt lat="48.73809" lon="4.58477">
        <ele>103</ele>
        <time>2021-08-10T06:36:05Z</time>
      </trkpt>
      <trkpt lat="48.73758" lon="4.58476">
        <ele>103</ele>
        <time>2021-08-10T06:36:16Z</time>
      </trkpt>
      <trkpt lat="48.73717" lon="4.58476">
        <ele>103</ele>
        <time>2021-08-10T06:36:25Z</time>
      </trkpt>
      <trkpt lat="48.73678" lon="4.58474">
        <ele>103.48</ele>
        <time>2021-08-10T06:36:33Z</time>
      </trkpt>
      <trkpt lat="48.7364" lon="4.58473">
        <ele>103.48</ele>
        <time>2021-08-10T06:36:41Z</time>
      </trkpt>
      <trkpt lat="48.7361" lon="4.58471">
        <ele>103.48</ele>
        <time>2021-08-10T06:36:48Z</time>
      </trkpt>
      <trkpt lat="48.73573" lon="4.58471">
        <ele>103.48</ele>
        <time>2021-08-10T06:36:56Z</time>
      </trkpt>
      <trkpt lat="48.73548" lon="4.5847">
        <ele>103.48</ele>
        <time>2021-08-10T06:37:02Z</time>
      </trkpt>
      <trkpt lat="48.7352" lon="4.5847">
        <ele>103.48</ele>
        <time>2021-08-10T06:37:08Z</time>
      </trkpt>
      <trkpt lat="48.73516" lon="4.5847">
        <ele>103.48</ele>
        <time>2021-08-10T06:37:09Z</time>
      </trkpt>
      <trkpt lat="48.7349" lon="4.58468">
        <ele>103.48</ele>
        <time>2021-08-10T06:37:15Z</time>
      </trkpt>
      <trkpt lat="48.73485" lon="4.58467">
        <ele>103.48</ele>
        <time>2021-08-10T06:37:16Z</time>
      </trkpt>
      <trkpt lat="48.73451" lon="4.58465">
        <ele>103.48</ele>
        <time>2021-08-10T06:37:23Z</time>
      </trkpt>
      <trkpt lat="48.73446" lon="4.58466">
        <ele>103.48</ele>
        <time>2021-08-10T06:37:24Z</time>
      </trkpt>
      <trkpt lat="48.73442" lon="4.58466">
        <ele>103.48</ele>
        <time>2021-08-10T06:37:25Z</time>
      </trkpt>
      <trkpt lat="48.73417" lon="4.58464">
        <ele>103.48</ele>
        <time>2021-08-10T06:37:30Z</time>
      </trkpt>
      <trkpt lat="48.73369" lon="4.58464">
        <ele>103</ele>
        <time>2021-08-10T06:37:40Z</time>
      </trkpt>
      <trkpt lat="48.7336" lon="4.58465">
        <ele>103</ele>
        <time>2021-08-10T06:37:42Z</time>
      </trkpt>
      <trkpt lat="48.73356" lon="4.58466">
        <ele>103</ele>
        <time>2021-08-10T06:37:43Z</time>
      </trkpt>
      <trkpt lat="48.73352" lon="4.58466">
        <ele>103</ele>
        <time>2021-08-10T06:37:44Z</time>
      </trkpt>
      <trkpt lat="48.73339" lon="4.58469">
        <ele>103</ele>
        <time>2021-08-10T06:37:48Z</time>
      </trkpt>
      <trkpt lat="48.73338" lon="4.58471">
        <ele>103</ele>
        <time>2021-08-10T06:37:49Z</time>
      </trkpt>
      <trkpt lat="48.73338" lon="4.58474">
        <ele>103</ele>
        <time>2021-08-10T06:37:50Z</time>
      </trkpt>
      <trkpt lat="48.73339" lon="4.58478">
        <ele>103</ele>
        <time>2021-08-10T06:37:51Z</time>
      </trkpt>
      <trkpt lat="48.73339" lon="4.58482">
        <ele>103</ele>
        <time>2021-08-10T06:37:52Z</time>
      </trkpt>
      <trkpt lat="48.73339" lon="4.58486">
        <ele>103</ele>
        <time>2021-08-10T06:37:53Z</time>
      </trkpt>
      <trkpt lat="48.73337" lon="4.5849">
        <ele>103</ele>
        <time>2021-08-10T06:37:54Z</time>
      </trkpt>
      <trkpt lat="48.73335" lon="4.58491">
        <ele>103</ele>
        <time>2021-08-10T06:37:55Z</time>
      </trkpt>
      <trkpt lat="48.73332" lon="4.5849">
        <ele>103</ele>
        <time>2021-08-10T06:37:56Z</time>
      </trkpt>
      <trkpt lat="48.7333" lon="4.5849">
        <ele>103</ele>
        <time>2021-08-10T06:37:57Z</time>
      </trkpt>
      <trkpt lat="48.73326" lon="4.5849">
        <ele>103</ele>
        <time>2021-08-10T06:37:58Z</time>
      </trkpt>
      <trkpt lat="48.73305" lon="4.58489">
        <ele>103</ele>
        <time>2021-08-10T06:38:04Z</time>
      </trkpt>
      <trkpt lat="48.7328" lon="4.58484">
        <ele>103</ele>
        <time>2021-08-10T06:38:11Z</time>
      </trkpt>
      <trkpt lat="48.73276" lon="4.58485">
        <ele>103</ele>
        <time>2021-08-10T06:38:12Z</time>
      </trkpt>
      <trkpt lat="48.73273" lon="4.58488">
        <ele>103</ele>
        <time>2021-08-10T06:38:13Z</time>
      </trkpt>
      <trkpt lat="48.73271" lon="4.5849">
        <ele>103</ele>
        <time>2021-08-10T06:38:14Z</time>
      </trkpt>
      <trkpt lat="48.73269" lon="4.58494">
        <ele>103</ele>
        <time>2021-08-10T06:38:15Z</time>
      </trkpt>
      <trkpt lat="48.73265" lon="4.58498">
        <ele>103</ele>
        <time>2021-08-10T06:38:16Z</time>
      </trkpt>
      <trkpt lat="48.73262" lon="4.585">
        <ele>103</ele>
        <time>2021-08-10T06:38:17Z</time>
      </trkpt>
      <trkpt lat="48.73258" lon="4.58501">
        <ele>103</ele>
        <time>2021-08-10T06:38:18Z</time>
      </trkpt>
      <trkpt lat="48.73255" lon="4.58502">
        <ele>103</ele>
        <time>2021-08-10T06:38:19Z</time>
      </trkpt>
      <trkpt lat="48.73251" lon="4.58503">
        <ele>103</ele>
        <time>2021-08-10T06:38:20Z</time>
      </trkpt>
      <trkpt lat="48.73247" lon="4.58503">
        <ele>103</ele>
        <time>2021-08-10T06:38:21Z</time>
      </trkpt>
      <trkpt lat="48.73243" lon="4.58503">
        <ele>103</ele>
        <time>2021-08-10T06:38:22Z</time>
      </trkpt>
      <trkpt lat="48.73199" lon="4.58511">
        <ele>103</ele>
        <time>2021-08-10T06:38:32Z</time>
      </trkpt>
      <trkpt lat="48.73191" lon="4.58513">
        <ele>103</ele>
        <time>2021-08-10T06:38:34Z</time>
      </trkpt>
      <trkpt lat="48.73187" lon="4.58512">
        <ele>103</ele>
        <time>2021-08-10T06:38:35Z</time>
      </trkpt>
      <trkpt lat="48.73184" lon="4.58511">
        <ele>103</ele>
        <time>2021-08-10T06:38:36Z</time>
      </trkpt>
      <trkpt lat="48.73179" lon="4.5851">
        <ele>103</ele>
        <time>2021-08-10T06:38:37Z</time>
      </trkpt>
      <trkpt lat="48.73175" lon="4.58509">
        <ele>103</ele>
        <time>2021-08-10T06:38:38Z</time>
      </trkpt>
      <trkpt lat="48.73167" lon="4.58508">
        <ele>103</ele>
        <time>2021-08-10T06:38:40Z</time>
      </trkpt>
      <trkpt lat="48.73164" lon="4.58508">
        <ele>103</ele>
        <time>2021-08-10T06:38:41Z</time>
      </trkpt>
      <trkpt lat="48.73156" lon="4.58512">
        <ele>103</ele>
        <time>2021-08-10T06:38:43Z</time>
      </trkpt>
      <trkpt lat="48.73118" lon="4.58532">
        <ele>103</ele>
        <time>2021-08-10T06:38:52Z</time>
      </trkpt>
      <trkpt lat="48.73075" lon="4.5856">
        <ele>103</ele>
        <time>2021-08-10T06:39:03Z</time>
      </trkpt>
      <trkpt lat="48.73054" lon="4.58581">
        <ele>103</ele>
        <time>2021-08-10T06:39:10Z</time>
      </trkpt>
      <trkpt lat="48.73044" lon="4.586">
        <ele>103</ele>
        <time>2021-08-10T06:39:14Z</time>
      </trkpt>
      <trkpt lat="48.7304" lon="4.58605">
        <ele>103</ele>
        <time>2021-08-10T06:39:15Z</time>
      </trkpt>
      <trkpt lat="48.73036" lon="4.58607">
        <ele>103</ele>
        <time>2021-08-10T06:39:16Z</time>
      </trkpt>
      <trkpt lat="48.73032" lon="4.58607">
        <ele>103</ele>
        <time>2021-08-10T06:39:17Z</time>
      </trkpt>
      <trkpt lat="48.73029" lon="4.58606">
        <ele>103</ele>
        <time>2021-08-10T06:39:18Z</time>
      </trkpt>
      <trkpt lat="48.73024" lon="4.58604">
        <ele>103</ele>
        <time>2021-08-10T06:39:19Z</time>
      </trkpt>
      <trkpt lat="48.7302" lon="4.58603">
        <ele>103</ele>
        <time>2021-08-10T06:39:20Z</time>
      </trkpt>
      <trkpt lat="48.73003" lon="4.58593">
        <ele>103</ele>
        <time>2021-08-10T06:39:24Z</time>
      </trkpt>
      <trkpt lat="48.72975" lon="4.58566">
        <ele>103</ele>
        <time>2021-08-10T06:39:32Z</time>
      </trkpt>
      <trkpt lat="48.72967" lon="4.58554">
        <ele>103.96</ele>
        <time>2021-08-10T06:39:38Z</time>
      </trkpt>
      <trkpt lat="48.72967" lon="4.58555">
        <ele>103.96</ele>
        <time>2021-08-10T06:39:40Z</time>
      </trkpt>
      <trkpt lat="48.72966" lon="4.58555">
        <ele>103.96</ele>
        <time>2021-08-10T06:39:44Z</time>
      </trkpt>
      <trkpt lat="48.72969" lon="4.58557">
        <ele>103.96</ele>
        <time>2021-08-10T06:40:04Z</time>
      </trkpt>
      <trkpt lat="48.72968" lon="4.58556">
        <ele>103.96</ele>
        <time>2021-08-10T06:40:15Z</time>
      </trkpt>
      <trkpt lat="48.72954" lon="4.58546">
        <ele>103.96</ele>
        <time>2021-08-10T06:40:21Z</time>
      </trkpt>
      <trkpt lat="48.7294" lon="4.58547">
        <ele>103.96</ele>
        <time>2021-08-10T06:40:25Z</time>
      </trkpt>
      <trkpt lat="48.72938" lon="4.5855">
        <ele>103.96</ele>
        <time>2021-08-10T06:40:26Z</time>
      </trkpt>
      <trkpt lat="48.72936" lon="4.58554">
        <ele>103.96</ele>
        <time>2021-08-10T06:40:27Z</time>
      </trkpt>
      <trkpt lat="48.72934" lon="4.58556">
        <ele>103.96</ele>
        <time>2021-08-10T06:40:28Z</time>
      </trkpt>
      <trkpt lat="48.72931" lon="4.58556">
        <ele>103.96</ele>
        <time>2021-08-10T06:40:29Z</time>
      </trkpt>
      <trkpt lat="48.72927" lon="4.58556">
        <ele>103.96</ele>
        <time>2021-08-10T06:40:30Z</time>
      </trkpt>
      <trkpt lat="48.72924" lon="4.58557">
        <ele>103.96</ele>
        <time>2021-08-10T06:40:31Z</time>
      </trkpt>
      <trkpt lat="48.72922" lon="4.58558">
        <ele>103.96</ele>
        <time>2021-08-10T06:40:32Z</time>
      </trkpt>
      <trkpt lat="48.7292" lon="4.5856">
        <ele>104.92</ele>
        <time>2021-08-10T06:40:33Z</time>
      </trkpt>
      <trkpt lat="48.72918" lon="4.58562">
        <ele>104.92</ele>
        <time>2021-08-10T06:40:34Z</time>
      </trkpt>
      <trkpt lat="48.72917" lon="4.58566">
        <ele>104.92</ele>
        <time>2021-08-10T06:40:40Z</time>
      </trkpt>
      <trkpt lat="48.72918" lon="4.58568">
        <ele>104.92</ele>
        <time>2021-08-10T06:40:51Z</time>
      </trkpt>
      <trkpt lat="48.72926" lon="4.58591">
        <ele>104.92</ele>
        <time>2021-08-10T06:41:07Z</time>
      </trkpt>
      <trkpt lat="48.72944" lon="4.58608">
        <ele>104.92</ele>
        <time>2021-08-10T06:41:26Z</time>
      </trkpt>
      <trkpt lat="48.72941" lon="4.58612">
        <ele>104.92</ele>
        <time>2021-08-10T06:41:41Z</time>
      </trkpt>
      <trkpt lat="48.72934" lon="4.58606">
        <ele>105.4</ele>
        <time>2021-08-10T06:41:59Z</time>
      </trkpt>
      <trkpt lat="48.72938" lon="4.58603">
        <ele>105.4</ele>
        <time>2021-08-10T06:42:15Z</time>
      </trkpt>
      <trkpt lat="48.72938" lon="4.586">
        <ele>105.4</ele>
        <time>2021-08-10T06:42:27Z</time>
      </trkpt>
      <trkpt lat="48.72938" lon="4.58599">
        <ele>105.4</ele>
        <time>2021-08-10T06:42:42Z</time>
      </trkpt>
      <trkpt lat="48.72942" lon="4.58612">
        <ele>105.4</ele>
        <time>2021-08-10T06:42:55Z</time>
      </trkpt>
      <trkpt lat="48.72942" lon="4.58614">
        <ele>105.88</ele>
        <time>2021-08-10T06:43:08Z</time>
      </trkpt>
      <trkpt lat="48.72941" lon="4.58607">
        <ele>105.88</ele>
        <time>2021-08-10T06:43:25Z</time>
      </trkpt>
      <trkpt lat="48.7294" lon="4.58609">
        <ele>105.88</ele>
        <time>2021-08-10T06:43:43Z</time>
      </trkpt>
      <trkpt lat="48.72945" lon="4.58615">
        <ele>106.36</ele>
        <time>2021-08-10T06:44:00Z</time>
      </trkpt>
      <trkpt lat="48.72945" lon="4.58603">
        <ele>106.36</ele>
        <time>2021-08-10T06:44:12Z</time>
      </trkpt>
      <trkpt lat="48.72945" lon="4.58589">
        <ele>106.36</ele>
        <time>2021-08-10T06:44:13Z</time>
      </trkpt>
      <trkpt lat="48.7294" lon="4.58583">
        <ele>106.36</ele>
        <time>2021-08-10T06:44:14Z</time>
      </trkpt>
      <trkpt lat="48.72937" lon="4.58579">
        <ele>106.36</ele>
        <time>2021-08-10T06:44:15Z</time>
      </trkpt>
      <trkpt lat="48.72938" lon="4.58574">
        <ele>106.36</ele>
        <time>2021-08-10T06:44:17Z</time>
      </trkpt>
      <trkpt lat="48.72938" lon="4.58545">
        <ele>106.36</ele>
        <time>2021-08-10T06:44:22Z</time>
      </trkpt>
      <trkpt lat="48.72941" lon="4.58548">
        <ele>106.36</ele>
        <time>2021-08-10T06:44:23Z</time>
      </trkpt>
      <trkpt lat="48.72943" lon="4.58552">
        <ele>106.36</ele>
        <time>2021-08-10T06:44:24Z</time>
      </trkpt>
      <trkpt lat="48.72944" lon="4.58554">
        <ele>106.36</ele>
        <time>2021-08-10T06:44:25Z</time>
      </trkpt>
      <trkpt lat="48.72947" lon="4.58557">
        <ele>106.36</ele>
        <time>2021-08-10T06:44:26Z</time>
      </trkpt>
      <trkpt lat="48.72953" lon="4.58561">
        <ele>106.36</ele>
        <time>2021-08-10T06:44:28Z</time>
      </trkpt>
      <trkpt lat="48.72958" lon="4.5856">
        <ele>106.36</ele>
        <time>2021-08-10T06:44:29Z</time>
      </trkpt>
      <trkpt lat="48.72961" lon="4.58557">
        <ele>106.36</ele>
        <time>2021-08-10T06:44:30Z</time>
      </trkpt>
      <trkpt lat="48.72964" lon="4.58554">
        <ele>106.36</ele>
        <time>2021-08-10T06:44:31Z</time>
      </trkpt>
      <trkpt lat="48.72966" lon="4.58548">
        <ele>105.4</ele>
        <time>2021-08-10T06:44:32Z</time>
      </trkpt>
      <trkpt lat="48.72968" lon="4.58541">
        <ele>105.4</ele>
        <time>2021-08-10T06:44:33Z</time>
      </trkpt>
      <trkpt lat="48.72972" lon="4.58527">
        <ele>105.4</ele>
        <time>2021-08-10T06:44:35Z</time>
      </trkpt>
      <trkpt lat="48.72989" lon="4.58485">
        <ele>104.44</ele>
        <time>2021-08-10T06:44:41Z</time>
      </trkpt>
      <trkpt lat="48.73017" lon="4.58417">
        <ele>104.44</ele>
        <time>2021-08-10T06:44:50Z</time>
      </trkpt>
      <trkpt lat="48.73042" lon="4.58348">
        <ele>104.44</ele>
        <time>2021-08-10T06:45:00Z</time>
      </trkpt>
      <trkpt lat="48.73043" lon="4.5834">
        <ele>104.44</ele>
        <time>2021-08-10T06:45:01Z</time>
      </trkpt>
      <trkpt lat="48.73044" lon="4.58332">
        <ele>104.44</ele>
        <time>2021-08-10T06:45:02Z</time>
      </trkpt>
      <trkpt lat="48.73043" lon="4.58324">
        <ele>104.44</ele>
        <time>2021-08-10T06:45:03Z</time>
      </trkpt>
      <trkpt lat="48.7304" lon="4.583">
        <ele>104.44</ele>
        <time>2021-08-10T06:45:06Z</time>
      </trkpt>
      <trkpt lat="48.73038" lon="4.58293">
        <ele>104.44</ele>
        <time>2021-08-10T06:45:07Z</time>
      </trkpt>
      <trkpt lat="48.73035" lon="4.58286">
        <ele>104.44</ele>
        <time>2021-08-10T06:45:08Z</time>
      </trkpt>
      <trkpt lat="48.73031" lon="4.5828">
        <ele>104.44</ele>
        <time>2021-08-10T06:45:09Z</time>
      </trkpt>
      <trkpt lat="48.73028" lon="4.58274">
        <ele>104.44</ele>
        <time>2021-08-10T06:45:10Z</time>
      </trkpt>
      <trkpt lat="48.73024" lon="4.58269">
        <ele>104.44</ele>
        <time>2021-08-10T06:45:11Z</time>
      </trkpt>
      <trkpt lat="48.73019" lon="4.58264">
        <ele>104.44</ele>
        <time>2021-08-10T06:45:12Z</time>
      </trkpt>
      <trkpt lat="48.73014" lon="4.5826">
        <ele>104.44</ele>
        <time>2021-08-10T06:45:13Z</time>
      </trkpt>
      <trkpt lat="48.73009" lon="4.58257">
        <ele>104.44</ele>
        <time>2021-08-10T06:45:14Z</time>
      </trkpt>
      <trkpt lat="48.73004" lon="4.58254">
        <ele>104.44</ele>
        <time>2021-08-10T06:45:15Z</time>
      </trkpt>
      <trkpt lat="48.72944" lon="4.58224">
        <ele>103</ele>
        <time>2021-08-10T06:45:25Z</time>
      </trkpt>
      <trkpt lat="48.7289" lon="4.58199">
        <ele>102.52</ele>
        <time>2021-08-10T06:45:34Z</time>
      </trkpt>
      <trkpt lat="48.72845" lon="4.58184">
        <ele>102.52</ele>
        <time>2021-08-10T06:45:41Z</time>
      </trkpt>
      <trkpt lat="48.72789" lon="4.5817">
        <ele>102.04</ele>
        <time>2021-08-10T06:45:50Z</time>
      </trkpt>
      <trkpt lat="48.7274" lon="4.58153">
        <ele>102.04</ele>
        <time>2021-08-10T06:45:58Z</time>
      </trkpt>
      <trkpt lat="48.72734" lon="4.58146">
        <ele>102.04</ele>
        <time>2021-08-10T06:45:59Z</time>
      </trkpt>
      <trkpt lat="48.72732" lon="4.58141">
        <ele>102.04</ele>
        <time>2021-08-10T06:46:00Z</time>
      </trkpt>
      <trkpt lat="48.72728" lon="4.58133">
        <ele>102.04</ele>
        <time>2021-08-10T06:46:01Z</time>
      </trkpt>
      <trkpt lat="48.72725" lon="4.58125">
        <ele>102.04</ele>
        <time>2021-08-10T06:46:02Z</time>
      </trkpt>
      <trkpt lat="48.72722" lon="4.5812">
        <ele>103.48</ele>
        <time>2021-08-10T06:46:03Z</time>
      </trkpt>
      <trkpt lat="48.72717" lon="4.58115">
        <ele>103.48</ele>
        <time>2021-08-10T06:46:04Z</time>
      </trkpt>
      <trkpt lat="48.72712" lon="4.58114">
        <ele>103.48</ele>
        <time>2021-08-10T06:46:05Z</time>
      </trkpt>
      <trkpt lat="48.72705" lon="4.58114">
        <ele>103.48</ele>
        <time>2021-08-10T06:46:06Z</time>
      </trkpt>
      <trkpt lat="48.72699" lon="4.58115">
        <ele>103.48</ele>
        <time>2021-08-10T06:46:07Z</time>
      </trkpt>
      <trkpt lat="48.72688" lon="4.58115">
        <ele>103.48</ele>
        <time>2021-08-10T06:46:09Z</time>
      </trkpt>
      <trkpt lat="48.7267" lon="4.58111">
        <ele>102.04</ele>
        <time>2021-08-10T06:46:12Z</time>
      </trkpt>
      <trkpt lat="48.72664" lon="4.58108">
        <ele>102.04</ele>
        <time>2021-08-10T06:46:13Z</time>
      </trkpt>
      <trkpt lat="48.72658" lon="4.58104">
        <ele>102.04</ele>
        <time>2021-08-10T06:46:14Z</time>
      </trkpt>
      <trkpt lat="48.72647" lon="4.58096">
        <ele>102.04</ele>
        <time>2021-08-10T06:46:16Z</time>
      </trkpt>
      <trkpt lat="48.72643" lon="4.58091">
        <ele>102.04</ele>
        <time>2021-08-10T06:46:17Z</time>
      </trkpt>
      <trkpt lat="48.72638" lon="4.58084">
        <ele>102.04</ele>
        <time>2021-08-10T06:46:18Z</time>
      </trkpt>
      <trkpt lat="48.72594" lon="4.58024">
        <ele>102.04</ele>
        <time>2021-08-10T06:46:28Z</time>
      </trkpt>
      <trkpt lat="48.72568" lon="4.5799">
        <ele>103</ele>
        <time>2021-08-10T06:46:35Z</time>
      </trkpt>
      <trkpt lat="48.72552" lon="4.57976">
        <ele>103.48</ele>
        <time>2021-08-10T06:46:42Z</time>
      </trkpt>
      <trkpt lat="48.72545" lon="4.57972">
        <ele>103.48</ele>
        <time>2021-08-10T06:46:46Z</time>
      </trkpt>
      <trkpt lat="48.72544" lon="4.57973">
        <ele>103.96</ele>
        <time>2021-08-10T06:46:47Z</time>
      </trkpt>
      <trkpt lat="48.72543" lon="4.57975">
        <ele>103.96</ele>
        <time>2021-08-10T06:46:48Z</time>
      </trkpt>
      <trkpt lat="48.72542" lon="4.57977">
        <ele>103.96</ele>
        <time>2021-08-10T06:46:49Z</time>
      </trkpt>
      <trkpt lat="48.72542" lon="4.5798">
        <ele>103.96</ele>
        <time>2021-08-10T06:46:50Z</time>
      </trkpt>
      <trkpt lat="48.72542" lon="4.57983">
        <ele>103.48</ele>
        <time>2021-08-10T06:46:51Z</time>
      </trkpt>
      <trkpt lat="48.72542" lon="4.57986">
        <ele>103.48</ele>
        <time>2021-08-10T06:46:52Z</time>
      </trkpt>
      <trkpt lat="48.72542" lon="4.57991">
        <ele>103.96</ele>
        <time>2021-08-10T06:46:54Z</time>
      </trkpt>
      <trkpt lat="48.72541" lon="4.57993">
        <ele>103.96</ele>
        <time>2021-08-10T06:46:55Z</time>
      </trkpt>
      <trkpt lat="48.72541" lon="4.57995">
        <ele>103.96</ele>
        <time>2021-08-10T06:46:56Z</time>
      </trkpt>
      <trkpt lat="48.72542" lon="4.57996">
        <ele>103.96</ele>
        <time>2021-08-10T06:46:57Z</time>
      </trkpt>
      <trkpt lat="48.72543" lon="4.57994">
        <ele>103.96</ele>
        <time>2021-08-10T06:46:58Z</time>
      </trkpt>
      <trkpt lat="48.72543" lon="4.57992">
        <ele>103.96</ele>
        <time>2021-08-10T06:46:59Z</time>
      </trkpt>
      <trkpt lat="48.72543" lon="4.57989">
        <ele>103.96</ele>
        <time>2021-08-10T06:47:00Z</time>
      </trkpt>
      <trkpt lat="48.72544" lon="4.57987">
        <ele>103.96</ele>
        <time>2021-08-10T06:47:01Z</time>
      </trkpt>
      <trkpt lat="48.72544" lon="4.57984">
        <ele>103.96</ele>
        <time>2021-08-10T06:47:02Z</time>
      </trkpt>
      <trkpt lat="48.72545" lon="4.57982">
        <ele>103.96</ele>
        <time>2021-08-10T06:47:03Z</time>
      </trkpt>
      <trkpt lat="48.72546" lon="4.5798">
        <ele>103.96</ele>
        <time>2021-08-10T06:47:04Z</time>
      </trkpt>
      <trkpt lat="48.72547" lon="4.5798">
        <ele>103.96</ele>
        <time>2021-08-10T06:47:05Z</time>
      </trkpt>
      <trkpt lat="48.72549" lon="4.5798">
        <ele>103.96</ele>
        <time>2021-08-10T06:47:06Z</time>
      </trkpt>
      <trkpt lat="48.7256" lon="4.57992">
        <ele>103.96</ele>
        <time>2021-08-10T06:47:12Z</time>
      </trkpt>
      <trkpt lat="48.72569" lon="4.58001">
        <ele>103.96</ele>
        <time>2021-08-10T06:47:18Z</time>
      </trkpt>
      <trkpt lat="48.72572" lon="4.58">
        <ele>103.96</ele>
        <time>2021-08-10T06:47:19Z</time>
      </trkpt>
      <trkpt lat="48.72572" lon="4.57997">
        <ele>103.96</ele>
        <time>2021-08-10T06:47:20Z</time>
      </trkpt>
      <trkpt lat="48.72571" lon="4.57993">
        <ele>103.96</ele>
        <time>2021-08-10T06:47:21Z</time>
      </trkpt>
      <trkpt lat="48.72569" lon="4.5799">
        <ele>103.96</ele>
        <time>2021-08-10T06:47:22Z</time>
      </trkpt>
      <trkpt lat="48.72568" lon="4.57989">
        <ele>103.96</ele>
        <time>2021-08-10T06:47:23Z</time>
      </trkpt>
      <trkpt lat="48.72566" lon="4.57987">
        <ele>103.96</ele>
        <time>2021-08-10T06:47:24Z</time>
      </trkpt>
      <trkpt lat="48.72565" lon="4.57986">
        <ele>103.96</ele>
        <time>2021-08-10T06:47:25Z</time>
      </trkpt>
      <trkpt lat="48.72565" lon="4.57985">
        <ele>103.96</ele>
        <time>2021-08-10T06:47:26Z</time>
      </trkpt>
      <trkpt lat="48.72565" lon="4.57982">
        <ele>103.96</ele>
        <time>2021-08-10T06:47:28Z</time>
      </trkpt>
      <trkpt lat="48.72565" lon="4.57979">
        <ele>103.96</ele>
        <time>2021-08-10T06:47:30Z</time>
      </trkpt>
      <trkpt lat="48.72565" lon="4.57977">
        <ele>103.96</ele>
        <time>2021-08-10T06:47:31Z</time>
      </trkpt>
      <trkpt lat="48.72564" lon="4.57975">
        <ele>103.96</ele>
        <time>2021-08-10T06:47:32Z</time>
      </trkpt>
      <trkpt lat="48.72563" lon="4.57972">
        <ele>103.96</ele>
        <time>2021-08-10T06:47:33Z</time>
      </trkpt>
      <trkpt lat="48.72561" lon="4.57971">
        <ele>103.96</ele>
        <time>2021-08-10T06:47:34Z</time>
      </trkpt>
      <trkpt lat="48.7256" lon="4.57971">
        <ele>103.96</ele>
        <time>2021-08-10T06:47:35Z</time>
      </trkpt>
      <trkpt lat="48.72559" lon="4.57971">
        <ele>103.96</ele>
        <time>2021-08-10T06:47:36Z</time>
      </trkpt>
      <trkpt lat="48.72559" lon="4.57971">
        <ele>103.96</ele>
        <time>2021-08-10T06:47:42Z</time>
      </trkpt>
      <trkpt lat="48.72558" lon="4.57972">
        <ele>103.96</ele>
        <time>2021-08-10T06:48:00Z</time>
      </trkpt>
      <trkpt lat="48.72555" lon="4.57974">
        <ele>103.96</ele>
        <time>2021-08-10T06:48:18Z</time>
      </trkpt>
      <trkpt lat="48.72554" lon="4.57977">
        <ele>103.96</ele>
        <time>2021-08-10T06:48:32Z</time>
      </trkpt>
      <trkpt lat="48.72553" lon="4.57975">
        <ele>103.96</ele>
        <time>2021-08-10T06:48:52Z</time>
      </trkpt>
      <trkpt lat="48.72553" lon="4.57974">
        <ele>103.96</ele>
        <time>2021-08-10T06:49:10Z</time>
      </trkpt>
      <trkpt lat="48.72555" lon="4.57975">
        <ele>103.96</ele>
        <time>2021-08-10T06:49:23Z</time>
      </trkpt>
      <trkpt lat="48.72555" lon="4.57973">
        <ele>103.96</ele>
        <time>2021-08-10T06:49:37Z</time>
      </trkpt>
      <trkpt lat="48.72556" lon="4.57969">
        <ele>103.96</ele>
        <time>2021-08-10T06:49:53Z</time>
      </trkpt>
      <trkpt lat="48.72558" lon="4.57967">
        <ele>103.96</ele>
        <time>2021-08-10T06:50:10Z</time>
      </trkpt>
      <trkpt lat="48.72559" lon="4.5797">
        <ele>103.96</ele>
        <time>2021-08-10T06:50:26Z</time>
      </trkpt>
      <trkpt lat="48.72559" lon="4.57971">
        <ele>103.96</ele>
        <time>2021-08-10T06:50:40Z</time>
      </trkpt>
      <trkpt lat="48.72559" lon="4.57972">
        <ele>103.96</ele>
        <time>2021-08-10T06:50:51Z</time>
      </trkpt>
      <trkpt lat="48.72557" lon="4.57974">
        <ele>103.96</ele>
        <time>2021-08-10T06:51:07Z</time>
      </trkpt>
      <trkpt lat="48.72557" lon="4.57974">
        <ele>103.96</ele>
        <time>2021-08-10T06:51:19Z</time>
      </trkpt>
      <trkpt lat="48.72558" lon="4.57974">
        <ele>103.96</ele>
        <time>2021-08-10T06:51:35Z</time>
      </trkpt>
      <trkpt lat="48.72558" lon="4.57975">
        <ele>103.96</ele>
        <time>2021-08-10T06:51:51Z</time>
      </trkpt>
      <trkpt lat="48.7256" lon="4.57972">
        <ele>103.96</ele>
        <time>2021-08-10T06:52:07Z</time>
      </trkpt>
      <trkpt lat="48.72561" lon="4.57973">
        <ele>103.96</ele>
        <time>2021-08-10T06:52:23Z</time>
      </trkpt>
      <trkpt lat="48.72561" lon="4.57972">
        <ele>103.96</ele>
        <time>2021-08-10T06:52:35Z</time>
      </trkpt>
      <trkpt lat="48.72562" lon="4.57972">
        <ele>103.96</ele>
        <time>2021-08-10T06:52:49Z</time>
      </trkpt>
      <trkpt lat="48.72561" lon="4.57975">
        <ele>103.96</ele>
        <time>2021-08-10T06:53:08Z</time>
      </trkpt>
      <trkpt lat="48.72558" lon="4.57976">
        <ele>103.96</ele>
        <time>2021-08-10T06:53:23Z</time>
      </trkpt>
      <trkpt lat="48.72558" lon="4.57976">
        <ele>103.96</ele>
        <time>2021-08-10T06:53:39Z</time>
      </trkpt>
      <trkpt lat="48.72557" lon="4.57978">
        <ele>103.96</ele>
        <time>2021-08-10T06:53:57Z</time>
      </trkpt>
      <trkpt lat="48.72557" lon="4.57977">
        <ele>103.96</ele>
        <time>2021-08-10T06:54:11Z</time>
      </trkpt>
      <trkpt lat="48.72558" lon="4.57974">
        <ele>103.96</ele>
        <time>2021-08-10T06:54:27Z</time>
      </trkpt>
      <trkpt lat="48.72558" lon="4.57975">
        <ele>103.96</ele>
        <time>2021-08-10T06:54:45Z</time>
      </trkpt>
      <trkpt lat="48.72556" lon="4.5797">
        <ele>103.96</ele>
        <time>2021-08-10T06:55:06Z</time>
      </trkpt>
      <trkpt lat="48.72557" lon="4.57972">
        <ele>103.96</ele>
        <time>2021-08-10T06:55:20Z</time>
      </trkpt>
      <trkpt lat="48.72561" lon="4.57973">
        <ele>103.96</ele>
        <time>2021-08-10T06:55:43Z</time>
      </trkpt>
      <trkpt lat="48.72562" lon="4.57973">
        <ele>103.96</ele>
        <time>2021-08-10T06:56:04Z</time>
      </trkpt>
      <trkpt lat="48.72561" lon="4.57975">
        <ele>103.96</ele>
        <time>2021-08-10T06:56:19Z</time>
      </trkpt>
      <trkpt lat="48.72561" lon="4.57974">
        <ele>103.96</ele>
        <time>2021-08-10T06:56:37Z</time>
      </trkpt>
      <trkpt lat="48.72561" lon="4.57978">
        <ele>103.48</ele>
        <time>2021-08-10T06:56:54Z</time>
      </trkpt>
      <trkpt lat="48.7256" lon="4.57978">
        <ele>103.48</ele>
        <time>2021-08-10T06:57:09Z</time>
      </trkpt>
      <trkpt lat="48.7256" lon="4.57976">
        <ele>103.48</ele>
        <time>2021-08-10T06:57:25Z</time>
      </trkpt>
      <trkpt lat="48.72562" lon="4.57975">
        <ele>103.48</ele>
        <time>2021-08-10T06:57:35Z</time>
      </trkpt>
      <trkpt lat="48.7256" lon="4.57976">
        <ele>103.48</ele>
        <time>2021-08-10T06:57:51Z</time>
      </trkpt>
      <trkpt lat="48.72562" lon="4.57971">
        <ele>103.48</ele>
        <time>2021-08-10T06:58:15Z</time>
      </trkpt>
      <trkpt lat="48.72559" lon="4.57971">
        <ele>103.48</ele>
        <time>2021-08-10T06:58:34Z</time>
      </trkpt>
      <trkpt lat="48.72556" lon="4.57974">
        <ele>103.96</ele>
        <time>2021-08-10T06:58:54Z</time>
      </trkpt>
      <trkpt lat="48.72554" lon="4.57977">
        <ele>103.96</ele>
        <time>2021-08-10T06:59:15Z</time>
      </trkpt>
      <trkpt lat="48.72553" lon="4.57975">
        <ele>103.96</ele>
        <time>2021-08-10T06:59:27Z</time>
      </trkpt>
      <trkpt lat="48.72551" lon="4.57978">
        <ele>103.96</ele>
        <time>2021-08-10T06:59:32Z</time>
      </trkpt>
      <trkpt lat="48.7255" lon="4.57979">
        <ele>103.96</ele>
        <time>2021-08-10T06:59:33Z</time>
      </trkpt>
      <trkpt lat="48.7255" lon="4.5798">
        <ele>103.96</ele>
        <time>2021-08-10T06:59:38Z</time>
      </trkpt>
      <trkpt lat="48.72551" lon="4.57979">
        <ele>103.96</ele>
        <time>2021-08-10T06:59:52Z</time>
      </trkpt>
      <trkpt lat="48.72551" lon="4.57982">
        <ele>103.96</ele>
        <time>2021-08-10T06:59:56Z</time>
      </trkpt>
      <trkpt lat="48.72554" lon="4.57988">
        <ele>103.96</ele>
        <time>2021-08-10T07:00:02Z</time>
      </trkpt>
      <trkpt lat="48.72559" lon="4.57994">
        <ele>103.96</ele>
        <time>2021-08-10T07:00:11Z</time>
      </trkpt>
      <trkpt lat="48.72558" lon="4.57994">
        <ele>103.96</ele>
        <time>2021-08-10T07:00:20Z</time>
      </trkpt>
      <trkpt lat="48.72556" lon="4.57991">
        <ele>103.96</ele>
        <time>2021-08-10T07:00:26Z</time>
      </trkpt>
      <trkpt lat="48.72557" lon="4.57988">
        <ele>103.96</ele>
        <time>2021-08-10T07:00:39Z</time>
      </trkpt>
      <trkpt lat="48.72554" lon="4.57986">
        <ele>103.96</ele>
        <time>2021-08-10T07:00:51Z</time>
      </trkpt>
      <trkpt lat="48.72554" lon="4.57984">
        <ele>103.96</ele>
        <time>2021-08-10T07:01:02Z</time>
      </trkpt>
      <trkpt lat="48.72553" lon="4.57979">
        <ele>103.96</ele>
        <time>2021-08-10T07:01:15Z</time>
      </trkpt>
      <trkpt lat="48.72555" lon="4.57982">
        <ele>103.96</ele>
        <time>2021-08-10T07:01:26Z</time>
      </trkpt>
      <trkpt lat="48.72555" lon="4.5798">
        <ele>103.96</ele>
        <time>2021-08-10T07:01:31Z</time>
      </trkpt>
      <trkpt lat="48.72556" lon="4.57979">
        <ele>103.96</ele>
        <time>2021-08-10T07:01:39Z</time>
      </trkpt>
      <trkpt lat="48.72562" lon="4.57987">
        <ele>103.96</ele>
        <time>2021-08-10T07:01:46Z</time>
      </trkpt>
      <trkpt lat="48.72563" lon="4.5799">
        <ele>104.44</ele>
        <time>2021-08-10T07:01:56Z</time>
      </trkpt>
      <trkpt lat="48.72565" lon="4.5799">
        <ele>104.44</ele>
        <time>2021-08-10T07:02:12Z</time>
      </trkpt>
      <trkpt lat="48.72563" lon="4.57989">
        <ele>104.44</ele>
        <time>2021-08-10T07:02:20Z</time>
      </trkpt>
      <trkpt lat="48.72562" lon="4.5799">
        <ele>104.44</ele>
        <time>2021-08-10T07:02:31Z</time>
      </trkpt>
      <trkpt lat="48.7256" lon="4.57989">
        <ele>104.44</ele>
        <time>2021-08-10T07:02:41Z</time>
      </trkpt>
      <trkpt lat="48.72558" lon="4.5799">
        <ele>104.44</ele>
        <time>2021-08-10T07:02:50Z</time>
      </trkpt>
      <trkpt lat="48.72561" lon="4.57988">
        <ele>104.44</ele>
        <time>2021-08-10T07:03:01Z</time>
      </trkpt>
      <trkpt lat="48.72571" lon="4.57979">
        <ele>104.44</ele>
        <time>2021-08-10T07:03:20Z</time>
      </trkpt>
      <trkpt lat="48.72573" lon="4.57977">
        <ele>104.44</ele>
        <time>2021-08-10T07:03:35Z</time>
      </trkpt>
      <trkpt lat="48.72575" lon="4.57967">
        <ele>104.92</ele>
        <time>2021-08-10T07:03:52Z</time>
      </trkpt>
      <trkpt lat="48.72582" lon="4.57959">
        <ele>104.92</ele>
        <time>2021-08-10T07:04:08Z</time>
      </trkpt>
      <trkpt lat="48.72581" lon="4.57955">
        <ele>104.92</ele>
        <time>2021-08-10T07:04:23Z</time>
      </trkpt>
      <trkpt lat="48.72579" lon="4.57954">
        <ele>105.4</ele>
        <time>2021-08-10T07:04:34Z</time>
      </trkpt>
      <trkpt lat="48.72566" lon="4.57956">
        <ele>105.4</ele>
        <time>2021-08-10T07:04:52Z</time>
      </trkpt>
      <trkpt lat="48.72566" lon="4.57958">
        <ele>105.88</ele>
        <time>2021-08-10T07:05:06Z</time>
      </trkpt>
      <trkpt lat="48.72569" lon="4.57957">
        <ele>105.88</ele>
        <time>2021-08-10T07:05:21Z</time>
      </trkpt>
      <trkpt lat="48.72569" lon="4.57952">
        <ele>106.36</ele>
        <time>2021-08-10T07:05:36Z</time>
      </trkpt>
      <trkpt lat="48.7256" lon="4.57957">
        <ele>106.36</ele>
        <time>2021-08-10T07:05:44Z</time>
      </trkpt>
      <trkpt lat="48.72556" lon="4.5796">
        <ele>106.36</ele>
        <time>2021-08-10T07:05:53Z</time>
      </trkpt>
      <trkpt lat="48.72557" lon="4.57962">
        <ele>106.36</ele>
        <time>2021-08-10T07:05:59Z</time>
      </trkpt>
      <trkpt lat="48.72557" lon="4.57963">
        <ele>106.84</ele>
        <time>2021-08-10T07:06:14Z</time>
      </trkpt>
      <trkpt lat="48.72554" lon="4.57961">
        <ele>106.84</ele>
        <time>2021-08-10T07:06:32Z</time>
      </trkpt>
      <trkpt lat="48.7255" lon="4.57961">
        <ele>107.32</ele>
        <time>2021-08-10T07:06:50Z</time>
      </trkpt>
      <trkpt lat="48.72546" lon="4.57958">
        <ele>107.32</ele>
        <time>2021-08-10T07:07:07Z</time>
      </trkpt>
      <trkpt lat="48.72549" lon="4.57959">
        <ele>107.81</ele>
        <time>2021-08-10T07:07:22Z</time>
      </trkpt>
      <trkpt lat="48.72554" lon="4.57962">
        <ele>107.81</ele>
        <time>2021-08-10T07:07:38Z</time>
      </trkpt>
      <trkpt lat="48.72558" lon="4.57963">
        <ele>108.29</ele>
        <time>2021-08-10T07:07:53Z</time>
      </trkpt>
      <trkpt lat="48.72548" lon="4.57964">
        <ele>108.29</ele>
        <time>2021-08-10T07:08:13Z</time>
      </trkpt>
      <trkpt lat="48.72546" lon="4.57963">
        <ele>107.32</ele>
        <time>2021-08-10T07:08:32Z</time>
      </trkpt>
      <trkpt lat="48.72548" lon="4.57963">
        <ele>107.81</ele>
        <time>2021-08-10T07:08:50Z</time>
      </trkpt>
      <trkpt lat="48.72553" lon="4.57966">
        <ele>108.29</ele>
        <time>2021-08-10T07:09:09Z</time>
      </trkpt>
      <trkpt lat="48.72557" lon="4.5797">
        <ele>108.29</ele>
        <time>2021-08-10T07:09:18Z</time>
      </trkpt>
      <trkpt lat="48.7256" lon="4.57978">
        <ele>108.29</ele>
        <time>2021-08-10T07:09:33Z</time>
      </trkpt>
      <trkpt lat="48.72559" lon="4.57976">
        <ele>108.29</ele>
        <time>2021-08-10T07:09:45Z</time>
      </trkpt>
      <trkpt lat="48.72561" lon="4.5797">
        <ele>108.29</ele>
        <time>2021-08-10T07:09:57Z</time>
      </trkpt>
      <trkpt lat="48.72561" lon="4.57964">
        <ele>108.77</ele>
        <time>2021-08-10T07:10:15Z</time>
      </trkpt>
      <trkpt lat="48.72559" lon="4.5796">
        <ele>108.77</ele>
        <time>2021-08-10T07:10:35Z</time>
      </trkpt>
      <trkpt lat="48.72557" lon="4.57958">
        <ele>108.77</ele>
        <time>2021-08-10T07:10:53Z</time>
      </trkpt>
      <trkpt lat="48.72553" lon="4.57955">
        <ele>108.77</ele>
        <time>2021-08-10T07:11:10Z</time>
      </trkpt>
      <trkpt lat="48.72552" lon="4.57953">
        <ele>109.25</ele>
        <time>2021-08-10T07:11:25Z</time>
      </trkpt>
      <trkpt lat="48.7256" lon="4.57948">
        <ele>109.25</ele>
        <time>2021-08-10T07:11:45Z</time>
      </trkpt>
      <trkpt lat="48.72554" lon="4.57949">
        <ele>109.25</ele>
        <time>2021-08-10T07:12:04Z</time>
      </trkpt>
      <trkpt lat="48.72554" lon="4.57953">
        <ele>109.73</ele>
        <time>2021-08-10T07:12:20Z</time>
      </trkpt>
      <trkpt lat="48.72556" lon="4.57953">
        <ele>109.25</ele>
        <time>2021-08-10T07:12:33Z</time>
      </trkpt>
      <trkpt lat="48.72562" lon="4.57951">
        <ele>109.73</ele>
        <time>2021-08-10T07:12:57Z</time>
      </trkpt>
      <trkpt lat="48.72558" lon="4.57959">
        <ele>109.73</ele>
        <time>2021-08-10T07:13:17Z</time>
      </trkpt>
      <trkpt lat="48.72551" lon="4.57959">
        <ele>109.73</ele>
        <time>2021-08-10T07:13:36Z</time>
      </trkpt>
      <trkpt lat="48.72551" lon="4.57958">
        <ele>110.21</ele>
        <time>2021-08-10T07:13:52Z</time>
      </trkpt>
      <trkpt lat="48.72552" lon="4.57957">
        <ele>109.73</ele>
        <time>2021-08-10T07:14:07Z</time>
      </trkpt>
      <trkpt lat="48.72554" lon="4.57961">
        <ele>109.73</ele>
        <time>2021-08-10T07:14:26Z</time>
      </trkpt>
      <trkpt lat="48.72556" lon="4.57957">
        <ele>109.73</ele>
        <time>2021-08-10T07:14:38Z</time>
      </trkpt>
      <trkpt lat="48.72556" lon="4.57956">
        <ele>109.73</ele>
        <time>2021-08-10T07:14:55Z</time>
      </trkpt>
      <trkpt lat="48.7255" lon="4.57958">
        <ele>110.21</ele>
        <time>2021-08-10T07:15:10Z</time>
      </trkpt>
      <trkpt lat="48.72548" lon="4.57956">
        <ele>109.73</ele>
        <time>2021-08-10T07:15:24Z</time>
      </trkpt>
      <trkpt lat="48.72548" lon="4.57956">
        <ele>109.73</ele>
        <time>2021-08-10T07:15:39Z</time>
      </trkpt>
      <trkpt lat="48.72549" lon="4.57957">
        <ele>109.73</ele>
        <time>2021-08-10T07:15:51Z</time>
      </trkpt>
      <trkpt lat="48.72552" lon="4.57959">
        <ele>110.21</ele>
        <time>2021-08-10T07:16:06Z</time>
      </trkpt>
      <trkpt lat="48.72555" lon="4.5796">
        <ele>110.21</ele>
        <time>2021-08-10T07:16:17Z</time>
      </trkpt>
      <trkpt lat="48.72556" lon="4.57961">
        <ele>110.21</ele>
        <time>2021-08-10T07:16:27Z</time>
      </trkpt>
      <trkpt lat="48.72555" lon="4.57964">
        <ele>110.21</ele>
        <time>2021-08-10T07:16:40Z</time>
      </trkpt>
      <trkpt lat="48.72554" lon="4.57967">
        <ele>110.21</ele>
        <time>2021-08-10T07:16:51Z</time>
      </trkpt>
      <trkpt lat="48.72557" lon="4.57966">
        <ele>110.21</ele>
        <time>2021-08-10T07:17:09Z</time>
      </trkpt>
      <trkpt lat="48.72559" lon="4.57966">
        <ele>110.21</ele>
        <time>2021-08-10T07:17:28Z</time>
      </trkpt>
      <trkpt lat="48.72561" lon="4.57965">
        <ele>110.69</ele>
        <time>2021-08-10T07:17:45Z</time>
      </trkpt>
      <trkpt lat="48.7256" lon="4.57969">
        <ele>110.69</ele>
        <time>2021-08-10T07:17:59Z</time>
      </trkpt>
      <trkpt lat="48.72556" lon="4.57973">
        <ele>110.69</ele>
        <time>2021-08-10T07:18:00Z</time>
      </trkpt>
      <trkpt lat="48.72554" lon="4.57976">
        <ele>110.69</ele>
        <time>2021-08-10T07:18:01Z</time>
      </trkpt>
      <trkpt lat="48.72546" lon="4.57994">
        <ele>110.69</ele>
        <time>2021-08-10T07:18:07Z</time>
      </trkpt>
      <trkpt lat="48.72547" lon="4.57997">
        <ele>110.69</ele>
        <time>2021-08-10T07:18:13Z</time>
      </trkpt>
      <trkpt lat="48.72554" lon="4.57988">
        <ele>110.69</ele>
        <time>2021-08-10T07:18:28Z</time>
      </trkpt>
      <trkpt lat="48.72556" lon="4.5798">
        <ele>110.21</ele>
        <time>2021-08-10T07:18:42Z</time>
      </trkpt>
      <trkpt lat="48.7256" lon="4.57979">
        <ele>110.69</ele>
        <time>2021-08-10T07:19:00Z</time>
      </trkpt>
      <trkpt lat="48.72562" lon="4.57979">
        <ele>110.69</ele>
        <time>2021-08-10T07:19:14Z</time>
      </trkpt>
      <trkpt lat="48.72565" lon="4.5798">
        <ele>110.69</ele>
        <time>2021-08-10T07:19:33Z</time>
      </trkpt>
      <trkpt lat="48.72565" lon="4.57977">
        <ele>110.69</ele>
        <time>2021-08-10T07:19:42Z</time>
      </trkpt>
      <trkpt lat="48.72566" lon="4.57975">
        <ele>110.69</ele>
        <time>2021-08-10T07:19:57Z</time>
      </trkpt>
      <trkpt lat="48.72568" lon="4.57976">
        <ele>110.69</ele>
        <time>2021-08-10T07:20:13Z</time>
      </trkpt>
      <trkpt lat="48.72567" lon="4.57976">
        <ele>110.69</ele>
        <time>2021-08-10T07:20:30Z</time>
      </trkpt>
      <trkpt lat="48.72566" lon="4.57972">
        <ele>110.69</ele>
        <time>2021-08-10T07:20:49Z</time>
      </trkpt>
      <trkpt lat="48.72563" lon="4.57971">
        <ele>110.69</ele>
        <time>2021-08-10T07:21:01Z</time>
      </trkpt>
      <trkpt lat="48.72565" lon="4.57978">
        <ele>110.69</ele>
        <time>2021-08-10T07:21:18Z</time>
      </trkpt>
      <trkpt lat="48.72561" lon="4.57973">
        <ele>110.69</ele>
        <time>2021-08-10T07:21:32Z</time>
      </trkpt>
      <trkpt lat="48.72561" lon="4.57973">
        <ele>110.69</ele>
        <time>2021-08-10T07:21:42Z</time>
      </trkpt>
      <trkpt lat="48.7256" lon="4.57972">
        <ele>110.69</ele>
        <time>2021-08-10T07:21:51Z</time>
      </trkpt>
      <trkpt lat="48.72559" lon="4.57967">
        <ele>110.69</ele>
        <time>2021-08-10T07:22:08Z</time>
      </trkpt>
      <trkpt lat="48.72562" lon="4.57967">
        <ele>110.69</ele>
        <time>2021-08-10T07:22:24Z</time>
      </trkpt>
      <trkpt lat="48.72562" lon="4.57968">
        <ele>111.17</ele>
        <time>2021-08-10T07:22:38Z</time>
      </trkpt>
      <trkpt lat="48.7256" lon="4.57968">
        <ele>111.17</ele>
        <time>2021-08-10T07:22:53Z</time>
      </trkpt>
      <trkpt lat="48.72562" lon="4.57971">
        <ele>111.17</ele>
        <time>2021-08-10T07:23:10Z</time>
      </trkpt>
      <trkpt lat="48.72568" lon="4.57973">
        <ele>111.17</ele>
        <time>2021-08-10T07:23:27Z</time>
      </trkpt>
      <trkpt lat="48.72566" lon="4.57974">
        <ele>111.17</ele>
        <time>2021-08-10T07:23:38Z</time>
      </trkpt>
      <trkpt lat="48.72561" lon="4.57974">
        <ele>111.17</ele>
        <time>2021-08-10T07:23:58Z</time>
      </trkpt>
      <trkpt lat="48.7256" lon="4.57973">
        <ele>111.65</ele>
        <time>2021-08-10T07:24:10Z</time>
      </trkpt>
      <trkpt lat="48.72557" lon="4.57967">
        <ele>111.65</ele>
        <time>2021-08-10T07:24:25Z</time>
      </trkpt>
      <trkpt lat="48.7256" lon="4.5797">
        <ele>111.65</ele>
        <time>2021-08-10T07:24:37Z</time>
      </trkpt>
      <trkpt lat="48.72564" lon="4.57975">
        <ele>111.65</ele>
        <time>2021-08-10T07:24:55Z</time>
      </trkpt>
      <trkpt lat="48.72565" lon="4.57975">
        <ele>111.65</ele>
        <time>2021-08-10T07:25:06Z</time>
      </trkpt>
      <trkpt lat="48.72569" lon="4.57978">
        <ele>111.65</ele>
        <time>2021-08-10T07:25:14Z</time>
      </trkpt>
      <trkpt lat="48.72568" lon="4.5798">
        <ele>111.65</ele>
        <time>2021-08-10T07:25:24Z</time>
      </trkpt>
      <trkpt lat="48.72567" lon="4.57983">
        <ele>111.65</ele>
        <time>2021-08-10T07:25:38Z</time>
      </trkpt>
      <trkpt lat="48.72565" lon="4.57983">
        <ele>111.65</ele>
        <time>2021-08-10T07:25:46Z</time>
      </trkpt>
      <trkpt lat="48.72567" lon="4.57983">
        <ele>111.65</ele>
        <time>2021-08-10T07:25:55Z</time>
      </trkpt>
      <trkpt lat="48.72569" lon="4.57982">
        <ele>111.65</ele>
        <time>2021-08-10T07:25:56Z</time>
      </trkpt>
      <trkpt lat="48.72572" lon="4.5798">
        <ele>111.65</ele>
        <time>2021-08-10T07:25:57Z</time>
      </trkpt>
      <trkpt lat="48.72573" lon="4.57979">
        <ele>111.65</ele>
        <time>2021-08-10T07:25:58Z</time>
      </trkpt>
      <trkpt lat="48.72573" lon="4.57977">
        <ele>111.65</ele>
        <time>2021-08-10T07:26:04Z</time>
      </trkpt>
      <trkpt lat="48.72569" lon="4.57977">
        <ele>111.65</ele>
        <time>2021-08-10T07:26:20Z</time>
      </trkpt>
      <trkpt lat="48.72565" lon="4.57977">
        <ele>111.65</ele>
        <time>2021-08-10T07:26:35Z</time>
      </trkpt>
      <trkpt lat="48.72563" lon="4.57977">
        <ele>111.65</ele>
        <time>2021-08-10T07:26:53Z</time>
      </trkpt>
      <trkpt lat="48.72557" lon="4.57978">
        <ele>111.65</ele>
        <time>2021-08-10T07:27:11Z</time>
      </trkpt>
      <trkpt lat="48.72551" lon="4.57974">
        <ele>111.65</ele>
        <time>2021-08-10T07:27:22Z</time>
      </trkpt>
      <trkpt lat="48.7255" lon="4.57972">
        <ele>111.65</ele>
        <time>2021-08-10T07:27:36Z</time>
      </trkpt>
      <trkpt lat="48.72553" lon="4.57973">
        <ele>111.65</ele>
        <time>2021-08-10T07:27:52Z</time>
      </trkpt>
      <trkpt lat="48.72557" lon="4.57975">
        <ele>111.65</ele>
        <time>2021-08-10T07:28:05Z</time>
      </trkpt>
      <trkpt lat="48.72555" lon="4.57974">
        <ele>111.65</ele>
        <time>2021-08-10T07:28:10Z</time>
      </trkpt>
      <trkpt lat="48.72554" lon="4.57974">
        <ele>111.65</ele>
        <time>2021-08-10T07:28:16Z</time>
      </trkpt>
      <trkpt lat="48.72555" lon="4.57972">
        <ele>111.65</ele>
        <time>2021-08-10T07:28:26Z</time>
      </trkpt>
      <trkpt lat="48.72559" lon="4.57973">
        <ele>111.65</ele>
        <time>2021-08-10T07:28:41Z</time>
      </trkpt>
      <trkpt lat="48.72561" lon="4.57975">
        <ele>111.65</ele>
        <time>2021-08-10T07:28:58Z</time>
      </trkpt>
      <trkpt lat="48.72561" lon="4.57978">
        <ele>111.65</ele>
        <time>2021-08-10T07:29:10Z</time>
      </trkpt>
      <trkpt lat="48.72559" lon="4.57981">
        <ele>111.65</ele>
        <time>2021-08-10T07:29:27Z</time>
      </trkpt>
      <trkpt lat="48.72559" lon="4.57984">
        <ele>111.65</ele>
        <time>2021-08-10T07:29:43Z</time>
      </trkpt>
      <trkpt lat="48.72559" lon="4.57987">
        <ele>111.65</ele>
        <time>2021-08-10T07:29:59Z</time>
      </trkpt>
      <trkpt lat="48.72559" lon="4.57987">
        <ele>111.65</ele>
        <time>2021-08-10T07:30:18Z</time>
      </trkpt>
      <trkpt lat="48.72556" lon="4.57988">
        <ele>111.65</ele>
        <time>2021-08-10T07:30:36Z</time>
      </trkpt>
      <trkpt lat="48.72556" lon="4.57989">
        <ele>111.17</ele>
        <time>2021-08-10T07:30:53Z</time>
      </trkpt>
      <trkpt lat="48.72556" lon="4.57989">
        <ele>111.17</ele>
        <time>2021-08-10T07:31:02Z</time>
      </trkpt>
      <trkpt lat="48.72559" lon="4.57991">
        <ele>111.17</ele>
        <time>2021-08-10T07:31:21Z</time>
      </trkpt>
      <trkpt lat="48.72558" lon="4.5799">
        <ele>111.17</ele>
        <time>2021-08-10T07:31:36Z</time>
      </trkpt>
      <trkpt lat="48.72558" lon="4.57992">
        <ele>111.17</ele>
        <time>2021-08-10T07:31:48Z</time>
      </trkpt>
      <trkpt lat="48.72558" lon="4.57994">
        <ele>111.17</ele>
        <time>2021-08-10T07:32:03Z</time>
      </trkpt>
      <trkpt lat="48.72554" lon="4.57995">
        <ele>111.17</ele>
        <time>2021-08-10T07:32:14Z</time>
      </trkpt>
      <trkpt lat="48.72552" lon="4.57996">
        <ele>110.69</ele>
        <time>2021-08-10T07:32:28Z</time>
      </trkpt>
      <trkpt lat="48.72554" lon="4.57994">
        <ele>110.69</ele>
        <time>2021-08-10T07:32:48Z</time>
      </trkpt>
      <trkpt lat="48.72555" lon="4.57992">
        <ele>110.69</ele>
        <time>2021-08-10T07:33:03Z</time>
      </trkpt>
      <trkpt lat="48.72554" lon="4.57995">
        <ele>110.69</ele>
        <time>2021-08-10T07:33:21Z</time>
      </trkpt>
      <trkpt lat="48.72552" lon="4.57994">
        <ele>110.69</ele>
        <time>2021-08-10T07:33:37Z</time>
      </trkpt>
      <trkpt lat="48.72549" lon="4.57995">
        <ele>110.21</ele>
        <time>2021-08-10T07:33:50Z</time>
      </trkpt>
      <trkpt lat="48.72549" lon="4.57997">
        <ele>110.21</ele>
        <time>2021-08-10T07:34:07Z</time>
      </trkpt>
      <trkpt lat="48.7255" lon="4.57997">
        <ele>110.21</ele>
        <time>2021-08-10T07:34:17Z</time>
      </trkpt>
      <trkpt lat="48.72553" lon="4.57994">
        <ele>110.21</ele>
        <time>2021-08-10T07:34:25Z</time>
      </trkpt>
      <trkpt lat="48.72554" lon="4.57995">
        <ele>110.21</ele>
        <time>2021-08-10T07:34:30Z</time>
      </trkpt>
      <trkpt lat="48.72557" lon="4.57995">
        <ele>110.21</ele>
        <time>2021-08-10T07:34:39Z</time>
      </trkpt>
      <trkpt lat="48.72563" lon="4.57991">
        <ele>110.21</ele>
        <time>2021-08-10T07:34:50Z</time>
      </trkpt>
      <trkpt lat="48.72562" lon="4.57984">
        <ele>110.21</ele>
        <time>2021-08-10T07:35:06Z</time>
      </trkpt>
      <trkpt lat="48.72563" lon="4.57981">
        <ele>110.21</ele>
        <time>2021-08-10T07:35:20Z</time>
      </trkpt>
      <trkpt lat="48.72565" lon="4.5798">
        <ele>110.21</ele>
        <time>2021-08-10T07:35:33Z</time>
      </trkpt>
      <trkpt lat="48.72566" lon="4.57982">
        <ele>110.21</ele>
        <time>2021-08-10T07:35:46Z</time>
      </trkpt>
      <trkpt lat="48.72566" lon="4.5798">
        <ele>110.21</ele>
        <time>2021-08-10T07:35:47Z</time>
      </trkpt>
      <trkpt lat="48.72567" lon="4.57977">
        <ele>110.21</ele>
        <time>2021-08-10T07:35:52Z</time>
      </trkpt>
      <trkpt lat="48.72568" lon="4.57976">
        <ele>110.21</ele>
        <time>2021-08-10T07:35:58Z</time>
      </trkpt>
      <trkpt lat="48.72564" lon="4.57973">
        <ele>110.21</ele>
        <time>2021-08-10T07:36:10Z</time>
      </trkpt>
      <trkpt lat="48.72569" lon="4.5797">
        <ele>110.21</ele>
        <time>2021-08-10T07:36:24Z</time>
      </trkpt>
      <trkpt lat="48.72573" lon="4.57968">
        <ele>110.21</ele>
        <time>2021-08-10T07:36:35Z</time>
      </trkpt>
      <trkpt lat="48.72572" lon="4.57967">
        <ele>110.21</ele>
        <time>2021-08-10T07:36:49Z</time>
      </trkpt>
      <trkpt lat="48.7257" lon="4.57967">
        <ele>110.21</ele>
        <time>2021-08-10T07:37:02Z</time>
      </trkpt>
      <trkpt lat="48.72571" lon="4.57969">
        <ele>110.69</ele>
        <time>2021-08-10T07:37:19Z</time>
      </trkpt>
      <trkpt lat="48.72574" lon="4.5797">
        <ele>110.69</ele>
        <time>2021-08-10T07:37:35Z</time>
      </trkpt>
      <trkpt lat="48.72576" lon="4.57974">
        <ele>110.21</ele>
        <time>2021-08-10T07:37:53Z</time>
      </trkpt>
      <trkpt lat="48.72575" lon="4.57973">
        <ele>110.69</ele>
        <time>2021-08-10T07:38:11Z</time>
      </trkpt>
      <trkpt lat="48.72575" lon="4.57975">
        <ele>110.69</ele>
        <time>2021-08-10T07:38:25Z</time>
      </trkpt>
      <trkpt lat="48.72572" lon="4.57975">
        <ele>110.69</ele>
        <time>2021-08-10T07:38:45Z</time>
      </trkpt>
      <trkpt lat="48.7257" lon="4.57977">
        <ele>110.69</ele>
        <time>2021-08-10T07:39:05Z</time>
      </trkpt>
      <trkpt lat="48.72568" lon="4.5798">
        <ele>110.69</ele>
        <time>2021-08-10T07:39:19Z</time>
      </trkpt>
      <trkpt lat="48.7257" lon="4.57982">
        <ele>110.69</ele>
        <time>2021-08-10T07:39:30Z</time>
      </trkpt>
      <trkpt lat="48.7257" lon="4.57983">
        <ele>111.17</ele>
        <time>2021-08-10T07:39:40Z</time>
      </trkpt>
      <trkpt lat="48.72567" lon="4.57978">
        <ele>111.17</ele>
        <time>2021-08-10T07:39:55Z</time>
      </trkpt>
      <trkpt lat="48.7257" lon="4.57978">
        <ele>111.17</ele>
        <time>2021-08-10T07:40:07Z</time>
      </trkpt>
      <trkpt lat="48.7257" lon="4.57978">
        <ele>111.17</ele>
        <time>2021-08-10T07:40:18Z</time>
      </trkpt>
      <trkpt lat="48.72569" lon="4.57976">
        <ele>111.17</ele>
        <time>2021-08-10T07:40:32Z</time>
      </trkpt>
      <trkpt lat="48.72566" lon="4.57973">
        <ele>111.17</ele>
        <time>2021-08-10T07:40:47Z</time>
      </trkpt>
      <trkpt lat="48.72567" lon="4.57974">
        <ele>111.17</ele>
        <time>2021-08-10T07:40:52Z</time>
      </trkpt>
      <trkpt lat="48.72567" lon="4.57975">
        <ele>111.17</ele>
        <time>2021-08-10T07:40:59Z</time>
      </trkpt>
      <trkpt lat="48.72569" lon="4.5797">
        <ele>111.17</ele>
        <time>2021-08-10T07:41:19Z</time>
      </trkpt>
      <trkpt lat="48.72571" lon="4.57977">
        <ele>111.65</ele>
        <time>2021-08-10T07:41:43Z</time>
      </trkpt>
      <trkpt lat="48.72569" lon="4.57976">
        <ele>111.65</ele>
        <time>2021-08-10T07:41:56Z</time>
      </trkpt>
      <trkpt lat="48.72568" lon="4.57978">
        <ele>111.65</ele>
        <time>2021-08-10T07:42:10Z</time>
      </trkpt>
      <trkpt lat="48.72567" lon="4.5798">
        <ele>111.65</ele>
        <time>2021-08-10T07:42:24Z</time>
      </trkpt>
      <trkpt lat="48.72568" lon="4.57981">
        <ele>111.65</ele>
        <time>2021-08-10T07:42:43Z</time>
      </trkpt>
      <trkpt lat="48.72568" lon="4.57985">
        <ele>111.65</ele>
        <time>2021-08-10T07:42:56Z</time>
      </trkpt>
      <trkpt lat="48.72566" lon="4.57982">
        <ele>111.65</ele>
        <time>2021-08-10T07:43:09Z</time>
      </trkpt>
      <trkpt lat="48.72564" lon="4.5798">
        <ele>111.65</ele>
        <time>2021-08-10T07:43:19Z</time>
      </trkpt>
      <trkpt lat="48.72562" lon="4.57982">
        <ele>111.65</ele>
        <time>2021-08-10T07:43:37Z</time>
      </trkpt>
      <trkpt lat="48.72562" lon="4.57983">
        <ele>111.65</ele>
        <time>2021-08-10T07:43:46Z</time>
      </trkpt>
      <trkpt lat="48.72563" lon="4.57983">
        <ele>111.65</ele>
        <time>2021-08-10T07:43:59Z</time>
      </trkpt>
      <trkpt lat="48.7256" lon="4.57984">
        <ele>111.65</ele>
        <time>2021-08-10T07:44:18Z</time>
      </trkpt>
      <trkpt lat="48.72558" lon="4.57984">
        <ele>111.65</ele>
        <time>2021-08-10T07:44:33Z</time>
      </trkpt>
      <trkpt lat="48.72557" lon="4.57981">
        <ele>111.65</ele>
        <time>2021-08-10T07:44:45Z</time>
      </trkpt>
      <trkpt lat="48.72558" lon="4.57983">
        <ele>111.65</ele>
        <time>2021-08-10T07:44:55Z</time>
      </trkpt>
      <trkpt lat="48.7256" lon="4.57987">
        <ele>111.17</ele>
        <time>2021-08-10T07:45:12Z</time>
      </trkpt>
      <trkpt lat="48.72561" lon="4.57985">
        <ele>111.17</ele>
        <time>2021-08-10T07:45:29Z</time>
      </trkpt>
      <trkpt lat="48.7256" lon="4.57983">
        <ele>111.17</ele>
        <time>2021-08-10T07:45:44Z</time>
      </trkpt>
      <trkpt lat="48.72562" lon="4.57984">
        <ele>111.17</ele>
        <time>2021-08-10T07:45:45Z</time>
      </trkpt>
      <trkpt lat="48.72563" lon="4.57984">
        <ele>111.17</ele>
        <time>2021-08-10T07:45:50Z</time>
      </trkpt>
      <trkpt lat="48.72567" lon="4.57983">
        <ele>111.17</ele>
        <time>2021-08-10T07:45:56Z</time>
      </trkpt>
      <trkpt lat="48.7257" lon="4.57981">
        <ele>111.17</ele>
        <time>2021-08-10T07:46:12Z</time>
      </trkpt>
      <trkpt lat="48.72568" lon="4.57978">
        <ele>111.17</ele>
        <time>2021-08-10T07:46:28Z</time>
      </trkpt>
      <trkpt lat="48.72565" lon="4.57975">
        <ele>111.17</ele>
        <time>2021-08-10T07:46:42Z</time>
      </trkpt>
      <trkpt lat="48.72566" lon="4.57977">
        <ele>111.17</ele>
        <time>2021-08-10T07:46:53Z</time>
      </trkpt>
      <trkpt lat="48.72568" lon="4.57977">
        <ele>111.17</ele>
        <time>2021-08-10T07:47:14Z</time>
      </trkpt>
      <trkpt lat="48.72568" lon="4.57977">
        <ele>111.17</ele>
        <time>2021-08-10T07:47:32Z</time>
      </trkpt>
      <trkpt lat="48.72565" lon="4.5798">
        <ele>111.17</ele>
        <time>2021-08-10T07:47:45Z</time>
      </trkpt>
      <trkpt lat="48.72563" lon="4.57984">
        <ele>111.17</ele>
        <time>2021-08-10T07:48:07Z</time>
      </trkpt>
      <trkpt lat="48.72565" lon="4.57987">
        <ele>111.17</ele>
        <time>2021-08-10T07:48:19Z</time>
      </trkpt>
      <trkpt lat="48.72562" lon="4.57987">
        <ele>111.17</ele>
        <time>2021-08-10T07:48:33Z</time>
      </trkpt>
      <trkpt lat="48.72563" lon="4.5798">
        <ele>111.17</ele>
        <time>2021-08-10T07:48:52Z</time>
      </trkpt>
      <trkpt lat="48.72565" lon="4.57984">
        <ele>111.17</ele>
        <time>2021-08-10T07:49:08Z</time>
      </trkpt>
      <trkpt lat="48.72565" lon="4.57981">
        <ele>111.17</ele>
        <time>2021-08-10T07:49:24Z</time>
      </trkpt>
      <trkpt lat="48.72564" lon="4.57981">
        <ele>111.17</ele>
        <time>2021-08-10T07:49:35Z</time>
      </trkpt>
      <trkpt lat="48.72564" lon="4.5798">
        <ele>111.17</ele>
        <time>2021-08-10T07:49:49Z</time>
      </trkpt>
      <trkpt lat="48.72564" lon="4.57983">
        <ele>111.17</ele>
        <time>2021-08-10T07:49:58Z</time>
      </trkpt>
      <trkpt lat="48.72565" lon="4.57985">
        <ele>111.17</ele>
        <time>2021-08-10T07:50:08Z</time>
      </trkpt>
      <trkpt lat="48.72568" lon="4.57983">
        <ele>111.17</ele>
        <time>2021-08-10T07:50:21Z</time>
      </trkpt>
      <trkpt lat="48.72568" lon="4.57985">
        <ele>111.17</ele>
        <time>2021-08-10T07:50:33Z</time>
      </trkpt>
      <trkpt lat="48.7257" lon="4.57986">
        <ele>111.17</ele>
        <time>2021-08-10T07:50:36Z</time>
      </trkpt>
      <trkpt lat="48.72572" lon="4.57988">
        <ele>111.17</ele>
        <time>2021-08-10T07:50:37Z</time>
      </trkpt>
      <trkpt lat="48.72584" lon="4.58009">
        <ele>110.69</ele>
        <time>2021-08-10T07:50:43Z</time>
      </trkpt>
      <trkpt lat="48.72605" lon="4.5804">
        <ele>110.21</ele>
        <time>2021-08-10T07:50:49Z</time>
      </trkpt>
      <trkpt lat="48.7261" lon="4.58046">
        <ele>110.21</ele>
        <time>2021-08-10T07:50:50Z</time>
      </trkpt>
      <trkpt lat="48.72628" lon="4.58071">
        <ele>110.21</ele>
        <time>2021-08-10T07:50:55Z</time>
      </trkpt>
      <trkpt lat="48.72639" lon="4.58088">
        <ele>110.21</ele>
        <time>2021-08-10T07:50:58Z</time>
      </trkpt>
      <trkpt lat="48.7266" lon="4.5811">
        <ele>110.21</ele>
        <time>2021-08-10T07:51:03Z</time>
      </trkpt>
      <trkpt lat="48.7268" lon="4.58122">
        <ele>109.73</ele>
        <time>2021-08-10T07:51:07Z</time>
      </trkpt>
      <trkpt lat="48.72689" lon="4.58128">
        <ele>109.73</ele>
        <time>2021-08-10T07:51:09Z</time>
      </trkpt>
      <trkpt lat="48.72693" lon="4.58132">
        <ele>109.73</ele>
        <time>2021-08-10T07:51:10Z</time>
      </trkpt>
      <trkpt lat="48.72696" lon="4.58136">
        <ele>109.73</ele>
        <time>2021-08-10T07:51:11Z</time>
      </trkpt>
      <trkpt lat="48.72703" lon="4.5815">
        <ele>109.73</ele>
        <time>2021-08-10T07:51:13Z</time>
      </trkpt>
      <trkpt lat="48.72705" lon="4.58155">
        <ele>109.73</ele>
        <time>2021-08-10T07:51:14Z</time>
      </trkpt>
      <trkpt lat="48.72706" lon="4.58162">
        <ele>109.73</ele>
        <time>2021-08-10T07:51:15Z</time>
      </trkpt>
      <trkpt lat="48.72704" lon="4.58169">
        <ele>109.73</ele>
        <time>2021-08-10T07:51:16Z</time>
      </trkpt>
      <trkpt lat="48.72703" lon="4.58174">
        <ele>109.73</ele>
        <time>2021-08-10T07:51:17Z</time>
      </trkpt>
      <trkpt lat="48.72701" lon="4.58181">
        <ele>109.73</ele>
        <time>2021-08-10T07:51:18Z</time>
      </trkpt>
      <trkpt lat="48.72699" lon="4.58188">
        <ele>109.73</ele>
        <time>2021-08-10T07:51:19Z</time>
      </trkpt>
      <trkpt lat="48.72694" lon="4.58208">
        <ele>110.69</ele>
        <time>2021-08-10T07:51:22Z</time>
      </trkpt>
      <trkpt lat="48.72683" lon="4.58243">
        <ele>111.17</ele>
        <time>2021-08-10T07:51:29Z</time>
      </trkpt>
      <trkpt lat="48.72681" lon="4.58245">
        <ele>110.69</ele>
        <time>2021-08-10T07:51:30Z</time>
      </trkpt>
      <trkpt lat="48.72676" lon="4.58256">
        <ele>111.17</ele>
        <time>2021-08-10T07:51:35Z</time>
      </trkpt>
      <trkpt lat="48.72666" lon="4.58293">
        <ele>111.17</ele>
        <time>2021-08-10T07:51:42Z</time>
      </trkpt>
      <trkpt lat="48.72652" lon="4.58338">
        <ele>111.65</ele>
        <time>2021-08-10T07:51:50Z</time>
      </trkpt>
      <trkpt lat="48.72643" lon="4.58369">
        <ele>111.65</ele>
        <time>2021-08-10T07:51:55Z</time>
      </trkpt>
      <trkpt lat="48.72642" lon="4.58375">
        <ele>111.65</ele>
        <time>2021-08-10T07:51:56Z</time>
      </trkpt>
      <trkpt lat="48.72633" lon="4.58408">
        <ele>112.13</ele>
        <time>2021-08-10T07:52:02Z</time>
      </trkpt>
      <trkpt lat="48.72623" lon="4.58438">
        <ele>112.13</ele>
        <time>2021-08-10T07:52:09Z</time>
      </trkpt>
      <trkpt lat="48.72615" lon="4.58458">
        <ele>112.13</ele>
        <time>2021-08-10T07:52:15Z</time>
      </trkpt>
      <trkpt lat="48.72614" lon="4.58459">
        <ele>111.65</ele>
        <time>2021-08-10T07:52:21Z</time>
      </trkpt>
      <trkpt lat="48.72613" lon="4.58463">
        <ele>111.65</ele>
        <time>2021-08-10T07:52:29Z</time>
      </trkpt>
      <trkpt lat="48.72614" lon="4.58464">
        <ele>111.65</ele>
        <time>2021-08-10T07:52:30Z</time>
      </trkpt>
      <trkpt lat="48.72615" lon="4.58466">
        <ele>111.65</ele>
        <time>2021-08-10T07:52:31Z</time>
      </trkpt>
      <trkpt lat="48.72617" lon="4.58467">
        <ele>111.65</ele>
        <time>2021-08-10T07:52:32Z</time>
      </trkpt>
      <trkpt lat="48.72619" lon="4.58469">
        <ele>111.65</ele>
        <time>2021-08-10T07:52:33Z</time>
      </trkpt>
      <trkpt lat="48.72621" lon="4.5847">
        <ele>111.65</ele>
        <time>2021-08-10T07:52:34Z</time>
      </trkpt>
      <trkpt lat="48.72634" lon="4.58478">
        <ele>112.13</ele>
        <time>2021-08-10T07:52:40Z</time>
      </trkpt>
      <trkpt lat="48.72637" lon="4.5848">
        <ele>112.13</ele>
        <time>2021-08-10T07:52:41Z</time>
      </trkpt>
      <trkpt lat="48.72639" lon="4.58482">
        <ele>112.13</ele>
        <time>2021-08-10T07:52:42Z</time>
      </trkpt>
      <trkpt lat="48.72641" lon="4.58483">
        <ele>112.13</ele>
        <time>2021-08-10T07:52:43Z</time>
      </trkpt>
      <trkpt lat="48.72644" lon="4.58485">
        <ele>112.13</ele>
        <time>2021-08-10T07:52:44Z</time>
      </trkpt>
      <trkpt lat="48.72647" lon="4.58486">
        <ele>112.13</ele>
        <time>2021-08-10T07:52:45Z</time>
      </trkpt>
      <trkpt lat="48.72653" lon="4.58493">
        <ele>112.61</ele>
        <time>2021-08-10T07:52:48Z</time>
      </trkpt>
      <trkpt lat="48.72653" lon="4.58497">
        <ele>112.61</ele>
        <time>2021-08-10T07:52:49Z</time>
      </trkpt>
      <trkpt lat="48.72653" lon="4.585">
        <ele>112.61</ele>
        <time>2021-08-10T07:52:50Z</time>
      </trkpt>
      <trkpt lat="48.72649" lon="4.58526">
        <ele>112.61</ele>
        <time>2021-08-10T07:52:58Z</time>
      </trkpt>
      <trkpt lat="48.72647" lon="4.58533">
        <ele>112.61</ele>
        <time>2021-08-10T07:53:03Z</time>
      </trkpt>
      <trkpt lat="48.72648" lon="4.58536">
        <ele>112.61</ele>
        <time>2021-08-10T07:53:04Z</time>
      </trkpt>
      <trkpt lat="48.72649" lon="4.58538">
        <ele>112.61</ele>
        <time>2021-08-10T07:53:05Z</time>
      </trkpt>
      <trkpt lat="48.72649" lon="4.58541">
        <ele>112.61</ele>
        <time>2021-08-10T07:53:06Z</time>
      </trkpt>
      <trkpt lat="48.72649" lon="4.58545">
        <ele>112.61</ele>
        <time>2021-08-10T07:53:07Z</time>
      </trkpt>
      <trkpt lat="48.72649" lon="4.58548">
        <ele>112.61</ele>
        <time>2021-08-10T07:53:08Z</time>
      </trkpt>
      <trkpt lat="48.7265" lon="4.58551">
        <ele>112.61</ele>
        <time>2021-08-10T07:53:09Z</time>
      </trkpt>
      <trkpt lat="48.72652" lon="4.58553">
        <ele>112.61</ele>
        <time>2021-08-10T07:53:10Z</time>
      </trkpt>
      <trkpt lat="48.72654" lon="4.58555">
        <ele>112.61</ele>
        <time>2021-08-10T07:53:11Z</time>
      </trkpt>
      <trkpt lat="48.72657" lon="4.58556">
        <ele>113.09</ele>
        <time>2021-08-10T07:53:12Z</time>
      </trkpt>
      <trkpt lat="48.72673" lon="4.58566">
        <ele>113.09</ele>
        <time>2021-08-10T07:53:18Z</time>
      </trkpt>
      <trkpt lat="48.72693" lon="4.58581">
        <ele>113.57</ele>
        <time>2021-08-10T07:53:24Z</time>
      </trkpt>
      <trkpt lat="48.7272" lon="4.58597">
        <ele>113.09</ele>
        <time>2021-08-10T07:53:32Z</time>
      </trkpt>
      <trkpt lat="48.72732" lon="4.58607">
        <ele>113.09</ele>
        <time>2021-08-10T07:53:37Z</time>
      </trkpt>
      <trkpt lat="48.72752" lon="4.5862">
        <ele>113.09</ele>
        <time>2021-08-10T07:53:44Z</time>
      </trkpt>
      <trkpt lat="48.72762" lon="4.58626">
        <ele>113.09</ele>
        <time>2021-08-10T07:53:50Z</time>
      </trkpt>
      <trkpt lat="48.72763" lon="4.58625">
        <ele>113.09</ele>
        <time>2021-08-10T07:53:54Z</time>
      </trkpt>
      <trkpt lat="48.72765" lon="4.58625">
        <ele>113.09</ele>
        <time>2021-08-10T07:54:07Z</time>
      </trkpt>
      <trkpt lat="48.72766" lon="4.58625">
        <ele>113.09</ele>
        <time>2021-08-10T07:54:18Z</time>
      </trkpt>
      <trkpt lat="48.72762" lon="4.58639">
        <ele>113.09</ele>
        <time>2021-08-10T07:54:34Z</time>
      </trkpt>
      <trkpt lat="48.72758" lon="4.58647">
        <ele>113.57</ele>
        <time>2021-08-10T07:54:54Z</time>
      </trkpt>
      <trkpt lat="48.7276" lon="4.58646">
        <ele>113.57</ele>
        <time>2021-08-10T07:55:14Z</time>
      </trkpt>
      <trkpt lat="48.7276" lon="4.58648">
        <ele>114.05</ele>
        <time>2021-08-10T07:55:44Z</time>
      </trkpt>
      <trkpt lat="48.72761" lon="4.58648">
        <ele>114.05</ele>
        <time>2021-08-10T07:56:01Z</time>
      </trkpt>
      <trkpt lat="48.72762" lon="4.58647">
        <ele>114.05</ele>
        <time>2021-08-10T07:56:11Z</time>
      </trkpt>
      <trkpt lat="48.72762" lon="4.58646">
        <ele>114.05</ele>
        <time>2021-08-10T07:56:18Z</time>
      </trkpt>
      <trkpt lat="48.72761" lon="4.58647">
        <ele>114.53</ele>
        <time>2021-08-10T07:56:27Z</time>
      </trkpt>
      <trkpt lat="48.72759" lon="4.58647">
        <ele>114.53</ele>
        <time>2021-08-10T07:56:47Z</time>
      </trkpt>
      <trkpt lat="48.72759" lon="4.58645">
        <ele>115.01</ele>
        <time>2021-08-10T07:57:11Z</time>
      </trkpt>
      <trkpt lat="48.72757" lon="4.58645">
        <ele>115.01</ele>
        <time>2021-08-10T07:57:36Z</time>
      </trkpt>
      <trkpt lat="48.72758" lon="4.58647">
        <ele>115.5</ele>
        <time>2021-08-10T07:58:02Z</time>
      </trkpt>
      <trkpt lat="48.72759" lon="4.58645">
        <ele>115.98</ele>
        <time>2021-08-10T07:58:20Z</time>
      </trkpt>
      <trkpt lat="48.72762" lon="4.5864">
        <ele>115.98</ele>
        <time>2021-08-10T07:58:42Z</time>
      </trkpt>
      <trkpt lat="48.72761" lon="4.58642">
        <ele>116.46</ele>
        <time>2021-08-10T07:59:04Z</time>
      </trkpt>
      <trkpt lat="48.72759" lon="4.58643">
        <ele>117.42</ele>
        <time>2021-08-10T07:59:24Z</time>
      </trkpt>
      <trkpt lat="48.7276" lon="4.58645">
        <ele>117.9</ele>
        <time>2021-08-10T07:59:49Z</time>
      </trkpt>
      <trkpt lat="48.7276" lon="4.58646">
        <ele>117.9</ele>
        <time>2021-08-10T08:00:06Z</time>
      </trkpt>
      <trkpt lat="48.72761" lon="4.58647">
        <ele>118.38</ele>
        <time>2021-08-10T08:00:24Z</time>
      </trkpt>
      <trkpt lat="48.7276" lon="4.58644">
        <ele>118.38</ele>
        <time>2021-08-10T08:00:43Z</time>
      </trkpt>
      <trkpt lat="48.72758" lon="4.58641">
        <ele>118.86</ele>
        <time>2021-08-10T08:01:05Z</time>
      </trkpt>
      <trkpt lat="48.7276" lon="4.58639">
        <ele>119.34</ele>
        <time>2021-08-10T08:01:17Z</time>
      </trkpt>
      <trkpt lat="48.72761" lon="4.58638">
        <ele>119.34</ele>
        <time>2021-08-10T08:01:32Z</time>
      </trkpt>
      <trkpt lat="48.7276" lon="4.58639">
        <ele>119.82</ele>
        <time>2021-08-10T08:01:52Z</time>
      </trkpt>
      <trkpt lat="48.7276" lon="4.58638">
        <ele>120.3</ele>
        <time>2021-08-10T08:02:07Z</time>
      </trkpt>
      <trkpt lat="48.7276" lon="4.58637">
        <ele>120.3</ele>
        <time>2021-08-10T08:02:21Z</time>
      </trkpt>
      <trkpt lat="48.7276" lon="4.5864">
        <ele>120.78</ele>
        <time>2021-08-10T08:02:37Z</time>
      </trkpt>
      <trkpt lat="48.72759" lon="4.58641">
        <ele>120.78</ele>
        <time>2021-08-10T08:02:53Z</time>
      </trkpt>
      <trkpt lat="48.72759" lon="4.58639">
        <ele>121.26</ele>
        <time>2021-08-10T08:03:09Z</time>
      </trkpt>
      <trkpt lat="48.7276" lon="4.58638">
        <ele>121.26</ele>
        <time>2021-08-10T08:03:26Z</time>
      </trkpt>
      <trkpt lat="48.72761" lon="4.58639">
        <ele>121.26</ele>
        <time>2021-08-10T08:03:43Z</time>
      </trkpt>
      <trkpt lat="48.72763" lon="4.58639">
        <ele>121.74</ele>
        <time>2021-08-10T08:03:58Z</time>
      </trkpt>
      <trkpt lat="48.72762" lon="4.58641">
        <ele>121.74</ele>
        <time>2021-08-10T08:04:16Z</time>
      </trkpt>
      <trkpt lat="48.7276" lon="4.58646">
        <ele>121.74</ele>
        <time>2021-08-10T08:04:34Z</time>
      </trkpt>
      <trkpt lat="48.72758" lon="4.58645">
        <ele>122.22</ele>
        <time>2021-08-10T08:04:56Z</time>
      </trkpt>
      <trkpt lat="48.72759" lon="4.58645">
        <ele>122.22</ele>
        <time>2021-08-10T08:05:14Z</time>
      </trkpt>
      <trkpt lat="48.72759" lon="4.5865">
        <ele>122.71</ele>
        <time>2021-08-10T08:05:30Z</time>
      </trkpt>
      <trkpt lat="48.7276" lon="4.58652">
        <ele>122.71</ele>
        <time>2021-08-10T08:05:47Z</time>
      </trkpt>
      <trkpt lat="48.72761" lon="4.58649">
        <ele>123.19</ele>
        <time>2021-08-10T08:06:05Z</time>
      </trkpt>
      <trkpt lat="48.7276" lon="4.58646">
        <ele>123.19</ele>
        <time>2021-08-10T08:06:11Z</time>
      </trkpt>
      <trkpt lat="48.7276" lon="4.58645">
        <ele>123.19</ele>
        <time>2021-08-10T08:06:14Z</time>
      </trkpt>
      <trkpt lat="48.7276" lon="4.58648">
        <ele>123.19</ele>
        <time>2021-08-10T08:06:20Z</time>
      </trkpt>
      <trkpt lat="48.72758" lon="4.58652">
        <ele>123.19</ele>
        <time>2021-08-10T08:06:38Z</time>
      </trkpt>
      <trkpt lat="48.72759" lon="4.5865">
        <ele>123.19</ele>
        <time>2021-08-10T08:06:57Z</time>
      </trkpt>
      <trkpt lat="48.72759" lon="4.58648">
        <ele>123.19</ele>
        <time>2021-08-10T08:07:11Z</time>
      </trkpt>
      <trkpt lat="48.72761" lon="4.58642">
        <ele>123.67</ele>
        <time>2021-08-10T08:07:27Z</time>
      </trkpt>
      <trkpt lat="48.72762" lon="4.58642">
        <ele>123.67</ele>
        <time>2021-08-10T08:07:36Z</time>
      </trkpt>
      <trkpt lat="48.72762" lon="4.58639">
        <ele>123.67</ele>
        <time>2021-08-10T08:07:47Z</time>
      </trkpt>
      <trkpt lat="48.72762" lon="4.58638">
        <ele>123.67</ele>
        <time>2021-08-10T08:08:01Z</time>
      </trkpt>
      <trkpt lat="48.72761" lon="4.58637">
        <ele>123.67</ele>
        <time>2021-08-10T08:08:16Z</time>
      </trkpt>
      <trkpt lat="48.7276" lon="4.58643">
        <ele>123.67</ele>
        <time>2021-08-10T08:08:30Z</time>
      </trkpt>
      <trkpt lat="48.7276" lon="4.58657">
        <ele>123.19</ele>
        <time>2021-08-10T08:08:48Z</time>
      </trkpt>
      <trkpt lat="48.72761" lon="4.58653">
        <ele>123.19</ele>
        <time>2021-08-10T08:09:05Z</time>
      </trkpt>
      <trkpt lat="48.7276" lon="4.58651">
        <ele>123.19</ele>
        <time>2021-08-10T08:09:17Z</time>
      </trkpt>
      <trkpt lat="48.72758" lon="4.58648">
        <ele>123.19</ele>
        <time>2021-08-10T08:09:36Z</time>
      </trkpt>
      <trkpt lat="48.72759" lon="4.58647">
        <ele>123.19</ele>
        <time>2021-08-10T08:09:50Z</time>
      </trkpt>
      <trkpt lat="48.7276" lon="4.58644">
        <ele>123.19</ele>
        <time>2021-08-10T08:10:06Z</time>
      </trkpt>
      <trkpt lat="48.72761" lon="4.58644">
        <ele>123.19</ele>
        <time>2021-08-10T08:10:22Z</time>
      </trkpt>
      <trkpt lat="48.7276" lon="4.58644">
        <ele>123.19</ele>
        <time>2021-08-10T08:10:34Z</time>
      </trkpt>
      <trkpt lat="48.7276" lon="4.58645">
        <ele>123.19</ele>
        <time>2021-08-10T08:10:47Z</time>
      </trkpt>
      <trkpt lat="48.7276" lon="4.58648">
        <ele>123.19</ele>
        <time>2021-08-10T08:11:03Z</time>
      </trkpt>
      <trkpt lat="48.72759" lon="4.58651">
        <ele>123.19</ele>
        <time>2021-08-10T08:11:16Z</time>
      </trkpt>
      <trkpt lat="48.72759" lon="4.58653">
        <ele>123.19</ele>
        <time>2021-08-10T08:11:31Z</time>
      </trkpt>
      <trkpt lat="48.72759" lon="4.5865">
        <ele>123.19</ele>
        <time>2021-08-10T08:11:46Z</time>
      </trkpt>
      <trkpt lat="48.72758" lon="4.58649">
        <ele>123.19</ele>
        <time>2021-08-10T08:11:56Z</time>
      </trkpt>
      <trkpt lat="48.72757" lon="4.58648">
        <ele>123.19</ele>
        <time>2021-08-10T08:12:06Z</time>
      </trkpt>
      <trkpt lat="48.72757" lon="4.58647">
        <ele>122.71</ele>
        <time>2021-08-10T08:12:15Z</time>
      </trkpt>
      <trkpt lat="48.7276" lon="4.58646">
        <ele>122.71</ele>
        <time>2021-08-10T08:12:27Z</time>
      </trkpt>
      <trkpt lat="48.72761" lon="4.58645">
        <ele>122.71</ele>
        <time>2021-08-10T08:12:34Z</time>
      </trkpt>
      <trkpt lat="48.72761" lon="4.58645">
        <ele>122.71</ele>
        <time>2021-08-10T08:12:43Z</time>
      </trkpt>
      <trkpt lat="48.7276" lon="4.58648">
        <ele>122.71</ele>
        <time>2021-08-10T08:12:53Z</time>
      </trkpt>
      <trkpt lat="48.7276" lon="4.5865">
        <ele>122.22</ele>
        <time>2021-08-10T08:13:01Z</time>
      </trkpt>
      <trkpt lat="48.72761" lon="4.58648">
        <ele>122.22</ele>
        <time>2021-08-10T08:13:07Z</time>
      </trkpt>
      <trkpt lat="48.72761" lon="4.58644">
        <ele>122.22</ele>
        <time>2021-08-10T08:13:13Z</time>
      </trkpt>
      <trkpt lat="48.72761" lon="4.58644">
        <ele>122.22</ele>
        <time>2021-08-10T08:13:19Z</time>
      </trkpt>
      <trkpt lat="48.72761" lon="4.5865">
        <ele>122.22</ele>
        <time>2021-08-10T08:13:34Z</time>
      </trkpt>
      <trkpt lat="48.72761" lon="4.58655">
        <ele>121.74</ele>
        <time>2021-08-10T08:13:44Z</time>
      </trkpt>
      <trkpt lat="48.72763" lon="4.58656">
        <ele>121.74</ele>
        <time>2021-08-10T08:13:56Z</time>
      </trkpt>
      <trkpt lat="48.72763" lon="4.58656">
        <ele>121.74</ele>
        <time>2021-08-10T08:14:05Z</time>
      </trkpt>
      <trkpt lat="48.72761" lon="4.58656">
        <ele>121.26</ele>
        <time>2021-08-10T08:14:16Z</time>
      </trkpt>
      <trkpt lat="48.7276" lon="4.58656">
        <ele>121.26</ele>
        <time>2021-08-10T08:14:24Z</time>
      </trkpt>
      <trkpt lat="48.7276" lon="4.58658">
        <ele>120.78</ele>
        <time>2021-08-10T08:14:38Z</time>
      </trkpt>
      <trkpt lat="48.7276" lon="4.58658">
        <ele>120.78</ele>
        <time>2021-08-10T08:14:49Z</time>
      </trkpt>
      <trkpt lat="48.72761" lon="4.58658">
        <ele>120.78</ele>
        <time>2021-08-10T08:15:00Z</time>
      </trkpt>
      <trkpt lat="48.72762" lon="4.58654">
        <ele>120.78</ele>
        <time>2021-08-10T08:15:07Z</time>
      </trkpt>
      <trkpt lat="48.72761" lon="4.58651">
        <ele>120.3</ele>
        <time>2021-08-10T08:15:23Z</time>
      </trkpt>
      <trkpt lat="48.72759" lon="4.58653">
        <ele>120.3</ele>
        <time>2021-08-10T08:15:32Z</time>
      </trkpt>
      <trkpt lat="48.72759" lon="4.58652">
        <ele>119.82</ele>
        <time>2021-08-10T08:15:42Z</time>
      </trkpt>
      <trkpt lat="48.72759" lon="4.58653">
        <ele>119.82</ele>
        <time>2021-08-10T08:15:51Z</time>
      </trkpt>
      <trkpt lat="48.72759" lon="4.58652">
        <ele>119.82</ele>
        <time>2021-08-10T08:16:02Z</time>
      </trkpt>
      <trkpt lat="48.72761" lon="4.58655">
        <ele>119.34</ele>
        <time>2021-08-10T08:16:15Z</time>
      </trkpt>
      <trkpt lat="48.7276" lon="4.58654">
        <ele>119.34</ele>
        <time>2021-08-10T08:16:27Z</time>
      </trkpt>
      <trkpt lat="48.7276" lon="4.58657">
        <ele>118.86</ele>
        <time>2021-08-10T08:16:48Z</time>
      </trkpt>
      <trkpt lat="48.72761" lon="4.58659">
        <ele>118.38</ele>
        <time>2021-08-10T08:17:10Z</time>
      </trkpt>
      <trkpt lat="48.72761" lon="4.58658">
        <ele>118.38</ele>
        <time>2021-08-10T08:17:27Z</time>
      </trkpt>
      <trkpt lat="48.72761" lon="4.58658">
        <ele>117.9</ele>
        <time>2021-08-10T08:17:44Z</time>
      </trkpt>
      <trkpt lat="48.72759" lon="4.58661">
        <ele>117.42</ele>
        <time>2021-08-10T08:18:03Z</time>
      </trkpt>
      <trkpt lat="48.72759" lon="4.58659">
        <ele>116.94</ele>
        <time>2021-08-10T08:18:29Z</time>
      </trkpt>
      <trkpt lat="48.72758" lon="4.58657">
        <ele>116.46</ele>
        <time>2021-08-10T08:18:46Z</time>
      </trkpt>
      <trkpt lat="48.72757" lon="4.58657">
        <ele>116.46</ele>
        <time>2021-08-10T08:19:06Z</time>
      </trkpt>
      <trkpt lat="48.72759" lon="4.58658">
        <ele>115.98</ele>
        <time>2021-08-10T08:19:28Z</time>
      </trkpt>
      <trkpt lat="48.72759" lon="4.58655">
        <ele>115.5</ele>
        <time>2021-08-10T08:19:42Z</time>
      </trkpt>
      <trkpt lat="48.72758" lon="4.58654">
        <ele>115.5</ele>
        <time>2021-08-10T08:19:53Z</time>
      </trkpt>
      <trkpt lat="48.72757" lon="4.58654">
        <ele>115.5</ele>
        <time>2021-08-10T08:20:02Z</time>
      </trkpt>
      <trkpt lat="48.72757" lon="4.58654">
        <ele>115.01</ele>
        <time>2021-08-10T08:20:15Z</time>
      </trkpt>
      <trkpt lat="48.72757" lon="4.58652">
        <ele>115.01</ele>
        <time>2021-08-10T08:20:27Z</time>
      </trkpt>
      <trkpt lat="48.72757" lon="4.58651">
        <ele>115.01</ele>
        <time>2021-08-10T08:20:39Z</time>
      </trkpt>
      <trkpt lat="48.72759" lon="4.58648">
        <ele>115.01</ele>
        <time>2021-08-10T08:20:51Z</time>
      </trkpt>
      <trkpt lat="48.72758" lon="4.58649">
        <ele>114.53</ele>
        <time>2021-08-10T08:21:07Z</time>
      </trkpt>
      <trkpt lat="48.72758" lon="4.58649">
        <ele>114.53</ele>
        <time>2021-08-10T08:21:21Z</time>
      </trkpt>
      <trkpt lat="48.72757" lon="4.58651">
        <ele>114.05</ele>
        <time>2021-08-10T08:21:29Z</time>
      </trkpt>
      <trkpt lat="48.72757" lon="4.58653">
        <ele>114.05</ele>
        <time>2021-08-10T08:21:37Z</time>
      </trkpt>
      <trkpt lat="48.72756" lon="4.58654">
        <ele>114.05</ele>
        <time>2021-08-10T08:21:50Z</time>
      </trkpt>
      <trkpt lat="48.72756" lon="4.58656">
        <ele>113.57</ele>
        <time>2021-08-10T08:22:03Z</time>
      </trkpt>
      <trkpt lat="48.72757" lon="4.58658">
        <ele>113.57</ele>
        <time>2021-08-10T08:22:21Z</time>
      </trkpt>
      <trkpt lat="48.72757" lon="4.5866">
        <ele>113.09</ele>
        <time>2021-08-10T08:22:35Z</time>
      </trkpt>
      <trkpt lat="48.72756" lon="4.5866">
        <ele>113.09</ele>
        <time>2021-08-10T08:22:43Z</time>
      </trkpt>
      <trkpt lat="48.72756" lon="4.58658">
        <ele>112.61</ele>
        <time>2021-08-10T08:22:57Z</time>
      </trkpt>
      <trkpt lat="48.72758" lon="4.58658">
        <ele>112.61</ele>
        <time>2021-08-10T08:23:13Z</time>
      </trkpt>
      <trkpt lat="48.7276" lon="4.58658">
        <ele>112.61</ele>
        <time>2021-08-10T08:23:33Z</time>
      </trkpt>
      <trkpt lat="48.72761" lon="4.58658">
        <ele>112.13</ele>
        <time>2021-08-10T08:23:54Z</time>
      </trkpt>
      <trkpt lat="48.72761" lon="4.58657">
        <ele>112.13</ele>
        <time>2021-08-10T08:24:09Z</time>
      </trkpt>
      <trkpt lat="48.72757" lon="4.58657">
        <ele>112.13</ele>
        <time>2021-08-10T08:24:24Z</time>
      </trkpt>
      <trkpt lat="48.72757" lon="4.58658">
        <ele>112.13</ele>
        <time>2021-08-10T08:24:36Z</time>
      </trkpt>
      <trkpt lat="48.72758" lon="4.58654">
        <ele>112.13</ele>
        <time>2021-08-10T08:24:48Z</time>
      </trkpt>
      <trkpt lat="48.72757" lon="4.58653">
        <ele>112.13</ele>
        <time>2021-08-10T08:24:54Z</time>
      </trkpt>
      <trkpt lat="48.72755" lon="4.58652">
        <ele>111.65</ele>
        <time>2021-08-10T08:25:01Z</time>
      </trkpt>
      <trkpt lat="48.72756" lon="4.58647">
        <ele>111.65</ele>
        <time>2021-08-10T08:25:08Z</time>
      </trkpt>
      <trkpt lat="48.72758" lon="4.58642">
        <ele>111.65</ele>
        <time>2021-08-10T08:25:17Z</time>
      </trkpt>
      <trkpt lat="48.72757" lon="4.5864">
        <ele>111.65</ele>
        <time>2021-08-10T08:25:24Z</time>
      </trkpt>
      <trkpt lat="48.72758" lon="4.58643">
        <ele>111.65</ele>
        <time>2021-08-10T08:25:27Z</time>
      </trkpt>
      <trkpt lat="48.72761" lon="4.58644">
        <ele>111.65</ele>
        <time>2021-08-10T08:25:28Z</time>
      </trkpt>
      <trkpt lat="48.72763" lon="4.58645">
        <ele>111.65</ele>
        <time>2021-08-10T08:25:29Z</time>
      </trkpt>
      <trkpt lat="48.72779" lon="4.58654">
        <ele>111.65</ele>
        <time>2021-08-10T08:25:36Z</time>
      </trkpt>
      <trkpt lat="48.72779" lon="4.58653">
        <ele>111.65</ele>
        <time>2021-08-10T08:25:37Z</time>
      </trkpt>
      <trkpt lat="48.72777" lon="4.58649">
        <ele>111.65</ele>
        <time>2021-08-10T08:25:38Z</time>
      </trkpt>
      <trkpt lat="48.72775" lon="4.58648">
        <ele>111.65</ele>
        <time>2021-08-10T08:25:39Z</time>
      </trkpt>
      <trkpt lat="48.72773" lon="4.58646">
        <ele>111.65</ele>
        <time>2021-08-10T08:25:40Z</time>
      </trkpt>
      <trkpt lat="48.72771" lon="4.58644">
        <ele>112.13</ele>
        <time>2021-08-10T08:25:41Z</time>
      </trkpt>
      <trkpt lat="48.72747" lon="4.58629">
        <ele>112.13</ele>
        <time>2021-08-10T08:25:50Z</time>
      </trkpt>
      <trkpt lat="48.72731" lon="4.58618">
        <ele>110.69</ele>
        <time>2021-08-10T08:25:55Z</time>
      </trkpt>
      <trkpt lat="48.72726" lon="4.58611">
        <ele>110.69</ele>
        <time>2021-08-10T08:25:57Z</time>
      </trkpt>
      <trkpt lat="48.72727" lon="4.58605">
        <ele>110.69</ele>
        <time>2021-08-10T08:25:58Z</time>
      </trkpt>
      <trkpt lat="48.72728" lon="4.58601">
        <ele>110.69</ele>
        <time>2021-08-10T08:25:59Z</time>
      </trkpt>
      <trkpt lat="48.72729" lon="4.58596">
        <ele>110.69</ele>
        <time>2021-08-10T08:26:00Z</time>
      </trkpt>
      <trkpt lat="48.72731" lon="4.58591">
        <ele>110.69</ele>
        <time>2021-08-10T08:26:01Z</time>
      </trkpt>
      <trkpt lat="48.72736" lon="4.58571">
        <ele>110.69</ele>
        <time>2021-08-10T08:26:07Z</time>
      </trkpt>
      <trkpt lat="48.72737" lon="4.58563">
        <ele>110.69</ele>
        <time>2021-08-10T08:26:15Z</time>
      </trkpt>
      <trkpt lat="48.72743" lon="4.58538">
        <ele>110.69</ele>
        <time>2021-08-10T08:26:20Z</time>
      </trkpt>
      <trkpt lat="48.72757" lon="4.58486">
        <ele>110.21</ele>
        <time>2021-08-10T08:26:29Z</time>
      </trkpt>
      <trkpt lat="48.72758" lon="4.58467">
        <ele>110.21</ele>
        <time>2021-08-10T08:26:33Z</time>
      </trkpt>
      <trkpt lat="48.7276" lon="4.58465">
        <ele>110.69</ele>
        <time>2021-08-10T08:26:40Z</time>
      </trkpt>
      <trkpt lat="48.72768" lon="4.58465">
        <ele>110.69</ele>
        <time>2021-08-10T08:26:58Z</time>
      </trkpt>
      <trkpt lat="48.72773" lon="4.58469">
        <ele>110.69</ele>
        <time>2021-08-10T08:27:22Z</time>
      </trkpt>
      <trkpt lat="48.7278" lon="4.58467">
        <ele>110.69</ele>
        <time>2021-08-10T08:27:42Z</time>
      </trkpt>
      <trkpt lat="48.7278" lon="4.58469">
        <ele>110.69</ele>
        <time>2021-08-10T08:28:01Z</time>
      </trkpt>
      <trkpt lat="48.72786" lon="4.58472">
        <ele>110.69</ele>
        <time>2021-08-10T08:28:22Z</time>
      </trkpt>
      <trkpt lat="48.72785" lon="4.58472">
        <ele>110.69</ele>
        <time>2021-08-10T08:28:39Z</time>
      </trkpt>
      <trkpt lat="48.72779" lon="4.58472">
        <ele>110.69</ele>
        <time>2021-08-10T08:28:51Z</time>
      </trkpt>
      <trkpt lat="48.72778" lon="4.58473">
        <ele>110.69</ele>
        <time>2021-08-10T08:28:54Z</time>
      </trkpt>
      <trkpt lat="48.72767" lon="4.58486">
        <ele>109.73</ele>
        <time>2021-08-10T08:29:00Z</time>
      </trkpt>
      <trkpt lat="48.7276" lon="4.58506">
        <ele>110.21</ele>
        <time>2021-08-10T08:29:07Z</time>
      </trkpt>
      <trkpt lat="48.72759" lon="4.58507">
        <ele>110.21</ele>
        <time>2021-08-10T08:29:08Z</time>
      </trkpt>
      <trkpt lat="48.7276" lon="4.58509">
        <ele>110.21</ele>
        <time>2021-08-10T08:29:14Z</time>
      </trkpt>
      <trkpt lat="48.72759" lon="4.58519">
        <ele>110.21</ele>
        <time>2021-08-10T08:29:25Z</time>
      </trkpt>
      <trkpt lat="48.72755" lon="4.58545">
        <ele>110.21</ele>
        <time>2021-08-10T08:29:30Z</time>
      </trkpt>
      <trkpt lat="48.72744" lon="4.58593">
        <ele>110.21</ele>
        <time>2021-08-10T08:29:39Z</time>
      </trkpt>
      <trkpt lat="48.72737" lon="4.58608">
        <ele>111.17</ele>
        <time>2021-08-10T08:29:43Z</time>
      </trkpt>
      <trkpt lat="48.72729" lon="4.58607">
        <ele>111.17</ele>
        <time>2021-08-10T08:29:44Z</time>
      </trkpt>
      <trkpt lat="48.72724" lon="4.58605">
        <ele>111.17</ele>
        <time>2021-08-10T08:29:45Z</time>
      </trkpt>
      <trkpt lat="48.72719" lon="4.58603">
        <ele>111.17</ele>
        <time>2021-08-10T08:29:46Z</time>
      </trkpt>
      <trkpt lat="48.72715" lon="4.586">
        <ele>111.17</ele>
        <time>2021-08-10T08:29:47Z</time>
      </trkpt>
      <trkpt lat="48.72696" lon="4.58589">
        <ele>111.65</ele>
        <time>2021-08-10T08:29:54Z</time>
      </trkpt>
      <trkpt lat="48.72693" lon="4.58587">
        <ele>111.65</ele>
        <time>2021-08-10T08:29:56Z</time>
      </trkpt>
      <trkpt lat="48.72691" lon="4.58585">
        <ele>111.65</ele>
        <time>2021-08-10T08:29:57Z</time>
      </trkpt>
      <trkpt lat="48.7268" lon="4.58579">
        <ele>111.65</ele>
        <time>2021-08-10T08:30:02Z</time>
      </trkpt>
      <trkpt lat="48.72677" lon="4.58576">
        <ele>111.65</ele>
        <time>2021-08-10T08:30:03Z</time>
      </trkpt>
      <trkpt lat="48.72674" lon="4.58572">
        <ele>111.65</ele>
        <time>2021-08-10T08:30:04Z</time>
      </trkpt>
      <trkpt lat="48.7267" lon="4.5857">
        <ele>111.65</ele>
        <time>2021-08-10T08:30:05Z</time>
      </trkpt>
      <trkpt lat="48.72667" lon="4.58567">
        <ele>111.65</ele>
        <time>2021-08-10T08:30:06Z</time>
      </trkpt>
      <trkpt lat="48.72649" lon="4.58555">
        <ele>111.65</ele>
        <time>2021-08-10T08:30:11Z</time>
      </trkpt>
      <trkpt lat="48.72647" lon="4.5855">
        <ele>111.65</ele>
        <time>2021-08-10T08:30:12Z</time>
      </trkpt>
      <trkpt lat="48.72646" lon="4.58545">
        <ele>111.65</ele>
        <time>2021-08-10T08:30:13Z</time>
      </trkpt>
      <trkpt lat="48.72646" lon="4.58542">
        <ele>111.65</ele>
        <time>2021-08-10T08:30:14Z</time>
      </trkpt>
      <trkpt lat="48.72646" lon="4.58539">
        <ele>111.65</ele>
        <time>2021-08-10T08:30:15Z</time>
      </trkpt>
      <trkpt lat="48.72651" lon="4.58516">
        <ele>111.65</ele>
        <time>2021-08-10T08:30:20Z</time>
      </trkpt>
      <trkpt lat="48.72653" lon="4.58496">
        <ele>111.65</ele>
        <time>2021-08-10T08:30:24Z</time>
      </trkpt>
      <trkpt lat="48.72651" lon="4.58493">
        <ele>111.65</ele>
        <time>2021-08-10T08:30:25Z</time>
      </trkpt>
      <trkpt lat="48.72622" lon="4.58472">
        <ele>110.21</ele>
        <time>2021-08-10T08:30:33Z</time>
      </trkpt>
      <trkpt lat="48.72621" lon="4.58466">
        <ele>110.21</ele>
        <time>2021-08-10T08:30:34Z</time>
      </trkpt>
      <trkpt lat="48.72621" lon="4.58462">
        <ele>110.21</ele>
        <time>2021-08-10T08:30:35Z</time>
      </trkpt>
      <trkpt lat="48.72623" lon="4.58457">
        <ele>110.21</ele>
        <time>2021-08-10T08:30:36Z</time>
      </trkpt>
      <trkpt lat="48.72628" lon="4.58441">
        <ele>110.21</ele>
        <time>2021-08-10T08:30:39Z</time>
      </trkpt>
      <trkpt lat="48.72643" lon="4.5839">
        <ele>110.21</ele>
        <time>2021-08-10T08:30:47Z</time>
      </trkpt>
      <trkpt lat="48.72663" lon="4.58313">
        <ele>109.73</ele>
        <time>2021-08-10T08:30:58Z</time>
      </trkpt>
      <trkpt lat="48.72686" lon="4.58228">
        <ele>108.77</ele>
        <time>2021-08-10T08:31:09Z</time>
      </trkpt>
      <trkpt lat="48.72707" lon="4.58173">
        <ele>108.77</ele>
        <time>2021-08-10T08:31:17Z</time>
      </trkpt>
      <trkpt lat="48.7271" lon="4.58169">
        <ele>108.77</ele>
        <time>2021-08-10T08:31:18Z</time>
      </trkpt>
      <trkpt lat="48.72713" lon="4.58164">
        <ele>108.77</ele>
        <time>2021-08-10T08:31:19Z</time>
      </trkpt>
      <trkpt lat="48.72719" lon="4.58159">
        <ele>108.77</ele>
        <time>2021-08-10T08:31:20Z</time>
      </trkpt>
      <trkpt lat="48.72722" lon="4.58155">
        <ele>108.77</ele>
        <time>2021-08-10T08:31:21Z</time>
      </trkpt>
      <trkpt lat="48.72724" lon="4.58148">
        <ele>108.77</ele>
        <time>2021-08-10T08:31:22Z</time>
      </trkpt>
      <trkpt lat="48.72726" lon="4.5814">
        <ele>108.77</ele>
        <time>2021-08-10T08:31:23Z</time>
      </trkpt>
      <trkpt lat="48.72727" lon="4.58133">
        <ele>108.77</ele>
        <time>2021-08-10T08:31:24Z</time>
      </trkpt>
      <trkpt lat="48.72728" lon="4.58123">
        <ele>108.77</ele>
        <time>2021-08-10T08:31:25Z</time>
      </trkpt>
      <trkpt lat="48.72728" lon="4.58117">
        <ele>108.77</ele>
        <time>2021-08-10T08:31:26Z</time>
      </trkpt>
      <trkpt lat="48.72739" lon="4.58061">
        <ele>108.77</ele>
        <time>2021-08-10T08:31:33Z</time>
      </trkpt>
      <trkpt lat="48.72762" lon="4.57981">
        <ele>108.77</ele>
        <time>2021-08-10T08:31:43Z</time>
      </trkpt>
      <trkpt lat="48.72792" lon="4.57881">
        <ele>108.29</ele>
        <time>2021-08-10T08:31:55Z</time>
      </trkpt>
      <trkpt lat="48.72815" lon="4.57802">
        <ele>108.29</ele>
        <time>2021-08-10T08:32:05Z</time>
      </trkpt>
      <trkpt lat="48.72835" lon="4.57732">
        <ele>110.69</ele>
        <time>2021-08-10T08:32:15Z</time>
      </trkpt>
      <trkpt lat="48.72841" lon="4.5771">
        <ele>110.69</ele>
        <time>2021-08-10T08:32:18Z</time>
      </trkpt>
      <trkpt lat="48.72864" lon="4.57631">
        <ele>110.69</ele>
        <time>2021-08-10T08:32:29Z</time>
      </trkpt>
      <trkpt lat="48.72883" lon="4.57565">
        <ele>109.25</ele>
        <time>2021-08-10T08:32:37Z</time>
      </trkpt>
      <trkpt lat="48.72892" lon="4.57533">
        <ele>109.25</ele>
        <time>2021-08-10T08:32:42Z</time>
      </trkpt>
      <trkpt lat="48.72891" lon="4.57529">
        <ele>109.25</ele>
        <time>2021-08-10T08:32:43Z</time>
      </trkpt>
      <trkpt lat="48.72888" lon="4.57528">
        <ele>108.77</ele>
        <time>2021-08-10T08:32:44Z</time>
      </trkpt>
      <trkpt lat="48.72886" lon="4.5753">
        <ele>108.29</ele>
        <time>2021-08-10T08:32:45Z</time>
      </trkpt>
      <trkpt lat="48.72884" lon="4.57534">
        <ele>108.29</ele>
        <time>2021-08-10T08:32:46Z</time>
      </trkpt>
      <trkpt lat="48.72883" lon="4.57539">
        <ele>108.77</ele>
        <time>2021-08-10T08:32:47Z</time>
      </trkpt>
      <trkpt lat="48.72871" lon="4.57586">
        <ele>108.29</ele>
        <time>2021-08-10T08:32:55Z</time>
      </trkpt>
      <trkpt lat="48.72866" lon="4.57597">
        <ele>108.29</ele>
        <time>2021-08-10T08:32:58Z</time>
      </trkpt>
      <trkpt lat="48.72864" lon="4.57595">
        <ele>108.29</ele>
        <time>2021-08-10T08:32:59Z</time>
      </trkpt>
      <trkpt lat="48.72864" lon="4.57591">
        <ele>108.29</ele>
        <time>2021-08-10T08:33:00Z</time>
      </trkpt>
      <trkpt lat="48.72865" lon="4.57586">
        <ele>108.29</ele>
        <time>2021-08-10T08:33:01Z</time>
      </trkpt>
      <trkpt lat="48.72866" lon="4.57581">
        <ele>108.29</ele>
        <time>2021-08-10T08:33:02Z</time>
      </trkpt>
      <trkpt lat="48.72877" lon="4.57553">
        <ele>108.29</ele>
        <time>2021-08-10T08:33:08Z</time>
      </trkpt>
      <trkpt lat="48.72878" lon="4.57547">
        <ele>108.29</ele>
        <time>2021-08-10T08:33:09Z</time>
      </trkpt>
      <trkpt lat="48.72879" lon="4.57541">
        <ele>108.29</ele>
        <time>2021-08-10T08:33:10Z</time>
      </trkpt>
      <trkpt lat="48.7288" lon="4.57535">
        <ele>108.29</ele>
        <time>2021-08-10T08:33:11Z</time>
      </trkpt>
      <trkpt lat="48.72878" lon="4.57528">
        <ele>108.29</ele>
        <time>2021-08-10T08:33:12Z</time>
      </trkpt>
      <trkpt lat="48.72876" lon="4.5752">
        <ele>107.81</ele>
        <time>2021-08-10T08:33:13Z</time>
      </trkpt>
      <trkpt lat="48.72874" lon="4.57515">
        <ele>107.81</ele>
        <time>2021-08-10T08:33:14Z</time>
      </trkpt>
      <trkpt lat="48.72862" lon="4.57481">
        <ele>107.32</ele>
        <time>2021-08-10T08:33:19Z</time>
      </trkpt>
      <trkpt lat="48.72858" lon="4.57475">
        <ele>107.32</ele>
        <time>2021-08-10T08:33:20Z</time>
      </trkpt>
      <trkpt lat="48.72847" lon="4.57464">
        <ele>107.32</ele>
        <time>2021-08-10T08:33:23Z</time>
      </trkpt>
      <trkpt lat="48.72843" lon="4.57461">
        <ele>107.32</ele>
        <time>2021-08-10T08:33:24Z</time>
      </trkpt>
      <trkpt lat="48.72838" lon="4.57458">
        <ele>106.84</ele>
        <time>2021-08-10T08:33:28Z</time>
      </trkpt>
      <trkpt lat="48.72838" lon="4.57462">
        <ele>106.84</ele>
        <time>2021-08-10T08:33:48Z</time>
      </trkpt>
      <trkpt lat="48.72838" lon="4.57464">
        <ele>106.84</ele>
        <time>2021-08-10T08:34:03Z</time>
      </trkpt>
      <trkpt lat="48.72832" lon="4.57461">
        <ele>106.84</ele>
        <time>2021-08-10T08:34:12Z</time>
      </trkpt>
      <trkpt lat="48.72826" lon="4.57456">
        <ele>106.84</ele>
        <time>2021-08-10T08:34:14Z</time>
      </trkpt>
      <trkpt lat="48.72822" lon="4.57453">
        <ele>106.84</ele>
        <time>2021-08-10T08:34:15Z</time>
      </trkpt>
      <trkpt lat="48.72818" lon="4.57451">
        <ele>106.84</ele>
        <time>2021-08-10T08:34:16Z</time>
      </trkpt>
      <trkpt lat="48.72814" lon="4.57448">
        <ele>106.84</ele>
        <time>2021-08-10T08:34:17Z</time>
      </trkpt>
      <trkpt lat="48.72809" lon="4.57445">
        <ele>106.84</ele>
        <time>2021-08-10T08:34:18Z</time>
      </trkpt>
      <trkpt lat="48.728" lon="4.5744">
        <ele>106.36</ele>
        <time>2021-08-10T08:34:20Z</time>
      </trkpt>
      <trkpt lat="48.72795" lon="4.57438">
        <ele>106.36</ele>
        <time>2021-08-10T08:34:21Z</time>
      </trkpt>
      <trkpt lat="48.72774" lon="4.57428">
        <ele>106.36</ele>
        <time>2021-08-10T08:34:26Z</time>
      </trkpt>
      <trkpt lat="48.72752" lon="4.57422">
        <ele>106.36</ele>
        <time>2021-08-10T08:34:30Z</time>
      </trkpt>
      <trkpt lat="48.72746" lon="4.57421">
        <ele>106.36</ele>
        <time>2021-08-10T08:34:31Z</time>
      </trkpt>
      <trkpt lat="48.72741" lon="4.5742">
        <ele>106.36</ele>
        <time>2021-08-10T08:34:32Z</time>
      </trkpt>
      <trkpt lat="48.72736" lon="4.57419">
        <ele>106.36</ele>
        <time>2021-08-10T08:34:33Z</time>
      </trkpt>
      <trkpt lat="48.72731" lon="4.57418">
        <ele>106.36</ele>
        <time>2021-08-10T08:34:34Z</time>
      </trkpt>
      <trkpt lat="48.72725" lon="4.57417">
        <ele>106.36</ele>
        <time>2021-08-10T08:34:35Z</time>
      </trkpt>
      <trkpt lat="48.72684" lon="4.57415">
        <ele>106.36</ele>
        <time>2021-08-10T08:34:43Z</time>
      </trkpt>
      <trkpt lat="48.72679" lon="4.57415">
        <ele>106.36</ele>
        <time>2021-08-10T08:34:44Z</time>
      </trkpt>
      <trkpt lat="48.72674" lon="4.57414">
        <ele>106.36</ele>
        <time>2021-08-10T08:34:45Z</time>
      </trkpt>
      <trkpt lat="48.72669" lon="4.57413">
        <ele>105.88</ele>
        <time>2021-08-10T08:34:46Z</time>
      </trkpt>
      <trkpt lat="48.72665" lon="4.57413">
        <ele>105.88</ele>
        <time>2021-08-10T08:34:47Z</time>
      </trkpt>
      <trkpt lat="48.7266" lon="4.57413">
        <ele>105.88</ele>
        <time>2021-08-10T08:34:48Z</time>
      </trkpt>
      <trkpt lat="48.72656" lon="4.57413">
        <ele>105.88</ele>
        <time>2021-08-10T08:34:49Z</time>
      </trkpt>
      <trkpt lat="48.72652" lon="4.5741">
        <ele>105.88</ele>
        <time>2021-08-10T08:34:50Z</time>
      </trkpt>
      <trkpt lat="48.72648" lon="4.57407">
        <ele>105.88</ele>
        <time>2021-08-10T08:34:51Z</time>
      </trkpt>
      <trkpt lat="48.72645" lon="4.57403">
        <ele>105.88</ele>
        <time>2021-08-10T08:34:52Z</time>
      </trkpt>
      <trkpt lat="48.72641" lon="4.574">
        <ele>105.88</ele>
        <time>2021-08-10T08:34:53Z</time>
      </trkpt>
      <trkpt lat="48.72638" lon="4.57397">
        <ele>105.88</ele>
        <time>2021-08-10T08:34:54Z</time>
      </trkpt>
      <trkpt lat="48.72635" lon="4.57392">
        <ele>105.88</ele>
        <time>2021-08-10T08:34:55Z</time>
      </trkpt>
      <trkpt lat="48.72633" lon="4.57388">
        <ele>105.88</ele>
        <time>2021-08-10T08:34:56Z</time>
      </trkpt>
      <trkpt lat="48.72613" lon="4.57363">
        <ele>105.4</ele>
        <time>2021-08-10T08:35:03Z</time>
      </trkpt>
      <trkpt lat="48.72597" lon="4.57332">
        <ele>105.4</ele>
        <time>2021-08-10T08:35:10Z</time>
      </trkpt>
      <trkpt lat="48.7259" lon="4.573">
        <ele>105.4</ele>
        <time>2021-08-10T08:35:16Z</time>
      </trkpt>
      <trkpt lat="48.72582" lon="4.57272">
        <ele>105.4</ele>
        <time>2021-08-10T08:35:21Z</time>
      </trkpt>
      <trkpt lat="48.72581" lon="4.57266">
        <ele>105.4</ele>
        <time>2021-08-10T08:35:22Z</time>
      </trkpt>
      <trkpt lat="48.72579" lon="4.57253">
        <ele>105.4</ele>
        <time>2021-08-10T08:35:24Z</time>
      </trkpt>
      <trkpt lat="48.72561" lon="4.57198">
        <ele>105.4</ele>
        <time>2021-08-10T08:35:33Z</time>
      </trkpt>
      <trkpt lat="48.7256" lon="4.57192">
        <ele>105.4</ele>
        <time>2021-08-10T08:35:34Z</time>
      </trkpt>
      <trkpt lat="48.72558" lon="4.57186">
        <ele>105.4</ele>
        <time>2021-08-10T08:35:35Z</time>
      </trkpt>
      <trkpt lat="48.72556" lon="4.5718">
        <ele>105.4</ele>
        <time>2021-08-10T08:35:36Z</time>
      </trkpt>
      <trkpt lat="48.72555" lon="4.57174">
        <ele>105.4</ele>
        <time>2021-08-10T08:35:37Z</time>
      </trkpt>
      <trkpt lat="48.72553" lon="4.57168">
        <ele>105.4</ele>
        <time>2021-08-10T08:35:38Z</time>
      </trkpt>
      <trkpt lat="48.72552" lon="4.57163">
        <ele>105.4</ele>
        <time>2021-08-10T08:35:39Z</time>
      </trkpt>
      <trkpt lat="48.7255" lon="4.57157">
        <ele>105.4</ele>
        <time>2021-08-10T08:35:40Z</time>
      </trkpt>
      <trkpt lat="48.72541" lon="4.57128">
        <ele>105.4</ele>
        <time>2021-08-10T08:35:45Z</time>
      </trkpt>
      <trkpt lat="48.72523" lon="4.57061">
        <ele>105.4</ele>
        <time>2021-08-10T08:35:56Z</time>
      </trkpt>
      <trkpt lat="48.72513" lon="4.57024">
        <ele>105.4</ele>
        <time>2021-08-10T08:36:02Z</time>
      </trkpt>
      <trkpt lat="48.72502" lon="4.56986">
        <ele>105.4</ele>
        <time>2021-08-10T08:36:08Z</time>
      </trkpt>
      <trkpt lat="48.72501" lon="4.56979">
        <ele>105.4</ele>
        <time>2021-08-10T08:36:09Z</time>
      </trkpt>
      <trkpt lat="48.72499" lon="4.56958">
        <ele>105.4</ele>
        <time>2021-08-10T08:36:12Z</time>
      </trkpt>
      <trkpt lat="48.72498" lon="4.56951">
        <ele>105.4</ele>
        <time>2021-08-10T08:36:13Z</time>
      </trkpt>
      <trkpt lat="48.72497" lon="4.56944">
        <ele>105.4</ele>
        <time>2021-08-10T08:36:14Z</time>
      </trkpt>
      <trkpt lat="48.72496" lon="4.56938">
        <ele>105.4</ele>
        <time>2021-08-10T08:36:15Z</time>
      </trkpt>
      <trkpt lat="48.72495" lon="4.56931">
        <ele>105.4</ele>
        <time>2021-08-10T08:36:16Z</time>
      </trkpt>
      <trkpt lat="48.72484" lon="4.56862">
        <ele>105.4</ele>
        <time>2021-08-10T08:36:26Z</time>
      </trkpt>
      <trkpt lat="48.72475" lon="4.56824">
        <ele>105.4</ele>
        <time>2021-08-10T08:36:34Z</time>
      </trkpt>
      <trkpt lat="48.72474" lon="4.56819">
        <ele>105.4</ele>
        <time>2021-08-10T08:36:36Z</time>
      </trkpt>
      <trkpt lat="48.72474" lon="4.56817">
        <ele>105.4</ele>
        <time>2021-08-10T08:36:37Z</time>
      </trkpt>
      <trkpt lat="48.72475" lon="4.56815">
        <ele>105.4</ele>
        <time>2021-08-10T08:36:38Z</time>
      </trkpt>
      <trkpt lat="48.72482" lon="4.56807">
        <ele>106.36</ele>
        <time>2021-08-10T08:36:44Z</time>
      </trkpt>
      <trkpt lat="48.7248" lon="4.56799">
        <ele>107.81</ele>
        <time>2021-08-10T08:36:52Z</time>
      </trkpt>
      <trkpt lat="48.7248" lon="4.56792">
        <ele>109.73</ele>
        <time>2021-08-10T08:36:59Z</time>
      </trkpt>
      <trkpt lat="48.72479" lon="4.5679">
        <ele>109.73</ele>
        <time>2021-08-10T08:37:01Z</time>
      </trkpt>
      <trkpt lat="48.72475" lon="4.56784">
        <ele>109.73</ele>
        <time>2021-08-10T08:37:08Z</time>
      </trkpt>
      <trkpt lat="48.72472" lon="4.56781">
        <ele>108.29</ele>
        <time>2021-08-10T08:37:14Z</time>
      </trkpt>
      <trkpt lat="48.72472" lon="4.56781">
        <ele>107.81</ele>
        <time>2021-08-10T08:37:22Z</time>
      </trkpt>
      <trkpt lat="48.72471" lon="4.56781">
        <ele>106.84</ele>
        <time>2021-08-10T08:37:31Z</time>
      </trkpt>
      <trkpt lat="48.7247" lon="4.56779">
        <ele>106.36</ele>
        <time>2021-08-10T08:37:39Z</time>
      </trkpt>
      <trkpt lat="48.72469" lon="4.56776">
        <ele>105.88</ele>
        <time>2021-08-10T08:37:47Z</time>
      </trkpt>
      <trkpt lat="48.72466" lon="4.56778">
        <ele>105.4</ele>
        <time>2021-08-10T08:37:54Z</time>
      </trkpt>
      <trkpt lat="48.72463" lon="4.56783">
        <ele>105.4</ele>
        <time>2021-08-10T08:38:01Z</time>
      </trkpt>
      <trkpt lat="48.7246" lon="4.56783">
        <ele>104.92</ele>
        <time>2021-08-10T08:38:07Z</time>
      </trkpt>
      <trkpt lat="48.72459" lon="4.56783">
        <ele>104.92</ele>
        <time>2021-08-10T08:38:08Z</time>
      </trkpt>
      <trkpt lat="48.72452" lon="4.56773">
        <ele>104.92</ele>
        <time>2021-08-10T08:38:15Z</time>
      </trkpt>
      <trkpt lat="48.72451" lon="4.5677">
        <ele>104.92</ele>
        <time>2021-08-10T08:38:16Z</time>
      </trkpt>
      <trkpt lat="48.72449" lon="4.56767">
        <ele>104.92</ele>
        <time>2021-08-10T08:38:17Z</time>
      </trkpt>
      <trkpt lat="48.72448" lon="4.56764">
        <ele>104.92</ele>
        <time>2021-08-10T08:38:18Z</time>
      </trkpt>
      <trkpt lat="48.72446" lon="4.56761">
        <ele>104.92</ele>
        <time>2021-08-10T08:38:19Z</time>
      </trkpt>
      <trkpt lat="48.72445" lon="4.56757">
        <ele>104.92</ele>
        <time>2021-08-10T08:38:20Z</time>
      </trkpt>
      <trkpt lat="48.72443" lon="4.56753">
        <ele>104.92</ele>
        <time>2021-08-10T08:38:21Z</time>
      </trkpt>
      <trkpt lat="48.72442" lon="4.56748">
        <ele>104.92</ele>
        <time>2021-08-10T08:38:22Z</time>
      </trkpt>
      <trkpt lat="48.72435" lon="4.56723">
        <ele>104.92</ele>
        <time>2021-08-10T08:38:28Z</time>
      </trkpt>
      <trkpt lat="48.72436" lon="4.56718">
        <ele>104.92</ele>
        <time>2021-08-10T08:38:29Z</time>
      </trkpt>
      <trkpt lat="48.72437" lon="4.56714">
        <ele>104.92</ele>
        <time>2021-08-10T08:38:30Z</time>
      </trkpt>
      <trkpt lat="48.72439" lon="4.5671">
        <ele>104.92</ele>
        <time>2021-08-10T08:38:31Z</time>
      </trkpt>
      <trkpt lat="48.72441" lon="4.56707">
        <ele>105.88</ele>
        <time>2021-08-10T08:38:32Z</time>
      </trkpt>
      <trkpt lat="48.72444" lon="4.56704">
        <ele>105.88</ele>
        <time>2021-08-10T08:38:33Z</time>
      </trkpt>
      <trkpt lat="48.72448" lon="4.56703">
        <ele>105.88</ele>
        <time>2021-08-10T08:38:34Z</time>
      </trkpt>
      <trkpt lat="48.72452" lon="4.56701">
        <ele>105.88</ele>
        <time>2021-08-10T08:38:35Z</time>
      </trkpt>
      <trkpt lat="48.72481" lon="4.5669">
        <ele>105.88</ele>
        <time>2021-08-10T08:38:42Z</time>
      </trkpt>
      <trkpt lat="48.72522" lon="4.56666">
        <ele>105.88</ele>
        <time>2021-08-10T08:38:51Z</time>
      </trkpt>
      <trkpt lat="48.7257" lon="4.56634">
        <ele>105.88</ele>
        <time>2021-08-10T08:39:02Z</time>
      </trkpt>
      <trkpt lat="48.72614" lon="4.56598">
        <ele>105.88</ele>
        <time>2021-08-10T08:39:12Z</time>
      </trkpt>
      <trkpt lat="48.72658" lon="4.56554">
        <ele>105.88</ele>
        <time>2021-08-10T08:39:23Z</time>
      </trkpt>
      <trkpt lat="48.72707" lon="4.56488">
        <ele>105.88</ele>
        <time>2021-08-10T08:39:36Z</time>
      </trkpt>
      <trkpt lat="48.72719" lon="4.56473">
        <ele>105.88</ele>
        <time>2021-08-10T08:39:39Z</time>
      </trkpt>
      <trkpt lat="48.72722" lon="4.56467">
        <ele>105.88</ele>
        <time>2021-08-10T08:39:40Z</time>
      </trkpt>
      <trkpt lat="48.72725" lon="4.56461">
        <ele>105.88</ele>
        <time>2021-08-10T08:39:41Z</time>
      </trkpt>
      <trkpt lat="48.72727" lon="4.56454">
        <ele>105.88</ele>
        <time>2021-08-10T08:39:42Z</time>
      </trkpt>
      <trkpt lat="48.72728" lon="4.56446">
        <ele>105.88</ele>
        <time>2021-08-10T08:39:43Z</time>
      </trkpt>
      <trkpt lat="48.72728" lon="4.56438">
        <ele>105.88</ele>
        <time>2021-08-10T08:39:44Z</time>
      </trkpt>
      <trkpt lat="48.72728" lon="4.56431">
        <ele>105.88</ele>
        <time>2021-08-10T08:39:45Z</time>
      </trkpt>
      <trkpt lat="48.72727" lon="4.56422">
        <ele>105.88</ele>
        <time>2021-08-10T08:39:46Z</time>
      </trkpt>
      <trkpt lat="48.72719" lon="4.56332">
        <ele>105.88</ele>
        <time>2021-08-10T08:39:58Z</time>
      </trkpt>
      <trkpt lat="48.72714" lon="4.56248">
        <ele>105.88</ele>
        <time>2021-08-10T08:40:09Z</time>
      </trkpt>
      <trkpt lat="48.72711" lon="4.56178">
        <ele>104.44</ele>
        <time>2021-08-10T08:40:18Z</time>
      </trkpt>
      <trkpt lat="48.72706" lon="4.56081">
        <ele>104.44</ele>
        <time>2021-08-10T08:40:30Z</time>
      </trkpt>
      <trkpt lat="48.727" lon="4.56014">
        <ele>104.44</ele>
        <time>2021-08-10T08:40:39Z</time>
      </trkpt>
      <trkpt lat="48.72695" lon="4.55968">
        <ele>104.44</ele>
        <time>2021-08-10T08:40:46Z</time>
      </trkpt>
      <trkpt lat="48.72694" lon="4.55961">
        <ele>104.44</ele>
        <time>2021-08-10T08:40:48Z</time>
      </trkpt>
      <trkpt lat="48.72695" lon="4.55959">
        <ele>104.44</ele>
        <time>2021-08-10T08:40:49Z</time>
      </trkpt>
      <trkpt lat="48.72696" lon="4.55955">
        <ele>104.44</ele>
        <time>2021-08-10T08:40:54Z</time>
      </trkpt>
      <trkpt lat="48.72695" lon="4.55953">
        <ele>104.44</ele>
        <time>2021-08-10T08:40:55Z</time>
      </trkpt>
      <trkpt lat="48.72693" lon="4.55928">
        <ele>104.44</ele>
        <time>2021-08-10T08:41:01Z</time>
      </trkpt>
      <trkpt lat="48.72691" lon="4.55923">
        <ele>104.44</ele>
        <time>2021-08-10T08:41:05Z</time>
      </trkpt>
      <trkpt lat="48.72691" lon="4.55921">
        <ele>104.44</ele>
        <time>2021-08-10T08:41:06Z</time>
      </trkpt>
      <trkpt lat="48.72691" lon="4.55919">
        <ele>104.44</ele>
        <time>2021-08-10T08:41:07Z</time>
      </trkpt>
      <trkpt lat="48.72689" lon="4.55895">
        <ele>104.44</ele>
        <time>2021-08-10T08:41:13Z</time>
      </trkpt>
      <trkpt lat="48.72685" lon="4.55864">
        <ele>104.44</ele>
        <time>2021-08-10T08:41:18Z</time>
      </trkpt>
      <trkpt lat="48.72683" lon="4.55857">
        <ele>104.44</ele>
        <time>2021-08-10T08:41:19Z</time>
      </trkpt>
      <trkpt lat="48.72666" lon="4.55788">
        <ele>104.44</ele>
        <time>2021-08-10T08:41:29Z</time>
      </trkpt>
      <trkpt lat="48.72648" lon="4.5572">
        <ele>105.88</ele>
        <time>2021-08-10T08:41:39Z</time>
      </trkpt>
      <trkpt lat="48.72627" lon="4.55651">
        <ele>106.84</ele>
        <time>2021-08-10T08:41:50Z</time>
      </trkpt>
      <trkpt lat="48.72605" lon="4.55579">
        <ele>107.32</ele>
        <time>2021-08-10T08:42:01Z</time>
      </trkpt>
      <trkpt lat="48.72587" lon="4.55521">
        <ele>107.32</ele>
        <time>2021-08-10T08:42:10Z</time>
      </trkpt>
      <trkpt lat="48.72576" lon="4.55483">
        <ele>107.81</ele>
        <time>2021-08-10T08:42:16Z</time>
      </trkpt>
      <trkpt lat="48.72573" lon="4.55446">
        <ele>108.77</ele>
        <time>2021-08-10T08:42:23Z</time>
      </trkpt>
      <trkpt lat="48.72573" lon="4.55444">
        <ele>108.77</ele>
        <time>2021-08-10T08:42:27Z</time>
      </trkpt>
      <trkpt lat="48.72574" lon="4.55441">
        <ele>108.77</ele>
        <time>2021-08-10T08:42:28Z</time>
      </trkpt>
      <trkpt lat="48.72574" lon="4.55438">
        <ele>108.77</ele>
        <time>2021-08-10T08:42:29Z</time>
      </trkpt>
      <trkpt lat="48.72575" lon="4.554">
        <ele>108.77</ele>
        <time>2021-08-10T08:42:35Z</time>
      </trkpt>
      <trkpt lat="48.72577" lon="4.55321">
        <ele>108.77</ele>
        <time>2021-08-10T08:42:46Z</time>
      </trkpt>
      <trkpt lat="48.72576" lon="4.55307">
        <ele>109.25</ele>
        <time>2021-08-10T08:42:48Z</time>
      </trkpt>
      <trkpt lat="48.72575" lon="4.553">
        <ele>109.25</ele>
        <time>2021-08-10T08:42:49Z</time>
      </trkpt>
      <trkpt lat="48.72574" lon="4.55294">
        <ele>109.25</ele>
        <time>2021-08-10T08:42:50Z</time>
      </trkpt>
      <trkpt lat="48.72572" lon="4.55288">
        <ele>109.25</ele>
        <time>2021-08-10T08:42:51Z</time>
      </trkpt>
      <trkpt lat="48.72571" lon="4.55282">
        <ele>109.25</ele>
        <time>2021-08-10T08:42:52Z</time>
      </trkpt>
      <trkpt lat="48.72553" lon="4.55222">
        <ele>111.17</ele>
        <time>2021-08-10T08:43:02Z</time>
      </trkpt>
      <trkpt lat="48.72538" lon="4.55169">
        <ele>111.17</ele>
        <time>2021-08-10T08:43:11Z</time>
      </trkpt>
      <trkpt lat="48.72522" lon="4.55107">
        <ele>112.61</ele>
        <time>2021-08-10T08:43:21Z</time>
      </trkpt>
      <trkpt lat="48.72508" lon="4.55051">
        <ele>112.61</ele>
        <time>2021-08-10T08:43:30Z</time>
      </trkpt>
      <trkpt lat="48.72494" lon="4.54989">
        <ele>113.09</ele>
        <time>2021-08-10T08:43:40Z</time>
      </trkpt>
      <trkpt lat="48.72489" lon="4.54965">
        <ele>113.57</ele>
        <time>2021-08-10T08:43:44Z</time>
      </trkpt>
      <trkpt lat="48.72469" lon="4.54892">
        <ele>114.05</ele>
        <time>2021-08-10T08:43:56Z</time>
      </trkpt>
      <trkpt lat="48.72453" lon="4.54841">
        <ele>115.98</ele>
        <time>2021-08-10T08:44:06Z</time>
      </trkpt>
      <trkpt lat="48.7244" lon="4.54826">
        <ele>116.94</ele>
        <time>2021-08-10T08:44:11Z</time>
      </trkpt>
      <trkpt lat="48.72414" lon="4.54833">
        <ele>116.94</ele>
        <time>2021-08-10T08:44:18Z</time>
      </trkpt>
      <trkpt lat="48.7238" lon="4.5485">
        <ele>116.46</ele>
        <time>2021-08-10T08:44:26Z</time>
      </trkpt>
      <trkpt lat="48.72376" lon="4.54852">
        <ele>116.46</ele>
        <time>2021-08-10T08:44:27Z</time>
      </trkpt>
      <trkpt lat="48.72336" lon="4.54875">
        <ele>117.9</ele>
        <time>2021-08-10T08:44:37Z</time>
      </trkpt>
      <trkpt lat="48.72311" lon="4.5489">
        <ele>118.86</ele>
        <time>2021-08-10T08:44:46Z</time>
      </trkpt>
      <trkpt lat="48.72289" lon="4.54904">
        <ele>120.78</ele>
        <time>2021-08-10T08:44:56Z</time>
      </trkpt>
      <trkpt lat="48.72269" lon="4.54918">
        <ele>122.71</ele>
        <time>2021-08-10T08:45:06Z</time>
      </trkpt>
      <trkpt lat="48.7224" lon="4.54936">
        <ele>125.11</ele>
        <time>2021-08-10T08:45:20Z</time>
      </trkpt>
      <trkpt lat="48.72208" lon="4.54948">
        <ele>126.55</ele>
        <time>2021-08-10T08:45:33Z</time>
      </trkpt>
      <trkpt lat="48.72175" lon="4.54947">
        <ele>127.03</ele>
        <time>2021-08-10T08:45:42Z</time>
      </trkpt>
      <trkpt lat="48.72171" lon="4.54946">
        <ele>127.03</ele>
        <time>2021-08-10T08:45:43Z</time>
      </trkpt>
      <trkpt lat="48.72155" lon="4.54939">
        <ele>127.03</ele>
        <time>2021-08-10T08:45:47Z</time>
      </trkpt>
      <trkpt lat="48.72116" lon="4.54922">
        <ele>127.03</ele>
        <time>2021-08-10T08:45:56Z</time>
      </trkpt>
      <trkpt lat="48.72112" lon="4.54921">
        <ele>127.03</ele>
        <time>2021-08-10T08:45:57Z</time>
      </trkpt>
      <trkpt lat="48.72107" lon="4.5492">
        <ele>127.03</ele>
        <time>2021-08-10T08:45:58Z</time>
      </trkpt>
      <trkpt lat="48.7207" lon="4.54901">
        <ele>127.03</ele>
        <time>2021-08-10T08:46:07Z</time>
      </trkpt>
      <trkpt lat="48.72021" lon="4.54889">
        <ele>127.51</ele>
        <time>2021-08-10T08:46:18Z</time>
      </trkpt>
      <trkpt lat="48.71978" lon="4.54887">
        <ele>127.99</ele>
        <time>2021-08-10T08:46:28Z</time>
      </trkpt>
      <trkpt lat="48.71921" lon="4.54885">
        <ele>128.47</ele>
        <time>2021-08-10T08:46:41Z</time>
      </trkpt>
      <trkpt lat="48.71894" lon="4.54877">
        <ele>128.47</ele>
        <time>2021-08-10T08:46:47Z</time>
      </trkpt>
      <trkpt lat="48.71872" lon="4.5486">
        <ele>128.95</ele>
        <time>2021-08-10T08:46:52Z</time>
      </trkpt>
      <trkpt lat="48.71843" lon="4.54824">
        <ele>129.43</ele>
        <time>2021-08-10T08:47:01Z</time>
      </trkpt>
      <trkpt lat="48.71812" lon="4.54787">
        <ele>130.88</ele>
        <time>2021-08-10T08:47:11Z</time>
      </trkpt>
      <trkpt lat="48.71782" lon="4.54761">
        <ele>131.84</ele>
        <time>2021-08-10T08:47:20Z</time>
      </trkpt>
      <trkpt lat="48.7174" lon="4.54737">
        <ele>133.28</ele>
        <time>2021-08-10T08:47:32Z</time>
      </trkpt>
      <trkpt lat="48.71719" lon="4.54724">
        <ele>134.24</ele>
        <time>2021-08-10T08:47:39Z</time>
      </trkpt>
      <trkpt lat="48.71692" lon="4.54706">
        <ele>134.72</ele>
        <time>2021-08-10T08:47:47Z</time>
      </trkpt>
      <trkpt lat="48.7165" lon="4.54668">
        <ele>134.72</ele>
        <time>2021-08-10T08:47:58Z</time>
      </trkpt>
      <trkpt lat="48.71603" lon="4.54624">
        <ele>134.72</ele>
        <time>2021-08-10T08:48:09Z</time>
      </trkpt>
      <trkpt lat="48.71585" lon="4.54607">
        <ele>133.28</ele>
        <time>2021-08-10T08:48:13Z</time>
      </trkpt>
      <trkpt lat="48.71531" lon="4.54567">
        <ele>132.8</ele>
        <time>2021-08-10T08:48:24Z</time>
      </trkpt>
      <trkpt lat="48.71479" lon="4.54533">
        <ele>131.84</ele>
        <time>2021-08-10T08:48:34Z</time>
      </trkpt>
      <trkpt lat="48.71463" lon="4.54524">
        <ele>131.84</ele>
        <time>2021-08-10T08:48:37Z</time>
      </trkpt>
      <trkpt lat="48.71417" lon="4.54513">
        <ele>130.88</ele>
        <time>2021-08-10T08:48:45Z</time>
      </trkpt>
      <trkpt lat="48.71411" lon="4.54513">
        <ele>130.88</ele>
        <time>2021-08-10T08:48:46Z</time>
      </trkpt>
      <trkpt lat="48.71351" lon="4.54525">
        <ele>130.4</ele>
        <time>2021-08-10T08:48:56Z</time>
      </trkpt>
      <trkpt lat="48.71284" lon="4.54541">
        <ele>128.47</ele>
        <time>2021-08-10T08:49:06Z</time>
      </trkpt>
      <trkpt lat="48.71199" lon="4.54556">
        <ele>126.07</ele>
        <time>2021-08-10T08:49:18Z</time>
      </trkpt>
      <trkpt lat="48.71128" lon="4.54555">
        <ele>124.15</ele>
        <time>2021-08-10T08:49:28Z</time>
      </trkpt>
      <trkpt lat="48.71059" lon="4.54545">
        <ele>121.74</ele>
        <time>2021-08-10T08:49:38Z</time>
      </trkpt>
      <trkpt lat="48.70989" lon="4.54534">
        <ele>119.82</ele>
        <time>2021-08-10T08:49:49Z</time>
      </trkpt>
      <trkpt lat="48.70928" lon="4.54524">
        <ele>118.38</ele>
        <time>2021-08-10T08:49:58Z</time>
      </trkpt>
      <trkpt lat="48.70859" lon="4.54512">
        <ele>116.46</ele>
        <time>2021-08-10T08:50:08Z</time>
      </trkpt>
      <trkpt lat="48.70795" lon="4.54502">
        <ele>114.53</ele>
        <time>2021-08-10T08:50:18Z</time>
      </trkpt>
      <trkpt lat="48.70749" lon="4.54493">
        <ele>113.09</ele>
        <time>2021-08-10T08:50:25Z</time>
      </trkpt>
      <trkpt lat="48.70737" lon="4.54491">
        <ele>112.61</ele>
        <time>2021-08-10T08:50:28Z</time>
      </trkpt>
      <trkpt lat="48.70734" lon="4.54493">
        <ele>112.61</ele>
        <time>2021-08-10T08:50:29Z</time>
      </trkpt>
      <trkpt lat="48.70731" lon="4.54496">
        <ele>112.61</ele>
        <time>2021-08-10T08:50:30Z</time>
      </trkpt>
      <trkpt lat="48.7073" lon="4.54501">
        <ele>112.61</ele>
        <time>2021-08-10T08:50:31Z</time>
      </trkpt>
      <trkpt lat="48.70729" lon="4.54506">
        <ele>112.61</ele>
        <time>2021-08-10T08:50:32Z</time>
      </trkpt>
      <trkpt lat="48.70728" lon="4.54512">
        <ele>112.61</ele>
        <time>2021-08-10T08:50:33Z</time>
      </trkpt>
      <trkpt lat="48.70727" lon="4.54519">
        <ele>112.61</ele>
        <time>2021-08-10T08:50:34Z</time>
      </trkpt>
      <trkpt lat="48.7072" lon="4.54579">
        <ele>112.61</ele>
        <time>2021-08-10T08:50:42Z</time>
      </trkpt>
      <trkpt lat="48.70719" lon="4.54587">
        <ele>112.13</ele>
        <time>2021-08-10T08:50:43Z</time>
      </trkpt>
      <trkpt lat="48.70711" lon="4.54644">
        <ele>111.65</ele>
        <time>2021-08-10T08:50:50Z</time>
      </trkpt>
      <trkpt lat="48.70702" lon="4.54695">
        <ele>110.69</ele>
        <time>2021-08-10T08:50:56Z</time>
      </trkpt>
      <trkpt lat="48.70699" lon="4.54704">
        <ele>110.69</ele>
        <time>2021-08-10T08:50:57Z</time>
      </trkpt>
      <trkpt lat="48.70667" lon="4.54788">
        <ele>109.25</ele>
        <time>2021-08-10T08:51:07Z</time>
      </trkpt>
      <trkpt lat="48.70658" lon="4.54813">
        <ele>109.25</ele>
        <time>2021-08-10T08:51:10Z</time>
      </trkpt>
      <trkpt lat="48.70654" lon="4.54817">
        <ele>109.25</ele>
        <time>2021-08-10T08:51:11Z</time>
      </trkpt>
      <trkpt lat="48.70649" lon="4.54818">
        <ele>109.25</ele>
        <time>2021-08-10T08:51:12Z</time>
      </trkpt>
      <trkpt lat="48.70644" lon="4.54818">
        <ele>109.25</ele>
        <time>2021-08-10T08:51:13Z</time>
      </trkpt>
      <trkpt lat="48.7064" lon="4.54818">
        <ele>108.77</ele>
        <time>2021-08-10T08:51:14Z</time>
      </trkpt>
      <trkpt lat="48.70624" lon="4.54816">
        <ele>107.81</ele>
        <time>2021-08-10T08:51:17Z</time>
      </trkpt>
      <trkpt lat="48.7062" lon="4.54815">
        <ele>107.81</ele>
        <time>2021-08-10T08:51:18Z</time>
      </trkpt>
      <trkpt lat="48.70615" lon="4.54815">
        <ele>107.81</ele>
        <time>2021-08-10T08:51:19Z</time>
      </trkpt>
      <trkpt lat="48.70582" lon="4.54813">
        <ele>107.32</ele>
        <time>2021-08-10T08:51:26Z</time>
      </trkpt>
      <trkpt lat="48.70577" lon="4.54813">
        <ele>107.32</ele>
        <time>2021-08-10T08:51:27Z</time>
      </trkpt>
      <trkpt lat="48.70556" lon="4.54814">
        <ele>107.32</ele>
        <time>2021-08-10T08:51:31Z</time>
      </trkpt>
      <trkpt lat="48.70516" lon="4.54819">
        <ele>107.32</ele>
        <time>2021-08-10T08:51:39Z</time>
      </trkpt>
      <trkpt lat="48.70468" lon="4.54815">
        <ele>107.32</ele>
        <time>2021-08-10T08:51:49Z</time>
      </trkpt>
      <trkpt lat="48.70427" lon="4.54802">
        <ele>108.77</ele>
        <time>2021-08-10T08:51:59Z</time>
      </trkpt>
      <trkpt lat="48.70399" lon="4.54791">
        <ele>110.21</ele>
        <time>2021-08-10T08:52:09Z</time>
      </trkpt>
      <trkpt lat="48.70377" lon="4.54782">
        <ele>111.17</ele>
        <time>2021-08-10T08:52:17Z</time>
      </trkpt>
      <trkpt lat="48.70351" lon="4.5477">
        <ele>113.09</ele>
        <time>2021-08-10T08:52:26Z</time>
      </trkpt>
      <trkpt lat="48.70347" lon="4.54766">
        <ele>113.09</ele>
        <time>2021-08-10T08:52:28Z</time>
      </trkpt>
      <trkpt lat="48.70345" lon="4.54762">
        <ele>113.09</ele>
        <time>2021-08-10T08:52:29Z</time>
      </trkpt>
      <trkpt lat="48.70345" lon="4.54758">
        <ele>113.09</ele>
        <time>2021-08-10T08:52:30Z</time>
      </trkpt>
      <trkpt lat="48.70345" lon="4.5472">
        <ele>113.09</ele>
        <time>2021-08-10T08:52:37Z</time>
      </trkpt>
      <trkpt lat="48.70345" lon="4.54678">
        <ele>113.57</ele>
        <time>2021-08-10T08:52:44Z</time>
      </trkpt>
      <trkpt lat="48.70346" lon="4.54628">
        <ele>113.57</ele>
        <time>2021-08-10T08:52:52Z</time>
      </trkpt>
      <trkpt lat="48.70347" lon="4.5456">
        <ele>114.05</ele>
        <time>2021-08-10T08:53:02Z</time>
      </trkpt>
      <trkpt lat="48.70347" lon="4.54535">
        <ele>114.05</ele>
        <time>2021-08-10T08:53:06Z</time>
      </trkpt>
      <trkpt lat="48.70347" lon="4.54469">
        <ele>114.53</ele>
        <time>2021-08-10T08:53:16Z</time>
      </trkpt>
      <trkpt lat="48.70346" lon="4.54409">
        <ele>115.01</ele>
        <time>2021-08-10T08:53:25Z</time>
      </trkpt>
      <trkpt lat="48.70345" lon="4.54346">
        <ele>115.01</ele>
        <time>2021-08-10T08:53:34Z</time>
      </trkpt>
      <trkpt lat="48.70346" lon="4.54326">
        <ele>115.5</ele>
        <time>2021-08-10T08:53:37Z</time>
      </trkpt>
      <trkpt lat="48.70346" lon="4.54319">
        <ele>115.5</ele>
        <time>2021-08-10T08:53:38Z</time>
      </trkpt>
      <trkpt lat="48.70347" lon="4.54312">
        <ele>115.5</ele>
        <time>2021-08-10T08:53:39Z</time>
      </trkpt>
      <trkpt lat="48.70346" lon="4.5423">
        <ele>115.98</ele>
        <time>2021-08-10T08:53:51Z</time>
      </trkpt>
      <trkpt lat="48.70346" lon="4.5417">
        <ele>115.98</ele>
        <time>2021-08-10T08:54:00Z</time>
      </trkpt>
      <trkpt lat="48.70346" lon="4.54163">
        <ele>115.98</ele>
        <time>2021-08-10T08:54:01Z</time>
      </trkpt>
      <trkpt lat="48.70346" lon="4.54156">
        <ele>115.98</ele>
        <time>2021-08-10T08:54:02Z</time>
      </trkpt>
      <trkpt lat="48.70345" lon="4.5415">
        <ele>115.98</ele>
        <time>2021-08-10T08:54:03Z</time>
      </trkpt>
      <trkpt lat="48.70344" lon="4.54144">
        <ele>116.46</ele>
        <time>2021-08-10T08:54:04Z</time>
      </trkpt>
      <trkpt lat="48.70342" lon="4.54131">
        <ele>116.46</ele>
        <time>2021-08-10T08:54:06Z</time>
      </trkpt>
      <trkpt lat="48.7034" lon="4.54125">
        <ele>116.46</ele>
        <time>2021-08-10T08:54:07Z</time>
      </trkpt>
      <trkpt lat="48.7032" lon="4.54082">
        <ele>117.42</ele>
        <time>2021-08-10T08:54:16Z</time>
      </trkpt>
      <trkpt lat="48.70314" lon="4.5405">
        <ele>118.38</ele>
        <time>2021-08-10T08:54:22Z</time>
      </trkpt>
      <trkpt lat="48.70312" lon="4.54005">
        <ele>119.82</ele>
        <time>2021-08-10T08:54:31Z</time>
      </trkpt>
      <trkpt lat="48.7031" lon="4.5395">
        <ele>120.3</ele>
        <time>2021-08-10T08:54:41Z</time>
      </trkpt>
      <trkpt lat="48.70299" lon="4.53939">
        <ele>120.78</ele>
        <time>2021-08-10T08:54:45Z</time>
      </trkpt>
      <trkpt lat="48.70275" lon="4.53938">
        <ele>123.19</ele>
        <time>2021-08-10T08:54:56Z</time>
      </trkpt>
      <trkpt lat="48.7025" lon="4.53934">
        <ele>125.11</ele>
        <time>2021-08-10T08:55:07Z</time>
      </trkpt>
      <trkpt lat="48.70246" lon="4.5393">
        <ele>125.11</ele>
        <time>2021-08-10T08:55:10Z</time>
      </trkpt>
      <trkpt lat="48.70246" lon="4.53928">
        <ele>125.11</ele>
        <time>2021-08-10T08:55:11Z</time>
      </trkpt>
      <trkpt lat="48.70245" lon="4.53925">
        <ele>125.59</ele>
        <time>2021-08-10T08:55:12Z</time>
      </trkpt>
      <trkpt lat="48.70244" lon="4.53924">
        <ele>125.59</ele>
        <time>2021-08-10T08:55:13Z</time>
      </trkpt>
      <trkpt lat="48.70242" lon="4.53924">
        <ele>125.59</ele>
        <time>2021-08-10T08:55:14Z</time>
      </trkpt>
      <trkpt lat="48.7024" lon="4.53925">
        <ele>125.59</ele>
        <time>2021-08-10T08:55:15Z</time>
      </trkpt>
      <trkpt lat="48.70238" lon="4.53926">
        <ele>125.59</ele>
        <time>2021-08-10T08:55:16Z</time>
      </trkpt>
      <trkpt lat="48.70234" lon="4.53926">
        <ele>125.59</ele>
        <time>2021-08-10T08:55:17Z</time>
      </trkpt>
      <trkpt lat="48.70231" lon="4.53926">
        <ele>125.59</ele>
        <time>2021-08-10T08:55:18Z</time>
      </trkpt>
      <trkpt lat="48.70227" lon="4.53926">
        <ele>125.59</ele>
        <time>2021-08-10T08:55:19Z</time>
      </trkpt>
      <trkpt lat="48.70195" lon="4.53925">
        <ele>124.15</ele>
        <time>2021-08-10T08:55:26Z</time>
      </trkpt>
      <trkpt lat="48.70189" lon="4.53926">
        <ele>123.67</ele>
        <time>2021-08-10T08:55:27Z</time>
      </trkpt>
      <trkpt lat="48.70183" lon="4.53928">
        <ele>123.19</ele>
        <time>2021-08-10T08:55:28Z</time>
      </trkpt>
      <trkpt lat="48.70155" lon="4.53939">
        <ele>121.74</ele>
        <time>2021-08-10T08:55:32Z</time>
      </trkpt>
      <trkpt lat="48.70116" lon="4.53965">
        <ele>117.9</ele>
        <time>2021-08-10T08:55:37Z</time>
      </trkpt>
      <trkpt lat="48.70081" lon="4.53991">
        <ele>115.98</ele>
        <time>2021-08-10T08:55:41Z</time>
      </trkpt>
      <trkpt lat="48.70042" lon="4.54015">
        <ele>112.61</ele>
        <time>2021-08-10T08:55:45Z</time>
      </trkpt>
      <trkpt lat="48.69971" lon="4.54052">
        <ele>110.21</ele>
        <time>2021-08-10T08:55:52Z</time>
      </trkpt>
      <trkpt lat="48.69951" lon="4.54063">
        <ele>110.21</ele>
        <time>2021-08-10T08:55:54Z</time>
      </trkpt>
      <trkpt lat="48.6989" lon="4.54082">
        <ele>110.21</ele>
        <time>2021-08-10T08:56:01Z</time>
      </trkpt>
      <trkpt lat="48.69831" lon="4.54087">
        <ele>109.25</ele>
        <time>2021-08-10T08:56:08Z</time>
      </trkpt>
      <trkpt lat="48.69769" lon="4.54099">
        <ele>109.25</ele>
        <time>2021-08-10T08:56:16Z</time>
      </trkpt>
      <trkpt lat="48.69706" lon="4.54116">
        <ele>109.25</ele>
        <time>2021-08-10T08:56:25Z</time>
      </trkpt>
      <trkpt lat="48.69647" lon="4.54129">
        <ele>109.25</ele>
        <time>2021-08-10T08:56:34Z</time>
      </trkpt>
      <trkpt lat="48.696" lon="4.5413">
        <ele>110.69</ele>
        <time>2021-08-10T08:56:42Z</time>
      </trkpt>
      <trkpt lat="48.69594" lon="4.54129">
        <ele>110.69</ele>
        <time>2021-08-10T08:56:43Z</time>
      </trkpt>
      <trkpt lat="48.69558" lon="4.54122">
        <ele>112.13</ele>
        <time>2021-08-10T08:56:51Z</time>
      </trkpt>
      <trkpt lat="48.69514" lon="4.54118">
        <ele>113.57</ele>
        <time>2021-08-10T08:57:01Z</time>
      </trkpt>
      <trkpt lat="48.69491" lon="4.54116">
        <ele>113.57</ele>
        <time>2021-08-10T08:57:06Z</time>
      </trkpt>
      <trkpt lat="48.69474" lon="4.54119">
        <ele>113.57</ele>
        <time>2021-08-10T08:57:11Z</time>
      </trkpt>
      <trkpt lat="48.69473" lon="4.54123">
        <ele>113.57</ele>
        <time>2021-08-10T08:57:12Z</time>
      </trkpt>
      <trkpt lat="48.69473" lon="4.54129">
        <ele>113.57</ele>
        <time>2021-08-10T08:57:13Z</time>
      </trkpt>
      <trkpt lat="48.69476" lon="4.54172">
        <ele>113.57</ele>
        <time>2021-08-10T08:57:20Z</time>
      </trkpt>
      <trkpt lat="48.69482" lon="4.54237">
        <ele>111.65</ele>
        <time>2021-08-10T08:57:28Z</time>
      </trkpt>
      <trkpt lat="48.69493" lon="4.54298">
        <ele>110.69</ele>
        <time>2021-08-10T08:57:35Z</time>
      </trkpt>
      <trkpt lat="48.69512" lon="4.54401">
        <ele>109.73</ele>
        <time>2021-08-10T08:57:46Z</time>
      </trkpt>
      <trkpt lat="48.69528" lon="4.54488">
        <ele>108.77</ele>
        <time>2021-08-10T08:57:55Z</time>
      </trkpt>
      <trkpt lat="48.69542" lon="4.54539">
        <ele>108.77</ele>
        <time>2021-08-10T08:58:01Z</time>
      </trkpt>
      <trkpt lat="48.69543" lon="4.54547">
        <ele>108.77</ele>
        <time>2021-08-10T08:58:02Z</time>
      </trkpt>
      <trkpt lat="48.69547" lon="4.54623">
        <ele>108.77</ele>
        <time>2021-08-10T08:58:11Z</time>
      </trkpt>
      <trkpt lat="48.69548" lon="4.54639">
        <ele>108.77</ele>
        <time>2021-08-10T08:58:13Z</time>
      </trkpt>
      <trkpt lat="48.69553" lon="4.54702">
        <ele>108.29</ele>
        <time>2021-08-10T08:58:22Z</time>
      </trkpt>
      <trkpt lat="48.69557" lon="4.54759">
        <ele>108.29</ele>
        <time>2021-08-10T08:58:29Z</time>
      </trkpt>
      <trkpt lat="48.69561" lon="4.5483">
        <ele>108.29</ele>
        <time>2021-08-10T08:58:37Z</time>
      </trkpt>
      <trkpt lat="48.69562" lon="4.54846">
        <ele>108.29</ele>
        <time>2021-08-10T08:58:39Z</time>
      </trkpt>
      <trkpt lat="48.69562" lon="4.54855">
        <ele>108.29</ele>
        <time>2021-08-10T08:58:40Z</time>
      </trkpt>
      <trkpt lat="48.69561" lon="4.5488">
        <ele>108.29</ele>
        <time>2021-08-10T08:58:43Z</time>
      </trkpt>
      <trkpt lat="48.69559" lon="4.54896">
        <ele>108.29</ele>
        <time>2021-08-10T08:58:45Z</time>
      </trkpt>
      <trkpt lat="48.69559" lon="4.54902">
        <ele>108.29</ele>
        <time>2021-08-10T08:58:46Z</time>
      </trkpt>
      <trkpt lat="48.6956" lon="4.54908">
        <ele>108.29</ele>
        <time>2021-08-10T08:58:47Z</time>
      </trkpt>
      <trkpt lat="48.69561" lon="4.54913">
        <ele>108.29</ele>
        <time>2021-08-10T08:58:48Z</time>
      </trkpt>
      <trkpt lat="48.69563" lon="4.54919">
        <ele>108.29</ele>
        <time>2021-08-10T08:58:49Z</time>
      </trkpt>
      <trkpt lat="48.69579" lon="4.54963">
        <ele>107.81</ele>
        <time>2021-08-10T08:58:55Z</time>
      </trkpt>
      <trkpt lat="48.69599" lon="4.55028">
        <ele>107.81</ele>
        <time>2021-08-10T08:59:03Z</time>
      </trkpt>
      <trkpt lat="48.69618" lon="4.55097">
        <ele>107.81</ele>
        <time>2021-08-10T08:59:11Z</time>
      </trkpt>
      <trkpt lat="48.6964" lon="4.55181">
        <ele>107.81</ele>
        <time>2021-08-10T08:59:21Z</time>
      </trkpt>
      <trkpt lat="48.69652" lon="4.55245">
        <ele>109.73</ele>
        <time>2021-08-10T08:59:29Z</time>
      </trkpt>
      <trkpt lat="48.69665" lon="4.55324">
        <ele>109.73</ele>
        <time>2021-08-10T08:59:39Z</time>
      </trkpt>
      <trkpt lat="48.69676" lon="4.55398">
        <ele>109.73</ele>
        <time>2021-08-10T08:59:48Z</time>
      </trkpt>
      <trkpt lat="48.69688" lon="4.5549">
        <ele>109.73</ele>
        <time>2021-08-10T08:59:59Z</time>
      </trkpt>
      <trkpt lat="48.69694" lon="4.55536">
        <ele>109.73</ele>
        <time>2021-08-10T09:00:05Z</time>
      </trkpt>
      <trkpt lat="48.69694" lon="4.55544">
        <ele>109.73</ele>
        <time>2021-08-10T09:00:06Z</time>
      </trkpt>
      <trkpt lat="48.69693" lon="4.55552">
        <ele>109.25</ele>
        <time>2021-08-10T09:00:07Z</time>
      </trkpt>
      <trkpt lat="48.6969" lon="4.55559">
        <ele>109.73</ele>
        <time>2021-08-10T09:00:08Z</time>
      </trkpt>
      <trkpt lat="48.69686" lon="4.55563">
        <ele>109.73</ele>
        <time>2021-08-10T09:00:09Z</time>
      </trkpt>
      <trkpt lat="48.69682" lon="4.55565">
        <ele>109.73</ele>
        <time>2021-08-10T09:00:10Z</time>
      </trkpt>
      <trkpt lat="48.69678" lon="4.55566">
        <ele>109.73</ele>
        <time>2021-08-10T09:00:11Z</time>
      </trkpt>
      <trkpt lat="48.69674" lon="4.55567">
        <ele>110.21</ele>
        <time>2021-08-10T09:00:12Z</time>
      </trkpt>
      <trkpt lat="48.6965" lon="4.55574">
        <ele>111.17</ele>
        <time>2021-08-10T09:00:20Z</time>
      </trkpt>
      <trkpt lat="48.69624" lon="4.55581">
        <ele>112.13</ele>
        <time>2021-08-10T09:00:29Z</time>
      </trkpt>
      <trkpt lat="48.69604" lon="4.55586">
        <ele>114.05</ele>
        <time>2021-08-10T09:00:37Z</time>
      </trkpt>
      <trkpt lat="48.69584" lon="4.5559">
        <ele>115.01</ele>
        <time>2021-08-10T09:00:45Z</time>
      </trkpt>
      <trkpt lat="48.69569" lon="4.55594">
        <ele>116.46</ele>
        <time>2021-08-10T09:00:52Z</time>
      </trkpt>
      <trkpt lat="48.6954" lon="4.55601">
        <ele>117.9</ele>
        <time>2021-08-10T09:01:04Z</time>
      </trkpt>
      <trkpt lat="48.69518" lon="4.55607">
        <ele>119.34</ele>
        <time>2021-08-10T09:01:14Z</time>
      </trkpt>
      <trkpt lat="48.69497" lon="4.55612">
        <ele>120.78</ele>
        <time>2021-08-10T09:01:24Z</time>
      </trkpt>
      <trkpt lat="48.69477" lon="4.55618">
        <ele>122.71</ele>
        <time>2021-08-10T09:01:34Z</time>
      </trkpt>
      <trkpt lat="48.69456" lon="4.55623">
        <ele>124.15</ele>
        <time>2021-08-10T09:01:44Z</time>
      </trkpt>
      <trkpt lat="48.6944" lon="4.55627">
        <ele>125.11</ele>
        <time>2021-08-10T09:01:52Z</time>
      </trkpt>
      <trkpt lat="48.69421" lon="4.55631">
        <ele>127.03</ele>
        <time>2021-08-10T09:02:02Z</time>
      </trkpt>
      <trkpt lat="48.694" lon="4.55635">
        <ele>128.47</ele>
        <time>2021-08-10T09:02:13Z</time>
      </trkpt>
      <trkpt lat="48.69383" lon="4.55639">
        <ele>130.4</ele>
        <time>2021-08-10T09:02:22Z</time>
      </trkpt>
      <trkpt lat="48.69368" lon="4.55641">
        <ele>131.36</ele>
        <time>2021-08-10T09:02:30Z</time>
      </trkpt>
      <trkpt lat="48.69347" lon="4.55648">
        <ele>132.32</ele>
        <time>2021-08-10T09:02:39Z</time>
      </trkpt>
      <trkpt lat="48.69331" lon="4.55667">
        <ele>132.8</ele>
        <time>2021-08-10T09:02:47Z</time>
      </trkpt>
      <trkpt lat="48.69317" lon="4.55698">
        <ele>134.24</ele>
        <time>2021-08-10T09:02:56Z</time>
      </trkpt>
      <trkpt lat="48.69302" lon="4.55739">
        <ele>135.68</ele>
        <time>2021-08-10T09:03:07Z</time>
      </trkpt>
      <trkpt lat="48.69291" lon="4.55767">
        <ele>137.13</ele>
        <time>2021-08-10T09:03:15Z</time>
      </trkpt>
      <trkpt lat="48.69282" lon="4.55795">
        <ele>138.57</ele>
        <time>2021-08-10T09:03:22Z</time>
      </trkpt>
      <trkpt lat="48.69268" lon="4.55838">
        <ele>138.09</ele>
        <time>2021-08-10T09:03:30Z</time>
      </trkpt>
      <trkpt lat="48.69251" lon="4.55893">
        <ele>138.09</ele>
        <time>2021-08-10T09:03:38Z</time>
      </trkpt>
      <trkpt lat="48.69227" lon="4.55964">
        <ele>139.05</ele>
        <time>2021-08-10T09:03:50Z</time>
      </trkpt>
      <trkpt lat="48.69203" lon="4.5602">
        <ele>140.49</ele>
        <time>2021-08-10T09:04:02Z</time>
      </trkpt>
      <trkpt lat="48.69184" lon="4.56063">
        <ele>141.93</ele>
        <time>2021-08-10T09:04:12Z</time>
      </trkpt>
      <trkpt lat="48.69165" lon="4.56108">
        <ele>143.85</ele>
        <time>2021-08-10T09:04:23Z</time>
      </trkpt>
      <trkpt lat="48.69138" lon="4.56152">
        <ele>145.3</ele>
        <time>2021-08-10T09:04:35Z</time>
      </trkpt>
      <trkpt lat="48.69112" lon="4.56177">
        <ele>147.22</ele>
        <time>2021-08-10T09:04:45Z</time>
      </trkpt>
      <trkpt lat="48.69094" lon="4.56177">
        <ele>147.7</ele>
        <time>2021-08-10T09:04:52Z</time>
      </trkpt>
      <trkpt lat="48.69071" lon="4.56166">
        <ele>149.14</ele>
        <time>2021-08-10T09:05:01Z</time>
      </trkpt>
      <trkpt lat="48.69048" lon="4.56152">
        <ele>150.58</ele>
        <time>2021-08-10T09:05:10Z</time>
      </trkpt>
      <trkpt lat="48.69025" lon="4.56133">
        <ele>152.03</ele>
        <time>2021-08-10T09:05:20Z</time>
      </trkpt>
      <trkpt lat="48.68999" lon="4.5611">
        <ele>153.47</ele>
        <time>2021-08-10T09:05:31Z</time>
      </trkpt>
      <trkpt lat="48.68975" lon="4.5609">
        <ele>156.35</ele>
        <time>2021-08-10T09:05:42Z</time>
      </trkpt>
      <trkpt lat="48.68959" lon="4.56079">
        <ele>157.31</ele>
        <time>2021-08-10T09:05:49Z</time>
      </trkpt>
      <trkpt lat="48.68938" lon="4.5607">
        <ele>158.75</ele>
        <time>2021-08-10T09:05:57Z</time>
      </trkpt>
      <trkpt lat="48.68903" lon="4.56062">
        <ele>159.24</ele>
        <time>2021-08-10T09:06:07Z</time>
      </trkpt>
      <trkpt lat="48.68879" lon="4.56058">
        <ele>159.24</ele>
        <time>2021-08-10T09:06:13Z</time>
      </trkpt>
      <trkpt lat="48.68861" lon="4.5605">
        <ele>157.79</ele>
        <time>2021-08-10T09:06:17Z</time>
      </trkpt>
      <trkpt lat="48.68829" lon="4.56042">
        <ele>155.87</ele>
        <time>2021-08-10T09:06:22Z</time>
      </trkpt>
      <trkpt lat="48.68807" lon="4.56038">
        <ele>152.51</ele>
        <time>2021-08-10T09:06:25Z</time>
      </trkpt>
      <trkpt lat="48.68774" lon="4.56032">
        <ele>149.62</ele>
        <time>2021-08-10T09:06:29Z</time>
      </trkpt>
      <trkpt lat="48.68746" lon="4.5603">
        <ele>145.78</ele>
        <time>2021-08-10T09:06:32Z</time>
      </trkpt>
      <trkpt lat="48.68717" lon="4.56025">
        <ele>142.41</ele>
        <time>2021-08-10T09:06:35Z</time>
      </trkpt>
      <trkpt lat="48.68696" lon="4.56021">
        <ele>138.57</ele>
        <time>2021-08-10T09:06:37Z</time>
      </trkpt>
      <trkpt lat="48.68661" lon="4.56015">
        <ele>133.76</ele>
        <time>2021-08-10T09:06:40Z</time>
      </trkpt>
      <trkpt lat="48.68624" lon="4.56011">
        <ele>130.4</ele>
        <time>2021-08-10T09:06:43Z</time>
      </trkpt>
      <trkpt lat="48.68613" lon="4.56011">
        <ele>129.92</ele>
        <time>2021-08-10T09:06:44Z</time>
      </trkpt>
      <trkpt lat="48.68601" lon="4.56013">
        <ele>127.99</ele>
        <time>2021-08-10T09:06:45Z</time>
      </trkpt>
      <trkpt lat="48.68589" lon="4.56016">
        <ele>127.03</ele>
        <time>2021-08-10T09:06:46Z</time>
      </trkpt>
      <trkpt lat="48.68532" lon="4.56039">
        <ele>123.67</ele>
        <time>2021-08-10T09:06:51Z</time>
      </trkpt>
      <trkpt lat="48.68454" lon="4.56068">
        <ele>121.26</ele>
        <time>2021-08-10T09:06:59Z</time>
      </trkpt>
      <trkpt lat="48.68407" lon="4.56074">
        <ele>121.26</ele>
        <time>2021-08-10T09:07:05Z</time>
      </trkpt>
      <trkpt lat="48.68377" lon="4.56076">
        <ele>122.71</ele>
        <time>2021-08-10T09:07:11Z</time>
      </trkpt>
      <trkpt lat="48.68373" lon="4.56076">
        <ele>122.71</ele>
        <time>2021-08-10T09:07:12Z</time>
      </trkpt>
      <trkpt lat="48.68344" lon="4.56079">
        <ele>124.15</ele>
        <time>2021-08-10T09:07:20Z</time>
      </trkpt>
      <trkpt lat="48.68324" lon="4.56078">
        <ele>125.11</ele>
        <time>2021-08-10T09:07:28Z</time>
      </trkpt>
      <trkpt lat="48.68307" lon="4.56081">
        <ele>126.55</ele>
        <time>2021-08-10T09:07:37Z</time>
      </trkpt>
      <trkpt lat="48.68287" lon="4.5609">
        <ele>128.47</ele>
        <time>2021-08-10T09:07:48Z</time>
      </trkpt>
      <trkpt lat="48.68283" lon="4.56092">
        <ele>128.47</ele>
        <time>2021-08-10T09:07:51Z</time>
      </trkpt>
      <trkpt lat="48.68282" lon="4.56093">
        <ele>128.95</ele>
        <time>2021-08-10T09:07:52Z</time>
      </trkpt>
      <trkpt lat="48.6828" lon="4.56093">
        <ele>129.43</ele>
        <time>2021-08-10T09:07:53Z</time>
      </trkpt>
      <trkpt lat="48.68279" lon="4.56093">
        <ele>129.43</ele>
        <time>2021-08-10T09:07:54Z</time>
      </trkpt>
      <trkpt lat="48.68277" lon="4.56094">
        <ele>129.43</ele>
        <time>2021-08-10T09:07:55Z</time>
      </trkpt>
      <trkpt lat="48.68263" lon="4.56101">
        <ele>130.88</ele>
        <time>2021-08-10T09:08:04Z</time>
      </trkpt>
      <trkpt lat="48.68249" lon="4.56107">
        <ele>132.8</ele>
        <time>2021-08-10T09:08:13Z</time>
      </trkpt>
      <trkpt lat="48.68235" lon="4.56112">
        <ele>134.24</ele>
        <time>2021-08-10T09:08:23Z</time>
      </trkpt>
      <trkpt lat="48.68223" lon="4.56118">
        <ele>135.2</ele>
        <time>2021-08-10T09:08:31Z</time>
      </trkpt>
      <trkpt lat="48.68208" lon="4.56124">
        <ele>137.61</ele>
        <time>2021-08-10T09:08:41Z</time>
      </trkpt>
      <trkpt lat="48.68198" lon="4.56128">
        <ele>138.57</ele>
        <time>2021-08-10T09:08:48Z</time>
      </trkpt>
      <trkpt lat="48.68196" lon="4.56128">
        <ele>138.57</ele>
        <time>2021-08-10T09:08:49Z</time>
      </trkpt>
      <trkpt lat="48.68195" lon="4.56129">
        <ele>138.57</ele>
        <time>2021-08-10T09:08:50Z</time>
      </trkpt>
      <trkpt lat="48.68194" lon="4.56129">
        <ele>138.57</ele>
        <time>2021-08-10T09:08:51Z</time>
      </trkpt>
      <trkpt lat="48.68192" lon="4.5613">
        <ele>139.05</ele>
        <time>2021-08-10T09:08:52Z</time>
      </trkpt>
      <trkpt lat="48.68186" lon="4.56132">
        <ele>140.01</ele>
        <time>2021-08-10T09:08:57Z</time>
      </trkpt>
      <trkpt lat="48.68184" lon="4.56133">
        <ele>140.49</ele>
        <time>2021-08-10T09:08:58Z</time>
      </trkpt>
      <trkpt lat="48.68183" lon="4.56133">
        <ele>140.49</ele>
        <time>2021-08-10T09:08:59Z</time>
      </trkpt>
      <trkpt lat="48.68182" lon="4.56133">
        <ele>140.97</ele>
        <time>2021-08-10T09:09:00Z</time>
      </trkpt>
      <trkpt lat="48.6818" lon="4.56133">
        <ele>140.97</ele>
        <time>2021-08-10T09:09:01Z</time>
      </trkpt>
      <trkpt lat="48.68179" lon="4.56134">
        <ele>140.97</ele>
        <time>2021-08-10T09:09:02Z</time>
      </trkpt>
      <trkpt lat="48.68178" lon="4.56134">
        <ele>140.97</ele>
        <time>2021-08-10T09:09:03Z</time>
      </trkpt>
      <trkpt lat="48.68177" lon="4.56134">
        <ele>141.93</ele>
        <time>2021-08-10T09:09:04Z</time>
      </trkpt>
      <trkpt lat="48.68175" lon="4.56135">
        <ele>141.93</ele>
        <time>2021-08-10T09:09:05Z</time>
      </trkpt>
      <trkpt lat="48.68166" lon="4.56138">
        <ele>142.89</ele>
        <time>2021-08-10T09:09:12Z</time>
      </trkpt>
      <trkpt lat="48.68162" lon="4.56139">
        <ele>142.89</ele>
        <time>2021-08-10T09:09:15Z</time>
      </trkpt>
      <trkpt lat="48.68161" lon="4.56139">
        <ele>143.37</ele>
        <time>2021-08-10T09:09:16Z</time>
      </trkpt>
      <trkpt lat="48.6816" lon="4.56139">
        <ele>143.85</ele>
        <time>2021-08-10T09:09:17Z</time>
      </trkpt>
      <trkpt lat="48.68158" lon="4.5614">
        <ele>143.85</ele>
        <time>2021-08-10T09:09:18Z</time>
      </trkpt>
      <trkpt lat="48.68157" lon="4.5614">
        <ele>144.34</ele>
        <time>2021-08-10T09:09:19Z</time>
      </trkpt>
      <trkpt lat="48.68147" lon="4.56146">
        <ele>145.3</ele>
        <time>2021-08-10T09:09:27Z</time>
      </trkpt>
      <trkpt lat="48.68146" lon="4.56147">
        <ele>145.3</ele>
        <time>2021-08-10T09:09:28Z</time>
      </trkpt>
      <trkpt lat="48.68133" lon="4.56153">
        <ele>146.26</ele>
        <time>2021-08-10T09:09:36Z</time>
      </trkpt>
      <trkpt lat="48.68121" lon="4.56159">
        <ele>147.22</ele>
        <time>2021-08-10T09:09:44Z</time>
      </trkpt>
      <trkpt lat="48.68104" lon="4.56165">
        <ele>147.7</ele>
        <time>2021-08-10T09:09:54Z</time>
      </trkpt>
      <trkpt lat="48.68098" lon="4.56168">
        <ele>148.18</ele>
        <time>2021-08-10T09:09:58Z</time>
      </trkpt>
      <trkpt lat="48.68096" lon="4.56168">
        <ele>148.66</ele>
        <time>2021-08-10T09:09:59Z</time>
      </trkpt>
      <trkpt lat="48.68095" lon="4.56168">
        <ele>148.66</ele>
        <time>2021-08-10T09:10:00Z</time>
      </trkpt>
      <trkpt lat="48.68093" lon="4.56169">
        <ele>148.66</ele>
        <time>2021-08-10T09:10:01Z</time>
      </trkpt>
      <trkpt lat="48.68091" lon="4.56169">
        <ele>148.66</ele>
        <time>2021-08-10T09:10:02Z</time>
      </trkpt>
      <trkpt lat="48.68077" lon="4.56174">
        <ele>149.62</ele>
        <time>2021-08-10T09:10:10Z</time>
      </trkpt>
      <trkpt lat="48.68062" lon="4.5618">
        <ele>150.58</ele>
        <time>2021-08-10T09:10:19Z</time>
      </trkpt>
      <trkpt lat="48.68046" lon="4.56185">
        <ele>151.06</ele>
        <time>2021-08-10T09:10:27Z</time>
      </trkpt>
      <trkpt lat="48.68032" lon="4.5619">
        <ele>151.54</ele>
        <time>2021-08-10T09:10:34Z</time>
      </trkpt>
      <trkpt lat="48.68013" lon="4.56198">
        <ele>152.03</ele>
        <time>2021-08-10T09:10:42Z</time>
      </trkpt>
      <trkpt lat="48.67998" lon="4.56206">
        <ele>152.99</ele>
        <time>2021-08-10T09:10:49Z</time>
      </trkpt>
      <trkpt lat="48.67981" lon="4.56219">
        <ele>152.99</ele>
        <time>2021-08-10T09:10:56Z</time>
      </trkpt>
      <trkpt lat="48.67956" lon="4.5625">
        <ele>153.95</ele>
        <time>2021-08-10T09:11:07Z</time>
      </trkpt>
      <trkpt lat="48.67934" lon="4.56284">
        <ele>154.91</ele>
        <time>2021-08-10T09:11:18Z</time>
      </trkpt>
      <trkpt lat="48.67908" lon="4.5632">
        <ele>155.39</ele>
        <time>2021-08-10T09:11:29Z</time>
      </trkpt>
      <trkpt lat="48.67883" lon="4.56348">
        <ele>155.39</ele>
        <time>2021-08-10T09:11:38Z</time>
      </trkpt>
      <trkpt lat="48.67856" lon="4.56378">
        <ele>154.91</ele>
        <time>2021-08-10T09:11:47Z</time>
      </trkpt>
      <trkpt lat="48.67828" lon="4.56409">
        <ele>155.39</ele>
        <time>2021-08-10T09:11:56Z</time>
      </trkpt>
      <trkpt lat="48.6781" lon="4.5643">
        <ele>153.95</ele>
        <time>2021-08-10T09:12:02Z</time>
      </trkpt>
      <trkpt lat="48.67774" lon="4.56462">
        <ele>152.51</ele>
        <time>2021-08-10T09:12:11Z</time>
      </trkpt>
      <trkpt lat="48.67765" lon="4.56467">
        <ele>152.03</ele>
        <time>2021-08-10T09:12:13Z</time>
      </trkpt>
      <trkpt lat="48.67719" lon="4.56477">
        <ele>151.06</ele>
        <time>2021-08-10T09:12:22Z</time>
      </trkpt>
      <trkpt lat="48.67698" lon="4.56474">
        <ele>150.58</ele>
        <time>2021-08-10T09:12:26Z</time>
      </trkpt>
      <trkpt lat="48.67658" lon="4.56461">
        <ele>150.58</ele>
        <time>2021-08-10T09:12:34Z</time>
      </trkpt>
      <trkpt lat="48.6765" lon="4.56456">
        <ele>150.58</ele>
        <time>2021-08-10T09:12:36Z</time>
      </trkpt>
      <trkpt lat="48.67647" lon="4.56451">
        <ele>150.58</ele>
        <time>2021-08-10T09:12:37Z</time>
      </trkpt>
      <trkpt lat="48.67645" lon="4.56446">
        <ele>150.58</ele>
        <time>2021-08-10T09:12:38Z</time>
      </trkpt>
      <trkpt lat="48.67641" lon="4.56443">
        <ele>150.58</ele>
        <time>2021-08-10T09:12:39Z</time>
      </trkpt>
      <trkpt lat="48.67638" lon="4.56442">
        <ele>150.58</ele>
        <time>2021-08-10T09:12:40Z</time>
      </trkpt>
      <trkpt lat="48.67635" lon="4.56444">
        <ele>150.58</ele>
        <time>2021-08-10T09:12:41Z</time>
      </trkpt>
      <trkpt lat="48.67632" lon="4.56448">
        <ele>150.58</ele>
        <time>2021-08-10T09:12:42Z</time>
      </trkpt>
      <trkpt lat="48.6763" lon="4.5645">
        <ele>150.58</ele>
        <time>2021-08-10T09:12:43Z</time>
      </trkpt>
      <trkpt lat="48.67603" lon="4.56487">
        <ele>150.58</ele>
        <time>2021-08-10T09:12:52Z</time>
      </trkpt>
      <trkpt lat="48.67596" lon="4.56494">
        <ele>151.54</ele>
        <time>2021-08-10T09:12:54Z</time>
      </trkpt>
      <trkpt lat="48.67574" lon="4.56525">
        <ele>152.03</ele>
        <time>2021-08-10T09:13:02Z</time>
      </trkpt>
      <trkpt lat="48.67554" lon="4.56552">
        <ele>152.51</ele>
        <time>2021-08-10T09:13:09Z</time>
      </trkpt>
      <trkpt lat="48.6754" lon="4.56572">
        <ele>152.51</ele>
        <time>2021-08-10T09:13:14Z</time>
      </trkpt>
      <trkpt lat="48.67536" lon="4.56576">
        <ele>152.51</ele>
        <time>2021-08-10T09:13:15Z</time>
      </trkpt>
      <trkpt lat="48.67533" lon="4.5658">
        <ele>152.51</ele>
        <time>2021-08-10T09:13:16Z</time>
      </trkpt>
      <trkpt lat="48.67526" lon="4.5659">
        <ele>151.06</ele>
        <time>2021-08-10T09:13:18Z</time>
      </trkpt>
      <trkpt lat="48.67489" lon="4.56637">
        <ele>149.62</ele>
        <time>2021-08-10T09:13:26Z</time>
      </trkpt>
      <trkpt lat="48.67452" lon="4.56686">
        <ele>148.18</ele>
        <time>2021-08-10T09:13:35Z</time>
      </trkpt>
      <trkpt lat="48.67408" lon="4.56743">
        <ele>147.22</ele>
        <time>2021-08-10T09:13:45Z</time>
      </trkpt>
      <trkpt lat="48.67368" lon="4.56793">
        <ele>147.22</ele>
        <time>2021-08-10T09:13:55Z</time>
      </trkpt>
      <trkpt lat="48.67343" lon="4.56823">
        <ele>148.66</ele>
        <time>2021-08-10T09:14:02Z</time>
      </trkpt>
      <trkpt lat="48.67312" lon="4.56859">
        <ele>149.14</ele>
        <time>2021-08-10T09:14:11Z</time>
      </trkpt>
      <trkpt lat="48.67287" lon="4.56883">
        <ele>150.1</ele>
        <time>2021-08-10T09:14:19Z</time>
      </trkpt>
      <trkpt lat="48.67255" lon="4.56901">
        <ele>151.54</ele>
        <time>2021-08-10T09:14:29Z</time>
      </trkpt>
      <trkpt lat="48.67226" lon="4.56914">
        <ele>152.51</ele>
        <time>2021-08-10T09:14:39Z</time>
      </trkpt>
      <trkpt lat="48.67198" lon="4.56927">
        <ele>154.43</ele>
        <time>2021-08-10T09:14:50Z</time>
      </trkpt>
      <trkpt lat="48.67175" lon="4.56936">
        <ele>155.87</ele>
        <time>2021-08-10T09:15:00Z</time>
      </trkpt>
      <trkpt lat="48.67153" lon="4.56946">
        <ele>157.79</ele>
        <time>2021-08-10T09:15:10Z</time>
      </trkpt>
      <trkpt lat="48.67136" lon="4.56954">
        <ele>158.27</ele>
        <time>2021-08-10T09:15:19Z</time>
      </trkpt>
      <trkpt lat="48.6712" lon="4.56961">
        <ele>159.72</ele>
        <time>2021-08-10T09:15:27Z</time>
      </trkpt>
      <trkpt lat="48.67097" lon="4.56972">
        <ele>161.16</ele>
        <time>2021-08-10T09:15:38Z</time>
      </trkpt>
      <trkpt lat="48.67081" lon="4.5698">
        <ele>161.64</ele>
        <time>2021-08-10T09:15:45Z</time>
      </trkpt>
      <trkpt lat="48.67066" lon="4.56988">
        <ele>161.64</ele>
        <time>2021-08-10T09:15:50Z</time>
      </trkpt>
      <trkpt lat="48.67042" lon="4.56998">
        <ele>162.6</ele>
        <time>2021-08-10T09:15:58Z</time>
      </trkpt>
      <trkpt lat="48.6702" lon="4.57006">
        <ele>162.6</ele>
        <time>2021-08-10T09:16:05Z</time>
      </trkpt>
      <trkpt lat="48.66996" lon="4.57013">
        <ele>162.6</ele>
        <time>2021-08-10T09:16:12Z</time>
      </trkpt>
      <trkpt lat="48.66988" lon="4.57016">
        <ele>162.6</ele>
        <time>2021-08-10T09:16:14Z</time>
      </trkpt>
      <trkpt lat="48.66968" lon="4.57023">
        <ele>162.6</ele>
        <time>2021-08-10T09:16:19Z</time>
      </trkpt>
      <trkpt lat="48.66964" lon="4.57025">
        <ele>162.6</ele>
        <time>2021-08-10T09:16:20Z</time>
      </trkpt>
      <trkpt lat="48.6696" lon="4.57028">
        <ele>162.6</ele>
        <time>2021-08-10T09:16:21Z</time>
      </trkpt>
      <trkpt lat="48.66952" lon="4.57034">
        <ele>162.6</ele>
        <time>2021-08-10T09:16:23Z</time>
      </trkpt>
      <trkpt lat="48.66939" lon="4.57044">
        <ele>161.16</ele>
        <time>2021-08-10T09:16:26Z</time>
      </trkpt>
      <trkpt lat="48.66908" lon="4.57075">
        <ele>158.75</ele>
        <time>2021-08-10T09:16:32Z</time>
      </trkpt>
      <trkpt lat="48.66882" lon="4.57103">
        <ele>155.39</ele>
        <time>2021-08-10T09:16:36Z</time>
      </trkpt>
      <trkpt lat="48.66861" lon="4.57129">
        <ele>152.51</ele>
        <time>2021-08-10T09:16:39Z</time>
      </trkpt>
      <trkpt lat="48.66839" lon="4.57157">
        <ele>149.14</ele>
        <time>2021-08-10T09:16:42Z</time>
      </trkpt>
      <trkpt lat="48.66821" lon="4.5718">
        <ele>146.74</ele>
        <time>2021-08-10T09:16:45Z</time>
      </trkpt>
      <trkpt lat="48.66805" lon="4.57199">
        <ele>144.82</ele>
        <time>2021-08-10T09:16:49Z</time>
      </trkpt>
      <trkpt lat="48.66804" lon="4.57202">
        <ele>144.34</ele>
        <time>2021-08-10T09:16:50Z</time>
      </trkpt>
      <trkpt lat="48.66803" lon="4.57206">
        <ele>144.34</ele>
        <time>2021-08-10T09:16:51Z</time>
      </trkpt>
      <trkpt lat="48.66804" lon="4.57209">
        <ele>143.85</ele>
        <time>2021-08-10T09:16:52Z</time>
      </trkpt>
      <trkpt lat="48.66805" lon="4.57213">
        <ele>143.85</ele>
        <time>2021-08-10T09:16:53Z</time>
      </trkpt>
      <trkpt lat="48.66807" lon="4.57216">
        <ele>143.85</ele>
        <time>2021-08-10T09:16:54Z</time>
      </trkpt>
      <trkpt lat="48.66822" lon="4.57254">
        <ele>143.85</ele>
        <time>2021-08-10T09:17:03Z</time>
      </trkpt>
      <trkpt lat="48.66837" lon="4.57294">
        <ele>143.85</ele>
        <time>2021-08-10T09:17:14Z</time>
      </trkpt>
      <trkpt lat="48.66839" lon="4.57301">
        <ele>145.3</ele>
        <time>2021-08-10T09:17:16Z</time>
      </trkpt>
      <trkpt lat="48.66847" lon="4.57323">
        <ele>145.78</ele>
        <time>2021-08-10T09:17:23Z</time>
      </trkpt>
      <trkpt lat="48.66859" lon="4.57355">
        <ele>147.22</ele>
        <time>2021-08-10T09:17:34Z</time>
      </trkpt>
      <trkpt lat="48.66866" lon="4.57376">
        <ele>148.18</ele>
        <time>2021-08-10T09:17:42Z</time>
      </trkpt>
      <trkpt lat="48.66872" lon="4.57392">
        <ele>149.14</ele>
        <time>2021-08-10T09:17:49Z</time>
      </trkpt>
      <trkpt lat="48.66879" lon="4.57411">
        <ele>150.1</ele>
        <time>2021-08-10T09:17:58Z</time>
      </trkpt>
      <trkpt lat="48.66886" lon="4.57431">
        <ele>151.54</ele>
        <time>2021-08-10T09:18:07Z</time>
      </trkpt>
      <trkpt lat="48.66895" lon="4.57456">
        <ele>152.99</ele>
        <time>2021-08-10T09:18:19Z</time>
      </trkpt>
      <trkpt lat="48.66903" lon="4.5748">
        <ele>155.39</ele>
        <time>2021-08-10T09:18:29Z</time>
      </trkpt>
      <trkpt lat="48.66912" lon="4.57507">
        <ele>155.87</ele>
        <time>2021-08-10T09:18:39Z</time>
      </trkpt>
      <trkpt lat="48.66922" lon="4.57534">
        <ele>156.35</ele>
        <time>2021-08-10T09:18:48Z</time>
      </trkpt>
      <trkpt lat="48.66936" lon="4.5757">
        <ele>153.95</ele>
        <time>2021-08-10T09:18:54Z</time>
      </trkpt>
      <trkpt lat="48.66948" lon="4.57604">
        <ele>150.58</ele>
        <time>2021-08-10T09:18:58Z</time>
      </trkpt>
      <trkpt lat="48.66963" lon="4.57648">
        <ele>146.26</ele>
        <time>2021-08-10T09:19:02Z</time>
      </trkpt>
      <trkpt lat="48.66976" lon="4.57687">
        <ele>143.37</ele>
        <time>2021-08-10T09:19:05Z</time>
      </trkpt>
      <trkpt lat="48.66994" lon="4.57741">
        <ele>139.53</ele>
        <time>2021-08-10T09:19:09Z</time>
      </trkpt>
      <trkpt lat="48.67014" lon="4.57798">
        <ele>136.16</ele>
        <time>2021-08-10T09:19:13Z</time>
      </trkpt>
      <trkpt lat="48.67032" lon="4.57853">
        <ele>132.8</ele>
        <time>2021-08-10T09:19:17Z</time>
      </trkpt>
      <trkpt lat="48.67051" lon="4.57909">
        <ele>129.43</ele>
        <time>2021-08-10T09:19:21Z</time>
      </trkpt>
      <trkpt lat="48.67071" lon="4.57969">
        <ele>127.03</ele>
        <time>2021-08-10T09:19:26Z</time>
      </trkpt>
      <trkpt lat="48.6708" lon="4.57996">
        <ele>124.63</ele>
        <time>2021-08-10T09:19:29Z</time>
      </trkpt>
      <trkpt lat="48.67083" lon="4.58004">
        <ele>123.67</ele>
        <time>2021-08-10T09:19:30Z</time>
      </trkpt>
      <trkpt lat="48.67087" lon="4.58012">
        <ele>123.67</ele>
        <time>2021-08-10T09:19:31Z</time>
      </trkpt>
      <trkpt lat="48.67095" lon="4.58029">
        <ele>122.22</ele>
        <time>2021-08-10T09:19:33Z</time>
      </trkpt>
      <trkpt lat="48.6712" lon="4.58076">
        <ele>118.86</ele>
        <time>2021-08-10T09:19:39Z</time>
      </trkpt>
      <trkpt lat="48.67125" lon="4.58083">
        <ele>118.38</ele>
        <time>2021-08-10T09:19:40Z</time>
      </trkpt>
      <trkpt lat="48.67141" lon="4.58107">
        <ele>117.42</ele>
        <time>2021-08-10T09:19:43Z</time>
      </trkpt>
      <trkpt lat="48.67171" lon="4.5816">
        <ele>115.5</ele>
        <time>2021-08-10T09:19:49Z</time>
      </trkpt>
      <trkpt lat="48.67204" lon="4.58237">
        <ele>113.09</ele>
        <time>2021-08-10T09:19:57Z</time>
      </trkpt>
      <trkpt lat="48.67221" lon="4.58282">
        <ele>110.69</ele>
        <time>2021-08-10T09:20:02Z</time>
      </trkpt>
      <trkpt lat="48.67222" lon="4.58287">
        <ele>110.69</ele>
        <time>2021-08-10T09:20:03Z</time>
      </trkpt>
      <trkpt lat="48.67222" lon="4.58292">
        <ele>110.69</ele>
        <time>2021-08-10T09:20:04Z</time>
      </trkpt>
      <trkpt lat="48.67222" lon="4.58294">
        <ele>110.69</ele>
        <time>2021-08-10T09:20:05Z</time>
      </trkpt>
      <trkpt lat="48.67221" lon="4.58297">
        <ele>110.69</ele>
        <time>2021-08-10T09:20:06Z</time>
      </trkpt>
      <trkpt lat="48.67222" lon="4.58301">
        <ele>110.69</ele>
        <time>2021-08-10T09:20:07Z</time>
      </trkpt>
      <trkpt lat="48.67222" lon="4.58306">
        <ele>110.69</ele>
        <time>2021-08-10T09:20:08Z</time>
      </trkpt>
      <trkpt lat="48.67224" lon="4.5831">
        <ele>110.69</ele>
        <time>2021-08-10T09:20:09Z</time>
      </trkpt>
      <trkpt lat="48.67225" lon="4.58315">
        <ele>110.69</ele>
        <time>2021-08-10T09:20:10Z</time>
      </trkpt>
      <trkpt lat="48.6723" lon="4.58326">
        <ele>109.73</ele>
        <time>2021-08-10T09:20:12Z</time>
      </trkpt>
      <trkpt lat="48.67233" lon="4.58332">
        <ele>109.73</ele>
        <time>2021-08-10T09:20:13Z</time>
      </trkpt>
      <trkpt lat="48.67243" lon="4.5835">
        <ele>108.77</ele>
        <time>2021-08-10T09:20:16Z</time>
      </trkpt>
      <trkpt lat="48.67247" lon="4.58356">
        <ele>108.77</ele>
        <time>2021-08-10T09:20:17Z</time>
      </trkpt>
      <trkpt lat="48.67252" lon="4.58361">
        <ele>108.29</ele>
        <time>2021-08-10T09:20:18Z</time>
      </trkpt>
      <trkpt lat="48.67266" lon="4.58377">
        <ele>108.29</ele>
        <time>2021-08-10T09:20:21Z</time>
      </trkpt>
      <trkpt lat="48.67278" lon="4.58395">
        <ele>107.32</ele>
        <time>2021-08-10T09:20:24Z</time>
      </trkpt>
      <trkpt lat="48.67313" lon="4.5846">
        <ele>107.32</ele>
        <time>2021-08-10T09:20:34Z</time>
      </trkpt>
      <trkpt lat="48.67325" lon="4.58484">
        <ele>107.32</ele>
        <time>2021-08-10T09:20:38Z</time>
      </trkpt>
      <trkpt lat="48.67328" lon="4.5849">
        <ele>107.32</ele>
        <time>2021-08-10T09:20:39Z</time>
      </trkpt>
      <trkpt lat="48.67353" lon="4.58529">
        <ele>106.36</ele>
        <time>2021-08-10T09:20:45Z</time>
      </trkpt>
      <trkpt lat="48.67358" lon="4.58538">
        <ele>105.88</ele>
        <time>2021-08-10T09:20:46Z</time>
      </trkpt>
      <trkpt lat="48.67361" lon="4.58546">
        <ele>105.88</ele>
        <time>2021-08-10T09:20:47Z</time>
      </trkpt>
      <trkpt lat="48.67364" lon="4.58555">
        <ele>105.88</ele>
        <time>2021-08-10T09:20:48Z</time>
      </trkpt>
      <trkpt lat="48.67366" lon="4.58564">
        <ele>105.88</ele>
        <time>2021-08-10T09:20:49Z</time>
      </trkpt>
      <trkpt lat="48.67366" lon="4.58573">
        <ele>105.88</ele>
        <time>2021-08-10T09:20:50Z</time>
      </trkpt>
      <trkpt lat="48.67365" lon="4.58581">
        <ele>105.88</ele>
        <time>2021-08-10T09:20:51Z</time>
      </trkpt>
      <trkpt lat="48.67364" lon="4.58591">
        <ele>105.88</ele>
        <time>2021-08-10T09:20:52Z</time>
      </trkpt>
      <trkpt lat="48.67362" lon="4.58598">
        <ele>105.88</ele>
        <time>2021-08-10T09:20:53Z</time>
      </trkpt>
      <trkpt lat="48.67359" lon="4.58605">
        <ele>105.88</ele>
        <time>2021-08-10T09:20:54Z</time>
      </trkpt>
      <trkpt lat="48.67357" lon="4.58612">
        <ele>105.88</ele>
        <time>2021-08-10T09:20:55Z</time>
      </trkpt>
      <trkpt lat="48.67339" lon="4.5867">
        <ele>105.4</ele>
        <time>2021-08-10T09:21:03Z</time>
      </trkpt>
      <trkpt lat="48.67338" lon="4.58678">
        <ele>105.4</ele>
        <time>2021-08-10T09:21:04Z</time>
      </trkpt>
      <trkpt lat="48.67338" lon="4.58687">
        <ele>105.4</ele>
        <time>2021-08-10T09:21:05Z</time>
      </trkpt>
      <trkpt lat="48.67338" lon="4.58694">
        <ele>105.4</ele>
        <time>2021-08-10T09:21:06Z</time>
      </trkpt>
      <trkpt lat="48.67339" lon="4.58701">
        <ele>105.4</ele>
        <time>2021-08-10T09:21:07Z</time>
      </trkpt>
      <trkpt lat="48.67341" lon="4.58708">
        <ele>105.4</ele>
        <time>2021-08-10T09:21:08Z</time>
      </trkpt>
      <trkpt lat="48.67343" lon="4.58714">
        <ele>105.4</ele>
        <time>2021-08-10T09:21:09Z</time>
      </trkpt>
      <trkpt lat="48.67359" lon="4.58769">
        <ele>105.4</ele>
        <time>2021-08-10T09:21:17Z</time>
      </trkpt>
      <trkpt lat="48.67374" lon="4.58831">
        <ele>105.4</ele>
        <time>2021-08-10T09:21:26Z</time>
      </trkpt>
      <trkpt lat="48.67385" lon="4.58869">
        <ele>105.4</ele>
        <time>2021-08-10T09:21:32Z</time>
      </trkpt>
      <trkpt lat="48.67387" lon="4.58875">
        <ele>105.4</ele>
        <time>2021-08-10T09:21:33Z</time>
      </trkpt>
      <trkpt lat="48.67389" lon="4.58882">
        <ele>105.4</ele>
        <time>2021-08-10T09:21:34Z</time>
      </trkpt>
      <trkpt lat="48.6739" lon="4.58889">
        <ele>105.4</ele>
        <time>2021-08-10T09:21:35Z</time>
      </trkpt>
      <trkpt lat="48.6739" lon="4.58896">
        <ele>105.4</ele>
        <time>2021-08-10T09:21:36Z</time>
      </trkpt>
      <trkpt lat="48.67388" lon="4.58903">
        <ele>105.4</ele>
        <time>2021-08-10T09:21:37Z</time>
      </trkpt>
      <trkpt lat="48.67385" lon="4.58907">
        <ele>105.4</ele>
        <time>2021-08-10T09:21:38Z</time>
      </trkpt>
      <trkpt lat="48.67382" lon="4.58912">
        <ele>105.4</ele>
        <time>2021-08-10T09:21:39Z</time>
      </trkpt>
      <trkpt lat="48.67378" lon="4.58915">
        <ele>105.4</ele>
        <time>2021-08-10T09:21:40Z</time>
      </trkpt>
      <trkpt lat="48.67354" lon="4.58938">
        <ele>105.4</ele>
        <time>2021-08-10T09:21:46Z</time>
      </trkpt>
      <trkpt lat="48.67317" lon="4.58983">
        <ele>105.4</ele>
        <time>2021-08-10T09:21:56Z</time>
      </trkpt>
      <trkpt lat="48.67302" lon="4.59002">
        <ele>106.36</ele>
        <time>2021-08-10T09:22:00Z</time>
      </trkpt>
      <trkpt lat="48.67271" lon="4.59042">
        <ele>106.36</ele>
        <time>2021-08-10T09:22:08Z</time>
      </trkpt>
      <trkpt lat="48.67241" lon="4.59082">
        <ele>106.84</ele>
        <time>2021-08-10T09:22:16Z</time>
      </trkpt>
      <trkpt lat="48.67207" lon="4.59133">
        <ele>106.84</ele>
        <time>2021-08-10T09:22:25Z</time>
      </trkpt>
      <trkpt lat="48.67203" lon="4.59138">
        <ele>106.84</ele>
        <time>2021-08-10T09:22:26Z</time>
      </trkpt>
      <trkpt lat="48.67199" lon="4.59143">
        <ele>106.84</ele>
        <time>2021-08-10T09:22:27Z</time>
      </trkpt>
      <trkpt lat="48.67165" lon="4.59185">
        <ele>106.84</ele>
        <time>2021-08-10T09:22:35Z</time>
      </trkpt>
      <trkpt lat="48.67136" lon="4.59216">
        <ele>106.84</ele>
        <time>2021-08-10T09:22:42Z</time>
      </trkpt>
      <trkpt lat="48.67127" lon="4.59225">
        <ele>106.84</ele>
        <time>2021-08-10T09:22:44Z</time>
      </trkpt>
      <trkpt lat="48.67093" lon="4.59263">
        <ele>106.84</ele>
        <time>2021-08-10T09:22:52Z</time>
      </trkpt>
      <trkpt lat="48.67084" lon="4.59273">
        <ele>106.84</ele>
        <time>2021-08-10T09:22:54Z</time>
      </trkpt>
      <trkpt lat="48.6708" lon="4.59278">
        <ele>106.84</ele>
        <time>2021-08-10T09:22:55Z</time>
      </trkpt>
      <trkpt lat="48.67041" lon="4.59324">
        <ele>106.84</ele>
        <time>2021-08-10T09:23:04Z</time>
      </trkpt>
      <trkpt lat="48.67012" lon="4.5936">
        <ele>106.84</ele>
        <time>2021-08-10T09:23:11Z</time>
      </trkpt>
      <trkpt lat="48.67009" lon="4.59365">
        <ele>106.84</ele>
        <time>2021-08-10T09:23:12Z</time>
      </trkpt>
      <trkpt lat="48.67004" lon="4.59371">
        <ele>106.84</ele>
        <time>2021-08-10T09:23:13Z</time>
      </trkpt>
      <trkpt lat="48.66974" lon="4.59412">
        <ele>106.84</ele>
        <time>2021-08-10T09:23:21Z</time>
      </trkpt>
      <trkpt lat="48.66945" lon="4.59453">
        <ele>106.84</ele>
        <time>2021-08-10T09:23:29Z</time>
      </trkpt>
      <trkpt lat="48.66927" lon="4.59479">
        <ele>106.84</ele>
        <time>2021-08-10T09:23:34Z</time>
      </trkpt>
      <trkpt lat="48.66924" lon="4.59485">
        <ele>106.84</ele>
        <time>2021-08-10T09:23:35Z</time>
      </trkpt>
      <trkpt lat="48.66892" lon="4.59543">
        <ele>106.84</ele>
        <time>2021-08-10T09:23:45Z</time>
      </trkpt>
      <trkpt lat="48.66874" lon="4.59572">
        <ele>106.84</ele>
        <time>2021-08-10T09:23:50Z</time>
      </trkpt>
      <trkpt lat="48.66871" lon="4.59578">
        <ele>106.84</ele>
        <time>2021-08-10T09:23:51Z</time>
      </trkpt>
      <trkpt lat="48.66867" lon="4.59584">
        <ele>106.84</ele>
        <time>2021-08-10T09:23:52Z</time>
      </trkpt>
      <trkpt lat="48.66836" lon="4.59629">
        <ele>106.84</ele>
        <time>2021-08-10T09:24:00Z</time>
      </trkpt>
      <trkpt lat="48.66822" lon="4.5965">
        <ele>106.84</ele>
        <time>2021-08-10T09:24:04Z</time>
      </trkpt>
      <trkpt lat="48.6681" lon="4.59664">
        <ele>106.84</ele>
        <time>2021-08-10T09:24:07Z</time>
      </trkpt>
      <trkpt lat="48.66803" lon="4.59673">
        <ele>106.84</ele>
        <time>2021-08-10T09:24:09Z</time>
      </trkpt>
      <trkpt lat="48.66768" lon="4.59715">
        <ele>106.84</ele>
        <time>2021-08-10T09:24:18Z</time>
      </trkpt>
      <trkpt lat="48.6673" lon="4.5976">
        <ele>106.84</ele>
        <time>2021-08-10T09:24:27Z</time>
      </trkpt>
      <trkpt lat="48.66709" lon="4.59784">
        <ele>106.84</ele>
        <time>2021-08-10T09:24:32Z</time>
      </trkpt>
      <trkpt lat="48.66679" lon="4.59819">
        <ele>106.84</ele>
        <time>2021-08-10T09:24:39Z</time>
      </trkpt>
      <trkpt lat="48.66676" lon="4.59823">
        <ele>106.84</ele>
        <time>2021-08-10T09:24:40Z</time>
      </trkpt>
      <trkpt lat="48.66672" lon="4.59827">
        <ele>106.84</ele>
        <time>2021-08-10T09:24:41Z</time>
      </trkpt>
      <trkpt lat="48.66661" lon="4.59841">
        <ele>106.84</ele>
        <time>2021-08-10T09:24:44Z</time>
      </trkpt>
      <trkpt lat="48.6665" lon="4.59853">
        <ele>106.84</ele>
        <time>2021-08-10T09:24:47Z</time>
      </trkpt>
      <trkpt lat="48.66637" lon="4.59864">
        <ele>106.84</ele>
        <time>2021-08-10T09:24:50Z</time>
      </trkpt>
      <trkpt lat="48.66633" lon="4.59868">
        <ele>106.84</ele>
        <time>2021-08-10T09:24:51Z</time>
      </trkpt>
      <trkpt lat="48.66626" lon="4.59876">
        <ele>106.84</ele>
        <time>2021-08-10T09:24:53Z</time>
      </trkpt>
      <trkpt lat="48.66622" lon="4.5988">
        <ele>106.84</ele>
        <time>2021-08-10T09:24:54Z</time>
      </trkpt>
      <trkpt lat="48.66601" lon="4.59898">
        <ele>106.84</ele>
        <time>2021-08-10T09:24:59Z</time>
      </trkpt>
      <trkpt lat="48.66585" lon="4.59914">
        <ele>106.84</ele>
        <time>2021-08-10T09:25:03Z</time>
      </trkpt>
      <trkpt lat="48.66567" lon="4.59929">
        <ele>106.84</ele>
        <time>2021-08-10T09:25:07Z</time>
      </trkpt>
      <trkpt lat="48.66562" lon="4.59934">
        <ele>106.84</ele>
        <time>2021-08-10T09:25:08Z</time>
      </trkpt>
      <trkpt lat="48.66558" lon="4.59939">
        <ele>106.84</ele>
        <time>2021-08-10T09:25:09Z</time>
      </trkpt>
      <trkpt lat="48.6655" lon="4.5995">
        <ele>106.84</ele>
        <time>2021-08-10T09:25:11Z</time>
      </trkpt>
      <trkpt lat="48.66546" lon="4.59955">
        <ele>106.84</ele>
        <time>2021-08-10T09:25:12Z</time>
      </trkpt>
      <trkpt lat="48.66514" lon="4.59995">
        <ele>106.84</ele>
        <time>2021-08-10T09:25:20Z</time>
      </trkpt>
      <trkpt lat="48.66495" lon="4.60023">
        <ele>106.84</ele>
        <time>2021-08-10T09:25:25Z</time>
      </trkpt>
      <trkpt lat="48.66473" lon="4.60052">
        <ele>106.84</ele>
        <time>2021-08-10T09:25:31Z</time>
      </trkpt>
      <trkpt lat="48.66455" lon="4.60081">
        <ele>107.32</ele>
        <time>2021-08-10T09:25:37Z</time>
      </trkpt>
      <trkpt lat="48.66442" lon="4.601">
        <ele>107.32</ele>
        <time>2021-08-10T09:25:43Z</time>
      </trkpt>
      <trkpt lat="48.66424" lon="4.60127">
        <ele>107.32</ele>
        <time>2021-08-10T09:25:50Z</time>
      </trkpt>
      <trkpt lat="48.66396" lon="4.60156">
        <ele>107.32</ele>
        <time>2021-08-10T09:25:59Z</time>
      </trkpt>
      <trkpt lat="48.66379" lon="4.60176">
        <ele>107.32</ele>
        <time>2021-08-10T09:26:05Z</time>
      </trkpt>
      <trkpt lat="48.6636" lon="4.60195">
        <ele>107.32</ele>
        <time>2021-08-10T09:26:11Z</time>
      </trkpt>
      <trkpt lat="48.66327" lon="4.60231">
        <ele>107.32</ele>
        <time>2021-08-10T09:26:21Z</time>
      </trkpt>
      <trkpt lat="48.66296" lon="4.60255">
        <ele>107.32</ele>
        <time>2021-08-10T09:26:30Z</time>
      </trkpt>
      <trkpt lat="48.66275" lon="4.60261">
        <ele>107.32</ele>
        <time>2021-08-10T09:26:36Z</time>
      </trkpt>
      <trkpt lat="48.66247" lon="4.60273">
        <ele>107.32</ele>
        <time>2021-08-10T09:26:43Z</time>
      </trkpt>
      <trkpt lat="48.66219" lon="4.60288">
        <ele>107.32</ele>
        <time>2021-08-10T09:26:50Z</time>
      </trkpt>
      <trkpt lat="48.66208" lon="4.60296">
        <ele>107.32</ele>
        <time>2021-08-10T09:26:53Z</time>
      </trkpt>
      <trkpt lat="48.662" lon="4.60302">
        <ele>107.32</ele>
        <time>2021-08-10T09:26:55Z</time>
      </trkpt>
      <trkpt lat="48.66177" lon="4.6032">
        <ele>107.32</ele>
        <time>2021-08-10T09:27:02Z</time>
      </trkpt>
      <trkpt lat="48.66156" lon="4.60338">
        <ele>107.32</ele>
        <time>2021-08-10T09:27:08Z</time>
      </trkpt>
      <trkpt lat="48.66126" lon="4.60366">
        <ele>107.32</ele>
        <time>2021-08-10T09:27:17Z</time>
      </trkpt>
      <trkpt lat="48.66087" lon="4.604">
        <ele>107.32</ele>
        <time>2021-08-10T09:27:28Z</time>
      </trkpt>
      <trkpt lat="48.6606" lon="4.60425">
        <ele>107.81</ele>
        <time>2021-08-10T09:27:36Z</time>
      </trkpt>
      <trkpt lat="48.66048" lon="4.60433">
        <ele>107.81</ele>
        <time>2021-08-10T09:27:40Z</time>
      </trkpt>
      <trkpt lat="48.66045" lon="4.60431">
        <ele>107.81</ele>
        <time>2021-08-10T09:27:41Z</time>
      </trkpt>
      <trkpt lat="48.66042" lon="4.60428">
        <ele>107.81</ele>
        <time>2021-08-10T09:27:42Z</time>
      </trkpt>
      <trkpt lat="48.6604" lon="4.60425">
        <ele>107.81</ele>
        <time>2021-08-10T09:27:43Z</time>
      </trkpt>
      <trkpt lat="48.66038" lon="4.6042">
        <ele>107.81</ele>
        <time>2021-08-10T09:27:44Z</time>
      </trkpt>
      <trkpt lat="48.66032" lon="4.60414">
        <ele>107.81</ele>
        <time>2021-08-10T09:27:46Z</time>
      </trkpt>
      <trkpt lat="48.66028" lon="4.60415">
        <ele>107.81</ele>
        <time>2021-08-10T09:27:47Z</time>
      </trkpt>
      <trkpt lat="48.66024" lon="4.60417">
        <ele>107.81</ele>
        <time>2021-08-10T09:27:48Z</time>
      </trkpt>
      <trkpt lat="48.6602" lon="4.6042">
        <ele>107.81</ele>
        <time>2021-08-10T09:27:49Z</time>
      </trkpt>
      <trkpt lat="48.66017" lon="4.60424">
        <ele>107.81</ele>
        <time>2021-08-10T09:27:50Z</time>
      </trkpt>
      <trkpt lat="48.66014" lon="4.60428">
        <ele>107.81</ele>
        <time>2021-08-10T09:27:51Z</time>
      </trkpt>
      <trkpt lat="48.65979" lon="4.60466">
        <ele>107.81</ele>
        <time>2021-08-10T09:28:01Z</time>
      </trkpt>
      <trkpt lat="48.6594" lon="4.60511">
        <ele>107.81</ele>
        <time>2021-08-10T09:28:12Z</time>
      </trkpt>
      <trkpt lat="48.65902" lon="4.60555">
        <ele>107.81</ele>
        <time>2021-08-10T09:28:22Z</time>
      </trkpt>
      <trkpt lat="48.65859" lon="4.60605">
        <ele>107.81</ele>
        <time>2021-08-10T09:28:33Z</time>
      </trkpt>
      <trkpt lat="48.6582" lon="4.60648">
        <ele>107.81</ele>
        <time>2021-08-10T09:28:42Z</time>
      </trkpt>
      <trkpt lat="48.65781" lon="4.6069">
        <ele>107.81</ele>
        <time>2021-08-10T09:28:51Z</time>
      </trkpt>
      <trkpt lat="48.65741" lon="4.60735">
        <ele>107.81</ele>
        <time>2021-08-10T09:29:01Z</time>
      </trkpt>
      <trkpt lat="48.65695" lon="4.60788">
        <ele>107.81</ele>
        <time>2021-08-10T09:29:12Z</time>
      </trkpt>
      <trkpt lat="48.65649" lon="4.6084">
        <ele>107.81</ele>
        <time>2021-08-10T09:29:23Z</time>
      </trkpt>
      <trkpt lat="48.65631" lon="4.60865">
        <ele>107.81</ele>
        <time>2021-08-10T09:29:28Z</time>
      </trkpt>
      <trkpt lat="48.65628" lon="4.60872">
        <ele>107.81</ele>
        <time>2021-08-10T09:29:29Z</time>
      </trkpt>
      <trkpt lat="48.65624" lon="4.60884">
        <ele>107.81</ele>
        <time>2021-08-10T09:29:31Z</time>
      </trkpt>
      <trkpt lat="48.65622" lon="4.60892">
        <ele>107.81</ele>
        <time>2021-08-10T09:29:32Z</time>
      </trkpt>
      <trkpt lat="48.65614" lon="4.60935">
        <ele>107.81</ele>
        <time>2021-08-10T09:29:38Z</time>
      </trkpt>
      <trkpt lat="48.65614" lon="4.60942">
        <ele>107.81</ele>
        <time>2021-08-10T09:29:39Z</time>
      </trkpt>
      <trkpt lat="48.65612" lon="4.60956">
        <ele>107.81</ele>
        <time>2021-08-10T09:29:41Z</time>
      </trkpt>
      <trkpt lat="48.65611" lon="4.60963">
        <ele>107.81</ele>
        <time>2021-08-10T09:29:42Z</time>
      </trkpt>
      <trkpt lat="48.65599" lon="4.61032">
        <ele>108.29</ele>
        <time>2021-08-10T09:29:52Z</time>
      </trkpt>
      <trkpt lat="48.65587" lon="4.61091">
        <ele>108.29</ele>
        <time>2021-08-10T09:30:01Z</time>
      </trkpt>
      <trkpt lat="48.65569" lon="4.61167">
        <ele>108.77</ele>
        <time>2021-08-10T09:30:13Z</time>
      </trkpt>
      <trkpt lat="48.65557" lon="4.61205">
        <ele>108.77</ele>
        <time>2021-08-10T09:30:19Z</time>
      </trkpt>
      <trkpt lat="48.65533" lon="4.61258">
        <ele>108.77</ele>
        <time>2021-08-10T09:30:28Z</time>
      </trkpt>
      <trkpt lat="48.65505" lon="4.61306">
        <ele>108.77</ele>
        <time>2021-08-10T09:30:37Z</time>
      </trkpt>
      <trkpt lat="48.65497" lon="4.61315">
        <ele>108.77</ele>
        <time>2021-08-10T09:30:39Z</time>
      </trkpt>
      <trkpt lat="48.6549" lon="4.61323">
        <ele>108.77</ele>
        <time>2021-08-10T09:30:41Z</time>
      </trkpt>
      <trkpt lat="48.6547" lon="4.6134">
        <ele>109.25</ele>
        <time>2021-08-10T09:30:46Z</time>
      </trkpt>
      <trkpt lat="48.65452" lon="4.61362">
        <ele>109.25</ele>
        <time>2021-08-10T09:30:51Z</time>
      </trkpt>
      <trkpt lat="48.65438" lon="4.61391">
        <ele>109.25</ele>
        <time>2021-08-10T09:30:57Z</time>
      </trkpt>
      <trkpt lat="48.65417" lon="4.61442">
        <ele>109.73</ele>
        <time>2021-08-10T09:31:06Z</time>
      </trkpt>
      <trkpt lat="48.65397" lon="4.61498">
        <ele>110.21</ele>
        <time>2021-08-10T09:31:16Z</time>
      </trkpt>
      <trkpt lat="48.65385" lon="4.61533">
        <ele>110.69</ele>
        <time>2021-08-10T09:31:22Z</time>
      </trkpt>
      <trkpt lat="48.65365" lon="4.61584">
        <ele>112.61</ele>
        <time>2021-08-10T09:31:32Z</time>
      </trkpt>
      <trkpt lat="48.65344" lon="4.61637">
        <ele>113.57</ele>
        <time>2021-08-10T09:31:42Z</time>
      </trkpt>
      <trkpt lat="48.65318" lon="4.61683">
        <ele>114.05</ele>
        <time>2021-08-10T09:31:52Z</time>
      </trkpt>
      <trkpt lat="48.65294" lon="4.61716">
        <ele>114.53</ele>
        <time>2021-08-10T09:32:00Z</time>
      </trkpt>
      <trkpt lat="48.6526" lon="4.61753">
        <ele>114.53</ele>
        <time>2021-08-10T09:32:09Z</time>
      </trkpt>
      <trkpt lat="48.65244" lon="4.6177">
        <ele>114.53</ele>
        <time>2021-08-10T09:32:13Z</time>
      </trkpt>
      <trkpt lat="48.6524" lon="4.61775">
        <ele>114.53</ele>
        <time>2021-08-10T09:32:14Z</time>
      </trkpt>
      <trkpt lat="48.65236" lon="4.61778">
        <ele>114.53</ele>
        <time>2021-08-10T09:32:15Z</time>
      </trkpt>
      <trkpt lat="48.65196" lon="4.61812">
        <ele>115.5</ele>
        <time>2021-08-10T09:32:25Z</time>
      </trkpt>
      <trkpt lat="48.65188" lon="4.61819">
        <ele>115.01</ele>
        <time>2021-08-10T09:32:27Z</time>
      </trkpt>
      <trkpt lat="48.6518" lon="4.61824">
        <ele>115.5</ele>
        <time>2021-08-10T09:32:29Z</time>
      </trkpt>
      <trkpt lat="48.65175" lon="4.61825">
        <ele>115.5</ele>
        <time>2021-08-10T09:32:30Z</time>
      </trkpt>
      <trkpt lat="48.65171" lon="4.61824">
        <ele>115.5</ele>
        <time>2021-08-10T09:32:31Z</time>
      </trkpt>
      <trkpt lat="48.65166" lon="4.61822">
        <ele>115.5</ele>
        <time>2021-08-10T09:32:32Z</time>
      </trkpt>
      <trkpt lat="48.65162" lon="4.61818">
        <ele>115.98</ele>
        <time>2021-08-10T09:32:33Z</time>
      </trkpt>
      <trkpt lat="48.6516" lon="4.61813">
        <ele>115.98</ele>
        <time>2021-08-10T09:32:34Z</time>
      </trkpt>
      <trkpt lat="48.65157" lon="4.61807">
        <ele>115.98</ele>
        <time>2021-08-10T09:32:35Z</time>
      </trkpt>
      <trkpt lat="48.65155" lon="4.618">
        <ele>115.98</ele>
        <time>2021-08-10T09:32:36Z</time>
      </trkpt>
      <trkpt lat="48.65154" lon="4.61794">
        <ele>116.46</ele>
        <time>2021-08-10T09:32:37Z</time>
      </trkpt>
      <trkpt lat="48.65153" lon="4.61788">
        <ele>116.46</ele>
        <time>2021-08-10T09:32:38Z</time>
      </trkpt>
      <trkpt lat="48.65144" lon="4.61726">
        <ele>117.9</ele>
        <time>2021-08-10T09:32:47Z</time>
      </trkpt>
      <trkpt lat="48.65142" lon="4.61666">
        <ele>118.38</ele>
        <time>2021-08-10T09:32:56Z</time>
      </trkpt>
      <trkpt lat="48.6514" lon="4.61611">
        <ele>119.82</ele>
        <time>2021-08-10T09:33:05Z</time>
      </trkpt>
      <trkpt lat="48.65137" lon="4.61568">
        <ele>121.74</ele>
        <time>2021-08-10T09:33:14Z</time>
      </trkpt>
      <trkpt lat="48.65133" lon="4.61537">
        <ele>122.71</ele>
        <time>2021-08-10T09:33:21Z</time>
      </trkpt>
      <trkpt lat="48.6513" lon="4.61499">
        <ele>124.63</ele>
        <time>2021-08-10T09:33:30Z</time>
      </trkpt>
      <trkpt lat="48.65126" lon="4.61459">
        <ele>126.07</ele>
        <time>2021-08-10T09:33:40Z</time>
      </trkpt>
      <trkpt lat="48.65121" lon="4.61414">
        <ele>127.51</ele>
        <time>2021-08-10T09:33:50Z</time>
      </trkpt>
      <trkpt lat="48.65112" lon="4.61366">
        <ele>128.47</ele>
        <time>2021-08-10T09:34:00Z</time>
      </trkpt>
      <trkpt lat="48.65093" lon="4.613">
        <ele>128.47</ele>
        <time>2021-08-10T09:34:12Z</time>
      </trkpt>
      <trkpt lat="48.65072" lon="4.61232">
        <ele>128.47</ele>
        <time>2021-08-10T09:34:22Z</time>
      </trkpt>
      <trkpt lat="48.65063" lon="4.61201">
        <ele>127.03</ele>
        <time>2021-08-10T09:34:26Z</time>
      </trkpt>
      <trkpt lat="48.65062" lon="4.61193">
        <ele>127.03</ele>
        <time>2021-08-10T09:34:27Z</time>
      </trkpt>
      <trkpt lat="48.65058" lon="4.61176">
        <ele>127.03</ele>
        <time>2021-08-10T09:34:29Z</time>
      </trkpt>
      <trkpt lat="48.65055" lon="4.61169">
        <ele>127.03</ele>
        <time>2021-08-10T09:34:30Z</time>
      </trkpt>
      <trkpt lat="48.65051" lon="4.61163">
        <ele>127.03</ele>
        <time>2021-08-10T09:34:31Z</time>
      </trkpt>
      <trkpt lat="48.65046" lon="4.61159">
        <ele>127.03</ele>
        <time>2021-08-10T09:34:32Z</time>
      </trkpt>
      <trkpt lat="48.6504" lon="4.6116">
        <ele>127.03</ele>
        <time>2021-08-10T09:34:33Z</time>
      </trkpt>
      <trkpt lat="48.65037" lon="4.61163">
        <ele>127.03</ele>
        <time>2021-08-10T09:34:34Z</time>
      </trkpt>
      <trkpt lat="48.65033" lon="4.61168">
        <ele>126.55</ele>
        <time>2021-08-10T09:34:35Z</time>
      </trkpt>
      <trkpt lat="48.6503" lon="4.61174">
        <ele>126.55</ele>
        <time>2021-08-10T09:34:36Z</time>
      </trkpt>
      <trkpt lat="48.64996" lon="4.61229">
        <ele>126.55</ele>
        <time>2021-08-10T09:34:46Z</time>
      </trkpt>
      <trkpt lat="48.64972" lon="4.61266">
        <ele>125.59</ele>
        <time>2021-08-10T09:34:52Z</time>
      </trkpt>
      <trkpt lat="48.64926" lon="4.61338">
        <ele>124.15</ele>
        <time>2021-08-10T09:35:03Z</time>
      </trkpt>
      <trkpt lat="48.64884" lon="4.61401">
        <ele>124.15</ele>
        <time>2021-08-10T09:35:13Z</time>
      </trkpt>
      <trkpt lat="48.64837" lon="4.61464">
        <ele>124.15</ele>
        <time>2021-08-10T09:35:24Z</time>
      </trkpt>
      <trkpt lat="48.64803" lon="4.61507">
        <ele>124.15</ele>
        <time>2021-08-10T09:35:32Z</time>
      </trkpt>
      <trkpt lat="48.6479" lon="4.61522">
        <ele>125.59</ele>
        <time>2021-08-10T09:35:35Z</time>
      </trkpt>
      <trkpt lat="48.64752" lon="4.61573">
        <ele>125.59</ele>
        <time>2021-08-10T09:35:44Z</time>
      </trkpt>
      <trkpt lat="48.64703" lon="4.61635">
        <ele>124.15</ele>
        <time>2021-08-10T09:35:54Z</time>
      </trkpt>
      <trkpt lat="48.6467" lon="4.61678">
        <ele>124.15</ele>
        <time>2021-08-10T09:36:02Z</time>
      </trkpt>
      <trkpt lat="48.64642" lon="4.61715">
        <ele>124.15</ele>
        <time>2021-08-10T09:36:09Z</time>
      </trkpt>
      <trkpt lat="48.64603" lon="4.61781">
        <ele>121.74</ele>
        <time>2021-08-10T09:36:19Z</time>
      </trkpt>
      <trkpt lat="48.64562" lon="4.6186">
        <ele>118.86</ele>
        <time>2021-08-10T09:36:28Z</time>
      </trkpt>
      <trkpt lat="48.64525" lon="4.61934">
        <ele>118.38</ele>
        <time>2021-08-10T09:36:37Z</time>
      </trkpt>
      <trkpt lat="48.64493" lon="4.62002">
        <ele>115.98</ele>
        <time>2021-08-10T09:36:45Z</time>
      </trkpt>
      <trkpt lat="48.6446" lon="4.62078">
        <ele>115.5</ele>
        <time>2021-08-10T09:36:54Z</time>
      </trkpt>
      <trkpt lat="48.64425" lon="4.62159">
        <ele>115.01</ele>
        <time>2021-08-10T09:37:04Z</time>
      </trkpt>
      <trkpt lat="48.64388" lon="4.62237">
        <ele>113.57</ele>
        <time>2021-08-10T09:37:14Z</time>
      </trkpt>
      <trkpt lat="48.64346" lon="4.62305">
        <ele>111.65</ele>
        <time>2021-08-10T09:37:23Z</time>
      </trkpt>
      <trkpt lat="48.64298" lon="4.62374">
        <ele>110.69</ele>
        <time>2021-08-10T09:37:33Z</time>
      </trkpt>
      <trkpt lat="48.64257" lon="4.62435">
        <ele>110.21</ele>
        <time>2021-08-10T09:37:42Z</time>
      </trkpt>
      <trkpt lat="48.64214" lon="4.62503">
        <ele>110.21</ele>
        <time>2021-08-10T09:37:52Z</time>
      </trkpt>
      <trkpt lat="48.64206" lon="4.62514">
        <ele>110.21</ele>
        <time>2021-08-10T09:37:54Z</time>
      </trkpt>
      <trkpt lat="48.64157" lon="4.6256">
        <ele>110.21</ele>
        <time>2021-08-10T09:38:04Z</time>
      </trkpt>
      <trkpt lat="48.64114" lon="4.62579">
        <ele>109.73</ele>
        <time>2021-08-10T09:38:12Z</time>
      </trkpt>
      <trkpt lat="48.64094" lon="4.62589">
        <ele>109.73</ele>
        <time>2021-08-10T09:38:16Z</time>
      </trkpt>
      <trkpt lat="48.64089" lon="4.62593">
        <ele>109.73</ele>
        <time>2021-08-10T09:38:17Z</time>
      </trkpt>
      <trkpt lat="48.64064" lon="4.62615">
        <ele>111.17</ele>
        <time>2021-08-10T09:38:23Z</time>
      </trkpt>
      <trkpt lat="48.64057" lon="4.62622">
        <ele>112.13</ele>
        <time>2021-08-10T09:38:25Z</time>
      </trkpt>
      <trkpt lat="48.64054" lon="4.62626">
        <ele>112.13</ele>
        <time>2021-08-10T09:38:26Z</time>
      </trkpt>
      <trkpt lat="48.64023" lon="4.62656">
        <ele>114.05</ele>
        <time>2021-08-10T09:38:36Z</time>
      </trkpt>
      <trkpt lat="48.64005" lon="4.62672">
        <ele>115.01</ele>
        <time>2021-08-10T09:38:42Z</time>
      </trkpt>
      <trkpt lat="48.63975" lon="4.62703">
        <ele>116.94</ele>
        <time>2021-08-10T09:38:52Z</time>
      </trkpt>
      <trkpt lat="48.63945" lon="4.62737">
        <ele>117.42</ele>
        <time>2021-08-10T09:39:01Z</time>
      </trkpt>
      <trkpt lat="48.63918" lon="4.62772">
        <ele>115.98</ele>
        <time>2021-08-10T09:39:08Z</time>
      </trkpt>
      <trkpt lat="48.63879" lon="4.62835">
        <ele>114.53</ele>
        <time>2021-08-10T09:39:18Z</time>
      </trkpt>
      <trkpt lat="48.63849" lon="4.62893">
        <ele>113.57</ele>
        <time>2021-08-10T09:39:26Z</time>
      </trkpt>
      <trkpt lat="48.6381" lon="4.62952">
        <ele>111.65</ele>
        <time>2021-08-10T09:39:34Z</time>
      </trkpt>
      <trkpt lat="48.63779" lon="4.62997">
        <ele>111.17</ele>
        <time>2021-08-10T09:39:40Z</time>
      </trkpt>
      <trkpt lat="48.63776" lon="4.63006">
        <ele>111.17</ele>
        <time>2021-08-10T09:39:41Z</time>
      </trkpt>
      <trkpt lat="48.63772" lon="4.63015">
        <ele>111.17</ele>
        <time>2021-08-10T09:39:42Z</time>
      </trkpt>
      <trkpt lat="48.63751" lon="4.63092">
        <ele>110.69</ele>
        <time>2021-08-10T09:39:50Z</time>
      </trkpt>
      <trkpt lat="48.63725" lon="4.6319">
        <ele>110.69</ele>
        <time>2021-08-10T09:40:01Z</time>
      </trkpt>
      <trkpt lat="48.6371" lon="4.63271">
        <ele>110.69</ele>
        <time>2021-08-10T09:40:10Z</time>
      </trkpt>
      <trkpt lat="48.63707" lon="4.63318">
        <ele>110.69</ele>
        <time>2021-08-10T09:40:15Z</time>
      </trkpt>
      <trkpt lat="48.63705" lon="4.63327">
        <ele>110.69</ele>
        <time>2021-08-10T09:40:16Z</time>
      </trkpt>
      <trkpt lat="48.63703" lon="4.63336">
        <ele>110.69</ele>
        <time>2021-08-10T09:40:17Z</time>
      </trkpt>
      <trkpt lat="48.63699" lon="4.63343">
        <ele>110.69</ele>
        <time>2021-08-10T09:40:18Z</time>
      </trkpt>
      <trkpt lat="48.63695" lon="4.63349">
        <ele>110.69</ele>
        <time>2021-08-10T09:40:19Z</time>
      </trkpt>
      <trkpt lat="48.63691" lon="4.63355">
        <ele>110.69</ele>
        <time>2021-08-10T09:40:20Z</time>
      </trkpt>
      <trkpt lat="48.63687" lon="4.6336">
        <ele>110.69</ele>
        <time>2021-08-10T09:40:21Z</time>
      </trkpt>
      <trkpt lat="48.63649" lon="4.63413">
        <ele>110.69</ele>
        <time>2021-08-10T09:40:30Z</time>
      </trkpt>
      <trkpt lat="48.63629" lon="4.63443">
        <ele>110.69</ele>
        <time>2021-08-10T09:40:35Z</time>
      </trkpt>
      <trkpt lat="48.63623" lon="4.63456">
        <ele>110.69</ele>
        <time>2021-08-10T09:40:37Z</time>
      </trkpt>
      <trkpt lat="48.63593" lon="4.63504">
        <ele>110.69</ele>
        <time>2021-08-10T09:40:45Z</time>
      </trkpt>
      <trkpt lat="48.63557" lon="4.63565">
        <ele>111.65</ele>
        <time>2021-08-10T09:40:55Z</time>
      </trkpt>
      <trkpt lat="48.63537" lon="4.63605">
        <ele>113.09</ele>
        <time>2021-08-10T09:41:03Z</time>
      </trkpt>
      <trkpt lat="48.63524" lon="4.63632">
        <ele>114.05</ele>
        <time>2021-08-10T09:41:09Z</time>
      </trkpt>
      <trkpt lat="48.6351" lon="4.63656">
        <ele>115.01</ele>
        <time>2021-08-10T09:41:15Z</time>
      </trkpt>
      <trkpt lat="48.63483" lon="4.63688">
        <ele>115.01</ele>
        <time>2021-08-10T09:41:23Z</time>
      </trkpt>
      <trkpt lat="48.63441" lon="4.63728">
        <ele>113.57</ele>
        <time>2021-08-10T09:41:32Z</time>
      </trkpt>
      <trkpt lat="48.63436" lon="4.63732">
        <ele>113.57</ele>
        <time>2021-08-10T09:41:33Z</time>
      </trkpt>
      <trkpt lat="48.63402" lon="4.63756">
        <ele>113.57</ele>
        <time>2021-08-10T09:41:40Z</time>
      </trkpt>
      <trkpt lat="48.63355" lon="4.63782">
        <ele>113.57</ele>
        <time>2021-08-10T09:41:50Z</time>
      </trkpt>
      <trkpt lat="48.63305" lon="4.63808">
        <ele>113.57</ele>
        <time>2021-08-10T09:41:59Z</time>
      </trkpt>
      <trkpt lat="48.63267" lon="4.63825">
        <ele>113.57</ele>
        <time>2021-08-10T09:42:06Z</time>
      </trkpt>
      <trkpt lat="48.63235" lon="4.63836">
        <ele>115.01</ele>
        <time>2021-08-10T09:42:13Z</time>
      </trkpt>
      <trkpt lat="48.6323" lon="4.63838">
        <ele>115.01</ele>
        <time>2021-08-10T09:42:14Z</time>
      </trkpt>
      <trkpt lat="48.63205" lon="4.63846">
        <ele>116.94</ele>
        <time>2021-08-10T09:42:21Z</time>
      </trkpt>
      <trkpt lat="48.63201" lon="4.63847">
        <ele>116.94</ele>
        <time>2021-08-10T09:42:22Z</time>
      </trkpt>
      <trkpt lat="48.63178" lon="4.63852">
        <ele>118.38</ele>
        <time>2021-08-10T09:42:30Z</time>
      </trkpt>
      <trkpt lat="48.63153" lon="4.6387">
        <ele>118.86</ele>
        <time>2021-08-10T09:42:39Z</time>
      </trkpt>
      <trkpt lat="48.63126" lon="4.63894">
        <ele>119.34</ele>
        <time>2021-08-10T09:42:48Z</time>
      </trkpt>
      <trkpt lat="48.63096" lon="4.63927">
        <ele>119.82</ele>
        <time>2021-08-10T09:42:57Z</time>
      </trkpt>
      <trkpt lat="48.6309" lon="4.63934">
        <ele>119.82</ele>
        <time>2021-08-10T09:42:59Z</time>
      </trkpt>
      <trkpt lat="48.63082" lon="4.63942">
        <ele>120.3</ele>
        <time>2021-08-10T09:43:01Z</time>
      </trkpt>
      <trkpt lat="48.63051" lon="4.63977">
        <ele>120.3</ele>
        <time>2021-08-10T09:43:09Z</time>
      </trkpt>
      <trkpt lat="48.63043" lon="4.63989">
        <ele>120.3</ele>
        <time>2021-08-10T09:43:11Z</time>
      </trkpt>
      <trkpt lat="48.6304" lon="4.63995">
        <ele>120.3</ele>
        <time>2021-08-10T09:43:12Z</time>
      </trkpt>
      <trkpt lat="48.63037" lon="4.64002">
        <ele>120.3</ele>
        <time>2021-08-10T09:43:13Z</time>
      </trkpt>
      <trkpt lat="48.63012" lon="4.64077">
        <ele>118.38</ele>
        <time>2021-08-10T09:43:23Z</time>
      </trkpt>
      <trkpt lat="48.62986" lon="4.64161">
        <ele>118.86</ele>
        <time>2021-08-10T09:43:34Z</time>
      </trkpt>
      <trkpt lat="48.62976" lon="4.64226">
        <ele>119.34</ele>
        <time>2021-08-10T09:43:42Z</time>
      </trkpt>
      <trkpt lat="48.6297" lon="4.64249">
        <ele>119.34</ele>
        <time>2021-08-10T09:43:45Z</time>
      </trkpt>
      <trkpt lat="48.62945" lon="4.64315">
        <ele>117.42</ele>
        <time>2021-08-10T09:43:54Z</time>
      </trkpt>
      <trkpt lat="48.62913" lon="4.64365">
        <ele>116.46</ele>
        <time>2021-08-10T09:44:02Z</time>
      </trkpt>
      <trkpt lat="48.62867" lon="4.6441">
        <ele>115.5</ele>
        <time>2021-08-10T09:44:11Z</time>
      </trkpt>
      <trkpt lat="48.62852" lon="4.64423">
        <ele>115.01</ele>
        <time>2021-08-10T09:44:14Z</time>
      </trkpt>
      <trkpt lat="48.62846" lon="4.64427">
        <ele>115.01</ele>
        <time>2021-08-10T09:44:15Z</time>
      </trkpt>
      <trkpt lat="48.62799" lon="4.64455">
        <ele>114.05</ele>
        <time>2021-08-10T09:44:24Z</time>
      </trkpt>
      <trkpt lat="48.62755" lon="4.64481">
        <ele>113.09</ele>
        <time>2021-08-10T09:44:32Z</time>
      </trkpt>
      <trkpt lat="48.62723" lon="4.64513">
        <ele>112.61</ele>
        <time>2021-08-10T09:44:38Z</time>
      </trkpt>
      <trkpt lat="48.62715" lon="4.64525">
        <ele>112.61</ele>
        <time>2021-08-10T09:44:40Z</time>
      </trkpt>
      <trkpt lat="48.62712" lon="4.64532">
        <ele>112.61</ele>
        <time>2021-08-10T09:44:41Z</time>
      </trkpt>
      <trkpt lat="48.62709" lon="4.64539">
        <ele>112.13</ele>
        <time>2021-08-10T09:44:42Z</time>
      </trkpt>
      <trkpt lat="48.62706" lon="4.64547">
        <ele>112.13</ele>
        <time>2021-08-10T09:44:43Z</time>
      </trkpt>
      <trkpt lat="48.62704" lon="4.64555">
        <ele>112.13</ele>
        <time>2021-08-10T09:44:44Z</time>
      </trkpt>
      <trkpt lat="48.62703" lon="4.64564">
        <ele>112.13</ele>
        <time>2021-08-10T09:44:45Z</time>
      </trkpt>
      <trkpt lat="48.62703" lon="4.64572">
        <ele>112.13</ele>
        <time>2021-08-10T09:44:46Z</time>
      </trkpt>
      <trkpt lat="48.6271" lon="4.64645">
        <ele>112.13</ele>
        <time>2021-08-10T09:44:54Z</time>
      </trkpt>
      <trkpt lat="48.6271" lon="4.64664">
        <ele>112.61</ele>
        <time>2021-08-10T09:44:56Z</time>
      </trkpt>
      <trkpt lat="48.6271" lon="4.64673">
        <ele>112.61</ele>
        <time>2021-08-10T09:44:57Z</time>
      </trkpt>
      <trkpt lat="48.62709" lon="4.64682">
        <ele>112.13</ele>
        <time>2021-08-10T09:44:58Z</time>
      </trkpt>
      <trkpt lat="48.62707" lon="4.64691">
        <ele>112.13</ele>
        <time>2021-08-10T09:44:59Z</time>
      </trkpt>
      <trkpt lat="48.62705" lon="4.64699">
        <ele>112.13</ele>
        <time>2021-08-10T09:45:00Z</time>
      </trkpt>
      <trkpt lat="48.62703" lon="4.64707">
        <ele>112.13</ele>
        <time>2021-08-10T09:45:01Z</time>
      </trkpt>
      <trkpt lat="48.62678" lon="4.64765">
        <ele>112.13</ele>
        <time>2021-08-10T09:45:09Z</time>
      </trkpt>
      <trkpt lat="48.62652" lon="4.648">
        <ele>112.13</ele>
        <time>2021-08-10T09:45:16Z</time>
      </trkpt>
      <trkpt lat="48.62619" lon="4.64821">
        <ele>114.05</ele>
        <time>2021-08-10T09:45:25Z</time>
      </trkpt>
      <trkpt lat="48.62605" lon="4.6483">
        <ele>114.53</ele>
        <time>2021-08-10T09:45:31Z</time>
      </trkpt>
      <trkpt lat="48.62603" lon="4.64833">
        <ele>115.01</ele>
        <time>2021-08-10T09:45:32Z</time>
      </trkpt>
      <trkpt lat="48.62603" lon="4.64837">
        <ele>115.5</ele>
        <time>2021-08-10T09:45:33Z</time>
      </trkpt>
      <trkpt lat="48.62603" lon="4.6484">
        <ele>115.5</ele>
        <time>2021-08-10T09:45:34Z</time>
      </trkpt>
      <trkpt lat="48.62604" lon="4.64844">
        <ele>115.01</ele>
        <time>2021-08-10T09:45:35Z</time>
      </trkpt>
      <trkpt lat="48.62605" lon="4.64848">
        <ele>115.5</ele>
        <time>2021-08-10T09:45:36Z</time>
      </trkpt>
      <trkpt lat="48.62618" lon="4.6488">
        <ele>115.98</ele>
        <time>2021-08-10T09:45:43Z</time>
      </trkpt>
      <trkpt lat="48.62632" lon="4.64922">
        <ele>115.98</ele>
        <time>2021-08-10T09:45:51Z</time>
      </trkpt>
      <trkpt lat="48.62652" lon="4.64977">
        <ele>116.94</ele>
        <time>2021-08-10T09:46:00Z</time>
      </trkpt>
      <trkpt lat="48.62672" lon="4.65031">
        <ele>115.5</ele>
        <time>2021-08-10T09:46:08Z</time>
      </trkpt>
      <trkpt lat="48.62687" lon="4.65071">
        <ele>115.01</ele>
        <time>2021-08-10T09:46:14Z</time>
      </trkpt>
      <trkpt lat="48.62701" lon="4.65143">
        <ele>115.01</ele>
        <time>2021-08-10T09:46:24Z</time>
      </trkpt>
      <trkpt lat="48.62697" lon="4.65188">
        <ele>116.46</ele>
        <time>2021-08-10T09:46:30Z</time>
      </trkpt>
      <trkpt lat="48.62686" lon="4.65225">
        <ele>116.46</ele>
        <time>2021-08-10T09:46:35Z</time>
      </trkpt>
      <trkpt lat="48.62652" lon="4.65323">
        <ele>116.46</ele>
        <time>2021-08-10T09:46:48Z</time>
      </trkpt>
      <trkpt lat="48.62641" lon="4.65353">
        <ele>115.01</ele>
        <time>2021-08-10T09:46:52Z</time>
      </trkpt>
      <trkpt lat="48.62629" lon="4.6538">
        <ele>115.01</ele>
        <time>2021-08-10T09:46:56Z</time>
      </trkpt>
      <trkpt lat="48.62601" lon="4.65431">
        <ele>115.01</ele>
        <time>2021-08-10T09:47:04Z</time>
      </trkpt>
      <trkpt lat="48.62565" lon="4.65485">
        <ele>112.13</ele>
        <time>2021-08-10T09:47:12Z</time>
      </trkpt>
      <trkpt lat="48.6256" lon="4.65493">
        <ele>112.13</ele>
        <time>2021-08-10T09:47:13Z</time>
      </trkpt>
      <trkpt lat="48.62524" lon="4.65549">
        <ele>112.13</ele>
        <time>2021-08-10T09:47:21Z</time>
      </trkpt>
      <trkpt lat="48.62509" lon="4.65573">
        <ele>112.13</ele>
        <time>2021-08-10T09:47:25Z</time>
      </trkpt>
      <trkpt lat="48.62495" lon="4.65596">
        <ele>113.57</ele>
        <time>2021-08-10T09:47:29Z</time>
      </trkpt>
      <trkpt lat="48.62465" lon="4.65639">
        <ele>114.05</ele>
        <time>2021-08-10T09:47:38Z</time>
      </trkpt>
      <trkpt lat="48.62434" lon="4.65681">
        <ele>114.05</ele>
        <time>2021-08-10T09:47:47Z</time>
      </trkpt>
      <trkpt lat="48.62397" lon="4.65731">
        <ele>114.53</ele>
        <time>2021-08-10T09:47:57Z</time>
      </trkpt>
      <trkpt lat="48.62381" lon="4.65753">
        <ele>114.53</ele>
        <time>2021-08-10T09:48:01Z</time>
      </trkpt>
      <trkpt lat="48.62374" lon="4.65765">
        <ele>114.53</ele>
        <time>2021-08-10T09:48:03Z</time>
      </trkpt>
      <trkpt lat="48.6234" lon="4.6581">
        <ele>113.57</ele>
        <time>2021-08-10T09:48:11Z</time>
      </trkpt>
      <trkpt lat="48.62328" lon="4.65825">
        <ele>113.57</ele>
        <time>2021-08-10T09:48:14Z</time>
      </trkpt>
      <trkpt lat="48.62291" lon="4.65877">
        <ele>114.53</ele>
        <time>2021-08-10T09:48:24Z</time>
      </trkpt>
      <trkpt lat="48.62276" lon="4.65897">
        <ele>115.5</ele>
        <time>2021-08-10T09:48:28Z</time>
      </trkpt>
      <trkpt lat="48.62272" lon="4.65902">
        <ele>115.5</ele>
        <time>2021-08-10T09:48:29Z</time>
      </trkpt>
      <trkpt lat="48.62268" lon="4.65907">
        <ele>115.98</ele>
        <time>2021-08-10T09:48:30Z</time>
      </trkpt>
      <trkpt lat="48.62265" lon="4.65911">
        <ele>115.98</ele>
        <time>2021-08-10T09:48:31Z</time>
      </trkpt>
      <trkpt lat="48.62261" lon="4.65916">
        <ele>115.98</ele>
        <time>2021-08-10T09:48:32Z</time>
      </trkpt>
      <trkpt lat="48.62244" lon="4.65939">
        <ele>115.98</ele>
        <time>2021-08-10T09:48:37Z</time>
      </trkpt>
      <trkpt lat="48.62216" lon="4.6598">
        <ele>116.46</ele>
        <time>2021-08-10T09:48:46Z</time>
      </trkpt>
      <trkpt lat="48.62207" lon="4.65994">
        <ele>116.94</ele>
        <time>2021-08-10T09:48:49Z</time>
      </trkpt>
      <trkpt lat="48.62177" lon="4.66036">
        <ele>117.9</ele>
        <time>2021-08-10T09:48:58Z</time>
      </trkpt>
      <trkpt lat="48.62152" lon="4.66078">
        <ele>117.9</ele>
        <time>2021-08-10T09:49:06Z</time>
      </trkpt>
      <trkpt lat="48.62123" lon="4.66131">
        <ele>116.46</ele>
        <time>2021-08-10T09:49:15Z</time>
      </trkpt>
      <trkpt lat="48.62119" lon="4.66138">
        <ele>116.46</ele>
        <time>2021-08-10T09:49:16Z</time>
      </trkpt>
      <trkpt lat="48.62086" lon="4.66199">
        <ele>115.01</ele>
        <time>2021-08-10T09:49:25Z</time>
      </trkpt>
      <trkpt lat="48.62052" lon="4.66264">
        <ele>115.01</ele>
        <time>2021-08-10T09:49:34Z</time>
      </trkpt>
      <trkpt lat="48.62021" lon="4.66324">
        <ele>115.01</ele>
        <time>2021-08-10T09:49:43Z</time>
      </trkpt>
      <trkpt lat="48.62018" lon="4.66329">
        <ele>115.01</ele>
        <time>2021-08-10T09:49:44Z</time>
      </trkpt>
      <trkpt lat="48.62014" lon="4.66335">
        <ele>115.5</ele>
        <time>2021-08-10T09:49:45Z</time>
      </trkpt>
      <trkpt lat="48.61989" lon="4.66384">
        <ele>115.01</ele>
        <time>2021-08-10T09:49:53Z</time>
      </trkpt>
      <trkpt lat="48.61957" lon="4.66442">
        <ele>115.01</ele>
        <time>2021-08-10T09:50:02Z</time>
      </trkpt>
      <trkpt lat="48.61926" lon="4.66501">
        <ele>114.05</ele>
        <time>2021-08-10T09:50:10Z</time>
      </trkpt>
      <trkpt lat="48.61893" lon="4.66561">
        <ele>113.57</ele>
        <time>2021-08-10T09:50:18Z</time>
      </trkpt>
      <trkpt lat="48.61879" lon="4.66586">
        <ele>115.01</ele>
        <time>2021-08-10T09:50:22Z</time>
      </trkpt>
      <trkpt lat="48.61876" lon="4.66593">
        <ele>115.01</ele>
        <time>2021-08-10T09:50:23Z</time>
      </trkpt>
      <trkpt lat="48.61859" lon="4.66621">
        <ele>115.98</ele>
        <time>2021-08-10T09:50:29Z</time>
      </trkpt>
      <trkpt lat="48.61856" lon="4.66626">
        <ele>116.46</ele>
        <time>2021-08-10T09:50:30Z</time>
      </trkpt>
      <trkpt lat="48.61844" lon="4.66645">
        <ele>117.42</ele>
        <time>2021-08-10T09:50:35Z</time>
      </trkpt>
      <trkpt lat="48.61842" lon="4.66648">
        <ele>117.42</ele>
        <time>2021-08-10T09:50:36Z</time>
      </trkpt>
      <trkpt lat="48.61839" lon="4.66652">
        <ele>117.42</ele>
        <time>2021-08-10T09:50:37Z</time>
      </trkpt>
      <trkpt lat="48.61823" lon="4.66682">
        <ele>117.9</ele>
        <time>2021-08-10T09:50:43Z</time>
      </trkpt>
      <trkpt lat="48.61787" lon="4.66729">
        <ele>117.42</ele>
        <time>2021-08-10T09:50:53Z</time>
      </trkpt>
      <trkpt lat="48.61743" lon="4.66777">
        <ele>117.42</ele>
        <time>2021-08-10T09:51:04Z</time>
      </trkpt>
      <trkpt lat="48.61708" lon="4.6681">
        <ele>118.38</ele>
        <time>2021-08-10T09:51:12Z</time>
      </trkpt>
      <trkpt lat="48.61672" lon="4.66847">
        <ele>118.86</ele>
        <time>2021-08-10T09:51:21Z</time>
      </trkpt>
      <trkpt lat="48.61631" lon="4.66891">
        <ele>119.34</ele>
        <time>2021-08-10T09:51:32Z</time>
      </trkpt>
      <trkpt lat="48.61592" lon="4.66934">
        <ele>120.78</ele>
        <time>2021-08-10T09:51:43Z</time>
      </trkpt>
      <trkpt lat="48.61554" lon="4.66971">
        <ele>121.74</ele>
        <time>2021-08-10T09:51:53Z</time>
      </trkpt>
      <trkpt lat="48.61523" lon="4.66989">
        <ele>122.71</ele>
        <time>2021-08-10T09:52:01Z</time>
      </trkpt>
      <trkpt lat="48.61519" lon="4.6699">
        <ele>122.71</ele>
        <time>2021-08-10T09:52:02Z</time>
      </trkpt>
      <trkpt lat="48.61515" lon="4.6699">
        <ele>122.71</ele>
        <time>2021-08-10T09:52:03Z</time>
      </trkpt>
      <trkpt lat="48.6147" lon="4.66992">
        <ele>123.67</ele>
        <time>2021-08-10T09:52:14Z</time>
      </trkpt>
      <trkpt lat="48.61431" lon="4.66988">
        <ele>124.63</ele>
        <time>2021-08-10T09:52:24Z</time>
      </trkpt>
      <trkpt lat="48.61396" lon="4.66984">
        <ele>125.59</ele>
        <time>2021-08-10T09:52:33Z</time>
      </trkpt>
      <trkpt lat="48.6136" lon="4.66978">
        <ele>126.07</ele>
        <time>2021-08-10T09:52:42Z</time>
      </trkpt>
      <trkpt lat="48.61347" lon="4.66975">
        <ele>126.07</ele>
        <time>2021-08-10T09:52:45Z</time>
      </trkpt>
      <trkpt lat="48.61339" lon="4.66974">
        <ele>126.07</ele>
        <time>2021-08-10T09:52:47Z</time>
      </trkpt>
      <trkpt lat="48.61304" lon="4.66968">
        <ele>126.55</ele>
        <time>2021-08-10T09:52:55Z</time>
      </trkpt>
      <trkpt lat="48.6129" lon="4.66964">
        <ele>126.55</ele>
        <time>2021-08-10T09:52:58Z</time>
      </trkpt>
      <trkpt lat="48.61257" lon="4.66955">
        <ele>126.55</ele>
        <time>2021-08-10T09:53:05Z</time>
      </trkpt>
      <trkpt lat="48.61223" lon="4.66945">
        <ele>126.55</ele>
        <time>2021-08-10T09:53:13Z</time>
      </trkpt>
      <trkpt lat="48.61187" lon="4.66933">
        <ele>126.55</ele>
        <time>2021-08-10T09:53:20Z</time>
      </trkpt>
      <trkpt lat="48.61136" lon="4.66914">
        <ele>126.55</ele>
        <time>2021-08-10T09:53:30Z</time>
      </trkpt>
      <trkpt lat="48.61094" lon="4.66886">
        <ele>126.55</ele>
        <time>2021-08-10T09:53:39Z</time>
      </trkpt>
      <trkpt lat="48.6106" lon="4.66857">
        <ele>126.55</ele>
        <time>2021-08-10T09:53:47Z</time>
      </trkpt>
      <trkpt lat="48.61023" lon="4.6682">
        <ele>126.55</ele>
        <time>2021-08-10T09:53:56Z</time>
      </trkpt>
      <trkpt lat="48.60982" lon="4.66782">
        <ele>126.55</ele>
        <time>2021-08-10T09:54:05Z</time>
      </trkpt>
      <trkpt lat="48.60957" lon="4.66759">
        <ele>125.59</ele>
        <time>2021-08-10T09:54:10Z</time>
      </trkpt>
      <trkpt lat="48.60916" lon="4.66718">
        <ele>124.63</ele>
        <time>2021-08-10T09:54:18Z</time>
      </trkpt>
      <trkpt lat="48.60879" lon="4.66683">
        <ele>124.15</ele>
        <time>2021-08-10T09:54:25Z</time>
      </trkpt>
      <trkpt lat="48.60874" lon="4.66678">
        <ele>124.15</ele>
        <time>2021-08-10T09:54:26Z</time>
      </trkpt>
      <trkpt lat="48.60834" lon="4.66639">
        <ele>124.63</ele>
        <time>2021-08-10T09:54:34Z</time>
      </trkpt>
      <trkpt lat="48.60829" lon="4.66634">
        <ele>124.63</ele>
        <time>2021-08-10T09:54:35Z</time>
      </trkpt>
      <trkpt lat="48.60783" lon="4.66589">
        <ele>124.63</ele>
        <time>2021-08-10T09:54:45Z</time>
      </trkpt>
      <trkpt lat="48.60734" lon="4.66544">
        <ele>126.07</ele>
        <time>2021-08-10T09:54:56Z</time>
      </trkpt>
      <trkpt lat="48.6072" lon="4.66532">
        <ele>126.07</ele>
        <time>2021-08-10T09:54:59Z</time>
      </trkpt>
      <trkpt lat="48.60702" lon="4.66515">
        <ele>126.55</ele>
        <time>2021-08-10T09:55:03Z</time>
      </trkpt>
      <trkpt lat="48.60698" lon="4.66511">
        <ele>126.55</ele>
        <time>2021-08-10T09:55:04Z</time>
      </trkpt>
      <trkpt lat="48.60661" lon="4.66476">
        <ele>125.59</ele>
        <time>2021-08-10T09:55:12Z</time>
      </trkpt>
      <trkpt lat="48.6064" lon="4.66456">
        <ele>125.59</ele>
        <time>2021-08-10T09:55:17Z</time>
      </trkpt>
      <trkpt lat="48.60632" lon="4.6645">
        <ele>125.59</ele>
        <time>2021-08-10T09:55:19Z</time>
      </trkpt>
      <trkpt lat="48.60628" lon="4.66447">
        <ele>124.63</ele>
        <time>2021-08-10T09:55:20Z</time>
      </trkpt>
      <trkpt lat="48.60624" lon="4.66443">
        <ele>124.63</ele>
        <time>2021-08-10T09:55:21Z</time>
      </trkpt>
      <trkpt lat="48.6062" lon="4.66439">
        <ele>124.63</ele>
        <time>2021-08-10T09:55:22Z</time>
      </trkpt>
      <trkpt lat="48.60616" lon="4.66436">
        <ele>124.63</ele>
        <time>2021-08-10T09:55:23Z</time>
      </trkpt>
      <trkpt lat="48.60611" lon="4.66433">
        <ele>124.63</ele>
        <time>2021-08-10T09:55:24Z</time>
      </trkpt>
      <trkpt lat="48.60585" lon="4.66419">
        <ele>124.63</ele>
        <time>2021-08-10T09:55:30Z</time>
      </trkpt>
      <trkpt lat="48.6058" lon="4.66418">
        <ele>124.63</ele>
        <time>2021-08-10T09:55:31Z</time>
      </trkpt>
      <trkpt lat="48.60575" lon="4.66418">
        <ele>124.63</ele>
        <time>2021-08-10T09:55:32Z</time>
      </trkpt>
      <trkpt lat="48.60568" lon="4.66419">
        <ele>124.63</ele>
        <time>2021-08-10T09:55:33Z</time>
      </trkpt>
      <trkpt lat="48.60564" lon="4.6642">
        <ele>124.63</ele>
        <time>2021-08-10T09:55:34Z</time>
      </trkpt>
      <trkpt lat="48.60558" lon="4.66423">
        <ele>124.63</ele>
        <time>2021-08-10T09:55:35Z</time>
      </trkpt>
      <trkpt lat="48.60554" lon="4.66427">
        <ele>124.63</ele>
        <time>2021-08-10T09:55:36Z</time>
      </trkpt>
      <trkpt lat="48.60545" lon="4.66436">
        <ele>124.63</ele>
        <time>2021-08-10T09:55:38Z</time>
      </trkpt>
      <trkpt lat="48.60542" lon="4.66441">
        <ele>124.63</ele>
        <time>2021-08-10T09:55:39Z</time>
      </trkpt>
      <trkpt lat="48.60504" lon="4.66498">
        <ele>124.63</ele>
        <time>2021-08-10T09:55:49Z</time>
      </trkpt>
      <trkpt lat="48.60472" lon="4.66558">
        <ele>124.15</ele>
        <time>2021-08-10T09:55:58Z</time>
      </trkpt>
      <trkpt lat="48.60468" lon="4.66564">
        <ele>124.15</ele>
        <time>2021-08-10T09:55:59Z</time>
      </trkpt>
      <trkpt lat="48.6044" lon="4.66617">
        <ele>122.22</ele>
        <time>2021-08-10T09:56:06Z</time>
      </trkpt>
      <trkpt lat="48.60405" lon="4.6668">
        <ele>120.78</ele>
        <time>2021-08-10T09:56:14Z</time>
      </trkpt>
      <trkpt lat="48.60364" lon="4.66743">
        <ele>118.86</ele>
        <time>2021-08-10T09:56:23Z</time>
      </trkpt>
      <trkpt lat="48.60349" lon="4.66759">
        <ele>118.38</ele>
        <time>2021-08-10T09:56:26Z</time>
      </trkpt>
      <trkpt lat="48.60332" lon="4.66771">
        <ele>118.38</ele>
        <time>2021-08-10T09:56:29Z</time>
      </trkpt>
      <trkpt lat="48.60296" lon="4.66782">
        <ele>118.38</ele>
        <time>2021-08-10T09:56:35Z</time>
      </trkpt>
      <trkpt lat="48.60289" lon="4.66784">
        <ele>118.38</ele>
        <time>2021-08-10T09:56:36Z</time>
      </trkpt>
      <trkpt lat="48.60234" lon="4.66798">
        <ele>117.9</ele>
        <time>2021-08-10T09:56:45Z</time>
      </trkpt>
      <trkpt lat="48.6021" lon="4.66806">
        <ele>117.9</ele>
        <time>2021-08-10T09:56:49Z</time>
      </trkpt>
      <trkpt lat="48.60188" lon="4.66813">
        <ele>117.9</ele>
        <time>2021-08-10T09:56:53Z</time>
      </trkpt>
      <trkpt lat="48.60182" lon="4.66814">
        <ele>117.9</ele>
        <time>2021-08-10T09:56:54Z</time>
      </trkpt>
      <trkpt lat="48.60133" lon="4.66829">
        <ele>117.42</ele>
        <time>2021-08-10T09:57:03Z</time>
      </trkpt>
      <trkpt lat="48.60092" lon="4.6684">
        <ele>117.42</ele>
        <time>2021-08-10T09:57:11Z</time>
      </trkpt>
      <trkpt lat="48.60082" lon="4.66843">
        <ele>117.42</ele>
        <time>2021-08-10T09:57:13Z</time>
      </trkpt>
      <trkpt lat="48.60077" lon="4.66844">
        <ele>117.42</ele>
        <time>2021-08-10T09:57:14Z</time>
      </trkpt>
      <trkpt lat="48.60073" lon="4.66846">
        <ele>117.42</ele>
        <time>2021-08-10T09:57:15Z</time>
      </trkpt>
      <trkpt lat="48.60044" lon="4.66855">
        <ele>117.42</ele>
        <time>2021-08-10T09:57:21Z</time>
      </trkpt>
      <trkpt lat="48.60012" lon="4.6687">
        <ele>118.38</ele>
        <time>2021-08-10T09:57:29Z</time>
      </trkpt>
      <trkpt lat="48.59986" lon="4.6689">
        <ele>119.34</ele>
        <time>2021-08-10T09:57:36Z</time>
      </trkpt>
      <trkpt lat="48.59954" lon="4.66914">
        <ele>119.34</ele>
        <time>2021-08-10T09:57:44Z</time>
      </trkpt>
      <trkpt lat="48.59932" lon="4.66931">
        <ele>119.82</ele>
        <time>2021-08-10T09:57:50Z</time>
      </trkpt>
      <trkpt lat="48.59906" lon="4.6695">
        <ele>120.3</ele>
        <time>2021-08-10T09:57:57Z</time>
      </trkpt>
      <trkpt lat="48.59875" lon="4.66975">
        <ele>121.74</ele>
        <time>2021-08-10T09:58:05Z</time>
      </trkpt>
      <trkpt lat="48.59847" lon="4.66998">
        <ele>122.22</ele>
        <time>2021-08-10T09:58:12Z</time>
      </trkpt>
      <trkpt lat="48.59821" lon="4.6702">
        <ele>123.19</ele>
        <time>2021-08-10T09:58:19Z</time>
      </trkpt>
      <trkpt lat="48.59792" lon="4.67044">
        <ele>124.15</ele>
        <time>2021-08-10T09:58:27Z</time>
      </trkpt>
      <trkpt lat="48.59769" lon="4.67055">
        <ele>124.63</ele>
        <time>2021-08-10T09:58:33Z</time>
      </trkpt>
      <trkpt lat="48.59741" lon="4.67064">
        <ele>124.63</ele>
        <time>2021-08-10T09:58:39Z</time>
      </trkpt>
      <trkpt lat="48.59736" lon="4.67065">
        <ele>124.63</ele>
        <time>2021-08-10T09:58:40Z</time>
      </trkpt>
      <trkpt lat="48.59716" lon="4.67068">
        <ele>124.63</ele>
        <time>2021-08-10T09:58:44Z</time>
      </trkpt>
      <trkpt lat="48.59711" lon="4.67069">
        <ele>124.63</ele>
        <time>2021-08-10T09:58:45Z</time>
      </trkpt>
      <trkpt lat="48.59666" lon="4.67075">
        <ele>124.63</ele>
        <time>2021-08-10T09:58:54Z</time>
      </trkpt>
      <trkpt lat="48.59625" lon="4.67077">
        <ele>123.67</ele>
        <time>2021-08-10T09:59:02Z</time>
      </trkpt>
      <trkpt lat="48.59587" lon="4.67078">
        <ele>123.67</ele>
        <time>2021-08-10T09:59:10Z</time>
      </trkpt>
      <trkpt lat="48.59554" lon="4.67077">
        <ele>123.67</ele>
        <time>2021-08-10T09:59:17Z</time>
      </trkpt>
      <trkpt lat="48.59539" lon="4.67076">
        <ele>125.11</ele>
        <time>2021-08-10T09:59:21Z</time>
      </trkpt>
      <trkpt lat="48.59511" lon="4.67073">
        <ele>125.11</ele>
        <time>2021-08-10T09:59:28Z</time>
      </trkpt>
      <trkpt lat="48.59483" lon="4.67071">
        <ele>125.11</ele>
        <time>2021-08-10T09:59:35Z</time>
      </trkpt>
      <trkpt lat="48.59458" lon="4.67062">
        <ele>123.67</ele>
        <time>2021-08-10T09:59:41Z</time>
      </trkpt>
      <trkpt lat="48.59445" lon="4.67058">
        <ele>123.67</ele>
        <time>2021-08-10T09:59:44Z</time>
      </trkpt>
      <trkpt lat="48.59419" lon="4.67054">
        <ele>123.67</ele>
        <time>2021-08-10T09:59:50Z</time>
      </trkpt>
      <trkpt lat="48.59415" lon="4.67053">
        <ele>123.67</ele>
        <time>2021-08-10T09:59:51Z</time>
      </trkpt>
      <trkpt lat="48.59393" lon="4.67044">
        <ele>123.19</ele>
        <time>2021-08-10T09:59:56Z</time>
      </trkpt>
      <trkpt lat="48.59389" lon="4.67043">
        <ele>123.19</ele>
        <time>2021-08-10T09:59:57Z</time>
      </trkpt>
      <trkpt lat="48.59385" lon="4.67041">
        <ele>123.19</ele>
        <time>2021-08-10T09:59:58Z</time>
      </trkpt>
      <trkpt lat="48.59381" lon="4.6704">
        <ele>123.19</ele>
        <time>2021-08-10T09:59:59Z</time>
      </trkpt>
      <trkpt lat="48.59377" lon="4.67039">
        <ele>123.19</ele>
        <time>2021-08-10T10:00:00Z</time>
      </trkpt>
      <trkpt lat="48.59373" lon="4.67037">
        <ele>123.19</ele>
        <time>2021-08-10T10:00:01Z</time>
      </trkpt>
      <trkpt lat="48.5937" lon="4.67035">
        <ele>123.19</ele>
        <time>2021-08-10T10:00:02Z</time>
      </trkpt>
      <trkpt lat="48.59346" lon="4.6703">
        <ele>123.19</ele>
        <time>2021-08-10T10:00:07Z</time>
      </trkpt>
      <trkpt lat="48.59311" lon="4.67022">
        <ele>123.19</ele>
        <time>2021-08-10T10:00:14Z</time>
      </trkpt>
      <trkpt lat="48.59293" lon="4.67019">
        <ele>123.19</ele>
        <time>2021-08-10T10:00:18Z</time>
      </trkpt>
      <trkpt lat="48.59269" lon="4.67013">
        <ele>124.15</ele>
        <time>2021-08-10T10:00:24Z</time>
      </trkpt>
      <trkpt lat="48.59245" lon="4.67008">
        <ele>125.11</ele>
        <time>2021-08-10T10:00:31Z</time>
      </trkpt>
      <trkpt lat="48.59232" lon="4.67008">
        <ele>125.59</ele>
        <time>2021-08-10T10:00:35Z</time>
      </trkpt>
      <trkpt lat="48.59229" lon="4.67009">
        <ele>125.59</ele>
        <time>2021-08-10T10:00:36Z</time>
      </trkpt>
      <trkpt lat="48.59225" lon="4.67009">
        <ele>126.07</ele>
        <time>2021-08-10T10:00:37Z</time>
      </trkpt>
      <trkpt lat="48.59222" lon="4.67009">
        <ele>126.07</ele>
        <time>2021-08-10T10:00:38Z</time>
      </trkpt>
      <trkpt lat="48.59218" lon="4.67008">
        <ele>126.07</ele>
        <time>2021-08-10T10:00:39Z</time>
      </trkpt>
      <trkpt lat="48.59192" lon="4.67004">
        <ele>126.55</ele>
        <time>2021-08-10T10:00:46Z</time>
      </trkpt>
      <trkpt lat="48.59168" lon="4.67002">
        <ele>127.03</ele>
        <time>2021-08-10T10:00:52Z</time>
      </trkpt>
      <trkpt lat="48.59138" lon="4.66999">
        <ele>127.03</ele>
        <time>2021-08-10T10:00:59Z</time>
      </trkpt>
      <trkpt lat="48.59116" lon="4.66999">
        <ele>127.03</ele>
        <time>2021-08-10T10:01:04Z</time>
      </trkpt>
      <trkpt lat="48.59107" lon="4.66997">
        <ele>127.03</ele>
        <time>2021-08-10T10:01:06Z</time>
      </trkpt>
      <trkpt lat="48.59102" lon="4.66996">
        <ele>127.03</ele>
        <time>2021-08-10T10:01:07Z</time>
      </trkpt>
      <trkpt lat="48.59063" lon="4.66991">
        <ele>127.03</ele>
        <time>2021-08-10T10:01:15Z</time>
      </trkpt>
      <trkpt lat="48.59024" lon="4.66996">
        <ele>127.03</ele>
        <time>2021-08-10T10:01:23Z</time>
      </trkpt>
      <trkpt lat="48.58989" lon="4.67026">
        <ele>127.03</ele>
        <time>2021-08-10T10:01:31Z</time>
      </trkpt>
      <trkpt lat="48.58939" lon="4.67084">
        <ele>127.03</ele>
        <time>2021-08-10T10:01:42Z</time>
      </trkpt>
      <trkpt lat="48.58931" lon="4.67094">
        <ele>126.07</ele>
        <time>2021-08-10T10:01:44Z</time>
      </trkpt>
      <trkpt lat="48.58914" lon="4.67114">
        <ele>126.07</ele>
        <time>2021-08-10T10:01:48Z</time>
      </trkpt>
      <trkpt lat="48.5888" lon="4.67155">
        <ele>126.07</ele>
        <time>2021-08-10T10:01:56Z</time>
      </trkpt>
      <trkpt lat="48.58848" lon="4.67193">
        <ele>126.07</ele>
        <time>2021-08-10T10:02:04Z</time>
      </trkpt>
      <trkpt lat="48.58815" lon="4.67233">
        <ele>126.07</ele>
        <time>2021-08-10T10:02:12Z</time>
      </trkpt>
      <trkpt lat="48.58775" lon="4.67281">
        <ele>125.59</ele>
        <time>2021-08-10T10:02:21Z</time>
      </trkpt>
      <trkpt lat="48.58733" lon="4.67331">
        <ele>123.19</ele>
        <time>2021-08-10T10:02:30Z</time>
      </trkpt>
      <trkpt lat="48.58686" lon="4.67389">
        <ele>120.78</ele>
        <time>2021-08-10T10:02:39Z</time>
      </trkpt>
      <trkpt lat="48.58653" lon="4.6743">
        <ele>120.78</ele>
        <time>2021-08-10T10:02:46Z</time>
      </trkpt>
      <trkpt lat="48.58633" lon="4.67448">
        <ele>120.78</ele>
        <time>2021-08-10T10:02:50Z</time>
      </trkpt>
      <trkpt lat="48.58629" lon="4.67451">
        <ele>120.78</ele>
        <time>2021-08-10T10:02:51Z</time>
      </trkpt>
      <trkpt lat="48.58623" lon="4.67452">
        <ele>120.78</ele>
        <time>2021-08-10T10:02:52Z</time>
      </trkpt>
      <trkpt lat="48.58619" lon="4.67452">
        <ele>122.22</ele>
        <time>2021-08-10T10:02:53Z</time>
      </trkpt>
      <trkpt lat="48.58614" lon="4.67451">
        <ele>122.22</ele>
        <time>2021-08-10T10:02:54Z</time>
      </trkpt>
      <trkpt lat="48.58611" lon="4.6745">
        <ele>122.71</ele>
        <time>2021-08-10T10:02:55Z</time>
      </trkpt>
      <trkpt lat="48.58608" lon="4.67449">
        <ele>122.71</ele>
        <time>2021-08-10T10:02:56Z</time>
      </trkpt>
      <trkpt lat="48.58606" lon="4.67447">
        <ele>123.67</ele>
        <time>2021-08-10T10:02:57Z</time>
      </trkpt>
      <trkpt lat="48.58604" lon="4.67446">
        <ele>123.67</ele>
        <time>2021-08-10T10:02:58Z</time>
      </trkpt>
      <trkpt lat="48.58603" lon="4.67445">
        <ele>124.15</ele>
        <time>2021-08-10T10:02:59Z</time>
      </trkpt>
      <trkpt lat="48.58602" lon="4.67444">
        <ele>124.15</ele>
        <time>2021-08-10T10:03:00Z</time>
      </trkpt>
      <trkpt lat="48.586" lon="4.67442">
        <ele>124.15</ele>
        <time>2021-08-10T10:03:01Z</time>
      </trkpt>
      <trkpt lat="48.5859" lon="4.67431">
        <ele>125.59</ele>
        <time>2021-08-10T10:03:08Z</time>
      </trkpt>
      <trkpt lat="48.58578" lon="4.6742">
        <ele>126.55</ele>
        <time>2021-08-10T10:03:16Z</time>
      </trkpt>
      <trkpt lat="48.58565" lon="4.67414">
        <ele>127.99</ele>
        <time>2021-08-10T10:03:23Z</time>
      </trkpt>
      <trkpt lat="48.58551" lon="4.6741">
        <ele>129.43</ele>
        <time>2021-08-10T10:03:31Z</time>
      </trkpt>
      <trkpt lat="48.5853" lon="4.67403">
        <ele>130.4</ele>
        <time>2021-08-10T10:03:41Z</time>
      </trkpt>
      <trkpt lat="48.58505" lon="4.67389">
        <ele>131.84</ele>
        <time>2021-08-10T10:03:53Z</time>
      </trkpt>
      <trkpt lat="48.58482" lon="4.67372">
        <ele>133.76</ele>
        <time>2021-08-10T10:04:03Z</time>
      </trkpt>
      <trkpt lat="48.58459" lon="4.67351">
        <ele>134.72</ele>
        <time>2021-08-10T10:04:13Z</time>
      </trkpt>
      <trkpt lat="48.58437" lon="4.6733">
        <ele>135.68</ele>
        <time>2021-08-10T10:04:22Z</time>
      </trkpt>
      <trkpt lat="48.58418" lon="4.67314">
        <ele>136.64</ele>
        <time>2021-08-10T10:04:29Z</time>
      </trkpt>
      <trkpt lat="48.58416" lon="4.6731">
        <ele>136.64</ele>
        <time>2021-08-10T10:04:30Z</time>
      </trkpt>
      <trkpt lat="48.58414" lon="4.67304">
        <ele>136.64</ele>
        <time>2021-08-10T10:04:31Z</time>
      </trkpt>
      <trkpt lat="48.58408" lon="4.67271">
        <ele>136.64</ele>
        <time>2021-08-10T10:04:37Z</time>
      </trkpt>
      <trkpt lat="48.58404" lon="4.67241">
        <ele>136.64</ele>
        <time>2021-08-10T10:04:42Z</time>
      </trkpt>
      <trkpt lat="48.58403" lon="4.67235">
        <ele>136.64</ele>
        <time>2021-08-10T10:04:43Z</time>
      </trkpt>
      <trkpt lat="48.58397" lon="4.67207">
        <ele>136.64</ele>
        <time>2021-08-10T10:04:48Z</time>
      </trkpt>
      <trkpt lat="48.58388" lon="4.67172">
        <ele>136.64</ele>
        <time>2021-08-10T10:04:54Z</time>
      </trkpt>
      <trkpt lat="48.58387" lon="4.67166">
        <ele>136.64</ele>
        <time>2021-08-10T10:04:55Z</time>
      </trkpt>
      <trkpt lat="48.58378" lon="4.67129">
        <ele>137.13</ele>
        <time>2021-08-10T10:05:02Z</time>
      </trkpt>
      <trkpt lat="48.58372" lon="4.67092">
        <ele>137.13</ele>
        <time>2021-08-10T10:05:09Z</time>
      </trkpt>
      <trkpt lat="48.58366" lon="4.67068">
        <ele>137.13</ele>
        <time>2021-08-10T10:05:15Z</time>
      </trkpt>
      <trkpt lat="48.58358" lon="4.67032">
        <ele>137.13</ele>
        <time>2021-08-10T10:05:23Z</time>
      </trkpt>
      <trkpt lat="48.58348" lon="4.67">
        <ele>137.13</ele>
        <time>2021-08-10T10:05:30Z</time>
      </trkpt>
      <trkpt lat="48.58343" lon="4.66974">
        <ele>137.61</ele>
        <time>2021-08-10T10:05:35Z</time>
      </trkpt>
      <trkpt lat="48.58335" lon="4.66935">
        <ele>138.09</ele>
        <time>2021-08-10T10:05:43Z</time>
      </trkpt>
      <trkpt lat="48.58326" lon="4.66893">
        <ele>138.57</ele>
        <time>2021-08-10T10:05:51Z</time>
      </trkpt>
      <trkpt lat="48.58318" lon="4.66849">
        <ele>138.57</ele>
        <time>2021-08-10T10:05:59Z</time>
      </trkpt>
      <trkpt lat="48.58307" lon="4.66799">
        <ele>139.05</ele>
        <time>2021-08-10T10:06:09Z</time>
      </trkpt>
      <trkpt lat="48.58299" lon="4.66768">
        <ele>139.05</ele>
        <time>2021-08-10T10:06:16Z</time>
      </trkpt>
      <trkpt lat="48.5828" lon="4.66719">
        <ele>139.53</ele>
        <time>2021-08-10T10:06:25Z</time>
      </trkpt>
      <trkpt lat="48.58261" lon="4.66677">
        <ele>140.01</ele>
        <time>2021-08-10T10:06:33Z</time>
      </trkpt>
      <trkpt lat="48.58237" lon="4.66628">
        <ele>140.49</ele>
        <time>2021-08-10T10:06:43Z</time>
      </trkpt>
      <trkpt lat="48.58213" lon="4.66574">
        <ele>140.97</ele>
        <time>2021-08-10T10:06:54Z</time>
      </trkpt>
      <trkpt lat="48.58199" lon="4.66539">
        <ele>141.45</ele>
        <time>2021-08-10T10:07:01Z</time>
      </trkpt>
      <trkpt lat="48.5818" lon="4.66502">
        <ele>141.93</ele>
        <time>2021-08-10T10:07:10Z</time>
      </trkpt>
      <trkpt lat="48.58171" lon="4.66485">
        <ele>141.93</ele>
        <time>2021-08-10T10:07:15Z</time>
      </trkpt>
      <trkpt lat="48.5817" lon="4.6648">
        <ele>141.93</ele>
        <time>2021-08-10T10:07:20Z</time>
      </trkpt>
      <trkpt lat="48.58169" lon="4.66483">
        <ele>141.93</ele>
        <time>2021-08-10T10:07:25Z</time>
      </trkpt>
      <trkpt lat="48.58167" lon="4.66481">
        <ele>141.93</ele>
        <time>2021-08-10T10:07:28Z</time>
      </trkpt>
      <trkpt lat="48.58165" lon="4.66473">
        <ele>141.93</ele>
        <time>2021-08-10T10:07:34Z</time>
      </trkpt>
      <trkpt lat="48.58162" lon="4.66471">
        <ele>141.93</ele>
        <time>2021-08-10T10:07:36Z</time>
      </trkpt>
      <trkpt lat="48.5816" lon="4.66469">
        <ele>141.93</ele>
        <time>2021-08-10T10:07:37Z</time>
      </trkpt>
      <trkpt lat="48.58158" lon="4.66467">
        <ele>141.93</ele>
        <time>2021-08-10T10:07:38Z</time>
      </trkpt>
      <trkpt lat="48.58156" lon="4.66464">
        <ele>141.93</ele>
        <time>2021-08-10T10:07:39Z</time>
      </trkpt>
      <trkpt lat="48.58154" lon="4.66461">
        <ele>141.93</ele>
        <time>2021-08-10T10:07:40Z</time>
      </trkpt>
      <trkpt lat="48.58152" lon="4.66459">
        <ele>141.93</ele>
        <time>2021-08-10T10:07:41Z</time>
      </trkpt>
      <trkpt lat="48.5815" lon="4.66456">
        <ele>141.93</ele>
        <time>2021-08-10T10:07:42Z</time>
      </trkpt>
      <trkpt lat="48.58148" lon="4.66453">
        <ele>141.93</ele>
        <time>2021-08-10T10:07:43Z</time>
      </trkpt>
      <trkpt lat="48.58145" lon="4.6645">
        <ele>141.93</ele>
        <time>2021-08-10T10:07:44Z</time>
      </trkpt>
      <trkpt lat="48.58126" lon="4.66427">
        <ele>142.41</ele>
        <time>2021-08-10T10:07:52Z</time>
      </trkpt>
      <trkpt lat="48.5811" lon="4.66413">
        <ele>142.41</ele>
        <time>2021-08-10T10:07:59Z</time>
      </trkpt>
      <trkpt lat="48.58096" lon="4.664">
        <ele>142.41</ele>
        <time>2021-08-10T10:08:05Z</time>
      </trkpt>
      <trkpt lat="48.58084" lon="4.6639">
        <ele>142.41</ele>
        <time>2021-08-10T10:08:11Z</time>
      </trkpt>
      <trkpt lat="48.58073" lon="4.66386">
        <ele>142.41</ele>
        <time>2021-08-10T10:08:15Z</time>
      </trkpt>
      <trkpt lat="48.5807" lon="4.66384">
        <ele>142.41</ele>
        <time>2021-08-10T10:08:17Z</time>
      </trkpt>
      <trkpt lat="48.58068" lon="4.66384">
        <ele>142.41</ele>
        <time>2021-08-10T10:08:18Z</time>
      </trkpt>
      <trkpt lat="48.58066" lon="4.66384">
        <ele>142.41</ele>
        <time>2021-08-10T10:08:19Z</time>
      </trkpt>
      <trkpt lat="48.58063" lon="4.66383">
        <ele>142.41</ele>
        <time>2021-08-10T10:08:20Z</time>
      </trkpt>
      <trkpt lat="48.58061" lon="4.66382">
        <ele>142.41</ele>
        <time>2021-08-10T10:08:21Z</time>
      </trkpt>
      <trkpt lat="48.58058" lon="4.66381">
        <ele>142.41</ele>
        <time>2021-08-10T10:08:22Z</time>
      </trkpt>
      <trkpt lat="48.58052" lon="4.66378">
        <ele>142.41</ele>
        <time>2021-08-10T10:08:27Z</time>
      </trkpt>
      <trkpt lat="48.58046" lon="4.66375">
        <ele>142.41</ele>
        <time>2021-08-10T10:08:33Z</time>
      </trkpt>
      <trkpt lat="48.5804" lon="4.66374">
        <ele>142.41</ele>
        <time>2021-08-10T10:08:40Z</time>
      </trkpt>
      <trkpt lat="48.58022" lon="4.66369">
        <ele>141.45</ele>
        <time>2021-08-10T10:08:47Z</time>
      </trkpt>
      <trkpt lat="48.58008" lon="4.66368">
        <ele>141.45</ele>
        <time>2021-08-10T10:08:52Z</time>
      </trkpt>
      <trkpt lat="48.57995" lon="4.66363">
        <ele>141.45</ele>
        <time>2021-08-10T10:08:57Z</time>
      </trkpt>
      <trkpt lat="48.57993" lon="4.66363">
        <ele>140.97</ele>
        <time>2021-08-10T10:08:58Z</time>
      </trkpt>
      <trkpt lat="48.57991" lon="4.66363">
        <ele>140.97</ele>
        <time>2021-08-10T10:08:59Z</time>
      </trkpt>
      <trkpt lat="48.57988" lon="4.66361">
        <ele>140.97</ele>
        <time>2021-08-10T10:09:00Z</time>
      </trkpt>
      <trkpt lat="48.57986" lon="4.6636">
        <ele>140.97</ele>
        <time>2021-08-10T10:09:01Z</time>
      </trkpt>
      <trkpt lat="48.57984" lon="4.66358">
        <ele>140.97</ele>
        <time>2021-08-10T10:09:02Z</time>
      </trkpt>
      <trkpt lat="48.57981" lon="4.66357">
        <ele>140.97</ele>
        <time>2021-08-10T10:09:03Z</time>
      </trkpt>
      <trkpt lat="48.57962" lon="4.66351">
        <ele>140.97</ele>
        <time>2021-08-10T10:09:10Z</time>
      </trkpt>
      <trkpt lat="48.5794" lon="4.66337">
        <ele>140.97</ele>
        <time>2021-08-10T10:09:17Z</time>
      </trkpt>
      <trkpt lat="48.57917" lon="4.66321">
        <ele>140.97</ele>
        <time>2021-08-10T10:09:24Z</time>
      </trkpt>
      <trkpt lat="48.57891" lon="4.66296">
        <ele>140.97</ele>
        <time>2021-08-10T10:09:32Z</time>
      </trkpt>
      <trkpt lat="48.57871" lon="4.66271">
        <ele>140.97</ele>
        <time>2021-08-10T10:09:38Z</time>
      </trkpt>
      <trkpt lat="48.57853" lon="4.66249">
        <ele>140.49</ele>
        <time>2021-08-10T10:09:44Z</time>
      </trkpt>
      <trkpt lat="48.57828" lon="4.66219">
        <ele>140.49</ele>
        <time>2021-08-10T10:09:53Z</time>
      </trkpt>
      <trkpt lat="48.57809" lon="4.6619">
        <ele>140.49</ele>
        <time>2021-08-10T10:10:00Z</time>
      </trkpt>
      <trkpt lat="48.57794" lon="4.66167">
        <ele>140.01</ele>
        <time>2021-08-10T10:10:06Z</time>
      </trkpt>
      <trkpt lat="48.57785" lon="4.66157">
        <ele>140.01</ele>
        <time>2021-08-10T10:10:09Z</time>
      </trkpt>
      <trkpt lat="48.57783" lon="4.66153">
        <ele>140.01</ele>
        <time>2021-08-10T10:10:10Z</time>
      </trkpt>
      <trkpt lat="48.57771" lon="4.66131">
        <ele>140.01</ele>
        <time>2021-08-10T10:10:16Z</time>
      </trkpt>
      <trkpt lat="48.57759" lon="4.66116">
        <ele>139.53</ele>
        <time>2021-08-10T10:10:23Z</time>
      </trkpt>
      <trkpt lat="48.57754" lon="4.66109">
        <ele>139.53</ele>
        <time>2021-08-10T10:10:27Z</time>
      </trkpt>
      <trkpt lat="48.57755" lon="4.66107">
        <ele>139.53</ele>
        <time>2021-08-10T10:10:28Z</time>
      </trkpt>
      <trkpt lat="48.57755" lon="4.66105">
        <ele>139.53</ele>
        <time>2021-08-10T10:10:29Z</time>
      </trkpt>
      <trkpt lat="48.57754" lon="4.66102">
        <ele>139.53</ele>
        <time>2021-08-10T10:10:30Z</time>
      </trkpt>
      <trkpt lat="48.57751" lon="4.66098">
        <ele>139.53</ele>
        <time>2021-08-10T10:10:31Z</time>
      </trkpt>
      <trkpt lat="48.57747" lon="4.66094">
        <ele>139.53</ele>
        <time>2021-08-10T10:10:32Z</time>
      </trkpt>
      <trkpt lat="48.57744" lon="4.6609">
        <ele>139.53</ele>
        <time>2021-08-10T10:10:33Z</time>
      </trkpt>
      <trkpt lat="48.57725" lon="4.66064">
        <ele>139.05</ele>
        <time>2021-08-10T10:10:40Z</time>
      </trkpt>
      <trkpt lat="48.57711" lon="4.66044">
        <ele>139.05</ele>
        <time>2021-08-10T10:10:46Z</time>
      </trkpt>
      <trkpt lat="48.57693" lon="4.66042">
        <ele>139.05</ele>
        <time>2021-08-10T10:10:51Z</time>
      </trkpt>
      <trkpt lat="48.57659" lon="4.66046">
        <ele>138.57</ele>
        <time>2021-08-10T10:10:59Z</time>
      </trkpt>
      <trkpt lat="48.57645" lon="4.66046">
        <ele>138.57</ele>
        <time>2021-08-10T10:11:02Z</time>
      </trkpt>
      <trkpt lat="48.5764" lon="4.66047">
        <ele>138.57</ele>
        <time>2021-08-10T10:11:03Z</time>
      </trkpt>
      <trkpt lat="48.57636" lon="4.66048">
        <ele>138.57</ele>
        <time>2021-08-10T10:11:04Z</time>
      </trkpt>
      <trkpt lat="48.57632" lon="4.66048">
        <ele>138.57</ele>
        <time>2021-08-10T10:11:05Z</time>
      </trkpt>
      <trkpt lat="48.57629" lon="4.66049">
        <ele>138.57</ele>
        <time>2021-08-10T10:11:06Z</time>
      </trkpt>
      <trkpt lat="48.57626" lon="4.66049">
        <ele>138.57</ele>
        <time>2021-08-10T10:11:07Z</time>
      </trkpt>
      <trkpt lat="48.57623" lon="4.66048">
        <ele>138.57</ele>
        <time>2021-08-10T10:11:08Z</time>
      </trkpt>
      <trkpt lat="48.57621" lon="4.66047">
        <ele>138.57</ele>
        <time>2021-08-10T10:11:09Z</time>
      </trkpt>
      <trkpt lat="48.57606" lon="4.66045">
        <ele>138.57</ele>
        <time>2021-08-10T10:11:14Z</time>
      </trkpt>
      <trkpt lat="48.57582" lon="4.66048">
        <ele>138.57</ele>
        <time>2021-08-10T10:11:21Z</time>
      </trkpt>
      <trkpt lat="48.57555" lon="4.66048">
        <ele>138.57</ele>
        <time>2021-08-10T10:11:29Z</time>
      </trkpt>
      <trkpt lat="48.57535" lon="4.66051">
        <ele>138.09</ele>
        <time>2021-08-10T10:11:35Z</time>
      </trkpt>
      <trkpt lat="48.5752" lon="4.66049">
        <ele>137.61</ele>
        <time>2021-08-10T10:11:41Z</time>
      </trkpt>
      <trkpt lat="48.57512" lon="4.66031">
        <ele>137.61</ele>
        <time>2021-08-10T10:11:47Z</time>
      </trkpt>
      <trkpt lat="48.57506" lon="4.66002">
        <ele>138.57</ele>
        <time>2021-08-10T10:11:55Z</time>
      </trkpt>
      <trkpt lat="48.57493" lon="4.6599">
        <ele>138.57</ele>
        <time>2021-08-10T10:12:00Z</time>
      </trkpt>
      <trkpt lat="48.57479" lon="4.65993">
        <ele>138.57</ele>
        <time>2021-08-10T10:12:04Z</time>
      </trkpt>
      <trkpt lat="48.57475" lon="4.65994">
        <ele>138.57</ele>
        <time>2021-08-10T10:12:05Z</time>
      </trkpt>
      <trkpt lat="48.57441" lon="4.65999">
        <ele>138.57</ele>
        <time>2021-08-10T10:12:14Z</time>
      </trkpt>
      <trkpt lat="48.5741" lon="4.6601">
        <ele>138.57</ele>
        <time>2021-08-10T10:12:23Z</time>
      </trkpt>
      <trkpt lat="48.57403" lon="4.66041">
        <ele>139.53</ele>
        <time>2021-08-10T10:12:29Z</time>
      </trkpt>
      <trkpt lat="48.574" lon="4.66103">
        <ele>139.53</ele>
        <time>2021-08-10T10:12:39Z</time>
      </trkpt>
      <trkpt lat="48.57399" lon="4.66111">
        <ele>139.53</ele>
        <time>2021-08-10T10:12:40Z</time>
      </trkpt>
      <trkpt lat="48.57389" lon="4.66179">
        <ele>138.57</ele>
        <time>2021-08-10T10:12:50Z</time>
      </trkpt>
      <trkpt lat="48.57373" lon="4.66263">
        <ele>137.61</ele>
        <time>2021-08-10T10:13:02Z</time>
      </trkpt>
      <trkpt lat="48.57359" lon="4.66336">
        <ele>138.09</ele>
        <time>2021-08-10T10:13:13Z</time>
      </trkpt>
      <trkpt lat="48.57343" lon="4.66413">
        <ele>139.05</ele>
        <time>2021-08-10T10:13:25Z</time>
      </trkpt>
      <trkpt lat="48.5733" lon="4.66476">
        <ele>139.53</ele>
        <time>2021-08-10T10:13:35Z</time>
      </trkpt>
      <trkpt lat="48.57311" lon="4.66553">
        <ele>139.53</ele>
        <time>2021-08-10T10:13:47Z</time>
      </trkpt>
      <trkpt lat="48.57291" lon="4.66635">
        <ele>138.09</ele>
        <time>2021-08-10T10:13:59Z</time>
      </trkpt>
      <trkpt lat="48.57273" lon="4.66704">
        <ele>138.09</ele>
        <time>2021-08-10T10:14:09Z</time>
      </trkpt>
      <trkpt lat="48.57259" lon="4.66758">
        <ele>138.09</ele>
        <time>2021-08-10T10:14:18Z</time>
      </trkpt>
      <trkpt lat="48.5725" lon="4.66795">
        <ele>138.09</ele>
        <time>2021-08-10T10:14:25Z</time>
      </trkpt>
      <trkpt lat="48.57233" lon="4.66863">
        <ele>138.09</ele>
        <time>2021-08-10T10:14:35Z</time>
      </trkpt>
      <trkpt lat="48.57221" lon="4.66909">
        <ele>137.61</ele>
        <time>2021-08-10T10:14:41Z</time>
      </trkpt>
      <trkpt lat="48.57196" lon="4.67007">
        <ele>137.13</ele>
        <time>2021-08-10T10:14:53Z</time>
      </trkpt>
      <trkpt lat="48.57174" lon="4.67095">
        <ele>136.64</ele>
        <time>2021-08-10T10:15:04Z</time>
      </trkpt>
      <trkpt lat="48.57154" lon="4.67166">
        <ele>136.64</ele>
        <time>2021-08-10T10:15:14Z</time>
      </trkpt>
      <trkpt lat="48.57151" lon="4.67172">
        <ele>136.64</ele>
        <time>2021-08-10T10:15:15Z</time>
      </trkpt>
      <trkpt lat="48.57148" lon="4.67177">
        <ele>138.09</ele>
        <time>2021-08-10T10:15:16Z</time>
      </trkpt>
      <trkpt lat="48.57145" lon="4.67183">
        <ele>137.61</ele>
        <time>2021-08-10T10:15:17Z</time>
      </trkpt>
      <trkpt lat="48.57138" lon="4.67192">
        <ele>138.09</ele>
        <time>2021-08-10T10:15:19Z</time>
      </trkpt>
      <trkpt lat="48.57135" lon="4.67195">
        <ele>138.09</ele>
        <time>2021-08-10T10:15:20Z</time>
      </trkpt>
      <trkpt lat="48.57112" lon="4.67222">
        <ele>138.09</ele>
        <time>2021-08-10T10:15:27Z</time>
      </trkpt>
      <trkpt lat="48.57087" lon="4.6725">
        <ele>138.09</ele>
        <time>2021-08-10T10:15:33Z</time>
      </trkpt>
      <trkpt lat="48.57068" lon="4.67269">
        <ele>138.09</ele>
        <time>2021-08-10T10:15:38Z</time>
      </trkpt>
      <trkpt lat="48.57055" lon="4.67277">
        <ele>138.09</ele>
        <time>2021-08-10T10:15:41Z</time>
      </trkpt>
      <trkpt lat="48.5705" lon="4.67277">
        <ele>138.09</ele>
        <time>2021-08-10T10:15:42Z</time>
      </trkpt>
      <trkpt lat="48.57044" lon="4.67276">
        <ele>138.09</ele>
        <time>2021-08-10T10:15:43Z</time>
      </trkpt>
      <trkpt lat="48.5704" lon="4.67274">
        <ele>138.09</ele>
        <time>2021-08-10T10:15:44Z</time>
      </trkpt>
      <trkpt lat="48.57035" lon="4.6727">
        <ele>136.64</ele>
        <time>2021-08-10T10:15:45Z</time>
      </trkpt>
      <trkpt lat="48.57031" lon="4.67267">
        <ele>136.64</ele>
        <time>2021-08-10T10:15:46Z</time>
      </trkpt>
      <trkpt lat="48.56994" lon="4.67232">
        <ele>134.24</ele>
        <time>2021-08-10T10:15:53Z</time>
      </trkpt>
      <trkpt lat="48.56956" lon="4.67195">
        <ele>131.84</ele>
        <time>2021-08-10T10:15:59Z</time>
      </trkpt>
      <trkpt lat="48.56898" lon="4.67137">
        <ele>130.88</ele>
        <time>2021-08-10T10:16:09Z</time>
      </trkpt>
      <trkpt lat="48.56881" lon="4.67121">
        <ele>130.88</ele>
        <time>2021-08-10T10:16:12Z</time>
      </trkpt>
      <trkpt lat="48.56825" lon="4.67068">
        <ele>130.88</ele>
        <time>2021-08-10T10:16:23Z</time>
      </trkpt>
      <trkpt lat="48.56793" lon="4.67037">
        <ele>132.32</ele>
        <time>2021-08-10T10:16:30Z</time>
      </trkpt>
      <trkpt lat="48.56753" lon="4.66998">
        <ele>133.28</ele>
        <time>2021-08-10T10:16:40Z</time>
      </trkpt>
      <trkpt lat="48.56724" lon="4.6697">
        <ele>133.76</ele>
        <time>2021-08-10T10:16:48Z</time>
      </trkpt>
      <trkpt lat="48.56682" lon="4.66929">
        <ele>134.24</ele>
        <time>2021-08-10T10:17:00Z</time>
      </trkpt>
      <trkpt lat="48.56648" lon="4.66894">
        <ele>135.68</ele>
        <time>2021-08-10T10:17:11Z</time>
      </trkpt>
      <trkpt lat="48.5662" lon="4.66861">
        <ele>136.16</ele>
        <time>2021-08-10T10:17:21Z</time>
      </trkpt>
      <trkpt lat="48.56593" lon="4.66817">
        <ele>137.13</ele>
        <time>2021-08-10T10:17:33Z</time>
      </trkpt>
      <trkpt lat="48.56568" lon="4.66775">
        <ele>138.09</ele>
        <time>2021-08-10T10:17:45Z</time>
      </trkpt>
      <trkpt lat="48.56545" lon="4.66735">
        <ele>139.05</ele>
        <time>2021-08-10T10:17:56Z</time>
      </trkpt>
      <trkpt lat="48.56521" lon="4.66695">
        <ele>140.01</ele>
        <time>2021-08-10T10:18:06Z</time>
      </trkpt>
      <trkpt lat="48.565" lon="4.66659">
        <ele>140.01</ele>
        <time>2021-08-10T10:18:14Z</time>
      </trkpt>
      <trkpt lat="48.56491" lon="4.66645">
        <ele>140.01</ele>
        <time>2021-08-10T10:18:17Z</time>
      </trkpt>
      <trkpt lat="48.56478" lon="4.66622">
        <ele>140.49</ele>
        <time>2021-08-10T10:18:22Z</time>
      </trkpt>
      <trkpt lat="48.56453" lon="4.66579">
        <ele>140.49</ele>
        <time>2021-08-10T10:18:31Z</time>
      </trkpt>
      <trkpt lat="48.5645" lon="4.66575">
        <ele>140.49</ele>
        <time>2021-08-10T10:18:32Z</time>
      </trkpt>
      <trkpt lat="48.56442" lon="4.66569">
        <ele>140.49</ele>
        <time>2021-08-10T10:18:34Z</time>
      </trkpt>
      <trkpt lat="48.56439" lon="4.66566">
        <ele>140.49</ele>
        <time>2021-08-10T10:18:35Z</time>
      </trkpt>
      <trkpt lat="48.56418" lon="4.66556">
        <ele>140.49</ele>
        <time>2021-08-10T10:18:40Z</time>
      </trkpt>
      <trkpt lat="48.56385" lon="4.66551">
        <ele>140.97</ele>
        <time>2021-08-10T10:18:48Z</time>
      </trkpt>
      <trkpt lat="48.56347" lon="4.66543">
        <ele>141.45</ele>
        <time>2021-08-10T10:18:56Z</time>
      </trkpt>
      <trkpt lat="48.563" lon="4.66529">
        <ele>138.57</ele>
        <time>2021-08-10T10:19:04Z</time>
      </trkpt>
      <trkpt lat="48.56259" lon="4.66513">
        <ele>136.64</ele>
        <time>2021-08-10T10:19:10Z</time>
      </trkpt>
      <trkpt lat="48.56201" lon="4.66478">
        <ele>134.72</ele>
        <time>2021-08-10T10:19:18Z</time>
      </trkpt>
      <trkpt lat="48.56134" lon="4.66421">
        <ele>134.24</ele>
        <time>2021-08-10T10:19:28Z</time>
      </trkpt>
      <trkpt lat="48.5608" lon="4.66357">
        <ele>134.24</ele>
        <time>2021-08-10T10:19:38Z</time>
      </trkpt>
      <trkpt lat="48.56044" lon="4.66312">
        <ele>135.68</ele>
        <time>2021-08-10T10:19:46Z</time>
      </trkpt>
      <trkpt lat="48.56022" lon="4.66284">
        <ele>136.16</ele>
        <time>2021-08-10T10:19:52Z</time>
      </trkpt>
      <trkpt lat="48.5602" lon="4.66277">
        <ele>136.16</ele>
        <time>2021-08-10T10:19:53Z</time>
      </trkpt>
      <trkpt lat="48.56019" lon="4.6627">
        <ele>136.64</ele>
        <time>2021-08-10T10:19:54Z</time>
      </trkpt>
      <trkpt lat="48.56019" lon="4.66264">
        <ele>136.64</ele>
        <time>2021-08-10T10:19:55Z</time>
      </trkpt>
      <trkpt lat="48.5602" lon="4.66257">
        <ele>136.64</ele>
        <time>2021-08-10T10:19:56Z</time>
      </trkpt>
      <trkpt lat="48.56022" lon="4.66251">
        <ele>136.64</ele>
        <time>2021-08-10T10:19:57Z</time>
      </trkpt>
      <trkpt lat="48.56024" lon="4.66245">
        <ele>136.64</ele>
        <time>2021-08-10T10:19:58Z</time>
      </trkpt>
      <trkpt lat="48.56026" lon="4.66239">
        <ele>136.64</ele>
        <time>2021-08-10T10:19:59Z</time>
      </trkpt>
      <trkpt lat="48.56028" lon="4.66232">
        <ele>136.64</ele>
        <time>2021-08-10T10:20:00Z</time>
      </trkpt>
      <trkpt lat="48.56057" lon="4.66138">
        <ele>137.13</ele>
        <time>2021-08-10T10:20:14Z</time>
      </trkpt>
      <trkpt lat="48.56064" lon="4.66106">
        <ele>137.13</ele>
        <time>2021-08-10T10:20:19Z</time>
      </trkpt>
      <trkpt lat="48.56068" lon="4.66093">
        <ele>137.13</ele>
        <time>2021-08-10T10:20:21Z</time>
      </trkpt>
      <trkpt lat="48.56082" lon="4.66052">
        <ele>137.13</ele>
        <time>2021-08-10T10:20:27Z</time>
      </trkpt>
      <trkpt lat="48.56102" lon="4.65982">
        <ele>137.13</ele>
        <time>2021-08-10T10:20:36Z</time>
      </trkpt>
      <trkpt lat="48.56103" lon="4.65973">
        <ele>137.13</ele>
        <time>2021-08-10T10:20:37Z</time>
      </trkpt>
      <trkpt lat="48.56103" lon="4.65965">
        <ele>137.13</ele>
        <time>2021-08-10T10:20:38Z</time>
      </trkpt>
      <trkpt lat="48.56101" lon="4.65956">
        <ele>135.68</ele>
        <time>2021-08-10T10:20:39Z</time>
      </trkpt>
      <trkpt lat="48.56099" lon="4.65949">
        <ele>135.68</ele>
        <time>2021-08-10T10:20:40Z</time>
      </trkpt>
      <trkpt lat="48.56094" lon="4.65941">
        <ele>135.68</ele>
        <time>2021-08-10T10:20:41Z</time>
      </trkpt>
      <trkpt lat="48.56091" lon="4.65937">
        <ele>135.2</ele>
        <time>2021-08-10T10:20:42Z</time>
      </trkpt>
      <trkpt lat="48.56084" lon="4.65931">
        <ele>135.2</ele>
        <time>2021-08-10T10:20:43Z</time>
      </trkpt>
      <trkpt lat="48.5608" lon="4.65927">
        <ele>134.72</ele>
        <time>2021-08-10T10:20:44Z</time>
      </trkpt>
      <trkpt lat="48.56073" lon="4.65923">
        <ele>134.72</ele>
        <time>2021-08-10T10:20:45Z</time>
      </trkpt>
      <trkpt lat="48.56066" lon="4.6592">
        <ele>133.76</ele>
        <time>2021-08-10T10:20:46Z</time>
      </trkpt>
      <trkpt lat="48.56038" lon="4.65908">
        <ele>132.8</ele>
        <time>2021-08-10T10:20:50Z</time>
      </trkpt>
      <trkpt lat="48.5598" lon="4.65883">
        <ele>131.36</ele>
        <time>2021-08-10T10:20:58Z</time>
      </trkpt>
      <trkpt lat="48.5589" lon="4.65846">
        <ele>128.47</ele>
        <time>2021-08-10T10:21:10Z</time>
      </trkpt>
      <trkpt lat="48.55835" lon="4.65819">
        <ele>127.51</ele>
        <time>2021-08-10T10:21:18Z</time>
      </trkpt>
      <trkpt lat="48.55822" lon="4.6581">
        <ele>127.51</ele>
        <time>2021-08-10T10:21:20Z</time>
      </trkpt>
      <trkpt lat="48.55796" lon="4.65779">
        <ele>127.03</ele>
        <time>2021-08-10T10:21:25Z</time>
      </trkpt>
      <trkpt lat="48.55758" lon="4.65713">
        <ele>127.03</ele>
        <time>2021-08-10T10:21:34Z</time>
      </trkpt>
      <trkpt lat="48.55729" lon="4.65659">
        <ele>127.03</ele>
        <time>2021-08-10T10:21:42Z</time>
      </trkpt>
      <trkpt lat="48.55708" lon="4.65609">
        <ele>129.43</ele>
        <time>2021-08-10T10:21:50Z</time>
      </trkpt>
      <trkpt lat="48.55689" lon="4.65544">
        <ele>130.4</ele>
        <time>2021-08-10T10:22:00Z</time>
      </trkpt>
      <trkpt lat="48.55684" lon="4.65525">
        <ele>130.4</ele>
        <time>2021-08-10T10:22:03Z</time>
      </trkpt>
      <trkpt lat="48.55672" lon="4.65465">
        <ele>131.36</ele>
        <time>2021-08-10T10:22:12Z</time>
      </trkpt>
      <trkpt lat="48.55652" lon="4.65405">
        <ele>131.84</ele>
        <time>2021-08-10T10:22:22Z</time>
      </trkpt>
      <trkpt lat="48.55634" lon="4.65362">
        <ele>132.8</ele>
        <time>2021-08-10T10:22:30Z</time>
      </trkpt>
      <trkpt lat="48.55611" lon="4.6531">
        <ele>134.24</ele>
        <time>2021-08-10T10:22:40Z</time>
      </trkpt>
      <trkpt lat="48.55583" lon="4.6526">
        <ele>134.72</ele>
        <time>2021-08-10T10:22:50Z</time>
      </trkpt>
      <trkpt lat="48.55557" lon="4.65235">
        <ele>135.2</ele>
        <time>2021-08-10T10:22:58Z</time>
      </trkpt>
      <trkpt lat="48.55525" lon="4.65217">
        <ele>136.16</ele>
        <time>2021-08-10T10:23:08Z</time>
      </trkpt>
      <trkpt lat="48.55502" lon="4.65203">
        <ele>136.64</ele>
        <time>2021-08-10T10:23:16Z</time>
      </trkpt>
      <trkpt lat="48.55485" lon="4.65186">
        <ele>137.61</ele>
        <time>2021-08-10T10:23:22Z</time>
      </trkpt>
      <trkpt lat="48.55459" lon="4.65151">
        <ele>137.61</ele>
        <time>2021-08-10T10:23:31Z</time>
      </trkpt>
      <trkpt lat="48.55443" lon="4.65123">
        <ele>138.57</ele>
        <time>2021-08-10T10:23:38Z</time>
      </trkpt>
      <trkpt lat="48.55432" lon="4.65099">
        <ele>138.57</ele>
        <time>2021-08-10T10:23:45Z</time>
      </trkpt>
      <trkpt lat="48.55431" lon="4.65092">
        <ele>139.05</ele>
        <time>2021-08-10T10:23:47Z</time>
      </trkpt>
      <trkpt lat="48.55432" lon="4.65088">
        <ele>139.05</ele>
        <time>2021-08-10T10:23:48Z</time>
      </trkpt>
      <trkpt lat="48.55431" lon="4.65085">
        <ele>139.05</ele>
        <time>2021-08-10T10:23:49Z</time>
      </trkpt>
      <trkpt lat="48.5543" lon="4.65082">
        <ele>139.05</ele>
        <time>2021-08-10T10:23:50Z</time>
      </trkpt>
      <trkpt lat="48.55428" lon="4.65079">
        <ele>139.05</ele>
        <time>2021-08-10T10:23:51Z</time>
      </trkpt>
      <trkpt lat="48.55425" lon="4.65073">
        <ele>139.05</ele>
        <time>2021-08-10T10:23:56Z</time>
      </trkpt>
      <trkpt lat="48.55425" lon="4.65071">
        <ele>139.05</ele>
        <time>2021-08-10T10:24:03Z</time>
      </trkpt>
      <trkpt lat="48.55425" lon="4.65071">
        <ele>139.05</ele>
        <time>2021-08-10T10:24:11Z</time>
      </trkpt>
      <trkpt lat="48.55424" lon="4.65072">
        <ele>139.05</ele>
        <time>2021-08-10T10:24:18Z</time>
      </trkpt>
      <trkpt lat="48.55422" lon="4.65074">
        <ele>139.05</ele>
        <time>2021-08-10T10:24:22Z</time>
      </trkpt>
      <trkpt lat="48.55412" lon="4.65077">
        <ele>139.05</ele>
        <time>2021-08-10T10:24:27Z</time>
      </trkpt>
      <trkpt lat="48.55409" lon="4.65075">
        <ele>139.05</ele>
        <time>2021-08-10T10:24:28Z</time>
      </trkpt>
      <trkpt lat="48.55407" lon="4.65071">
        <ele>139.05</ele>
        <time>2021-08-10T10:24:29Z</time>
      </trkpt>
      <trkpt lat="48.55406" lon="4.65067">
        <ele>139.05</ele>
        <time>2021-08-10T10:24:30Z</time>
      </trkpt>
      <trkpt lat="48.55405" lon="4.65061">
        <ele>139.05</ele>
        <time>2021-08-10T10:24:31Z</time>
      </trkpt>
      <trkpt lat="48.55405" lon="4.65056">
        <ele>139.05</ele>
        <time>2021-08-10T10:24:32Z</time>
      </trkpt>
      <trkpt lat="48.55405" lon="4.6505">
        <ele>139.05</ele>
        <time>2021-08-10T10:24:33Z</time>
      </trkpt>
      <trkpt lat="48.55405" lon="4.65045">
        <ele>139.05</ele>
        <time>2021-08-10T10:24:34Z</time>
      </trkpt>
      <trkpt lat="48.55407" lon="4.65014">
        <ele>139.05</ele>
        <time>2021-08-10T10:24:40Z</time>
      </trkpt>
      <trkpt lat="48.55408" lon="4.65008">
        <ele>139.05</ele>
        <time>2021-08-10T10:24:42Z</time>
      </trkpt>
      <trkpt lat="48.5541" lon="4.65006">
        <ele>139.05</ele>
        <time>2021-08-10T10:24:43Z</time>
      </trkpt>
      <trkpt lat="48.55411" lon="4.65006">
        <ele>139.05</ele>
        <time>2021-08-10T10:24:44Z</time>
      </trkpt>
      <trkpt lat="48.55413" lon="4.65005">
        <ele>139.05</ele>
        <time>2021-08-10T10:24:50Z</time>
      </trkpt>
      <trkpt lat="48.55413" lon="4.65005">
        <ele>139.05</ele>
        <time>2021-08-10T10:24:58Z</time>
      </trkpt>
      <trkpt lat="48.55412" lon="4.65005">
        <ele>139.05</ele>
        <time>2021-08-10T10:25:11Z</time>
      </trkpt>
      <trkpt lat="48.55414" lon="4.65002">
        <ele>139.05</ele>
        <time>2021-08-10T10:25:32Z</time>
      </trkpt>
      <trkpt lat="48.55415" lon="4.65003">
        <ele>139.05</ele>
        <time>2021-08-10T10:25:44Z</time>
      </trkpt>
      <trkpt lat="48.55414" lon="4.65002">
        <ele>139.05</ele>
        <time>2021-08-10T10:26:01Z</time>
      </trkpt>
      <trkpt lat="48.55414" lon="4.65003">
        <ele>139.05</ele>
        <time>2021-08-10T10:26:16Z</time>
      </trkpt>
      <trkpt lat="48.55413" lon="4.65003">
        <ele>139.05</ele>
        <time>2021-08-10T10:26:41Z</time>
      </trkpt>
      <trkpt lat="48.55416" lon="4.65002">
        <ele>139.05</ele>
        <time>2021-08-10T10:27:03Z</time>
      </trkpt>
      <trkpt lat="48.55417" lon="4.65003">
        <ele>139.05</ele>
        <time>2021-08-10T10:27:14Z</time>
      </trkpt>
      <trkpt lat="48.55416" lon="4.65002">
        <ele>139.05</ele>
        <time>2021-08-10T10:27:28Z</time>
      </trkpt>
      <trkpt lat="48.55414" lon="4.65001">
        <ele>139.05</ele>
        <time>2021-08-10T10:27:43Z</time>
      </trkpt>
      <trkpt lat="48.55413" lon="4.65004">
        <ele>139.05</ele>
        <time>2021-08-10T10:28:05Z</time>
      </trkpt>
      <trkpt lat="48.55413" lon="4.65004">
        <ele>139.05</ele>
        <time>2021-08-10T10:28:26Z</time>
      </trkpt>
      <trkpt lat="48.55413" lon="4.65001">
        <ele>138.09</ele>
        <time>2021-08-10T10:28:45Z</time>
      </trkpt>
      <trkpt lat="48.55409" lon="4.65005">
        <ele>138.09</ele>
        <time>2021-08-10T10:29:07Z</time>
      </trkpt>
      <trkpt lat="48.5541" lon="4.65005">
        <ele>139.05</ele>
        <time>2021-08-10T10:29:27Z</time>
      </trkpt>
      <trkpt lat="48.55411" lon="4.65004">
        <ele>139.05</ele>
        <time>2021-08-10T10:29:44Z</time>
      </trkpt>
      <trkpt lat="48.55412" lon="4.65006">
        <ele>139.05</ele>
        <time>2021-08-10T10:29:59Z</time>
      </trkpt>
      <trkpt lat="48.55412" lon="4.65008">
        <ele>139.05</ele>
        <time>2021-08-10T10:30:14Z</time>
      </trkpt>
      <trkpt lat="48.55412" lon="4.65006">
        <ele>139.05</ele>
        <time>2021-08-10T10:30:21Z</time>
      </trkpt>
      <trkpt lat="48.55413" lon="4.65005">
        <ele>139.05</ele>
        <time>2021-08-10T10:30:28Z</time>
      </trkpt>
      <trkpt lat="48.55413" lon="4.65003">
        <ele>139.05</ele>
        <time>2021-08-10T10:30:44Z</time>
      </trkpt>
      <trkpt lat="48.55413" lon="4.65004">
        <ele>139.05</ele>
        <time>2021-08-10T10:31:04Z</time>
      </trkpt>
      <trkpt lat="48.55413" lon="4.65004">
        <ele>139.05</ele>
        <time>2021-08-10T10:31:17Z</time>
      </trkpt>
      <trkpt lat="48.55414" lon="4.65004">
        <ele>139.05</ele>
        <time>2021-08-10T10:31:30Z</time>
      </trkpt>
      <trkpt lat="48.55414" lon="4.65003">
        <ele>139.05</ele>
        <time>2021-08-10T10:31:42Z</time>
      </trkpt>
      <trkpt lat="48.55412" lon="4.65005">
        <ele>139.05</ele>
        <time>2021-08-10T10:31:52Z</time>
      </trkpt>
      <trkpt lat="48.55412" lon="4.65007">
        <ele>139.05</ele>
        <time>2021-08-10T10:32:06Z</time>
      </trkpt>
      <trkpt lat="48.55412" lon="4.65007">
        <ele>139.05</ele>
        <time>2021-08-10T10:32:25Z</time>
      </trkpt>
      <trkpt lat="48.55413" lon="4.65006">
        <ele>139.05</ele>
        <time>2021-08-10T10:32:40Z</time>
      </trkpt>
      <trkpt lat="48.55413" lon="4.65007">
        <ele>139.05</ele>
        <time>2021-08-10T10:32:56Z</time>
      </trkpt>
      <trkpt lat="48.55414" lon="4.65005">
        <ele>139.05</ele>
        <time>2021-08-10T10:33:09Z</time>
      </trkpt>
      <trkpt lat="48.55411" lon="4.65006">
        <ele>139.05</ele>
        <time>2021-08-10T10:33:16Z</time>
      </trkpt>
      <trkpt lat="48.55409" lon="4.6501">
        <ele>139.05</ele>
        <time>2021-08-10T10:33:23Z</time>
      </trkpt>
      <trkpt lat="48.55409" lon="4.65011">
        <ele>139.05</ele>
        <time>2021-08-10T10:33:24Z</time>
      </trkpt>
      <trkpt lat="48.55409" lon="4.65013">
        <ele>139.05</ele>
        <time>2021-08-10T10:33:25Z</time>
      </trkpt>
      <trkpt lat="48.55405" lon="4.65042">
        <ele>139.05</ele>
        <time>2021-08-10T10:33:33Z</time>
      </trkpt>
      <trkpt lat="48.55408" lon="4.65072">
        <ele>139.05</ele>
        <time>2021-08-10T10:33:39Z</time>
      </trkpt>
      <trkpt lat="48.55419" lon="4.65097">
        <ele>139.05</ele>
        <time>2021-08-10T10:33:45Z</time>
      </trkpt>
      <trkpt lat="48.55418" lon="4.65102">
        <ele>139.05</ele>
        <time>2021-08-10T10:33:46Z</time>
      </trkpt>
      <trkpt lat="48.554" lon="4.65132">
        <ele>139.05</ele>
        <time>2021-08-10T10:33:53Z</time>
      </trkpt>
      <trkpt lat="48.55394" lon="4.65142">
        <ele>138.09</ele>
        <time>2021-08-10T10:33:55Z</time>
      </trkpt>
      <trkpt lat="48.55369" lon="4.65184">
        <ele>137.61</ele>
        <time>2021-08-10T10:34:03Z</time>
      </trkpt>
      <trkpt lat="48.55343" lon="4.65226">
        <ele>136.64</ele>
        <time>2021-08-10T10:34:10Z</time>
      </trkpt>
      <trkpt lat="48.55304" lon="4.65283">
        <ele>135.68</ele>
        <time>2021-08-10T10:34:20Z</time>
      </trkpt>
      <trkpt lat="48.5529" lon="4.65298">
        <ele>135.68</ele>
        <time>2021-08-10T10:34:23Z</time>
      </trkpt>
      <trkpt lat="48.55286" lon="4.65302">
        <ele>134.24</ele>
        <time>2021-08-10T10:34:24Z</time>
      </trkpt>
      <trkpt lat="48.55281" lon="4.65306">
        <ele>134.24</ele>
        <time>2021-08-10T10:34:25Z</time>
      </trkpt>
      <trkpt lat="48.55243" lon="4.65351">
        <ele>133.28</ele>
        <time>2021-08-10T10:34:33Z</time>
      </trkpt>
      <trkpt lat="48.55196" lon="4.6541">
        <ele>131.36</ele>
        <time>2021-08-10T10:34:42Z</time>
      </trkpt>
      <trkpt lat="48.55151" lon="4.65476">
        <ele>130.88</ele>
        <time>2021-08-10T10:34:51Z</time>
      </trkpt>
      <trkpt lat="48.55102" lon="4.65562">
        <ele>130.4</ele>
        <time>2021-08-10T10:35:02Z</time>
      </trkpt>
      <trkpt lat="48.55089" lon="4.65594">
        <ele>130.4</ele>
        <time>2021-08-10T10:35:06Z</time>
      </trkpt>
      <trkpt lat="48.55078" lon="4.65628">
        <ele>132.8</ele>
        <time>2021-08-10T10:35:11Z</time>
      </trkpt>
      <trkpt lat="48.55076" lon="4.65633">
        <ele>133.28</ele>
        <time>2021-08-10T10:35:12Z</time>
      </trkpt>
      <trkpt lat="48.55068" lon="4.65659">
        <ele>134.72</ele>
        <time>2021-08-10T10:35:18Z</time>
      </trkpt>
      <trkpt lat="48.55056" lon="4.65711">
        <ele>135.2</ele>
        <time>2021-08-10T10:35:28Z</time>
      </trkpt>
      <trkpt lat="48.55047" lon="4.65754">
        <ele>133.76</ele>
        <time>2021-08-10T10:35:34Z</time>
      </trkpt>
      <trkpt lat="48.55032" lon="4.65831">
        <ele>129.92</ele>
        <time>2021-08-10T10:35:42Z</time>
      </trkpt>
      <trkpt lat="48.55012" lon="4.65935">
        <ele>128.95</ele>
        <time>2021-08-10T10:35:52Z</time>
      </trkpt>
      <trkpt lat="48.54996" lon="4.66014">
        <ele>129.43</ele>
        <time>2021-08-10T10:36:01Z</time>
      </trkpt>
      <trkpt lat="48.54983" lon="4.66061">
        <ele>129.43</ele>
        <time>2021-08-10T10:36:07Z</time>
      </trkpt>
      <trkpt lat="48.5498" lon="4.66067">
        <ele>129.43</ele>
        <time>2021-08-10T10:36:08Z</time>
      </trkpt>
      <trkpt lat="48.54976" lon="4.66072">
        <ele>129.43</ele>
        <time>2021-08-10T10:36:09Z</time>
      </trkpt>
      <trkpt lat="48.54972" lon="4.66076">
        <ele>128.95</ele>
        <time>2021-08-10T10:36:10Z</time>
      </trkpt>
      <trkpt lat="48.54968" lon="4.66079">
        <ele>129.43</ele>
        <time>2021-08-10T10:36:11Z</time>
      </trkpt>
      <trkpt lat="48.54964" lon="4.66082">
        <ele>129.43</ele>
        <time>2021-08-10T10:36:12Z</time>
      </trkpt>
      <trkpt lat="48.54956" lon="4.66088">
        <ele>130.4</ele>
        <time>2021-08-10T10:36:14Z</time>
      </trkpt>
      <trkpt lat="48.54919" lon="4.66113">
        <ele>131.36</ele>
        <time>2021-08-10T10:36:24Z</time>
      </trkpt>
      <trkpt lat="48.54883" lon="4.66141">
        <ele>133.28</ele>
        <time>2021-08-10T10:36:35Z</time>
      </trkpt>
      <trkpt lat="48.54854" lon="4.66178">
        <ele>133.76</ele>
        <time>2021-08-10T10:36:45Z</time>
      </trkpt>
      <trkpt lat="48.54837" lon="4.66206">
        <ele>134.24</ele>
        <time>2021-08-10T10:36:52Z</time>
      </trkpt>
      <trkpt lat="48.54815" lon="4.66245">
        <ele>135.68</ele>
        <time>2021-08-10T10:37:03Z</time>
      </trkpt>
      <trkpt lat="48.54802" lon="4.66267">
        <ele>136.16</ele>
        <time>2021-08-10T10:37:10Z</time>
      </trkpt>
      <trkpt lat="48.54782" lon="4.66301">
        <ele>138.09</ele>
        <time>2021-08-10T10:37:20Z</time>
      </trkpt>
      <trkpt lat="48.54756" lon="4.66342">
        <ele>138.57</ele>
        <time>2021-08-10T10:37:30Z</time>
      </trkpt>
      <trkpt lat="48.54731" lon="4.66384">
        <ele>139.05</ele>
        <time>2021-08-10T10:37:39Z</time>
      </trkpt>
      <trkpt lat="48.54704" lon="4.66429">
        <ele>139.05</ele>
        <time>2021-08-10T10:37:48Z</time>
      </trkpt>
      <trkpt lat="48.54663" lon="4.66499">
        <ele>139.05</ele>
        <time>2021-08-10T10:38:02Z</time>
      </trkpt>
      <trkpt lat="48.54631" lon="4.66553">
        <ele>139.05</ele>
        <time>2021-08-10T10:38:13Z</time>
      </trkpt>
      <trkpt lat="48.54597" lon="4.66607">
        <ele>139.05</ele>
        <time>2021-08-10T10:38:24Z</time>
      </trkpt>
      <trkpt lat="48.54558" lon="4.6666">
        <ele>139.05</ele>
        <time>2021-08-10T10:38:35Z</time>
      </trkpt>
      <trkpt lat="48.54529" lon="4.66699">
        <ele>137.61</ele>
        <time>2021-08-10T10:38:43Z</time>
      </trkpt>
      <trkpt lat="48.54495" lon="4.66744">
        <ele>135.68</ele>
        <time>2021-08-10T10:38:51Z</time>
      </trkpt>
      <trkpt lat="48.54445" lon="4.66811">
        <ele>134.24</ele>
        <time>2021-08-10T10:39:01Z</time>
      </trkpt>
      <trkpt lat="48.54399" lon="4.66871">
        <ele>132.32</ele>
        <time>2021-08-10T10:39:10Z</time>
      </trkpt>
      <trkpt lat="48.54364" lon="4.6692">
        <ele>132.8</ele>
        <time>2021-08-10T10:39:18Z</time>
      </trkpt>
      <trkpt lat="48.54349" lon="4.6694">
        <ele>133.76</ele>
        <time>2021-08-10T10:39:22Z</time>
      </trkpt>
      <trkpt lat="48.54329" lon="4.66966">
        <ele>135.68</ele>
        <time>2021-08-10T10:39:29Z</time>
      </trkpt>
      <trkpt lat="48.54308" lon="4.66992">
        <ele>137.61</ele>
        <time>2021-08-10T10:39:38Z</time>
      </trkpt>
      <trkpt lat="48.54291" lon="4.67016">
        <ele>137.61</ele>
        <time>2021-08-10T10:39:45Z</time>
      </trkpt>
      <trkpt lat="48.5427" lon="4.67044">
        <ele>138.09</ele>
        <time>2021-08-10T10:39:53Z</time>
      </trkpt>
      <trkpt lat="48.54241" lon="4.67081">
        <ele>138.57</ele>
        <time>2021-08-10T10:40:03Z</time>
      </trkpt>
      <trkpt lat="48.5423" lon="4.67097">
        <ele>139.05</ele>
        <time>2021-08-10T10:40:07Z</time>
      </trkpt>
      <trkpt lat="48.54227" lon="4.67101">
        <ele>139.05</ele>
        <time>2021-08-10T10:40:08Z</time>
      </trkpt>
      <trkpt lat="48.54225" lon="4.67106">
        <ele>139.05</ele>
        <time>2021-08-10T10:40:09Z</time>
      </trkpt>
      <trkpt lat="48.54222" lon="4.67112">
        <ele>139.05</ele>
        <time>2021-08-10T10:40:10Z</time>
      </trkpt>
      <trkpt lat="48.5422" lon="4.67117">
        <ele>139.05</ele>
        <time>2021-08-10T10:40:11Z</time>
      </trkpt>
      <trkpt lat="48.54197" lon="4.67161">
        <ele>137.61</ele>
        <time>2021-08-10T10:40:19Z</time>
      </trkpt>
      <trkpt lat="48.54163" lon="4.67233">
        <ele>137.13</ele>
        <time>2021-08-10T10:40:30Z</time>
      </trkpt>
      <trkpt lat="48.54135" lon="4.67291">
        <ele>137.13</ele>
        <time>2021-08-10T10:40:39Z</time>
      </trkpt>
      <trkpt lat="48.54105" lon="4.67354">
        <ele>135.68</ele>
        <time>2021-08-10T10:40:48Z</time>
      </trkpt>
      <trkpt lat="48.54084" lon="4.67396">
        <ele>135.68</ele>
        <time>2021-08-10T10:40:55Z</time>
      </trkpt>
      <trkpt lat="48.54055" lon="4.67454">
        <ele>135.68</ele>
        <time>2021-08-10T10:41:05Z</time>
      </trkpt>
      <trkpt lat="48.54042" lon="4.67482">
        <ele>135.2</ele>
        <time>2021-08-10T10:41:10Z</time>
      </trkpt>
      <trkpt lat="48.54036" lon="4.67496">
        <ele>135.2</ele>
        <time>2021-08-10T10:41:13Z</time>
      </trkpt>
      <trkpt lat="48.54029" lon="4.67496">
        <ele>135.2</ele>
        <time>2021-08-10T10:41:15Z</time>
      </trkpt>
      <trkpt lat="48.54026" lon="4.67494">
        <ele>135.2</ele>
        <time>2021-08-10T10:41:16Z</time>
      </trkpt>
      <trkpt lat="48.54022" lon="4.67492">
        <ele>135.2</ele>
        <time>2021-08-10T10:41:17Z</time>
      </trkpt>
      <trkpt lat="48.53981" lon="4.67468">
        <ele>133.28</ele>
        <time>2021-08-10T10:41:27Z</time>
      </trkpt>
      <trkpt lat="48.53945" lon="4.6745">
        <ele>129.92</ele>
        <time>2021-08-10T10:41:33Z</time>
      </trkpt>
      <trkpt lat="48.53932" lon="4.67443">
        <ele>128.47</ele>
        <time>2021-08-10T10:41:35Z</time>
      </trkpt>
      <trkpt lat="48.53856" lon="4.67401">
        <ele>125.59</ele>
        <time>2021-08-10T10:41:47Z</time>
      </trkpt>
      <trkpt lat="48.53825" lon="4.67384">
        <ele>125.11</ele>
        <time>2021-08-10T10:41:53Z</time>
      </trkpt>
      <trkpt lat="48.53813" lon="4.67372">
        <ele>125.11</ele>
        <time>2021-08-10T10:41:58Z</time>
      </trkpt>
      <trkpt lat="48.5381" lon="4.67369">
        <ele>125.11</ele>
        <time>2021-08-10T10:42:01Z</time>
      </trkpt>
      <trkpt lat="48.53801" lon="4.67365">
        <ele>125.11</ele>
        <time>2021-08-10T10:42:06Z</time>
      </trkpt>
      <trkpt lat="48.53797" lon="4.67361">
        <ele>125.11</ele>
        <time>2021-08-10T10:42:09Z</time>
      </trkpt>
      <trkpt lat="48.53789" lon="4.6736">
        <ele>125.11</ele>
        <time>2021-08-10T10:42:15Z</time>
      </trkpt>
      <trkpt lat="48.53778" lon="4.6736">
        <ele>125.11</ele>
        <time>2021-08-10T10:42:20Z</time>
      </trkpt>
      <trkpt lat="48.53773" lon="4.67345">
        <ele>125.11</ele>
        <time>2021-08-10T10:42:25Z</time>
      </trkpt>
      <trkpt lat="48.53779" lon="4.67332">
        <ele>125.11</ele>
        <time>2021-08-10T10:42:29Z</time>
      </trkpt>
      <trkpt lat="48.53779" lon="4.67315">
        <ele>125.11</ele>
        <time>2021-08-10T10:42:34Z</time>
      </trkpt>
      <trkpt lat="48.53787" lon="4.6728">
        <ele>125.11</ele>
        <time>2021-08-10T10:42:42Z</time>
      </trkpt>
      <trkpt lat="48.53797" lon="4.67239">
        <ele>125.11</ele>
        <time>2021-08-10T10:42:51Z</time>
      </trkpt>
      <trkpt lat="48.53804" lon="4.67205">
        <ele>125.11</ele>
        <time>2021-08-10T10:42:59Z</time>
      </trkpt>
      <trkpt lat="48.53807" lon="4.67161">
        <ele>125.11</ele>
        <time>2021-08-10T10:43:09Z</time>
      </trkpt>
      <trkpt lat="48.53802" lon="4.67118">
        <ele>125.11</ele>
        <time>2021-08-10T10:43:19Z</time>
      </trkpt>
      <trkpt lat="48.53796" lon="4.67076">
        <ele>125.11</ele>
        <time>2021-08-10T10:43:28Z</time>
      </trkpt>
      <trkpt lat="48.53792" lon="4.67045">
        <ele>125.11</ele>
        <time>2021-08-10T10:43:35Z</time>
      </trkpt>
      <trkpt lat="48.53786" lon="4.67039">
        <ele>125.11</ele>
        <time>2021-08-10T10:43:40Z</time>
      </trkpt>
      <trkpt lat="48.53772" lon="4.67037">
        <ele>125.11</ele>
        <time>2021-08-10T10:43:46Z</time>
      </trkpt>
      <trkpt lat="48.53745" lon="4.67033">
        <ele>125.11</ele>
        <time>2021-08-10T10:43:56Z</time>
      </trkpt>
      <trkpt lat="48.53725" lon="4.67029">
        <ele>125.11</ele>
        <time>2021-08-10T10:44:05Z</time>
      </trkpt>
      <trkpt lat="48.53708" lon="4.67025">
        <ele>127.03</ele>
        <time>2021-08-10T10:44:14Z</time>
      </trkpt>
      <trkpt lat="48.5369" lon="4.67022">
        <ele>126.55</ele>
        <time>2021-08-10T10:44:23Z</time>
      </trkpt>
      <trkpt lat="48.53668" lon="4.67018">
        <ele>127.51</ele>
        <time>2021-08-10T10:44:33Z</time>
      </trkpt>
      <trkpt lat="48.53645" lon="4.67013">
        <ele>127.99</ele>
        <time>2021-08-10T10:44:44Z</time>
      </trkpt>
      <trkpt lat="48.53629" lon="4.6701">
        <ele>128.47</ele>
        <time>2021-08-10T10:44:52Z</time>
      </trkpt>
      <trkpt lat="48.53606" lon="4.67005">
        <ele>129.43</ele>
        <time>2021-08-10T10:45:03Z</time>
      </trkpt>
      <trkpt lat="48.53589" lon="4.67003">
        <ele>129.92</ele>
        <time>2021-08-10T10:45:11Z</time>
      </trkpt>
      <trkpt lat="48.53571" lon="4.66999">
        <ele>130.4</ele>
        <time>2021-08-10T10:45:19Z</time>
      </trkpt>
      <trkpt lat="48.53552" lon="4.66995">
        <ele>130.88</ele>
        <time>2021-08-10T10:45:28Z</time>
      </trkpt>
      <trkpt lat="48.53525" lon="4.66989">
        <ele>131.36</ele>
        <time>2021-08-10T10:45:41Z</time>
      </trkpt>
      <trkpt lat="48.53503" lon="4.66985">
        <ele>131.84</ele>
        <time>2021-08-10T10:45:51Z</time>
      </trkpt>
      <trkpt lat="48.53485" lon="4.66981">
        <ele>132.32</ele>
        <time>2021-08-10T10:46:00Z</time>
      </trkpt>
      <trkpt lat="48.53466" lon="4.66977">
        <ele>132.8</ele>
        <time>2021-08-10T10:46:08Z</time>
      </trkpt>
      <trkpt lat="48.53448" lon="4.66975">
        <ele>133.28</ele>
        <time>2021-08-10T10:46:16Z</time>
      </trkpt>
      <trkpt lat="48.53424" lon="4.66971">
        <ele>133.28</ele>
        <time>2021-08-10T10:46:25Z</time>
      </trkpt>
      <trkpt lat="48.53397" lon="4.66964">
        <ele>133.28</ele>
        <time>2021-08-10T10:46:35Z</time>
      </trkpt>
      <trkpt lat="48.5337" lon="4.6696">
        <ele>133.28</ele>
        <time>2021-08-10T10:46:44Z</time>
      </trkpt>
      <trkpt lat="48.53321" lon="4.6695">
        <ele>131.84</ele>
        <time>2021-08-10T10:46:57Z</time>
      </trkpt>
      <trkpt lat="48.53293" lon="4.66944">
        <ele>131.84</ele>
        <time>2021-08-10T10:47:05Z</time>
      </trkpt>
      <trkpt lat="48.53272" lon="4.6694">
        <ele>131.84</ele>
        <time>2021-08-10T10:47:11Z</time>
      </trkpt>
      <trkpt lat="48.53243" lon="4.66935">
        <ele>131.36</ele>
        <time>2021-08-10T10:47:19Z</time>
      </trkpt>
      <trkpt lat="48.532" lon="4.66926">
        <ele>131.36</ele>
        <time>2021-08-10T10:47:31Z</time>
      </trkpt>
      <trkpt lat="48.53178" lon="4.66917">
        <ele>131.36</ele>
        <time>2021-08-10T10:47:38Z</time>
      </trkpt>
      <trkpt lat="48.5316" lon="4.66884">
        <ele>131.36</ele>
        <time>2021-08-10T10:47:45Z</time>
      </trkpt>
      <trkpt lat="48.53132" lon="4.66831">
        <ele>131.36</ele>
        <time>2021-08-10T10:47:56Z</time>
      </trkpt>
      <trkpt lat="48.53107" lon="4.66784">
        <ele>132.8</ele>
        <time>2021-08-10T10:48:06Z</time>
      </trkpt>
      <trkpt lat="48.53076" lon="4.66726">
        <ele>133.76</ele>
        <time>2021-08-10T10:48:18Z</time>
      </trkpt>
      <trkpt lat="48.5305" lon="4.66678">
        <ele>132.32</ele>
        <time>2021-08-10T10:48:27Z</time>
      </trkpt>
      <trkpt lat="48.53017" lon="4.66615">
        <ele>129.92</ele>
        <time>2021-08-10T10:48:37Z</time>
      </trkpt>
      <trkpt lat="48.52986" lon="4.66555">
        <ele>129.43</ele>
        <time>2021-08-10T10:48:47Z</time>
      </trkpt>
      <trkpt lat="48.52947" lon="4.6648">
        <ele>128.95</ele>
        <time>2021-08-10T10:48:59Z</time>
      </trkpt>
      <trkpt lat="48.52916" lon="4.66422">
        <ele>128.95</ele>
        <time>2021-08-10T10:49:09Z</time>
      </trkpt>
      <trkpt lat="48.52891" lon="4.66361">
        <ele>128.47</ele>
        <time>2021-08-10T10:49:19Z</time>
      </trkpt>
      <trkpt lat="48.52864" lon="4.66284">
        <ele>127.51</ele>
        <time>2021-08-10T10:49:30Z</time>
      </trkpt>
      <trkpt lat="48.52842" lon="4.6622">
        <ele>127.03</ele>
        <time>2021-08-10T10:49:40Z</time>
      </trkpt>
      <trkpt lat="48.52814" lon="4.66148">
        <ele>127.03</ele>
        <time>2021-08-10T10:49:51Z</time>
      </trkpt>
      <trkpt lat="48.52784" lon="4.66099">
        <ele>126.55</ele>
        <time>2021-08-10T10:50:00Z</time>
      </trkpt>
      <trkpt lat="48.52769" lon="4.6608">
        <ele>126.55</ele>
        <time>2021-08-10T10:50:04Z</time>
      </trkpt>
      <trkpt lat="48.52766" lon="4.66075">
        <ele>126.55</ele>
        <time>2021-08-10T10:50:05Z</time>
      </trkpt>
      <trkpt lat="48.52763" lon="4.6607">
        <ele>126.55</ele>
        <time>2021-08-10T10:50:06Z</time>
      </trkpt>
      <trkpt lat="48.52739" lon="4.66043">
        <ele>126.07</ele>
        <time>2021-08-10T10:50:12Z</time>
      </trkpt>
      <trkpt lat="48.52701" lon="4.65985">
        <ele>124.63</ele>
        <time>2021-08-10T10:50:22Z</time>
      </trkpt>
      <trkpt lat="48.52682" lon="4.65928">
        <ele>124.63</ele>
        <time>2021-08-10T10:50:30Z</time>
      </trkpt>
      <trkpt lat="48.52663" lon="4.65848">
        <ele>124.63</ele>
        <time>2021-08-10T10:50:40Z</time>
      </trkpt>
      <trkpt lat="48.52648" lon="4.65787">
        <ele>124.15</ele>
        <time>2021-08-10T10:50:48Z</time>
      </trkpt>
      <trkpt lat="48.52633" lon="4.65743">
        <ele>124.15</ele>
        <time>2021-08-10T10:50:54Z</time>
      </trkpt>
      <trkpt lat="48.52608" lon="4.65691">
        <ele>124.15</ele>
        <time>2021-08-10T10:51:02Z</time>
      </trkpt>
      <trkpt lat="48.52584" lon="4.65653">
        <ele>124.15</ele>
        <time>2021-08-10T10:51:09Z</time>
      </trkpt>
      <trkpt lat="48.52579" lon="4.65649">
        <ele>124.15</ele>
        <time>2021-08-10T10:51:10Z</time>
      </trkpt>
      <trkpt lat="48.52569" lon="4.65644">
        <ele>124.15</ele>
        <time>2021-08-10T10:51:12Z</time>
      </trkpt>
      <trkpt lat="48.52564" lon="4.65642">
        <ele>124.15</ele>
        <time>2021-08-10T10:51:13Z</time>
      </trkpt>
      <trkpt lat="48.52559" lon="4.65641">
        <ele>124.15</ele>
        <time>2021-08-10T10:51:14Z</time>
      </trkpt>
      <trkpt lat="48.52525" lon="4.65631">
        <ele>125.59</ele>
        <time>2021-08-10T10:51:22Z</time>
      </trkpt>
      <trkpt lat="48.52485" lon="4.65604">
        <ele>126.55</ele>
        <time>2021-08-10T10:51:32Z</time>
      </trkpt>
      <trkpt lat="48.52467" lon="4.65589">
        <ele>126.55</ele>
        <time>2021-08-10T10:51:37Z</time>
      </trkpt>
      <trkpt lat="48.52427" lon="4.6556">
        <ele>127.03</ele>
        <time>2021-08-10T10:51:47Z</time>
      </trkpt>
      <trkpt lat="48.52423" lon="4.65557">
        <ele>127.03</ele>
        <time>2021-08-10T10:51:48Z</time>
      </trkpt>
      <trkpt lat="48.52419" lon="4.65554">
        <ele>127.03</ele>
        <time>2021-08-10T10:51:49Z</time>
      </trkpt>
      <trkpt lat="48.52375" lon="4.65518">
        <ele>127.03</ele>
        <time>2021-08-10T10:52:00Z</time>
      </trkpt>
      <trkpt lat="48.52367" lon="4.65512">
        <ele>127.03</ele>
        <time>2021-08-10T10:52:02Z</time>
      </trkpt>
      <trkpt lat="48.52359" lon="4.65504">
        <ele>127.51</ele>
        <time>2021-08-10T10:52:04Z</time>
      </trkpt>
      <trkpt lat="48.5232" lon="4.65476">
        <ele>128.47</ele>
        <time>2021-08-10T10:52:14Z</time>
      </trkpt>
      <trkpt lat="48.52317" lon="4.65474">
        <ele>128.47</ele>
        <time>2021-08-10T10:52:15Z</time>
      </trkpt>
      <trkpt lat="48.52298" lon="4.65462">
        <ele>129.43</ele>
        <time>2021-08-10T10:52:20Z</time>
      </trkpt>
      <trkpt lat="48.52294" lon="4.6546">
        <ele>129.43</ele>
        <time>2021-08-10T10:52:21Z</time>
      </trkpt>
      <trkpt lat="48.5229" lon="4.65458">
        <ele>129.43</ele>
        <time>2021-08-10T10:52:22Z</time>
      </trkpt>
      <trkpt lat="48.52286" lon="4.65457">
        <ele>129.43</ele>
        <time>2021-08-10T10:52:23Z</time>
      </trkpt>
      <trkpt lat="48.52282" lon="4.65456">
        <ele>129.43</ele>
        <time>2021-08-10T10:52:24Z</time>
      </trkpt>
      <trkpt lat="48.52248" lon="4.65446">
        <ele>129.43</ele>
        <time>2021-08-10T10:52:32Z</time>
      </trkpt>
      <trkpt lat="48.52244" lon="4.65445">
        <ele>129.43</ele>
        <time>2021-08-10T10:52:33Z</time>
      </trkpt>
      <trkpt lat="48.5224" lon="4.65442">
        <ele>129.43</ele>
        <time>2021-08-10T10:52:34Z</time>
      </trkpt>
      <trkpt lat="48.52209" lon="4.65426">
        <ele>129.43</ele>
        <time>2021-08-10T10:52:41Z</time>
      </trkpt>
      <trkpt lat="48.52204" lon="4.65426">
        <ele>129.43</ele>
        <time>2021-08-10T10:52:42Z</time>
      </trkpt>
      <trkpt lat="48.52162" lon="4.65426">
        <ele>129.43</ele>
        <time>2021-08-10T10:52:50Z</time>
      </trkpt>
      <trkpt lat="48.52109" lon="4.65429">
        <ele>128.47</ele>
        <time>2021-08-10T10:53:00Z</time>
      </trkpt>
      <trkpt lat="48.52061" lon="4.65431">
        <ele>128.47</ele>
        <time>2021-08-10T10:53:09Z</time>
      </trkpt>
      <trkpt lat="48.52009" lon="4.65432">
        <ele>128.47</ele>
        <time>2021-08-10T10:53:19Z</time>
      </trkpt>
      <trkpt lat="48.52004" lon="4.65433">
        <ele>128.47</ele>
        <time>2021-08-10T10:53:20Z</time>
      </trkpt>
      <trkpt lat="48.51999" lon="4.65433">
        <ele>128.47</ele>
        <time>2021-08-10T10:53:21Z</time>
      </trkpt>
      <trkpt lat="48.51957" lon="4.65435">
        <ele>128.47</ele>
        <time>2021-08-10T10:53:29Z</time>
      </trkpt>
      <trkpt lat="48.51922" lon="4.65436">
        <ele>129.43</ele>
        <time>2021-08-10T10:53:36Z</time>
      </trkpt>
      <trkpt lat="48.51907" lon="4.65435">
        <ele>129.43</ele>
        <time>2021-08-10T10:53:39Z</time>
      </trkpt>
      <trkpt lat="48.51902" lon="4.65434">
        <ele>129.43</ele>
        <time>2021-08-10T10:53:40Z</time>
      </trkpt>
      <trkpt lat="48.51878" lon="4.65425">
        <ele>130.4</ele>
        <time>2021-08-10T10:53:45Z</time>
      </trkpt>
      <trkpt lat="48.51866" lon="4.65416">
        <ele>130.4</ele>
        <time>2021-08-10T10:53:48Z</time>
      </trkpt>
      <trkpt lat="48.51859" lon="4.65407">
        <ele>130.88</ele>
        <time>2021-08-10T10:53:50Z</time>
      </trkpt>
      <trkpt lat="48.51841" lon="4.65376">
        <ele>131.36</ele>
        <time>2021-08-10T10:53:56Z</time>
      </trkpt>
      <trkpt lat="48.51813" lon="4.65304">
        <ele>131.36</ele>
        <time>2021-08-10T10:54:07Z</time>
      </trkpt>
      <trkpt lat="48.51789" lon="4.65242">
        <ele>131.84</ele>
        <time>2021-08-10T10:54:16Z</time>
      </trkpt>
      <trkpt lat="48.51761" lon="4.65168">
        <ele>131.84</ele>
        <time>2021-08-10T10:54:26Z</time>
      </trkpt>
      <trkpt lat="48.51752" lon="4.65146">
        <ele>132.32</ele>
        <time>2021-08-10T10:54:29Z</time>
      </trkpt>
      <trkpt lat="48.51739" lon="4.65108">
        <ele>132.8</ele>
        <time>2021-08-10T10:54:34Z</time>
      </trkpt>
      <trkpt lat="48.51736" lon="4.65101">
        <ele>132.8</ele>
        <time>2021-08-10T10:54:35Z</time>
      </trkpt>
      <trkpt lat="48.5173" lon="4.65089">
        <ele>132.8</ele>
        <time>2021-08-10T10:54:37Z</time>
      </trkpt>
      <trkpt lat="48.51727" lon="4.65082">
        <ele>132.8</ele>
        <time>2021-08-10T10:54:38Z</time>
      </trkpt>
      <trkpt lat="48.51725" lon="4.65074">
        <ele>132.8</ele>
        <time>2021-08-10T10:54:39Z</time>
      </trkpt>
      <trkpt lat="48.51723" lon="4.65067">
        <ele>132.8</ele>
        <time>2021-08-10T10:54:40Z</time>
      </trkpt>
      <trkpt lat="48.51721" lon="4.6506">
        <ele>133.28</ele>
        <time>2021-08-10T10:54:41Z</time>
      </trkpt>
      <trkpt lat="48.51716" lon="4.65046">
        <ele>133.28</ele>
        <time>2021-08-10T10:54:43Z</time>
      </trkpt>
      <trkpt lat="48.51701" lon="4.65007">
        <ele>133.76</ele>
        <time>2021-08-10T10:54:49Z</time>
      </trkpt>
      <trkpt lat="48.51674" lon="4.64935">
        <ele>133.76</ele>
        <time>2021-08-10T10:54:59Z</time>
      </trkpt>
      <trkpt lat="48.51662" lon="4.64906">
        <ele>134.24</ele>
        <time>2021-08-10T10:55:03Z</time>
      </trkpt>
      <trkpt lat="48.51648" lon="4.64871">
        <ele>134.24</ele>
        <time>2021-08-10T10:55:08Z</time>
      </trkpt>
      <trkpt lat="48.51633" lon="4.64836">
        <ele>134.24</ele>
        <time>2021-08-10T10:55:13Z</time>
      </trkpt>
      <trkpt lat="48.5163" lon="4.64829">
        <ele>134.72</ele>
        <time>2021-08-10T10:55:14Z</time>
      </trkpt>
      <trkpt lat="48.51628" lon="4.64821">
        <ele>134.72</ele>
        <time>2021-08-10T10:55:15Z</time>
      </trkpt>
      <trkpt lat="48.51611" lon="4.64769">
        <ele>134.72</ele>
        <time>2021-08-10T10:55:22Z</time>
      </trkpt>
      <trkpt lat="48.51608" lon="4.64762">
        <ele>134.72</ele>
        <time>2021-08-10T10:55:23Z</time>
      </trkpt>
      <trkpt lat="48.51584" lon="4.64705">
        <ele>134.72</ele>
        <time>2021-08-10T10:55:32Z</time>
      </trkpt>
      <trkpt lat="48.51563" lon="4.64651">
        <ele>135.2</ele>
        <time>2021-08-10T10:55:40Z</time>
      </trkpt>
      <trkpt lat="48.51553" lon="4.64624">
        <ele>135.2</ele>
        <time>2021-08-10T10:55:44Z</time>
      </trkpt>
      <trkpt lat="48.5155" lon="4.64618">
        <ele>135.2</ele>
        <time>2021-08-10T10:55:45Z</time>
      </trkpt>
      <trkpt lat="48.51541" lon="4.64592">
        <ele>135.68</ele>
        <time>2021-08-10T10:55:49Z</time>
      </trkpt>
      <trkpt lat="48.5154" lon="4.64585">
        <ele>135.68</ele>
        <time>2021-08-10T10:55:50Z</time>
      </trkpt>
      <trkpt lat="48.51537" lon="4.64578">
        <ele>135.68</ele>
        <time>2021-08-10T10:55:51Z</time>
      </trkpt>
      <trkpt lat="48.51524" lon="4.6455">
        <ele>135.68</ele>
        <time>2021-08-10T10:55:56Z</time>
      </trkpt>
      <trkpt lat="48.51521" lon="4.64544">
        <ele>135.68</ele>
        <time>2021-08-10T10:55:57Z</time>
      </trkpt>
      <trkpt lat="48.51517" lon="4.64532">
        <ele>136.16</ele>
        <time>2021-08-10T10:55:59Z</time>
      </trkpt>
      <trkpt lat="48.51514" lon="4.64526">
        <ele>136.16</ele>
        <time>2021-08-10T10:56:00Z</time>
      </trkpt>
      <trkpt lat="48.51497" lon="4.64481">
        <ele>136.16</ele>
        <time>2021-08-10T10:56:07Z</time>
      </trkpt>
      <trkpt lat="48.51478" lon="4.64432">
        <ele>136.16</ele>
        <time>2021-08-10T10:56:15Z</time>
      </trkpt>
      <trkpt lat="48.51472" lon="4.64413">
        <ele>136.16</ele>
        <time>2021-08-10T10:56:18Z</time>
      </trkpt>
      <trkpt lat="48.5147" lon="4.64406">
        <ele>136.16</ele>
        <time>2021-08-10T10:56:19Z</time>
      </trkpt>
      <trkpt lat="48.51468" lon="4.644">
        <ele>136.16</ele>
        <time>2021-08-10T10:56:20Z</time>
      </trkpt>
      <trkpt lat="48.51466" lon="4.64394">
        <ele>136.16</ele>
        <time>2021-08-10T10:56:21Z</time>
      </trkpt>
      <trkpt lat="48.51464" lon="4.64388">
        <ele>136.16</ele>
        <time>2021-08-10T10:56:22Z</time>
      </trkpt>
      <trkpt lat="48.51456" lon="4.64362">
        <ele>136.16</ele>
        <time>2021-08-10T10:56:26Z</time>
      </trkpt>
      <trkpt lat="48.51454" lon="4.64355">
        <ele>136.16</ele>
        <time>2021-08-10T10:56:27Z</time>
      </trkpt>
      <trkpt lat="48.51451" lon="4.64348">
        <ele>136.16</ele>
        <time>2021-08-10T10:56:28Z</time>
      </trkpt>
      <trkpt lat="48.51445" lon="4.64334">
        <ele>136.16</ele>
        <time>2021-08-10T10:56:30Z</time>
      </trkpt>
      <trkpt lat="48.51427" lon="4.64283">
        <ele>136.16</ele>
        <time>2021-08-10T10:56:37Z</time>
      </trkpt>
      <trkpt lat="48.51421" lon="4.64269">
        <ele>134.72</ele>
        <time>2021-08-10T10:56:39Z</time>
      </trkpt>
      <trkpt lat="48.51409" lon="4.64238">
        <ele>134.24</ele>
        <time>2021-08-10T10:56:43Z</time>
      </trkpt>
      <trkpt lat="48.51407" lon="4.64231">
        <ele>134.72</ele>
        <time>2021-08-10T10:56:44Z</time>
      </trkpt>
      <trkpt lat="48.51382" lon="4.64165">
        <ele>134.24</ele>
        <time>2021-08-10T10:56:52Z</time>
      </trkpt>
      <trkpt lat="48.51357" lon="4.641">
        <ele>134.24</ele>
        <time>2021-08-10T10:57:00Z</time>
      </trkpt>
      <trkpt lat="48.51322" lon="4.6401">
        <ele>134.24</ele>
        <time>2021-08-10T10:57:11Z</time>
      </trkpt>
      <trkpt lat="48.51292" lon="4.63929">
        <ele>134.24</ele>
        <time>2021-08-10T10:57:21Z</time>
      </trkpt>
      <trkpt lat="48.51268" lon="4.63867">
        <ele>135.68</ele>
        <time>2021-08-10T10:57:29Z</time>
      </trkpt>
      <trkpt lat="48.51247" lon="4.63809">
        <ele>135.68</ele>
        <time>2021-08-10T10:57:37Z</time>
      </trkpt>
      <trkpt lat="48.51239" lon="4.63788">
        <ele>136.16</ele>
        <time>2021-08-10T10:57:40Z</time>
      </trkpt>
      <trkpt lat="48.51216" lon="4.63732">
        <ele>137.13</ele>
        <time>2021-08-10T10:57:48Z</time>
      </trkpt>
      <trkpt lat="48.51213" lon="4.63725">
        <ele>137.13</ele>
        <time>2021-08-10T10:57:49Z</time>
      </trkpt>
      <trkpt lat="48.5119" lon="4.63664">
        <ele>137.13</ele>
        <time>2021-08-10T10:57:58Z</time>
      </trkpt>
      <trkpt lat="48.51166" lon="4.63605">
        <ele>137.61</ele>
        <time>2021-08-10T10:58:07Z</time>
      </trkpt>
      <trkpt lat="48.51136" lon="4.63554">
        <ele>138.09</ele>
        <time>2021-08-10T10:58:16Z</time>
      </trkpt>
      <trkpt lat="48.51095" lon="4.635">
        <ele>138.57</ele>
        <time>2021-08-10T10:58:26Z</time>
      </trkpt>
      <trkpt lat="48.51071" lon="4.6347">
        <ele>138.57</ele>
        <time>2021-08-10T10:58:32Z</time>
      </trkpt>
      <trkpt lat="48.51043" lon="4.63434">
        <ele>138.57</ele>
        <time>2021-08-10T10:58:39Z</time>
      </trkpt>
      <trkpt lat="48.51007" lon="4.63385">
        <ele>139.05</ele>
        <time>2021-08-10T10:58:48Z</time>
      </trkpt>
      <trkpt lat="48.50999" lon="4.63375">
        <ele>139.05</ele>
        <time>2021-08-10T10:58:50Z</time>
      </trkpt>
      <trkpt lat="48.50968" lon="4.63332">
        <ele>140.01</ele>
        <time>2021-08-10T10:58:58Z</time>
      </trkpt>
      <trkpt lat="48.5096" lon="4.63322">
        <ele>140.01</ele>
        <time>2021-08-10T10:59:00Z</time>
      </trkpt>
      <trkpt lat="48.50933" lon="4.63285">
        <ele>140.01</ele>
        <time>2021-08-10T10:59:07Z</time>
      </trkpt>
      <trkpt lat="48.50926" lon="4.63277">
        <ele>140.01</ele>
        <time>2021-08-10T10:59:09Z</time>
      </trkpt>
      <trkpt lat="48.50924" lon="4.63272">
        <ele>140.01</ele>
        <time>2021-08-10T10:59:10Z</time>
      </trkpt>
      <trkpt lat="48.50924" lon="4.63266">
        <ele>140.01</ele>
        <time>2021-08-10T10:59:11Z</time>
      </trkpt>
      <trkpt lat="48.50932" lon="4.63247">
        <ele>140.01</ele>
        <time>2021-08-10T10:59:15Z</time>
      </trkpt>
      <trkpt lat="48.50933" lon="4.63243">
        <ele>140.01</ele>
        <time>2021-08-10T10:59:16Z</time>
      </trkpt>
      <trkpt lat="48.50936" lon="4.63209">
        <ele>140.01</ele>
        <time>2021-08-10T10:59:23Z</time>
      </trkpt>
      <trkpt lat="48.50942" lon="4.63167">
        <ele>140.01</ele>
        <time>2021-08-10T10:59:30Z</time>
      </trkpt>
      <trkpt lat="48.50946" lon="4.63129">
        <ele>139.05</ele>
        <time>2021-08-10T10:59:35Z</time>
      </trkpt>
      <trkpt lat="48.50951" lon="4.63063">
        <ele>137.61</ele>
        <time>2021-08-10T10:59:44Z</time>
      </trkpt>
      <trkpt lat="48.50953" lon="4.63049">
        <ele>137.61</ele>
        <time>2021-08-10T10:59:46Z</time>
      </trkpt>
      <trkpt lat="48.50958" lon="4.6298">
        <ele>137.13</ele>
        <time>2021-08-10T10:59:56Z</time>
      </trkpt>
      <trkpt lat="48.5096" lon="4.62946">
        <ele>137.13</ele>
        <time>2021-08-10T11:00:02Z</time>
      </trkpt>
      <trkpt lat="48.5096" lon="4.62932">
        <ele>136.64</ele>
        <time>2021-08-10T11:00:04Z</time>
      </trkpt>
      <trkpt lat="48.50967" lon="4.62888">
        <ele>136.64</ele>
        <time>2021-08-10T11:00:11Z</time>
      </trkpt>
      <trkpt lat="48.50971" lon="4.6285">
        <ele>137.61</ele>
        <time>2021-08-10T11:00:19Z</time>
      </trkpt>
      <trkpt lat="48.50977" lon="4.62826">
        <ele>138.09</ele>
        <time>2021-08-10T11:00:26Z</time>
      </trkpt>
      <trkpt lat="48.50986" lon="4.62787">
        <ele>138.57</ele>
        <time>2021-08-10T11:00:34Z</time>
      </trkpt>
      <trkpt lat="48.50999" lon="4.62736">
        <ele>138.57</ele>
        <time>2021-08-10T11:00:44Z</time>
      </trkpt>
      <trkpt lat="48.51009" lon="4.62695">
        <ele>138.57</ele>
        <time>2021-08-10T11:00:53Z</time>
      </trkpt>
      <trkpt lat="48.51019" lon="4.6265">
        <ele>139.05</ele>
        <time>2021-08-10T11:01:02Z</time>
      </trkpt>
      <trkpt lat="48.51024" lon="4.62603">
        <ele>139.05</ele>
        <time>2021-08-10T11:01:10Z</time>
      </trkpt>
      <trkpt lat="48.51027" lon="4.62549">
        <ele>137.61</ele>
        <time>2021-08-10T11:01:19Z</time>
      </trkpt>
      <trkpt lat="48.51031" lon="4.6248">
        <ele>137.13</ele>
        <time>2021-08-10T11:01:30Z</time>
      </trkpt>
      <trkpt lat="48.51038" lon="4.62416">
        <ele>136.64</ele>
        <time>2021-08-10T11:01:40Z</time>
      </trkpt>
      <trkpt lat="48.51038" lon="4.62409">
        <ele>136.64</ele>
        <time>2021-08-10T11:01:41Z</time>
      </trkpt>
      <trkpt lat="48.51039" lon="4.62403">
        <ele>136.64</ele>
        <time>2021-08-10T11:01:42Z</time>
      </trkpt>
      <trkpt lat="48.51049" lon="4.62343">
        <ele>136.64</ele>
        <time>2021-08-10T11:01:51Z</time>
      </trkpt>
      <trkpt lat="48.51057" lon="4.62282">
        <ele>135.68</ele>
        <time>2021-08-10T11:02:00Z</time>
      </trkpt>
      <trkpt lat="48.51061" lon="4.62223">
        <ele>136.16</ele>
        <time>2021-08-10T11:02:09Z</time>
      </trkpt>
      <trkpt lat="48.51061" lon="4.6217">
        <ele>136.16</ele>
        <time>2021-08-10T11:02:17Z</time>
      </trkpt>
      <trkpt lat="48.51059" lon="4.62104">
        <ele>137.13</ele>
        <time>2021-08-10T11:02:27Z</time>
      </trkpt>
      <trkpt lat="48.51058" lon="4.62098">
        <ele>137.13</ele>
        <time>2021-08-10T11:02:28Z</time>
      </trkpt>
      <trkpt lat="48.51055" lon="4.62043">
        <ele>136.16</ele>
        <time>2021-08-10T11:02:37Z</time>
      </trkpt>
      <trkpt lat="48.51052" lon="4.61984">
        <ele>136.16</ele>
        <time>2021-08-10T11:02:47Z</time>
      </trkpt>
      <trkpt lat="48.51056" lon="4.61925">
        <ele>138.09</ele>
        <time>2021-08-10T11:02:57Z</time>
      </trkpt>
      <trkpt lat="48.51068" lon="4.61881">
        <ele>138.09</ele>
        <time>2021-08-10T11:03:05Z</time>
      </trkpt>
      <trkpt lat="48.51072" lon="4.6187">
        <ele>138.09</ele>
        <time>2021-08-10T11:03:07Z</time>
      </trkpt>
      <trkpt lat="48.51084" lon="4.61848">
        <ele>137.61</ele>
        <time>2021-08-10T11:03:11Z</time>
      </trkpt>
      <trkpt lat="48.51087" lon="4.61842">
        <ele>137.61</ele>
        <time>2021-08-10T11:03:12Z</time>
      </trkpt>
      <trkpt lat="48.51107" lon="4.6181">
        <ele>136.64</ele>
        <time>2021-08-10T11:03:18Z</time>
      </trkpt>
      <trkpt lat="48.5114" lon="4.61759">
        <ele>136.64</ele>
        <time>2021-08-10T11:03:27Z</time>
      </trkpt>
      <trkpt lat="48.51179" lon="4.61704">
        <ele>136.16</ele>
        <time>2021-08-10T11:03:37Z</time>
      </trkpt>
      <trkpt lat="48.51215" lon="4.61643">
        <ele>135.2</ele>
        <time>2021-08-10T11:03:46Z</time>
      </trkpt>
      <trkpt lat="48.51225" lon="4.6161">
        <ele>135.2</ele>
        <time>2021-08-10T11:03:50Z</time>
      </trkpt>
      <trkpt lat="48.51227" lon="4.61601">
        <ele>134.72</ele>
        <time>2021-08-10T11:03:51Z</time>
      </trkpt>
      <trkpt lat="48.5123" lon="4.6154">
        <ele>134.72</ele>
        <time>2021-08-10T11:03:58Z</time>
      </trkpt>
      <trkpt lat="48.51238" lon="4.6148">
        <ele>134.72</ele>
        <time>2021-08-10T11:04:06Z</time>
      </trkpt>
      <trkpt lat="48.5125" lon="4.61423">
        <ele>136.16</ele>
        <time>2021-08-10T11:04:15Z</time>
      </trkpt>
      <trkpt lat="48.51269" lon="4.61356">
        <ele>136.64</ele>
        <time>2021-08-10T11:04:27Z</time>
      </trkpt>
      <trkpt lat="48.51286" lon="4.61299">
        <ele>137.61</ele>
        <time>2021-08-10T11:04:38Z</time>
      </trkpt>
      <trkpt lat="48.51302" lon="4.61254">
        <ele>138.57</ele>
        <time>2021-08-10T11:04:47Z</time>
      </trkpt>
      <trkpt lat="48.51322" lon="4.61231">
        <ele>139.53</ele>
        <time>2021-08-10T11:04:54Z</time>
      </trkpt>
      <trkpt lat="48.51324" lon="4.61227">
        <ele>139.53</ele>
        <time>2021-08-10T11:04:55Z</time>
      </trkpt>
      <trkpt lat="48.51325" lon="4.61222">
        <ele>139.53</ele>
        <time>2021-08-10T11:04:56Z</time>
      </trkpt>
      <trkpt lat="48.51324" lon="4.61217">
        <ele>139.53</ele>
        <time>2021-08-10T11:04:57Z</time>
      </trkpt>
      <trkpt lat="48.51323" lon="4.61213">
        <ele>139.53</ele>
        <time>2021-08-10T11:04:58Z</time>
      </trkpt>
      <trkpt lat="48.51322" lon="4.61211">
        <ele>139.53</ele>
        <time>2021-08-10T11:04:59Z</time>
      </trkpt>
      <trkpt lat="48.51318" lon="4.61209">
        <ele>139.53</ele>
        <time>2021-08-10T11:05:00Z</time>
      </trkpt>
      <trkpt lat="48.51315" lon="4.61207">
        <ele>139.53</ele>
        <time>2021-08-10T11:05:01Z</time>
      </trkpt>
      <trkpt lat="48.51297" lon="4.61192">
        <ele>139.53</ele>
        <time>2021-08-10T11:05:07Z</time>
      </trkpt>
      <trkpt lat="48.51278" lon="4.61167">
        <ele>140.01</ele>
        <time>2021-08-10T11:05:14Z</time>
      </trkpt>
      <trkpt lat="48.51259" lon="4.61141">
        <ele>140.49</ele>
        <time>2021-08-10T11:05:21Z</time>
      </trkpt>
      <trkpt lat="48.5123" lon="4.61103">
        <ele>140.97</ele>
        <time>2021-08-10T11:05:31Z</time>
      </trkpt>
      <trkpt lat="48.51194" lon="4.61064">
        <ele>140.97</ele>
        <time>2021-08-10T11:05:41Z</time>
      </trkpt>
      <trkpt lat="48.51182" lon="4.61051">
        <ele>139.53</ele>
        <time>2021-08-10T11:05:44Z</time>
      </trkpt>
      <trkpt lat="48.51143" lon="4.61004">
        <ele>136.64</ele>
        <time>2021-08-10T11:05:53Z</time>
      </trkpt>
      <trkpt lat="48.51097" lon="4.60963">
        <ele>134.72</ele>
        <time>2021-08-10T11:06:01Z</time>
      </trkpt>
      <trkpt lat="48.51046" lon="4.60924">
        <ele>132.32</ele>
        <time>2021-08-10T11:06:09Z</time>
      </trkpt>
      <trkpt lat="48.51" lon="4.60883">
        <ele>131.36</ele>
        <time>2021-08-10T11:06:17Z</time>
      </trkpt>
      <trkpt lat="48.50963" lon="4.60841">
        <ele>130.4</ele>
        <time>2021-08-10T11:06:24Z</time>
      </trkpt>
      <trkpt lat="48.50923" lon="4.60799">
        <ele>129.43</ele>
        <time>2021-08-10T11:06:32Z</time>
      </trkpt>
      <trkpt lat="48.50917" lon="4.60796">
        <ele>129.43</ele>
        <time>2021-08-10T11:06:33Z</time>
      </trkpt>
      <trkpt lat="48.50912" lon="4.60794">
        <ele>129.43</ele>
        <time>2021-08-10T11:06:34Z</time>
      </trkpt>
      <trkpt lat="48.50906" lon="4.60793">
        <ele>129.43</ele>
        <time>2021-08-10T11:06:35Z</time>
      </trkpt>
      <trkpt lat="48.50887" lon="4.60794">
        <ele>127.99</ele>
        <time>2021-08-10T11:06:38Z</time>
      </trkpt>
      <trkpt lat="48.50863" lon="4.60789">
        <ele>127.51</ele>
        <time>2021-08-10T11:06:42Z</time>
      </trkpt>
      <trkpt lat="48.50857" lon="4.60786">
        <ele>127.51</ele>
        <time>2021-08-10T11:06:43Z</time>
      </trkpt>
      <trkpt lat="48.50851" lon="4.60783">
        <ele>127.51</ele>
        <time>2021-08-10T11:06:44Z</time>
      </trkpt>
      <trkpt lat="48.50805" lon="4.60746">
        <ele>126.55</ele>
        <time>2021-08-10T11:06:53Z</time>
      </trkpt>
      <trkpt lat="48.50797" lon="4.60736">
        <ele>126.55</ele>
        <time>2021-08-10T11:06:55Z</time>
      </trkpt>
      <trkpt lat="48.50778" lon="4.60712">
        <ele>127.51</ele>
        <time>2021-08-10T11:07:00Z</time>
      </trkpt>
      <trkpt lat="48.50743" lon="4.60688">
        <ele>127.99</ele>
        <time>2021-08-10T11:07:08Z</time>
      </trkpt>
      <trkpt lat="48.507" lon="4.60675">
        <ele>127.99</ele>
        <time>2021-08-10T11:07:17Z</time>
      </trkpt>
      <trkpt lat="48.50674" lon="4.60677">
        <ele>126.55</ele>
        <time>2021-08-10T11:07:22Z</time>
      </trkpt>
      <trkpt lat="48.50629" lon="4.60684">
        <ele>126.07</ele>
        <time>2021-08-10T11:07:31Z</time>
      </trkpt>
      <trkpt lat="48.50588" lon="4.60687">
        <ele>126.07</ele>
        <time>2021-08-10T11:07:39Z</time>
      </trkpt>
      <trkpt lat="48.50549" lon="4.60689">
        <ele>126.07</ele>
        <time>2021-08-10T11:07:47Z</time>
      </trkpt>
      <trkpt lat="48.5054" lon="4.60689">
        <ele>126.07</ele>
        <time>2021-08-10T11:07:49Z</time>
      </trkpt>
      <trkpt lat="48.50535" lon="4.6069">
        <ele>126.07</ele>
        <time>2021-08-10T11:07:50Z</time>
      </trkpt>
      <trkpt lat="48.50531" lon="4.60689">
        <ele>126.07</ele>
        <time>2021-08-10T11:07:51Z</time>
      </trkpt>
      <trkpt lat="48.50528" lon="4.60686">
        <ele>126.07</ele>
        <time>2021-08-10T11:07:52Z</time>
      </trkpt>
      <trkpt lat="48.50526" lon="4.60682">
        <ele>126.07</ele>
        <time>2021-08-10T11:07:53Z</time>
      </trkpt>
      <trkpt lat="48.50525" lon="4.60678">
        <ele>126.07</ele>
        <time>2021-08-10T11:07:54Z</time>
      </trkpt>
      <trkpt lat="48.50525" lon="4.60673">
        <ele>126.07</ele>
        <time>2021-08-10T11:07:55Z</time>
      </trkpt>
      <trkpt lat="48.50525" lon="4.60668">
        <ele>126.07</ele>
        <time>2021-08-10T11:07:56Z</time>
      </trkpt>
      <trkpt lat="48.50525" lon="4.60662">
        <ele>126.07</ele>
        <time>2021-08-10T11:07:57Z</time>
      </trkpt>
      <trkpt lat="48.50524" lon="4.60656">
        <ele>126.07</ele>
        <time>2021-08-10T11:07:58Z</time>
      </trkpt>
      <trkpt lat="48.50524" lon="4.60632">
        <ele>127.51</ele>
        <time>2021-08-10T11:08:02Z</time>
      </trkpt>
      <trkpt lat="48.50522" lon="4.60582">
        <ele>127.99</ele>
        <time>2021-08-10T11:08:10Z</time>
      </trkpt>
      <trkpt lat="48.5052" lon="4.60577">
        <ele>127.99</ele>
        <time>2021-08-10T11:08:11Z</time>
      </trkpt>
      <trkpt lat="48.50517" lon="4.60572">
        <ele>127.99</ele>
        <time>2021-08-10T11:08:12Z</time>
      </trkpt>
      <trkpt lat="48.50513" lon="4.6057">
        <ele>127.51</ele>
        <time>2021-08-10T11:08:13Z</time>
      </trkpt>
      <trkpt lat="48.50509" lon="4.6057">
        <ele>127.99</ele>
        <time>2021-08-10T11:08:14Z</time>
      </trkpt>
      <trkpt lat="48.50505" lon="4.60571">
        <ele>127.99</ele>
        <time>2021-08-10T11:08:15Z</time>
      </trkpt>
      <trkpt lat="48.50501" lon="4.60572">
        <ele>127.99</ele>
        <time>2021-08-10T11:08:16Z</time>
      </trkpt>
      <trkpt lat="48.50465" lon="4.60572">
        <ele>128.47</ele>
        <time>2021-08-10T11:08:24Z</time>
      </trkpt>
      <trkpt lat="48.5046" lon="4.60572">
        <ele>128.47</ele>
        <time>2021-08-10T11:08:25Z</time>
      </trkpt>
      <trkpt lat="48.50419" lon="4.60574">
        <ele>127.03</ele>
        <time>2021-08-10T11:08:33Z</time>
      </trkpt>
      <trkpt lat="48.50384" lon="4.60571">
        <ele>126.55</ele>
        <time>2021-08-10T11:08:40Z</time>
      </trkpt>
      <trkpt lat="48.50374" lon="4.60568">
        <ele>126.07</ele>
        <time>2021-08-10T11:08:42Z</time>
      </trkpt>
      <trkpt lat="48.5037" lon="4.60565">
        <ele>126.07</ele>
        <time>2021-08-10T11:08:43Z</time>
      </trkpt>
      <trkpt lat="48.50366" lon="4.60561">
        <ele>126.07</ele>
        <time>2021-08-10T11:08:44Z</time>
      </trkpt>
      <trkpt lat="48.50347" lon="4.60538">
        <ele>126.07</ele>
        <time>2021-08-10T11:08:49Z</time>
      </trkpt>
      <trkpt lat="48.50343" lon="4.60533">
        <ele>126.07</ele>
        <time>2021-08-10T11:08:50Z</time>
      </trkpt>
      <trkpt lat="48.5034" lon="4.60529">
        <ele>126.07</ele>
        <time>2021-08-10T11:08:51Z</time>
      </trkpt>
      <trkpt lat="48.50336" lon="4.60524">
        <ele>126.07</ele>
        <time>2021-08-10T11:08:52Z</time>
      </trkpt>
      <trkpt lat="48.50333" lon="4.60519">
        <ele>126.07</ele>
        <time>2021-08-10T11:08:53Z</time>
      </trkpt>
      <trkpt lat="48.50291" lon="4.60478">
        <ele>126.07</ele>
        <time>2021-08-10T11:09:03Z</time>
      </trkpt>
      <trkpt lat="48.50252" lon="4.60441">
        <ele>125.59</ele>
        <time>2021-08-10T11:09:12Z</time>
      </trkpt>
      <trkpt lat="48.50248" lon="4.60437">
        <ele>125.59</ele>
        <time>2021-08-10T11:09:13Z</time>
      </trkpt>
      <trkpt lat="48.50244" lon="4.60433">
        <ele>125.59</ele>
        <time>2021-08-10T11:09:14Z</time>
      </trkpt>
      <trkpt lat="48.50202" lon="4.60388">
        <ele>125.59</ele>
        <time>2021-08-10T11:09:24Z</time>
      </trkpt>
      <trkpt lat="48.50166" lon="4.6036">
        <ele>125.59</ele>
        <time>2021-08-10T11:09:32Z</time>
      </trkpt>
      <trkpt lat="48.50162" lon="4.60358">
        <ele>125.59</ele>
        <time>2021-08-10T11:09:33Z</time>
      </trkpt>
      <trkpt lat="48.50124" lon="4.60346">
        <ele>125.59</ele>
        <time>2021-08-10T11:09:42Z</time>
      </trkpt>
      <trkpt lat="48.50108" lon="4.60345">
        <ele>127.03</ele>
        <time>2021-08-10T11:09:46Z</time>
      </trkpt>
      <trkpt lat="48.50076" lon="4.60356">
        <ele>127.51</ele>
        <time>2021-08-10T11:09:54Z</time>
      </trkpt>
      <trkpt lat="48.50072" lon="4.6036">
        <ele>127.51</ele>
        <time>2021-08-10T11:09:55Z</time>
      </trkpt>
      <trkpt lat="48.50068" lon="4.60364">
        <ele>127.51</ele>
        <time>2021-08-10T11:09:56Z</time>
      </trkpt>
      <trkpt lat="48.50048" lon="4.60394">
        <ele>127.51</ele>
        <time>2021-08-10T11:10:02Z</time>
      </trkpt>
      <trkpt lat="48.50045" lon="4.604">
        <ele>127.51</ele>
        <time>2021-08-10T11:10:03Z</time>
      </trkpt>
      <trkpt lat="48.50037" lon="4.6041">
        <ele>127.51</ele>
        <time>2021-08-10T11:10:05Z</time>
      </trkpt>
      <trkpt lat="48.50034" lon="4.60413">
        <ele>127.51</ele>
        <time>2021-08-10T11:10:06Z</time>
      </trkpt>
      <trkpt lat="48.50013" lon="4.60431">
        <ele>127.51</ele>
        <time>2021-08-10T11:10:11Z</time>
      </trkpt>
      <trkpt lat="48.49963" lon="4.60456">
        <ele>128.47</ele>
        <time>2021-08-10T11:10:23Z</time>
      </trkpt>
      <trkpt lat="48.49955" lon="4.60461">
        <ele>128.47</ele>
        <time>2021-08-10T11:10:25Z</time>
      </trkpt>
      <trkpt lat="48.49905" lon="4.60488">
        <ele>128.95</ele>
        <time>2021-08-10T11:10:37Z</time>
      </trkpt>
      <trkpt lat="48.49866" lon="4.60515">
        <ele>128.95</ele>
        <time>2021-08-10T11:10:46Z</time>
      </trkpt>
      <trkpt lat="48.49858" lon="4.60521">
        <ele>128.95</ele>
        <time>2021-08-10T11:10:48Z</time>
      </trkpt>
      <trkpt lat="48.49853" lon="4.60524">
        <ele>128.95</ele>
        <time>2021-08-10T11:10:49Z</time>
      </trkpt>
      <trkpt lat="48.49832" lon="4.60539">
        <ele>128.95</ele>
        <time>2021-08-10T11:10:54Z</time>
      </trkpt>
      <trkpt lat="48.49787" lon="4.60571">
        <ele>127.51</ele>
        <time>2021-08-10T11:11:04Z</time>
      </trkpt>
      <trkpt lat="48.49774" lon="4.60581">
        <ele>127.51</ele>
        <time>2021-08-10T11:11:07Z</time>
      </trkpt>
      <trkpt lat="48.49768" lon="4.60584">
        <ele>127.51</ele>
        <time>2021-08-10T11:11:08Z</time>
      </trkpt>
      <trkpt lat="48.49721" lon="4.60618">
        <ele>126.55</ele>
        <time>2021-08-10T11:11:18Z</time>
      </trkpt>
      <trkpt lat="48.49675" lon="4.60652">
        <ele>126.55</ele>
        <time>2021-08-10T11:11:28Z</time>
      </trkpt>
      <trkpt lat="48.49639" lon="4.60677">
        <ele>126.07</ele>
        <time>2021-08-10T11:11:36Z</time>
      </trkpt>
      <trkpt lat="48.49602" lon="4.60704">
        <ele>126.07</ele>
        <time>2021-08-10T11:11:45Z</time>
      </trkpt>
      <trkpt lat="48.49558" lon="4.60735">
        <ele>125.59</ele>
        <time>2021-08-10T11:11:55Z</time>
      </trkpt>
      <trkpt lat="48.49509" lon="4.60772">
        <ele>126.55</ele>
        <time>2021-08-10T11:12:07Z</time>
      </trkpt>
      <trkpt lat="48.49501" lon="4.60778">
        <ele>126.55</ele>
        <time>2021-08-10T11:12:09Z</time>
      </trkpt>
      <trkpt lat="48.49493" lon="4.60783">
        <ele>126.55</ele>
        <time>2021-08-10T11:12:11Z</time>
      </trkpt>
      <trkpt lat="48.49472" lon="4.608">
        <ele>126.55</ele>
        <time>2021-08-10T11:12:16Z</time>
      </trkpt>
      <trkpt lat="48.49422" lon="4.60836">
        <ele>125.11</ele>
        <time>2021-08-10T11:12:27Z</time>
      </trkpt>
      <trkpt lat="48.49412" lon="4.60843">
        <ele>125.11</ele>
        <time>2021-08-10T11:12:29Z</time>
      </trkpt>
      <trkpt lat="48.49407" lon="4.60847">
        <ele>125.11</ele>
        <time>2021-08-10T11:12:30Z</time>
      </trkpt>
      <trkpt lat="48.49349" lon="4.60887">
        <ele>123.67</ele>
        <time>2021-08-10T11:12:42Z</time>
      </trkpt>
      <trkpt lat="48.4932" lon="4.60907">
        <ele>123.67</ele>
        <time>2021-08-10T11:12:48Z</time>
      </trkpt>
      <trkpt lat="48.493" lon="4.6092">
        <ele>122.71</ele>
        <time>2021-08-10T11:12:52Z</time>
      </trkpt>
      <trkpt lat="48.49269" lon="4.60944">
        <ele>122.22</ele>
        <time>2021-08-10T11:12:58Z</time>
      </trkpt>
      <trkpt lat="48.49265" lon="4.60949">
        <ele>121.74</ele>
        <time>2021-08-10T11:12:59Z</time>
      </trkpt>
      <trkpt lat="48.49261" lon="4.60954">
        <ele>121.74</ele>
        <time>2021-08-10T11:13:00Z</time>
      </trkpt>
      <trkpt lat="48.49253" lon="4.60966">
        <ele>121.74</ele>
        <time>2021-08-10T11:13:02Z</time>
      </trkpt>
      <trkpt lat="48.49226" lon="4.61026">
        <ele>121.74</ele>
        <time>2021-08-10T11:13:11Z</time>
      </trkpt>
      <trkpt lat="48.49194" lon="4.61094">
        <ele>121.26</ele>
        <time>2021-08-10T11:13:21Z</time>
      </trkpt>
      <trkpt lat="48.49162" lon="4.6115">
        <ele>119.82</ele>
        <time>2021-08-10T11:13:30Z</time>
      </trkpt>
      <trkpt lat="48.49122" lon="4.61191">
        <ele>119.82</ele>
        <time>2021-08-10T11:13:39Z</time>
      </trkpt>
      <trkpt lat="48.49086" lon="4.61227">
        <ele>120.78</ele>
        <time>2021-08-10T11:13:48Z</time>
      </trkpt>
      <trkpt lat="48.49054" lon="4.61263">
        <ele>121.26</ele>
        <time>2021-08-10T11:13:57Z</time>
      </trkpt>
      <trkpt lat="48.49015" lon="4.61317">
        <ele>122.22</ele>
        <time>2021-08-10T11:14:09Z</time>
      </trkpt>
      <trkpt lat="48.4899" lon="4.6136">
        <ele>122.71</ele>
        <time>2021-08-10T11:14:17Z</time>
      </trkpt>
      <trkpt lat="48.48987" lon="4.61365">
        <ele>122.71</ele>
        <time>2021-08-10T11:14:18Z</time>
      </trkpt>
      <trkpt lat="48.48984" lon="4.61371">
        <ele>122.71</ele>
        <time>2021-08-10T11:14:19Z</time>
      </trkpt>
      <trkpt lat="48.48958" lon="4.61413">
        <ele>122.71</ele>
        <time>2021-08-10T11:14:27Z</time>
      </trkpt>
      <trkpt lat="48.4892" lon="4.61451">
        <ele>123.19</ele>
        <time>2021-08-10T11:14:37Z</time>
      </trkpt>
      <trkpt lat="48.48883" lon="4.61472">
        <ele>123.67</ele>
        <time>2021-08-10T11:14:46Z</time>
      </trkpt>
      <trkpt lat="48.48847" lon="4.61475">
        <ele>123.67</ele>
        <time>2021-08-10T11:14:54Z</time>
      </trkpt>
      <trkpt lat="48.48841" lon="4.61471">
        <ele>123.67</ele>
        <time>2021-08-10T11:14:55Z</time>
      </trkpt>
      <trkpt lat="48.48836" lon="4.61469">
        <ele>123.67</ele>
        <time>2021-08-10T11:14:56Z</time>
      </trkpt>
      <trkpt lat="48.48819" lon="4.61466">
        <ele>123.67</ele>
        <time>2021-08-10T11:15:00Z</time>
      </trkpt>
      <trkpt lat="48.48802" lon="4.61459">
        <ele>123.67</ele>
        <time>2021-08-10T11:15:04Z</time>
      </trkpt>
      <trkpt lat="48.48774" lon="4.61431">
        <ele>124.15</ele>
        <time>2021-08-10T11:15:13Z</time>
      </trkpt>
      <trkpt lat="48.4874" lon="4.61398">
        <ele>124.15</ele>
        <time>2021-08-10T11:15:23Z</time>
      </trkpt>
      <trkpt lat="48.48737" lon="4.61396">
        <ele>124.15</ele>
        <time>2021-08-10T11:15:24Z</time>
      </trkpt>
      <trkpt lat="48.48733" lon="4.61393">
        <ele>124.63</ele>
        <time>2021-08-10T11:15:25Z</time>
      </trkpt>
      <trkpt lat="48.48729" lon="4.6139">
        <ele>124.63</ele>
        <time>2021-08-10T11:15:26Z</time>
      </trkpt>
      <trkpt lat="48.48697" lon="4.61368">
        <ele>124.63</ele>
        <time>2021-08-10T11:15:35Z</time>
      </trkpt>
      <trkpt lat="48.48663" lon="4.61341">
        <ele>124.63</ele>
        <time>2021-08-10T11:15:44Z</time>
      </trkpt>
      <trkpt lat="48.48642" lon="4.61322">
        <ele>124.63</ele>
        <time>2021-08-10T11:15:49Z</time>
      </trkpt>
      <trkpt lat="48.48638" lon="4.61319">
        <ele>124.63</ele>
        <time>2021-08-10T11:15:50Z</time>
      </trkpt>
      <trkpt lat="48.48634" lon="4.61315">
        <ele>124.63</ele>
        <time>2021-08-10T11:15:51Z</time>
      </trkpt>
      <trkpt lat="48.48626" lon="4.61308">
        <ele>124.63</ele>
        <time>2021-08-10T11:15:53Z</time>
      </trkpt>
      <trkpt lat="48.48574" lon="4.61253">
        <ele>123.67</ele>
        <time>2021-08-10T11:16:06Z</time>
      </trkpt>
      <trkpt lat="48.48528" lon="4.61208">
        <ele>121.74</ele>
        <time>2021-08-10T11:16:16Z</time>
      </trkpt>
      <trkpt lat="48.48473" lon="4.61163">
        <ele>120.78</ele>
        <time>2021-08-10T11:16:27Z</time>
      </trkpt>
      <trkpt lat="48.48426" lon="4.61124">
        <ele>120.3</ele>
        <time>2021-08-10T11:16:36Z</time>
      </trkpt>
      <trkpt lat="48.48389" lon="4.61081">
        <ele>120.3</ele>
        <time>2021-08-10T11:16:45Z</time>
      </trkpt>
      <trkpt lat="48.48361" lon="4.61031">
        <ele>121.74</ele>
        <time>2021-08-10T11:16:54Z</time>
      </trkpt>
      <trkpt lat="48.48338" lon="4.6098">
        <ele>122.22</ele>
        <time>2021-08-10T11:17:03Z</time>
      </trkpt>
      <trkpt lat="48.48319" lon="4.60932">
        <ele>122.22</ele>
        <time>2021-08-10T11:17:11Z</time>
      </trkpt>
      <trkpt lat="48.48293" lon="4.60854">
        <ele>122.71</ele>
        <time>2021-08-10T11:17:23Z</time>
      </trkpt>
      <trkpt lat="48.48269" lon="4.60805">
        <ele>122.71</ele>
        <time>2021-08-10T11:17:31Z</time>
      </trkpt>
      <trkpt lat="48.48258" lon="4.60787">
        <ele>122.71</ele>
        <time>2021-08-10T11:17:34Z</time>
      </trkpt>
      <trkpt lat="48.48205" lon="4.60727">
        <ele>121.74</ele>
        <time>2021-08-10T11:17:46Z</time>
      </trkpt>
      <trkpt lat="48.48161" lon="4.60677">
        <ele>121.74</ele>
        <time>2021-08-10T11:17:56Z</time>
      </trkpt>
      <trkpt lat="48.4814" lon="4.60626">
        <ele>121.26</ele>
        <time>2021-08-10T11:18:03Z</time>
      </trkpt>
      <trkpt lat="48.48124" lon="4.60557">
        <ele>121.26</ele>
        <time>2021-08-10T11:18:12Z</time>
      </trkpt>
      <trkpt lat="48.48107" lon="4.60484">
        <ele>121.26</ele>
        <time>2021-08-10T11:18:22Z</time>
      </trkpt>
      <trkpt lat="48.48087" lon="4.60408">
        <ele>121.26</ele>
        <time>2021-08-10T11:18:33Z</time>
      </trkpt>
      <trkpt lat="48.48081" lon="4.6038">
        <ele>121.26</ele>
        <time>2021-08-10T11:18:37Z</time>
      </trkpt>
      <trkpt lat="48.48062" lon="4.60317">
        <ele>121.26</ele>
        <time>2021-08-10T11:18:46Z</time>
      </trkpt>
      <trkpt lat="48.48042" lon="4.60247">
        <ele>120.3</ele>
        <time>2021-08-10T11:18:55Z</time>
      </trkpt>
      <trkpt lat="48.48022" lon="4.60183">
        <ele>119.82</ele>
        <time>2021-08-10T11:19:03Z</time>
      </trkpt>
      <trkpt lat="48.48005" lon="4.60127">
        <ele>119.82</ele>
        <time>2021-08-10T11:19:11Z</time>
      </trkpt>
      <trkpt lat="48.4798" lon="4.60049">
        <ele>121.26</ele>
        <time>2021-08-10T11:19:23Z</time>
      </trkpt>
      <trkpt lat="48.47955" lon="4.59959">
        <ele>119.34</ele>
        <time>2021-08-10T11:19:34Z</time>
      </trkpt>
      <trkpt lat="48.47934" lon="4.59863">
        <ele>118.38</ele>
        <time>2021-08-10T11:19:45Z</time>
      </trkpt>
      <trkpt lat="48.47914" lon="4.5978">
        <ele>117.9</ele>
        <time>2021-08-10T11:19:55Z</time>
      </trkpt>
      <trkpt lat="48.47899" lon="4.59727">
        <ele>117.9</ele>
        <time>2021-08-10T11:20:02Z</time>
      </trkpt>
      <trkpt lat="48.47881" lon="4.59673">
        <ele>118.86</ele>
        <time>2021-08-10T11:20:10Z</time>
      </trkpt>
      <trkpt lat="48.47865" lon="4.5962">
        <ele>118.86</ele>
        <time>2021-08-10T11:20:17Z</time>
      </trkpt>
      <trkpt lat="48.47864" lon="4.59612">
        <ele>118.86</ele>
        <time>2021-08-10T11:20:18Z</time>
      </trkpt>
      <trkpt lat="48.47858" lon="4.59556">
        <ele>118.86</ele>
        <time>2021-08-10T11:20:25Z</time>
      </trkpt>
      <trkpt lat="48.47858" lon="4.59519">
        <ele>119.34</ele>
        <time>2021-08-10T11:20:30Z</time>
      </trkpt>
      <trkpt lat="48.47862" lon="4.59438">
        <ele>119.82</ele>
        <time>2021-08-10T11:20:41Z</time>
      </trkpt>
      <trkpt lat="48.47856" lon="4.59369">
        <ele>119.82</ele>
        <time>2021-08-10T11:20:50Z</time>
      </trkpt>
      <trkpt lat="48.47852" lon="4.59355">
        <ele>119.82</ele>
        <time>2021-08-10T11:20:52Z</time>
      </trkpt>
      <trkpt lat="48.47836" lon="4.59313">
        <ele>118.86</ele>
        <time>2021-08-10T11:20:58Z</time>
      </trkpt>
      <trkpt lat="48.47805" lon="4.59233">
        <ele>118.86</ele>
        <time>2021-08-10T11:21:09Z</time>
      </trkpt>
      <trkpt lat="48.47784" lon="4.59175">
        <ele>119.82</ele>
        <time>2021-08-10T11:21:18Z</time>
      </trkpt>
      <trkpt lat="48.47764" lon="4.59104">
        <ele>120.3</ele>
        <time>2021-08-10T11:21:29Z</time>
      </trkpt>
      <trkpt lat="48.47755" lon="4.59037">
        <ele>120.78</ele>
        <time>2021-08-10T11:21:39Z</time>
      </trkpt>
      <trkpt lat="48.4775" lon="4.59004">
        <ele>121.26</ele>
        <time>2021-08-10T11:21:44Z</time>
      </trkpt>
      <trkpt lat="48.47749" lon="4.58999">
        <ele>121.26</ele>
        <time>2021-08-10T11:21:45Z</time>
      </trkpt>
      <trkpt lat="48.47746" lon="4.58994">
        <ele>121.74</ele>
        <time>2021-08-10T11:21:46Z</time>
      </trkpt>
      <trkpt lat="48.47742" lon="4.58989">
        <ele>121.74</ele>
        <time>2021-08-10T11:21:47Z</time>
      </trkpt>
      <trkpt lat="48.47739" lon="4.58986">
        <ele>121.74</ele>
        <time>2021-08-10T11:21:48Z</time>
      </trkpt>
      <trkpt lat="48.47735" lon="4.58984">
        <ele>121.74</ele>
        <time>2021-08-10T11:21:49Z</time>
      </trkpt>
      <trkpt lat="48.4773" lon="4.58982">
        <ele>121.74</ele>
        <time>2021-08-10T11:21:50Z</time>
      </trkpt>
      <trkpt lat="48.47706" lon="4.58975">
        <ele>121.74</ele>
        <time>2021-08-10T11:21:55Z</time>
      </trkpt>
      <trkpt lat="48.47654" lon="4.58976">
        <ele>120.3</ele>
        <time>2021-08-10T11:22:05Z</time>
      </trkpt>
      <trkpt lat="48.47598" lon="4.58981">
        <ele>119.34</ele>
        <time>2021-08-10T11:22:15Z</time>
      </trkpt>
      <trkpt lat="48.47534" lon="4.58985">
        <ele>118.86</ele>
        <time>2021-08-10T11:22:26Z</time>
      </trkpt>
      <trkpt lat="48.47471" lon="4.58995">
        <ele>118.86</ele>
        <time>2021-08-10T11:22:36Z</time>
      </trkpt>
      <trkpt lat="48.47419" lon="4.59017">
        <ele>118.38</ele>
        <time>2021-08-10T11:22:45Z</time>
      </trkpt>
      <trkpt lat="48.47345" lon="4.5905">
        <ele>118.38</ele>
        <time>2021-08-10T11:22:58Z</time>
      </trkpt>
      <trkpt lat="48.47285" lon="4.59076">
        <ele>117.9</ele>
        <time>2021-08-10T11:23:09Z</time>
      </trkpt>
      <trkpt lat="48.47241" lon="4.59095">
        <ele>117.9</ele>
        <time>2021-08-10T11:23:17Z</time>
      </trkpt>
      <trkpt lat="48.472" lon="4.59114">
        <ele>117.9</ele>
        <time>2021-08-10T11:23:25Z</time>
      </trkpt>
      <trkpt lat="48.47153" lon="4.59134">
        <ele>117.9</ele>
        <time>2021-08-10T11:23:34Z</time>
      </trkpt>
      <trkpt lat="48.47096" lon="4.59156">
        <ele>117.9</ele>
        <time>2021-08-10T11:23:45Z</time>
      </trkpt>
      <trkpt lat="48.47048" lon="4.59159">
        <ele>117.9</ele>
        <time>2021-08-10T11:23:54Z</time>
      </trkpt>
      <trkpt lat="48.46982" lon="4.59156">
        <ele>117.9</ele>
        <time>2021-08-10T11:24:06Z</time>
      </trkpt>
      <trkpt lat="48.46921" lon="4.59156">
        <ele>117.9</ele>
        <time>2021-08-10T11:24:17Z</time>
      </trkpt>
      <trkpt lat="48.46852" lon="4.59152">
        <ele>117.9</ele>
        <time>2021-08-10T11:24:29Z</time>
      </trkpt>
      <trkpt lat="48.4681" lon="4.59136">
        <ele>117.9</ele>
        <time>2021-08-10T11:24:37Z</time>
      </trkpt>
      <trkpt lat="48.46771" lon="4.59113">
        <ele>117.9</ele>
        <time>2021-08-10T11:24:45Z</time>
      </trkpt>
      <trkpt lat="48.46721" lon="4.59083">
        <ele>117.42</ele>
        <time>2021-08-10T11:24:55Z</time>
      </trkpt>
      <trkpt lat="48.46676" lon="4.59057">
        <ele>117.42</ele>
        <time>2021-08-10T11:25:04Z</time>
      </trkpt>
      <trkpt lat="48.46615" lon="4.59022">
        <ele>117.42</ele>
        <time>2021-08-10T11:25:16Z</time>
      </trkpt>
      <trkpt lat="48.46569" lon="4.58996">
        <ele>117.42</ele>
        <time>2021-08-10T11:25:25Z</time>
      </trkpt>
      <trkpt lat="48.46535" lon="4.58978">
        <ele>117.42</ele>
        <time>2021-08-10T11:25:32Z</time>
      </trkpt>
      <trkpt lat="48.46524" lon="4.58972">
        <ele>117.42</ele>
        <time>2021-08-10T11:25:34Z</time>
      </trkpt>
      <trkpt lat="48.46501" lon="4.58965">
        <ele>117.42</ele>
        <time>2021-08-10T11:25:38Z</time>
      </trkpt>
      <trkpt lat="48.46496" lon="4.58963">
        <ele>117.42</ele>
        <time>2021-08-10T11:25:39Z</time>
      </trkpt>
      <trkpt lat="48.46492" lon="4.58962">
        <ele>117.42</ele>
        <time>2021-08-10T11:25:40Z</time>
      </trkpt>
      <trkpt lat="48.46474" lon="4.58961">
        <ele>117.42</ele>
        <time>2021-08-10T11:25:43Z</time>
      </trkpt>
      <trkpt lat="48.46432" lon="4.58966">
        <ele>117.42</ele>
        <time>2021-08-10T11:25:51Z</time>
      </trkpt>
      <trkpt lat="48.46426" lon="4.58969">
        <ele>117.42</ele>
        <time>2021-08-10T11:25:52Z</time>
      </trkpt>
      <trkpt lat="48.46422" lon="4.58972">
        <ele>117.42</ele>
        <time>2021-08-10T11:25:53Z</time>
      </trkpt>
      <trkpt lat="48.46381" lon="4.59004">
        <ele>117.42</ele>
        <time>2021-08-10T11:26:01Z</time>
      </trkpt>
      <trkpt lat="48.46371" lon="4.5901">
        <ele>117.42</ele>
        <time>2021-08-10T11:26:03Z</time>
      </trkpt>
      <trkpt lat="48.46366" lon="4.59012">
        <ele>117.42</ele>
        <time>2021-08-10T11:26:04Z</time>
      </trkpt>
      <trkpt lat="48.46315" lon="4.59019">
        <ele>117.42</ele>
        <time>2021-08-10T11:26:13Z</time>
      </trkpt>
      <trkpt lat="48.4625" lon="4.59029">
        <ele>117.42</ele>
        <time>2021-08-10T11:26:25Z</time>
      </trkpt>
      <trkpt lat="48.46171" lon="4.5904">
        <ele>117.42</ele>
        <time>2021-08-10T11:26:40Z</time>
      </trkpt>
      <trkpt lat="48.46127" lon="4.59044">
        <ele>117.42</ele>
        <time>2021-08-10T11:26:48Z</time>
      </trkpt>
      <trkpt lat="48.46078" lon="4.59037">
        <ele>117.42</ele>
        <time>2021-08-10T11:26:57Z</time>
      </trkpt>
      <trkpt lat="48.46068" lon="4.59032">
        <ele>117.42</ele>
        <time>2021-08-10T11:26:59Z</time>
      </trkpt>
      <trkpt lat="48.46033" lon="4.58997">
        <ele>117.42</ele>
        <time>2021-08-10T11:27:07Z</time>
      </trkpt>
      <trkpt lat="48.4602" lon="4.58984">
        <ele>117.42</ele>
        <time>2021-08-10T11:27:10Z</time>
      </trkpt>
      <trkpt lat="48.45996" lon="4.5897">
        <ele>118.86</ele>
        <time>2021-08-10T11:27:15Z</time>
      </trkpt>
      <trkpt lat="48.45946" lon="4.58962">
        <ele>119.34</ele>
        <time>2021-08-10T11:27:25Z</time>
      </trkpt>
      <trkpt lat="48.45906" lon="4.58957">
        <ele>120.3</ele>
        <time>2021-08-10T11:27:34Z</time>
      </trkpt>
      <trkpt lat="48.45884" lon="4.58948">
        <ele>120.78</ele>
        <time>2021-08-10T11:27:39Z</time>
      </trkpt>
      <trkpt lat="48.4588" lon="4.58945">
        <ele>120.78</ele>
        <time>2021-08-10T11:27:40Z</time>
      </trkpt>
      <trkpt lat="48.45876" lon="4.5894">
        <ele>120.78</ele>
        <time>2021-08-10T11:27:41Z</time>
      </trkpt>
      <trkpt lat="48.45871" lon="4.58935">
        <ele>120.78</ele>
        <time>2021-08-10T11:27:42Z</time>
      </trkpt>
      <trkpt lat="48.45868" lon="4.5893">
        <ele>120.78</ele>
        <time>2021-08-10T11:27:43Z</time>
      </trkpt>
      <trkpt lat="48.45845" lon="4.58903">
        <ele>120.78</ele>
        <time>2021-08-10T11:27:49Z</time>
      </trkpt>
      <trkpt lat="48.4584" lon="4.58901">
        <ele>120.78</ele>
        <time>2021-08-10T11:27:50Z</time>
      </trkpt>
      <trkpt lat="48.45836" lon="4.58899">
        <ele>120.78</ele>
        <time>2021-08-10T11:27:51Z</time>
      </trkpt>
      <trkpt lat="48.45831" lon="4.58898">
        <ele>120.78</ele>
        <time>2021-08-10T11:27:52Z</time>
      </trkpt>
      <trkpt lat="48.45827" lon="4.58898">
        <ele>120.78</ele>
        <time>2021-08-10T11:27:53Z</time>
      </trkpt>
      <trkpt lat="48.45822" lon="4.58898">
        <ele>120.78</ele>
        <time>2021-08-10T11:27:54Z</time>
      </trkpt>
      <trkpt lat="48.45818" lon="4.58899">
        <ele>121.26</ele>
        <time>2021-08-10T11:27:55Z</time>
      </trkpt>
      <trkpt lat="48.45782" lon="4.58918">
        <ele>121.74</ele>
        <time>2021-08-10T11:28:03Z</time>
      </trkpt>
      <trkpt lat="48.45765" lon="4.58929">
        <ele>121.74</ele>
        <time>2021-08-10T11:28:07Z</time>
      </trkpt>
      <trkpt lat="48.45757" lon="4.58935">
        <ele>121.74</ele>
        <time>2021-08-10T11:28:09Z</time>
      </trkpt>
      <trkpt lat="48.45704" lon="4.58972">
        <ele>122.22</ele>
        <time>2021-08-10T11:28:22Z</time>
      </trkpt>
      <trkpt lat="48.45665" lon="4.59004">
        <ele>122.71</ele>
        <time>2021-08-10T11:28:32Z</time>
      </trkpt>
      <trkpt lat="48.4564" lon="4.59023">
        <ele>122.71</ele>
        <time>2021-08-10T11:28:39Z</time>
      </trkpt>
      <trkpt lat="48.45637" lon="4.59021">
        <ele>122.71</ele>
        <time>2021-08-10T11:28:40Z</time>
      </trkpt>
      <trkpt lat="48.45635" lon="4.59017">
        <ele>123.19</ele>
        <time>2021-08-10T11:28:41Z</time>
      </trkpt>
      <trkpt lat="48.45623" lon="4.58983">
        <ele>123.67</ele>
        <time>2021-08-10T11:28:48Z</time>
      </trkpt>
      <trkpt lat="48.45606" lon="4.5894">
        <ele>124.15</ele>
        <time>2021-08-10T11:28:57Z</time>
      </trkpt>
      <trkpt lat="48.45603" lon="4.58937">
        <ele>124.15</ele>
        <time>2021-08-10T11:28:58Z</time>
      </trkpt>
      <trkpt lat="48.456" lon="4.58935">
        <ele>124.63</ele>
        <time>2021-08-10T11:28:59Z</time>
      </trkpt>
      <trkpt lat="48.45597" lon="4.58936">
        <ele>124.63</ele>
        <time>2021-08-10T11:29:00Z</time>
      </trkpt>
      <trkpt lat="48.45594" lon="4.58936">
        <ele>124.63</ele>
        <time>2021-08-10T11:29:01Z</time>
      </trkpt>
      <trkpt lat="48.45591" lon="4.58937">
        <ele>124.63</ele>
        <time>2021-08-10T11:29:02Z</time>
      </trkpt>
      <trkpt lat="48.45564" lon="4.58946">
        <ele>124.63</ele>
        <time>2021-08-10T11:29:09Z</time>
      </trkpt>
      <trkpt lat="48.45539" lon="4.58959">
        <ele>126.07</ele>
        <time>2021-08-10T11:29:17Z</time>
      </trkpt>
      <trkpt lat="48.45536" lon="4.58957">
        <ele>126.07</ele>
        <time>2021-08-10T11:29:18Z</time>
      </trkpt>
      <trkpt lat="48.45535" lon="4.58953">
        <ele>126.07</ele>
        <time>2021-08-10T11:29:19Z</time>
      </trkpt>
      <trkpt lat="48.45533" lon="4.58949">
        <ele>126.07</ele>
        <time>2021-08-10T11:29:20Z</time>
      </trkpt>
      <trkpt lat="48.45532" lon="4.58944">
        <ele>126.07</ele>
        <time>2021-08-10T11:29:21Z</time>
      </trkpt>
      <trkpt lat="48.45519" lon="4.58895">
        <ele>126.07</ele>
        <time>2021-08-10T11:29:30Z</time>
      </trkpt>
      <trkpt lat="48.45506" lon="4.58834">
        <ele>125.59</ele>
        <time>2021-08-10T11:29:40Z</time>
      </trkpt>
      <trkpt lat="48.45493" lon="4.58775">
        <ele>126.07</ele>
        <time>2021-08-10T11:29:49Z</time>
      </trkpt>
      <trkpt lat="48.45487" lon="4.58757">
        <ele>126.07</ele>
        <time>2021-08-10T11:29:52Z</time>
      </trkpt>
      <trkpt lat="48.45484" lon="4.58752">
        <ele>126.07</ele>
        <time>2021-08-10T11:29:53Z</time>
      </trkpt>
      <trkpt lat="48.45481" lon="4.58746">
        <ele>126.07</ele>
        <time>2021-08-10T11:29:54Z</time>
      </trkpt>
      <trkpt lat="48.45477" lon="4.58741">
        <ele>126.07</ele>
        <time>2021-08-10T11:29:55Z</time>
      </trkpt>
      <trkpt lat="48.45474" lon="4.58737">
        <ele>126.07</ele>
        <time>2021-08-10T11:29:56Z</time>
      </trkpt>
      <trkpt lat="48.45458" lon="4.58718">
        <ele>126.07</ele>
        <time>2021-08-10T11:30:00Z</time>
      </trkpt>
      <trkpt lat="48.45412" lon="4.58673">
        <ele>126.07</ele>
        <time>2021-08-10T11:30:11Z</time>
      </trkpt>
      <trkpt lat="48.45358" lon="4.58621">
        <ele>126.07</ele>
        <time>2021-08-10T11:30:24Z</time>
      </trkpt>
      <trkpt lat="48.45305" lon="4.58567">
        <ele>126.07</ele>
        <time>2021-08-10T11:30:37Z</time>
      </trkpt>
      <trkpt lat="48.45263" lon="4.58526">
        <ele>126.07</ele>
        <time>2021-08-10T11:30:47Z</time>
      </trkpt>
      <trkpt lat="48.45226" lon="4.58489">
        <ele>125.59</ele>
        <time>2021-08-10T11:30:56Z</time>
      </trkpt>
      <trkpt lat="48.45181" lon="4.58445">
        <ele>125.59</ele>
        <time>2021-08-10T11:31:07Z</time>
      </trkpt>
      <trkpt lat="48.45134" lon="4.58398">
        <ele>125.59</ele>
        <time>2021-08-10T11:31:19Z</time>
      </trkpt>
      <trkpt lat="48.45095" lon="4.5836">
        <ele>125.59</ele>
        <time>2021-08-10T11:31:29Z</time>
      </trkpt>
      <trkpt lat="48.45059" lon="4.58324">
        <ele>125.59</ele>
        <time>2021-08-10T11:31:38Z</time>
      </trkpt>
      <trkpt lat="48.45014" lon="4.58279">
        <ele>125.59</ele>
        <time>2021-08-10T11:31:49Z</time>
      </trkpt>
      <trkpt lat="48.44964" lon="4.58231">
        <ele>125.59</ele>
        <time>2021-08-10T11:32:00Z</time>
      </trkpt>
      <trkpt lat="48.44922" lon="4.58189">
        <ele>125.59</ele>
        <time>2021-08-10T11:32:09Z</time>
      </trkpt>
      <trkpt lat="48.44901" lon="4.58173">
        <ele>124.63</ele>
        <time>2021-08-10T11:32:13Z</time>
      </trkpt>
      <trkpt lat="48.44884" lon="4.58165">
        <ele>124.63</ele>
        <time>2021-08-10T11:32:16Z</time>
      </trkpt>
      <trkpt lat="48.44873" lon="4.58162">
        <ele>124.63</ele>
        <time>2021-08-10T11:32:18Z</time>
      </trkpt>
      <trkpt lat="48.44867" lon="4.58162">
        <ele>124.63</ele>
        <time>2021-08-10T11:32:19Z</time>
      </trkpt>
      <trkpt lat="48.44861" lon="4.58162">
        <ele>124.15</ele>
        <time>2021-08-10T11:32:20Z</time>
      </trkpt>
      <trkpt lat="48.44855" lon="4.58163">
        <ele>124.15</ele>
        <time>2021-08-10T11:32:21Z</time>
      </trkpt>
      <trkpt lat="48.44849" lon="4.58164">
        <ele>124.15</ele>
        <time>2021-08-10T11:32:22Z</time>
      </trkpt>
      <trkpt lat="48.44844" lon="4.58164">
        <ele>124.15</ele>
        <time>2021-08-10T11:32:23Z</time>
      </trkpt>
      <trkpt lat="48.44789" lon="4.58181">
        <ele>124.15</ele>
        <time>2021-08-10T11:32:33Z</time>
      </trkpt>
      <trkpt lat="48.44758" lon="4.58191">
        <ele>124.15</ele>
        <time>2021-08-10T11:32:39Z</time>
      </trkpt>
      <trkpt lat="48.44741" lon="4.58194">
        <ele>124.15</ele>
        <time>2021-08-10T11:32:42Z</time>
      </trkpt>
      <trkpt lat="48.44735" lon="4.58193">
        <ele>123.19</ele>
        <time>2021-08-10T11:32:43Z</time>
      </trkpt>
      <trkpt lat="48.4473" lon="4.58189">
        <ele>123.19</ele>
        <time>2021-08-10T11:32:44Z</time>
      </trkpt>
      <trkpt lat="48.44725" lon="4.58183">
        <ele>123.19</ele>
        <time>2021-08-10T11:32:45Z</time>
      </trkpt>
      <trkpt lat="48.44722" lon="4.58174">
        <ele>122.71</ele>
        <time>2021-08-10T11:32:46Z</time>
      </trkpt>
      <trkpt lat="48.4472" lon="4.58166">
        <ele>122.71</ele>
        <time>2021-08-10T11:32:47Z</time>
      </trkpt>
      <trkpt lat="48.44718" lon="4.58157">
        <ele>122.71</ele>
        <time>2021-08-10T11:32:48Z</time>
      </trkpt>
      <trkpt lat="48.44699" lon="4.58078">
        <ele>122.22</ele>
        <time>2021-08-10T11:32:58Z</time>
      </trkpt>
      <trkpt lat="48.44686" lon="4.58026">
        <ele>121.74</ele>
        <time>2021-08-10T11:33:05Z</time>
      </trkpt>
      <trkpt lat="48.44682" lon="4.58021">
        <ele>121.74</ele>
        <time>2021-08-10T11:33:06Z</time>
      </trkpt>
      <trkpt lat="48.44678" lon="4.58017">
        <ele>121.74</ele>
        <time>2021-08-10T11:33:07Z</time>
      </trkpt>
      <trkpt lat="48.44672" lon="4.58016">
        <ele>121.74</ele>
        <time>2021-08-10T11:33:08Z</time>
      </trkpt>
      <trkpt lat="48.44667" lon="4.58017">
        <ele>121.74</ele>
        <time>2021-08-10T11:33:09Z</time>
      </trkpt>
      <trkpt lat="48.44661" lon="4.58021">
        <ele>121.74</ele>
        <time>2021-08-10T11:33:10Z</time>
      </trkpt>
      <trkpt lat="48.44657" lon="4.58025">
        <ele>121.74</ele>
        <time>2021-08-10T11:33:11Z</time>
      </trkpt>
      <trkpt lat="48.44652" lon="4.58029">
        <ele>121.74</ele>
        <time>2021-08-10T11:33:12Z</time>
      </trkpt>
      <trkpt lat="48.44625" lon="4.58066">
        <ele>121.26</ele>
        <time>2021-08-10T11:33:19Z</time>
      </trkpt>
      <trkpt lat="48.44581" lon="4.58138">
        <ele>121.26</ele>
        <time>2021-08-10T11:33:31Z</time>
      </trkpt>
      <trkpt lat="48.44547" lon="4.58184">
        <ele>121.26</ele>
        <time>2021-08-10T11:33:40Z</time>
      </trkpt>
      <trkpt lat="48.44507" lon="4.5823">
        <ele>122.71</ele>
        <time>2021-08-10T11:33:51Z</time>
      </trkpt>
      <trkpt lat="48.44467" lon="4.58265">
        <ele>123.67</ele>
        <time>2021-08-10T11:34:02Z</time>
      </trkpt>
      <trkpt lat="48.44457" lon="4.58277">
        <ele>124.15</ele>
        <time>2021-08-10T11:34:07Z</time>
      </trkpt>
      <trkpt lat="48.44456" lon="4.58277">
        <ele>124.15</ele>
        <time>2021-08-10T11:34:13Z</time>
      </trkpt>
      <trkpt lat="48.44456" lon="4.5828">
        <ele>124.15</ele>
        <time>2021-08-10T11:34:15Z</time>
      </trkpt>
      <trkpt lat="48.44457" lon="4.58282">
        <ele>124.15</ele>
        <time>2021-08-10T11:34:16Z</time>
      </trkpt>
      <trkpt lat="48.44458" lon="4.58284">
        <ele>124.15</ele>
        <time>2021-08-10T11:34:19Z</time>
      </trkpt>
      <trkpt lat="48.4446" lon="4.58283">
        <ele>124.15</ele>
        <time>2021-08-10T11:34:21Z</time>
      </trkpt>
      <trkpt lat="48.44463" lon="4.58281">
        <ele>124.15</ele>
        <time>2021-08-10T11:34:30Z</time>
      </trkpt>
      <trkpt lat="48.44464" lon="4.58281">
        <ele>124.15</ele>
        <time>2021-08-10T11:34:50Z</time>
      </trkpt>
      <trkpt lat="48.44465" lon="4.5828">
        <ele>124.63</ele>
        <time>2021-08-10T11:34:57Z</time>
      </trkpt>
      <trkpt lat="48.44464" lon="4.58281">
        <ele>124.63</ele>
        <time>2021-08-10T11:35:26Z</time>
      </trkpt>
      <trkpt lat="48.44463" lon="4.58281">
        <ele>124.63</ele>
        <time>2021-08-10T11:35:50Z</time>
      </trkpt>
      <trkpt lat="48.44462" lon="4.58281">
        <ele>124.63</ele>
        <time>2021-08-10T11:36:06Z</time>
      </trkpt>
      <trkpt lat="48.44462" lon="4.58281">
        <ele>124.63</ele>
        <time>2021-08-10T11:36:25Z</time>
      </trkpt>
      <trkpt lat="48.44462" lon="4.58281">
        <ele>124.63</ele>
        <time>2021-08-10T11:36:42Z</time>
      </trkpt>
      <trkpt lat="48.44463" lon="4.58281">
        <ele>124.63</ele>
        <time>2021-08-10T11:36:58Z</time>
      </trkpt>
      <trkpt lat="48.44463" lon="4.58281">
        <ele>124.63</ele>
        <time>2021-08-10T11:37:13Z</time>
      </trkpt>
      <trkpt lat="48.44464" lon="4.58283">
        <ele>124.15</ele>
        <time>2021-08-10T11:37:30Z</time>
      </trkpt>
      <trkpt lat="48.44464" lon="4.58284">
        <ele>124.15</ele>
        <time>2021-08-10T11:37:45Z</time>
      </trkpt>
      <trkpt lat="48.44463" lon="4.58283">
        <ele>124.15</ele>
        <time>2021-08-10T11:37:59Z</time>
      </trkpt>
      <trkpt lat="48.44463" lon="4.58283">
        <ele>124.15</ele>
        <time>2021-08-10T11:38:12Z</time>
      </trkpt>
      <trkpt lat="48.44463" lon="4.58283">
        <ele>124.63</ele>
        <time>2021-08-10T11:38:24Z</time>
      </trkpt>
      <trkpt lat="48.44463" lon="4.58283">
        <ele>124.63</ele>
        <time>2021-08-10T11:38:37Z</time>
      </trkpt>
      <trkpt lat="48.44463" lon="4.58283">
        <ele>124.63</ele>
        <time>2021-08-10T11:38:50Z</time>
      </trkpt>
      <trkpt lat="48.44463" lon="4.58282">
        <ele>124.63</ele>
        <time>2021-08-10T11:39:06Z</time>
      </trkpt>
      <trkpt lat="48.44463" lon="4.58282">
        <ele>123.19</ele>
        <time>2021-08-10T11:39:20Z</time>
      </trkpt>
      <trkpt lat="48.44463" lon="4.58282">
        <ele>123.19</ele>
        <time>2021-08-10T11:39:37Z</time>
      </trkpt>
      <trkpt lat="48.44462" lon="4.58284">
        <ele>123.19</ele>
        <time>2021-08-10T11:39:49Z</time>
      </trkpt>
      <trkpt lat="48.44464" lon="4.58285">
        <ele>123.19</ele>
        <time>2021-08-10T11:39:53Z</time>
      </trkpt>
      <trkpt lat="48.44464" lon="4.58284">
        <ele>123.19</ele>
        <time>2021-08-10T11:39:59Z</time>
      </trkpt>
      <trkpt lat="48.44463" lon="4.58283">
        <ele>123.19</ele>
        <time>2021-08-10T11:40:18Z</time>
      </trkpt>
      <trkpt lat="48.44464" lon="4.58283">
        <ele>123.19</ele>
        <time>2021-08-10T11:40:35Z</time>
      </trkpt>
      <trkpt lat="48.44463" lon="4.58282">
        <ele>123.19</ele>
        <time>2021-08-10T11:40:46Z</time>
      </trkpt>
      <trkpt lat="48.44463" lon="4.58282">
        <ele>123.19</ele>
        <time>2021-08-10T11:41:01Z</time>
      </trkpt>
      <trkpt lat="48.44463" lon="4.58282">
        <ele>123.19</ele>
        <time>2021-08-10T11:41:17Z</time>
      </trkpt>
      <trkpt lat="48.44463" lon="4.58281">
        <ele>123.19</ele>
        <time>2021-08-10T11:41:34Z</time>
      </trkpt>
      <trkpt lat="48.44462" lon="4.58279">
        <ele>123.19</ele>
        <time>2021-08-10T11:41:52Z</time>
      </trkpt>
      <trkpt lat="48.44464" lon="4.5828">
        <ele>123.19</ele>
        <time>2021-08-10T11:42:12Z</time>
      </trkpt>
      <trkpt lat="48.44464" lon="4.58281">
        <ele>123.19</ele>
        <time>2021-08-10T11:42:27Z</time>
      </trkpt>
      <trkpt lat="48.44464" lon="4.58282">
        <ele>123.19</ele>
        <time>2021-08-10T11:42:49Z</time>
      </trkpt>
      <trkpt lat="48.44465" lon="4.58282">
        <ele>123.19</ele>
        <time>2021-08-10T11:43:03Z</time>
      </trkpt>
      <trkpt lat="48.44466" lon="4.58281">
        <ele>123.19</ele>
        <time>2021-08-10T11:43:19Z</time>
      </trkpt>
      <trkpt lat="48.44466" lon="4.5828">
        <ele>123.19</ele>
        <time>2021-08-10T11:43:36Z</time>
      </trkpt>
      <trkpt lat="48.44466" lon="4.58281">
        <ele>123.19</ele>
        <time>2021-08-10T11:43:55Z</time>
      </trkpt>
      <trkpt lat="48.44466" lon="4.58281">
        <ele>123.19</ele>
        <time>2021-08-10T11:44:08Z</time>
      </trkpt>
      <trkpt lat="48.44465" lon="4.58281">
        <ele>123.19</ele>
        <time>2021-08-10T11:44:23Z</time>
      </trkpt>
      <trkpt lat="48.44463" lon="4.5828">
        <ele>122.71</ele>
        <time>2021-08-10T11:44:44Z</time>
      </trkpt>
      <trkpt lat="48.44463" lon="4.5828">
        <ele>122.71</ele>
        <time>2021-08-10T11:44:56Z</time>
      </trkpt>
      <trkpt lat="48.44463" lon="4.58279">
        <ele>122.71</ele>
        <time>2021-08-10T11:45:09Z</time>
      </trkpt>
      <trkpt lat="48.44463" lon="4.58279">
        <ele>122.22</ele>
        <time>2021-08-10T11:45:21Z</time>
      </trkpt>
      <trkpt lat="48.44463" lon="4.58278">
        <ele>122.22</ele>
        <time>2021-08-10T11:45:40Z</time>
      </trkpt>
      <trkpt lat="48.44462" lon="4.5828">
        <ele>122.22</ele>
        <time>2021-08-10T11:46:10Z</time>
      </trkpt>
      <trkpt lat="48.44461" lon="4.58281">
        <ele>122.22</ele>
        <time>2021-08-10T11:46:36Z</time>
      </trkpt>
      <trkpt lat="48.4446" lon="4.58283">
        <ele>122.22</ele>
        <time>2021-08-10T11:47:05Z</time>
      </trkpt>
      <trkpt lat="48.44463" lon="4.58283">
        <ele>122.22</ele>
        <time>2021-08-10T11:47:20Z</time>
      </trkpt>
      <trkpt lat="48.44464" lon="4.58283">
        <ele>122.22</ele>
        <time>2021-08-10T11:47:34Z</time>
      </trkpt>
      <trkpt lat="48.44464" lon="4.58282">
        <ele>121.74</ele>
        <time>2021-08-10T11:48:01Z</time>
      </trkpt>
      <trkpt lat="48.44464" lon="4.58281">
        <ele>121.74</ele>
        <time>2021-08-10T11:48:22Z</time>
      </trkpt>
      <trkpt lat="48.44464" lon="4.58281">
        <ele>123.19</ele>
        <time>2021-08-10T11:48:27Z</time>
      </trkpt>
      <trkpt lat="48.44465" lon="4.58281">
        <ele>123.19</ele>
        <time>2021-08-10T11:48:48Z</time>
      </trkpt>
      <trkpt lat="48.44464" lon="4.5828">
        <ele>123.19</ele>
        <time>2021-08-10T11:49:18Z</time>
      </trkpt>
      <trkpt lat="48.44463" lon="4.58281">
        <ele>123.19</ele>
        <time>2021-08-10T11:49:45Z</time>
      </trkpt>
      <trkpt lat="48.44463" lon="4.58279">
        <ele>123.19</ele>
        <time>2021-08-10T11:49:51Z</time>
      </trkpt>
      <trkpt lat="48.44463" lon="4.5828">
        <ele>123.19</ele>
        <time>2021-08-10T11:50:01Z</time>
      </trkpt>
      <trkpt lat="48.44463" lon="4.58282">
        <ele>123.19</ele>
        <time>2021-08-10T11:50:22Z</time>
      </trkpt>
      <trkpt lat="48.44463" lon="4.58282">
        <ele>123.67</ele>
        <time>2021-08-10T11:50:38Z</time>
      </trkpt>
      <trkpt lat="48.44464" lon="4.58283">
        <ele>123.67</ele>
        <time>2021-08-10T11:50:55Z</time>
      </trkpt>
      <trkpt lat="48.44465" lon="4.58283">
        <ele>123.67</ele>
        <time>2021-08-10T11:51:04Z</time>
      </trkpt>
      <trkpt lat="48.44465" lon="4.58281">
        <ele>123.67</ele>
        <time>2021-08-10T11:51:15Z</time>
      </trkpt>
      <trkpt lat="48.44464" lon="4.58278">
        <ele>123.67</ele>
        <time>2021-08-10T11:51:26Z</time>
      </trkpt>
      <trkpt lat="48.44464" lon="4.58276">
        <ele>123.67</ele>
        <time>2021-08-10T11:51:33Z</time>
      </trkpt>
      <trkpt lat="48.44464" lon="4.58276">
        <ele>123.67</ele>
        <time>2021-08-10T11:51:38Z</time>
      </trkpt>
      <trkpt lat="48.44463" lon="4.58274">
        <ele>123.67</ele>
        <time>2021-08-10T11:51:39Z</time>
      </trkpt>
      <trkpt lat="48.44461" lon="4.58276">
        <ele>123.67</ele>
        <time>2021-08-10T11:51:45Z</time>
      </trkpt>
      <trkpt lat="48.44461" lon="4.58275">
        <ele>123.67</ele>
        <time>2021-08-10T11:52:02Z</time>
      </trkpt>
      <trkpt lat="48.44462" lon="4.58277">
        <ele>123.67</ele>
        <time>2021-08-10T11:52:06Z</time>
      </trkpt>
      <trkpt lat="48.44463" lon="4.58278">
        <ele>123.67</ele>
        <time>2021-08-10T11:52:07Z</time>
      </trkpt>
      <trkpt lat="48.44462" lon="4.58283">
        <ele>123.67</ele>
        <time>2021-08-10T11:52:11Z</time>
      </trkpt>
      <trkpt lat="48.44457" lon="4.58286">
        <ele>123.19</ele>
        <time>2021-08-10T11:52:19Z</time>
      </trkpt>
      <trkpt lat="48.44454" lon="4.5829">
        <ele>123.19</ele>
        <time>2021-08-10T11:52:26Z</time>
      </trkpt>
      <trkpt lat="48.44455" lon="4.5829">
        <ele>123.19</ele>
        <time>2021-08-10T11:52:37Z</time>
      </trkpt>
      <trkpt lat="48.44455" lon="4.58288">
        <ele>123.19</ele>
        <time>2021-08-10T11:52:45Z</time>
      </trkpt>
      <trkpt lat="48.44455" lon="4.58287">
        <ele>123.19</ele>
        <time>2021-08-10T11:53:03Z</time>
      </trkpt>
      <trkpt lat="48.44454" lon="4.58286">
        <ele>123.19</ele>
        <time>2021-08-10T11:53:04Z</time>
      </trkpt>
      <trkpt lat="48.44457" lon="4.58284">
        <ele>123.19</ele>
        <time>2021-08-10T11:53:09Z</time>
      </trkpt>
      <trkpt lat="48.44458" lon="4.58283">
        <ele>123.19</ele>
        <time>2021-08-10T11:53:11Z</time>
      </trkpt>
      <trkpt lat="48.44459" lon="4.58283">
        <ele>123.19</ele>
        <time>2021-08-10T11:53:12Z</time>
      </trkpt>
      <trkpt lat="48.4446" lon="4.58283">
        <ele>123.19</ele>
        <time>2021-08-10T11:53:13Z</time>
      </trkpt>
      <trkpt lat="48.44461" lon="4.58283">
        <ele>123.19</ele>
        <time>2021-08-10T11:53:14Z</time>
      </trkpt>
      <trkpt lat="48.44462" lon="4.58281">
        <ele>123.19</ele>
        <time>2021-08-10T11:53:15Z</time>
      </trkpt>
      <trkpt lat="48.44463" lon="4.58279">
        <ele>123.19</ele>
        <time>2021-08-10T11:53:16Z</time>
      </trkpt>
      <trkpt lat="48.44459" lon="4.58272">
        <ele>123.19</ele>
        <time>2021-08-10T11:53:19Z</time>
      </trkpt>
      <trkpt lat="48.44456" lon="4.58272">
        <ele>123.19</ele>
        <time>2021-08-10T11:53:20Z</time>
      </trkpt>
      <trkpt lat="48.44453" lon="4.58273">
        <ele>123.19</ele>
        <time>2021-08-10T11:53:21Z</time>
      </trkpt>
      <trkpt lat="48.44449" lon="4.58275">
        <ele>123.19</ele>
        <time>2021-08-10T11:53:22Z</time>
      </trkpt>
      <trkpt lat="48.44445" lon="4.58277">
        <ele>123.19</ele>
        <time>2021-08-10T11:53:23Z</time>
      </trkpt>
      <trkpt lat="48.44441" lon="4.5828">
        <ele>123.19</ele>
        <time>2021-08-10T11:53:24Z</time>
      </trkpt>
      <trkpt lat="48.44412" lon="4.58303">
        <ele>122.22</ele>
        <time>2021-08-10T11:53:31Z</time>
      </trkpt>
      <trkpt lat="48.4437" lon="4.58336">
        <ele>121.26</ele>
        <time>2021-08-10T11:53:40Z</time>
      </trkpt>
      <trkpt lat="48.44323" lon="4.58378">
        <ele>122.71</ele>
        <time>2021-08-10T11:53:51Z</time>
      </trkpt>
      <trkpt lat="48.44296" lon="4.58405">
        <ele>123.67</ele>
        <time>2021-08-10T11:53:58Z</time>
      </trkpt>
      <trkpt lat="48.44249" lon="4.5845">
        <ele>123.67</ele>
        <time>2021-08-10T11:54:09Z</time>
      </trkpt>
      <trkpt lat="48.44205" lon="4.58493">
        <ele>123.67</ele>
        <time>2021-08-10T11:54:19Z</time>
      </trkpt>
      <trkpt lat="48.44157" lon="4.58534">
        <ele>123.67</ele>
        <time>2021-08-10T11:54:29Z</time>
      </trkpt>
      <trkpt lat="48.44115" lon="4.58566">
        <ele>123.67</ele>
        <time>2021-08-10T11:54:37Z</time>
      </trkpt>
      <trkpt lat="48.44066" lon="4.58604">
        <ele>123.67</ele>
        <time>2021-08-10T11:54:46Z</time>
      </trkpt>
      <trkpt lat="48.4406" lon="4.58608">
        <ele>123.67</ele>
        <time>2021-08-10T11:54:47Z</time>
      </trkpt>
      <trkpt lat="48.44025" lon="4.58627">
        <ele>123.67</ele>
        <time>2021-08-10T11:54:53Z</time>
      </trkpt>
      <trkpt lat="48.43966" lon="4.5866">
        <ele>124.15</ele>
        <time>2021-08-10T11:55:04Z</time>
      </trkpt>
      <trkpt lat="48.43917" lon="4.58681">
        <ele>124.63</ele>
        <time>2021-08-10T11:55:13Z</time>
      </trkpt>
      <trkpt lat="48.43872" lon="4.58697">
        <ele>124.63</ele>
        <time>2021-08-10T11:55:21Z</time>
      </trkpt>
      <trkpt lat="48.43826" lon="4.58712">
        <ele>125.11</ele>
        <time>2021-08-10T11:55:29Z</time>
      </trkpt>
      <trkpt lat="48.43821" lon="4.58713">
        <ele>125.11</ele>
        <time>2021-08-10T11:55:30Z</time>
      </trkpt>
      <trkpt lat="48.43815" lon="4.58713">
        <ele>125.11</ele>
        <time>2021-08-10T11:55:31Z</time>
      </trkpt>
      <trkpt lat="48.43808" lon="4.58712">
        <ele>125.11</ele>
        <time>2021-08-10T11:55:32Z</time>
      </trkpt>
      <trkpt lat="48.43803" lon="4.5871">
        <ele>125.11</ele>
        <time>2021-08-10T11:55:33Z</time>
      </trkpt>
      <trkpt lat="48.43758" lon="4.58694">
        <ele>125.11</ele>
        <time>2021-08-10T11:55:41Z</time>
      </trkpt>
      <trkpt lat="48.43752" lon="4.58693">
        <ele>125.11</ele>
        <time>2021-08-10T11:55:42Z</time>
      </trkpt>
      <trkpt lat="48.43747" lon="4.58693">
        <ele>125.11</ele>
        <time>2021-08-10T11:55:43Z</time>
      </trkpt>
      <trkpt lat="48.43696" lon="4.58682">
        <ele>123.67</ele>
        <time>2021-08-10T11:55:51Z</time>
      </trkpt>
      <trkpt lat="48.43649" lon="4.58683">
        <ele>123.67</ele>
        <time>2021-08-10T11:55:59Z</time>
      </trkpt>
      <trkpt lat="48.4359" lon="4.58709">
        <ele>123.67</ele>
        <time>2021-08-10T11:56:09Z</time>
      </trkpt>
      <trkpt lat="48.43585" lon="4.58711">
        <ele>123.67</ele>
        <time>2021-08-10T11:56:10Z</time>
      </trkpt>
      <trkpt lat="48.43579" lon="4.58713">
        <ele>123.67</ele>
        <time>2021-08-10T11:56:11Z</time>
      </trkpt>
      <trkpt lat="48.43573" lon="4.58713">
        <ele>123.19</ele>
        <time>2021-08-10T11:56:12Z</time>
      </trkpt>
      <trkpt lat="48.43567" lon="4.5871">
        <ele>123.19</ele>
        <time>2021-08-10T11:56:13Z</time>
      </trkpt>
      <trkpt lat="48.43561" lon="4.58704">
        <ele>123.19</ele>
        <time>2021-08-10T11:56:14Z</time>
      </trkpt>
      <trkpt lat="48.43558" lon="4.58698">
        <ele>123.19</ele>
        <time>2021-08-10T11:56:15Z</time>
      </trkpt>
      <trkpt lat="48.43555" lon="4.58691">
        <ele>123.19</ele>
        <time>2021-08-10T11:56:16Z</time>
      </trkpt>
      <trkpt lat="48.43552" lon="4.58683">
        <ele>123.19</ele>
        <time>2021-08-10T11:56:17Z</time>
      </trkpt>
      <trkpt lat="48.43529" lon="4.58623">
        <ele>124.63</ele>
        <time>2021-08-10T11:56:25Z</time>
      </trkpt>
      <trkpt lat="48.43501" lon="4.58547">
        <ele>123.19</ele>
        <time>2021-08-10T11:56:35Z</time>
      </trkpt>
      <trkpt lat="48.43498" lon="4.58539">
        <ele>123.19</ele>
        <time>2021-08-10T11:56:36Z</time>
      </trkpt>
      <trkpt lat="48.43472" lon="4.5847">
        <ele>121.74</ele>
        <time>2021-08-10T11:56:45Z</time>
      </trkpt>
      <trkpt lat="48.43448" lon="4.58403">
        <ele>121.26</ele>
        <time>2021-08-10T11:56:53Z</time>
      </trkpt>
      <trkpt lat="48.43417" lon="4.58316">
        <ele>119.34</ele>
        <time>2021-08-10T11:57:03Z</time>
      </trkpt>
      <trkpt lat="48.43389" lon="4.58237">
        <ele>120.78</ele>
        <time>2021-08-10T11:57:13Z</time>
      </trkpt>
      <trkpt lat="48.43355" lon="4.58143">
        <ele>120.78</ele>
        <time>2021-08-10T11:57:25Z</time>
      </trkpt>
      <trkpt lat="48.43325" lon="4.58062">
        <ele>120.78</ele>
        <time>2021-08-10T11:57:35Z</time>
      </trkpt>
      <trkpt lat="48.43287" lon="4.57957">
        <ele>120.78</ele>
        <time>2021-08-10T11:57:48Z</time>
      </trkpt>
      <trkpt lat="48.43261" lon="4.57885">
        <ele>120.78</ele>
        <time>2021-08-10T11:57:57Z</time>
      </trkpt>
      <trkpt lat="48.43236" lon="4.57817">
        <ele>120.78</ele>
        <time>2021-08-10T11:58:06Z</time>
      </trkpt>
      <trkpt lat="48.43209" lon="4.57745">
        <ele>121.74</ele>
        <time>2021-08-10T11:58:16Z</time>
      </trkpt>
      <trkpt lat="48.43185" lon="4.57678">
        <ele>121.74</ele>
        <time>2021-08-10T11:58:25Z</time>
      </trkpt>
      <trkpt lat="48.43155" lon="4.57597">
        <ele>121.74</ele>
        <time>2021-08-10T11:58:36Z</time>
      </trkpt>
      <trkpt lat="48.43147" lon="4.57574">
        <ele>120.3</ele>
        <time>2021-08-10T11:58:39Z</time>
      </trkpt>
      <trkpt lat="48.43115" lon="4.57506">
        <ele>120.3</ele>
        <time>2021-08-10T11:58:49Z</time>
      </trkpt>
      <trkpt lat="48.4309" lon="4.57471">
        <ele>119.82</ele>
        <time>2021-08-10T11:58:56Z</time>
      </trkpt>
      <trkpt lat="48.43047" lon="4.57411">
        <ele>119.82</ele>
        <time>2021-08-10T11:59:08Z</time>
      </trkpt>
      <trkpt lat="48.43013" lon="4.57363">
        <ele>119.82</ele>
        <time>2021-08-10T11:59:18Z</time>
      </trkpt>
      <trkpt lat="48.4298" lon="4.57321">
        <ele>121.26</ele>
        <time>2021-08-10T11:59:27Z</time>
      </trkpt>
      <trkpt lat="48.42948" lon="4.57277">
        <ele>121.26</ele>
        <time>2021-08-10T11:59:36Z</time>
      </trkpt>
      <trkpt lat="48.42911" lon="4.57226">
        <ele>121.26</ele>
        <time>2021-08-10T11:59:46Z</time>
      </trkpt>
      <trkpt lat="48.42878" lon="4.57181">
        <ele>121.26</ele>
        <time>2021-08-10T11:59:55Z</time>
      </trkpt>
      <trkpt lat="48.42841" lon="4.57131">
        <ele>121.26</ele>
        <time>2021-08-10T12:00:05Z</time>
      </trkpt>
      <trkpt lat="48.42807" lon="4.57084">
        <ele>121.26</ele>
        <time>2021-08-10T12:00:14Z</time>
      </trkpt>
      <trkpt lat="48.42777" lon="4.57044">
        <ele>121.74</ele>
        <time>2021-08-10T12:00:22Z</time>
      </trkpt>
      <trkpt lat="48.4274" lon="4.56992">
        <ele>121.74</ele>
        <time>2021-08-10T12:00:32Z</time>
      </trkpt>
      <trkpt lat="48.42702" lon="4.56941">
        <ele>122.22</ele>
        <time>2021-08-10T12:00:42Z</time>
      </trkpt>
      <trkpt lat="48.42676" lon="4.56907">
        <ele>121.26</ele>
        <time>2021-08-10T12:00:50Z</time>
      </trkpt>
      <trkpt lat="48.42667" lon="4.56894">
        <ele>121.26</ele>
        <time>2021-08-10T12:00:53Z</time>
      </trkpt>
      <trkpt lat="48.42647" lon="4.56866">
        <ele>121.26</ele>
        <time>2021-08-10T12:00:59Z</time>
      </trkpt>
      <trkpt lat="48.4264" lon="4.56856">
        <ele>121.26</ele>
        <time>2021-08-10T12:01:01Z</time>
      </trkpt>
      <trkpt lat="48.42604" lon="4.56807">
        <ele>121.26</ele>
        <time>2021-08-10T12:01:11Z</time>
      </trkpt>
      <trkpt lat="48.42568" lon="4.56755">
        <ele>121.26</ele>
        <time>2021-08-10T12:01:21Z</time>
      </trkpt>
      <trkpt lat="48.42548" lon="4.56729">
        <ele>121.26</ele>
        <time>2021-08-10T12:01:26Z</time>
      </trkpt>
      <trkpt lat="48.42545" lon="4.56724">
        <ele>121.26</ele>
        <time>2021-08-10T12:01:27Z</time>
      </trkpt>
      <trkpt lat="48.42493" lon="4.56655">
        <ele>121.26</ele>
        <time>2021-08-10T12:01:40Z</time>
      </trkpt>
      <trkpt lat="48.42461" lon="4.56611">
        <ele>122.71</ele>
        <time>2021-08-10T12:01:48Z</time>
      </trkpt>
      <trkpt lat="48.42426" lon="4.56564">
        <ele>122.71</ele>
        <time>2021-08-10T12:01:56Z</time>
      </trkpt>
      <trkpt lat="48.42399" lon="4.56526">
        <ele>123.19</ele>
        <time>2021-08-10T12:02:03Z</time>
      </trkpt>
      <trkpt lat="48.42375" lon="4.56494">
        <ele>123.19</ele>
        <time>2021-08-10T12:02:09Z</time>
      </trkpt>
      <trkpt lat="48.42335" lon="4.56439">
        <ele>123.19</ele>
        <time>2021-08-10T12:02:19Z</time>
      </trkpt>
      <trkpt lat="48.42309" lon="4.56403">
        <ele>121.74</ele>
        <time>2021-08-10T12:02:26Z</time>
      </trkpt>
      <trkpt lat="48.42278" lon="4.56361">
        <ele>121.74</ele>
        <time>2021-08-10T12:02:34Z</time>
      </trkpt>
      <trkpt lat="48.42235" lon="4.56304">
        <ele>123.19</ele>
        <time>2021-08-10T12:02:45Z</time>
      </trkpt>
      <trkpt lat="48.42196" lon="4.5625">
        <ele>123.19</ele>
        <time>2021-08-10T12:02:55Z</time>
      </trkpt>
      <trkpt lat="48.42183" lon="4.56233">
        <ele>123.19</ele>
        <time>2021-08-10T12:02:58Z</time>
      </trkpt>
      <trkpt lat="48.42179" lon="4.56228">
        <ele>123.19</ele>
        <time>2021-08-10T12:02:59Z</time>
      </trkpt>
      <trkpt lat="48.42143" lon="4.56179">
        <ele>123.19</ele>
        <time>2021-08-10T12:03:08Z</time>
      </trkpt>
      <trkpt lat="48.42101" lon="4.56144">
        <ele>123.19</ele>
        <time>2021-08-10T12:03:17Z</time>
      </trkpt>
      <trkpt lat="48.42049" lon="4.56118">
        <ele>123.19</ele>
        <time>2021-08-10T12:03:27Z</time>
      </trkpt>
      <trkpt lat="48.41982" lon="4.56085">
        <ele>123.19</ele>
        <time>2021-08-10T12:03:40Z</time>
      </trkpt>
      <trkpt lat="48.4193" lon="4.56058">
        <ele>123.19</ele>
        <time>2021-08-10T12:03:50Z</time>
      </trkpt>
      <trkpt lat="48.41883" lon="4.56037">
        <ele>123.19</ele>
        <time>2021-08-10T12:03:59Z</time>
      </trkpt>
      <trkpt lat="48.41868" lon="4.5603">
        <ele>123.19</ele>
        <time>2021-08-10T12:04:02Z</time>
      </trkpt>
      <trkpt lat="48.41862" lon="4.56027">
        <ele>123.19</ele>
        <time>2021-08-10T12:04:03Z</time>
      </trkpt>
      <trkpt lat="48.4181" lon="4.55999">
        <ele>123.19</ele>
        <time>2021-08-10T12:04:13Z</time>
      </trkpt>
      <trkpt lat="48.41747" lon="4.55968">
        <ele>123.19</ele>
        <time>2021-08-10T12:04:25Z</time>
      </trkpt>
      <trkpt lat="48.41702" lon="4.55945">
        <ele>123.19</ele>
        <time>2021-08-10T12:04:34Z</time>
      </trkpt>
      <trkpt lat="48.41646" lon="4.55917">
        <ele>123.19</ele>
        <time>2021-08-10T12:04:45Z</time>
      </trkpt>
      <trkpt lat="48.4164" lon="4.55913">
        <ele>123.19</ele>
        <time>2021-08-10T12:04:46Z</time>
      </trkpt>
      <trkpt lat="48.41635" lon="4.5591">
        <ele>123.19</ele>
        <time>2021-08-10T12:04:47Z</time>
      </trkpt>
      <trkpt lat="48.41583" lon="4.55885">
        <ele>123.19</ele>
        <time>2021-08-10T12:04:57Z</time>
      </trkpt>
      <trkpt lat="48.41535" lon="4.55862">
        <ele>123.67</ele>
        <time>2021-08-10T12:05:06Z</time>
      </trkpt>
      <trkpt lat="48.41496" lon="4.55842">
        <ele>124.15</ele>
        <time>2021-08-10T12:05:14Z</time>
      </trkpt>
      <trkpt lat="48.4143" lon="4.5581">
        <ele>124.15</ele>
        <time>2021-08-10T12:05:27Z</time>
      </trkpt>
      <trkpt lat="48.41371" lon="4.5578">
        <ele>124.15</ele>
        <time>2021-08-10T12:05:38Z</time>
      </trkpt>
      <trkpt lat="48.41308" lon="4.55748">
        <ele>124.15</ele>
        <time>2021-08-10T12:05:50Z</time>
      </trkpt>
      <trkpt lat="48.41241" lon="4.55714">
        <ele>124.15</ele>
        <time>2021-08-10T12:06:03Z</time>
      </trkpt>
      <trkpt lat="48.412" lon="4.55695">
        <ele>124.63</ele>
        <time>2021-08-10T12:06:11Z</time>
      </trkpt>
      <trkpt lat="48.41154" lon="4.55672">
        <ele>124.63</ele>
        <time>2021-08-10T12:06:20Z</time>
      </trkpt>
      <trkpt lat="48.41098" lon="4.55645">
        <ele>124.63</ele>
        <time>2021-08-10T12:06:31Z</time>
      </trkpt>
      <trkpt lat="48.41039" lon="4.55614">
        <ele>124.63</ele>
        <time>2021-08-10T12:06:42Z</time>
      </trkpt>
      <trkpt lat="48.40979" lon="4.55585">
        <ele>124.63</ele>
        <time>2021-08-10T12:06:53Z</time>
      </trkpt>
      <trkpt lat="48.4092" lon="4.55555">
        <ele>125.11</ele>
        <time>2021-08-10T12:07:04Z</time>
      </trkpt>
      <trkpt lat="48.40867" lon="4.55527">
        <ele>125.11</ele>
        <time>2021-08-10T12:07:14Z</time>
      </trkpt>
      <trkpt lat="48.40829" lon="4.55507">
        <ele>125.59</ele>
        <time>2021-08-10T12:07:22Z</time>
      </trkpt>
      <trkpt lat="48.40825" lon="4.55504">
        <ele>125.59</ele>
        <time>2021-08-10T12:07:23Z</time>
      </trkpt>
      <trkpt lat="48.40818" lon="4.55496">
        <ele>125.59</ele>
        <time>2021-08-10T12:07:25Z</time>
      </trkpt>
      <trkpt lat="48.40798" lon="4.55454">
        <ele>125.59</ele>
        <time>2021-08-10T12:07:32Z</time>
      </trkpt>
      <trkpt lat="48.40772" lon="4.55398">
        <ele>125.59</ele>
        <time>2021-08-10T12:07:40Z</time>
      </trkpt>
      <trkpt lat="48.40741" lon="4.55335">
        <ele>125.59</ele>
        <time>2021-08-10T12:07:49Z</time>
      </trkpt>
      <trkpt lat="48.40709" lon="4.55267">
        <ele>125.59</ele>
        <time>2021-08-10T12:07:59Z</time>
      </trkpt>
      <trkpt lat="48.40692" lon="4.55232">
        <ele>124.15</ele>
        <time>2021-08-10T12:08:04Z</time>
      </trkpt>
      <trkpt lat="48.40652" lon="4.55151">
        <ele>124.15</ele>
        <time>2021-08-10T12:08:16Z</time>
      </trkpt>
      <trkpt lat="48.4062" lon="4.55083">
        <ele>124.15</ele>
        <time>2021-08-10T12:08:26Z</time>
      </trkpt>
      <trkpt lat="48.40584" lon="4.5501">
        <ele>125.59</ele>
        <time>2021-08-10T12:08:37Z</time>
      </trkpt>
      <trkpt lat="48.40553" lon="4.54944">
        <ele>125.11</ele>
        <time>2021-08-10T12:08:47Z</time>
      </trkpt>
      <trkpt lat="48.40521" lon="4.5488">
        <ele>126.07</ele>
        <time>2021-08-10T12:08:57Z</time>
      </trkpt>
      <trkpt lat="48.40487" lon="4.54809">
        <ele>126.07</ele>
        <time>2021-08-10T12:09:08Z</time>
      </trkpt>
      <trkpt lat="48.40483" lon="4.54801">
        <ele>126.07</ele>
        <time>2021-08-10T12:09:09Z</time>
      </trkpt>
      <trkpt lat="48.40451" lon="4.54736">
        <ele>126.07</ele>
        <time>2021-08-10T12:09:19Z</time>
      </trkpt>
      <trkpt lat="48.40413" lon="4.54657">
        <ele>126.07</ele>
        <time>2021-08-10T12:09:31Z</time>
      </trkpt>
      <trkpt lat="48.40374" lon="4.54575">
        <ele>126.07</ele>
        <time>2021-08-10T12:09:43Z</time>
      </trkpt>
      <trkpt lat="48.40348" lon="4.54522">
        <ele>126.07</ele>
        <time>2021-08-10T12:09:51Z</time>
      </trkpt>
      <trkpt lat="48.40318" lon="4.5446">
        <ele>126.07</ele>
        <time>2021-08-10T12:10:00Z</time>
      </trkpt>
      <trkpt lat="48.40295" lon="4.54413">
        <ele>125.59</ele>
        <time>2021-08-10T12:10:07Z</time>
      </trkpt>
      <trkpt lat="48.40265" lon="4.5435">
        <ele>125.59</ele>
        <time>2021-08-10T12:10:16Z</time>
      </trkpt>
      <trkpt lat="48.40224" lon="4.54264">
        <ele>126.07</ele>
        <time>2021-08-10T12:10:28Z</time>
      </trkpt>
      <trkpt lat="48.40186" lon="4.54187">
        <ele>126.07</ele>
        <time>2021-08-10T12:10:39Z</time>
      </trkpt>
      <trkpt lat="48.40148" lon="4.54108">
        <ele>126.07</ele>
        <time>2021-08-10T12:10:50Z</time>
      </trkpt>
      <trkpt lat="48.40109" lon="4.54029">
        <ele>126.07</ele>
        <time>2021-08-10T12:11:01Z</time>
      </trkpt>
      <trkpt lat="48.40089" lon="4.53986">
        <ele>126.07</ele>
        <time>2021-08-10T12:11:07Z</time>
      </trkpt>
      <trkpt lat="48.40057" lon="4.53917">
        <ele>126.07</ele>
        <time>2021-08-10T12:11:17Z</time>
      </trkpt>
      <trkpt lat="48.4003" lon="4.53863">
        <ele>126.07</ele>
        <time>2021-08-10T12:11:26Z</time>
      </trkpt>
      <trkpt lat="48.39995" lon="4.53788">
        <ele>126.07</ele>
        <time>2021-08-10T12:11:37Z</time>
      </trkpt>
      <trkpt lat="48.39969" lon="4.53735">
        <ele>126.07</ele>
        <time>2021-08-10T12:11:45Z</time>
      </trkpt>
      <trkpt lat="48.3994" lon="4.53675">
        <ele>126.07</ele>
        <time>2021-08-10T12:11:54Z</time>
      </trkpt>
      <trkpt lat="48.39899" lon="4.53591">
        <ele>126.07</ele>
        <time>2021-08-10T12:12:06Z</time>
      </trkpt>
      <trkpt lat="48.39868" lon="4.53528">
        <ele>126.07</ele>
        <time>2021-08-10T12:12:15Z</time>
      </trkpt>
      <trkpt lat="48.39834" lon="4.53457">
        <ele>126.07</ele>
        <time>2021-08-10T12:12:25Z</time>
      </trkpt>
      <trkpt lat="48.39802" lon="4.53393">
        <ele>126.07</ele>
        <time>2021-08-10T12:12:34Z</time>
      </trkpt>
      <trkpt lat="48.39795" lon="4.53379">
        <ele>126.07</ele>
        <time>2021-08-10T12:12:36Z</time>
      </trkpt>
      <trkpt lat="48.39767" lon="4.53317">
        <ele>126.07</ele>
        <time>2021-08-10T12:12:45Z</time>
      </trkpt>
      <trkpt lat="48.39734" lon="4.53247">
        <ele>127.03</ele>
        <time>2021-08-10T12:12:56Z</time>
      </trkpt>
      <trkpt lat="48.39731" lon="4.53241">
        <ele>127.03</ele>
        <time>2021-08-10T12:12:57Z</time>
      </trkpt>
      <trkpt lat="48.39729" lon="4.53236">
        <ele>127.03</ele>
        <time>2021-08-10T12:12:58Z</time>
      </trkpt>
      <trkpt lat="48.39726" lon="4.53231">
        <ele>127.03</ele>
        <time>2021-08-10T12:12:59Z</time>
      </trkpt>
      <trkpt lat="48.39715" lon="4.53207">
        <ele>127.03</ele>
        <time>2021-08-10T12:13:03Z</time>
      </trkpt>
      <trkpt lat="48.39706" lon="4.53187">
        <ele>125.59</ele>
        <time>2021-08-10T12:13:06Z</time>
      </trkpt>
      <trkpt lat="48.39679" lon="4.53135">
        <ele>125.59</ele>
        <time>2021-08-10T12:13:14Z</time>
      </trkpt>
      <trkpt lat="48.39651" lon="4.53077">
        <ele>125.59</ele>
        <time>2021-08-10T12:13:23Z</time>
      </trkpt>
      <trkpt lat="48.39617" lon="4.53006">
        <ele>125.59</ele>
        <time>2021-08-10T12:13:34Z</time>
      </trkpt>
      <trkpt lat="48.39607" lon="4.52987">
        <ele>125.59</ele>
        <time>2021-08-10T12:13:37Z</time>
      </trkpt>
      <trkpt lat="48.39604" lon="4.52981">
        <ele>125.59</ele>
        <time>2021-08-10T12:13:38Z</time>
      </trkpt>
      <trkpt lat="48.39576" lon="4.52923">
        <ele>125.59</ele>
        <time>2021-08-10T12:13:47Z</time>
      </trkpt>
      <trkpt lat="48.39556" lon="4.52876">
        <ele>127.51</ele>
        <time>2021-08-10T12:13:55Z</time>
      </trkpt>
      <trkpt lat="48.39552" lon="4.52859">
        <ele>127.51</ele>
        <time>2021-08-10T12:13:59Z</time>
      </trkpt>
      <trkpt lat="48.39537" lon="4.52839">
        <ele>127.51</ele>
        <time>2021-08-10T12:14:04Z</time>
      </trkpt>
      <trkpt lat="48.39523" lon="4.52814">
        <ele>127.51</ele>
        <time>2021-08-10T12:14:09Z</time>
      </trkpt>
      <trkpt lat="48.39492" lon="4.52756">
        <ele>126.07</ele>
        <time>2021-08-10T12:14:19Z</time>
      </trkpt>
      <trkpt lat="48.39462" lon="4.52697">
        <ele>126.07</ele>
        <time>2021-08-10T12:14:29Z</time>
      </trkpt>
      <trkpt lat="48.39451" lon="4.52673">
        <ele>126.07</ele>
        <time>2021-08-10T12:14:33Z</time>
      </trkpt>
      <trkpt lat="48.39448" lon="4.52668">
        <ele>126.07</ele>
        <time>2021-08-10T12:14:34Z</time>
      </trkpt>
      <trkpt lat="48.39426" lon="4.52615">
        <ele>127.51</ele>
        <time>2021-08-10T12:14:44Z</time>
      </trkpt>
      <trkpt lat="48.39424" lon="4.52611">
        <ele>127.51</ele>
        <time>2021-08-10T12:14:45Z</time>
      </trkpt>
      <trkpt lat="48.39413" lon="4.52596">
        <ele>127.51</ele>
        <time>2021-08-10T12:14:50Z</time>
      </trkpt>
      <trkpt lat="48.39409" lon="4.52597">
        <ele>127.99</ele>
        <time>2021-08-10T12:14:51Z</time>
      </trkpt>
      <trkpt lat="48.39407" lon="4.526">
        <ele>127.99</ele>
        <time>2021-08-10T12:14:52Z</time>
      </trkpt>
      <trkpt lat="48.39403" lon="4.52603">
        <ele>127.99</ele>
        <time>2021-08-10T12:14:53Z</time>
      </trkpt>
      <trkpt lat="48.394" lon="4.52607">
        <ele>127.99</ele>
        <time>2021-08-10T12:14:54Z</time>
      </trkpt>
      <trkpt lat="48.39396" lon="4.5261">
        <ele>127.99</ele>
        <time>2021-08-10T12:14:55Z</time>
      </trkpt>
      <trkpt lat="48.39391" lon="4.52613">
        <ele>127.99</ele>
        <time>2021-08-10T12:14:56Z</time>
      </trkpt>
      <trkpt lat="48.39387" lon="4.52616">
        <ele>127.99</ele>
        <time>2021-08-10T12:14:57Z</time>
      </trkpt>
      <trkpt lat="48.39383" lon="4.52619">
        <ele>127.99</ele>
        <time>2021-08-10T12:14:58Z</time>
      </trkpt>
      <trkpt lat="48.39348" lon="4.52649">
        <ele>128.47</ele>
        <time>2021-08-10T12:15:07Z</time>
      </trkpt>
      <trkpt lat="48.39344" lon="4.52651">
        <ele>128.47</ele>
        <time>2021-08-10T12:15:08Z</time>
      </trkpt>
      <trkpt lat="48.39319" lon="4.52667">
        <ele>128.95</ele>
        <time>2021-08-10T12:15:14Z</time>
      </trkpt>
      <trkpt lat="48.39315" lon="4.52669">
        <ele>128.95</ele>
        <time>2021-08-10T12:15:15Z</time>
      </trkpt>
      <trkpt lat="48.3929" lon="4.52684">
        <ele>128.95</ele>
        <time>2021-08-10T12:15:21Z</time>
      </trkpt>
      <trkpt lat="48.39267" lon="4.52697">
        <ele>128.95</ele>
        <time>2021-08-10T12:15:26Z</time>
      </trkpt>
      <trkpt lat="48.39249" lon="4.52705">
        <ele>128.95</ele>
        <time>2021-08-10T12:15:30Z</time>
      </trkpt>
      <trkpt lat="48.39244" lon="4.52706">
        <ele>128.95</ele>
        <time>2021-08-10T12:15:31Z</time>
      </trkpt>
      <trkpt lat="48.3924" lon="4.52706">
        <ele>128.95</ele>
        <time>2021-08-10T12:15:32Z</time>
      </trkpt>
      <trkpt lat="48.39235" lon="4.52704">
        <ele>128.95</ele>
        <time>2021-08-10T12:15:33Z</time>
      </trkpt>
      <trkpt lat="48.39231" lon="4.52701">
        <ele>127.51</ele>
        <time>2021-08-10T12:15:34Z</time>
      </trkpt>
      <trkpt lat="48.39228" lon="4.52696">
        <ele>127.51</ele>
        <time>2021-08-10T12:15:35Z</time>
      </trkpt>
      <trkpt lat="48.39227" lon="4.52689">
        <ele>127.51</ele>
        <time>2021-08-10T12:15:36Z</time>
      </trkpt>
      <trkpt lat="48.39227" lon="4.52682">
        <ele>127.51</ele>
        <time>2021-08-10T12:15:37Z</time>
      </trkpt>
      <trkpt lat="48.39227" lon="4.52674">
        <ele>127.51</ele>
        <time>2021-08-10T12:15:38Z</time>
      </trkpt>
      <trkpt lat="48.39218" lon="4.526">
        <ele>127.51</ele>
        <time>2021-08-10T12:15:48Z</time>
      </trkpt>
      <trkpt lat="48.39208" lon="4.52526">
        <ele>126.55</ele>
        <time>2021-08-10T12:15:58Z</time>
      </trkpt>
      <trkpt lat="48.392" lon="4.52463">
        <ele>127.99</ele>
        <time>2021-08-10T12:16:07Z</time>
      </trkpt>
      <trkpt lat="48.39199" lon="4.52457">
        <ele>127.99</ele>
        <time>2021-08-10T12:16:08Z</time>
      </trkpt>
      <trkpt lat="48.39197" lon="4.52451">
        <ele>127.99</ele>
        <time>2021-08-10T12:16:09Z</time>
      </trkpt>
      <trkpt lat="48.39195" lon="4.52446">
        <ele>128.47</ele>
        <time>2021-08-10T12:16:10Z</time>
      </trkpt>
      <trkpt lat="48.39192" lon="4.52443">
        <ele>128.47</ele>
        <time>2021-08-10T12:16:11Z</time>
      </trkpt>
      <trkpt lat="48.39189" lon="4.52442">
        <ele>128.95</ele>
        <time>2021-08-10T12:16:12Z</time>
      </trkpt>
      <trkpt lat="48.39185" lon="4.52443">
        <ele>128.95</ele>
        <time>2021-08-10T12:16:13Z</time>
      </trkpt>
      <trkpt lat="48.39181" lon="4.52445">
        <ele>128.95</ele>
        <time>2021-08-10T12:16:14Z</time>
      </trkpt>
      <trkpt lat="48.39165" lon="4.52451">
        <ele>128.95</ele>
        <time>2021-08-10T12:16:18Z</time>
      </trkpt>
      <trkpt lat="48.39161" lon="4.52452">
        <ele>128.95</ele>
        <time>2021-08-10T12:16:19Z</time>
      </trkpt>
      <trkpt lat="48.39157" lon="4.52453">
        <ele>128.95</ele>
        <time>2021-08-10T12:16:20Z</time>
      </trkpt>
      <trkpt lat="48.39152" lon="4.52454">
        <ele>128.95</ele>
        <time>2021-08-10T12:16:21Z</time>
      </trkpt>
      <trkpt lat="48.39148" lon="4.52455">
        <ele>128.95</ele>
        <time>2021-08-10T12:16:22Z</time>
      </trkpt>
      <trkpt lat="48.39121" lon="4.5246">
        <ele>127.99</ele>
        <time>2021-08-10T12:16:28Z</time>
      </trkpt>
      <trkpt lat="48.39117" lon="4.52461">
        <ele>127.99</ele>
        <time>2021-08-10T12:16:29Z</time>
      </trkpt>
      <trkpt lat="48.39113" lon="4.52463">
        <ele>127.99</ele>
        <time>2021-08-10T12:16:30Z</time>
      </trkpt>
      <trkpt lat="48.3911" lon="4.52466">
        <ele>127.99</ele>
        <time>2021-08-10T12:16:31Z</time>
      </trkpt>
      <trkpt lat="48.39108" lon="4.52471">
        <ele>127.99</ele>
        <time>2021-08-10T12:16:32Z</time>
      </trkpt>
      <trkpt lat="48.39107" lon="4.52477">
        <ele>127.99</ele>
        <time>2021-08-10T12:16:33Z</time>
      </trkpt>
      <trkpt lat="48.39106" lon="4.5248">
        <ele>127.99</ele>
        <time>2021-08-10T12:16:34Z</time>
      </trkpt>
      <trkpt lat="48.39105" lon="4.52483">
        <ele>127.99</ele>
        <time>2021-08-10T12:16:38Z</time>
      </trkpt>
      <trkpt lat="48.39106" lon="4.52482">
        <ele>127.99</ele>
        <time>2021-08-10T12:16:47Z</time>
      </trkpt>
      <trkpt lat="48.39107" lon="4.52482">
        <ele>127.99</ele>
        <time>2021-08-10T12:17:01Z</time>
      </trkpt>
      <trkpt lat="48.39108" lon="4.52483">
        <ele>127.99</ele>
        <time>2021-08-10T12:17:16Z</time>
      </trkpt>
      <trkpt lat="48.39109" lon="4.52482">
        <ele>127.99</ele>
        <time>2021-08-10T12:17:35Z</time>
      </trkpt>
      <trkpt lat="48.39108" lon="4.52482">
        <ele>127.99</ele>
        <time>2021-08-10T12:17:51Z</time>
      </trkpt>
      <trkpt lat="48.39108" lon="4.5248">
        <ele>127.99</ele>
        <time>2021-08-10T12:18:00Z</time>
      </trkpt>
      <trkpt lat="48.39108" lon="4.52479">
        <ele>127.99</ele>
        <time>2021-08-10T12:18:17Z</time>
      </trkpt>
      <trkpt lat="48.39108" lon="4.5248">
        <ele>127.99</ele>
        <time>2021-08-10T12:18:31Z</time>
      </trkpt>
      <trkpt lat="48.39108" lon="4.52478">
        <ele>127.99</ele>
        <time>2021-08-10T12:18:49Z</time>
      </trkpt>
      <trkpt lat="48.39108" lon="4.52479">
        <ele>127.99</ele>
        <time>2021-08-10T12:19:03Z</time>
      </trkpt>
      <trkpt lat="48.39108" lon="4.52478">
        <ele>127.99</ele>
        <time>2021-08-10T12:19:17Z</time>
      </trkpt>
      <trkpt lat="48.39107" lon="4.52476">
        <ele>127.99</ele>
        <time>2021-08-10T12:19:36Z</time>
      </trkpt>
      <trkpt lat="48.39106" lon="4.52477">
        <ele>127.99</ele>
        <time>2021-08-10T12:19:51Z</time>
      </trkpt>
      <trkpt lat="48.39107" lon="4.52476">
        <ele>127.99</ele>
        <time>2021-08-10T12:19:54Z</time>
      </trkpt>
      <trkpt lat="48.39109" lon="4.52473">
        <ele>127.99</ele>
        <time>2021-08-10T12:19:55Z</time>
      </trkpt>
      <trkpt lat="48.3911" lon="4.52472">
        <ele>127.99</ele>
        <time>2021-08-10T12:19:58Z</time>
      </trkpt>
      <trkpt lat="48.3911" lon="4.52473">
        <ele>127.99</ele>
        <time>2021-08-10T12:20:00Z</time>
      </trkpt>
      <trkpt lat="48.3911" lon="4.52474">
        <ele>127.99</ele>
        <time>2021-08-10T12:20:06Z</time>
      </trkpt>
      <trkpt lat="48.3911" lon="4.52474">
        <ele>127.99</ele>
        <time>2021-08-10T12:20:23Z</time>
      </trkpt>
      <trkpt lat="48.39109" lon="4.52475">
        <ele>127.99</ele>
        <time>2021-08-10T12:20:40Z</time>
      </trkpt>
      <trkpt lat="48.39109" lon="4.52474">
        <ele>127.99</ele>
        <time>2021-08-10T12:20:52Z</time>
      </trkpt>
      <trkpt lat="48.39109" lon="4.52476">
        <ele>127.99</ele>
        <time>2021-08-10T12:21:03Z</time>
      </trkpt>
      <trkpt lat="48.39109" lon="4.52477">
        <ele>127.99</ele>
        <time>2021-08-10T12:21:19Z</time>
      </trkpt>
      <trkpt lat="48.39108" lon="4.52477">
        <ele>127.99</ele>
        <time>2021-08-10T12:21:33Z</time>
      </trkpt>
      <trkpt lat="48.39106" lon="4.52477">
        <ele>127.99</ele>
        <time>2021-08-10T12:21:50Z</time>
      </trkpt>
      <trkpt lat="48.39105" lon="4.52476">
        <ele>127.99</ele>
        <time>2021-08-10T12:22:03Z</time>
      </trkpt>
      <trkpt lat="48.39105" lon="4.52478">
        <ele>127.99</ele>
        <time>2021-08-10T12:22:22Z</time>
      </trkpt>
      <trkpt lat="48.39108" lon="4.5248">
        <ele>127.99</ele>
        <time>2021-08-10T12:22:40Z</time>
      </trkpt>
      <trkpt lat="48.39107" lon="4.52479">
        <ele>127.99</ele>
        <time>2021-08-10T12:22:52Z</time>
      </trkpt>
      <trkpt lat="48.39107" lon="4.5248">
        <ele>127.99</ele>
        <time>2021-08-10T12:23:09Z</time>
      </trkpt>
      <trkpt lat="48.39106" lon="4.52482">
        <ele>127.99</ele>
        <time>2021-08-10T12:23:28Z</time>
      </trkpt>
      <trkpt lat="48.39106" lon="4.52482">
        <ele>127.99</ele>
        <time>2021-08-10T12:23:46Z</time>
      </trkpt>
      <trkpt lat="48.39106" lon="4.52481">
        <ele>127.99</ele>
        <time>2021-08-10T12:24:02Z</time>
      </trkpt>
      <trkpt lat="48.39105" lon="4.52479">
        <ele>127.99</ele>
        <time>2021-08-10T12:24:15Z</time>
      </trkpt>
      <trkpt lat="48.39104" lon="4.5248">
        <ele>127.99</ele>
        <time>2021-08-10T12:24:27Z</time>
      </trkpt>
      <trkpt lat="48.39104" lon="4.52479">
        <ele>127.99</ele>
        <time>2021-08-10T12:24:42Z</time>
      </trkpt>
      <trkpt lat="48.39105" lon="4.52479">
        <ele>127.99</ele>
        <time>2021-08-10T12:24:57Z</time>
      </trkpt>
      <trkpt lat="48.39106" lon="4.5248">
        <ele>127.99</ele>
        <time>2021-08-10T12:25:09Z</time>
      </trkpt>
      <trkpt lat="48.39107" lon="4.5248">
        <ele>127.99</ele>
        <time>2021-08-10T12:25:11Z</time>
      </trkpt>
      <trkpt lat="48.39107" lon="4.52479">
        <ele>127.99</ele>
        <time>2021-08-10T12:25:17Z</time>
      </trkpt>
      <trkpt lat="48.39107" lon="4.52481">
        <ele>129.43</ele>
        <time>2021-08-10T12:25:33Z</time>
      </trkpt>
      <trkpt lat="48.39108" lon="4.52479">
        <ele>129.43</ele>
        <time>2021-08-10T12:25:46Z</time>
      </trkpt>
      <trkpt lat="48.39107" lon="4.5248">
        <ele>129.43</ele>
        <time>2021-08-10T12:25:56Z</time>
      </trkpt>
      <trkpt lat="48.39106" lon="4.5248">
        <ele>127.99</ele>
        <time>2021-08-10T12:26:15Z</time>
      </trkpt>
      <trkpt lat="48.39106" lon="4.5248">
        <ele>127.99</ele>
        <time>2021-08-10T12:26:28Z</time>
      </trkpt>
      <trkpt lat="48.39107" lon="4.52479">
        <ele>127.99</ele>
        <time>2021-08-10T12:26:46Z</time>
      </trkpt>
      <trkpt lat="48.39107" lon="4.52478">
        <ele>127.99</ele>
        <time>2021-08-10T12:27:01Z</time>
      </trkpt>
      <trkpt lat="48.39107" lon="4.52479">
        <ele>129.43</ele>
        <time>2021-08-10T12:27:18Z</time>
      </trkpt>
      <trkpt lat="48.39107" lon="4.5248">
        <ele>129.43</ele>
        <time>2021-08-10T12:27:38Z</time>
      </trkpt>
      <trkpt lat="48.39107" lon="4.5248">
        <ele>129.43</ele>
        <time>2021-08-10T12:27:57Z</time>
      </trkpt>
      <trkpt lat="48.39107" lon="4.52481">
        <ele>129.43</ele>
        <time>2021-08-10T12:28:16Z</time>
      </trkpt>
      <trkpt lat="48.39108" lon="4.52481">
        <ele>129.43</ele>
        <time>2021-08-10T12:28:28Z</time>
      </trkpt>
      <trkpt lat="48.39108" lon="4.52482">
        <ele>129.43</ele>
        <time>2021-08-10T12:28:41Z</time>
      </trkpt>
      <trkpt lat="48.39108" lon="4.52481">
        <ele>129.43</ele>
        <time>2021-08-10T12:28:55Z</time>
      </trkpt>
      <trkpt lat="48.39107" lon="4.52482">
        <ele>129.43</ele>
        <time>2021-08-10T12:29:07Z</time>
      </trkpt>
      <trkpt lat="48.39107" lon="4.52482">
        <ele>129.43</ele>
        <time>2021-08-10T12:29:19Z</time>
      </trkpt>
      <trkpt lat="48.39107" lon="4.52482">
        <ele>127.99</ele>
        <time>2021-08-10T12:29:22Z</time>
      </trkpt>
      <trkpt lat="48.39108" lon="4.52482">
        <ele>127.99</ele>
        <time>2021-08-10T12:29:36Z</time>
      </trkpt>
      <trkpt lat="48.39109" lon="4.52482">
        <ele>127.99</ele>
        <time>2021-08-10T12:29:41Z</time>
      </trkpt>
      <trkpt lat="48.39109" lon="4.52483">
        <ele>127.99</ele>
        <time>2021-08-10T12:29:46Z</time>
      </trkpt>
      <trkpt lat="48.39106" lon="4.52477">
        <ele>127.99</ele>
        <time>2021-08-10T12:30:06Z</time>
      </trkpt>
      <trkpt lat="48.39106" lon="4.52478">
        <ele>127.99</ele>
        <time>2021-08-10T12:30:19Z</time>
      </trkpt>
      <trkpt lat="48.39106" lon="4.52479">
        <ele>127.99</ele>
        <time>2021-08-10T12:30:39Z</time>
      </trkpt>
      <trkpt lat="48.39105" lon="4.52478">
        <ele>128.95</ele>
        <time>2021-08-10T12:30:51Z</time>
      </trkpt>
      <trkpt lat="48.39105" lon="4.52476">
        <ele>128.95</ele>
        <time>2021-08-10T12:31:09Z</time>
      </trkpt>
      <trkpt lat="48.39105" lon="4.52477">
        <ele>128.95</ele>
        <time>2021-08-10T12:31:27Z</time>
      </trkpt>
      <trkpt lat="48.39105" lon="4.52477">
        <ele>128.95</ele>
        <time>2021-08-10T12:31:39Z</time>
      </trkpt>
      <trkpt lat="48.39106" lon="4.52478">
        <ele>128.95</ele>
        <time>2021-08-10T12:31:56Z</time>
      </trkpt>
      <trkpt lat="48.39106" lon="4.52479">
        <ele>128.95</ele>
        <time>2021-08-10T12:32:11Z</time>
      </trkpt>
      <trkpt lat="48.39105" lon="4.52477">
        <ele>128.95</ele>
        <time>2021-08-10T12:32:34Z</time>
      </trkpt>
      <trkpt lat="48.39106" lon="4.52479">
        <ele>128.95</ele>
        <time>2021-08-10T12:32:52Z</time>
      </trkpt>
      <trkpt lat="48.39106" lon="4.52478">
        <ele>129.43</ele>
        <time>2021-08-10T12:33:12Z</time>
      </trkpt>
      <trkpt lat="48.39106" lon="4.52478">
        <ele>129.43</ele>
        <time>2021-08-10T12:33:25Z</time>
      </trkpt>
      <trkpt lat="48.39106" lon="4.52479">
        <ele>129.43</ele>
        <time>2021-08-10T12:33:42Z</time>
      </trkpt>
      <trkpt lat="48.39106" lon="4.5248">
        <ele>128.95</ele>
        <time>2021-08-10T12:34:04Z</time>
      </trkpt>
      <trkpt lat="48.39105" lon="4.52482">
        <ele>128.95</ele>
        <time>2021-08-10T12:34:20Z</time>
      </trkpt>
      <trkpt lat="48.39106" lon="4.5248">
        <ele>128.95</ele>
        <time>2021-08-10T12:34:36Z</time>
      </trkpt>
      <trkpt lat="48.39107" lon="4.52478">
        <ele>128.95</ele>
        <time>2021-08-10T12:34:59Z</time>
      </trkpt>
      <trkpt lat="48.39108" lon="4.52479">
        <ele>128.95</ele>
        <time>2021-08-10T12:35:15Z</time>
      </trkpt>
      <trkpt lat="48.39106" lon="4.52481">
        <ele>128.95</ele>
        <time>2021-08-10T12:35:36Z</time>
      </trkpt>
      <trkpt lat="48.39105" lon="4.52482">
        <ele>128.95</ele>
        <time>2021-08-10T12:35:54Z</time>
      </trkpt>
      <trkpt lat="48.39105" lon="4.52475">
        <ele>127.99</ele>
        <time>2021-08-10T12:36:16Z</time>
      </trkpt>
      <trkpt lat="48.39106" lon="4.52475">
        <ele>127.99</ele>
        <time>2021-08-10T12:36:34Z</time>
      </trkpt>
      <trkpt lat="48.39106" lon="4.52477">
        <ele>128.47</ele>
        <time>2021-08-10T12:36:48Z</time>
      </trkpt>
      <trkpt lat="48.39106" lon="4.52477">
        <ele>128.47</ele>
        <time>2021-08-10T12:37:01Z</time>
      </trkpt>
      <trkpt lat="48.39105" lon="4.52473">
        <ele>128.47</ele>
        <time>2021-08-10T12:37:16Z</time>
      </trkpt>
      <trkpt lat="48.39106" lon="4.52472">
        <ele>128.47</ele>
        <time>2021-08-10T12:37:29Z</time>
      </trkpt>
      <trkpt lat="48.39106" lon="4.52473">
        <ele>128.47</ele>
        <time>2021-08-10T12:37:43Z</time>
      </trkpt>
      <trkpt lat="48.39106" lon="4.52474">
        <ele>128.47</ele>
        <time>2021-08-10T12:37:53Z</time>
      </trkpt>
      <trkpt lat="48.39106" lon="4.52476">
        <ele>128.47</ele>
        <time>2021-08-10T12:38:07Z</time>
      </trkpt>
      <trkpt lat="48.39107" lon="4.52477">
        <ele>128.47</ele>
        <time>2021-08-10T12:38:21Z</time>
      </trkpt>
      <trkpt lat="48.39107" lon="4.52478">
        <ele>128.47</ele>
        <time>2021-08-10T12:38:37Z</time>
      </trkpt>
      <trkpt lat="48.3911" lon="4.52481">
        <ele>128.47</ele>
        <time>2021-08-10T12:38:56Z</time>
      </trkpt>
      <trkpt lat="48.3911" lon="4.52479">
        <ele>128.47</ele>
        <time>2021-08-10T12:39:12Z</time>
      </trkpt>
      <trkpt lat="48.39108" lon="4.52475">
        <ele>128.47</ele>
        <time>2021-08-10T12:39:27Z</time>
      </trkpt>
      <trkpt lat="48.39107" lon="4.52477">
        <ele>128.47</ele>
        <time>2021-08-10T12:39:50Z</time>
      </trkpt>
      <trkpt lat="48.39107" lon="4.52479">
        <ele>128.47</ele>
        <time>2021-08-10T12:40:06Z</time>
      </trkpt>
      <trkpt lat="48.39106" lon="4.5248">
        <ele>128.47</ele>
        <time>2021-08-10T12:40:23Z</time>
      </trkpt>
      <trkpt lat="48.39107" lon="4.5248">
        <ele>128.47</ele>
        <time>2021-08-10T12:40:42Z</time>
      </trkpt>
      <trkpt lat="48.39106" lon="4.5248">
        <ele>128.47</ele>
        <time>2021-08-10T12:40:58Z</time>
      </trkpt>
      <trkpt lat="48.39105" lon="4.52481">
        <ele>129.43</ele>
        <time>2021-08-10T12:41:14Z</time>
      </trkpt>
      <trkpt lat="48.39104" lon="4.52481">
        <ele>129.43</ele>
        <time>2021-08-10T12:41:26Z</time>
      </trkpt>
      <trkpt lat="48.39103" lon="4.52482">
        <ele>128.47</ele>
        <time>2021-08-10T12:41:37Z</time>
      </trkpt>
      <trkpt lat="48.39106" lon="4.52483">
        <ele>128.47</ele>
        <time>2021-08-10T12:41:57Z</time>
      </trkpt>
      <trkpt lat="48.39105" lon="4.52483">
        <ele>127.99</ele>
        <time>2021-08-10T12:42:12Z</time>
      </trkpt>
      <trkpt lat="48.39104" lon="4.52483">
        <ele>129.43</ele>
        <time>2021-08-10T12:42:23Z</time>
      </trkpt>
      <trkpt lat="48.39102" lon="4.52482">
        <ele>129.43</ele>
        <time>2021-08-10T12:42:43Z</time>
      </trkpt>
      <trkpt lat="48.39102" lon="4.52484">
        <ele>129.43</ele>
        <time>2021-08-10T12:43:04Z</time>
      </trkpt>
      <trkpt lat="48.39103" lon="4.52483">
        <ele>129.43</ele>
        <time>2021-08-10T12:43:16Z</time>
      </trkpt>
      <trkpt lat="48.39104" lon="4.52484">
        <ele>128.95</ele>
        <time>2021-08-10T12:43:32Z</time>
      </trkpt>
      <trkpt lat="48.39104" lon="4.52483">
        <ele>128.95</ele>
        <time>2021-08-10T12:43:48Z</time>
      </trkpt>
      <trkpt lat="48.39103" lon="4.52481">
        <ele>128.95</ele>
        <time>2021-08-10T12:44:04Z</time>
      </trkpt>
      <trkpt lat="48.39103" lon="4.52481">
        <ele>128.95</ele>
        <time>2021-08-10T12:44:19Z</time>
      </trkpt>
      <trkpt lat="48.39102" lon="4.52477">
        <ele>128.95</ele>
        <time>2021-08-10T12:44:36Z</time>
      </trkpt>
      <trkpt lat="48.39102" lon="4.52475">
        <ele>128.95</ele>
        <time>2021-08-10T12:44:57Z</time>
      </trkpt>
      <trkpt lat="48.39102" lon="4.52477">
        <ele>128.95</ele>
        <time>2021-08-10T12:45:13Z</time>
      </trkpt>
      <trkpt lat="48.391" lon="4.52476">
        <ele>128.95</ele>
        <time>2021-08-10T12:45:25Z</time>
      </trkpt>
      <trkpt lat="48.39101" lon="4.52476">
        <ele>128.95</ele>
        <time>2021-08-10T12:45:43Z</time>
      </trkpt>
      <trkpt lat="48.39101" lon="4.52475">
        <ele>128.95</ele>
        <time>2021-08-10T12:46:01Z</time>
      </trkpt>
      <trkpt lat="48.391" lon="4.52477">
        <ele>128.95</ele>
        <time>2021-08-10T12:46:21Z</time>
      </trkpt>
      <trkpt lat="48.39101" lon="4.52479">
        <ele>128.95</ele>
        <time>2021-08-10T12:46:41Z</time>
      </trkpt>
      <trkpt lat="48.39104" lon="4.52478">
        <ele>128.95</ele>
        <time>2021-08-10T12:46:59Z</time>
      </trkpt>
      <trkpt lat="48.39104" lon="4.52477">
        <ele>129.43</ele>
        <time>2021-08-10T12:47:16Z</time>
      </trkpt>
      <trkpt lat="48.39104" lon="4.52477">
        <ele>129.43</ele>
        <time>2021-08-10T12:47:32Z</time>
      </trkpt>
      <trkpt lat="48.39107" lon="4.5248">
        <ele>129.43</ele>
        <time>2021-08-10T12:47:47Z</time>
      </trkpt>
      <trkpt lat="48.39103" lon="4.5248">
        <ele>129.43</ele>
        <time>2021-08-10T12:48:06Z</time>
      </trkpt>
      <trkpt lat="48.391" lon="4.52479">
        <ele>129.43</ele>
        <time>2021-08-10T12:48:23Z</time>
      </trkpt>
      <trkpt lat="48.391" lon="4.52477">
        <ele>129.43</ele>
        <time>2021-08-10T12:48:39Z</time>
      </trkpt>
      <trkpt lat="48.39107" lon="4.52475">
        <ele>128.95</ele>
        <time>2021-08-10T12:48:58Z</time>
      </trkpt>
      <trkpt lat="48.39106" lon="4.52478">
        <ele>128.95</ele>
        <time>2021-08-10T12:49:21Z</time>
      </trkpt>
      <trkpt lat="48.39107" lon="4.52476">
        <ele>129.43</ele>
        <time>2021-08-10T12:49:42Z</time>
      </trkpt>
      <trkpt lat="48.39105" lon="4.52477">
        <ele>128.47</ele>
        <time>2021-08-10T12:49:58Z</time>
      </trkpt>
      <trkpt lat="48.39105" lon="4.52475">
        <ele>129.43</ele>
        <time>2021-08-10T12:50:15Z</time>
      </trkpt>
      <trkpt lat="48.39105" lon="4.52475">
        <ele>129.43</ele>
        <time>2021-08-10T12:50:31Z</time>
      </trkpt>
      <trkpt lat="48.39106" lon="4.52478">
        <ele>128.47</ele>
        <time>2021-08-10T12:50:52Z</time>
      </trkpt>
      <trkpt lat="48.39107" lon="4.5248">
        <ele>128.47</ele>
        <time>2021-08-10T12:51:12Z</time>
      </trkpt>
      <trkpt lat="48.39107" lon="4.5248">
        <ele>129.92</ele>
        <time>2021-08-10T12:51:14Z</time>
      </trkpt>
      <trkpt lat="48.39109" lon="4.5248">
        <ele>129.92</ele>
        <time>2021-08-10T12:51:29Z</time>
      </trkpt>
      <trkpt lat="48.39108" lon="4.5248">
        <ele>128.47</ele>
        <time>2021-08-10T12:51:49Z</time>
      </trkpt>
      <trkpt lat="48.39104" lon="4.52481">
        <ele>128.47</ele>
        <time>2021-08-10T12:52:05Z</time>
      </trkpt>
      <trkpt lat="48.39103" lon="4.52481">
        <ele>128.47</ele>
        <time>2021-08-10T12:52:23Z</time>
      </trkpt>
      <trkpt lat="48.39103" lon="4.5248">
        <ele>128.47</ele>
        <time>2021-08-10T12:52:39Z</time>
      </trkpt>
      <trkpt lat="48.39105" lon="4.5248">
        <ele>128.47</ele>
        <time>2021-08-10T12:53:02Z</time>
      </trkpt>
      <trkpt lat="48.39106" lon="4.52482">
        <ele>128.47</ele>
        <time>2021-08-10T12:53:24Z</time>
      </trkpt>
      <trkpt lat="48.39107" lon="4.5248">
        <ele>128.47</ele>
        <time>2021-08-10T12:53:40Z</time>
      </trkpt>
      <trkpt lat="48.39106" lon="4.52479">
        <ele>128.47</ele>
        <time>2021-08-10T12:54:03Z</time>
      </trkpt>
      <trkpt lat="48.39104" lon="4.52479">
        <ele>128.47</ele>
        <time>2021-08-10T12:54:18Z</time>
      </trkpt>
      <trkpt lat="48.39103" lon="4.52479">
        <ele>127.99</ele>
        <time>2021-08-10T12:54:36Z</time>
      </trkpt>
      <trkpt lat="48.39105" lon="4.52479">
        <ele>127.99</ele>
        <time>2021-08-10T12:54:57Z</time>
      </trkpt>
      <trkpt lat="48.39105" lon="4.52479">
        <ele>127.99</ele>
        <time>2021-08-10T12:55:10Z</time>
      </trkpt>
      <trkpt lat="48.39105" lon="4.52482">
        <ele>127.99</ele>
        <time>2021-08-10T12:55:31Z</time>
      </trkpt>
      <trkpt lat="48.39107" lon="4.52482">
        <ele>127.99</ele>
        <time>2021-08-10T12:55:51Z</time>
      </trkpt>
      <trkpt lat="48.39108" lon="4.52483">
        <ele>127.99</ele>
        <time>2021-08-10T12:56:07Z</time>
      </trkpt>
      <trkpt lat="48.39107" lon="4.52482">
        <ele>127.99</ele>
        <time>2021-08-10T12:56:24Z</time>
      </trkpt>
      <trkpt lat="48.39106" lon="4.52481">
        <ele>127.99</ele>
        <time>2021-08-10T12:56:43Z</time>
      </trkpt>
      <trkpt lat="48.39104" lon="4.52481">
        <ele>128.95</ele>
        <time>2021-08-10T12:57:01Z</time>
      </trkpt>
      <trkpt lat="48.39104" lon="4.52481">
        <ele>128.95</ele>
        <time>2021-08-10T12:57:22Z</time>
      </trkpt>
      <trkpt lat="48.39102" lon="4.5248">
        <ele>127.99</ele>
        <time>2021-08-10T12:57:35Z</time>
      </trkpt>
      <trkpt lat="48.39101" lon="4.52478">
        <ele>127.99</ele>
        <time>2021-08-10T12:57:53Z</time>
      </trkpt>
      <trkpt lat="48.39101" lon="4.52477">
        <ele>127.99</ele>
        <time>2021-08-10T12:58:15Z</time>
      </trkpt>
      <trkpt lat="48.39102" lon="4.52477">
        <ele>127.99</ele>
        <time>2021-08-10T12:58:30Z</time>
      </trkpt>
      <trkpt lat="48.39104" lon="4.52479">
        <ele>127.99</ele>
        <time>2021-08-10T12:58:48Z</time>
      </trkpt>
      <trkpt lat="48.39103" lon="4.52479">
        <ele>127.99</ele>
        <time>2021-08-10T12:59:10Z</time>
      </trkpt>
      <trkpt lat="48.39103" lon="4.52478">
        <ele>127.99</ele>
        <time>2021-08-10T12:59:31Z</time>
      </trkpt>
      <trkpt lat="48.39104" lon="4.52478">
        <ele>128.95</ele>
        <time>2021-08-10T12:59:35Z</time>
      </trkpt>
      <trkpt lat="48.39103" lon="4.5248">
        <ele>128.95</ele>
        <time>2021-08-10T12:59:54Z</time>
      </trkpt>
      <trkpt lat="48.39106" lon="4.5248">
        <ele>128.95</ele>
        <time>2021-08-10T13:00:14Z</time>
      </trkpt>
      <trkpt lat="48.39108" lon="4.52482">
        <ele>128.95</ele>
        <time>2021-08-10T13:00:29Z</time>
      </trkpt>
      <trkpt lat="48.3911" lon="4.52481">
        <ele>128.95</ele>
        <time>2021-08-10T13:00:48Z</time>
      </trkpt>
      <trkpt lat="48.3911" lon="4.5248">
        <ele>129.43</ele>
        <time>2021-08-10T13:01:02Z</time>
      </trkpt>
      <trkpt lat="48.39107" lon="4.52477">
        <ele>129.43</ele>
        <time>2021-08-10T13:01:23Z</time>
      </trkpt>
      <trkpt lat="48.39106" lon="4.52476">
        <ele>129.43</ele>
        <time>2021-08-10T13:01:40Z</time>
      </trkpt>
      <trkpt lat="48.39104" lon="4.52475">
        <ele>129.43</ele>
        <time>2021-08-10T13:01:54Z</time>
      </trkpt>
      <trkpt lat="48.39104" lon="4.52473">
        <ele>129.43</ele>
        <time>2021-08-10T13:02:14Z</time>
      </trkpt>
      <trkpt lat="48.39104" lon="4.52474">
        <ele>129.43</ele>
        <time>2021-08-10T13:02:29Z</time>
      </trkpt>
      <trkpt lat="48.39104" lon="4.52477">
        <ele>129.43</ele>
        <time>2021-08-10T13:02:46Z</time>
      </trkpt>
      <trkpt lat="48.39105" lon="4.52478">
        <ele>129.43</ele>
        <time>2021-08-10T13:03:00Z</time>
      </trkpt>
      <trkpt lat="48.39105" lon="4.52475">
        <ele>129.43</ele>
        <time>2021-08-10T13:03:17Z</time>
      </trkpt>
      <trkpt lat="48.39103" lon="4.52476">
        <ele>129.43</ele>
        <time>2021-08-10T13:03:28Z</time>
      </trkpt>
      <trkpt lat="48.39103" lon="4.52478">
        <ele>129.43</ele>
        <time>2021-08-10T13:03:42Z</time>
      </trkpt>
      <trkpt lat="48.39105" lon="4.52478">
        <ele>129.43</ele>
        <time>2021-08-10T13:04:04Z</time>
      </trkpt>
      <trkpt lat="48.39106" lon="4.52477">
        <ele>129.43</ele>
        <time>2021-08-10T13:04:23Z</time>
      </trkpt>
      <trkpt lat="48.39108" lon="4.52477">
        <ele>129.43</ele>
        <time>2021-08-10T13:04:43Z</time>
      </trkpt>
      <trkpt lat="48.39108" lon="4.52477">
        <ele>129.43</ele>
        <time>2021-08-10T13:04:57Z</time>
      </trkpt>
      <trkpt lat="48.39111" lon="4.52478">
        <ele>129.92</ele>
        <time>2021-08-10T13:05:15Z</time>
      </trkpt>
      <trkpt lat="48.39113" lon="4.52478">
        <ele>129.92</ele>
        <time>2021-08-10T13:05:37Z</time>
      </trkpt>
      <trkpt lat="48.39116" lon="4.52478">
        <ele>129.92</ele>
        <time>2021-08-10T13:05:58Z</time>
      </trkpt>
      <trkpt lat="48.39117" lon="4.52478">
        <ele>130.4</ele>
        <time>2021-08-10T13:06:18Z</time>
      </trkpt>
      <trkpt lat="48.39117" lon="4.5248">
        <ele>130.4</ele>
        <time>2021-08-10T13:06:41Z</time>
      </trkpt>
      <trkpt lat="48.39118" lon="4.5248">
        <ele>130.4</ele>
        <time>2021-08-10T13:06:56Z</time>
      </trkpt>
      <trkpt lat="48.39119" lon="4.52482">
        <ele>130.88</ele>
        <time>2021-08-10T13:07:14Z</time>
      </trkpt>
      <trkpt lat="48.39117" lon="4.52482">
        <ele>131.36</ele>
        <time>2021-08-10T13:07:39Z</time>
      </trkpt>
      <trkpt lat="48.39114" lon="4.52482">
        <ele>129.92</ele>
        <time>2021-08-10T13:07:58Z</time>
      </trkpt>
      <trkpt lat="48.3911" lon="4.52481">
        <ele>130.4</ele>
        <time>2021-08-10T13:08:21Z</time>
      </trkpt>
      <trkpt lat="48.39107" lon="4.5248">
        <ele>130.4</ele>
        <time>2021-08-10T13:08:41Z</time>
      </trkpt>
      <trkpt lat="48.39105" lon="4.5248">
        <ele>130.4</ele>
        <time>2021-08-10T13:09:01Z</time>
      </trkpt>
      <trkpt lat="48.39104" lon="4.52482">
        <ele>130.4</ele>
        <time>2021-08-10T13:09:17Z</time>
      </trkpt>
      <trkpt lat="48.39105" lon="4.52482">
        <ele>130.4</ele>
        <time>2021-08-10T13:09:28Z</time>
      </trkpt>
      <trkpt lat="48.39105" lon="4.52483">
        <ele>130.4</ele>
        <time>2021-08-10T13:09:42Z</time>
      </trkpt>
      <trkpt lat="48.39109" lon="4.52483">
        <ele>129.92</ele>
        <time>2021-08-10T13:10:01Z</time>
      </trkpt>
      <trkpt lat="48.39113" lon="4.52482">
        <ele>130.4</ele>
        <time>2021-08-10T13:10:15Z</time>
      </trkpt>
      <trkpt lat="48.39111" lon="4.52481">
        <ele>130.4</ele>
        <time>2021-08-10T13:10:37Z</time>
      </trkpt>
      <trkpt lat="48.39111" lon="4.5248">
        <ele>130.4</ele>
        <time>2021-08-10T13:10:54Z</time>
      </trkpt>
      <trkpt lat="48.39111" lon="4.52478">
        <ele>130.4</ele>
        <time>2021-08-10T13:11:17Z</time>
      </trkpt>
      <trkpt lat="48.39109" lon="4.52477">
        <ele>131.36</ele>
        <time>2021-08-10T13:11:34Z</time>
      </trkpt>
      <trkpt lat="48.39109" lon="4.52478">
        <ele>131.36</ele>
        <time>2021-08-10T13:11:53Z</time>
      </trkpt>
      <trkpt lat="48.39109" lon="4.52478">
        <ele>131.36</ele>
        <time>2021-08-10T13:12:11Z</time>
      </trkpt>
      <trkpt lat="48.39108" lon="4.52479">
        <ele>130.4</ele>
        <time>2021-08-10T13:12:27Z</time>
      </trkpt>
      <trkpt lat="48.39107" lon="4.52481">
        <ele>130.4</ele>
        <time>2021-08-10T13:12:44Z</time>
      </trkpt>
      <trkpt lat="48.39107" lon="4.52484">
        <ele>130.4</ele>
        <time>2021-08-10T13:13:04Z</time>
      </trkpt>
      <trkpt lat="48.39106" lon="4.52484">
        <ele>130.4</ele>
        <time>2021-08-10T13:13:20Z</time>
      </trkpt>
      <trkpt lat="48.39104" lon="4.52483">
        <ele>130.4</ele>
        <time>2021-08-10T13:13:37Z</time>
      </trkpt>
      <trkpt lat="48.39104" lon="4.52483">
        <ele>130.4</ele>
        <time>2021-08-10T13:13:46Z</time>
      </trkpt>
      <trkpt lat="48.39106" lon="4.52483">
        <ele>130.4</ele>
        <time>2021-08-10T13:13:59Z</time>
      </trkpt>
      <trkpt lat="48.3911" lon="4.52482">
        <ele>130.4</ele>
        <time>2021-08-10T13:14:15Z</time>
      </trkpt>
      <trkpt lat="48.39109" lon="4.52481">
        <ele>130.4</ele>
        <time>2021-08-10T13:14:31Z</time>
      </trkpt>
      <trkpt lat="48.39108" lon="4.5248">
        <ele>130.4</ele>
        <time>2021-08-10T13:14:46Z</time>
      </trkpt>
      <trkpt lat="48.39108" lon="4.52481">
        <ele>130.4</ele>
        <time>2021-08-10T13:14:56Z</time>
      </trkpt>
      <trkpt lat="48.39108" lon="4.52482">
        <ele>130.4</ele>
        <time>2021-08-10T13:15:04Z</time>
      </trkpt>
      <trkpt lat="48.39109" lon="4.52483">
        <ele>130.4</ele>
        <time>2021-08-10T13:15:14Z</time>
      </trkpt>
      <trkpt lat="48.39107" lon="4.52484">
        <ele>130.4</ele>
        <time>2021-08-10T13:15:27Z</time>
      </trkpt>
      <trkpt lat="48.39107" lon="4.52485">
        <ele>130.4</ele>
        <time>2021-08-10T13:15:43Z</time>
      </trkpt>
      <trkpt lat="48.39107" lon="4.52486">
        <ele>130.4</ele>
        <time>2021-08-10T13:16:00Z</time>
      </trkpt>
      <trkpt lat="48.39108" lon="4.52486">
        <ele>131.84</ele>
        <time>2021-08-10T13:16:06Z</time>
      </trkpt>
      <trkpt lat="48.39109" lon="4.52484">
        <ele>131.84</ele>
        <time>2021-08-10T13:16:19Z</time>
      </trkpt>
      <trkpt lat="48.39107" lon="4.52481">
        <ele>131.84</ele>
        <time>2021-08-10T13:16:36Z</time>
      </trkpt>
      <trkpt lat="48.39105" lon="4.5248">
        <ele>131.84</ele>
        <time>2021-08-10T13:16:49Z</time>
      </trkpt>
      <trkpt lat="48.39104" lon="4.5248">
        <ele>131.84</ele>
        <time>2021-08-10T13:17:01Z</time>
      </trkpt>
      <trkpt lat="48.39105" lon="4.52481">
        <ele>131.84</ele>
        <time>2021-08-10T13:17:14Z</time>
      </trkpt>
      <trkpt lat="48.39106" lon="4.52482">
        <ele>131.84</ele>
        <time>2021-08-10T13:17:25Z</time>
      </trkpt>
      <trkpt lat="48.39107" lon="4.52482">
        <ele>131.84</ele>
        <time>2021-08-10T13:17:35Z</time>
      </trkpt>
      <trkpt lat="48.39107" lon="4.52482">
        <ele>131.84</ele>
        <time>2021-08-10T13:17:46Z</time>
      </trkpt>
      <trkpt lat="48.39108" lon="4.52483">
        <ele>131.84</ele>
        <time>2021-08-10T13:17:59Z</time>
      </trkpt>
      <trkpt lat="48.39108" lon="4.52483">
        <ele>131.84</ele>
        <time>2021-08-10T13:18:18Z</time>
      </trkpt>
      <trkpt lat="48.39108" lon="4.52482">
        <ele>131.84</ele>
        <time>2021-08-10T13:18:34Z</time>
      </trkpt>
      <trkpt lat="48.39108" lon="4.52481">
        <ele>131.36</ele>
        <time>2021-08-10T13:18:45Z</time>
      </trkpt>
      <trkpt lat="48.39108" lon="4.52481">
        <ele>130.4</ele>
        <time>2021-08-10T13:18:48Z</time>
      </trkpt>
      <trkpt lat="48.39107" lon="4.5248">
        <ele>130.4</ele>
        <time>2021-08-10T13:19:00Z</time>
      </trkpt>
      <trkpt lat="48.39105" lon="4.5248">
        <ele>130.4</ele>
        <time>2021-08-10T13:19:12Z</time>
      </trkpt>
      <trkpt lat="48.39105" lon="4.52481">
        <ele>130.4</ele>
        <time>2021-08-10T13:19:31Z</time>
      </trkpt>
      <trkpt lat="48.39103" lon="4.52481">
        <ele>130.4</ele>
        <time>2021-08-10T13:19:53Z</time>
      </trkpt>
      <trkpt lat="48.39102" lon="4.5248">
        <ele>129.92</ele>
        <time>2021-08-10T13:20:12Z</time>
      </trkpt>
      <trkpt lat="48.39106" lon="4.52479">
        <ele>131.36</ele>
        <time>2021-08-10T13:20:38Z</time>
      </trkpt>
      <trkpt lat="48.39108" lon="4.52483">
        <ele>131.36</ele>
        <time>2021-08-10T13:21:04Z</time>
      </trkpt>
      <trkpt lat="48.39111" lon="4.52482">
        <ele>131.36</ele>
        <time>2021-08-10T13:21:22Z</time>
      </trkpt>
      <trkpt lat="48.39111" lon="4.52481">
        <ele>129.92</ele>
        <time>2021-08-10T13:21:43Z</time>
      </trkpt>
      <trkpt lat="48.39109" lon="4.52481">
        <ele>129.92</ele>
        <time>2021-08-10T13:22:10Z</time>
      </trkpt>
      <trkpt lat="48.39107" lon="4.52481">
        <ele>129.92</ele>
        <time>2021-08-10T13:22:33Z</time>
      </trkpt>
      <trkpt lat="48.39109" lon="4.5248">
        <ele>129.92</ele>
        <time>2021-08-10T13:22:52Z</time>
      </trkpt>
      <trkpt lat="48.3911" lon="4.52479">
        <ele>129.92</ele>
        <time>2021-08-10T13:23:11Z</time>
      </trkpt>
      <trkpt lat="48.39109" lon="4.52481">
        <ele>130.4</ele>
        <time>2021-08-10T13:23:33Z</time>
      </trkpt>
      <trkpt lat="48.39107" lon="4.52481">
        <ele>131.36</ele>
        <time>2021-08-10T13:23:47Z</time>
      </trkpt>
      <trkpt lat="48.39105" lon="4.52482">
        <ele>131.36</ele>
        <time>2021-08-10T13:24:09Z</time>
      </trkpt>
      <trkpt lat="48.39105" lon="4.52481">
        <ele>131.36</ele>
        <time>2021-08-10T13:24:27Z</time>
      </trkpt>
      <trkpt lat="48.39109" lon="4.52481">
        <ele>131.36</ele>
        <time>2021-08-10T13:24:45Z</time>
      </trkpt>
      <trkpt lat="48.39114" lon="4.5248">
        <ele>131.36</ele>
        <time>2021-08-10T13:25:07Z</time>
      </trkpt>
      <trkpt lat="48.39114" lon="4.5248">
        <ele>131.84</ele>
        <time>2021-08-10T13:25:19Z</time>
      </trkpt>
      <trkpt lat="48.39114" lon="4.5248">
        <ele>131.84</ele>
        <time>2021-08-10T13:25:33Z</time>
      </trkpt>
      <trkpt lat="48.39114" lon="4.52481">
        <ele>131.84</ele>
        <time>2021-08-10T13:25:44Z</time>
      </trkpt>
      <trkpt lat="48.39112" lon="4.52481">
        <ele>131.84</ele>
        <time>2021-08-10T13:26:00Z</time>
      </trkpt>
      <trkpt lat="48.3911" lon="4.52481">
        <ele>131.84</ele>
        <time>2021-08-10T13:26:18Z</time>
      </trkpt>
      <trkpt lat="48.39109" lon="4.5248">
        <ele>131.84</ele>
        <time>2021-08-10T13:26:36Z</time>
      </trkpt>
      <trkpt lat="48.39113" lon="4.52479">
        <ele>131.84</ele>
        <time>2021-08-10T13:26:49Z</time>
      </trkpt>
      <trkpt lat="48.39114" lon="4.52478">
        <ele>131.84</ele>
        <time>2021-08-10T13:27:03Z</time>
      </trkpt>
      <trkpt lat="48.39116" lon="4.52478">
        <ele>131.84</ele>
        <time>2021-08-10T13:27:16Z</time>
      </trkpt>
      <trkpt lat="48.39117" lon="4.52477">
        <ele>131.84</ele>
        <time>2021-08-10T13:27:23Z</time>
      </trkpt>
      <trkpt lat="48.39117" lon="4.52477">
        <ele>131.84</ele>
        <time>2021-08-10T13:27:34Z</time>
      </trkpt>
      <trkpt lat="48.39117" lon="4.52478">
        <ele>132.32</ele>
        <time>2021-08-10T13:27:47Z</time>
      </trkpt>
      <trkpt lat="48.39116" lon="4.5248">
        <ele>132.32</ele>
        <time>2021-08-10T13:28:03Z</time>
      </trkpt>
      <trkpt lat="48.39114" lon="4.5248">
        <ele>132.32</ele>
        <time>2021-08-10T13:28:16Z</time>
      </trkpt>
      <trkpt lat="48.39112" lon="4.5248">
        <ele>132.32</ele>
        <time>2021-08-10T13:28:31Z</time>
      </trkpt>
      <trkpt lat="48.39111" lon="4.5248">
        <ele>132.32</ele>
        <time>2021-08-10T13:28:45Z</time>
      </trkpt>
      <trkpt lat="48.39108" lon="4.52481">
        <ele>132.32</ele>
        <time>2021-08-10T13:28:59Z</time>
      </trkpt>
      <trkpt lat="48.39109" lon="4.5248">
        <ele>132.32</ele>
        <time>2021-08-10T13:29:16Z</time>
      </trkpt>
      <trkpt lat="48.3911" lon="4.52478">
        <ele>132.32</ele>
        <time>2021-08-10T13:29:28Z</time>
      </trkpt>
      <trkpt lat="48.39112" lon="4.52476">
        <ele>132.32</ele>
        <time>2021-08-10T13:29:38Z</time>
      </trkpt>
      <trkpt lat="48.39114" lon="4.52476">
        <ele>132.8</ele>
        <time>2021-08-10T13:29:47Z</time>
      </trkpt>
      <trkpt lat="48.39113" lon="4.52476">
        <ele>132.8</ele>
        <time>2021-08-10T13:29:58Z</time>
      </trkpt>
      <trkpt lat="48.39113" lon="4.52478">
        <ele>132.8</ele>
        <time>2021-08-10T13:30:08Z</time>
      </trkpt>
      <trkpt lat="48.39112" lon="4.52478">
        <ele>132.8</ele>
        <time>2021-08-10T13:30:21Z</time>
      </trkpt>
      <trkpt lat="48.39111" lon="4.52478">
        <ele>132.8</ele>
        <time>2021-08-10T13:30:36Z</time>
      </trkpt>
      <trkpt lat="48.39112" lon="4.52477">
        <ele>132.8</ele>
        <time>2021-08-10T13:30:48Z</time>
      </trkpt>
      <trkpt lat="48.39113" lon="4.52476">
        <ele>132.8</ele>
        <time>2021-08-10T13:30:59Z</time>
      </trkpt>
      <trkpt lat="48.39113" lon="4.52473">
        <ele>132.8</ele>
        <time>2021-08-10T13:31:12Z</time>
      </trkpt>
      <trkpt lat="48.3911" lon="4.52471">
        <ele>133.28</ele>
        <time>2021-08-10T13:31:30Z</time>
      </trkpt>
      <trkpt lat="48.39109" lon="4.52471">
        <ele>133.28</ele>
        <time>2021-08-10T13:31:50Z</time>
      </trkpt>
      <trkpt lat="48.3911" lon="4.52473">
        <ele>133.28</ele>
        <time>2021-08-10T13:32:05Z</time>
      </trkpt>
      <trkpt lat="48.39109" lon="4.52473">
        <ele>133.28</ele>
        <time>2021-08-10T13:32:14Z</time>
      </trkpt>
      <trkpt lat="48.39108" lon="4.52472">
        <ele>133.76</ele>
        <time>2021-08-10T13:32:27Z</time>
      </trkpt>
      <trkpt lat="48.39105" lon="4.52475">
        <ele>133.76</ele>
        <time>2021-08-10T13:32:45Z</time>
      </trkpt>
      <trkpt lat="48.39104" lon="4.52476">
        <ele>133.76</ele>
        <time>2021-08-10T13:33:01Z</time>
      </trkpt>
      <trkpt lat="48.39105" lon="4.52476">
        <ele>133.76</ele>
        <time>2021-08-10T13:33:12Z</time>
      </trkpt>
      <trkpt lat="48.39107" lon="4.52475">
        <ele>133.76</ele>
        <time>2021-08-10T13:33:24Z</time>
      </trkpt>
      <trkpt lat="48.39107" lon="4.52474">
        <ele>133.76</ele>
        <time>2021-08-10T13:33:40Z</time>
      </trkpt>
      <trkpt lat="48.39107" lon="4.52475">
        <ele>133.76</ele>
        <time>2021-08-10T13:33:52Z</time>
      </trkpt>
      <trkpt lat="48.39106" lon="4.52477">
        <ele>133.76</ele>
        <time>2021-08-10T13:34:02Z</time>
      </trkpt>
      <trkpt lat="48.39105" lon="4.52479">
        <ele>133.76</ele>
        <time>2021-08-10T13:34:19Z</time>
      </trkpt>
      <trkpt lat="48.39103" lon="4.52481">
        <ele>133.76</ele>
        <time>2021-08-10T13:34:35Z</time>
      </trkpt>
      <trkpt lat="48.39102" lon="4.52481">
        <ele>133.76</ele>
        <time>2021-08-10T13:34:42Z</time>
      </trkpt>
      <trkpt lat="48.39102" lon="4.5248">
        <ele>133.76</ele>
        <time>2021-08-10T13:34:54Z</time>
      </trkpt>
      <trkpt lat="48.39103" lon="4.5248">
        <ele>133.76</ele>
        <time>2021-08-10T13:35:10Z</time>
      </trkpt>
      <trkpt lat="48.39102" lon="4.52479">
        <ele>133.76</ele>
        <time>2021-08-10T13:35:24Z</time>
      </trkpt>
      <trkpt lat="48.39102" lon="4.52479">
        <ele>133.76</ele>
        <time>2021-08-10T13:35:35Z</time>
      </trkpt>
      <trkpt lat="48.39103" lon="4.52481">
        <ele>133.76</ele>
        <time>2021-08-10T13:35:45Z</time>
      </trkpt>
      <trkpt lat="48.39103" lon="4.52481">
        <ele>133.28</ele>
        <time>2021-08-10T13:36:06Z</time>
      </trkpt>
      <trkpt lat="48.39103" lon="4.5248">
        <ele>133.28</ele>
        <time>2021-08-10T13:36:15Z</time>
      </trkpt>
      <trkpt lat="48.39105" lon="4.52478">
        <ele>133.28</ele>
        <time>2021-08-10T13:36:35Z</time>
      </trkpt>
      <trkpt lat="48.39105" lon="4.52479">
        <ele>133.28</ele>
        <time>2021-08-10T13:36:52Z</time>
      </trkpt>
      <trkpt lat="48.39104" lon="4.52479">
        <ele>133.28</ele>
        <time>2021-08-10T13:37:02Z</time>
      </trkpt>
      <trkpt lat="48.39104" lon="4.5248">
        <ele>133.76</ele>
        <time>2021-08-10T13:37:12Z</time>
      </trkpt>
      <trkpt lat="48.39102" lon="4.5248">
        <ele>133.76</ele>
        <time>2021-08-10T13:37:21Z</time>
      </trkpt>
      <trkpt lat="48.39101" lon="4.52481">
        <ele>133.76</ele>
        <time>2021-08-10T13:37:34Z</time>
      </trkpt>
      <trkpt lat="48.391" lon="4.52481">
        <ele>133.76</ele>
        <time>2021-08-10T13:37:45Z</time>
      </trkpt>
      <trkpt lat="48.39101" lon="4.52484">
        <ele>133.76</ele>
        <time>2021-08-10T13:37:50Z</time>
      </trkpt>
      <trkpt lat="48.39104" lon="4.52486">
        <ele>133.76</ele>
        <time>2021-08-10T13:37:53Z</time>
      </trkpt>
      <trkpt lat="48.39105" lon="4.52485">
        <ele>133.76</ele>
        <time>2021-08-10T13:37:54Z</time>
      </trkpt>
      <trkpt lat="48.39105" lon="4.52483">
        <ele>133.76</ele>
        <time>2021-08-10T13:37:55Z</time>
      </trkpt>
      <trkpt lat="48.39105" lon="4.52481">
        <ele>133.76</ele>
        <time>2021-08-10T13:37:56Z</time>
      </trkpt>
      <trkpt lat="48.39105" lon="4.52479">
        <ele>133.76</ele>
        <time>2021-08-10T13:37:57Z</time>
      </trkpt>
      <trkpt lat="48.39107" lon="4.52476">
        <ele>133.76</ele>
        <time>2021-08-10T13:37:58Z</time>
      </trkpt>
      <trkpt lat="48.39107" lon="4.52467">
        <ele>133.76</ele>
        <time>2021-08-10T13:38:01Z</time>
      </trkpt>
      <trkpt lat="48.39108" lon="4.52462">
        <ele>133.76</ele>
        <time>2021-08-10T13:38:03Z</time>
      </trkpt>
      <trkpt lat="48.39106" lon="4.52462">
        <ele>133.76</ele>
        <time>2021-08-10T13:38:04Z</time>
      </trkpt>
      <trkpt lat="48.39105" lon="4.52465">
        <ele>133.76</ele>
        <time>2021-08-10T13:38:05Z</time>
      </trkpt>
      <trkpt lat="48.39105" lon="4.52467">
        <ele>133.76</ele>
        <time>2021-08-10T13:38:06Z</time>
      </trkpt>
      <trkpt lat="48.39105" lon="4.52471">
        <ele>133.76</ele>
        <time>2021-08-10T13:38:07Z</time>
      </trkpt>
      <trkpt lat="48.39105" lon="4.52475">
        <ele>133.76</ele>
        <time>2021-08-10T13:38:08Z</time>
      </trkpt>
      <trkpt lat="48.39105" lon="4.52478">
        <ele>133.76</ele>
        <time>2021-08-10T13:38:09Z</time>
      </trkpt>
      <trkpt lat="48.39105" lon="4.52486">
        <ele>133.76</ele>
        <time>2021-08-10T13:38:12Z</time>
      </trkpt>
      <trkpt lat="48.39106" lon="4.52487">
        <ele>133.76</ele>
        <time>2021-08-10T13:38:13Z</time>
      </trkpt>
      <trkpt lat="48.39107" lon="4.52484">
        <ele>133.76</ele>
        <time>2021-08-10T13:38:14Z</time>
      </trkpt>
      <trkpt lat="48.39108" lon="4.52481">
        <ele>133.76</ele>
        <time>2021-08-10T13:38:15Z</time>
      </trkpt>
      <trkpt lat="48.39108" lon="4.52477">
        <ele>133.76</ele>
        <time>2021-08-10T13:38:16Z</time>
      </trkpt>
      <trkpt lat="48.39106" lon="4.52462">
        <ele>133.76</ele>
        <time>2021-08-10T13:38:20Z</time>
      </trkpt>
      <trkpt lat="48.39103" lon="4.5246">
        <ele>133.76</ele>
        <time>2021-08-10T13:38:21Z</time>
      </trkpt>
      <trkpt lat="48.39101" lon="4.52458">
        <ele>133.76</ele>
        <time>2021-08-10T13:38:22Z</time>
      </trkpt>
      <trkpt lat="48.39098" lon="4.52457">
        <ele>133.76</ele>
        <time>2021-08-10T13:38:23Z</time>
      </trkpt>
      <trkpt lat="48.39093" lon="4.52457">
        <ele>133.76</ele>
        <time>2021-08-10T13:38:24Z</time>
      </trkpt>
      <trkpt lat="48.3909" lon="4.52457">
        <ele>133.76</ele>
        <time>2021-08-10T13:38:25Z</time>
      </trkpt>
      <trkpt lat="48.39087" lon="4.52456">
        <ele>133.76</ele>
        <time>2021-08-10T13:38:26Z</time>
      </trkpt>
      <trkpt lat="48.39082" lon="4.52456">
        <ele>132.32</ele>
        <time>2021-08-10T13:38:28Z</time>
      </trkpt>
      <trkpt lat="48.3908" lon="4.52453">
        <ele>132.32</ele>
        <time>2021-08-10T13:38:31Z</time>
      </trkpt>
      <trkpt lat="48.39084" lon="4.5245">
        <ele>132.32</ele>
        <time>2021-08-10T13:38:39Z</time>
      </trkpt>
      <trkpt lat="48.39083" lon="4.52447">
        <ele>132.32</ele>
        <time>2021-08-10T13:38:56Z</time>
      </trkpt>
      <trkpt lat="48.39082" lon="4.52447">
        <ele>133.28</ele>
        <time>2021-08-10T13:39:09Z</time>
      </trkpt>
      <trkpt lat="48.3908" lon="4.5245">
        <ele>133.28</ele>
        <time>2021-08-10T13:39:15Z</time>
      </trkpt>
      <trkpt lat="48.39081" lon="4.5245">
        <ele>133.28</ele>
        <time>2021-08-10T13:39:30Z</time>
      </trkpt>
      <trkpt lat="48.39082" lon="4.52452">
        <ele>133.28</ele>
        <time>2021-08-10T13:39:42Z</time>
      </trkpt>
      <trkpt lat="48.3908" lon="4.52454">
        <ele>133.28</ele>
        <time>2021-08-10T13:40:02Z</time>
      </trkpt>
      <trkpt lat="48.39081" lon="4.52456">
        <ele>133.28</ele>
        <time>2021-08-10T13:40:22Z</time>
      </trkpt>
      <trkpt lat="48.39082" lon="4.52452">
        <ele>133.28</ele>
        <time>2021-08-10T13:40:40Z</time>
      </trkpt>
      <trkpt lat="48.39084" lon="4.52448">
        <ele>133.28</ele>
        <time>2021-08-10T13:40:55Z</time>
      </trkpt>
      <trkpt lat="48.39086" lon="4.52448">
        <ele>133.28</ele>
        <time>2021-08-10T13:41:07Z</time>
      </trkpt>
      <trkpt lat="48.39087" lon="4.52448">
        <ele>133.28</ele>
        <time>2021-08-10T13:41:13Z</time>
      </trkpt>
      <trkpt lat="48.39085" lon="4.52449">
        <ele>133.28</ele>
        <time>2021-08-10T13:41:29Z</time>
      </trkpt>
      <trkpt lat="48.39084" lon="4.52452">
        <ele>132.8</ele>
        <time>2021-08-10T13:41:48Z</time>
      </trkpt>
      <trkpt lat="48.39084" lon="4.52452">
        <ele>132.8</ele>
        <time>2021-08-10T13:42:08Z</time>
      </trkpt>
      <trkpt lat="48.39085" lon="4.52452">
        <ele>132.8</ele>
        <time>2021-08-10T13:42:20Z</time>
      </trkpt>
      <trkpt lat="48.39086" lon="4.52452">
        <ele>132.8</ele>
        <time>2021-08-10T13:42:23Z</time>
      </trkpt>
      <trkpt lat="48.3908" lon="4.52457">
        <ele>132.8</ele>
        <time>2021-08-10T13:42:29Z</time>
      </trkpt>
      <trkpt lat="48.39059" lon="4.52457">
        <ele>132.8</ele>
        <time>2021-08-10T13:42:37Z</time>
      </trkpt>
      <trkpt lat="48.39032" lon="4.52455">
        <ele>132.8</ele>
        <time>2021-08-10T13:42:44Z</time>
      </trkpt>
      <trkpt lat="48.39028" lon="4.52455">
        <ele>132.8</ele>
        <time>2021-08-10T13:42:45Z</time>
      </trkpt>
      <trkpt lat="48.39024" lon="4.52455">
        <ele>132.8</ele>
        <time>2021-08-10T13:42:46Z</time>
      </trkpt>
      <trkpt lat="48.3902" lon="4.52455">
        <ele>132.8</ele>
        <time>2021-08-10T13:42:47Z</time>
      </trkpt>
      <trkpt lat="48.39016" lon="4.52454">
        <ele>132.8</ele>
        <time>2021-08-10T13:42:48Z</time>
      </trkpt>
      <trkpt lat="48.38998" lon="4.52453">
        <ele>132.8</ele>
        <time>2021-08-10T13:42:52Z</time>
      </trkpt>
      <trkpt lat="48.38963" lon="4.5245">
        <ele>132.8</ele>
        <time>2021-08-10T13:43:01Z</time>
      </trkpt>
      <trkpt lat="48.38937" lon="4.52449">
        <ele>132.8</ele>
        <time>2021-08-10T13:43:08Z</time>
      </trkpt>
      <trkpt lat="48.38926" lon="4.52443">
        <ele>133.28</ele>
        <time>2021-08-10T13:43:11Z</time>
      </trkpt>
      <trkpt lat="48.38924" lon="4.52438">
        <ele>133.28</ele>
        <time>2021-08-10T13:43:12Z</time>
      </trkpt>
      <trkpt lat="48.38923" lon="4.52433">
        <ele>133.28</ele>
        <time>2021-08-10T13:43:13Z</time>
      </trkpt>
      <trkpt lat="48.38919" lon="4.52381">
        <ele>133.28</ele>
        <time>2021-08-10T13:43:22Z</time>
      </trkpt>
      <trkpt lat="48.38915" lon="4.52347">
        <ele>133.76</ele>
        <time>2021-08-10T13:43:28Z</time>
      </trkpt>
      <trkpt lat="48.38912" lon="4.52344">
        <ele>133.76</ele>
        <time>2021-08-10T13:43:29Z</time>
      </trkpt>
      <trkpt lat="48.38908" lon="4.52343">
        <ele>133.76</ele>
        <time>2021-08-10T13:43:30Z</time>
      </trkpt>
      <trkpt lat="48.38904" lon="4.52344">
        <ele>133.76</ele>
        <time>2021-08-10T13:43:31Z</time>
      </trkpt>
      <trkpt lat="48.38899" lon="4.52346">
        <ele>133.76</ele>
        <time>2021-08-10T13:43:32Z</time>
      </trkpt>
      <trkpt lat="48.38896" lon="4.52348">
        <ele>133.76</ele>
        <time>2021-08-10T13:43:33Z</time>
      </trkpt>
      <trkpt lat="48.38892" lon="4.5235">
        <ele>133.76</ele>
        <time>2021-08-10T13:43:34Z</time>
      </trkpt>
      <trkpt lat="48.38889" lon="4.52353">
        <ele>133.76</ele>
        <time>2021-08-10T13:43:35Z</time>
      </trkpt>
      <trkpt lat="48.38852" lon="4.52377">
        <ele>133.76</ele>
        <time>2021-08-10T13:43:44Z</time>
      </trkpt>
      <trkpt lat="48.3881" lon="4.52402">
        <ele>133.76</ele>
        <time>2021-08-10T13:43:53Z</time>
      </trkpt>
      <trkpt lat="48.38772" lon="4.52422">
        <ele>133.76</ele>
        <time>2021-08-10T13:44:01Z</time>
      </trkpt>
      <trkpt lat="48.38728" lon="4.52446">
        <ele>133.76</ele>
        <time>2021-08-10T13:44:10Z</time>
      </trkpt>
      <trkpt lat="48.38704" lon="4.52458">
        <ele>133.76</ele>
        <time>2021-08-10T13:44:15Z</time>
      </trkpt>
      <trkpt lat="48.38693" lon="4.52462">
        <ele>133.76</ele>
        <time>2021-08-10T13:44:17Z</time>
      </trkpt>
      <trkpt lat="48.38649" lon="4.52485">
        <ele>133.76</ele>
        <time>2021-08-10T13:44:26Z</time>
      </trkpt>
      <trkpt lat="48.3864" lon="4.52489">
        <ele>133.76</ele>
        <time>2021-08-10T13:44:28Z</time>
      </trkpt>
      <trkpt lat="48.38604" lon="4.52499">
        <ele>134.24</ele>
        <time>2021-08-10T13:44:36Z</time>
      </trkpt>
      <trkpt lat="48.38558" lon="4.52512">
        <ele>135.2</ele>
        <time>2021-08-10T13:44:46Z</time>
      </trkpt>
      <trkpt lat="48.38509" lon="4.52522">
        <ele>135.2</ele>
        <time>2021-08-10T13:44:56Z</time>
      </trkpt>
      <trkpt lat="48.38465" lon="4.52527">
        <ele>135.68</ele>
        <time>2021-08-10T13:45:05Z</time>
      </trkpt>
      <trkpt lat="48.38424" lon="4.52533">
        <ele>135.68</ele>
        <time>2021-08-10T13:45:13Z</time>
      </trkpt>
      <trkpt lat="48.38368" lon="4.52542">
        <ele>135.68</ele>
        <time>2021-08-10T13:45:24Z</time>
      </trkpt>
      <trkpt lat="48.38328" lon="4.52548">
        <ele>135.68</ele>
        <time>2021-08-10T13:45:32Z</time>
      </trkpt>
      <trkpt lat="48.38313" lon="4.52551">
        <ele>135.68</ele>
        <time>2021-08-10T13:45:35Z</time>
      </trkpt>
      <trkpt lat="48.38308" lon="4.52554">
        <ele>135.68</ele>
        <time>2021-08-10T13:45:36Z</time>
      </trkpt>
      <trkpt lat="48.38304" lon="4.52558">
        <ele>135.68</ele>
        <time>2021-08-10T13:45:37Z</time>
      </trkpt>
      <trkpt lat="48.383" lon="4.52563">
        <ele>135.68</ele>
        <time>2021-08-10T13:45:38Z</time>
      </trkpt>
      <trkpt lat="48.38297" lon="4.52567">
        <ele>135.68</ele>
        <time>2021-08-10T13:45:39Z</time>
      </trkpt>
      <trkpt lat="48.38284" lon="4.52583">
        <ele>135.68</ele>
        <time>2021-08-10T13:45:43Z</time>
      </trkpt>
      <trkpt lat="48.3828" lon="4.52582">
        <ele>135.68</ele>
        <time>2021-08-10T13:45:44Z</time>
      </trkpt>
      <trkpt lat="48.38277" lon="4.52581">
        <ele>135.68</ele>
        <time>2021-08-10T13:45:45Z</time>
      </trkpt>
      <trkpt lat="48.38243" lon="4.52566">
        <ele>135.2</ele>
        <time>2021-08-10T13:45:53Z</time>
      </trkpt>
      <trkpt lat="48.38198" lon="4.52568">
        <ele>135.2</ele>
        <time>2021-08-10T13:46:03Z</time>
      </trkpt>
      <trkpt lat="48.38145" lon="4.52573">
        <ele>136.16</ele>
        <time>2021-08-10T13:46:15Z</time>
      </trkpt>
      <trkpt lat="48.38101" lon="4.52574">
        <ele>136.16</ele>
        <time>2021-08-10T13:46:25Z</time>
      </trkpt>
      <trkpt lat="48.38047" lon="4.52573">
        <ele>136.16</ele>
        <time>2021-08-10T13:46:37Z</time>
      </trkpt>
      <trkpt lat="48.37994" lon="4.5257">
        <ele>136.16</ele>
        <time>2021-08-10T13:46:49Z</time>
      </trkpt>
      <trkpt lat="48.3793" lon="4.52564">
        <ele>136.16</ele>
        <time>2021-08-10T13:47:03Z</time>
      </trkpt>
      <trkpt lat="48.37882" lon="4.52561">
        <ele>136.16</ele>
        <time>2021-08-10T13:47:14Z</time>
      </trkpt>
      <trkpt lat="48.37839" lon="4.52558">
        <ele>136.16</ele>
        <time>2021-08-10T13:47:24Z</time>
      </trkpt>
      <trkpt lat="48.37834" lon="4.52558">
        <ele>136.16</ele>
        <time>2021-08-10T13:47:25Z</time>
      </trkpt>
      <trkpt lat="48.3779" lon="4.52555">
        <ele>135.68</ele>
        <time>2021-08-10T13:47:35Z</time>
      </trkpt>
      <trkpt lat="48.37751" lon="4.52551">
        <ele>136.64</ele>
        <time>2021-08-10T13:47:44Z</time>
      </trkpt>
      <trkpt lat="48.37694" lon="4.52548">
        <ele>136.64</ele>
        <time>2021-08-10T13:47:57Z</time>
      </trkpt>
      <trkpt lat="48.3765" lon="4.52546">
        <ele>136.64</ele>
        <time>2021-08-10T13:48:07Z</time>
      </trkpt>
      <trkpt lat="48.37623" lon="4.52546">
        <ele>135.2</ele>
        <time>2021-08-10T13:48:13Z</time>
      </trkpt>
      <trkpt lat="48.37588" lon="4.52542">
        <ele>135.2</ele>
        <time>2021-08-10T13:48:21Z</time>
      </trkpt>
      <trkpt lat="48.37567" lon="4.52543">
        <ele>134.24</ele>
        <time>2021-08-10T13:48:25Z</time>
      </trkpt>
      <trkpt lat="48.37563" lon="4.52544">
        <ele>134.24</ele>
        <time>2021-08-10T13:48:26Z</time>
      </trkpt>
      <trkpt lat="48.37558" lon="4.52545">
        <ele>134.24</ele>
        <time>2021-08-10T13:48:27Z</time>
      </trkpt>
      <trkpt lat="48.37521" lon="4.5255">
        <ele>133.28</ele>
        <time>2021-08-10T13:48:33Z</time>
      </trkpt>
      <trkpt lat="48.37477" lon="4.52566">
        <ele>132.8</ele>
        <time>2021-08-10T13:48:41Z</time>
      </trkpt>
      <trkpt lat="48.37472" lon="4.52567">
        <ele>132.8</ele>
        <time>2021-08-10T13:48:42Z</time>
      </trkpt>
      <trkpt lat="48.37468" lon="4.52565">
        <ele>132.8</ele>
        <time>2021-08-10T13:48:43Z</time>
      </trkpt>
      <trkpt lat="48.37465" lon="4.5256">
        <ele>132.8</ele>
        <time>2021-08-10T13:48:44Z</time>
      </trkpt>
      <trkpt lat="48.37463" lon="4.52555">
        <ele>132.8</ele>
        <time>2021-08-10T13:48:45Z</time>
      </trkpt>
      <trkpt lat="48.37462" lon="4.52549">
        <ele>132.8</ele>
        <time>2021-08-10T13:48:46Z</time>
      </trkpt>
      <trkpt lat="48.37447" lon="4.52484">
        <ele>132.8</ele>
        <time>2021-08-10T13:48:56Z</time>
      </trkpt>
      <trkpt lat="48.37432" lon="4.52423">
        <ele>132.8</ele>
        <time>2021-08-10T13:49:05Z</time>
      </trkpt>
      <trkpt lat="48.37417" lon="4.52379">
        <ele>132.8</ele>
        <time>2021-08-10T13:49:12Z</time>
      </trkpt>
      <trkpt lat="48.37414" lon="4.52373">
        <ele>132.8</ele>
        <time>2021-08-10T13:49:13Z</time>
      </trkpt>
      <trkpt lat="48.37411" lon="4.52367">
        <ele>132.8</ele>
        <time>2021-08-10T13:49:14Z</time>
      </trkpt>
      <trkpt lat="48.37382" lon="4.52313">
        <ele>132.8</ele>
        <time>2021-08-10T13:49:24Z</time>
      </trkpt>
      <trkpt lat="48.37367" lon="4.52282">
        <ele>134.24</ele>
        <time>2021-08-10T13:49:30Z</time>
      </trkpt>
      <trkpt lat="48.37343" lon="4.52238">
        <ele>134.72</ele>
        <time>2021-08-10T13:49:39Z</time>
      </trkpt>
      <trkpt lat="48.37316" lon="4.52186">
        <ele>135.2</ele>
        <time>2021-08-10T13:49:49Z</time>
      </trkpt>
      <trkpt lat="48.37313" lon="4.52181">
        <ele>135.2</ele>
        <time>2021-08-10T13:49:50Z</time>
      </trkpt>
      <trkpt lat="48.3731" lon="4.52174">
        <ele>135.2</ele>
        <time>2021-08-10T13:49:51Z</time>
      </trkpt>
      <trkpt lat="48.37281" lon="4.52122">
        <ele>135.2</ele>
        <time>2021-08-10T13:50:00Z</time>
      </trkpt>
      <trkpt lat="48.37255" lon="4.52072">
        <ele>136.16</ele>
        <time>2021-08-10T13:50:09Z</time>
      </trkpt>
      <trkpt lat="48.37234" lon="4.52033">
        <ele>137.61</ele>
        <time>2021-08-10T13:50:18Z</time>
      </trkpt>
      <trkpt lat="48.37217" lon="4.51999">
        <ele>138.57</ele>
        <time>2021-08-10T13:50:27Z</time>
      </trkpt>
      <trkpt lat="48.37204" lon="4.51975">
        <ele>139.05</ele>
        <time>2021-08-10T13:50:34Z</time>
      </trkpt>
      <trkpt lat="48.37189" lon="4.51952">
        <ele>140.01</ele>
        <time>2021-08-10T13:50:42Z</time>
      </trkpt>
      <trkpt lat="48.37175" lon="4.51927">
        <ele>140.97</ele>
        <time>2021-08-10T13:50:50Z</time>
      </trkpt>
      <trkpt lat="48.37158" lon="4.51896">
        <ele>142.41</ele>
        <time>2021-08-10T13:50:59Z</time>
      </trkpt>
      <trkpt lat="48.37142" lon="4.51865">
        <ele>143.85</ele>
        <time>2021-08-10T13:51:08Z</time>
      </trkpt>
      <trkpt lat="48.3713" lon="4.51842">
        <ele>144.82</ele>
        <time>2021-08-10T13:51:15Z</time>
      </trkpt>
      <trkpt lat="48.37115" lon="4.51815">
        <ele>145.78</ele>
        <time>2021-08-10T13:51:24Z</time>
      </trkpt>
      <trkpt lat="48.37098" lon="4.51786">
        <ele>147.7</ele>
        <time>2021-08-10T13:51:33Z</time>
      </trkpt>
      <trkpt lat="48.37079" lon="4.51762">
        <ele>149.62</ele>
        <time>2021-08-10T13:51:42Z</time>
      </trkpt>
      <trkpt lat="48.37057" lon="4.51744">
        <ele>150.58</ele>
        <time>2021-08-10T13:51:53Z</time>
      </trkpt>
      <trkpt lat="48.37037" lon="4.51731">
        <ele>152.03</ele>
        <time>2021-08-10T13:52:02Z</time>
      </trkpt>
      <trkpt lat="48.37017" lon="4.51718">
        <ele>153.47</ele>
        <time>2021-08-10T13:52:11Z</time>
      </trkpt>
      <trkpt lat="48.36999" lon="4.51706">
        <ele>155.39</ele>
        <time>2021-08-10T13:52:19Z</time>
      </trkpt>
      <trkpt lat="48.36982" lon="4.51694">
        <ele>156.35</ele>
        <time>2021-08-10T13:52:28Z</time>
      </trkpt>
      <trkpt lat="48.36968" lon="4.5168">
        <ele>157.79</ele>
        <time>2021-08-10T13:52:36Z</time>
      </trkpt>
      <trkpt lat="48.3695" lon="4.51659">
        <ele>159.72</ele>
        <time>2021-08-10T13:52:47Z</time>
      </trkpt>
      <trkpt lat="48.36934" lon="4.5164">
        <ele>160.2</ele>
        <time>2021-08-10T13:52:55Z</time>
      </trkpt>
      <trkpt lat="48.36914" lon="4.51615">
        <ele>160.68</ele>
        <time>2021-08-10T13:53:04Z</time>
      </trkpt>
      <trkpt lat="48.36881" lon="4.51577">
        <ele>161.16</ele>
        <time>2021-08-10T13:53:16Z</time>
      </trkpt>
      <trkpt lat="48.36856" lon="4.51551">
        <ele>161.16</ele>
        <time>2021-08-10T13:53:24Z</time>
      </trkpt>
      <trkpt lat="48.36852" lon="4.51547">
        <ele>161.16</ele>
        <time>2021-08-10T13:53:25Z</time>
      </trkpt>
      <trkpt lat="48.36849" lon="4.51545">
        <ele>161.16</ele>
        <time>2021-08-10T13:53:26Z</time>
      </trkpt>
      <trkpt lat="48.36845" lon="4.51542">
        <ele>161.16</ele>
        <time>2021-08-10T13:53:27Z</time>
      </trkpt>
      <trkpt lat="48.36842" lon="4.51539">
        <ele>161.16</ele>
        <time>2021-08-10T13:53:28Z</time>
      </trkpt>
      <trkpt lat="48.36838" lon="4.51537">
        <ele>161.16</ele>
        <time>2021-08-10T13:53:29Z</time>
      </trkpt>
      <trkpt lat="48.36834" lon="4.51534">
        <ele>161.16</ele>
        <time>2021-08-10T13:53:30Z</time>
      </trkpt>
      <trkpt lat="48.3683" lon="4.51532">
        <ele>161.16</ele>
        <time>2021-08-10T13:53:31Z</time>
      </trkpt>
      <trkpt lat="48.36827" lon="4.5153">
        <ele>161.16</ele>
        <time>2021-08-10T13:53:32Z</time>
      </trkpt>
      <trkpt lat="48.36798" lon="4.51513">
        <ele>158.75</ele>
        <time>2021-08-10T13:53:39Z</time>
      </trkpt>
      <trkpt lat="48.36794" lon="4.51511">
        <ele>158.75</ele>
        <time>2021-08-10T13:53:40Z</time>
      </trkpt>
      <trkpt lat="48.36753" lon="4.51484">
        <ele>156.83</ele>
        <time>2021-08-10T13:53:48Z</time>
      </trkpt>
      <trkpt lat="48.36694" lon="4.51449">
        <ele>153.95</ele>
        <time>2021-08-10T13:53:57Z</time>
      </trkpt>
      <trkpt lat="48.3662" lon="4.51403">
        <ele>150.58</ele>
        <time>2021-08-10T13:54:07Z</time>
      </trkpt>
      <trkpt lat="48.36549" lon="4.51347">
        <ele>148.66</ele>
        <time>2021-08-10T13:54:17Z</time>
      </trkpt>
      <trkpt lat="48.36478" lon="4.51289">
        <ele>147.22</ele>
        <time>2021-08-10T13:54:28Z</time>
      </trkpt>
      <trkpt lat="48.36413" lon="4.51236">
        <ele>145.78</ele>
        <time>2021-08-10T13:54:38Z</time>
      </trkpt>
      <trkpt lat="48.36331" lon="4.51171">
        <ele>144.82</ele>
        <time>2021-08-10T13:54:51Z</time>
      </trkpt>
      <trkpt lat="48.36266" lon="4.51117">
        <ele>144.34</ele>
        <time>2021-08-10T13:55:02Z</time>
      </trkpt>
      <trkpt lat="48.36201" lon="4.51065">
        <ele>143.85</ele>
        <time>2021-08-10T13:55:13Z</time>
      </trkpt>
      <trkpt lat="48.36154" lon="4.51027">
        <ele>143.37</ele>
        <time>2021-08-10T13:55:21Z</time>
      </trkpt>
      <trkpt lat="48.36093" lon="4.50981">
        <ele>142.89</ele>
        <time>2021-08-10T13:55:32Z</time>
      </trkpt>
      <trkpt lat="48.3604" lon="4.50947">
        <ele>140.49</ele>
        <time>2021-08-10T13:55:41Z</time>
      </trkpt>
      <trkpt lat="48.3602" lon="4.50933">
        <ele>140.01</ele>
        <time>2021-08-10T13:55:44Z</time>
      </trkpt>
      <trkpt lat="48.36014" lon="4.50927">
        <ele>139.53</ele>
        <time>2021-08-10T13:55:45Z</time>
      </trkpt>
      <trkpt lat="48.36009" lon="4.50919">
        <ele>139.05</ele>
        <time>2021-08-10T13:55:46Z</time>
      </trkpt>
      <trkpt lat="48.36004" lon="4.5091">
        <ele>139.05</ele>
        <time>2021-08-10T13:55:47Z</time>
      </trkpt>
      <trkpt lat="48.36001" lon="4.509">
        <ele>139.05</ele>
        <time>2021-08-10T13:55:48Z</time>
      </trkpt>
      <trkpt lat="48.35998" lon="4.50891">
        <ele>139.05</ele>
        <time>2021-08-10T13:55:49Z</time>
      </trkpt>
      <trkpt lat="48.35984" lon="4.50831">
        <ele>140.49</ele>
        <time>2021-08-10T13:55:56Z</time>
      </trkpt>
      <trkpt lat="48.35983" lon="4.50823">
        <ele>140.49</ele>
        <time>2021-08-10T13:55:57Z</time>
      </trkpt>
      <trkpt lat="48.35962" lon="4.50761">
        <ele>140.97</ele>
        <time>2021-08-10T13:56:06Z</time>
      </trkpt>
      <trkpt lat="48.3594" lon="4.50699">
        <ele>140.97</ele>
        <time>2021-08-10T13:56:15Z</time>
      </trkpt>
      <trkpt lat="48.35923" lon="4.50648">
        <ele>140.97</ele>
        <time>2021-08-10T13:56:23Z</time>
      </trkpt>
      <trkpt lat="48.35919" lon="4.5064">
        <ele>140.97</ele>
        <time>2021-08-10T13:56:26Z</time>
      </trkpt>
      <trkpt lat="48.35916" lon="4.50645">
        <ele>140.97</ele>
        <time>2021-08-10T13:56:28Z</time>
      </trkpt>
      <trkpt lat="48.35929" lon="4.5066">
        <ele>140.97</ele>
        <time>2021-08-10T13:56:34Z</time>
      </trkpt>
      <trkpt lat="48.35942" lon="4.50649">
        <ele>141.45</ele>
        <time>2021-08-10T13:56:39Z</time>
      </trkpt>
      <trkpt lat="48.35956" lon="4.50626">
        <ele>142.41</ele>
        <time>2021-08-10T13:56:46Z</time>
      </trkpt>
      <trkpt lat="48.35957" lon="4.50624">
        <ele>142.89</ele>
        <time>2021-08-10T13:56:50Z</time>
      </trkpt>
      <trkpt lat="48.35957" lon="4.50624">
        <ele>142.89</ele>
        <time>2021-08-10T13:56:59Z</time>
      </trkpt>
      <trkpt lat="48.35957" lon="4.50623">
        <ele>142.89</ele>
        <time>2021-08-10T13:57:15Z</time>
      </trkpt>
      <trkpt lat="48.35956" lon="4.50623">
        <ele>142.89</ele>
        <time>2021-08-10T13:57:31Z</time>
      </trkpt>
      <trkpt lat="48.35956" lon="4.50623">
        <ele>142.41</ele>
        <time>2021-08-10T13:57:43Z</time>
      </trkpt>
      <trkpt lat="48.35957" lon="4.50624">
        <ele>142.41</ele>
        <time>2021-08-10T13:57:55Z</time>
      </trkpt>
      <trkpt lat="48.35956" lon="4.50624">
        <ele>142.41</ele>
        <time>2021-08-10T13:58:06Z</time>
      </trkpt>
      <trkpt lat="48.35956" lon="4.50624">
        <ele>142.41</ele>
        <time>2021-08-10T13:58:17Z</time>
      </trkpt>
      <trkpt lat="48.35957" lon="4.50624">
        <ele>142.41</ele>
        <time>2021-08-10T13:58:29Z</time>
      </trkpt>
      <trkpt lat="48.35956" lon="4.50624">
        <ele>142.41</ele>
        <time>2021-08-10T13:58:38Z</time>
      </trkpt>
      <trkpt lat="48.35956" lon="4.50624">
        <ele>142.89</ele>
        <time>2021-08-10T13:58:50Z</time>
      </trkpt>
      <trkpt lat="48.35956" lon="4.50625">
        <ele>142.89</ele>
        <time>2021-08-10T13:59:01Z</time>
      </trkpt>
      <trkpt lat="48.35956" lon="4.50625">
        <ele>142.89</ele>
        <time>2021-08-10T13:59:12Z</time>
      </trkpt>
      <trkpt lat="48.35956" lon="4.50625">
        <ele>142.89</ele>
        <time>2021-08-10T13:59:22Z</time>
      </trkpt>
      <trkpt lat="48.35956" lon="4.50625">
        <ele>142.89</ele>
        <time>2021-08-10T13:59:36Z</time>
      </trkpt>
      <trkpt lat="48.35956" lon="4.50625">
        <ele>142.89</ele>
        <time>2021-08-10T13:59:49Z</time>
      </trkpt>
      <trkpt lat="48.35956" lon="4.50625">
        <ele>142.89</ele>
        <time>2021-08-10T14:00:02Z</time>
      </trkpt>
      <trkpt lat="48.35957" lon="4.50626">
        <ele>142.89</ele>
        <time>2021-08-10T14:00:14Z</time>
      </trkpt>
      <trkpt lat="48.35945" lon="4.50632">
        <ele>141.45</ele>
        <time>2021-08-10T14:00:21Z</time>
      </trkpt>
      <trkpt lat="48.35943" lon="4.50634">
        <ele>141.45</ele>
        <time>2021-08-10T14:00:22Z</time>
      </trkpt>
      <trkpt lat="48.35935" lon="4.50656">
        <ele>140.49</ele>
        <time>2021-08-10T14:00:27Z</time>
      </trkpt>
      <trkpt lat="48.3593" lon="4.5066">
        <ele>140.49</ele>
        <time>2021-08-10T14:00:29Z</time>
      </trkpt>
      <trkpt lat="48.35927" lon="4.50658">
        <ele>140.49</ele>
        <time>2021-08-10T14:00:30Z</time>
      </trkpt>
      <trkpt lat="48.35925" lon="4.50655">
        <ele>139.53</ele>
        <time>2021-08-10T14:00:31Z</time>
      </trkpt>
      <trkpt lat="48.35923" lon="4.50651">
        <ele>139.53</ele>
        <time>2021-08-10T14:00:32Z</time>
      </trkpt>
      <trkpt lat="48.35922" lon="4.50647">
        <ele>139.53</ele>
        <time>2021-08-10T14:00:33Z</time>
      </trkpt>
      <trkpt lat="48.3592" lon="4.50641">
        <ele>139.53</ele>
        <time>2021-08-10T14:00:34Z</time>
      </trkpt>
      <trkpt lat="48.35919" lon="4.50635">
        <ele>139.53</ele>
        <time>2021-08-10T14:00:35Z</time>
      </trkpt>
      <trkpt lat="48.35917" lon="4.50629">
        <ele>139.05</ele>
        <time>2021-08-10T14:00:36Z</time>
      </trkpt>
      <trkpt lat="48.35915" lon="4.50622">
        <ele>139.05</ele>
        <time>2021-08-10T14:00:37Z</time>
      </trkpt>
      <trkpt lat="48.35914" lon="4.50616">
        <ele>138.57</ele>
        <time>2021-08-10T14:00:38Z</time>
      </trkpt>
      <trkpt lat="48.35907" lon="4.5059">
        <ele>138.09</ele>
        <time>2021-08-10T14:00:42Z</time>
      </trkpt>
      <trkpt lat="48.35904" lon="4.50585">
        <ele>138.09</ele>
        <time>2021-08-10T14:00:43Z</time>
      </trkpt>
      <trkpt lat="48.359" lon="4.50581">
        <ele>137.13</ele>
        <time>2021-08-10T14:00:44Z</time>
      </trkpt>
      <trkpt lat="48.35895" lon="4.50579">
        <ele>137.13</ele>
        <time>2021-08-10T14:00:45Z</time>
      </trkpt>
      <trkpt lat="48.35892" lon="4.50578">
        <ele>137.13</ele>
        <time>2021-08-10T14:00:46Z</time>
      </trkpt>
      <trkpt lat="48.35888" lon="4.50578">
        <ele>137.13</ele>
        <time>2021-08-10T14:00:47Z</time>
      </trkpt>
      <trkpt lat="48.35885" lon="4.50577">
        <ele>137.13</ele>
        <time>2021-08-10T14:00:48Z</time>
      </trkpt>
      <trkpt lat="48.35855" lon="4.50575">
        <ele>136.64</ele>
        <time>2021-08-10T14:00:55Z</time>
      </trkpt>
      <trkpt lat="48.3585" lon="4.50575">
        <ele>136.64</ele>
        <time>2021-08-10T14:00:56Z</time>
      </trkpt>
      <trkpt lat="48.35845" lon="4.50576">
        <ele>136.64</ele>
        <time>2021-08-10T14:00:57Z</time>
      </trkpt>
      <trkpt lat="48.35827" lon="4.50585">
        <ele>134.72</ele>
        <time>2021-08-10T14:01:00Z</time>
      </trkpt>
      <trkpt lat="48.3578" lon="4.5062">
        <ele>132.8</ele>
        <time>2021-08-10T14:01:08Z</time>
      </trkpt>
      <trkpt lat="48.35749" lon="4.50639">
        <ele>134.72</ele>
        <time>2021-08-10T14:01:15Z</time>
      </trkpt>
      <trkpt lat="48.35732" lon="4.50646">
        <ele>135.68</ele>
        <time>2021-08-10T14:01:22Z</time>
      </trkpt>
      <trkpt lat="48.35709" lon="4.50648">
        <ele>137.13</ele>
        <time>2021-08-10T14:01:31Z</time>
      </trkpt>
      <trkpt lat="48.35685" lon="4.50648">
        <ele>138.57</ele>
        <time>2021-08-10T14:01:40Z</time>
      </trkpt>
      <trkpt lat="48.35663" lon="4.50645">
        <ele>140.01</ele>
        <time>2021-08-10T14:01:49Z</time>
      </trkpt>
      <trkpt lat="48.35641" lon="4.50637">
        <ele>140.01</ele>
        <time>2021-08-10T14:01:58Z</time>
      </trkpt>
      <trkpt lat="48.35631" lon="4.50643">
        <ele>140.97</ele>
        <time>2021-08-10T14:02:03Z</time>
      </trkpt>
      <trkpt lat="48.35622" lon="4.50637">
        <ele>141.93</ele>
        <time>2021-08-10T14:02:08Z</time>
      </trkpt>
      <trkpt lat="48.35613" lon="4.50611">
        <ele>143.85</ele>
        <time>2021-08-10T14:02:19Z</time>
      </trkpt>
      <trkpt lat="48.35602" lon="4.50581">
        <ele>144.82</ele>
        <time>2021-08-10T14:02:30Z</time>
      </trkpt>
      <trkpt lat="48.35588" lon="4.50548">
        <ele>146.74</ele>
        <time>2021-08-10T14:02:42Z</time>
      </trkpt>
      <trkpt lat="48.35577" lon="4.50518">
        <ele>147.7</ele>
        <time>2021-08-10T14:02:50Z</time>
      </trkpt>
      <trkpt lat="48.35558" lon="4.50463">
        <ele>147.22</ele>
        <time>2021-08-10T14:03:01Z</time>
      </trkpt>
      <trkpt lat="48.3554" lon="4.50405">
        <ele>147.22</ele>
        <time>2021-08-10T14:03:11Z</time>
      </trkpt>
      <trkpt lat="48.35513" lon="4.50323">
        <ele>147.22</ele>
        <time>2021-08-10T14:03:24Z</time>
      </trkpt>
      <trkpt lat="48.35508" lon="4.50311">
        <ele>147.22</ele>
        <time>2021-08-10T14:03:26Z</time>
      </trkpt>
      <trkpt lat="48.35489" lon="4.50251">
        <ele>147.22</ele>
        <time>2021-08-10T14:03:35Z</time>
      </trkpt>
      <trkpt lat="48.35471" lon="4.50192">
        <ele>147.22</ele>
        <time>2021-08-10T14:03:44Z</time>
      </trkpt>
      <trkpt lat="48.35448" lon="4.50121">
        <ele>146.26</ele>
        <time>2021-08-10T14:03:55Z</time>
      </trkpt>
      <trkpt lat="48.35428" lon="4.50057">
        <ele>146.26</ele>
        <time>2021-08-10T14:04:05Z</time>
      </trkpt>
      <trkpt lat="48.35401" lon="4.49982">
        <ele>146.26</ele>
        <time>2021-08-10T14:04:17Z</time>
      </trkpt>
      <trkpt lat="48.35399" lon="4.49975">
        <ele>146.26</ele>
        <time>2021-08-10T14:04:18Z</time>
      </trkpt>
      <trkpt lat="48.35375" lon="4.49895">
        <ele>146.26</ele>
        <time>2021-08-10T14:04:30Z</time>
      </trkpt>
      <trkpt lat="48.35353" lon="4.49829">
        <ele>146.26</ele>
        <time>2021-08-10T14:04:40Z</time>
      </trkpt>
      <trkpt lat="48.35347" lon="4.49809">
        <ele>147.22</ele>
        <time>2021-08-10T14:04:43Z</time>
      </trkpt>
      <trkpt lat="48.35334" lon="4.49768">
        <ele>147.22</ele>
        <time>2021-08-10T14:04:49Z</time>
      </trkpt>
      <trkpt lat="48.35312" lon="4.49702">
        <ele>147.22</ele>
        <time>2021-08-10T14:04:59Z</time>
      </trkpt>
      <trkpt lat="48.3529" lon="4.49635">
        <ele>147.22</ele>
        <time>2021-08-10T14:05:09Z</time>
      </trkpt>
      <trkpt lat="48.35266" lon="4.49562">
        <ele>147.22</ele>
        <time>2021-08-10T14:05:20Z</time>
      </trkpt>
      <trkpt lat="48.35238" lon="4.49483">
        <ele>147.22</ele>
        <time>2021-08-10T14:05:32Z</time>
      </trkpt>
      <trkpt lat="48.35205" lon="4.49424">
        <ele>147.22</ele>
        <time>2021-08-10T14:05:42Z</time>
      </trkpt>
      <trkpt lat="48.35165" lon="4.49376">
        <ele>146.26</ele>
        <time>2021-08-10T14:05:52Z</time>
      </trkpt>
      <trkpt lat="48.35149" lon="4.49359">
        <ele>145.78</ele>
        <time>2021-08-10T14:05:56Z</time>
      </trkpt>
      <trkpt lat="48.35116" lon="4.49326">
        <ele>146.26</ele>
        <time>2021-08-10T14:06:04Z</time>
      </trkpt>
      <trkpt lat="48.35075" lon="4.49281">
        <ele>145.78</ele>
        <time>2021-08-10T14:06:14Z</time>
      </trkpt>
      <trkpt lat="48.35038" lon="4.49243">
        <ele>145.78</ele>
        <time>2021-08-10T14:06:23Z</time>
      </trkpt>
      <trkpt lat="48.34997" lon="4.492">
        <ele>145.78</ele>
        <time>2021-08-10T14:06:33Z</time>
      </trkpt>
      <trkpt lat="48.34952" lon="4.49152">
        <ele>145.78</ele>
        <time>2021-08-10T14:06:44Z</time>
      </trkpt>
      <trkpt lat="48.34911" lon="4.49109">
        <ele>145.78</ele>
        <time>2021-08-10T14:06:54Z</time>
      </trkpt>
      <trkpt lat="48.3487" lon="4.49067">
        <ele>145.78</ele>
        <time>2021-08-10T14:07:04Z</time>
      </trkpt>
      <trkpt lat="48.34858" lon="4.49054">
        <ele>147.22</ele>
        <time>2021-08-10T14:07:07Z</time>
      </trkpt>
      <trkpt lat="48.34822" lon="4.49016">
        <ele>147.22</ele>
        <time>2021-08-10T14:07:16Z</time>
      </trkpt>
      <trkpt lat="48.34782" lon="4.48973">
        <ele>147.22</ele>
        <time>2021-08-10T14:07:26Z</time>
      </trkpt>
      <trkpt lat="48.34737" lon="4.48925">
        <ele>147.22</ele>
        <time>2021-08-10T14:07:37Z</time>
      </trkpt>
      <trkpt lat="48.34701" lon="4.48888">
        <ele>147.22</ele>
        <time>2021-08-10T14:07:46Z</time>
      </trkpt>
      <trkpt lat="48.34688" lon="4.48876">
        <ele>147.22</ele>
        <time>2021-08-10T14:07:49Z</time>
      </trkpt>
      <trkpt lat="48.34685" lon="4.48873">
        <ele>147.22</ele>
        <time>2021-08-10T14:07:50Z</time>
      </trkpt>
      <trkpt lat="48.3468" lon="4.48872">
        <ele>147.22</ele>
        <time>2021-08-10T14:07:51Z</time>
      </trkpt>
      <trkpt lat="48.34677" lon="4.48872">
        <ele>147.7</ele>
        <time>2021-08-10T14:07:52Z</time>
      </trkpt>
      <trkpt lat="48.34672" lon="4.48873">
        <ele>147.7</ele>
        <time>2021-08-10T14:07:53Z</time>
      </trkpt>
      <trkpt lat="48.34669" lon="4.48874">
        <ele>147.7</ele>
        <time>2021-08-10T14:07:54Z</time>
      </trkpt>
      <trkpt lat="48.34665" lon="4.48874">
        <ele>147.7</ele>
        <time>2021-08-10T14:07:55Z</time>
      </trkpt>
      <trkpt lat="48.34662" lon="4.48873">
        <ele>148.18</ele>
        <time>2021-08-10T14:07:56Z</time>
      </trkpt>
      <trkpt lat="48.34659" lon="4.48872">
        <ele>148.18</ele>
        <time>2021-08-10T14:07:57Z</time>
      </trkpt>
      <trkpt lat="48.34656" lon="4.48868">
        <ele>148.66</ele>
        <time>2021-08-10T14:07:58Z</time>
      </trkpt>
      <trkpt lat="48.34654" lon="4.48862">
        <ele>149.62</ele>
        <time>2021-08-10T14:07:59Z</time>
      </trkpt>
      <trkpt lat="48.34652" lon="4.48859">
        <ele>149.14</ele>
        <time>2021-08-10T14:08:00Z</time>
      </trkpt>
      <trkpt lat="48.34644" lon="4.48816">
        <ele>150.58</ele>
        <time>2021-08-10T14:08:08Z</time>
      </trkpt>
      <trkpt lat="48.34642" lon="4.48785">
        <ele>152.03</ele>
        <time>2021-08-10T14:08:14Z</time>
      </trkpt>
      <trkpt lat="48.34634" lon="4.48761">
        <ele>152.03</ele>
        <time>2021-08-10T14:08:19Z</time>
      </trkpt>
      <trkpt lat="48.34623" lon="4.48748">
        <ele>152.03</ele>
        <time>2021-08-10T14:08:23Z</time>
      </trkpt>
      <trkpt lat="48.34619" lon="4.48744">
        <ele>152.03</ele>
        <time>2021-08-10T14:08:24Z</time>
      </trkpt>
      <trkpt lat="48.34601" lon="4.48728">
        <ele>152.03</ele>
        <time>2021-08-10T14:08:29Z</time>
      </trkpt>
      <trkpt lat="48.34596" lon="4.48724">
        <ele>152.03</ele>
        <time>2021-08-10T14:08:30Z</time>
      </trkpt>
      <trkpt lat="48.34559" lon="4.48691">
        <ele>152.03</ele>
        <time>2021-08-10T14:08:40Z</time>
      </trkpt>
      <trkpt lat="48.34544" lon="4.48677">
        <ele>152.99</ele>
        <time>2021-08-10T14:08:44Z</time>
      </trkpt>
      <trkpt lat="48.34528" lon="4.48666">
        <ele>152.99</ele>
        <time>2021-08-10T14:08:48Z</time>
      </trkpt>
      <trkpt lat="48.34524" lon="4.48665">
        <ele>152.51</ele>
        <time>2021-08-10T14:08:49Z</time>
      </trkpt>
      <trkpt lat="48.3452" lon="4.48667">
        <ele>152.51</ele>
        <time>2021-08-10T14:08:50Z</time>
      </trkpt>
      <trkpt lat="48.34516" lon="4.4867">
        <ele>152.99</ele>
        <time>2021-08-10T14:08:51Z</time>
      </trkpt>
      <trkpt lat="48.34513" lon="4.48676">
        <ele>152.99</ele>
        <time>2021-08-10T14:08:52Z</time>
      </trkpt>
      <trkpt lat="48.34511" lon="4.48681">
        <ele>152.99</ele>
        <time>2021-08-10T14:08:53Z</time>
      </trkpt>
      <trkpt lat="48.3451" lon="4.48689">
        <ele>152.99</ele>
        <time>2021-08-10T14:08:54Z</time>
      </trkpt>
      <trkpt lat="48.3451" lon="4.48696">
        <ele>152.51</ele>
        <time>2021-08-10T14:08:55Z</time>
      </trkpt>
      <trkpt lat="48.34511" lon="4.48703">
        <ele>152.99</ele>
        <time>2021-08-10T14:08:56Z</time>
      </trkpt>
      <trkpt lat="48.34511" lon="4.48711">
        <ele>152.99</ele>
        <time>2021-08-10T14:08:57Z</time>
      </trkpt>
      <trkpt lat="48.34512" lon="4.48718">
        <ele>152.99</ele>
        <time>2021-08-10T14:08:58Z</time>
      </trkpt>
      <trkpt lat="48.34522" lon="4.48778">
        <ele>152.51</ele>
        <time>2021-08-10T14:09:06Z</time>
      </trkpt>
      <trkpt lat="48.34523" lon="4.48786">
        <ele>152.99</ele>
        <time>2021-08-10T14:09:07Z</time>
      </trkpt>
      <trkpt lat="48.3453" lon="4.4885">
        <ele>152.99</ele>
        <time>2021-08-10T14:09:15Z</time>
      </trkpt>
      <trkpt lat="48.34536" lon="4.48938">
        <ele>150.1</ele>
        <time>2021-08-10T14:09:25Z</time>
      </trkpt>
      <trkpt lat="48.34542" lon="4.49026">
        <ele>147.7</ele>
        <time>2021-08-10T14:09:33Z</time>
      </trkpt>
      <trkpt lat="48.34544" lon="4.49074">
        <ele>146.26</ele>
        <time>2021-08-10T14:09:37Z</time>
      </trkpt>
      <trkpt lat="48.34544" lon="4.49087">
        <ele>145.78</ele>
        <time>2021-08-10T14:09:38Z</time>
      </trkpt>
      <trkpt lat="48.34542" lon="4.49097">
        <ele>145.78</ele>
        <time>2021-08-10T14:09:39Z</time>
      </trkpt>
      <trkpt lat="48.34539" lon="4.49108">
        <ele>144.82</ele>
        <time>2021-08-10T14:09:40Z</time>
      </trkpt>
      <trkpt lat="48.34534" lon="4.49118">
        <ele>144.82</ele>
        <time>2021-08-10T14:09:41Z</time>
      </trkpt>
      <trkpt lat="48.34529" lon="4.49125">
        <ele>144.82</ele>
        <time>2021-08-10T14:09:42Z</time>
      </trkpt>
      <trkpt lat="48.34524" lon="4.49131">
        <ele>144.82</ele>
        <time>2021-08-10T14:09:43Z</time>
      </trkpt>
      <trkpt lat="48.34487" lon="4.49167">
        <ele>145.3</ele>
        <time>2021-08-10T14:09:50Z</time>
      </trkpt>
      <trkpt lat="48.34481" lon="4.49171">
        <ele>145.3</ele>
        <time>2021-08-10T14:09:51Z</time>
      </trkpt>
      <trkpt lat="48.34475" lon="4.49173">
        <ele>145.3</ele>
        <time>2021-08-10T14:09:52Z</time>
      </trkpt>
      <trkpt lat="48.34468" lon="4.49173">
        <ele>145.3</ele>
        <time>2021-08-10T14:09:53Z</time>
      </trkpt>
      <trkpt lat="48.34462" lon="4.49172">
        <ele>145.3</ele>
        <time>2021-08-10T14:09:54Z</time>
      </trkpt>
      <trkpt lat="48.34456" lon="4.49171">
        <ele>145.3</ele>
        <time>2021-08-10T14:09:55Z</time>
      </trkpt>
      <trkpt lat="48.34423" lon="4.49162">
        <ele>145.3</ele>
        <time>2021-08-10T14:10:01Z</time>
      </trkpt>
      <trkpt lat="48.34402" lon="4.49159">
        <ele>145.3</ele>
        <time>2021-08-10T14:10:05Z</time>
      </trkpt>
      <trkpt lat="48.34396" lon="4.4916">
        <ele>145.3</ele>
        <time>2021-08-10T14:10:06Z</time>
      </trkpt>
      <trkpt lat="48.34391" lon="4.49161">
        <ele>145.3</ele>
        <time>2021-08-10T14:10:07Z</time>
      </trkpt>
      <trkpt lat="48.34386" lon="4.49164">
        <ele>145.3</ele>
        <time>2021-08-10T14:10:08Z</time>
      </trkpt>
      <trkpt lat="48.34381" lon="4.49167">
        <ele>145.3</ele>
        <time>2021-08-10T14:10:09Z</time>
      </trkpt>
      <trkpt lat="48.34376" lon="4.4917">
        <ele>145.3</ele>
        <time>2021-08-10T14:10:10Z</time>
      </trkpt>
      <trkpt lat="48.34371" lon="4.49175">
        <ele>145.3</ele>
        <time>2021-08-10T14:10:11Z</time>
      </trkpt>
      <trkpt lat="48.34366" lon="4.4918">
        <ele>145.3</ele>
        <time>2021-08-10T14:10:12Z</time>
      </trkpt>
      <trkpt lat="48.34363" lon="4.49187">
        <ele>145.3</ele>
        <time>2021-08-10T14:10:13Z</time>
      </trkpt>
      <trkpt lat="48.3436" lon="4.49193">
        <ele>145.3</ele>
        <time>2021-08-10T14:10:14Z</time>
      </trkpt>
      <trkpt lat="48.34357" lon="4.49201">
        <ele>145.3</ele>
        <time>2021-08-10T14:10:15Z</time>
      </trkpt>
      <trkpt lat="48.34354" lon="4.49209">
        <ele>145.3</ele>
        <time>2021-08-10T14:10:16Z</time>
      </trkpt>
      <trkpt lat="48.34352" lon="4.49217">
        <ele>145.3</ele>
        <time>2021-08-10T14:10:17Z</time>
      </trkpt>
      <trkpt lat="48.34347" lon="4.49242">
        <ele>145.3</ele>
        <time>2021-08-10T14:10:20Z</time>
      </trkpt>
      <trkpt lat="48.34343" lon="4.4925">
        <ele>145.3</ele>
        <time>2021-08-10T14:10:21Z</time>
      </trkpt>
      <trkpt lat="48.3434" lon="4.49257">
        <ele>145.3</ele>
        <time>2021-08-10T14:10:22Z</time>
      </trkpt>
      <trkpt lat="48.34336" lon="4.49264">
        <ele>145.3</ele>
        <time>2021-08-10T14:10:23Z</time>
      </trkpt>
      <trkpt lat="48.34332" lon="4.4927">
        <ele>145.3</ele>
        <time>2021-08-10T14:10:24Z</time>
      </trkpt>
      <trkpt lat="48.34298" lon="4.49314">
        <ele>145.3</ele>
        <time>2021-08-10T14:10:32Z</time>
      </trkpt>
      <trkpt lat="48.34256" lon="4.49364">
        <ele>145.3</ele>
        <time>2021-08-10T14:10:42Z</time>
      </trkpt>
      <trkpt lat="48.34237" lon="4.49389">
        <ele>145.3</ele>
        <time>2021-08-10T14:10:47Z</time>
      </trkpt>
      <trkpt lat="48.34234" lon="4.49396">
        <ele>145.3</ele>
        <time>2021-08-10T14:10:48Z</time>
      </trkpt>
      <trkpt lat="48.34231" lon="4.49402">
        <ele>145.3</ele>
        <time>2021-08-10T14:10:49Z</time>
      </trkpt>
      <trkpt lat="48.34229" lon="4.4941">
        <ele>145.3</ele>
        <time>2021-08-10T14:10:50Z</time>
      </trkpt>
      <trkpt lat="48.34228" lon="4.49417">
        <ele>145.3</ele>
        <time>2021-08-10T14:10:51Z</time>
      </trkpt>
      <trkpt lat="48.34222" lon="4.49472">
        <ele>145.3</ele>
        <time>2021-08-10T14:10:58Z</time>
      </trkpt>
      <trkpt lat="48.3422" lon="4.49479">
        <ele>145.3</ele>
        <time>2021-08-10T14:10:59Z</time>
      </trkpt>
      <trkpt lat="48.34218" lon="4.49486">
        <ele>145.3</ele>
        <time>2021-08-10T14:11:00Z</time>
      </trkpt>
      <trkpt lat="48.34215" lon="4.49493">
        <ele>145.3</ele>
        <time>2021-08-10T14:11:01Z</time>
      </trkpt>
      <trkpt lat="48.34211" lon="4.49499">
        <ele>145.3</ele>
        <time>2021-08-10T14:11:02Z</time>
      </trkpt>
      <trkpt lat="48.34208" lon="4.49505">
        <ele>145.3</ele>
        <time>2021-08-10T14:11:03Z</time>
      </trkpt>
      <trkpt lat="48.34202" lon="4.49516">
        <ele>145.3</ele>
        <time>2021-08-10T14:11:05Z</time>
      </trkpt>
      <trkpt lat="48.34198" lon="4.49521">
        <ele>145.3</ele>
        <time>2021-08-10T14:11:06Z</time>
      </trkpt>
      <trkpt lat="48.34194" lon="4.49525">
        <ele>144.82</ele>
        <time>2021-08-10T14:11:07Z</time>
      </trkpt>
      <trkpt lat="48.3419" lon="4.49527">
        <ele>144.82</ele>
        <time>2021-08-10T14:11:08Z</time>
      </trkpt>
      <trkpt lat="48.34185" lon="4.49527">
        <ele>145.3</ele>
        <time>2021-08-10T14:11:09Z</time>
      </trkpt>
      <trkpt lat="48.34181" lon="4.49524">
        <ele>146.26</ele>
        <time>2021-08-10T14:11:10Z</time>
      </trkpt>
      <trkpt lat="48.34177" lon="4.49519">
        <ele>146.26</ele>
        <time>2021-08-10T14:11:11Z</time>
      </trkpt>
      <trkpt lat="48.34174" lon="4.49514">
        <ele>146.26</ele>
        <time>2021-08-10T14:11:12Z</time>
      </trkpt>
      <trkpt lat="48.34149" lon="4.49474">
        <ele>146.74</ele>
        <time>2021-08-10T14:11:20Z</time>
      </trkpt>
      <trkpt lat="48.3414" lon="4.49459">
        <ele>146.74</ele>
        <time>2021-08-10T14:11:23Z</time>
      </trkpt>
      <trkpt lat="48.34134" lon="4.49449">
        <ele>146.74</ele>
        <time>2021-08-10T14:11:25Z</time>
      </trkpt>
      <trkpt lat="48.34123" lon="4.49436">
        <ele>146.74</ele>
        <time>2021-08-10T14:11:28Z</time>
      </trkpt>
      <trkpt lat="48.34119" lon="4.49436">
        <ele>146.74</ele>
        <time>2021-08-10T14:11:29Z</time>
      </trkpt>
      <trkpt lat="48.34114" lon="4.49438">
        <ele>145.78</ele>
        <time>2021-08-10T14:11:30Z</time>
      </trkpt>
      <trkpt lat="48.34109" lon="4.49443">
        <ele>145.78</ele>
        <time>2021-08-10T14:11:31Z</time>
      </trkpt>
      <trkpt lat="48.34106" lon="4.49447">
        <ele>145.78</ele>
        <time>2021-08-10T14:11:32Z</time>
      </trkpt>
      <trkpt lat="48.34102" lon="4.49452">
        <ele>145.78</ele>
        <time>2021-08-10T14:11:33Z</time>
      </trkpt>
      <trkpt lat="48.34097" lon="4.49456">
        <ele>145.78</ele>
        <time>2021-08-10T14:11:34Z</time>
      </trkpt>
      <trkpt lat="48.34093" lon="4.49459">
        <ele>145.78</ele>
        <time>2021-08-10T14:11:35Z</time>
      </trkpt>
      <trkpt lat="48.34088" lon="4.49461">
        <ele>145.78</ele>
        <time>2021-08-10T14:11:36Z</time>
      </trkpt>
      <trkpt lat="48.34083" lon="4.49462">
        <ele>145.78</ele>
        <time>2021-08-10T14:11:37Z</time>
      </trkpt>
      <trkpt lat="48.34019" lon="4.49482">
        <ele>145.78</ele>
        <time>2021-08-10T14:11:49Z</time>
      </trkpt>
      <trkpt lat="48.33999" lon="4.49489">
        <ele>145.78</ele>
        <time>2021-08-10T14:11:53Z</time>
      </trkpt>
      <trkpt lat="48.33995" lon="4.49491">
        <ele>145.78</ele>
        <time>2021-08-10T14:11:54Z</time>
      </trkpt>
      <trkpt lat="48.33991" lon="4.49495">
        <ele>145.78</ele>
        <time>2021-08-10T14:11:55Z</time>
      </trkpt>
      <trkpt lat="48.33988" lon="4.495">
        <ele>145.78</ele>
        <time>2021-08-10T14:11:56Z</time>
      </trkpt>
      <trkpt lat="48.33985" lon="4.49506">
        <ele>145.78</ele>
        <time>2021-08-10T14:11:57Z</time>
      </trkpt>
      <trkpt lat="48.33982" lon="4.49513">
        <ele>145.78</ele>
        <time>2021-08-10T14:11:58Z</time>
      </trkpt>
      <trkpt lat="48.33981" lon="4.4952">
        <ele>145.78</ele>
        <time>2021-08-10T14:11:59Z</time>
      </trkpt>
      <trkpt lat="48.3398" lon="4.49528">
        <ele>145.78</ele>
        <time>2021-08-10T14:12:00Z</time>
      </trkpt>
      <trkpt lat="48.33981" lon="4.49536">
        <ele>145.78</ele>
        <time>2021-08-10T14:12:01Z</time>
      </trkpt>
      <trkpt lat="48.33982" lon="4.49543">
        <ele>145.78</ele>
        <time>2021-08-10T14:12:02Z</time>
      </trkpt>
      <trkpt lat="48.33984" lon="4.4955">
        <ele>145.78</ele>
        <time>2021-08-10T14:12:03Z</time>
      </trkpt>
      <trkpt lat="48.33986" lon="4.49558">
        <ele>145.78</ele>
        <time>2021-08-10T14:12:04Z</time>
      </trkpt>
      <trkpt lat="48.33988" lon="4.49565">
        <ele>145.78</ele>
        <time>2021-08-10T14:12:05Z</time>
      </trkpt>
      <trkpt lat="48.3401" lon="4.4964">
        <ele>145.3</ele>
        <time>2021-08-10T14:12:15Z</time>
      </trkpt>
      <trkpt lat="48.34014" lon="4.49655">
        <ele>145.3</ele>
        <time>2021-08-10T14:12:17Z</time>
      </trkpt>
      <trkpt lat="48.34015" lon="4.49664">
        <ele>145.3</ele>
        <time>2021-08-10T14:12:18Z</time>
      </trkpt>
      <trkpt lat="48.34015" lon="4.49672">
        <ele>145.3</ele>
        <time>2021-08-10T14:12:19Z</time>
      </trkpt>
      <trkpt lat="48.34014" lon="4.4968">
        <ele>145.3</ele>
        <time>2021-08-10T14:12:20Z</time>
      </trkpt>
      <trkpt lat="48.34011" lon="4.49687">
        <ele>145.3</ele>
        <time>2021-08-10T14:12:21Z</time>
      </trkpt>
      <trkpt lat="48.34007" lon="4.49693">
        <ele>145.3</ele>
        <time>2021-08-10T14:12:22Z</time>
      </trkpt>
      <trkpt lat="48.34003" lon="4.49699">
        <ele>145.3</ele>
        <time>2021-08-10T14:12:23Z</time>
      </trkpt>
      <trkpt lat="48.34" lon="4.49704">
        <ele>145.3</ele>
        <time>2021-08-10T14:12:24Z</time>
      </trkpt>
      <trkpt lat="48.33996" lon="4.4971">
        <ele>145.3</ele>
        <time>2021-08-10T14:12:25Z</time>
      </trkpt>
      <trkpt lat="48.33967" lon="4.49747">
        <ele>145.3</ele>
        <time>2021-08-10T14:12:32Z</time>
      </trkpt>
      <trkpt lat="48.3395" lon="4.49769">
        <ele>145.3</ele>
        <time>2021-08-10T14:12:36Z</time>
      </trkpt>
      <trkpt lat="48.33945" lon="4.49773">
        <ele>145.3</ele>
        <time>2021-08-10T14:12:37Z</time>
      </trkpt>
      <trkpt lat="48.33935" lon="4.49779">
        <ele>145.3</ele>
        <time>2021-08-10T14:12:39Z</time>
      </trkpt>
      <trkpt lat="48.3393" lon="4.49782">
        <ele>145.3</ele>
        <time>2021-08-10T14:12:40Z</time>
      </trkpt>
      <trkpt lat="48.33904" lon="4.49792">
        <ele>145.3</ele>
        <time>2021-08-10T14:12:45Z</time>
      </trkpt>
      <trkpt lat="48.339" lon="4.49795">
        <ele>145.3</ele>
        <time>2021-08-10T14:12:46Z</time>
      </trkpt>
      <trkpt lat="48.33885" lon="4.49808">
        <ele>145.3</ele>
        <time>2021-08-10T14:12:49Z</time>
      </trkpt>
      <trkpt lat="48.33881" lon="4.49813">
        <ele>145.3</ele>
        <time>2021-08-10T14:12:50Z</time>
      </trkpt>
      <trkpt lat="48.33858" lon="4.49851">
        <ele>145.3</ele>
        <time>2021-08-10T14:12:57Z</time>
      </trkpt>
      <trkpt lat="48.33856" lon="4.49858">
        <ele>145.3</ele>
        <time>2021-08-10T14:12:58Z</time>
      </trkpt>
      <trkpt lat="48.33854" lon="4.49865">
        <ele>145.3</ele>
        <time>2021-08-10T14:12:59Z</time>
      </trkpt>
      <trkpt lat="48.33845" lon="4.49904">
        <ele>145.3</ele>
        <time>2021-08-10T14:13:04Z</time>
      </trkpt>
      <trkpt lat="48.33843" lon="4.49912">
        <ele>145.3</ele>
        <time>2021-08-10T14:13:05Z</time>
      </trkpt>
      <trkpt lat="48.3384" lon="4.49919">
        <ele>145.3</ele>
        <time>2021-08-10T14:13:06Z</time>
      </trkpt>
      <trkpt lat="48.33837" lon="4.49926">
        <ele>145.3</ele>
        <time>2021-08-10T14:13:07Z</time>
      </trkpt>
      <trkpt lat="48.33833" lon="4.49931">
        <ele>145.3</ele>
        <time>2021-08-10T14:13:08Z</time>
      </trkpt>
      <trkpt lat="48.33827" lon="4.49935">
        <ele>145.3</ele>
        <time>2021-08-10T14:13:09Z</time>
      </trkpt>
      <trkpt lat="48.33823" lon="4.49938">
        <ele>145.3</ele>
        <time>2021-08-10T14:13:10Z</time>
      </trkpt>
      <trkpt lat="48.33798" lon="4.49953">
        <ele>145.3</ele>
        <time>2021-08-10T14:13:15Z</time>
      </trkpt>
      <trkpt lat="48.33777" lon="4.49967">
        <ele>145.3</ele>
        <time>2021-08-10T14:13:19Z</time>
      </trkpt>
      <trkpt lat="48.33754" lon="4.4999">
        <ele>145.3</ele>
        <time>2021-08-10T14:13:24Z</time>
      </trkpt>
      <trkpt lat="48.3373" lon="4.50028">
        <ele>145.3</ele>
        <time>2021-08-10T14:13:30Z</time>
      </trkpt>
      <trkpt lat="48.33719" lon="4.50046">
        <ele>145.3</ele>
        <time>2021-08-10T14:13:33Z</time>
      </trkpt>
      <trkpt lat="48.33712" lon="4.50058">
        <ele>145.3</ele>
        <time>2021-08-10T14:13:35Z</time>
      </trkpt>
      <trkpt lat="48.33705" lon="4.5007">
        <ele>145.3</ele>
        <time>2021-08-10T14:13:37Z</time>
      </trkpt>
      <trkpt lat="48.33691" lon="4.50094">
        <ele>145.78</ele>
        <time>2021-08-10T14:13:41Z</time>
      </trkpt>
      <trkpt lat="48.33663" lon="4.50125">
        <ele>145.78</ele>
        <time>2021-08-10T14:13:47Z</time>
      </trkpt>
      <trkpt lat="48.3366" lon="4.50133">
        <ele>145.78</ele>
        <time>2021-08-10T14:13:48Z</time>
      </trkpt>
      <trkpt lat="48.33659" lon="4.50141">
        <ele>145.78</ele>
        <time>2021-08-10T14:13:49Z</time>
      </trkpt>
      <trkpt lat="48.33661" lon="4.5015">
        <ele>145.78</ele>
        <time>2021-08-10T14:13:50Z</time>
      </trkpt>
      <trkpt lat="48.33663" lon="4.50156">
        <ele>145.78</ele>
        <time>2021-08-10T14:13:51Z</time>
      </trkpt>
      <trkpt lat="48.33666" lon="4.50162">
        <ele>145.78</ele>
        <time>2021-08-10T14:13:52Z</time>
      </trkpt>
      <trkpt lat="48.33669" lon="4.50168">
        <ele>145.78</ele>
        <time>2021-08-10T14:13:53Z</time>
      </trkpt>
      <trkpt lat="48.33673" lon="4.50174">
        <ele>145.78</ele>
        <time>2021-08-10T14:13:54Z</time>
      </trkpt>
      <trkpt lat="48.33676" lon="4.50179">
        <ele>145.78</ele>
        <time>2021-08-10T14:13:55Z</time>
      </trkpt>
      <trkpt lat="48.33702" lon="4.50221">
        <ele>145.78</ele>
        <time>2021-08-10T14:14:02Z</time>
      </trkpt>
      <trkpt lat="48.33704" lon="4.50228">
        <ele>145.78</ele>
        <time>2021-08-10T14:14:03Z</time>
      </trkpt>
      <trkpt lat="48.33706" lon="4.50235">
        <ele>145.78</ele>
        <time>2021-08-10T14:14:04Z</time>
      </trkpt>
      <trkpt lat="48.33706" lon="4.50243">
        <ele>145.78</ele>
        <time>2021-08-10T14:14:05Z</time>
      </trkpt>
      <trkpt lat="48.33705" lon="4.5025">
        <ele>145.78</ele>
        <time>2021-08-10T14:14:06Z</time>
      </trkpt>
      <trkpt lat="48.33705" lon="4.50257">
        <ele>145.78</ele>
        <time>2021-08-10T14:14:07Z</time>
      </trkpt>
      <trkpt lat="48.33704" lon="4.50264">
        <ele>145.78</ele>
        <time>2021-08-10T14:14:08Z</time>
      </trkpt>
      <trkpt lat="48.33703" lon="4.50271">
        <ele>145.78</ele>
        <time>2021-08-10T14:14:09Z</time>
      </trkpt>
      <trkpt lat="48.337" lon="4.50285">
        <ele>146.74</ele>
        <time>2021-08-10T14:14:11Z</time>
      </trkpt>
      <trkpt lat="48.33684" lon="4.50352">
        <ele>146.74</ele>
        <time>2021-08-10T14:14:20Z</time>
      </trkpt>
      <trkpt lat="48.33671" lon="4.50383">
        <ele>145.78</ele>
        <time>2021-08-10T14:14:24Z</time>
      </trkpt>
      <trkpt lat="48.33656" lon="4.50422">
        <ele>144.82</ele>
        <time>2021-08-10T14:14:29Z</time>
      </trkpt>
      <trkpt lat="48.33652" lon="4.50428">
        <ele>144.82</ele>
        <time>2021-08-10T14:14:30Z</time>
      </trkpt>
      <trkpt lat="48.33647" lon="4.50433">
        <ele>144.82</ele>
        <time>2021-08-10T14:14:31Z</time>
      </trkpt>
      <trkpt lat="48.33642" lon="4.50436">
        <ele>144.82</ele>
        <time>2021-08-10T14:14:32Z</time>
      </trkpt>
      <trkpt lat="48.33637" lon="4.50437">
        <ele>144.82</ele>
        <time>2021-08-10T14:14:33Z</time>
      </trkpt>
      <trkpt lat="48.33632" lon="4.50435">
        <ele>144.82</ele>
        <time>2021-08-10T14:14:34Z</time>
      </trkpt>
      <trkpt lat="48.33628" lon="4.50431">
        <ele>144.82</ele>
        <time>2021-08-10T14:14:35Z</time>
      </trkpt>
      <trkpt lat="48.33624" lon="4.50427">
        <ele>144.82</ele>
        <time>2021-08-10T14:14:36Z</time>
      </trkpt>
      <trkpt lat="48.3362" lon="4.50422">
        <ele>145.3</ele>
        <time>2021-08-10T14:14:37Z</time>
      </trkpt>
      <trkpt lat="48.33616" lon="4.50419">
        <ele>146.26</ele>
        <time>2021-08-10T14:14:38Z</time>
      </trkpt>
      <trkpt lat="48.33611" lon="4.50418">
        <ele>146.26</ele>
        <time>2021-08-10T14:14:39Z</time>
      </trkpt>
      <trkpt lat="48.33607" lon="4.50419">
        <ele>146.26</ele>
        <time>2021-08-10T14:14:40Z</time>
      </trkpt>
      <trkpt lat="48.33603" lon="4.50422">
        <ele>146.26</ele>
        <time>2021-08-10T14:14:41Z</time>
      </trkpt>
      <trkpt lat="48.336" lon="4.50427">
        <ele>146.74</ele>
        <time>2021-08-10T14:14:42Z</time>
      </trkpt>
      <trkpt lat="48.33598" lon="4.50432">
        <ele>146.74</ele>
        <time>2021-08-10T14:14:43Z</time>
      </trkpt>
      <trkpt lat="48.33595" lon="4.50437">
        <ele>146.74</ele>
        <time>2021-08-10T14:14:44Z</time>
      </trkpt>
      <trkpt lat="48.33584" lon="4.50485">
        <ele>147.22</ele>
        <time>2021-08-10T14:14:52Z</time>
      </trkpt>
      <trkpt lat="48.33571" lon="4.50527">
        <ele>147.22</ele>
        <time>2021-08-10T14:14:58Z</time>
      </trkpt>
      <trkpt lat="48.33567" lon="4.50533">
        <ele>146.26</ele>
        <time>2021-08-10T14:14:59Z</time>
      </trkpt>
      <trkpt lat="48.33562" lon="4.50538">
        <ele>146.26</ele>
        <time>2021-08-10T14:15:00Z</time>
      </trkpt>
      <trkpt lat="48.33556" lon="4.50541">
        <ele>146.26</ele>
        <time>2021-08-10T14:15:01Z</time>
      </trkpt>
      <trkpt lat="48.3355" lon="4.50543">
        <ele>146.26</ele>
        <time>2021-08-10T14:15:02Z</time>
      </trkpt>
      <trkpt lat="48.335" lon="4.5055">
        <ele>146.26</ele>
        <time>2021-08-10T14:15:10Z</time>
      </trkpt>
      <trkpt lat="48.33466" lon="4.50547">
        <ele>146.26</ele>
        <time>2021-08-10T14:15:16Z</time>
      </trkpt>
      <trkpt lat="48.33454" lon="4.50548">
        <ele>145.78</ele>
        <time>2021-08-10T14:15:18Z</time>
      </trkpt>
      <trkpt lat="48.33448" lon="4.5055">
        <ele>145.78</ele>
        <time>2021-08-10T14:15:19Z</time>
      </trkpt>
      <trkpt lat="48.33402" lon="4.50571">
        <ele>145.78</ele>
        <time>2021-08-10T14:15:27Z</time>
      </trkpt>
      <trkpt lat="48.33344" lon="4.50592">
        <ele>145.3</ele>
        <time>2021-08-10T14:15:37Z</time>
      </trkpt>
      <trkpt lat="48.33327" lon="4.50598">
        <ele>145.3</ele>
        <time>2021-08-10T14:15:40Z</time>
      </trkpt>
      <trkpt lat="48.33322" lon="4.50602">
        <ele>145.3</ele>
        <time>2021-08-10T14:15:41Z</time>
      </trkpt>
      <trkpt lat="48.33317" lon="4.50607">
        <ele>145.3</ele>
        <time>2021-08-10T14:15:42Z</time>
      </trkpt>
      <trkpt lat="48.33314" lon="4.50612">
        <ele>145.3</ele>
        <time>2021-08-10T14:15:43Z</time>
      </trkpt>
      <trkpt lat="48.33311" lon="4.50619">
        <ele>145.3</ele>
        <time>2021-08-10T14:15:44Z</time>
      </trkpt>
      <trkpt lat="48.33297" lon="4.50657">
        <ele>145.3</ele>
        <time>2021-08-10T14:15:49Z</time>
      </trkpt>
      <trkpt lat="48.33292" lon="4.50662">
        <ele>145.3</ele>
        <time>2021-08-10T14:15:50Z</time>
      </trkpt>
      <trkpt lat="48.33286" lon="4.50664">
        <ele>145.3</ele>
        <time>2021-08-10T14:15:51Z</time>
      </trkpt>
      <trkpt lat="48.33282" lon="4.50663">
        <ele>145.3</ele>
        <time>2021-08-10T14:15:52Z</time>
      </trkpt>
      <trkpt lat="48.33276" lon="4.50659">
        <ele>146.74</ele>
        <time>2021-08-10T14:15:53Z</time>
      </trkpt>
      <trkpt lat="48.33273" lon="4.50656">
        <ele>146.74</ele>
        <time>2021-08-10T14:15:54Z</time>
      </trkpt>
      <trkpt lat="48.33269" lon="4.50651">
        <ele>146.74</ele>
        <time>2021-08-10T14:15:55Z</time>
      </trkpt>
      <trkpt lat="48.33266" lon="4.50646">
        <ele>146.74</ele>
        <time>2021-08-10T14:15:56Z</time>
      </trkpt>
      <trkpt lat="48.33262" lon="4.50642">
        <ele>146.74</ele>
        <time>2021-08-10T14:15:57Z</time>
      </trkpt>
      <trkpt lat="48.33245" lon="4.50625">
        <ele>147.22</ele>
        <time>2021-08-10T14:16:01Z</time>
      </trkpt>
      <trkpt lat="48.3324" lon="4.50623">
        <ele>147.22</ele>
        <time>2021-08-10T14:16:02Z</time>
      </trkpt>
      <trkpt lat="48.33235" lon="4.50623">
        <ele>147.22</ele>
        <time>2021-08-10T14:16:03Z</time>
      </trkpt>
      <trkpt lat="48.3323" lon="4.50626">
        <ele>147.22</ele>
        <time>2021-08-10T14:16:04Z</time>
      </trkpt>
      <trkpt lat="48.33226" lon="4.50629">
        <ele>147.22</ele>
        <time>2021-08-10T14:16:05Z</time>
      </trkpt>
      <trkpt lat="48.33221" lon="4.50634">
        <ele>147.7</ele>
        <time>2021-08-10T14:16:06Z</time>
      </trkpt>
      <trkpt lat="48.33217" lon="4.5064">
        <ele>147.7</ele>
        <time>2021-08-10T14:16:07Z</time>
      </trkpt>
      <trkpt lat="48.33191" lon="4.50681">
        <ele>148.18</ele>
        <time>2021-08-10T14:16:15Z</time>
      </trkpt>
      <trkpt lat="48.33161" lon="4.50724">
        <ele>149.14</ele>
        <time>2021-08-10T14:16:24Z</time>
      </trkpt>
      <trkpt lat="48.33124" lon="4.5078">
        <ele>148.66</ele>
        <time>2021-08-10T14:16:34Z</time>
      </trkpt>
      <trkpt lat="48.33109" lon="4.50802">
        <ele>148.66</ele>
        <time>2021-08-10T14:16:38Z</time>
      </trkpt>
      <trkpt lat="48.33105" lon="4.50807">
        <ele>148.66</ele>
        <time>2021-08-10T14:16:39Z</time>
      </trkpt>
      <trkpt lat="48.33074" lon="4.50856">
        <ele>148.66</ele>
        <time>2021-08-10T14:16:47Z</time>
      </trkpt>
      <trkpt lat="48.33066" lon="4.50869">
        <ele>147.7</ele>
        <time>2021-08-10T14:16:49Z</time>
      </trkpt>
      <trkpt lat="48.33037" lon="4.50912">
        <ele>146.74</ele>
        <time>2021-08-10T14:16:56Z</time>
      </trkpt>
      <trkpt lat="48.33032" lon="4.50916">
        <ele>146.26</ele>
        <time>2021-08-10T14:16:57Z</time>
      </trkpt>
      <trkpt lat="48.33026" lon="4.50917">
        <ele>146.26</ele>
        <time>2021-08-10T14:16:58Z</time>
      </trkpt>
      <trkpt lat="48.33021" lon="4.50915">
        <ele>146.26</ele>
        <time>2021-08-10T14:16:59Z</time>
      </trkpt>
      <trkpt lat="48.33016" lon="4.50911">
        <ele>146.26</ele>
        <time>2021-08-10T14:17:00Z</time>
      </trkpt>
      <trkpt lat="48.33012" lon="4.50906">
        <ele>146.26</ele>
        <time>2021-08-10T14:17:01Z</time>
      </trkpt>
      <trkpt lat="48.33009" lon="4.50901">
        <ele>146.26</ele>
        <time>2021-08-10T14:17:02Z</time>
      </trkpt>
      <trkpt lat="48.33006" lon="4.50895">
        <ele>146.26</ele>
        <time>2021-08-10T14:17:03Z</time>
      </trkpt>
      <trkpt lat="48.33002" lon="4.5089">
        <ele>146.26</ele>
        <time>2021-08-10T14:17:04Z</time>
      </trkpt>
      <trkpt lat="48.32999" lon="4.50885">
        <ele>145.78</ele>
        <time>2021-08-10T14:17:05Z</time>
      </trkpt>
      <trkpt lat="48.32995" lon="4.50881">
        <ele>146.26</ele>
        <time>2021-08-10T14:17:06Z</time>
      </trkpt>
      <trkpt lat="48.3299" lon="4.50878">
        <ele>146.26</ele>
        <time>2021-08-10T14:17:07Z</time>
      </trkpt>
      <trkpt lat="48.32984" lon="4.50877">
        <ele>145.78</ele>
        <time>2021-08-10T14:17:08Z</time>
      </trkpt>
      <trkpt lat="48.32978" lon="4.50877">
        <ele>146.26</ele>
        <time>2021-08-10T14:17:09Z</time>
      </trkpt>
      <trkpt lat="48.32973" lon="4.50879">
        <ele>145.78</ele>
        <time>2021-08-10T14:17:10Z</time>
      </trkpt>
      <trkpt lat="48.32967" lon="4.50881">
        <ele>145.78</ele>
        <time>2021-08-10T14:17:11Z</time>
      </trkpt>
      <trkpt lat="48.32961" lon="4.50884">
        <ele>145.3</ele>
        <time>2021-08-10T14:17:12Z</time>
      </trkpt>
      <trkpt lat="48.32913" lon="4.50905">
        <ele>145.78</ele>
        <time>2021-08-10T14:17:20Z</time>
      </trkpt>
      <trkpt lat="48.32909" lon="4.50909">
        <ele>145.78</ele>
        <time>2021-08-10T14:17:21Z</time>
      </trkpt>
      <trkpt lat="48.32905" lon="4.50913">
        <ele>146.74</ele>
        <time>2021-08-10T14:17:22Z</time>
      </trkpt>
      <trkpt lat="48.32901" lon="4.50919">
        <ele>146.74</ele>
        <time>2021-08-10T14:17:23Z</time>
      </trkpt>
      <trkpt lat="48.32898" lon="4.50924">
        <ele>146.74</ele>
        <time>2021-08-10T14:17:24Z</time>
      </trkpt>
      <trkpt lat="48.32876" lon="4.50963">
        <ele>148.18</ele>
        <time>2021-08-10T14:17:32Z</time>
      </trkpt>
      <trkpt lat="48.32856" lon="4.50995">
        <ele>149.62</ele>
        <time>2021-08-10T14:17:39Z</time>
      </trkpt>
      <trkpt lat="48.32838" lon="4.51024">
        <ele>150.1</ele>
        <time>2021-08-10T14:17:45Z</time>
      </trkpt>
      <trkpt lat="48.32834" lon="4.51028">
        <ele>150.1</ele>
        <time>2021-08-10T14:17:46Z</time>
      </trkpt>
      <trkpt lat="48.32831" lon="4.51031">
        <ele>150.1</ele>
        <time>2021-08-10T14:17:47Z</time>
      </trkpt>
      <trkpt lat="48.32826" lon="4.51032">
        <ele>150.1</ele>
        <time>2021-08-10T14:17:48Z</time>
      </trkpt>
      <trkpt lat="48.32821" lon="4.51031">
        <ele>150.1</ele>
        <time>2021-08-10T14:17:49Z</time>
      </trkpt>
      <trkpt lat="48.32817" lon="4.5103">
        <ele>150.1</ele>
        <time>2021-08-10T14:17:50Z</time>
      </trkpt>
      <trkpt lat="48.32813" lon="4.51028">
        <ele>150.1</ele>
        <time>2021-08-10T14:17:51Z</time>
      </trkpt>
      <trkpt lat="48.3281" lon="4.51025">
        <ele>150.1</ele>
        <time>2021-08-10T14:17:52Z</time>
      </trkpt>
      <trkpt lat="48.32806" lon="4.51022">
        <ele>150.1</ele>
        <time>2021-08-10T14:17:53Z</time>
      </trkpt>
      <trkpt lat="48.328" lon="4.51015">
        <ele>150.58</ele>
        <time>2021-08-10T14:17:55Z</time>
      </trkpt>
      <trkpt lat="48.32775" lon="4.50991">
        <ele>150.1</ele>
        <time>2021-08-10T14:18:02Z</time>
      </trkpt>
      <trkpt lat="48.32772" lon="4.50988">
        <ele>150.58</ele>
        <time>2021-08-10T14:18:03Z</time>
      </trkpt>
      <trkpt lat="48.32745" lon="4.50965">
        <ele>151.06</ele>
        <time>2021-08-10T14:18:10Z</time>
      </trkpt>
      <trkpt lat="48.3272" lon="4.50941">
        <ele>151.54</ele>
        <time>2021-08-10T14:18:17Z</time>
      </trkpt>
      <trkpt lat="48.32716" lon="4.50939">
        <ele>152.51</ele>
        <time>2021-08-10T14:18:18Z</time>
      </trkpt>
      <trkpt lat="48.32712" lon="4.50935">
        <ele>152.51</ele>
        <time>2021-08-10T14:18:19Z</time>
      </trkpt>
      <trkpt lat="48.32699" lon="4.50923">
        <ele>152.51</ele>
        <time>2021-08-10T14:18:23Z</time>
      </trkpt>
      <trkpt lat="48.32696" lon="4.50921">
        <ele>152.51</ele>
        <time>2021-08-10T14:18:24Z</time>
      </trkpt>
      <trkpt lat="48.32692" lon="4.50919">
        <ele>152.51</ele>
        <time>2021-08-10T14:18:25Z</time>
      </trkpt>
      <trkpt lat="48.32669" lon="4.50894">
        <ele>153.95</ele>
        <time>2021-08-10T14:18:33Z</time>
      </trkpt>
      <trkpt lat="48.3265" lon="4.50875">
        <ele>154.43</ele>
        <time>2021-08-10T14:18:40Z</time>
      </trkpt>
      <trkpt lat="48.32631" lon="4.50855">
        <ele>155.39</ele>
        <time>2021-08-10T14:18:47Z</time>
      </trkpt>
      <trkpt lat="48.32605" lon="4.50828">
        <ele>156.83</ele>
        <time>2021-08-10T14:18:56Z</time>
      </trkpt>
      <trkpt lat="48.32579" lon="4.50802">
        <ele>157.79</ele>
        <time>2021-08-10T14:19:05Z</time>
      </trkpt>
      <trkpt lat="48.32558" lon="4.50776">
        <ele>158.75</ele>
        <time>2021-08-10T14:19:13Z</time>
      </trkpt>
      <trkpt lat="48.32542" lon="4.5075">
        <ele>159.72</ele>
        <time>2021-08-10T14:19:20Z</time>
      </trkpt>
      <trkpt lat="48.3252" lon="4.50716">
        <ele>159.72</ele>
        <time>2021-08-10T14:19:28Z</time>
      </trkpt>
      <trkpt lat="48.32517" lon="4.50711">
        <ele>159.72</ele>
        <time>2021-08-10T14:19:29Z</time>
      </trkpt>
      <trkpt lat="48.32494" lon="4.50674">
        <ele>160.2</ele>
        <time>2021-08-10T14:19:37Z</time>
      </trkpt>
      <trkpt lat="48.32466" lon="4.50635">
        <ele>161.16</ele>
        <time>2021-08-10T14:19:46Z</time>
      </trkpt>
      <trkpt lat="48.32444" lon="4.506">
        <ele>161.16</ele>
        <time>2021-08-10T14:19:53Z</time>
      </trkpt>
      <trkpt lat="48.32414" lon="4.50548">
        <ele>160.2</ele>
        <time>2021-08-10T14:20:01Z</time>
      </trkpt>
      <trkpt lat="48.32411" lon="4.50545">
        <ele>160.2</ele>
        <time>2021-08-10T14:20:02Z</time>
      </trkpt>
      <trkpt lat="48.32406" lon="4.50541">
        <ele>160.2</ele>
        <time>2021-08-10T14:20:03Z</time>
      </trkpt>
      <trkpt lat="48.32401" lon="4.5054">
        <ele>159.24</ele>
        <time>2021-08-10T14:20:04Z</time>
      </trkpt>
      <trkpt lat="48.32396" lon="4.50535">
        <ele>158.27</ele>
        <time>2021-08-10T14:20:05Z</time>
      </trkpt>
      <trkpt lat="48.32391" lon="4.50535">
        <ele>158.27</ele>
        <time>2021-08-10T14:20:06Z</time>
      </trkpt>
      <trkpt lat="48.32354" lon="4.50552">
        <ele>155.39</ele>
        <time>2021-08-10T14:20:12Z</time>
      </trkpt>
      <trkpt lat="48.32319" lon="4.50568">
        <ele>152.99</ele>
        <time>2021-08-10T14:20:17Z</time>
      </trkpt>
      <trkpt lat="48.32269" lon="4.50588">
        <ele>150.1</ele>
        <time>2021-08-10T14:20:23Z</time>
      </trkpt>
      <trkpt lat="48.32212" lon="4.50616">
        <ele>147.22</ele>
        <time>2021-08-10T14:20:29Z</time>
      </trkpt>
      <trkpt lat="48.32156" lon="4.50648">
        <ele>145.3</ele>
        <time>2021-08-10T14:20:35Z</time>
      </trkpt>
      <trkpt lat="48.32106" lon="4.50695">
        <ele>145.78</ele>
        <time>2021-08-10T14:20:41Z</time>
      </trkpt>
      <trkpt lat="48.32057" lon="4.50743">
        <ele>147.22</ele>
        <time>2021-08-10T14:20:48Z</time>
      </trkpt>
      <trkpt lat="48.32013" lon="4.50793">
        <ele>147.7</ele>
        <time>2021-08-10T14:20:56Z</time>
      </trkpt>
      <trkpt lat="48.3197" lon="4.50839">
        <ele>147.7</ele>
        <time>2021-08-10T14:21:05Z</time>
      </trkpt>
      <trkpt lat="48.31936" lon="4.50872">
        <ele>147.7</ele>
        <time>2021-08-10T14:21:12Z</time>
      </trkpt>
      <trkpt lat="48.31914" lon="4.50886">
        <ele>149.62</ele>
        <time>2021-08-10T14:21:18Z</time>
      </trkpt>
      <trkpt lat="48.319" lon="4.50894">
        <ele>151.06</ele>
        <time>2021-08-10T14:21:24Z</time>
      </trkpt>
      <trkpt lat="48.31884" lon="4.50905">
        <ele>152.03</ele>
        <time>2021-08-10T14:21:31Z</time>
      </trkpt>
      <trkpt lat="48.31866" lon="4.50918">
        <ele>153.95</ele>
        <time>2021-08-10T14:21:39Z</time>
      </trkpt>
      <trkpt lat="48.31844" lon="4.5093">
        <ele>154.91</ele>
        <time>2021-08-10T14:21:47Z</time>
      </trkpt>
      <trkpt lat="48.31821" lon="4.50941">
        <ele>155.87</ele>
        <time>2021-08-10T14:21:55Z</time>
      </trkpt>
      <trkpt lat="48.31791" lon="4.50949">
        <ele>156.83</ele>
        <time>2021-08-10T14:22:05Z</time>
      </trkpt>
      <trkpt lat="48.31773" lon="4.50964">
        <ele>158.27</ele>
        <time>2021-08-10T14:22:13Z</time>
      </trkpt>
      <trkpt lat="48.31762" lon="4.50994">
        <ele>158.75</ele>
        <time>2021-08-10T14:22:21Z</time>
      </trkpt>
      <trkpt lat="48.31753" lon="4.51028">
        <ele>160.68</ele>
        <time>2021-08-10T14:22:29Z</time>
      </trkpt>
      <trkpt lat="48.31741" lon="4.51068">
        <ele>159.24</ele>
        <time>2021-08-10T14:22:36Z</time>
      </trkpt>
      <trkpt lat="48.3174" lon="4.51075">
        <ele>159.24</ele>
        <time>2021-08-10T14:22:37Z</time>
      </trkpt>
      <trkpt lat="48.31725" lon="4.5113">
        <ele>157.79</ele>
        <time>2021-08-10T14:22:44Z</time>
      </trkpt>
      <trkpt lat="48.31707" lon="4.51198">
        <ele>154.91</ele>
        <time>2021-08-10T14:22:51Z</time>
      </trkpt>
      <trkpt lat="48.31697" lon="4.51234">
        <ele>152.99</ele>
        <time>2021-08-10T14:22:54Z</time>
      </trkpt>
      <trkpt lat="48.31686" lon="4.51272">
        <ele>151.06</ele>
        <time>2021-08-10T14:22:57Z</time>
      </trkpt>
      <trkpt lat="48.31675" lon="4.5131">
        <ele>149.62</ele>
        <time>2021-08-10T14:23:00Z</time>
      </trkpt>
      <trkpt lat="48.31641" lon="4.51429">
        <ele>147.22</ele>
        <time>2021-08-10T14:23:09Z</time>
      </trkpt>
      <trkpt lat="48.31622" lon="4.51503">
        <ele>147.22</ele>
        <time>2021-08-10T14:23:16Z</time>
      </trkpt>
      <trkpt lat="48.31603" lon="4.51578">
        <ele>147.22</ele>
        <time>2021-08-10T14:23:24Z</time>
      </trkpt>
      <trkpt lat="48.3159" lon="4.51623">
        <ele>149.62</ele>
        <time>2021-08-10T14:23:30Z</time>
      </trkpt>
      <trkpt lat="48.31588" lon="4.51629">
        <ele>149.62</ele>
        <time>2021-08-10T14:23:31Z</time>
      </trkpt>
      <trkpt lat="48.31582" lon="4.5165">
        <ele>151.06</ele>
        <time>2021-08-10T14:23:36Z</time>
      </trkpt>
      <trkpt lat="48.31577" lon="4.51672">
        <ele>152.51</ele>
        <time>2021-08-10T14:23:42Z</time>
      </trkpt>
      <trkpt lat="48.31568" lon="4.51706">
        <ele>154.43</ele>
        <time>2021-08-10T14:23:52Z</time>
      </trkpt>
      <trkpt lat="48.31559" lon="4.51739">
        <ele>155.39</ele>
        <time>2021-08-10T14:24:01Z</time>
      </trkpt>
      <trkpt lat="48.31551" lon="4.51768">
        <ele>156.35</ele>
        <time>2021-08-10T14:24:09Z</time>
      </trkpt>
      <trkpt lat="48.31543" lon="4.51794">
        <ele>157.31</ele>
        <time>2021-08-10T14:24:16Z</time>
      </trkpt>
      <trkpt lat="48.31534" lon="4.51828">
        <ele>158.75</ele>
        <time>2021-08-10T14:24:24Z</time>
      </trkpt>
      <trkpt lat="48.31524" lon="4.51863">
        <ele>159.72</ele>
        <time>2021-08-10T14:24:32Z</time>
      </trkpt>
      <trkpt lat="48.31511" lon="4.51909">
        <ele>160.68</ele>
        <time>2021-08-10T14:24:42Z</time>
      </trkpt>
      <trkpt lat="48.31497" lon="4.51951">
        <ele>161.16</ele>
        <time>2021-08-10T14:24:51Z</time>
      </trkpt>
      <trkpt lat="48.31488" lon="4.51984">
        <ele>162.6</ele>
        <time>2021-08-10T14:24:58Z</time>
      </trkpt>
      <trkpt lat="48.31477" lon="4.52025">
        <ele>163.56</ele>
        <time>2021-08-10T14:25:07Z</time>
      </trkpt>
      <trkpt lat="48.31465" lon="4.52063">
        <ele>164.04</ele>
        <time>2021-08-10T14:25:15Z</time>
      </trkpt>
      <trkpt lat="48.31452" lon="4.52109">
        <ele>165</ele>
        <time>2021-08-10T14:25:24Z</time>
      </trkpt>
      <trkpt lat="48.31437" lon="4.52164">
        <ele>165.48</ele>
        <time>2021-08-10T14:25:34Z</time>
      </trkpt>
      <trkpt lat="48.31435" lon="4.52171">
        <ele>165.48</ele>
        <time>2021-08-10T14:25:35Z</time>
      </trkpt>
      <trkpt lat="48.31419" lon="4.52235">
        <ele>162.6</ele>
        <time>2021-08-10T14:25:44Z</time>
      </trkpt>
      <trkpt lat="48.31402" lon="4.52296">
        <ele>161.16</ele>
        <time>2021-08-10T14:25:51Z</time>
      </trkpt>
      <trkpt lat="48.314" lon="4.52304">
        <ele>161.16</ele>
        <time>2021-08-10T14:25:52Z</time>
      </trkpt>
      <trkpt lat="48.31397" lon="4.52312">
        <ele>161.16</ele>
        <time>2021-08-10T14:25:53Z</time>
      </trkpt>
      <trkpt lat="48.31395" lon="4.52319">
        <ele>160.68</ele>
        <time>2021-08-10T14:25:54Z</time>
      </trkpt>
      <trkpt lat="48.31392" lon="4.52325">
        <ele>160.68</ele>
        <time>2021-08-10T14:25:55Z</time>
      </trkpt>
      <trkpt lat="48.31389" lon="4.5233">
        <ele>160.68</ele>
        <time>2021-08-10T14:25:56Z</time>
      </trkpt>
      <trkpt lat="48.31385" lon="4.52333">
        <ele>160.68</ele>
        <time>2021-08-10T14:25:57Z</time>
      </trkpt>
      <trkpt lat="48.31382" lon="4.52333">
        <ele>160.68</ele>
        <time>2021-08-10T14:25:58Z</time>
      </trkpt>
      <trkpt lat="48.3138" lon="4.52333">
        <ele>160.68</ele>
        <time>2021-08-10T14:25:59Z</time>
      </trkpt>
      <trkpt lat="48.31377" lon="4.52332">
        <ele>160.68</ele>
        <time>2021-08-10T14:26:00Z</time>
      </trkpt>
      <trkpt lat="48.31374" lon="4.52331">
        <ele>160.68</ele>
        <time>2021-08-10T14:26:01Z</time>
      </trkpt>
      <trkpt lat="48.31352" lon="4.5232">
        <ele>160.68</ele>
        <time>2021-08-10T14:26:07Z</time>
      </trkpt>
      <trkpt lat="48.31316" lon="4.52301">
        <ele>162.12</ele>
        <time>2021-08-10T14:26:15Z</time>
      </trkpt>
      <trkpt lat="48.31287" lon="4.52286">
        <ele>162.6</ele>
        <time>2021-08-10T14:26:22Z</time>
      </trkpt>
      <trkpt lat="48.31271" lon="4.52279">
        <ele>163.08</ele>
        <time>2021-08-10T14:26:26Z</time>
      </trkpt>
      <trkpt lat="48.31238" lon="4.52264">
        <ele>163.56</ele>
        <time>2021-08-10T14:26:34Z</time>
      </trkpt>
      <trkpt lat="48.31207" lon="4.52252">
        <ele>163.56</ele>
        <time>2021-08-10T14:26:41Z</time>
      </trkpt>
      <trkpt lat="48.31159" lon="4.52233">
        <ele>164.52</ele>
        <time>2021-08-10T14:26:51Z</time>
      </trkpt>
      <trkpt lat="48.31107" lon="4.52215">
        <ele>165</ele>
        <time>2021-08-10T14:27:02Z</time>
      </trkpt>
      <trkpt lat="48.31069" lon="4.52202">
        <ele>165.96</ele>
        <time>2021-08-10T14:27:11Z</time>
      </trkpt>
      <trkpt lat="48.31067" lon="4.52197">
        <ele>165.96</ele>
        <time>2021-08-10T14:27:12Z</time>
      </trkpt>
      <trkpt lat="48.31066" lon="4.52191">
        <ele>165.96</ele>
        <time>2021-08-10T14:27:13Z</time>
      </trkpt>
      <trkpt lat="48.31067" lon="4.52185">
        <ele>165.96</ele>
        <time>2021-08-10T14:27:14Z</time>
      </trkpt>
      <trkpt lat="48.31068" lon="4.52179">
        <ele>165.96</ele>
        <time>2021-08-10T14:27:15Z</time>
      </trkpt>
      <trkpt lat="48.3107" lon="4.52129">
        <ele>166.45</ele>
        <time>2021-08-10T14:27:23Z</time>
      </trkpt>
      <trkpt lat="48.31074" lon="4.52066">
        <ele>167.41</ele>
        <time>2021-08-10T14:27:33Z</time>
      </trkpt>
      <trkpt lat="48.31077" lon="4.52007">
        <ele>167.89</ele>
        <time>2021-08-10T14:27:43Z</time>
      </trkpt>
      <trkpt lat="48.3108" lon="4.51965">
        <ele>169.81</ele>
        <time>2021-08-10T14:27:52Z</time>
      </trkpt>
      <trkpt lat="48.31077" lon="4.51939">
        <ele>170.77</ele>
        <time>2021-08-10T14:27:59Z</time>
      </trkpt>
      <trkpt lat="48.31061" lon="4.51928">
        <ele>171.25</ele>
        <time>2021-08-10T14:28:05Z</time>
      </trkpt>
      <trkpt lat="48.3103" lon="4.51917">
        <ele>171.25</ele>
        <time>2021-08-10T14:28:14Z</time>
      </trkpt>
      <trkpt lat="48.31001" lon="4.51905">
        <ele>171.73</ele>
        <time>2021-08-10T14:28:22Z</time>
      </trkpt>
      <trkpt lat="48.30971" lon="4.5189">
        <ele>172.21</ele>
        <time>2021-08-10T14:28:31Z</time>
      </trkpt>
      <trkpt lat="48.30949" lon="4.51881">
        <ele>172.69</ele>
        <time>2021-08-10T14:28:38Z</time>
      </trkpt>
      <trkpt lat="48.30907" lon="4.51866">
        <ele>173.66</ele>
        <time>2021-08-10T14:28:51Z</time>
      </trkpt>
      <trkpt lat="48.30871" lon="4.51854">
        <ele>175.1</ele>
        <time>2021-08-10T14:29:02Z</time>
      </trkpt>
      <trkpt lat="48.30839" lon="4.51843">
        <ele>175.1</ele>
        <time>2021-08-10T14:29:12Z</time>
      </trkpt>
      <trkpt lat="48.30801" lon="4.51831">
        <ele>176.54</ele>
        <time>2021-08-10T14:29:24Z</time>
      </trkpt>
      <trkpt lat="48.30768" lon="4.51822">
        <ele>177.98</ele>
        <time>2021-08-10T14:29:35Z</time>
      </trkpt>
      <trkpt lat="48.30737" lon="4.51815">
        <ele>178.46</ele>
        <time>2021-08-10T14:29:45Z</time>
      </trkpt>
      <trkpt lat="48.30708" lon="4.51808">
        <ele>179.9</ele>
        <time>2021-08-10T14:29:55Z</time>
      </trkpt>
      <trkpt lat="48.30686" lon="4.51802">
        <ele>180.87</ele>
        <time>2021-08-10T14:30:05Z</time>
      </trkpt>
      <trkpt lat="48.30661" lon="4.51796">
        <ele>182.31</ele>
        <time>2021-08-10T14:30:15Z</time>
      </trkpt>
      <trkpt lat="48.30626" lon="4.51788">
        <ele>183.27</ele>
        <time>2021-08-10T14:30:28Z</time>
      </trkpt>
      <trkpt lat="48.30602" lon="4.51784">
        <ele>183.75</ele>
        <time>2021-08-10T14:30:36Z</time>
      </trkpt>
      <trkpt lat="48.30576" lon="4.51777">
        <ele>184.23</ele>
        <time>2021-08-10T14:30:44Z</time>
      </trkpt>
      <trkpt lat="48.30546" lon="4.51768">
        <ele>184.23</ele>
        <time>2021-08-10T14:30:54Z</time>
      </trkpt>
      <trkpt lat="48.3052" lon="4.51761">
        <ele>183.27</ele>
        <time>2021-08-10T14:31:01Z</time>
      </trkpt>
      <trkpt lat="48.30507" lon="4.51757">
        <ele>182.79</ele>
        <time>2021-08-10T14:31:04Z</time>
      </trkpt>
      <trkpt lat="48.30503" lon="4.51755">
        <ele>182.79</ele>
        <time>2021-08-10T14:31:05Z</time>
      </trkpt>
      <trkpt lat="48.30461" lon="4.51732">
        <ele>181.83</ele>
        <time>2021-08-10T14:31:14Z</time>
      </trkpt>
      <trkpt lat="48.30434" lon="4.51717">
        <ele>182.31</ele>
        <time>2021-08-10T14:31:20Z</time>
      </trkpt>
      <trkpt lat="48.30389" lon="4.51681">
        <ele>179.9</ele>
        <time>2021-08-10T14:31:31Z</time>
      </trkpt>
      <trkpt lat="48.3036" lon="4.51656">
        <ele>178.46</ele>
        <time>2021-08-10T14:31:37Z</time>
      </trkpt>
      <trkpt lat="48.30336" lon="4.51636">
        <ele>176.54</ele>
        <time>2021-08-10T14:31:41Z</time>
      </trkpt>
      <trkpt lat="48.30301" lon="4.5161">
        <ele>173.17</ele>
        <time>2021-08-10T14:31:46Z</time>
      </trkpt>
      <trkpt lat="48.30233" lon="4.5157">
        <ele>170.77</ele>
        <time>2021-08-10T14:31:55Z</time>
      </trkpt>
      <trkpt lat="48.30225" lon="4.51566">
        <ele>170.77</ele>
        <time>2021-08-10T14:31:56Z</time>
      </trkpt>
      <trkpt lat="48.30218" lon="4.51563">
        <ele>170.77</ele>
        <time>2021-08-10T14:31:57Z</time>
      </trkpt>
      <trkpt lat="48.3016" lon="4.51552">
        <ele>169.33</ele>
        <time>2021-08-10T14:32:05Z</time>
      </trkpt>
      <trkpt lat="48.30085" lon="4.51545">
        <ele>166.93</ele>
        <time>2021-08-10T14:32:15Z</time>
      </trkpt>
      <trkpt lat="48.30056" lon="4.51544">
        <ele>165.96</ele>
        <time>2021-08-10T14:32:19Z</time>
      </trkpt>
      <trkpt lat="48.29995" lon="4.51559">
        <ele>165.48</ele>
        <time>2021-08-10T14:32:28Z</time>
      </trkpt>
      <trkpt lat="48.29942" lon="4.51587">
        <ele>165</ele>
        <time>2021-08-10T14:32:37Z</time>
      </trkpt>
      <trkpt lat="48.299" lon="4.51618">
        <ele>164.52</ele>
        <time>2021-08-10T14:32:45Z</time>
      </trkpt>
      <trkpt lat="48.2987" lon="4.51641">
        <ele>164.52</ele>
        <time>2021-08-10T14:32:51Z</time>
      </trkpt>
      <trkpt lat="48.2986" lon="4.51647">
        <ele>164.52</ele>
        <time>2021-08-10T14:32:53Z</time>
      </trkpt>
      <trkpt lat="48.29821" lon="4.51668">
        <ele>164.52</ele>
        <time>2021-08-10T14:33:01Z</time>
      </trkpt>
      <trkpt lat="48.29785" lon="4.51684">
        <ele>164.52</ele>
        <time>2021-08-10T14:33:09Z</time>
      </trkpt>
      <trkpt lat="48.29781" lon="4.51686">
        <ele>164.04</ele>
        <time>2021-08-10T14:33:10Z</time>
      </trkpt>
      <trkpt lat="48.29778" lon="4.5169">
        <ele>164.04</ele>
        <time>2021-08-10T14:33:11Z</time>
      </trkpt>
      <trkpt lat="48.29775" lon="4.51695">
        <ele>164.52</ele>
        <time>2021-08-10T14:33:12Z</time>
      </trkpt>
      <trkpt lat="48.29768" lon="4.51716">
        <ele>164.52</ele>
        <time>2021-08-10T14:33:16Z</time>
      </trkpt>
      <trkpt lat="48.29764" lon="4.51719">
        <ele>164.52</ele>
        <time>2021-08-10T14:33:17Z</time>
      </trkpt>
      <trkpt lat="48.29759" lon="4.51719">
        <ele>164.52</ele>
        <time>2021-08-10T14:33:18Z</time>
      </trkpt>
      <trkpt lat="48.29749" lon="4.51719">
        <ele>164.04</ele>
        <time>2021-08-10T14:33:20Z</time>
      </trkpt>
      <trkpt lat="48.29734" lon="4.51715">
        <ele>164.04</ele>
        <time>2021-08-10T14:33:23Z</time>
      </trkpt>
      <trkpt lat="48.29718" lon="4.51711">
        <ele>164.04</ele>
        <time>2021-08-10T14:33:26Z</time>
      </trkpt>
      <trkpt lat="48.29712" lon="4.51709">
        <ele>164.04</ele>
        <time>2021-08-10T14:33:27Z</time>
      </trkpt>
      <trkpt lat="48.29663" lon="4.51686">
        <ele>164.04</ele>
        <time>2021-08-10T14:33:36Z</time>
      </trkpt>
      <trkpt lat="48.29608" lon="4.51657">
        <ele>163.56</ele>
        <time>2021-08-10T14:33:46Z</time>
      </trkpt>
      <trkpt lat="48.29569" lon="4.51633">
        <ele>163.56</ele>
        <time>2021-08-10T14:33:55Z</time>
      </trkpt>
      <trkpt lat="48.29557" lon="4.51626">
        <ele>165</ele>
        <time>2021-08-10T14:33:58Z</time>
      </trkpt>
      <trkpt lat="48.29554" lon="4.51622">
        <ele>165</ele>
        <time>2021-08-10T14:33:59Z</time>
      </trkpt>
      <trkpt lat="48.29553" lon="4.51616">
        <ele>165</ele>
        <time>2021-08-10T14:34:00Z</time>
      </trkpt>
      <trkpt lat="48.29553" lon="4.51611">
        <ele>165</ele>
        <time>2021-08-10T14:34:01Z</time>
      </trkpt>
      <trkpt lat="48.29557" lon="4.51574">
        <ele>165.96</ele>
        <time>2021-08-10T14:34:07Z</time>
      </trkpt>
      <trkpt lat="48.29559" lon="4.51568">
        <ele>164.52</ele>
        <time>2021-08-10T14:34:08Z</time>
      </trkpt>
      <trkpt lat="48.2956" lon="4.51561">
        <ele>164.52</ele>
        <time>2021-08-10T14:34:09Z</time>
      </trkpt>
      <trkpt lat="48.29561" lon="4.51554">
        <ele>164.04</ele>
        <time>2021-08-10T14:34:10Z</time>
      </trkpt>
      <trkpt lat="48.2957" lon="4.51491">
        <ele>162.6</ele>
        <time>2021-08-10T14:34:18Z</time>
      </trkpt>
      <trkpt lat="48.29584" lon="4.51424">
        <ele>162.12</ele>
        <time>2021-08-10T14:34:26Z</time>
      </trkpt>
      <trkpt lat="48.29597" lon="4.51352">
        <ele>162.12</ele>
        <time>2021-08-10T14:34:35Z</time>
      </trkpt>
      <trkpt lat="48.29603" lon="4.51276">
        <ele>162.12</ele>
        <time>2021-08-10T14:34:44Z</time>
      </trkpt>
      <trkpt lat="48.29608" lon="4.51208">
        <ele>163.08</ele>
        <time>2021-08-10T14:34:53Z</time>
      </trkpt>
      <trkpt lat="48.29615" lon="4.51126">
        <ele>163.56</ele>
        <time>2021-08-10T14:35:04Z</time>
      </trkpt>
      <trkpt lat="48.29616" lon="4.51104">
        <ele>163.56</ele>
        <time>2021-08-10T14:35:07Z</time>
      </trkpt>
      <trkpt lat="48.29614" lon="4.51043">
        <ele>164.52</ele>
        <time>2021-08-10T14:35:17Z</time>
      </trkpt>
      <trkpt lat="48.29611" lon="4.50997">
        <ele>165</ele>
        <time>2021-08-10T14:35:26Z</time>
      </trkpt>
      <trkpt lat="48.29604" lon="4.50947">
        <ele>165.96</ele>
        <time>2021-08-10T14:35:36Z</time>
      </trkpt>
      <trkpt lat="48.29586" lon="4.50886">
        <ele>167.41</ele>
        <time>2021-08-10T14:35:49Z</time>
      </trkpt>
      <trkpt lat="48.29563" lon="4.50853">
        <ele>167.41</ele>
        <time>2021-08-10T14:35:58Z</time>
      </trkpt>
      <trkpt lat="48.29524" lon="4.50822">
        <ele>167.89</ele>
        <time>2021-08-10T14:36:10Z</time>
      </trkpt>
      <trkpt lat="48.29503" lon="4.50784">
        <ele>167.89</ele>
        <time>2021-08-10T14:36:19Z</time>
      </trkpt>
      <trkpt lat="48.295" lon="4.50772">
        <ele>167.89</ele>
        <time>2021-08-10T14:36:21Z</time>
      </trkpt>
      <trkpt lat="48.29496" lon="4.50707">
        <ele>168.37</ele>
        <time>2021-08-10T14:36:31Z</time>
      </trkpt>
      <trkpt lat="48.29496" lon="4.50631">
        <ele>168.37</ele>
        <time>2021-08-10T14:36:42Z</time>
      </trkpt>
      <trkpt lat="48.29496" lon="4.50572">
        <ele>169.33</ele>
        <time>2021-08-10T14:36:52Z</time>
      </trkpt>
      <trkpt lat="48.29493" lon="4.50517">
        <ele>170.77</ele>
        <time>2021-08-10T14:37:04Z</time>
      </trkpt>
      <trkpt lat="48.29483" lon="4.50486">
        <ele>172.21</ele>
        <time>2021-08-10T14:37:13Z</time>
      </trkpt>
      <trkpt lat="48.29472" lon="4.50461">
        <ele>174.14</ele>
        <time>2021-08-10T14:37:21Z</time>
      </trkpt>
      <trkpt lat="48.29463" lon="4.50431">
        <ele>175.58</ele>
        <time>2021-08-10T14:37:30Z</time>
      </trkpt>
      <trkpt lat="48.29461" lon="4.50403">
        <ele>177.02</ele>
        <time>2021-08-10T14:37:39Z</time>
      </trkpt>
      <trkpt lat="48.29466" lon="4.50377">
        <ele>177.98</ele>
        <time>2021-08-10T14:37:48Z</time>
      </trkpt>
      <trkpt lat="48.29473" lon="4.50352">
        <ele>179.42</ele>
        <time>2021-08-10T14:37:57Z</time>
      </trkpt>
      <trkpt lat="48.29481" lon="4.50327">
        <ele>180.38</ele>
        <time>2021-08-10T14:38:06Z</time>
      </trkpt>
      <trkpt lat="48.29489" lon="4.50298">
        <ele>182.31</ele>
        <time>2021-08-10T14:38:16Z</time>
      </trkpt>
      <trkpt lat="48.29498" lon="4.50267">
        <ele>183.27</ele>
        <time>2021-08-10T14:38:27Z</time>
      </trkpt>
      <trkpt lat="48.29509" lon="4.5023">
        <ele>184.71</ele>
        <time>2021-08-10T14:38:39Z</time>
      </trkpt>
      <trkpt lat="48.29517" lon="4.50202">
        <ele>186.15</ele>
        <time>2021-08-10T14:38:48Z</time>
      </trkpt>
      <trkpt lat="48.29528" lon="4.50166">
        <ele>187.59</ele>
        <time>2021-08-10T14:39:00Z</time>
      </trkpt>
      <trkpt lat="48.29536" lon="4.50138">
        <ele>189.52</ele>
        <time>2021-08-10T14:39:09Z</time>
      </trkpt>
      <trkpt lat="48.29544" lon="4.50107">
        <ele>190.48</ele>
        <time>2021-08-10T14:39:19Z</time>
      </trkpt>
      <trkpt lat="48.29549" lon="4.50082">
        <ele>190.96</ele>
        <time>2021-08-10T14:39:26Z</time>
      </trkpt>
      <trkpt lat="48.29554" lon="4.50051">
        <ele>190.96</ele>
        <time>2021-08-10T14:39:33Z</time>
      </trkpt>
      <trkpt lat="48.29553" lon="4.50001">
        <ele>190.96</ele>
        <time>2021-08-10T14:39:41Z</time>
      </trkpt>
      <trkpt lat="48.29552" lon="4.49975">
        <ele>189.52</ele>
        <time>2021-08-10T14:39:44Z</time>
      </trkpt>
      <trkpt lat="48.29547" lon="4.49897">
        <ele>186.63</ele>
        <time>2021-08-10T14:39:52Z</time>
      </trkpt>
      <trkpt lat="48.29541" lon="4.49816">
        <ele>184.23</ele>
        <time>2021-08-10T14:39:59Z</time>
      </trkpt>
      <trkpt lat="48.29537" lon="4.49753">
        <ele>182.79</ele>
        <time>2021-08-10T14:40:04Z</time>
      </trkpt>
      <trkpt lat="48.29529" lon="4.49649">
        <ele>179.42</ele>
        <time>2021-08-10T14:40:12Z</time>
      </trkpt>
      <trkpt lat="48.29523" lon="4.4956">
        <ele>178.46</ele>
        <time>2021-08-10T14:40:19Z</time>
      </trkpt>
      <trkpt lat="48.29518" lon="4.49502">
        <ele>177.5</ele>
        <time>2021-08-10T14:40:24Z</time>
      </trkpt>
      <trkpt lat="48.2952" lon="4.49458">
        <ele>177.98</ele>
        <time>2021-08-10T14:40:28Z</time>
      </trkpt>
      <trkpt lat="48.29522" lon="4.49448">
        <ele>177.98</ele>
        <time>2021-08-10T14:40:29Z</time>
      </trkpt>
      <trkpt lat="48.29543" lon="4.49379">
        <ele>175.58</ele>
        <time>2021-08-10T14:40:36Z</time>
      </trkpt>
      <trkpt lat="48.29578" lon="4.49293">
        <ele>174.14</ele>
        <time>2021-08-10T14:40:45Z</time>
      </trkpt>
      <trkpt lat="48.29619" lon="4.492">
        <ele>172.21</ele>
        <time>2021-08-10T14:40:55Z</time>
      </trkpt>
      <trkpt lat="48.29652" lon="4.49122">
        <ele>170.29</ele>
        <time>2021-08-10T14:41:03Z</time>
      </trkpt>
      <trkpt lat="48.29675" lon="4.49067">
        <ele>166.93</ele>
        <time>2021-08-10T14:41:08Z</time>
      </trkpt>
      <trkpt lat="48.29707" lon="4.49007">
        <ele>163.56</ele>
        <time>2021-08-10T14:41:13Z</time>
      </trkpt>
      <trkpt lat="48.2972" lon="4.48984">
        <ele>162.6</ele>
        <time>2021-08-10T14:41:15Z</time>
      </trkpt>
      <trkpt lat="48.29739" lon="4.48945">
        <ele>159.24</ele>
        <time>2021-08-10T14:41:18Z</time>
      </trkpt>
      <trkpt lat="48.29744" lon="4.48931">
        <ele>158.75</ele>
        <time>2021-08-10T14:41:19Z</time>
      </trkpt>
      <trkpt lat="48.29749" lon="4.48916">
        <ele>157.79</ele>
        <time>2021-08-10T14:41:20Z</time>
      </trkpt>
      <trkpt lat="48.29766" lon="4.48824">
        <ele>155.87</ele>
        <time>2021-08-10T14:41:26Z</time>
      </trkpt>
      <trkpt lat="48.29775" lon="4.4875">
        <ele>158.27</ele>
        <time>2021-08-10T14:41:32Z</time>
      </trkpt>
      <trkpt lat="48.29778" lon="4.48719">
        <ele>159.72</ele>
        <time>2021-08-10T14:41:36Z</time>
      </trkpt>
      <trkpt lat="48.2978" lon="4.48693">
        <ele>161.16</ele>
        <time>2021-08-10T14:41:41Z</time>
      </trkpt>
      <trkpt lat="48.29781" lon="4.48666">
        <ele>162.6</ele>
        <time>2021-08-10T14:41:49Z</time>
      </trkpt>
      <trkpt lat="48.29782" lon="4.48639">
        <ele>163.56</ele>
        <time>2021-08-10T14:41:57Z</time>
      </trkpt>
      <trkpt lat="48.29783" lon="4.48611">
        <ele>164.52</ele>
        <time>2021-08-10T14:42:05Z</time>
      </trkpt>
      <trkpt lat="48.29785" lon="4.48585">
        <ele>165.96</ele>
        <time>2021-08-10T14:42:12Z</time>
      </trkpt>
      <trkpt lat="48.29785" lon="4.48555">
        <ele>167.41</ele>
        <time>2021-08-10T14:42:20Z</time>
      </trkpt>
      <trkpt lat="48.29786" lon="4.48526">
        <ele>168.85</ele>
        <time>2021-08-10T14:42:28Z</time>
      </trkpt>
      <trkpt lat="48.2979" lon="4.48491">
        <ele>170.77</ele>
        <time>2021-08-10T14:42:39Z</time>
      </trkpt>
      <trkpt lat="48.29787" lon="4.4847">
        <ele>171.25</ele>
        <time>2021-08-10T14:42:47Z</time>
      </trkpt>
      <trkpt lat="48.29787" lon="4.48468">
        <ele>171.25</ele>
        <time>2021-08-10T14:42:48Z</time>
      </trkpt>
      <trkpt lat="48.29787" lon="4.48465">
        <ele>171.73</ele>
        <time>2021-08-10T14:42:49Z</time>
      </trkpt>
      <trkpt lat="48.29786" lon="4.48462">
        <ele>171.73</ele>
        <time>2021-08-10T14:42:50Z</time>
      </trkpt>
      <trkpt lat="48.29786" lon="4.48459">
        <ele>172.21</ele>
        <time>2021-08-10T14:42:51Z</time>
      </trkpt>
      <trkpt lat="48.29785" lon="4.48456">
        <ele>172.21</ele>
        <time>2021-08-10T14:42:52Z</time>
      </trkpt>
      <trkpt lat="48.29785" lon="4.48453">
        <ele>172.21</ele>
        <time>2021-08-10T14:42:53Z</time>
      </trkpt>
      <trkpt lat="48.29784" lon="4.4845">
        <ele>172.21</ele>
        <time>2021-08-10T14:42:54Z</time>
      </trkpt>
      <trkpt lat="48.29776" lon="4.48427">
        <ele>173.17</ele>
        <time>2021-08-10T14:43:02Z</time>
      </trkpt>
      <trkpt lat="48.29768" lon="4.48408">
        <ele>173.66</ele>
        <time>2021-08-10T14:43:09Z</time>
      </trkpt>
      <trkpt lat="48.29757" lon="4.48385">
        <ele>174.62</ele>
        <time>2021-08-10T14:43:15Z</time>
      </trkpt>
      <trkpt lat="48.29744" lon="4.48358">
        <ele>174.62</ele>
        <time>2021-08-10T14:43:22Z</time>
      </trkpt>
      <trkpt lat="48.29726" lon="4.48314">
        <ele>175.58</ele>
        <time>2021-08-10T14:43:31Z</time>
      </trkpt>
      <trkpt lat="48.29724" lon="4.48295">
        <ele>174.14</ele>
        <time>2021-08-10T14:43:34Z</time>
      </trkpt>
      <trkpt lat="48.29725" lon="4.4829">
        <ele>174.14</ele>
        <time>2021-08-10T14:43:35Z</time>
      </trkpt>
      <trkpt lat="48.29727" lon="4.48277">
        <ele>173.66</ele>
        <time>2021-08-10T14:43:37Z</time>
      </trkpt>
      <trkpt lat="48.29729" lon="4.48264">
        <ele>172.69</ele>
        <time>2021-08-10T14:43:39Z</time>
      </trkpt>
      <trkpt lat="48.29742" lon="4.48208">
        <ele>170.77</ele>
        <time>2021-08-10T14:43:45Z</time>
      </trkpt>
      <trkpt lat="48.29744" lon="4.48199">
        <ele>170.77</ele>
        <time>2021-08-10T14:43:46Z</time>
      </trkpt>
      <trkpt lat="48.29763" lon="4.48118">
        <ele>169.81</ele>
        <time>2021-08-10T14:43:54Z</time>
      </trkpt>
      <trkpt lat="48.2978" lon="4.48055">
        <ele>168.85</ele>
        <time>2021-08-10T14:44:00Z</time>
      </trkpt>
      <trkpt lat="48.29796" lon="4.47983">
        <ele>168.85</ele>
        <time>2021-08-10T14:44:07Z</time>
      </trkpt>
      <trkpt lat="48.298" lon="4.47959">
        <ele>170.29</ele>
        <time>2021-08-10T14:44:10Z</time>
      </trkpt>
      <trkpt lat="48.29811" lon="4.47918">
        <ele>172.21</ele>
        <time>2021-08-10T14:44:17Z</time>
      </trkpt>
      <trkpt lat="48.29821" lon="4.47873">
        <ele>172.69</ele>
        <time>2021-08-10T14:44:25Z</time>
      </trkpt>
      <trkpt lat="48.29832" lon="4.47819">
        <ele>172.69</ele>
        <time>2021-08-10T14:44:32Z</time>
      </trkpt>
      <trkpt lat="48.2985" lon="4.47741">
        <ele>170.77</ele>
        <time>2021-08-10T14:44:41Z</time>
      </trkpt>
      <trkpt lat="48.29871" lon="4.47647">
        <ele>168.37</ele>
        <time>2021-08-10T14:44:51Z</time>
      </trkpt>
      <trkpt lat="48.2989" lon="4.47567">
        <ele>165.48</ele>
        <time>2021-08-10T14:44:59Z</time>
      </trkpt>
      <trkpt lat="48.29895" lon="4.47543">
        <ele>164.52</ele>
        <time>2021-08-10T14:45:01Z</time>
      </trkpt>
      <trkpt lat="48.29903" lon="4.47508">
        <ele>163.08</ele>
        <time>2021-08-10T14:45:04Z</time>
      </trkpt>
      <trkpt lat="48.29927" lon="4.47413">
        <ele>160.2</ele>
        <time>2021-08-10T14:45:12Z</time>
      </trkpt>
      <trkpt lat="48.29935" lon="4.4738">
        <ele>162.12</ele>
        <time>2021-08-10T14:45:16Z</time>
      </trkpt>
      <trkpt lat="48.29937" lon="4.47373">
        <ele>162.6</ele>
        <time>2021-08-10T14:45:17Z</time>
      </trkpt>
      <trkpt lat="48.29944" lon="4.47332">
        <ele>164.52</ele>
        <time>2021-08-10T14:45:24Z</time>
      </trkpt>
      <trkpt lat="48.29952" lon="4.47294">
        <ele>165.96</ele>
        <time>2021-08-10T14:45:31Z</time>
      </trkpt>
      <trkpt lat="48.29963" lon="4.47248">
        <ele>165.96</ele>
        <time>2021-08-10T14:45:39Z</time>
      </trkpt>
      <trkpt lat="48.29965" lon="4.47241">
        <ele>165.96</ele>
        <time>2021-08-10T14:45:40Z</time>
      </trkpt>
      <trkpt lat="48.29966" lon="4.47234">
        <ele>165.96</ele>
        <time>2021-08-10T14:45:41Z</time>
      </trkpt>
      <trkpt lat="48.29983" lon="4.47166">
        <ele>165.96</ele>
        <time>2021-08-10T14:45:51Z</time>
      </trkpt>
      <trkpt lat="48.29994" lon="4.47112">
        <ele>166.45</ele>
        <time>2021-08-10T14:46:00Z</time>
      </trkpt>
      <trkpt lat="48.30001" lon="4.47079">
        <ele>167.41</ele>
        <time>2021-08-10T14:46:07Z</time>
      </trkpt>
      <trkpt lat="48.30009" lon="4.47045">
        <ele>167.41</ele>
        <time>2021-08-10T14:46:14Z</time>
      </trkpt>
      <trkpt lat="48.30018" lon="4.47007">
        <ele>168.85</ele>
        <time>2021-08-10T14:46:21Z</time>
      </trkpt>
      <trkpt lat="48.30029" lon="4.46965">
        <ele>168.85</ele>
        <time>2021-08-10T14:46:29Z</time>
      </trkpt>
      <trkpt lat="48.30038" lon="4.4693">
        <ele>168.85</ele>
        <time>2021-08-10T14:46:36Z</time>
      </trkpt>
      <trkpt lat="48.30047" lon="4.46896">
        <ele>169.81</ele>
        <time>2021-08-10T14:46:43Z</time>
      </trkpt>
      <trkpt lat="48.30057" lon="4.46851">
        <ele>169.81</ele>
        <time>2021-08-10T14:46:51Z</time>
      </trkpt>
      <trkpt lat="48.30061" lon="4.46831">
        <ele>169.81</ele>
        <time>2021-08-10T14:46:54Z</time>
      </trkpt>
      <trkpt lat="48.30074" lon="4.46778">
        <ele>169.81</ele>
        <time>2021-08-10T14:47:02Z</time>
      </trkpt>
      <trkpt lat="48.30085" lon="4.46729">
        <ele>171.25</ele>
        <time>2021-08-10T14:47:11Z</time>
      </trkpt>
      <trkpt lat="48.3009" lon="4.46708">
        <ele>172.69</ele>
        <time>2021-08-10T14:47:18Z</time>
      </trkpt>
      <trkpt lat="48.30095" lon="4.46683">
        <ele>173.66</ele>
        <time>2021-08-10T14:47:28Z</time>
      </trkpt>
      <trkpt lat="48.301" lon="4.46654">
        <ele>175.1</ele>
        <time>2021-08-10T14:47:37Z</time>
      </trkpt>
      <trkpt lat="48.30105" lon="4.46632">
        <ele>175.58</ele>
        <time>2021-08-10T14:47:44Z</time>
      </trkpt>
      <trkpt lat="48.30109" lon="4.46605">
        <ele>176.54</ele>
        <time>2021-08-10T14:47:52Z</time>
      </trkpt>
      <trkpt lat="48.30115" lon="4.46581">
        <ele>177.5</ele>
        <time>2021-08-10T14:48:00Z</time>
      </trkpt>
      <trkpt lat="48.30119" lon="4.46562">
        <ele>178.46</ele>
        <time>2021-08-10T14:48:07Z</time>
      </trkpt>
      <trkpt lat="48.30123" lon="4.46547">
        <ele>178.94</ele>
        <time>2021-08-10T14:48:13Z</time>
      </trkpt>
      <trkpt lat="48.30127" lon="4.46532">
        <ele>179.9</ele>
        <time>2021-08-10T14:48:20Z</time>
      </trkpt>
      <trkpt lat="48.30128" lon="4.46531">
        <ele>179.9</ele>
        <time>2021-08-10T14:48:21Z</time>
      </trkpt>
      <trkpt lat="48.30133" lon="4.46512">
        <ele>180.38</ele>
        <time>2021-08-10T14:48:29Z</time>
      </trkpt>
      <trkpt lat="48.30136" lon="4.46496">
        <ele>181.35</ele>
        <time>2021-08-10T14:48:36Z</time>
      </trkpt>
      <trkpt lat="48.30141" lon="4.46478">
        <ele>181.35</ele>
        <time>2021-08-10T14:48:43Z</time>
      </trkpt>
      <trkpt lat="48.30141" lon="4.46475">
        <ele>181.35</ele>
        <time>2021-08-10T14:48:44Z</time>
      </trkpt>
      <trkpt lat="48.30141" lon="4.46473">
        <ele>181.83</ele>
        <time>2021-08-10T14:48:45Z</time>
      </trkpt>
      <trkpt lat="48.30141" lon="4.4647">
        <ele>181.83</ele>
        <time>2021-08-10T14:48:46Z</time>
      </trkpt>
      <trkpt lat="48.30141" lon="4.46468">
        <ele>181.83</ele>
        <time>2021-08-10T14:48:47Z</time>
      </trkpt>
      <trkpt lat="48.30141" lon="4.46465">
        <ele>181.83</ele>
        <time>2021-08-10T14:48:48Z</time>
      </trkpt>
      <trkpt lat="48.3014" lon="4.4646">
        <ele>181.83</ele>
        <time>2021-08-10T14:48:49Z</time>
      </trkpt>
      <trkpt lat="48.3014" lon="4.46456">
        <ele>181.83</ele>
        <time>2021-08-10T14:48:50Z</time>
      </trkpt>
      <trkpt lat="48.30139" lon="4.46452">
        <ele>181.83</ele>
        <time>2021-08-10T14:48:51Z</time>
      </trkpt>
      <trkpt lat="48.30139" lon="4.46448">
        <ele>181.83</ele>
        <time>2021-08-10T14:48:52Z</time>
      </trkpt>
      <trkpt lat="48.3014" lon="4.46441">
        <ele>181.83</ele>
        <time>2021-08-10T14:48:54Z</time>
      </trkpt>
      <trkpt lat="48.3014" lon="4.46439">
        <ele>181.83</ele>
        <time>2021-08-10T14:48:55Z</time>
      </trkpt>
      <trkpt lat="48.30141" lon="4.46435">
        <ele>181.83</ele>
        <time>2021-08-10T14:48:56Z</time>
      </trkpt>
      <trkpt lat="48.30141" lon="4.46432">
        <ele>181.83</ele>
        <time>2021-08-10T14:48:57Z</time>
      </trkpt>
      <trkpt lat="48.30142" lon="4.4643">
        <ele>181.83</ele>
        <time>2021-08-10T14:48:58Z</time>
      </trkpt>
      <trkpt lat="48.30143" lon="4.46427">
        <ele>181.83</ele>
        <time>2021-08-10T14:48:59Z</time>
      </trkpt>
      <trkpt lat="48.30144" lon="4.46425">
        <ele>181.83</ele>
        <time>2021-08-10T14:49:00Z</time>
      </trkpt>
      <trkpt lat="48.30145" lon="4.46422">
        <ele>181.83</ele>
        <time>2021-08-10T14:49:01Z</time>
      </trkpt>
      <trkpt lat="48.30145" lon="4.46419">
        <ele>181.83</ele>
        <time>2021-08-10T14:49:02Z</time>
      </trkpt>
      <trkpt lat="48.30146" lon="4.46417">
        <ele>181.83</ele>
        <time>2021-08-10T14:49:03Z</time>
      </trkpt>
      <trkpt lat="48.30145" lon="4.46414">
        <ele>181.83</ele>
        <time>2021-08-10T14:49:04Z</time>
      </trkpt>
      <trkpt lat="48.30144" lon="4.46382">
        <ele>181.83</ele>
        <time>2021-08-10T14:49:11Z</time>
      </trkpt>
      <trkpt lat="48.30143" lon="4.46349">
        <ele>181.83</ele>
        <time>2021-08-10T14:49:17Z</time>
      </trkpt>
      <trkpt lat="48.30136" lon="4.46286">
        <ele>180.87</ele>
        <time>2021-08-10T14:49:26Z</time>
      </trkpt>
      <trkpt lat="48.30131" lon="4.46244">
        <ele>180.87</ele>
        <time>2021-08-10T14:49:32Z</time>
      </trkpt>
      <trkpt lat="48.30127" lon="4.46195">
        <ele>179.9</ele>
        <time>2021-08-10T14:49:39Z</time>
      </trkpt>
      <trkpt lat="48.30124" lon="4.46161">
        <ele>179.9</ele>
        <time>2021-08-10T14:49:45Z</time>
      </trkpt>
      <trkpt lat="48.30119" lon="4.46122">
        <ele>179.42</ele>
        <time>2021-08-10T14:49:51Z</time>
      </trkpt>
      <trkpt lat="48.30117" lon="4.46092">
        <ele>178.94</ele>
        <time>2021-08-10T14:49:55Z</time>
      </trkpt>
      <trkpt lat="48.30118" lon="4.46084">
        <ele>178.94</ele>
        <time>2021-08-10T14:49:56Z</time>
      </trkpt>
      <trkpt lat="48.30118" lon="4.46055">
        <ele>178.46</ele>
        <time>2021-08-10T14:50:00Z</time>
      </trkpt>
      <trkpt lat="48.30114" lon="4.46003">
        <ele>176.06</ele>
        <time>2021-08-10T14:50:06Z</time>
      </trkpt>
      <trkpt lat="48.30106" lon="4.45912">
        <ele>173.66</ele>
        <time>2021-08-10T14:50:15Z</time>
      </trkpt>
      <trkpt lat="48.30098" lon="4.45834">
        <ele>171.73</ele>
        <time>2021-08-10T14:50:23Z</time>
      </trkpt>
      <trkpt lat="48.30096" lon="4.45806">
        <ele>171.73</ele>
        <time>2021-08-10T14:50:26Z</time>
      </trkpt>
      <trkpt lat="48.30095" lon="4.45798">
        <ele>171.73</ele>
        <time>2021-08-10T14:50:27Z</time>
      </trkpt>
      <trkpt lat="48.30094" lon="4.45788">
        <ele>171.73</ele>
        <time>2021-08-10T14:50:28Z</time>
      </trkpt>
      <trkpt lat="48.30093" lon="4.4578">
        <ele>171.73</ele>
        <time>2021-08-10T14:50:29Z</time>
      </trkpt>
      <trkpt lat="48.30092" lon="4.45771">
        <ele>170.77</ele>
        <time>2021-08-10T14:50:30Z</time>
      </trkpt>
      <trkpt lat="48.30091" lon="4.45752">
        <ele>170.29</ele>
        <time>2021-08-10T14:50:32Z</time>
      </trkpt>
      <trkpt lat="48.30086" lon="4.457">
        <ele>168.37</ele>
        <time>2021-08-10T14:50:37Z</time>
      </trkpt>
      <trkpt lat="48.3008" lon="4.45629">
        <ele>165</ele>
        <time>2021-08-10T14:50:43Z</time>
      </trkpt>
      <trkpt lat="48.30071" lon="4.45531">
        <ele>163.56</ele>
        <time>2021-08-10T14:50:51Z</time>
      </trkpt>
      <trkpt lat="48.30069" lon="4.45508">
        <ele>163.08</ele>
        <time>2021-08-10T14:50:53Z</time>
      </trkpt>
      <trkpt lat="48.30062" lon="4.45425">
        <ele>161.64</ele>
        <time>2021-08-10T14:51:01Z</time>
      </trkpt>
      <trkpt lat="48.30057" lon="4.45363">
        <ele>160.68</ele>
        <time>2021-08-10T14:51:08Z</time>
      </trkpt>
      <trkpt lat="48.3005" lon="4.45298">
        <ele>159.72</ele>
        <time>2021-08-10T14:51:15Z</time>
      </trkpt>
      <trkpt lat="48.30045" lon="4.45228">
        <ele>158.27</ele>
        <time>2021-08-10T14:51:22Z</time>
      </trkpt>
      <trkpt lat="48.30041" lon="4.45164">
        <ele>156.35</ele>
        <time>2021-08-10T14:51:28Z</time>
      </trkpt>
      <trkpt lat="48.30039" lon="4.45127">
        <ele>157.79</ele>
        <time>2021-08-10T14:51:32Z</time>
      </trkpt>
      <trkpt lat="48.30039" lon="4.4512">
        <ele>157.79</ele>
        <time>2021-08-10T14:51:33Z</time>
      </trkpt>
      <trkpt lat="48.30033" lon="4.45077">
        <ele>158.75</ele>
        <time>2021-08-10T14:51:40Z</time>
      </trkpt>
      <trkpt lat="48.30027" lon="4.4504">
        <ele>159.72</ele>
        <time>2021-08-10T14:51:48Z</time>
      </trkpt>
      <trkpt lat="48.30024" lon="4.45007">
        <ele>159.72</ele>
        <time>2021-08-10T14:51:55Z</time>
      </trkpt>
      <trkpt lat="48.3002" lon="4.44965">
        <ele>160.2</ele>
        <time>2021-08-10T14:52:03Z</time>
      </trkpt>
      <trkpt lat="48.30016" lon="4.44926">
        <ele>160.68</ele>
        <time>2021-08-10T14:52:10Z</time>
      </trkpt>
      <trkpt lat="48.3001" lon="4.44883">
        <ele>160.68</ele>
        <time>2021-08-10T14:52:18Z</time>
      </trkpt>
      <trkpt lat="48.30006" lon="4.44833">
        <ele>160.68</ele>
        <time>2021-08-10T14:52:26Z</time>
      </trkpt>
      <trkpt lat="48.30004" lon="4.4481">
        <ele>159.24</ele>
        <time>2021-08-10T14:52:30Z</time>
      </trkpt>
      <trkpt lat="48.29998" lon="4.44758">
        <ele>158.27</ele>
        <time>2021-08-10T14:52:38Z</time>
      </trkpt>
      <trkpt lat="48.29997" lon="4.4475">
        <ele>158.27</ele>
        <time>2021-08-10T14:52:39Z</time>
      </trkpt>
      <trkpt lat="48.29995" lon="4.44747">
        <ele>158.27</ele>
        <time>2021-08-10T14:52:40Z</time>
      </trkpt>
      <trkpt lat="48.29992" lon="4.44748">
        <ele>158.27</ele>
        <time>2021-08-10T14:52:41Z</time>
      </trkpt>
      <trkpt lat="48.29991" lon="4.44749">
        <ele>158.27</ele>
        <time>2021-08-10T14:52:42Z</time>
      </trkpt>
      <trkpt lat="48.29989" lon="4.4475">
        <ele>158.27</ele>
        <time>2021-08-10T14:52:43Z</time>
      </trkpt>
      <trkpt lat="48.29987" lon="4.44752">
        <ele>158.27</ele>
        <time>2021-08-10T14:52:44Z</time>
      </trkpt>
      <trkpt lat="48.29985" lon="4.44753">
        <ele>158.27</ele>
        <time>2021-08-10T14:52:45Z</time>
      </trkpt>
      <trkpt lat="48.29983" lon="4.44756">
        <ele>158.27</ele>
        <time>2021-08-10T14:52:46Z</time>
      </trkpt>
      <trkpt lat="48.29981" lon="4.44758">
        <ele>158.27</ele>
        <time>2021-08-10T14:52:47Z</time>
      </trkpt>
      <trkpt lat="48.29979" lon="4.44761">
        <ele>158.27</ele>
        <time>2021-08-10T14:52:48Z</time>
      </trkpt>
      <trkpt lat="48.29962" lon="4.44779">
        <ele>158.27</ele>
        <time>2021-08-10T14:52:54Z</time>
      </trkpt>
      <trkpt lat="48.29937" lon="4.44807">
        <ele>157.79</ele>
        <time>2021-08-10T14:53:01Z</time>
      </trkpt>
      <trkpt lat="48.29915" lon="4.44833">
        <ele>157.79</ele>
        <time>2021-08-10T14:53:07Z</time>
      </trkpt>
      <trkpt lat="48.29899" lon="4.44851">
        <ele>158.27</ele>
        <time>2021-08-10T14:53:14Z</time>
      </trkpt>
      <trkpt lat="48.29897" lon="4.44853">
        <ele>158.27</ele>
        <time>2021-08-10T14:53:23Z</time>
      </trkpt>
      <trkpt lat="48.29897" lon="4.44857">
        <ele>158.27</ele>
        <time>2021-08-10T14:53:42Z</time>
      </trkpt>
      <trkpt lat="48.29895" lon="4.44859">
        <ele>158.27</ele>
        <time>2021-08-10T14:53:55Z</time>
      </trkpt>
      <trkpt lat="48.29895" lon="4.44862">
        <ele>159.72</ele>
        <time>2021-08-10T14:54:16Z</time>
      </trkpt>
      <trkpt lat="48.29895" lon="4.44864">
        <ele>159.72</ele>
        <time>2021-08-10T14:54:32Z</time>
      </trkpt>
      <trkpt lat="48.29894" lon="4.44863">
        <ele>159.72</ele>
        <time>2021-08-10T14:54:49Z</time>
      </trkpt>
      <trkpt lat="48.29893" lon="4.44864">
        <ele>159.72</ele>
        <time>2021-08-10T14:55:05Z</time>
      </trkpt>
      <trkpt lat="48.29892" lon="4.44867">
        <ele>159.72</ele>
        <time>2021-08-10T14:55:24Z</time>
      </trkpt>
      <trkpt lat="48.29892" lon="4.44863">
        <ele>159.72</ele>
        <time>2021-08-10T14:55:42Z</time>
      </trkpt>
      <trkpt lat="48.29891" lon="4.44857">
        <ele>159.72</ele>
        <time>2021-08-10T14:55:57Z</time>
      </trkpt>
      <trkpt lat="48.29891" lon="4.44861">
        <ele>159.72</ele>
        <time>2021-08-10T14:56:18Z</time>
      </trkpt>
      <trkpt lat="48.29891" lon="4.44863">
        <ele>159.72</ele>
        <time>2021-08-10T14:56:39Z</time>
      </trkpt>
      <trkpt lat="48.29892" lon="4.44865">
        <ele>159.72</ele>
        <time>2021-08-10T14:56:57Z</time>
      </trkpt>
      <trkpt lat="48.29889" lon="4.44861">
        <ele>159.72</ele>
        <time>2021-08-10T14:57:09Z</time>
      </trkpt>
      <trkpt lat="48.29894" lon="4.44865">
        <ele>159.72</ele>
        <time>2021-08-10T14:57:27Z</time>
      </trkpt>
      <trkpt lat="48.29895" lon="4.44866">
        <ele>159.72</ele>
        <time>2021-08-10T14:57:42Z</time>
      </trkpt>
      <trkpt lat="48.29895" lon="4.44864">
        <ele>159.72</ele>
        <time>2021-08-10T14:57:57Z</time>
      </trkpt>
      <trkpt lat="48.29893" lon="4.44862">
        <ele>159.72</ele>
        <time>2021-08-10T14:58:10Z</time>
      </trkpt>
      <trkpt lat="48.29893" lon="4.4486">
        <ele>159.72</ele>
        <time>2021-08-10T14:58:23Z</time>
      </trkpt>
      <trkpt lat="48.29895" lon="4.44863">
        <ele>159.72</ele>
        <time>2021-08-10T14:58:43Z</time>
      </trkpt>
      <trkpt lat="48.29892" lon="4.44862">
        <ele>159.72</ele>
        <time>2021-08-10T14:58:57Z</time>
      </trkpt>
      <trkpt lat="48.2989" lon="4.44862">
        <ele>159.72</ele>
        <time>2021-08-10T14:59:15Z</time>
      </trkpt>
      <trkpt lat="48.29888" lon="4.44865">
        <ele>159.72</ele>
        <time>2021-08-10T14:59:23Z</time>
      </trkpt>
      <trkpt lat="48.2988" lon="4.44874">
        <ele>159.72</ele>
        <time>2021-08-10T14:59:30Z</time>
      </trkpt>
      <trkpt lat="48.29871" lon="4.44888">
        <ele>159.72</ele>
        <time>2021-08-10T14:59:37Z</time>
      </trkpt>
      <trkpt lat="48.2986" lon="4.44902">
        <ele>160.2</ele>
        <time>2021-08-10T14:59:46Z</time>
      </trkpt>
      <trkpt lat="48.29846" lon="4.4492">
        <ele>160.2</ele>
        <time>2021-08-10T14:59:54Z</time>
      </trkpt>
      <trkpt lat="48.2983" lon="4.44929">
        <ele>160.2</ele>
        <time>2021-08-10T15:00:01Z</time>
      </trkpt>
      <trkpt lat="48.29827" lon="4.44927">
        <ele>160.2</ele>
        <time>2021-08-10T15:00:02Z</time>
      </trkpt>
      <trkpt lat="48.29824" lon="4.44925">
        <ele>160.2</ele>
        <time>2021-08-10T15:00:03Z</time>
      </trkpt>
      <trkpt lat="48.29821" lon="4.44922">
        <ele>160.2</ele>
        <time>2021-08-10T15:00:04Z</time>
      </trkpt>
      <trkpt lat="48.29818" lon="4.44918">
        <ele>160.2</ele>
        <time>2021-08-10T15:00:05Z</time>
      </trkpt>
      <trkpt lat="48.29815" lon="4.44914">
        <ele>160.2</ele>
        <time>2021-08-10T15:00:06Z</time>
      </trkpt>
      <trkpt lat="48.29812" lon="4.44909">
        <ele>160.2</ele>
        <time>2021-08-10T15:00:07Z</time>
      </trkpt>
      <trkpt lat="48.29803" lon="4.44895">
        <ele>159.24</ele>
        <time>2021-08-10T15:00:10Z</time>
      </trkpt>
      <trkpt lat="48.29801" lon="4.44891">
        <ele>159.24</ele>
        <time>2021-08-10T15:00:11Z</time>
      </trkpt>
      <trkpt lat="48.29798" lon="4.44885">
        <ele>158.27</ele>
        <time>2021-08-10T15:00:12Z</time>
      </trkpt>
      <trkpt lat="48.29773" lon="4.44844">
        <ele>157.79</ele>
        <time>2021-08-10T15:00:19Z</time>
      </trkpt>
      <trkpt lat="48.29754" lon="4.44812">
        <ele>156.35</ele>
        <time>2021-08-10T15:00:24Z</time>
      </trkpt>
      <trkpt lat="48.29714" lon="4.4474">
        <ele>154.91</ele>
        <time>2021-08-10T15:00:35Z</time>
      </trkpt>
      <trkpt lat="48.29682" lon="4.44681">
        <ele>152.99</ele>
        <time>2021-08-10T15:00:43Z</time>
      </trkpt>
      <trkpt lat="48.29648" lon="4.44624">
        <ele>152.03</ele>
        <time>2021-08-10T15:00:51Z</time>
      </trkpt>
      <trkpt lat="48.29626" lon="4.44583">
        <ele>153.47</ele>
        <time>2021-08-10T15:00:58Z</time>
      </trkpt>
      <trkpt lat="48.29624" lon="4.44579">
        <ele>153.47</ele>
        <time>2021-08-10T15:00:59Z</time>
      </trkpt>
      <trkpt lat="48.29612" lon="4.44553">
        <ele>155.39</ele>
        <time>2021-08-10T15:01:06Z</time>
      </trkpt>
      <trkpt lat="48.29601" lon="4.44534">
        <ele>156.83</ele>
        <time>2021-08-10T15:01:14Z</time>
      </trkpt>
      <trkpt lat="48.29587" lon="4.44507">
        <ele>158.75</ele>
        <time>2021-08-10T15:01:25Z</time>
      </trkpt>
      <trkpt lat="48.2957" lon="4.44478">
        <ele>159.72</ele>
        <time>2021-08-10T15:01:36Z</time>
      </trkpt>
      <trkpt lat="48.29555" lon="4.44452">
        <ele>160.68</ele>
        <time>2021-08-10T15:01:45Z</time>
      </trkpt>
      <trkpt lat="48.2954" lon="4.44423">
        <ele>161.16</ele>
        <time>2021-08-10T15:01:54Z</time>
      </trkpt>
      <trkpt lat="48.29523" lon="4.44395">
        <ele>161.64</ele>
        <time>2021-08-10T15:02:02Z</time>
      </trkpt>
      <trkpt lat="48.29503" lon="4.44362">
        <ele>161.64</ele>
        <time>2021-08-10T15:02:10Z</time>
      </trkpt>
      <trkpt lat="48.29493" lon="4.44341">
        <ele>161.64</ele>
        <time>2021-08-10T15:02:14Z</time>
      </trkpt>
      <trkpt lat="48.2949" lon="4.44336">
        <ele>161.64</ele>
        <time>2021-08-10T15:02:15Z</time>
      </trkpt>
      <trkpt lat="48.29465" lon="4.44288">
        <ele>160.2</ele>
        <time>2021-08-10T15:02:24Z</time>
      </trkpt>
      <trkpt lat="48.29441" lon="4.44244">
        <ele>160.2</ele>
        <time>2021-08-10T15:02:32Z</time>
      </trkpt>
      <trkpt lat="48.29408" lon="4.44185">
        <ele>158.75</ele>
        <time>2021-08-10T15:02:41Z</time>
      </trkpt>
      <trkpt lat="48.29368" lon="4.44116">
        <ele>156.83</ele>
        <time>2021-08-10T15:02:51Z</time>
      </trkpt>
      <trkpt lat="48.29351" lon="4.44091">
        <ele>156.83</ele>
        <time>2021-08-10T15:02:55Z</time>
      </trkpt>
      <trkpt lat="48.29337" lon="4.44066">
        <ele>158.27</ele>
        <time>2021-08-10T15:03:00Z</time>
      </trkpt>
      <trkpt lat="48.29327" lon="4.44048">
        <ele>159.24</ele>
        <time>2021-08-10T15:03:05Z</time>
      </trkpt>
      <trkpt lat="48.29313" lon="4.44021">
        <ele>160.68</ele>
        <time>2021-08-10T15:03:13Z</time>
      </trkpt>
      <trkpt lat="48.29304" lon="4.43996">
        <ele>161.16</ele>
        <time>2021-08-10T15:03:20Z</time>
      </trkpt>
      <trkpt lat="48.29305" lon="4.43992">
        <ele>162.12</ele>
        <time>2021-08-10T15:03:21Z</time>
      </trkpt>
      <trkpt lat="48.29307" lon="4.43988">
        <ele>162.12</ele>
        <time>2021-08-10T15:03:22Z</time>
      </trkpt>
      <trkpt lat="48.29309" lon="4.43984">
        <ele>162.12</ele>
        <time>2021-08-10T15:03:23Z</time>
      </trkpt>
      <trkpt lat="48.29311" lon="4.4398">
        <ele>162.12</ele>
        <time>2021-08-10T15:03:24Z</time>
      </trkpt>
      <trkpt lat="48.29328" lon="4.43956">
        <ele>162.6</ele>
        <time>2021-08-10T15:03:31Z</time>
      </trkpt>
      <trkpt lat="48.29349" lon="4.43929">
        <ele>162.6</ele>
        <time>2021-08-10T15:03:38Z</time>
      </trkpt>
      <trkpt lat="48.29375" lon="4.43895">
        <ele>160.2</ele>
        <time>2021-08-10T15:03:45Z</time>
      </trkpt>
      <trkpt lat="48.29411" lon="4.43852">
        <ele>158.75</ele>
        <time>2021-08-10T15:03:52Z</time>
      </trkpt>
      <trkpt lat="48.29442" lon="4.43812">
        <ele>157.79</ele>
        <time>2021-08-10T15:03:59Z</time>
      </trkpt>
      <trkpt lat="48.29478" lon="4.43767">
        <ele>156.83</ele>
        <time>2021-08-10T15:04:07Z</time>
      </trkpt>
      <trkpt lat="48.29486" lon="4.43757">
        <ele>156.83</ele>
        <time>2021-08-10T15:04:09Z</time>
      </trkpt>
      <trkpt lat="48.29513" lon="4.43725">
        <ele>155.87</ele>
        <time>2021-08-10T15:04:15Z</time>
      </trkpt>
      <trkpt lat="48.29556" lon="4.4367">
        <ele>153.95</ele>
        <time>2021-08-10T15:04:24Z</time>
      </trkpt>
      <trkpt lat="48.2956" lon="4.43664">
        <ele>153.95</ele>
        <time>2021-08-10T15:04:25Z</time>
      </trkpt>
      <trkpt lat="48.29561" lon="4.43657">
        <ele>153.47</ele>
        <time>2021-08-10T15:04:26Z</time>
      </trkpt>
      <trkpt lat="48.29561" lon="4.43651">
        <ele>153.47</ele>
        <time>2021-08-10T15:04:27Z</time>
      </trkpt>
      <trkpt lat="48.29559" lon="4.43644">
        <ele>153.47</ele>
        <time>2021-08-10T15:04:28Z</time>
      </trkpt>
      <trkpt lat="48.29556" lon="4.43638">
        <ele>153.47</ele>
        <time>2021-08-10T15:04:29Z</time>
      </trkpt>
      <trkpt lat="48.29554" lon="4.43635">
        <ele>153.47</ele>
        <time>2021-08-10T15:04:30Z</time>
      </trkpt>
      <trkpt lat="48.2955" lon="4.4363">
        <ele>153.47</ele>
        <time>2021-08-10T15:04:31Z</time>
      </trkpt>
      <trkpt lat="48.29546" lon="4.43625">
        <ele>152.99</ele>
        <time>2021-08-10T15:04:32Z</time>
      </trkpt>
      <trkpt lat="48.29512" lon="4.43579">
        <ele>152.03</ele>
        <time>2021-08-10T15:04:40Z</time>
      </trkpt>
      <trkpt lat="48.29483" lon="4.43544">
        <ele>153.47</ele>
        <time>2021-08-10T15:04:48Z</time>
      </trkpt>
      <trkpt lat="48.29481" lon="4.43539">
        <ele>153.47</ele>
        <time>2021-08-10T15:04:49Z</time>
      </trkpt>
      <trkpt lat="48.29467" lon="4.43518">
        <ele>153.95</ele>
        <time>2021-08-10T15:04:54Z</time>
      </trkpt>
      <trkpt lat="48.29449" lon="4.43489">
        <ele>155.39</ele>
        <time>2021-08-10T15:05:04Z</time>
      </trkpt>
      <trkpt lat="48.29436" lon="4.43469">
        <ele>156.35</ele>
        <time>2021-08-10T15:05:11Z</time>
      </trkpt>
      <trkpt lat="48.2942" lon="4.43446">
        <ele>156.83</ele>
        <time>2021-08-10T15:05:19Z</time>
      </trkpt>
      <trkpt lat="48.29405" lon="4.43422">
        <ele>158.75</ele>
        <time>2021-08-10T15:05:27Z</time>
      </trkpt>
      <trkpt lat="48.29388" lon="4.43402">
        <ele>159.24</ele>
        <time>2021-08-10T15:05:35Z</time>
      </trkpt>
      <trkpt lat="48.29373" lon="4.43379">
        <ele>160.2</ele>
        <time>2021-08-10T15:05:43Z</time>
      </trkpt>
      <trkpt lat="48.29357" lon="4.43358">
        <ele>160.68</ele>
        <time>2021-08-10T15:05:51Z</time>
      </trkpt>
      <trkpt lat="48.29342" lon="4.43336">
        <ele>161.64</ele>
        <time>2021-08-10T15:05:59Z</time>
      </trkpt>
      <trkpt lat="48.2932" lon="4.43308">
        <ele>163.08</ele>
        <time>2021-08-10T15:06:09Z</time>
      </trkpt>
      <trkpt lat="48.29305" lon="4.43284">
        <ele>163.56</ele>
        <time>2021-08-10T15:06:17Z</time>
      </trkpt>
      <trkpt lat="48.29283" lon="4.43252">
        <ele>164.52</ele>
        <time>2021-08-10T15:06:27Z</time>
      </trkpt>
      <trkpt lat="48.29263" lon="4.43224">
        <ele>165.96</ele>
        <time>2021-08-10T15:06:36Z</time>
      </trkpt>
      <trkpt lat="48.29245" lon="4.43198">
        <ele>166.45</ele>
        <time>2021-08-10T15:06:44Z</time>
      </trkpt>
      <trkpt lat="48.29226" lon="4.43171">
        <ele>167.41</ele>
        <time>2021-08-10T15:06:52Z</time>
      </trkpt>
      <trkpt lat="48.29214" lon="4.43148">
        <ele>167.89</ele>
        <time>2021-08-10T15:06:58Z</time>
      </trkpt>
      <trkpt lat="48.29213" lon="4.43144">
        <ele>167.89</ele>
        <time>2021-08-10T15:06:59Z</time>
      </trkpt>
      <trkpt lat="48.29213" lon="4.4314">
        <ele>167.89</ele>
        <time>2021-08-10T15:07:00Z</time>
      </trkpt>
      <trkpt lat="48.29214" lon="4.43136">
        <ele>167.89</ele>
        <time>2021-08-10T15:07:01Z</time>
      </trkpt>
      <trkpt lat="48.29214" lon="4.43131">
        <ele>167.89</ele>
        <time>2021-08-10T15:07:02Z</time>
      </trkpt>
      <trkpt lat="48.29214" lon="4.43126">
        <ele>167.89</ele>
        <time>2021-08-10T15:07:03Z</time>
      </trkpt>
      <trkpt lat="48.29212" lon="4.43121">
        <ele>167.89</ele>
        <time>2021-08-10T15:07:04Z</time>
      </trkpt>
      <trkpt lat="48.29209" lon="4.43116">
        <ele>167.89</ele>
        <time>2021-08-10T15:07:05Z</time>
      </trkpt>
      <trkpt lat="48.29206" lon="4.43113">
        <ele>167.89</ele>
        <time>2021-08-10T15:07:06Z</time>
      </trkpt>
      <trkpt lat="48.29202" lon="4.4311">
        <ele>167.89</ele>
        <time>2021-08-10T15:07:07Z</time>
      </trkpt>
      <trkpt lat="48.29197" lon="4.43109">
        <ele>167.89</ele>
        <time>2021-08-10T15:07:08Z</time>
      </trkpt>
      <trkpt lat="48.29193" lon="4.43108">
        <ele>167.89</ele>
        <time>2021-08-10T15:07:09Z</time>
      </trkpt>
      <trkpt lat="48.29188" lon="4.43107">
        <ele>168.37</ele>
        <time>2021-08-10T15:07:10Z</time>
      </trkpt>
      <trkpt lat="48.29184" lon="4.43104">
        <ele>168.37</ele>
        <time>2021-08-10T15:07:11Z</time>
      </trkpt>
      <trkpt lat="48.2918" lon="4.431">
        <ele>168.37</ele>
        <time>2021-08-10T15:07:12Z</time>
      </trkpt>
      <trkpt lat="48.29177" lon="4.43097">
        <ele>168.37</ele>
        <time>2021-08-10T15:07:13Z</time>
      </trkpt>
      <trkpt lat="48.29157" lon="4.43068">
        <ele>168.85</ele>
        <time>2021-08-10T15:07:20Z</time>
      </trkpt>
      <trkpt lat="48.29138" lon="4.43042">
        <ele>168.85</ele>
        <time>2021-08-10T15:07:26Z</time>
      </trkpt>
      <trkpt lat="48.29101" lon="4.42996">
        <ele>169.33</ele>
        <time>2021-08-10T15:07:37Z</time>
      </trkpt>
      <trkpt lat="48.29098" lon="4.42992">
        <ele>169.33</ele>
        <time>2021-08-10T15:07:38Z</time>
      </trkpt>
      <trkpt lat="48.2906" lon="4.42943">
        <ele>169.33</ele>
        <time>2021-08-10T15:07:48Z</time>
      </trkpt>
      <trkpt lat="48.2903" lon="4.42903">
        <ele>169.33</ele>
        <time>2021-08-10T15:07:55Z</time>
      </trkpt>
      <trkpt lat="48.2899" lon="4.42848">
        <ele>167.89</ele>
        <time>2021-08-10T15:08:04Z</time>
      </trkpt>
      <trkpt lat="48.28951" lon="4.42792">
        <ele>167.89</ele>
        <time>2021-08-10T15:08:13Z</time>
      </trkpt>
      <trkpt lat="48.28908" lon="4.42734">
        <ele>166.93</ele>
        <time>2021-08-10T15:08:22Z</time>
      </trkpt>
      <trkpt lat="48.28866" lon="4.42674">
        <ele>166.45</ele>
        <time>2021-08-10T15:08:31Z</time>
      </trkpt>
      <trkpt lat="48.28821" lon="4.42608">
        <ele>165</ele>
        <time>2021-08-10T15:08:40Z</time>
      </trkpt>
      <trkpt lat="48.28767" lon="4.42524">
        <ele>164.52</ele>
        <time>2021-08-10T15:08:51Z</time>
      </trkpt>
      <trkpt lat="48.2872" lon="4.42457">
        <ele>164.04</ele>
        <time>2021-08-10T15:09:00Z</time>
      </trkpt>
      <trkpt lat="48.28674" lon="4.42394">
        <ele>162.6</ele>
        <time>2021-08-10T15:09:09Z</time>
      </trkpt>
      <trkpt lat="48.2864" lon="4.42345">
        <ele>160.68</ele>
        <time>2021-08-10T15:09:16Z</time>
      </trkpt>
      <trkpt lat="48.28596" lon="4.4228">
        <ele>159.72</ele>
        <time>2021-08-10T15:09:24Z</time>
      </trkpt>
      <trkpt lat="48.28586" lon="4.42267">
        <ele>159.72</ele>
        <time>2021-08-10T15:09:26Z</time>
      </trkpt>
      <trkpt lat="48.28554" lon="4.42223">
        <ele>159.72</ele>
        <time>2021-08-10T15:09:33Z</time>
      </trkpt>
      <trkpt lat="48.28529" lon="4.42198">
        <ele>160.68</ele>
        <time>2021-08-10T15:09:39Z</time>
      </trkpt>
      <trkpt lat="48.28525" lon="4.42196">
        <ele>161.64</ele>
        <time>2021-08-10T15:09:40Z</time>
      </trkpt>
      <trkpt lat="48.28493" lon="4.42185">
        <ele>162.12</ele>
        <time>2021-08-10T15:09:48Z</time>
      </trkpt>
      <trkpt lat="48.28464" lon="4.42186">
        <ele>163.08</ele>
        <time>2021-08-10T15:09:56Z</time>
      </trkpt>
      <trkpt lat="48.28442" lon="4.42186">
        <ele>164.04</ele>
        <time>2021-08-10T15:10:02Z</time>
      </trkpt>
      <trkpt lat="48.28405" lon="4.42188">
        <ele>165.48</ele>
        <time>2021-08-10T15:10:11Z</time>
      </trkpt>
      <trkpt lat="48.28374" lon="4.4219">
        <ele>166.45</ele>
        <time>2021-08-10T15:10:19Z</time>
      </trkpt>
      <trkpt lat="48.2834" lon="4.42191">
        <ele>166.93</ele>
        <time>2021-08-10T15:10:27Z</time>
      </trkpt>
      <trkpt lat="48.28319" lon="4.42187">
        <ele>166.93</ele>
        <time>2021-08-10T15:10:32Z</time>
      </trkpt>
      <trkpt lat="48.28306" lon="4.4218">
        <ele>166.93</ele>
        <time>2021-08-10T15:10:35Z</time>
      </trkpt>
      <trkpt lat="48.2826" lon="4.4215">
        <ele>167.89</ele>
        <time>2021-08-10T15:10:45Z</time>
      </trkpt>
      <trkpt lat="48.2822" lon="4.42123">
        <ele>168.85</ele>
        <time>2021-08-10T15:10:54Z</time>
      </trkpt>
      <trkpt lat="48.28216" lon="4.42122">
        <ele>168.85</ele>
        <time>2021-08-10T15:10:55Z</time>
      </trkpt>
      <trkpt lat="48.28211" lon="4.42121">
        <ele>168.85</ele>
        <time>2021-08-10T15:10:56Z</time>
      </trkpt>
      <trkpt lat="48.28208" lon="4.42121">
        <ele>168.85</ele>
        <time>2021-08-10T15:10:57Z</time>
      </trkpt>
      <trkpt lat="48.28204" lon="4.42121">
        <ele>169.33</ele>
        <time>2021-08-10T15:10:58Z</time>
      </trkpt>
      <trkpt lat="48.28185" lon="4.42134">
        <ele>170.29</ele>
        <time>2021-08-10T15:11:04Z</time>
      </trkpt>
      <trkpt lat="48.28166" lon="4.42153">
        <ele>170.77</ele>
        <time>2021-08-10T15:11:11Z</time>
      </trkpt>
      <trkpt lat="48.28144" lon="4.42175">
        <ele>172.69</ele>
        <time>2021-08-10T15:11:19Z</time>
      </trkpt>
      <trkpt lat="48.28124" lon="4.42195">
        <ele>173.17</ele>
        <time>2021-08-10T15:11:27Z</time>
      </trkpt>
      <trkpt lat="48.28106" lon="4.42208">
        <ele>174.14</ele>
        <time>2021-08-10T15:11:33Z</time>
      </trkpt>
      <trkpt lat="48.28081" lon="4.42212">
        <ele>174.62</ele>
        <time>2021-08-10T15:11:40Z</time>
      </trkpt>
      <trkpt lat="48.28064" lon="4.42212">
        <ele>175.1</ele>
        <time>2021-08-10T15:11:44Z</time>
      </trkpt>
      <trkpt lat="48.28059" lon="4.42212">
        <ele>175.1</ele>
        <time>2021-08-10T15:11:45Z</time>
      </trkpt>
      <trkpt lat="48.28054" lon="4.42212">
        <ele>175.1</ele>
        <time>2021-08-10T15:11:46Z</time>
      </trkpt>
      <trkpt lat="48.28049" lon="4.42212">
        <ele>175.1</ele>
        <time>2021-08-10T15:11:47Z</time>
      </trkpt>
      <trkpt lat="48.28044" lon="4.42212">
        <ele>175.1</ele>
        <time>2021-08-10T15:11:48Z</time>
      </trkpt>
      <trkpt lat="48.28019" lon="4.42212">
        <ele>175.58</ele>
        <time>2021-08-10T15:11:53Z</time>
      </trkpt>
      <trkpt lat="48.28014" lon="4.42212">
        <ele>175.58</ele>
        <time>2021-08-10T15:11:54Z</time>
      </trkpt>
      <trkpt lat="48.27972" lon="4.42207">
        <ele>176.06</ele>
        <time>2021-08-10T15:12:01Z</time>
      </trkpt>
      <trkpt lat="48.2793" lon="4.42192">
        <ele>176.54</ele>
        <time>2021-08-10T15:12:09Z</time>
      </trkpt>
      <trkpt lat="48.27912" lon="4.42183">
        <ele>176.54</ele>
        <time>2021-08-10T15:12:13Z</time>
      </trkpt>
      <trkpt lat="48.27908" lon="4.42181">
        <ele>176.54</ele>
        <time>2021-08-10T15:12:14Z</time>
      </trkpt>
      <trkpt lat="48.27904" lon="4.42179">
        <ele>176.54</ele>
        <time>2021-08-10T15:12:15Z</time>
      </trkpt>
      <trkpt lat="48.27899" lon="4.42176">
        <ele>176.54</ele>
        <time>2021-08-10T15:12:16Z</time>
      </trkpt>
      <trkpt lat="48.27894" lon="4.42174">
        <ele>176.54</ele>
        <time>2021-08-10T15:12:17Z</time>
      </trkpt>
      <trkpt lat="48.27879" lon="4.42167">
        <ele>177.02</ele>
        <time>2021-08-10T15:12:20Z</time>
      </trkpt>
      <trkpt lat="48.2785" lon="4.42155">
        <ele>177.5</ele>
        <time>2021-08-10T15:12:26Z</time>
      </trkpt>
      <trkpt lat="48.27825" lon="4.42154">
        <ele>177.98</ele>
        <time>2021-08-10T15:12:32Z</time>
      </trkpt>
      <trkpt lat="48.2782" lon="4.42164">
        <ele>177.98</ele>
        <time>2021-08-10T15:12:34Z</time>
      </trkpt>
      <trkpt lat="48.27819" lon="4.42172">
        <ele>178.46</ele>
        <time>2021-08-10T15:12:35Z</time>
      </trkpt>
      <trkpt lat="48.27818" lon="4.42179">
        <ele>178.46</ele>
        <time>2021-08-10T15:12:36Z</time>
      </trkpt>
      <trkpt lat="48.27817" lon="4.42186">
        <ele>178.46</ele>
        <time>2021-08-10T15:12:37Z</time>
      </trkpt>
      <trkpt lat="48.27816" lon="4.42193">
        <ele>178.46</ele>
        <time>2021-08-10T15:12:38Z</time>
      </trkpt>
      <trkpt lat="48.2781" lon="4.42249">
        <ele>178.46</ele>
        <time>2021-08-10T15:12:46Z</time>
      </trkpt>
      <trkpt lat="48.27805" lon="4.42279">
        <ele>177.02</ele>
        <time>2021-08-10T15:12:50Z</time>
      </trkpt>
      <trkpt lat="48.27792" lon="4.42324">
        <ele>177.02</ele>
        <time>2021-08-10T15:12:56Z</time>
      </trkpt>
      <trkpt lat="48.27789" lon="4.42332">
        <ele>177.02</ele>
        <time>2021-08-10T15:12:57Z</time>
      </trkpt>
      <trkpt lat="48.27787" lon="4.4234">
        <ele>177.02</ele>
        <time>2021-08-10T15:12:58Z</time>
      </trkpt>
      <trkpt lat="48.27784" lon="4.42347">
        <ele>177.02</ele>
        <time>2021-08-10T15:12:59Z</time>
      </trkpt>
      <trkpt lat="48.27782" lon="4.42354">
        <ele>177.02</ele>
        <time>2021-08-10T15:13:00Z</time>
      </trkpt>
      <trkpt lat="48.27778" lon="4.42368">
        <ele>177.02</ele>
        <time>2021-08-10T15:13:02Z</time>
      </trkpt>
      <trkpt lat="48.27777" lon="4.42375">
        <ele>177.02</ele>
        <time>2021-08-10T15:13:03Z</time>
      </trkpt>
      <trkpt lat="48.27773" lon="4.42379">
        <ele>177.02</ele>
        <time>2021-08-10T15:13:04Z</time>
      </trkpt>
      <trkpt lat="48.27766" lon="4.42379">
        <ele>176.06</ele>
        <time>2021-08-10T15:13:05Z</time>
      </trkpt>
      <trkpt lat="48.27762" lon="4.42374">
        <ele>176.06</ele>
        <time>2021-08-10T15:13:06Z</time>
      </trkpt>
      <trkpt lat="48.27759" lon="4.42368">
        <ele>176.06</ele>
        <time>2021-08-10T15:13:07Z</time>
      </trkpt>
      <trkpt lat="48.27757" lon="4.42361">
        <ele>176.06</ele>
        <time>2021-08-10T15:13:08Z</time>
      </trkpt>
      <trkpt lat="48.27755" lon="4.42354">
        <ele>176.06</ele>
        <time>2021-08-10T15:13:09Z</time>
      </trkpt>
      <trkpt lat="48.27747" lon="4.4231">
        <ele>175.58</ele>
        <time>2021-08-10T15:13:15Z</time>
      </trkpt>
      <trkpt lat="48.27744" lon="4.42304">
        <ele>175.58</ele>
        <time>2021-08-10T15:13:16Z</time>
      </trkpt>
      <trkpt lat="48.27741" lon="4.42299">
        <ele>175.58</ele>
        <time>2021-08-10T15:13:17Z</time>
      </trkpt>
      <trkpt lat="48.27737" lon="4.42294">
        <ele>175.58</ele>
        <time>2021-08-10T15:13:18Z</time>
      </trkpt>
      <trkpt lat="48.27732" lon="4.42291">
        <ele>175.58</ele>
        <time>2021-08-10T15:13:19Z</time>
      </trkpt>
      <trkpt lat="48.27727" lon="4.42289">
        <ele>175.58</ele>
        <time>2021-08-10T15:13:20Z</time>
      </trkpt>
      <trkpt lat="48.27722" lon="4.42288">
        <ele>175.58</ele>
        <time>2021-08-10T15:13:21Z</time>
      </trkpt>
      <trkpt lat="48.27718" lon="4.42288">
        <ele>175.58</ele>
        <time>2021-08-10T15:13:22Z</time>
      </trkpt>
      <trkpt lat="48.27712" lon="4.42289">
        <ele>175.58</ele>
        <time>2021-08-10T15:13:23Z</time>
      </trkpt>
      <trkpt lat="48.27664" lon="4.42291">
        <ele>175.1</ele>
        <time>2021-08-10T15:13:32Z</time>
      </trkpt>
      <trkpt lat="48.27618" lon="4.42291">
        <ele>174.62</ele>
        <time>2021-08-10T15:13:40Z</time>
      </trkpt>
      <trkpt lat="48.27571" lon="4.42291">
        <ele>172.69</ele>
        <time>2021-08-10T15:13:48Z</time>
      </trkpt>
      <trkpt lat="48.27499" lon="4.42289">
        <ele>171.25</ele>
        <time>2021-08-10T15:13:59Z</time>
      </trkpt>
      <trkpt lat="48.27447" lon="4.42287">
        <ele>170.77</ele>
        <time>2021-08-10T15:14:07Z</time>
      </trkpt>
      <trkpt lat="48.27392" lon="4.42272">
        <ele>170.77</ele>
        <time>2021-08-10T15:14:16Z</time>
      </trkpt>
      <trkpt lat="48.27347" lon="4.42254">
        <ele>170.77</ele>
        <time>2021-08-10T15:14:24Z</time>
      </trkpt>
      <trkpt lat="48.27336" lon="4.42249">
        <ele>172.21</ele>
        <time>2021-08-10T15:14:26Z</time>
      </trkpt>
      <trkpt lat="48.27331" lon="4.42247">
        <ele>172.21</ele>
        <time>2021-08-10T15:14:27Z</time>
      </trkpt>
      <trkpt lat="48.27326" lon="4.42245">
        <ele>172.21</ele>
        <time>2021-08-10T15:14:28Z</time>
      </trkpt>
      <trkpt lat="48.27288" lon="4.42223">
        <ele>172.69</ele>
        <time>2021-08-10T15:14:36Z</time>
      </trkpt>
      <trkpt lat="48.27246" lon="4.42188">
        <ele>172.69</ele>
        <time>2021-08-10T15:14:46Z</time>
      </trkpt>
      <trkpt lat="48.27227" lon="4.42171">
        <ele>171.73</ele>
        <time>2021-08-10T15:14:50Z</time>
      </trkpt>
      <trkpt lat="48.27182" lon="4.42132">
        <ele>170.77</ele>
        <time>2021-08-10T15:14:59Z</time>
      </trkpt>
      <trkpt lat="48.27161" lon="4.42107">
        <ele>170.77</ele>
        <time>2021-08-10T15:15:04Z</time>
      </trkpt>
      <trkpt lat="48.27138" lon="4.42061">
        <ele>170.77</ele>
        <time>2021-08-10T15:15:11Z</time>
      </trkpt>
      <trkpt lat="48.2711" lon="4.42018">
        <ele>170.77</ele>
        <time>2021-08-10T15:15:18Z</time>
      </trkpt>
      <trkpt lat="48.27068" lon="4.41963">
        <ele>172.21</ele>
        <time>2021-08-10T15:15:28Z</time>
      </trkpt>
      <trkpt lat="48.27035" lon="4.41921">
        <ele>172.69</ele>
        <time>2021-08-10T15:15:37Z</time>
      </trkpt>
      <trkpt lat="48.27004" lon="4.41875">
        <ele>170.29</ele>
        <time>2021-08-10T15:15:46Z</time>
      </trkpt>
      <trkpt lat="48.27004" lon="4.41868">
        <ele>169.81</ele>
        <time>2021-08-10T15:15:47Z</time>
      </trkpt>
      <trkpt lat="48.27005" lon="4.41864">
        <ele>169.81</ele>
        <time>2021-08-10T15:15:48Z</time>
      </trkpt>
      <trkpt lat="48.27007" lon="4.4186">
        <ele>169.81</ele>
        <time>2021-08-10T15:15:49Z</time>
      </trkpt>
      <trkpt lat="48.2701" lon="4.41856">
        <ele>169.81</ele>
        <time>2021-08-10T15:15:50Z</time>
      </trkpt>
      <trkpt lat="48.27012" lon="4.41853">
        <ele>171.25</ele>
        <time>2021-08-10T15:15:51Z</time>
      </trkpt>
      <trkpt lat="48.27014" lon="4.4185">
        <ele>171.25</ele>
        <time>2021-08-10T15:15:52Z</time>
      </trkpt>
      <trkpt lat="48.27029" lon="4.41834">
        <ele>171.73</ele>
        <time>2021-08-10T15:15:58Z</time>
      </trkpt>
      <trkpt lat="48.2705" lon="4.41809">
        <ele>173.17</ele>
        <time>2021-08-10T15:16:06Z</time>
      </trkpt>
      <trkpt lat="48.27069" lon="4.41787">
        <ele>174.14</ele>
        <time>2021-08-10T15:16:14Z</time>
      </trkpt>
      <trkpt lat="48.27068" lon="4.41789">
        <ele>173.66</ele>
        <time>2021-08-10T15:16:22Z</time>
      </trkpt>
      <trkpt lat="48.27074" lon="4.41781">
        <ele>173.66</ele>
        <time>2021-08-10T15:16:29Z</time>
      </trkpt>
      <trkpt lat="48.27091" lon="4.41761">
        <ele>172.21</ele>
        <time>2021-08-10T15:16:34Z</time>
      </trkpt>
      <trkpt lat="48.27122" lon="4.41721">
        <ele>171.25</ele>
        <time>2021-08-10T15:16:41Z</time>
      </trkpt>
      <trkpt lat="48.27129" lon="4.41707">
        <ele>170.77</ele>
        <time>2021-08-10T15:16:43Z</time>
      </trkpt>
      <trkpt lat="48.27132" lon="4.41699">
        <ele>170.29</ele>
        <time>2021-08-10T15:16:44Z</time>
      </trkpt>
      <trkpt lat="48.27152" lon="4.4163">
        <ele>169.33</ele>
        <time>2021-08-10T15:16:52Z</time>
      </trkpt>
      <trkpt lat="48.27179" lon="4.41564">
        <ele>167.41</ele>
        <time>2021-08-10T15:17:00Z</time>
      </trkpt>
      <trkpt lat="48.27202" lon="4.41504">
        <ele>165.48</ele>
        <time>2021-08-10T15:17:07Z</time>
      </trkpt>
      <trkpt lat="48.27203" lon="4.41495">
        <ele>165</ele>
        <time>2021-08-10T15:17:08Z</time>
      </trkpt>
      <trkpt lat="48.27203" lon="4.41485">
        <ele>164.52</ele>
        <time>2021-08-10T15:17:09Z</time>
      </trkpt>
      <trkpt lat="48.27203" lon="4.41475">
        <ele>164.52</ele>
        <time>2021-08-10T15:17:10Z</time>
      </trkpt>
      <trkpt lat="48.27202" lon="4.41466">
        <ele>164.04</ele>
        <time>2021-08-10T15:17:11Z</time>
      </trkpt>
      <trkpt lat="48.27201" lon="4.41457">
        <ele>164.04</ele>
        <time>2021-08-10T15:17:12Z</time>
      </trkpt>
      <trkpt lat="48.27198" lon="4.41448">
        <ele>164.04</ele>
        <time>2021-08-10T15:17:13Z</time>
      </trkpt>
      <trkpt lat="48.27196" lon="4.41441">
        <ele>164.04</ele>
        <time>2021-08-10T15:17:14Z</time>
      </trkpt>
      <trkpt lat="48.27193" lon="4.41432">
        <ele>164.04</ele>
        <time>2021-08-10T15:17:15Z</time>
      </trkpt>
      <trkpt lat="48.27173" lon="4.41375">
        <ele>163.56</ele>
        <time>2021-08-10T15:17:23Z</time>
      </trkpt>
      <trkpt lat="48.27157" lon="4.41328">
        <ele>163.56</ele>
        <time>2021-08-10T15:17:29Z</time>
      </trkpt>
      <trkpt lat="48.27151" lon="4.41304">
        <ele>165</ele>
        <time>2021-08-10T15:17:33Z</time>
      </trkpt>
      <trkpt lat="48.27151" lon="4.41267">
        <ele>166.45</ele>
        <time>2021-08-10T15:17:40Z</time>
      </trkpt>
      <trkpt lat="48.27151" lon="4.4123">
        <ele>166.93</ele>
        <time>2021-08-10T15:17:48Z</time>
      </trkpt>
      <trkpt lat="48.27148" lon="4.41227">
        <ele>166.45</ele>
        <time>2021-08-10T15:17:49Z</time>
      </trkpt>
      <trkpt lat="48.27131" lon="4.41212">
        <ele>166.93</ele>
        <time>2021-08-10T15:17:56Z</time>
      </trkpt>
      <trkpt lat="48.27118" lon="4.41193">
        <ele>166.93</ele>
        <time>2021-08-10T15:18:02Z</time>
      </trkpt>
      <trkpt lat="48.27114" lon="4.41185">
        <ele>166.93</ele>
        <time>2021-08-10T15:18:05Z</time>
      </trkpt>
      <trkpt lat="48.27114" lon="4.41182">
        <ele>166.93</ele>
        <time>2021-08-10T15:18:06Z</time>
      </trkpt>
      <trkpt lat="48.27114" lon="4.41179">
        <ele>166.93</ele>
        <time>2021-08-10T15:18:07Z</time>
      </trkpt>
      <trkpt lat="48.27114" lon="4.41175">
        <ele>166.93</ele>
        <time>2021-08-10T15:18:08Z</time>
      </trkpt>
      <trkpt lat="48.27115" lon="4.41172">
        <ele>166.93</ele>
        <time>2021-08-10T15:18:09Z</time>
      </trkpt>
      <trkpt lat="48.27115" lon="4.41167">
        <ele>166.93</ele>
        <time>2021-08-10T15:18:10Z</time>
      </trkpt>
      <trkpt lat="48.27114" lon="4.41163">
        <ele>166.93</ele>
        <time>2021-08-10T15:18:11Z</time>
      </trkpt>
      <trkpt lat="48.27102" lon="4.41134">
        <ele>167.41</ele>
        <time>2021-08-10T15:18:18Z</time>
      </trkpt>
      <trkpt lat="48.27078" lon="4.41091">
        <ele>167.89</ele>
        <time>2021-08-10T15:18:28Z</time>
      </trkpt>
      <trkpt lat="48.27055" lon="4.41049">
        <ele>168.85</ele>
        <time>2021-08-10T15:18:38Z</time>
      </trkpt>
      <trkpt lat="48.27043" lon="4.41044">
        <ele>168.85</ele>
        <time>2021-08-10T15:18:42Z</time>
      </trkpt>
      <trkpt lat="48.2704" lon="4.41046">
        <ele>168.85</ele>
        <time>2021-08-10T15:18:43Z</time>
      </trkpt>
      <trkpt lat="48.27021" lon="4.41079">
        <ele>168.85</ele>
        <time>2021-08-10T15:18:50Z</time>
      </trkpt>
      <trkpt lat="48.26995" lon="4.4113">
        <ele>165.48</ele>
        <time>2021-08-10T15:18:58Z</time>
      </trkpt>
      <trkpt lat="48.26987" lon="4.41144">
        <ele>165</ele>
        <time>2021-08-10T15:19:00Z</time>
      </trkpt>
      <trkpt lat="48.26982" lon="4.41149">
        <ele>164.52</ele>
        <time>2021-08-10T15:19:01Z</time>
      </trkpt>
      <trkpt lat="48.26976" lon="4.41152">
        <ele>164.52</ele>
        <time>2021-08-10T15:19:02Z</time>
      </trkpt>
      <trkpt lat="48.2697" lon="4.41153">
        <ele>164.52</ele>
        <time>2021-08-10T15:19:03Z</time>
      </trkpt>
      <trkpt lat="48.26963" lon="4.41153">
        <ele>164.52</ele>
        <time>2021-08-10T15:19:04Z</time>
      </trkpt>
      <trkpt lat="48.26958" lon="4.41151">
        <ele>164.52</ele>
        <time>2021-08-10T15:19:05Z</time>
      </trkpt>
      <trkpt lat="48.26952" lon="4.41148">
        <ele>164.52</ele>
        <time>2021-08-10T15:19:06Z</time>
      </trkpt>
      <trkpt lat="48.26946" lon="4.41144">
        <ele>164.52</ele>
        <time>2021-08-10T15:19:07Z</time>
      </trkpt>
      <trkpt lat="48.26941" lon="4.4114">
        <ele>164.52</ele>
        <time>2021-08-10T15:19:08Z</time>
      </trkpt>
      <trkpt lat="48.2692" lon="4.41125">
        <ele>163.56</ele>
        <time>2021-08-10T15:19:12Z</time>
      </trkpt>
      <trkpt lat="48.26858" lon="4.41086">
        <ele>162.12</ele>
        <time>2021-08-10T15:19:22Z</time>
      </trkpt>
      <trkpt lat="48.26797" lon="4.41038">
        <ele>161.64</ele>
        <time>2021-08-10T15:19:32Z</time>
      </trkpt>
      <trkpt lat="48.26766" lon="4.41015">
        <ele>163.08</ele>
        <time>2021-08-10T15:19:38Z</time>
      </trkpt>
      <trkpt lat="48.26755" lon="4.41006">
        <ele>164.04</ele>
        <time>2021-08-10T15:19:41Z</time>
      </trkpt>
      <trkpt lat="48.2675" lon="4.41003">
        <ele>164.04</ele>
        <time>2021-08-10T15:19:42Z</time>
      </trkpt>
      <trkpt lat="48.26743" lon="4.40997">
        <ele>164.04</ele>
        <time>2021-08-10T15:19:44Z</time>
      </trkpt>
      <trkpt lat="48.26711" lon="4.4097">
        <ele>164.52</ele>
        <time>2021-08-10T15:19:52Z</time>
      </trkpt>
      <trkpt lat="48.26678" lon="4.4094">
        <ele>164.04</ele>
        <time>2021-08-10T15:20:00Z</time>
      </trkpt>
      <trkpt lat="48.26637" lon="4.40909">
        <ele>163.56</ele>
        <time>2021-08-10T15:20:09Z</time>
      </trkpt>
      <trkpt lat="48.26594" lon="4.4088">
        <ele>162.12</ele>
        <time>2021-08-10T15:20:18Z</time>
      </trkpt>
      <trkpt lat="48.26547" lon="4.40848">
        <ele>160.2</ele>
        <time>2021-08-10T15:20:26Z</time>
      </trkpt>
      <trkpt lat="48.26502" lon="4.40816">
        <ele>159.24</ele>
        <time>2021-08-10T15:20:35Z</time>
      </trkpt>
      <trkpt lat="48.26467" lon="4.40793">
        <ele>159.24</ele>
        <time>2021-08-10T15:20:43Z</time>
      </trkpt>
      <trkpt lat="48.26451" lon="4.40782">
        <ele>160.68</ele>
        <time>2021-08-10T15:20:48Z</time>
      </trkpt>
      <trkpt lat="48.26424" lon="4.40764">
        <ele>162.6</ele>
        <time>2021-08-10T15:20:58Z</time>
      </trkpt>
      <trkpt lat="48.2639" lon="4.40742">
        <ele>164.04</ele>
        <time>2021-08-10T15:21:10Z</time>
      </trkpt>
      <trkpt lat="48.26355" lon="4.40718">
        <ele>165.48</ele>
        <time>2021-08-10T15:21:21Z</time>
      </trkpt>
      <trkpt lat="48.26315" lon="4.40691">
        <ele>165.48</ele>
        <time>2021-08-10T15:21:31Z</time>
      </trkpt>
      <trkpt lat="48.26306" lon="4.40684">
        <ele>164.04</ele>
        <time>2021-08-10T15:21:33Z</time>
      </trkpt>
      <trkpt lat="48.26261" lon="4.40655">
        <ele>163.56</ele>
        <time>2021-08-10T15:21:42Z</time>
      </trkpt>
      <trkpt lat="48.26216" lon="4.40624">
        <ele>163.56</ele>
        <time>2021-08-10T15:21:51Z</time>
      </trkpt>
      <trkpt lat="48.26192" lon="4.40609">
        <ele>163.56</ele>
        <time>2021-08-10T15:21:56Z</time>
      </trkpt>
      <trkpt lat="48.26178" lon="4.40599">
        <ele>163.08</ele>
        <time>2021-08-10T15:21:59Z</time>
      </trkpt>
      <trkpt lat="48.26173" lon="4.40597">
        <ele>163.08</ele>
        <time>2021-08-10T15:22:00Z</time>
      </trkpt>
      <trkpt lat="48.2614" lon="4.40582">
        <ele>163.08</ele>
        <time>2021-08-10T15:22:08Z</time>
      </trkpt>
      <trkpt lat="48.26122" lon="4.40568">
        <ele>162.12</ele>
        <time>2021-08-10T15:22:13Z</time>
      </trkpt>
      <trkpt lat="48.26098" lon="4.40557">
        <ele>161.64</ele>
        <time>2021-08-10T15:22:18Z</time>
      </trkpt>
      <trkpt lat="48.26071" lon="4.40547">
        <ele>160.2</ele>
        <time>2021-08-10T15:22:25Z</time>
      </trkpt>
      <trkpt lat="48.26062" lon="4.40544">
        <ele>159.24</ele>
        <time>2021-08-10T15:22:27Z</time>
      </trkpt>
      <trkpt lat="48.26052" lon="4.40541">
        <ele>159.24</ele>
        <time>2021-08-10T15:22:29Z</time>
      </trkpt>
      <trkpt lat="48.26046" lon="4.40539">
        <ele>158.27</ele>
        <time>2021-08-10T15:22:30Z</time>
      </trkpt>
      <trkpt lat="48.26029" lon="4.40535">
        <ele>157.31</ele>
        <time>2021-08-10T15:22:33Z</time>
      </trkpt>
      <trkpt lat="48.25982" lon="4.40534">
        <ele>156.83</ele>
        <time>2021-08-10T15:22:41Z</time>
      </trkpt>
      <trkpt lat="48.25949" lon="4.40532">
        <ele>156.35</ele>
        <time>2021-08-10T15:22:47Z</time>
      </trkpt>
      <trkpt lat="48.25904" lon="4.40532">
        <ele>156.83</ele>
        <time>2021-08-10T15:22:55Z</time>
      </trkpt>
      <trkpt lat="48.25881" lon="4.40534">
        <ele>156.83</ele>
        <time>2021-08-10T15:22:59Z</time>
      </trkpt>
      <trkpt lat="48.25867" lon="4.40535">
        <ele>156.83</ele>
        <time>2021-08-10T15:23:02Z</time>
      </trkpt>
      <trkpt lat="48.25836" lon="4.40536">
        <ele>156.83</ele>
        <time>2021-08-10T15:23:09Z</time>
      </trkpt>
      <trkpt lat="48.25818" lon="4.40528">
        <ele>156.83</ele>
        <time>2021-08-10T15:23:16Z</time>
      </trkpt>
      <trkpt lat="48.25801" lon="4.40518">
        <ele>158.27</ele>
        <time>2021-08-10T15:23:24Z</time>
      </trkpt>
      <trkpt lat="48.25785" lon="4.40506">
        <ele>158.75</ele>
        <time>2021-08-10T15:23:32Z</time>
      </trkpt>
      <trkpt lat="48.25763" lon="4.40489">
        <ele>159.72</ele>
        <time>2021-08-10T15:23:43Z</time>
      </trkpt>
      <trkpt lat="48.25743" lon="4.40472">
        <ele>160.2</ele>
        <time>2021-08-10T15:23:53Z</time>
      </trkpt>
      <trkpt lat="48.25721" lon="4.40455">
        <ele>160.68</ele>
        <time>2021-08-10T15:24:03Z</time>
      </trkpt>
      <trkpt lat="48.25705" lon="4.40442">
        <ele>161.16</ele>
        <time>2021-08-10T15:24:10Z</time>
      </trkpt>
      <trkpt lat="48.25673" lon="4.40415">
        <ele>161.64</ele>
        <time>2021-08-10T15:24:23Z</time>
      </trkpt>
      <trkpt lat="48.25653" lon="4.40398">
        <ele>161.64</ele>
        <time>2021-08-10T15:24:32Z</time>
      </trkpt>
      <trkpt lat="48.25633" lon="4.40381">
        <ele>162.12</ele>
        <time>2021-08-10T15:24:41Z</time>
      </trkpt>
      <trkpt lat="48.25618" lon="4.40369">
        <ele>163.08</ele>
        <time>2021-08-10T15:24:48Z</time>
      </trkpt>
      <trkpt lat="48.25601" lon="4.40355">
        <ele>163.56</ele>
        <time>2021-08-10T15:24:57Z</time>
      </trkpt>
      <trkpt lat="48.25585" lon="4.40344">
        <ele>164.04</ele>
        <time>2021-08-10T15:25:05Z</time>
      </trkpt>
      <trkpt lat="48.25567" lon="4.4033">
        <ele>164.52</ele>
        <time>2021-08-10T15:25:14Z</time>
      </trkpt>
      <trkpt lat="48.25549" lon="4.40318">
        <ele>164.52</ele>
        <time>2021-08-10T15:25:23Z</time>
      </trkpt>
      <trkpt lat="48.25529" lon="4.40305">
        <ele>166.45</ele>
        <time>2021-08-10T15:25:33Z</time>
      </trkpt>
      <trkpt lat="48.25503" lon="4.40287">
        <ele>166.93</ele>
        <time>2021-08-10T15:25:44Z</time>
      </trkpt>
      <trkpt lat="48.25479" lon="4.40273">
        <ele>167.41</ele>
        <time>2021-08-10T15:25:53Z</time>
      </trkpt>
      <trkpt lat="48.25453" lon="4.40264">
        <ele>168.37</ele>
        <time>2021-08-10T15:26:02Z</time>
      </trkpt>
      <trkpt lat="48.25419" lon="4.40254">
        <ele>168.37</ele>
        <time>2021-08-10T15:26:13Z</time>
      </trkpt>
      <trkpt lat="48.25392" lon="4.40253">
        <ele>168.37</ele>
        <time>2021-08-10T15:26:20Z</time>
      </trkpt>
      <trkpt lat="48.25351" lon="4.40251">
        <ele>166.93</ele>
        <time>2021-08-10T15:26:30Z</time>
      </trkpt>
      <trkpt lat="48.25332" lon="4.40248">
        <ele>166.45</ele>
        <time>2021-08-10T15:26:34Z</time>
      </trkpt>
      <trkpt lat="48.25326" lon="4.40247">
        <ele>166.45</ele>
        <time>2021-08-10T15:26:35Z</time>
      </trkpt>
      <trkpt lat="48.25321" lon="4.40245">
        <ele>166.45</ele>
        <time>2021-08-10T15:26:36Z</time>
      </trkpt>
      <trkpt lat="48.25282" lon="4.40219">
        <ele>165.48</ele>
        <time>2021-08-10T15:26:44Z</time>
      </trkpt>
      <trkpt lat="48.25247" lon="4.40189">
        <ele>164.52</ele>
        <time>2021-08-10T15:26:52Z</time>
      </trkpt>
      <trkpt lat="48.25243" lon="4.40184">
        <ele>164.52</ele>
        <time>2021-08-10T15:26:53Z</time>
      </trkpt>
      <trkpt lat="48.25211" lon="4.40139">
        <ele>164.04</ele>
        <time>2021-08-10T15:27:02Z</time>
      </trkpt>
      <trkpt lat="48.25185" lon="4.40096">
        <ele>165.48</ele>
        <time>2021-08-10T15:27:11Z</time>
      </trkpt>
      <trkpt lat="48.25155" lon="4.40034">
        <ele>165.96</ele>
        <time>2021-08-10T15:27:23Z</time>
      </trkpt>
      <trkpt lat="48.25138" lon="4.3999">
        <ele>165.96</ele>
        <time>2021-08-10T15:27:31Z</time>
      </trkpt>
      <trkpt lat="48.25122" lon="4.39938">
        <ele>166.93</ele>
        <time>2021-08-10T15:27:40Z</time>
      </trkpt>
      <trkpt lat="48.25109" lon="4.39906">
        <ele>166.45</ele>
        <time>2021-08-10T15:27:45Z</time>
      </trkpt>
      <trkpt lat="48.25105" lon="4.399">
        <ele>166.45</ele>
        <time>2021-08-10T15:27:46Z</time>
      </trkpt>
      <trkpt lat="48.25097" lon="4.39889">
        <ele>166.45</ele>
        <time>2021-08-10T15:27:48Z</time>
      </trkpt>
      <trkpt lat="48.25089" lon="4.39879">
        <ele>165.48</ele>
        <time>2021-08-10T15:27:50Z</time>
      </trkpt>
      <trkpt lat="48.25085" lon="4.39873">
        <ele>164.52</ele>
        <time>2021-08-10T15:27:51Z</time>
      </trkpt>
      <trkpt lat="48.25079" lon="4.39861">
        <ele>164.04</ele>
        <time>2021-08-10T15:27:53Z</time>
      </trkpt>
      <trkpt lat="48.25038" lon="4.39829">
        <ele>162.12</ele>
        <time>2021-08-10T15:28:00Z</time>
      </trkpt>
      <trkpt lat="48.25003" lon="4.39796">
        <ele>161.16</ele>
        <time>2021-08-10T15:28:07Z</time>
      </trkpt>
      <trkpt lat="48.24965" lon="4.39758">
        <ele>161.16</ele>
        <time>2021-08-10T15:28:16Z</time>
      </trkpt>
      <trkpt lat="48.24949" lon="4.39744">
        <ele>161.16</ele>
        <time>2021-08-10T15:28:20Z</time>
      </trkpt>
      <trkpt lat="48.24946" lon="4.3974">
        <ele>162.6</ele>
        <time>2021-08-10T15:28:21Z</time>
      </trkpt>
      <trkpt lat="48.24942" lon="4.39737">
        <ele>162.6</ele>
        <time>2021-08-10T15:28:22Z</time>
      </trkpt>
      <trkpt lat="48.24927" lon="4.39725">
        <ele>163.56</ele>
        <time>2021-08-10T15:28:27Z</time>
      </trkpt>
      <trkpt lat="48.24909" lon="4.39704">
        <ele>164.52</ele>
        <time>2021-08-10T15:28:35Z</time>
      </trkpt>
      <trkpt lat="48.24894" lon="4.39687">
        <ele>165.48</ele>
        <time>2021-08-10T15:28:42Z</time>
      </trkpt>
      <trkpt lat="48.24869" lon="4.39662">
        <ele>167.41</ele>
        <time>2021-08-10T15:28:54Z</time>
      </trkpt>
      <trkpt lat="48.24852" lon="4.39642">
        <ele>168.37</ele>
        <time>2021-08-10T15:29:03Z</time>
      </trkpt>
      <trkpt lat="48.24833" lon="4.39619">
        <ele>169.33</ele>
        <time>2021-08-10T15:29:12Z</time>
      </trkpt>
      <trkpt lat="48.24815" lon="4.39595">
        <ele>169.33</ele>
        <time>2021-08-10T15:29:19Z</time>
      </trkpt>
      <trkpt lat="48.24792" lon="4.39563">
        <ele>169.81</ele>
        <time>2021-08-10T15:29:27Z</time>
      </trkpt>
      <trkpt lat="48.2477" lon="4.39532">
        <ele>169.81</ele>
        <time>2021-08-10T15:29:34Z</time>
      </trkpt>
      <trkpt lat="48.24748" lon="4.39507">
        <ele>169.81</ele>
        <time>2021-08-10T15:29:40Z</time>
      </trkpt>
      <trkpt lat="48.24744" lon="4.39504">
        <ele>169.81</ele>
        <time>2021-08-10T15:29:41Z</time>
      </trkpt>
      <trkpt lat="48.2474" lon="4.395">
        <ele>169.81</ele>
        <time>2021-08-10T15:29:42Z</time>
      </trkpt>
      <trkpt lat="48.24736" lon="4.39496">
        <ele>169.81</ele>
        <time>2021-08-10T15:29:43Z</time>
      </trkpt>
      <trkpt lat="48.24732" lon="4.39492">
        <ele>169.81</ele>
        <time>2021-08-10T15:29:44Z</time>
      </trkpt>
      <trkpt lat="48.24728" lon="4.39487">
        <ele>169.81</ele>
        <time>2021-08-10T15:29:45Z</time>
      </trkpt>
      <trkpt lat="48.24697" lon="4.39457">
        <ele>169.81</ele>
        <time>2021-08-10T15:29:53Z</time>
      </trkpt>
      <trkpt lat="48.24686" lon="4.39447">
        <ele>169.81</ele>
        <time>2021-08-10T15:29:56Z</time>
      </trkpt>
      <trkpt lat="48.24672" lon="4.39434">
        <ele>168.37</ele>
        <time>2021-08-10T15:30:00Z</time>
      </trkpt>
      <trkpt lat="48.24643" lon="4.39414">
        <ele>168.37</ele>
        <time>2021-08-10T15:30:08Z</time>
      </trkpt>
      <trkpt lat="48.24639" lon="4.39412">
        <ele>167.89</ele>
        <time>2021-08-10T15:30:09Z</time>
      </trkpt>
      <trkpt lat="48.24635" lon="4.3941">
        <ele>167.89</ele>
        <time>2021-08-10T15:30:10Z</time>
      </trkpt>
      <trkpt lat="48.24631" lon="4.39408">
        <ele>167.41</ele>
        <time>2021-08-10T15:30:11Z</time>
      </trkpt>
      <trkpt lat="48.24627" lon="4.39405">
        <ele>167.41</ele>
        <time>2021-08-10T15:30:12Z</time>
      </trkpt>
      <trkpt lat="48.24618" lon="4.39398">
        <ele>166.93</ele>
        <time>2021-08-10T15:30:14Z</time>
      </trkpt>
      <trkpt lat="48.24575" lon="4.39371">
        <ele>164.04</ele>
        <time>2021-08-10T15:30:22Z</time>
      </trkpt>
      <trkpt lat="48.24555" lon="4.39359">
        <ele>162.12</ele>
        <time>2021-08-10T15:30:25Z</time>
      </trkpt>
      <trkpt lat="48.24492" lon="4.3932">
        <ele>160.68</ele>
        <time>2021-08-10T15:30:35Z</time>
      </trkpt>
      <trkpt lat="48.24486" lon="4.39316">
        <ele>160.68</ele>
        <time>2021-08-10T15:30:36Z</time>
      </trkpt>
      <trkpt lat="48.2444" lon="4.39286">
        <ele>160.68</ele>
        <time>2021-08-10T15:30:45Z</time>
      </trkpt>
      <trkpt lat="48.24403" lon="4.39261">
        <ele>160.68</ele>
        <time>2021-08-10T15:30:53Z</time>
      </trkpt>
      <trkpt lat="48.24375" lon="4.39242">
        <ele>162.6</ele>
        <time>2021-08-10T15:31:00Z</time>
      </trkpt>
      <trkpt lat="48.24352" lon="4.39225">
        <ele>163.56</ele>
        <time>2021-08-10T15:31:08Z</time>
      </trkpt>
      <trkpt lat="48.24331" lon="4.3921">
        <ele>165</ele>
        <time>2021-08-10T15:31:16Z</time>
      </trkpt>
      <trkpt lat="48.24306" lon="4.39193">
        <ele>166.93</ele>
        <time>2021-08-10T15:31:25Z</time>
      </trkpt>
      <trkpt lat="48.24279" lon="4.39174">
        <ele>167.89</ele>
        <time>2021-08-10T15:31:35Z</time>
      </trkpt>
      <trkpt lat="48.24255" lon="4.39157">
        <ele>168.85</ele>
        <time>2021-08-10T15:31:43Z</time>
      </trkpt>
      <trkpt lat="48.24244" lon="4.39151">
        <ele>168.85</ele>
        <time>2021-08-10T15:31:46Z</time>
      </trkpt>
      <trkpt lat="48.2424" lon="4.39147">
        <ele>168.85</ele>
        <time>2021-08-10T15:31:47Z</time>
      </trkpt>
      <trkpt lat="48.24206" lon="4.39117">
        <ele>167.41</ele>
        <time>2021-08-10T15:31:55Z</time>
      </trkpt>
      <trkpt lat="48.24164" lon="4.39076">
        <ele>166.93</ele>
        <time>2021-08-10T15:32:04Z</time>
      </trkpt>
      <trkpt lat="48.24123" lon="4.39036">
        <ele>166.45</ele>
        <time>2021-08-10T15:32:13Z</time>
      </trkpt>
      <trkpt lat="48.24093" lon="4.39005">
        <ele>166.45</ele>
        <time>2021-08-10T15:32:21Z</time>
      </trkpt>
      <trkpt lat="48.24086" lon="4.38998">
        <ele>167.89</ele>
        <time>2021-08-10T15:32:23Z</time>
      </trkpt>
      <trkpt lat="48.24058" lon="4.38969">
        <ele>168.37</ele>
        <time>2021-08-10T15:32:31Z</time>
      </trkpt>
      <trkpt lat="48.24043" lon="4.38954">
        <ele>168.85</ele>
        <time>2021-08-10T15:32:37Z</time>
      </trkpt>
      <trkpt lat="48.24041" lon="4.38953">
        <ele>169.81</ele>
        <time>2021-08-10T15:32:44Z</time>
      </trkpt>
      <trkpt lat="48.2404" lon="4.38953">
        <ele>169.81</ele>
        <time>2021-08-10T15:32:45Z</time>
      </trkpt>
      <trkpt lat="48.24039" lon="4.38953">
        <ele>169.81</ele>
        <time>2021-08-10T15:32:46Z</time>
      </trkpt>
      <trkpt lat="48.24037" lon="4.38954">
        <ele>169.33</ele>
        <time>2021-08-10T15:32:47Z</time>
      </trkpt>
      <trkpt lat="48.24035" lon="4.38956">
        <ele>169.33</ele>
        <time>2021-08-10T15:32:48Z</time>
      </trkpt>
      <trkpt lat="48.24033" lon="4.38958">
        <ele>169.33</ele>
        <time>2021-08-10T15:32:49Z</time>
      </trkpt>
      <trkpt lat="48.24032" lon="4.38962">
        <ele>169.33</ele>
        <time>2021-08-10T15:32:50Z</time>
      </trkpt>
      <trkpt lat="48.2403" lon="4.38965">
        <ele>169.33</ele>
        <time>2021-08-10T15:32:51Z</time>
      </trkpt>
      <trkpt lat="48.24027" lon="4.38969">
        <ele>169.33</ele>
        <time>2021-08-10T15:32:52Z</time>
      </trkpt>
      <trkpt lat="48.24025" lon="4.38972">
        <ele>169.33</ele>
        <time>2021-08-10T15:32:53Z</time>
      </trkpt>
      <trkpt lat="48.24023" lon="4.38977">
        <ele>169.33</ele>
        <time>2021-08-10T15:32:54Z</time>
      </trkpt>
      <trkpt lat="48.2402" lon="4.38981">
        <ele>169.33</ele>
        <time>2021-08-10T15:32:55Z</time>
      </trkpt>
      <trkpt lat="48.24018" lon="4.38987">
        <ele>169.81</ele>
        <time>2021-08-10T15:32:56Z</time>
      </trkpt>
      <trkpt lat="48.24015" lon="4.38992">
        <ele>169.33</ele>
        <time>2021-08-10T15:32:57Z</time>
      </trkpt>
      <trkpt lat="48.24012" lon="4.38995">
        <ele>169.33</ele>
        <time>2021-08-10T15:32:58Z</time>
      </trkpt>
      <trkpt lat="48.24008" lon="4.38999">
        <ele>168.37</ele>
        <time>2021-08-10T15:32:59Z</time>
      </trkpt>
      <trkpt lat="48.24005" lon="4.39004">
        <ele>168.37</ele>
        <time>2021-08-10T15:33:00Z</time>
      </trkpt>
      <trkpt lat="48.23995" lon="4.39017">
        <ele>168.37</ele>
        <time>2021-08-10T15:33:03Z</time>
      </trkpt>
      <trkpt lat="48.23991" lon="4.39022">
        <ele>168.37</ele>
        <time>2021-08-10T15:33:04Z</time>
      </trkpt>
      <trkpt lat="48.23964" lon="4.39063">
        <ele>168.85</ele>
        <time>2021-08-10T15:33:13Z</time>
      </trkpt>
      <trkpt lat="48.23939" lon="4.39111">
        <ele>169.33</ele>
        <time>2021-08-10T15:33:22Z</time>
      </trkpt>
      <trkpt lat="48.23929" lon="4.39146">
        <ele>167.89</ele>
        <time>2021-08-10T15:33:27Z</time>
      </trkpt>
      <trkpt lat="48.23917" lon="4.39213">
        <ele>167.41</ele>
        <time>2021-08-10T15:33:35Z</time>
      </trkpt>
      <trkpt lat="48.23898" lon="4.39297">
        <ele>165.96</ele>
        <time>2021-08-10T15:33:44Z</time>
      </trkpt>
      <trkpt lat="48.23891" lon="4.39324">
        <ele>165.48</ele>
        <time>2021-08-10T15:33:47Z</time>
      </trkpt>
      <trkpt lat="48.23852" lon="4.39416">
        <ele>165</ele>
        <time>2021-08-10T15:33:58Z</time>
      </trkpt>
      <trkpt lat="48.2382" lon="4.39495">
        <ele>163.56</ele>
        <time>2021-08-10T15:34:07Z</time>
      </trkpt>
      <trkpt lat="48.23791" lon="4.39581">
        <ele>163.08</ele>
        <time>2021-08-10T15:34:16Z</time>
      </trkpt>
      <trkpt lat="48.2378" lon="4.39617">
        <ele>161.64</ele>
        <time>2021-08-10T15:34:20Z</time>
      </trkpt>
      <trkpt lat="48.23777" lon="4.39623">
        <ele>161.64</ele>
        <time>2021-08-10T15:34:21Z</time>
      </trkpt>
      <trkpt lat="48.23774" lon="4.39626">
        <ele>161.64</ele>
        <time>2021-08-10T15:34:22Z</time>
      </trkpt>
      <trkpt lat="48.23769" lon="4.39626">
        <ele>161.16</ele>
        <time>2021-08-10T15:34:23Z</time>
      </trkpt>
      <trkpt lat="48.23766" lon="4.39622">
        <ele>161.16</ele>
        <time>2021-08-10T15:34:24Z</time>
      </trkpt>
      <trkpt lat="48.23764" lon="4.39618">
        <ele>161.16</ele>
        <time>2021-08-10T15:34:25Z</time>
      </trkpt>
      <trkpt lat="48.23762" lon="4.39612">
        <ele>161.16</ele>
        <time>2021-08-10T15:34:26Z</time>
      </trkpt>
      <trkpt lat="48.2376" lon="4.39606">
        <ele>161.16</ele>
        <time>2021-08-10T15:34:27Z</time>
      </trkpt>
      <trkpt lat="48.23745" lon="4.39549">
        <ele>160.2</ele>
        <time>2021-08-10T15:34:36Z</time>
      </trkpt>
      <trkpt lat="48.23742" lon="4.39542">
        <ele>160.68</ele>
        <time>2021-08-10T15:34:37Z</time>
      </trkpt>
      <trkpt lat="48.23733" lon="4.39508">
        <ele>160.2</ele>
        <time>2021-08-10T15:34:42Z</time>
      </trkpt>
      <trkpt lat="48.23729" lon="4.39488">
        <ele>160.2</ele>
        <time>2021-08-10T15:34:47Z</time>
      </trkpt>
      <trkpt lat="48.23727" lon="4.39484">
        <ele>160.2</ele>
        <time>2021-08-10T15:34:50Z</time>
      </trkpt>
      <trkpt lat="48.23725" lon="4.39484">
        <ele>160.2</ele>
        <time>2021-08-10T15:34:51Z</time>
      </trkpt>
      <trkpt lat="48.23723" lon="4.39486">
        <ele>160.2</ele>
        <time>2021-08-10T15:34:52Z</time>
      </trkpt>
      <trkpt lat="48.23713" lon="4.39493">
        <ele>160.2</ele>
        <time>2021-08-10T15:34:55Z</time>
      </trkpt>
      <trkpt lat="48.23708" lon="4.39493">
        <ele>159.72</ele>
        <time>2021-08-10T15:34:56Z</time>
      </trkpt>
      <trkpt lat="48.23672" lon="4.39489">
        <ele>158.75</ele>
        <time>2021-08-10T15:35:03Z</time>
      </trkpt>
      <trkpt lat="48.2362" lon="4.39473">
        <ele>157.31</ele>
        <time>2021-08-10T15:35:12Z</time>
      </trkpt>
      <trkpt lat="48.23571" lon="4.39455">
        <ele>155.39</ele>
        <time>2021-08-10T15:35:20Z</time>
      </trkpt>
      <trkpt lat="48.23535" lon="4.39434">
        <ele>154.91</ele>
        <time>2021-08-10T15:35:27Z</time>
      </trkpt>
      <trkpt lat="48.23532" lon="4.3943">
        <ele>156.83</ele>
        <time>2021-08-10T15:35:31Z</time>
      </trkpt>
      <trkpt lat="48.23524" lon="4.39423">
        <ele>156.83</ele>
        <time>2021-08-10T15:35:37Z</time>
      </trkpt>
      <trkpt lat="48.23502" lon="4.39425">
        <ele>154.43</ele>
        <time>2021-08-10T15:35:42Z</time>
      </trkpt>
      <trkpt lat="48.23455" lon="4.39426">
        <ele>152.99</ele>
        <time>2021-08-10T15:35:50Z</time>
      </trkpt>
      <trkpt lat="48.23449" lon="4.39424">
        <ele>152.99</ele>
        <time>2021-08-10T15:35:51Z</time>
      </trkpt>
      <trkpt lat="48.23444" lon="4.39422">
        <ele>152.99</ele>
        <time>2021-08-10T15:35:52Z</time>
      </trkpt>
      <trkpt lat="48.2341" lon="4.39401">
        <ele>152.99</ele>
        <time>2021-08-10T15:35:59Z</time>
      </trkpt>
      <trkpt lat="48.23405" lon="4.39399">
        <ele>152.99</ele>
        <time>2021-08-10T15:36:00Z</time>
      </trkpt>
      <trkpt lat="48.234" lon="4.39398">
        <ele>152.99</ele>
        <time>2021-08-10T15:36:01Z</time>
      </trkpt>
      <trkpt lat="48.2339" lon="4.39397">
        <ele>152.99</ele>
        <time>2021-08-10T15:36:03Z</time>
      </trkpt>
      <trkpt lat="48.23347" lon="4.39404">
        <ele>154.43</ele>
        <time>2021-08-10T15:36:12Z</time>
      </trkpt>
      <trkpt lat="48.23312" lon="4.3941">
        <ele>152.99</ele>
        <time>2021-08-10T15:36:19Z</time>
      </trkpt>
      <trkpt lat="48.2327" lon="4.39416">
        <ele>152.51</ele>
        <time>2021-08-10T15:36:27Z</time>
      </trkpt>
      <trkpt lat="48.23239" lon="4.39419">
        <ele>152.51</ele>
        <time>2021-08-10T15:36:33Z</time>
      </trkpt>
      <trkpt lat="48.23234" lon="4.39419">
        <ele>152.51</ele>
        <time>2021-08-10T15:36:34Z</time>
      </trkpt>
      <trkpt lat="48.23229" lon="4.39418">
        <ele>152.51</ele>
        <time>2021-08-10T15:36:35Z</time>
      </trkpt>
      <trkpt lat="48.23177" lon="4.39409">
        <ele>152.03</ele>
        <time>2021-08-10T15:36:45Z</time>
      </trkpt>
      <trkpt lat="48.23156" lon="4.394">
        <ele>152.03</ele>
        <time>2021-08-10T15:36:49Z</time>
      </trkpt>
      <trkpt lat="48.23151" lon="4.39398">
        <ele>152.03</ele>
        <time>2021-08-10T15:36:50Z</time>
      </trkpt>
      <trkpt lat="48.23146" lon="4.39396">
        <ele>152.03</ele>
        <time>2021-08-10T15:36:51Z</time>
      </trkpt>
      <trkpt lat="48.23136" lon="4.39392">
        <ele>152.03</ele>
        <time>2021-08-10T15:36:53Z</time>
      </trkpt>
      <trkpt lat="48.23097" lon="4.39374">
        <ele>152.03</ele>
        <time>2021-08-10T15:37:01Z</time>
      </trkpt>
      <trkpt lat="48.23092" lon="4.39371">
        <ele>152.03</ele>
        <time>2021-08-10T15:37:02Z</time>
      </trkpt>
      <trkpt lat="48.23088" lon="4.39369">
        <ele>151.54</ele>
        <time>2021-08-10T15:37:03Z</time>
      </trkpt>
      <trkpt lat="48.23083" lon="4.39367">
        <ele>151.06</ele>
        <time>2021-08-10T15:37:04Z</time>
      </trkpt>
      <trkpt lat="48.23078" lon="4.39366">
        <ele>151.06</ele>
        <time>2021-08-10T15:37:05Z</time>
      </trkpt>
      <trkpt lat="48.23073" lon="4.39367">
        <ele>151.06</ele>
        <time>2021-08-10T15:37:06Z</time>
      </trkpt>
      <trkpt lat="48.23068" lon="4.39369">
        <ele>151.06</ele>
        <time>2021-08-10T15:37:07Z</time>
      </trkpt>
      <trkpt lat="48.23064" lon="4.39373">
        <ele>151.06</ele>
        <time>2021-08-10T15:37:08Z</time>
      </trkpt>
      <trkpt lat="48.2306" lon="4.39378">
        <ele>150.58</ele>
        <time>2021-08-10T15:37:09Z</time>
      </trkpt>
      <trkpt lat="48.2303" lon="4.39424">
        <ele>149.14</ele>
        <time>2021-08-10T15:37:16Z</time>
      </trkpt>
      <trkpt lat="48.23016" lon="4.39443">
        <ele>148.18</ele>
        <time>2021-08-10T15:37:19Z</time>
      </trkpt>
      <trkpt lat="48.2301" lon="4.39447">
        <ele>148.18</ele>
        <time>2021-08-10T15:37:20Z</time>
      </trkpt>
      <trkpt lat="48.22999" lon="4.39452">
        <ele>148.18</ele>
        <time>2021-08-10T15:37:22Z</time>
      </trkpt>
      <trkpt lat="48.22987" lon="4.39455">
        <ele>148.18</ele>
        <time>2021-08-10T15:37:24Z</time>
      </trkpt>
      <trkpt lat="48.22982" lon="4.39455">
        <ele>147.22</ele>
        <time>2021-08-10T15:37:25Z</time>
      </trkpt>
      <trkpt lat="48.22977" lon="4.39452">
        <ele>147.22</ele>
        <time>2021-08-10T15:37:26Z</time>
      </trkpt>
      <trkpt lat="48.22974" lon="4.39447">
        <ele>147.22</ele>
        <time>2021-08-10T15:37:27Z</time>
      </trkpt>
      <trkpt lat="48.22972" lon="4.39441">
        <ele>147.22</ele>
        <time>2021-08-10T15:37:28Z</time>
      </trkpt>
      <trkpt lat="48.22972" lon="4.39434">
        <ele>147.22</ele>
        <time>2021-08-10T15:37:29Z</time>
      </trkpt>
      <trkpt lat="48.22971" lon="4.39427">
        <ele>147.22</ele>
        <time>2021-08-10T15:37:30Z</time>
      </trkpt>
      <trkpt lat="48.2297" lon="4.39419">
        <ele>147.7</ele>
        <time>2021-08-10T15:37:31Z</time>
      </trkpt>
      <trkpt lat="48.2297" lon="4.39412">
        <ele>147.7</ele>
        <time>2021-08-10T15:37:32Z</time>
      </trkpt>
      <trkpt lat="48.2297" lon="4.39404">
        <ele>147.7</ele>
        <time>2021-08-10T15:37:33Z</time>
      </trkpt>
      <trkpt lat="48.22967" lon="4.39375">
        <ele>148.66</ele>
        <time>2021-08-10T15:37:37Z</time>
      </trkpt>
      <trkpt lat="48.22963" lon="4.3933">
        <ele>149.62</ele>
        <time>2021-08-10T15:37:45Z</time>
      </trkpt>
      <trkpt lat="48.22959" lon="4.39291">
        <ele>150.58</ele>
        <time>2021-08-10T15:37:53Z</time>
      </trkpt>
      <trkpt lat="48.22953" lon="4.39245">
        <ele>151.54</ele>
        <time>2021-08-10T15:38:03Z</time>
      </trkpt>
      <trkpt lat="48.22942" lon="4.39184">
        <ele>151.54</ele>
        <time>2021-08-10T15:38:13Z</time>
      </trkpt>
      <trkpt lat="48.22932" lon="4.39119">
        <ele>151.54</ele>
        <time>2021-08-10T15:38:23Z</time>
      </trkpt>
      <trkpt lat="48.22926" lon="4.39079">
        <ele>151.54</ele>
        <time>2021-08-10T15:38:29Z</time>
      </trkpt>
      <trkpt lat="48.22925" lon="4.39065">
        <ele>151.54</ele>
        <time>2021-08-10T15:38:31Z</time>
      </trkpt>
      <trkpt lat="48.22924" lon="4.39059">
        <ele>151.54</ele>
        <time>2021-08-10T15:38:32Z</time>
      </trkpt>
      <trkpt lat="48.22916" lon="4.39005">
        <ele>151.54</ele>
        <time>2021-08-10T15:38:41Z</time>
      </trkpt>
      <trkpt lat="48.22909" lon="4.38956">
        <ele>152.51</ele>
        <time>2021-08-10T15:38:50Z</time>
      </trkpt>
      <trkpt lat="48.22901" lon="4.38901">
        <ele>152.99</ele>
        <time>2021-08-10T15:39:01Z</time>
      </trkpt>
      <trkpt lat="48.22894" lon="4.38849">
        <ele>153.95</ele>
        <time>2021-08-10T15:39:11Z</time>
      </trkpt>
      <trkpt lat="48.22884" lon="4.38784">
        <ele>153.95</ele>
        <time>2021-08-10T15:39:22Z</time>
      </trkpt>
      <trkpt lat="48.22877" lon="4.38737">
        <ele>153.95</ele>
        <time>2021-08-10T15:39:30Z</time>
      </trkpt>
      <trkpt lat="48.22876" lon="4.38731">
        <ele>153.95</ele>
        <time>2021-08-10T15:39:31Z</time>
      </trkpt>
      <trkpt lat="48.22876" lon="4.38724">
        <ele>153.95</ele>
        <time>2021-08-10T15:39:32Z</time>
      </trkpt>
      <trkpt lat="48.22868" lon="4.38671">
        <ele>154.43</ele>
        <time>2021-08-10T15:39:41Z</time>
      </trkpt>
      <trkpt lat="48.22864" lon="4.38653">
        <ele>154.43</ele>
        <time>2021-08-10T15:39:44Z</time>
      </trkpt>
      <trkpt lat="48.22855" lon="4.38585">
        <ele>154.91</ele>
        <time>2021-08-10T15:39:55Z</time>
      </trkpt>
      <trkpt lat="48.22854" lon="4.38578">
        <ele>154.91</ele>
        <time>2021-08-10T15:39:56Z</time>
      </trkpt>
      <trkpt lat="48.22852" lon="4.38572">
        <ele>154.91</ele>
        <time>2021-08-10T15:39:57Z</time>
      </trkpt>
      <trkpt lat="48.22851" lon="4.38566">
        <ele>154.91</ele>
        <time>2021-08-10T15:39:58Z</time>
      </trkpt>
      <trkpt lat="48.22849" lon="4.38554">
        <ele>154.91</ele>
        <time>2021-08-10T15:40:00Z</time>
      </trkpt>
      <trkpt lat="48.22841" lon="4.38497">
        <ele>155.39</ele>
        <time>2021-08-10T15:40:10Z</time>
      </trkpt>
      <trkpt lat="48.22832" lon="4.38442">
        <ele>156.35</ele>
        <time>2021-08-10T15:40:21Z</time>
      </trkpt>
      <trkpt lat="48.22822" lon="4.38388">
        <ele>156.83</ele>
        <time>2021-08-10T15:40:31Z</time>
      </trkpt>
      <trkpt lat="48.22818" lon="4.38363">
        <ele>156.83</ele>
        <time>2021-08-10T15:40:35Z</time>
      </trkpt>
      <trkpt lat="48.22807" lon="4.38314">
        <ele>156.83</ele>
        <time>2021-08-10T15:40:43Z</time>
      </trkpt>
      <trkpt lat="48.22806" lon="4.38307">
        <ele>156.83</ele>
        <time>2021-08-10T15:40:44Z</time>
      </trkpt>
      <trkpt lat="48.228" lon="4.38271">
        <ele>157.31</ele>
        <time>2021-08-10T15:40:51Z</time>
      </trkpt>
      <trkpt lat="48.22792" lon="4.3823">
        <ele>157.31</ele>
        <time>2021-08-10T15:40:58Z</time>
      </trkpt>
      <trkpt lat="48.22783" lon="4.38183">
        <ele>158.27</ele>
        <time>2021-08-10T15:41:07Z</time>
      </trkpt>
      <trkpt lat="48.22776" lon="4.38145">
        <ele>159.24</ele>
        <time>2021-08-10T15:41:16Z</time>
      </trkpt>
      <trkpt lat="48.22766" lon="4.38095">
        <ele>161.64</ele>
        <time>2021-08-10T15:41:28Z</time>
      </trkpt>
      <trkpt lat="48.22757" lon="4.38044">
        <ele>162.6</ele>
        <time>2021-08-10T15:41:40Z</time>
      </trkpt>
      <trkpt lat="48.22748" lon="4.37999">
        <ele>163.56</ele>
        <time>2021-08-10T15:41:51Z</time>
      </trkpt>
      <trkpt lat="48.22742" lon="4.37965">
        <ele>164.52</ele>
        <time>2021-08-10T15:41:59Z</time>
      </trkpt>
      <trkpt lat="48.22736" lon="4.37923">
        <ele>165</ele>
        <time>2021-08-10T15:42:08Z</time>
      </trkpt>
      <trkpt lat="48.22731" lon="4.37894">
        <ele>165</ele>
        <time>2021-08-10T15:42:13Z</time>
      </trkpt>
      <trkpt lat="48.22729" lon="4.37888">
        <ele>165</ele>
        <time>2021-08-10T15:42:14Z</time>
      </trkpt>
      <trkpt lat="48.22728" lon="4.37882">
        <ele>165</ele>
        <time>2021-08-10T15:42:15Z</time>
      </trkpt>
      <trkpt lat="48.22721" lon="4.37818">
        <ele>162.6</ele>
        <time>2021-08-10T15:42:24Z</time>
      </trkpt>
      <trkpt lat="48.22716" lon="4.37755">
        <ele>160.68</ele>
        <time>2021-08-10T15:42:32Z</time>
      </trkpt>
      <trkpt lat="48.22717" lon="4.37737">
        <ele>160.68</ele>
        <time>2021-08-10T15:42:36Z</time>
      </trkpt>
      <trkpt lat="48.22719" lon="4.37735">
        <ele>160.68</ele>
        <time>2021-08-10T15:42:37Z</time>
      </trkpt>
      <trkpt lat="48.22721" lon="4.37734">
        <ele>160.68</ele>
        <time>2021-08-10T15:42:38Z</time>
      </trkpt>
      <trkpt lat="48.22724" lon="4.37733">
        <ele>160.2</ele>
        <time>2021-08-10T15:42:40Z</time>
      </trkpt>
      <trkpt lat="48.22738" lon="4.37729">
        <ele>161.64</ele>
        <time>2021-08-10T15:42:45Z</time>
      </trkpt>
      <trkpt lat="48.22738" lon="4.37728">
        <ele>161.64</ele>
        <time>2021-08-10T15:42:46Z</time>
      </trkpt>
      <trkpt lat="48.22736" lon="4.37727">
        <ele>161.64</ele>
        <time>2021-08-10T15:42:49Z</time>
      </trkpt>
      <trkpt lat="48.22735" lon="4.37728">
        <ele>161.64</ele>
        <time>2021-08-10T15:42:50Z</time>
      </trkpt>
      <trkpt lat="48.22732" lon="4.37729">
        <ele>161.64</ele>
        <time>2021-08-10T15:42:51Z</time>
      </trkpt>
      <trkpt lat="48.22715" lon="4.37736">
        <ele>160.2</ele>
        <time>2021-08-10T15:42:56Z</time>
      </trkpt>
      <trkpt lat="48.2269" lon="4.37738">
        <ele>158.75</ele>
        <time>2021-08-10T15:43:02Z</time>
      </trkpt>
      <trkpt lat="48.2267" lon="4.37733">
        <ele>157.79</ele>
        <time>2021-08-10T15:43:06Z</time>
      </trkpt>
      <trkpt lat="48.22644" lon="4.37722">
        <ele>155.87</ele>
        <time>2021-08-10T15:43:10Z</time>
      </trkpt>
      <trkpt lat="48.22606" lon="4.37704">
        <ele>152.99</ele>
        <time>2021-08-10T15:43:15Z</time>
      </trkpt>
      <trkpt lat="48.22531" lon="4.37669">
        <ele>150.1</ele>
        <time>2021-08-10T15:43:24Z</time>
      </trkpt>
      <trkpt lat="48.22463" lon="4.37638">
        <ele>148.66</ele>
        <time>2021-08-10T15:43:33Z</time>
      </trkpt>
      <trkpt lat="48.22409" lon="4.37613">
        <ele>148.18</ele>
        <time>2021-08-10T15:43:41Z</time>
      </trkpt>
      <trkpt lat="48.22366" lon="4.37592">
        <ele>147.7</ele>
        <time>2021-08-10T15:43:48Z</time>
      </trkpt>
      <trkpt lat="48.22311" lon="4.37567">
        <ele>147.22</ele>
        <time>2021-08-10T15:43:57Z</time>
      </trkpt>
      <trkpt lat="48.22246" lon="4.37537">
        <ele>146.74</ele>
        <time>2021-08-10T15:44:07Z</time>
      </trkpt>
      <trkpt lat="48.22191" lon="4.37512">
        <ele>144.34</ele>
        <time>2021-08-10T15:44:15Z</time>
      </trkpt>
      <trkpt lat="48.22123" lon="4.3748">
        <ele>142.41</ele>
        <time>2021-08-10T15:44:24Z</time>
      </trkpt>
      <trkpt lat="48.22037" lon="4.3744">
        <ele>141.45</ele>
        <time>2021-08-10T15:44:35Z</time>
      </trkpt>
      <trkpt lat="48.21966" lon="4.37406">
        <ele>141.45</ele>
        <time>2021-08-10T15:44:45Z</time>
      </trkpt>
      <trkpt lat="48.2192" lon="4.37386">
        <ele>141.45</ele>
        <time>2021-08-10T15:44:52Z</time>
      </trkpt>
      <trkpt lat="48.21866" lon="4.37362">
        <ele>141.45</ele>
        <time>2021-08-10T15:45:01Z</time>
      </trkpt>
      <trkpt lat="48.2185" lon="4.37354">
        <ele>141.45</ele>
        <time>2021-08-10T15:45:04Z</time>
      </trkpt>
      <trkpt lat="48.21796" lon="4.3733">
        <ele>142.41</ele>
        <time>2021-08-10T15:45:14Z</time>
      </trkpt>
      <trkpt lat="48.21791" lon="4.37327">
        <ele>142.41</ele>
        <time>2021-08-10T15:45:15Z</time>
      </trkpt>
      <trkpt lat="48.2174" lon="4.37303">
        <ele>142.41</ele>
        <time>2021-08-10T15:45:26Z</time>
      </trkpt>
      <trkpt lat="48.21716" lon="4.37294">
        <ele>142.89</ele>
        <time>2021-08-10T15:45:31Z</time>
      </trkpt>
      <trkpt lat="48.21675" lon="4.37273">
        <ele>142.89</ele>
        <time>2021-08-10T15:45:40Z</time>
      </trkpt>
      <trkpt lat="48.21636" lon="4.37257">
        <ele>143.37</ele>
        <time>2021-08-10T15:45:48Z</time>
      </trkpt>
      <trkpt lat="48.21594" lon="4.37236">
        <ele>143.85</ele>
        <time>2021-08-10T15:45:57Z</time>
      </trkpt>
      <trkpt lat="48.21564" lon="4.37221">
        <ele>145.3</ele>
        <time>2021-08-10T15:46:05Z</time>
      </trkpt>
      <trkpt lat="48.21528" lon="4.37206">
        <ele>146.74</ele>
        <time>2021-08-10T15:46:16Z</time>
      </trkpt>
      <trkpt lat="48.21499" lon="4.37192">
        <ele>147.7</ele>
        <time>2021-08-10T15:46:26Z</time>
      </trkpt>
      <trkpt lat="48.21474" lon="4.37181">
        <ele>149.62</ele>
        <time>2021-08-10T15:46:35Z</time>
      </trkpt>
      <trkpt lat="48.21447" lon="4.37169">
        <ele>150.1</ele>
        <time>2021-08-10T15:46:45Z</time>
      </trkpt>
      <trkpt lat="48.21423" lon="4.37158">
        <ele>152.03</ele>
        <time>2021-08-10T15:46:54Z</time>
      </trkpt>
      <trkpt lat="48.21396" lon="4.37143">
        <ele>152.51</ele>
        <time>2021-08-10T15:47:04Z</time>
      </trkpt>
      <trkpt lat="48.21371" lon="4.37127">
        <ele>153.95</ele>
        <time>2021-08-10T15:47:14Z</time>
      </trkpt>
      <trkpt lat="48.21361" lon="4.37115">
        <ele>155.39</ele>
        <time>2021-08-10T15:47:19Z</time>
      </trkpt>
      <trkpt lat="48.21352" lon="4.37092">
        <ele>155.39</ele>
        <time>2021-08-10T15:47:26Z</time>
      </trkpt>
      <trkpt lat="48.21341" lon="4.37059">
        <ele>157.31</ele>
        <time>2021-08-10T15:47:35Z</time>
      </trkpt>
      <trkpt lat="48.21331" lon="4.3702">
        <ele>157.79</ele>
        <time>2021-08-10T15:47:45Z</time>
      </trkpt>
      <trkpt lat="48.21327" lon="4.37002">
        <ele>157.79</ele>
        <time>2021-08-10T15:47:49Z</time>
      </trkpt>
      <trkpt lat="48.21327" lon="4.36997">
        <ele>157.79</ele>
        <time>2021-08-10T15:47:50Z</time>
      </trkpt>
      <trkpt lat="48.21326" lon="4.36992">
        <ele>157.79</ele>
        <time>2021-08-10T15:47:51Z</time>
      </trkpt>
      <trkpt lat="48.21324" lon="4.36988">
        <ele>157.79</ele>
        <time>2021-08-10T15:47:52Z</time>
      </trkpt>
      <trkpt lat="48.21322" lon="4.36983">
        <ele>157.79</ele>
        <time>2021-08-10T15:47:53Z</time>
      </trkpt>
      <trkpt lat="48.21315" lon="4.3696">
        <ele>158.27</ele>
        <time>2021-08-10T15:47:58Z</time>
      </trkpt>
      <trkpt lat="48.21302" lon="4.36911">
        <ele>158.27</ele>
        <time>2021-08-10T15:48:07Z</time>
      </trkpt>
      <trkpt lat="48.21297" lon="4.36893">
        <ele>158.75</ele>
        <time>2021-08-10T15:48:10Z</time>
      </trkpt>
      <trkpt lat="48.21282" lon="4.36844">
        <ele>159.72</ele>
        <time>2021-08-10T15:48:19Z</time>
      </trkpt>
      <trkpt lat="48.21279" lon="4.36841">
        <ele>159.72</ele>
        <time>2021-08-10T15:48:20Z</time>
      </trkpt>
      <trkpt lat="48.21275" lon="4.3684">
        <ele>159.72</ele>
        <time>2021-08-10T15:48:21Z</time>
      </trkpt>
      <trkpt lat="48.21272" lon="4.36841">
        <ele>159.72</ele>
        <time>2021-08-10T15:48:22Z</time>
      </trkpt>
      <trkpt lat="48.21249" lon="4.36857">
        <ele>160.2</ele>
        <time>2021-08-10T15:48:29Z</time>
      </trkpt>
      <trkpt lat="48.21217" lon="4.36884">
        <ele>161.16</ele>
        <time>2021-08-10T15:48:39Z</time>
      </trkpt>
      <trkpt lat="48.212" lon="4.36897">
        <ele>161.64</ele>
        <time>2021-08-10T15:48:45Z</time>
      </trkpt>
      <trkpt lat="48.2118" lon="4.36912">
        <ele>162.12</ele>
        <time>2021-08-10T15:48:51Z</time>
      </trkpt>
      <trkpt lat="48.21145" lon="4.36941">
        <ele>163.56</ele>
        <time>2021-08-10T15:49:01Z</time>
      </trkpt>
      <trkpt lat="48.21118" lon="4.36964">
        <ele>164.52</ele>
        <time>2021-08-10T15:49:09Z</time>
      </trkpt>
      <trkpt lat="48.21094" lon="4.36985">
        <ele>165.96</ele>
        <time>2021-08-10T15:49:16Z</time>
      </trkpt>
      <trkpt lat="48.21062" lon="4.37009">
        <ele>167.41</ele>
        <time>2021-08-10T15:49:25Z</time>
      </trkpt>
      <trkpt lat="48.21016" lon="4.37039">
        <ele>168.37</ele>
        <time>2021-08-10T15:49:37Z</time>
      </trkpt>
      <trkpt lat="48.2097" lon="4.37073">
        <ele>169.81</ele>
        <time>2021-08-10T15:49:49Z</time>
      </trkpt>
      <trkpt lat="48.20937" lon="4.37097">
        <ele>170.77</ele>
        <time>2021-08-10T15:49:58Z</time>
      </trkpt>
      <trkpt lat="48.20909" lon="4.37118">
        <ele>170.77</ele>
        <time>2021-08-10T15:50:06Z</time>
      </trkpt>
      <trkpt lat="48.20874" lon="4.37145">
        <ele>172.21</ele>
        <time>2021-08-10T15:50:16Z</time>
      </trkpt>
      <trkpt lat="48.20847" lon="4.37166">
        <ele>172.21</ele>
        <time>2021-08-10T15:50:24Z</time>
      </trkpt>
      <trkpt lat="48.20803" lon="4.37195">
        <ele>173.66</ele>
        <time>2021-08-10T15:50:36Z</time>
      </trkpt>
      <trkpt lat="48.20774" lon="4.37217">
        <ele>173.66</ele>
        <time>2021-08-10T15:50:44Z</time>
      </trkpt>
      <trkpt lat="48.20763" lon="4.37225">
        <ele>174.62</ele>
        <time>2021-08-10T15:50:47Z</time>
      </trkpt>
      <trkpt lat="48.20728" lon="4.37248">
        <ele>175.58</ele>
        <time>2021-08-10T15:50:56Z</time>
      </trkpt>
      <trkpt lat="48.20685" lon="4.3728">
        <ele>176.06</ele>
        <time>2021-08-10T15:51:07Z</time>
      </trkpt>
      <trkpt lat="48.2065" lon="4.37306">
        <ele>176.06</ele>
        <time>2021-08-10T15:51:16Z</time>
      </trkpt>
      <trkpt lat="48.20604" lon="4.37339">
        <ele>176.54</ele>
        <time>2021-08-10T15:51:28Z</time>
      </trkpt>
      <trkpt lat="48.20589" lon="4.37351">
        <ele>176.54</ele>
        <time>2021-08-10T15:51:32Z</time>
      </trkpt>
      <trkpt lat="48.20563" lon="4.3737">
        <ele>177.5</ele>
        <time>2021-08-10T15:51:39Z</time>
      </trkpt>
      <trkpt lat="48.20559" lon="4.37372">
        <ele>177.5</ele>
        <time>2021-08-10T15:51:40Z</time>
      </trkpt>
      <trkpt lat="48.20526" lon="4.37396">
        <ele>178.94</ele>
        <time>2021-08-10T15:51:50Z</time>
      </trkpt>
      <trkpt lat="48.20504" lon="4.37411">
        <ele>179.9</ele>
        <time>2021-08-10T15:51:58Z</time>
      </trkpt>
      <trkpt lat="48.20482" lon="4.37427">
        <ele>181.35</ele>
        <time>2021-08-10T15:52:07Z</time>
      </trkpt>
      <trkpt lat="48.2046" lon="4.37443">
        <ele>182.79</ele>
        <time>2021-08-10T15:52:17Z</time>
      </trkpt>
      <trkpt lat="48.20444" lon="4.37455">
        <ele>183.27</ele>
        <time>2021-08-10T15:52:24Z</time>
      </trkpt>
      <trkpt lat="48.20423" lon="4.3747">
        <ele>184.23</ele>
        <time>2021-08-10T15:52:33Z</time>
      </trkpt>
      <trkpt lat="48.20398" lon="4.37491">
        <ele>186.15</ele>
        <time>2021-08-10T15:52:45Z</time>
      </trkpt>
      <trkpt lat="48.20381" lon="4.37506">
        <ele>187.11</ele>
        <time>2021-08-10T15:52:53Z</time>
      </trkpt>
      <trkpt lat="48.20366" lon="4.37519">
        <ele>187.59</ele>
        <time>2021-08-10T15:53:00Z</time>
      </trkpt>
      <trkpt lat="48.20347" lon="4.37543">
        <ele>187.59</ele>
        <time>2021-08-10T15:53:09Z</time>
      </trkpt>
      <trkpt lat="48.20335" lon="4.37569">
        <ele>187.59</ele>
        <time>2021-08-10T15:53:17Z</time>
      </trkpt>
      <trkpt lat="48.20325" lon="4.37593">
        <ele>186.15</ele>
        <time>2021-08-10T15:53:22Z</time>
      </trkpt>
      <trkpt lat="48.2032" lon="4.37605">
        <ele>185.67</ele>
        <time>2021-08-10T15:53:24Z</time>
      </trkpt>
      <trkpt lat="48.20309" lon="4.37644">
        <ele>184.23</ele>
        <time>2021-08-10T15:53:30Z</time>
      </trkpt>
      <trkpt lat="48.20307" lon="4.37649">
        <ele>183.75</ele>
        <time>2021-08-10T15:53:31Z</time>
      </trkpt>
      <trkpt lat="48.20303" lon="4.37651">
        <ele>183.75</ele>
        <time>2021-08-10T15:53:32Z</time>
      </trkpt>
      <trkpt lat="48.20297" lon="4.37648">
        <ele>183.27</ele>
        <time>2021-08-10T15:53:34Z</time>
      </trkpt>
      <trkpt lat="48.20295" lon="4.37645">
        <ele>183.27</ele>
        <time>2021-08-10T15:53:35Z</time>
      </trkpt>
      <trkpt lat="48.2029" lon="4.37631">
        <ele>183.27</ele>
        <time>2021-08-10T15:53:40Z</time>
      </trkpt>
      <trkpt lat="48.20289" lon="4.37626">
        <ele>185.19</ele>
        <time>2021-08-10T15:53:42Z</time>
      </trkpt>
      <trkpt lat="48.20281" lon="4.37602">
        <ele>187.11</ele>
        <time>2021-08-10T15:53:49Z</time>
      </trkpt>
      <trkpt lat="48.20268" lon="4.37568">
        <ele>188.08</ele>
        <time>2021-08-10T15:53:59Z</time>
      </trkpt>
      <trkpt lat="48.20254" lon="4.37532">
        <ele>189.04</ele>
        <time>2021-08-10T15:54:09Z</time>
      </trkpt>
      <trkpt lat="48.20236" lon="4.3749">
        <ele>190</ele>
        <time>2021-08-10T15:54:19Z</time>
      </trkpt>
      <trkpt lat="48.20219" lon="4.37444">
        <ele>190.96</ele>
        <time>2021-08-10T15:54:29Z</time>
      </trkpt>
      <trkpt lat="48.20205" lon="4.37407">
        <ele>191.44</ele>
        <time>2021-08-10T15:54:37Z</time>
      </trkpt>
      <trkpt lat="48.20185" lon="4.37372">
        <ele>191.44</ele>
        <time>2021-08-10T15:54:45Z</time>
      </trkpt>
      <trkpt lat="48.20182" lon="4.37369">
        <ele>191.44</ele>
        <time>2021-08-10T15:54:46Z</time>
      </trkpt>
      <trkpt lat="48.20154" lon="4.37334">
        <ele>190.48</ele>
        <time>2021-08-10T15:54:53Z</time>
      </trkpt>
      <trkpt lat="48.20151" lon="4.37329">
        <ele>190</ele>
        <time>2021-08-10T15:54:54Z</time>
      </trkpt>
      <trkpt lat="48.20139" lon="4.37309">
        <ele>189.52</ele>
        <time>2021-08-10T15:54:57Z</time>
      </trkpt>
      <trkpt lat="48.20136" lon="4.37304">
        <ele>189.52</ele>
        <time>2021-08-10T15:54:58Z</time>
      </trkpt>
      <trkpt lat="48.20134" lon="4.37296">
        <ele>189.52</ele>
        <time>2021-08-10T15:54:59Z</time>
      </trkpt>
      <trkpt lat="48.20118" lon="4.37254">
        <ele>189.04</ele>
        <time>2021-08-10T15:55:06Z</time>
      </trkpt>
      <trkpt lat="48.20096" lon="4.37215">
        <ele>188.08</ele>
        <time>2021-08-10T15:55:14Z</time>
      </trkpt>
      <trkpt lat="48.20077" lon="4.37177">
        <ele>188.08</ele>
        <time>2021-08-10T15:55:22Z</time>
      </trkpt>
      <trkpt lat="48.20059" lon="4.37141">
        <ele>187.59</ele>
        <time>2021-08-10T15:55:30Z</time>
      </trkpt>
      <trkpt lat="48.20034" lon="4.3709">
        <ele>187.59</ele>
        <time>2021-08-10T15:55:40Z</time>
      </trkpt>
      <trkpt lat="48.20018" lon="4.37052">
        <ele>186.63</ele>
        <time>2021-08-10T15:55:47Z</time>
      </trkpt>
      <trkpt lat="48.2" lon="4.37014">
        <ele>186.63</ele>
        <time>2021-08-10T15:55:55Z</time>
      </trkpt>
      <trkpt lat="48.19985" lon="4.36983">
        <ele>187.11</ele>
        <time>2021-08-10T15:56:02Z</time>
      </trkpt>
      <trkpt lat="48.19972" lon="4.36959">
        <ele>186.63</ele>
        <time>2021-08-10T15:56:07Z</time>
      </trkpt>
      <trkpt lat="48.1995" lon="4.36919">
        <ele>186.63</ele>
        <time>2021-08-10T15:56:15Z</time>
      </trkpt>
      <trkpt lat="48.19937" lon="4.36896">
        <ele>186.63</ele>
        <time>2021-08-10T15:56:20Z</time>
      </trkpt>
      <trkpt lat="48.19913" lon="4.3685">
        <ele>186.15</ele>
        <time>2021-08-10T15:56:28Z</time>
      </trkpt>
      <trkpt lat="48.19897" lon="4.36818">
        <ele>186.15</ele>
        <time>2021-08-10T15:56:35Z</time>
      </trkpt>
      <trkpt lat="48.19891" lon="4.36801">
        <ele>187.59</ele>
        <time>2021-08-10T15:56:39Z</time>
      </trkpt>
      <trkpt lat="48.19884" lon="4.36777">
        <ele>187.59</ele>
        <time>2021-08-10T15:56:45Z</time>
      </trkpt>
      <trkpt lat="48.19874" lon="4.36746">
        <ele>188.08</ele>
        <time>2021-08-10T15:56:53Z</time>
      </trkpt>
      <trkpt lat="48.19863" lon="4.36725">
        <ele>189.04</ele>
        <time>2021-08-10T15:56:58Z</time>
      </trkpt>
      <trkpt lat="48.1985" lon="4.36697">
        <ele>189.04</ele>
        <time>2021-08-10T15:57:05Z</time>
      </trkpt>
      <trkpt lat="48.1984" lon="4.36672">
        <ele>189.04</ele>
        <time>2021-08-10T15:57:11Z</time>
      </trkpt>
      <trkpt lat="48.19828" lon="4.36642">
        <ele>189.04</ele>
        <time>2021-08-10T15:57:19Z</time>
      </trkpt>
      <trkpt lat="48.19816" lon="4.36617">
        <ele>190</ele>
        <time>2021-08-10T15:57:26Z</time>
      </trkpt>
      <trkpt lat="48.19797" lon="4.36589">
        <ele>190</ele>
        <time>2021-08-10T15:57:34Z</time>
      </trkpt>
      <trkpt lat="48.1978" lon="4.36564">
        <ele>190.48</ele>
        <time>2021-08-10T15:57:41Z</time>
      </trkpt>
      <trkpt lat="48.19765" lon="4.36547">
        <ele>190.96</ele>
        <time>2021-08-10T15:57:48Z</time>
      </trkpt>
      <trkpt lat="48.19752" lon="4.36524">
        <ele>190.96</ele>
        <time>2021-08-10T15:57:54Z</time>
      </trkpt>
      <trkpt lat="48.19741" lon="4.36505">
        <ele>189.52</ele>
        <time>2021-08-10T15:57:59Z</time>
      </trkpt>
      <trkpt lat="48.19722" lon="4.36477">
        <ele>190</ele>
        <time>2021-08-10T15:58:06Z</time>
      </trkpt>
      <trkpt lat="48.19704" lon="4.36448">
        <ele>190</ele>
        <time>2021-08-10T15:58:13Z</time>
      </trkpt>
      <trkpt lat="48.19688" lon="4.36424">
        <ele>190</ele>
        <time>2021-08-10T15:58:19Z</time>
      </trkpt>
      <trkpt lat="48.19664" lon="4.36384">
        <ele>190</ele>
        <time>2021-08-10T15:58:27Z</time>
      </trkpt>
      <trkpt lat="48.19647" lon="4.36357">
        <ele>190</ele>
        <time>2021-08-10T15:58:33Z</time>
      </trkpt>
      <trkpt lat="48.1963" lon="4.36327">
        <ele>190</ele>
        <time>2021-08-10T15:58:39Z</time>
      </trkpt>
      <trkpt lat="48.19619" lon="4.36308">
        <ele>190.48</ele>
        <time>2021-08-10T15:58:43Z</time>
      </trkpt>
      <trkpt lat="48.19593" lon="4.36262">
        <ele>190.48</ele>
        <time>2021-08-10T15:58:52Z</time>
      </trkpt>
      <trkpt lat="48.19572" lon="4.36231">
        <ele>190.48</ele>
        <time>2021-08-10T15:58:59Z</time>
      </trkpt>
      <trkpt lat="48.19546" lon="4.36203">
        <ele>190.48</ele>
        <time>2021-08-10T15:59:06Z</time>
      </trkpt>
      <trkpt lat="48.19529" lon="4.36186">
        <ele>190.48</ele>
        <time>2021-08-10T15:59:10Z</time>
      </trkpt>
      <trkpt lat="48.19508" lon="4.36164">
        <ele>190</ele>
        <time>2021-08-10T15:59:15Z</time>
      </trkpt>
      <trkpt lat="48.19474" lon="4.36134">
        <ele>190</ele>
        <time>2021-08-10T15:59:23Z</time>
      </trkpt>
      <trkpt lat="48.19453" lon="4.36117">
        <ele>189.04</ele>
        <time>2021-08-10T15:59:29Z</time>
      </trkpt>
      <trkpt lat="48.1943" lon="4.36089">
        <ele>189.04</ele>
        <time>2021-08-10T15:59:36Z</time>
      </trkpt>
      <trkpt lat="48.19415" lon="4.36065">
        <ele>189.04</ele>
        <time>2021-08-10T15:59:42Z</time>
      </trkpt>
      <trkpt lat="48.19399" lon="4.3604">
        <ele>188.56</ele>
        <time>2021-08-10T15:59:47Z</time>
      </trkpt>
      <trkpt lat="48.19383" lon="4.36012">
        <ele>188.56</ele>
        <time>2021-08-10T15:59:53Z</time>
      </trkpt>
      <trkpt lat="48.19365" lon="4.35992">
        <ele>188.56</ele>
        <time>2021-08-10T15:59:59Z</time>
      </trkpt>
      <trkpt lat="48.19358" lon="4.35987">
        <ele>188.56</ele>
        <time>2021-08-10T16:00:01Z</time>
      </trkpt>
      <trkpt lat="48.19329" lon="4.35966">
        <ele>189.04</ele>
        <time>2021-08-10T16:00:07Z</time>
      </trkpt>
      <trkpt lat="48.19319" lon="4.35957">
        <ele>189.04</ele>
        <time>2021-08-10T16:00:09Z</time>
      </trkpt>
      <trkpt lat="48.19293" lon="4.35939">
        <ele>188.08</ele>
        <time>2021-08-10T16:00:14Z</time>
      </trkpt>
      <trkpt lat="48.19271" lon="4.35915">
        <ele>188.56</ele>
        <time>2021-08-10T16:00:20Z</time>
      </trkpt>
      <trkpt lat="48.19252" lon="4.35892">
        <ele>188.56</ele>
        <time>2021-08-10T16:00:26Z</time>
      </trkpt>
      <trkpt lat="48.19236" lon="4.35869">
        <ele>188.56</ele>
        <time>2021-08-10T16:00:31Z</time>
      </trkpt>
      <trkpt lat="48.19219" lon="4.35851">
        <ele>188.56</ele>
        <time>2021-08-10T16:00:37Z</time>
      </trkpt>
      <trkpt lat="48.1921" lon="4.35844">
        <ele>188.56</ele>
        <time>2021-08-10T16:00:42Z</time>
      </trkpt>
      <trkpt lat="48.192" lon="4.35833">
        <ele>188.56</ele>
        <time>2021-08-10T16:00:48Z</time>
      </trkpt>
      <trkpt lat="48.19185" lon="4.35819">
        <ele>188.56</ele>
        <time>2021-08-10T16:00:55Z</time>
      </trkpt>
      <trkpt lat="48.19173" lon="4.35802">
        <ele>189.04</ele>
        <time>2021-08-10T16:01:01Z</time>
      </trkpt>
      <trkpt lat="48.19156" lon="4.35782">
        <ele>189.04</ele>
        <time>2021-08-10T16:01:07Z</time>
      </trkpt>
      <trkpt lat="48.19136" lon="4.35758">
        <ele>189.04</ele>
        <time>2021-08-10T16:01:14Z</time>
      </trkpt>
      <trkpt lat="48.19124" lon="4.35741">
        <ele>189.04</ele>
        <time>2021-08-10T16:01:20Z</time>
      </trkpt>
      <trkpt lat="48.19103" lon="4.35717">
        <ele>189.04</ele>
        <time>2021-08-10T16:01:27Z</time>
      </trkpt>
      <trkpt lat="48.19084" lon="4.35696">
        <ele>189.04</ele>
        <time>2021-08-10T16:01:33Z</time>
      </trkpt>
      <trkpt lat="48.19081" lon="4.35691">
        <ele>189.04</ele>
        <time>2021-08-10T16:01:35Z</time>
      </trkpt>
      <trkpt lat="48.19079" lon="4.35687">
        <ele>189.04</ele>
        <time>2021-08-10T16:01:37Z</time>
      </trkpt>
      <trkpt lat="48.19065" lon="4.35673">
        <ele>189.52</ele>
        <time>2021-08-10T16:01:44Z</time>
      </trkpt>
      <trkpt lat="48.19059" lon="4.35667">
        <ele>189.52</ele>
        <time>2021-08-10T16:01:50Z</time>
      </trkpt>
      <trkpt lat="48.19051" lon="4.35661">
        <ele>189.52</ele>
        <time>2021-08-10T16:01:57Z</time>
      </trkpt>
      <trkpt lat="48.19047" lon="4.35658">
        <ele>189.52</ele>
        <time>2021-08-10T16:02:04Z</time>
      </trkpt>
      <trkpt lat="48.19042" lon="4.35658">
        <ele>189.52</ele>
        <time>2021-08-10T16:02:15Z</time>
      </trkpt>
      <trkpt lat="48.19042" lon="4.35653">
        <ele>190</ele>
        <time>2021-08-10T16:02:26Z</time>
      </trkpt>
      <trkpt lat="48.19038" lon="4.35647">
        <ele>190</ele>
        <time>2021-08-10T16:02:34Z</time>
      </trkpt>
      <trkpt lat="48.19034" lon="4.35647">
        <ele>190</ele>
        <time>2021-08-10T16:02:44Z</time>
      </trkpt>
      <trkpt lat="48.19033" lon="4.35646">
        <ele>190</ele>
        <time>2021-08-10T16:02:54Z</time>
      </trkpt>
      <trkpt lat="48.19029" lon="4.3564">
        <ele>190</ele>
        <time>2021-08-10T16:03:01Z</time>
      </trkpt>
      <trkpt lat="48.1902" lon="4.35631">
        <ele>190</ele>
        <time>2021-08-10T16:03:07Z</time>
      </trkpt>
      <trkpt lat="48.19014" lon="4.35625">
        <ele>190</ele>
        <time>2021-08-10T16:03:12Z</time>
      </trkpt>
      <trkpt lat="48.19004" lon="4.35611">
        <ele>191.44</ele>
        <time>2021-08-10T16:03:19Z</time>
      </trkpt>
      <trkpt lat="48.18988" lon="4.35592">
        <ele>191.44</ele>
        <time>2021-08-10T16:03:26Z</time>
      </trkpt>
      <trkpt lat="48.18977" lon="4.3558">
        <ele>191.44</ele>
        <time>2021-08-10T16:03:31Z</time>
      </trkpt>
      <trkpt lat="48.18962" lon="4.35565">
        <ele>191.92</ele>
        <time>2021-08-10T16:03:37Z</time>
      </trkpt>
      <trkpt lat="48.18952" lon="4.35555">
        <ele>191.92</ele>
        <time>2021-08-10T16:03:42Z</time>
      </trkpt>
      <trkpt lat="48.18941" lon="4.35539">
        <ele>191.92</ele>
        <time>2021-08-10T16:03:49Z</time>
      </trkpt>
      <trkpt lat="48.18936" lon="4.35527">
        <ele>192.4</ele>
        <time>2021-08-10T16:03:54Z</time>
      </trkpt>
      <trkpt lat="48.18925" lon="4.35502">
        <ele>192.4</ele>
        <time>2021-08-10T16:04:01Z</time>
      </trkpt>
      <trkpt lat="48.18909" lon="4.35474">
        <ele>192.4</ele>
        <time>2021-08-10T16:04:09Z</time>
      </trkpt>
      <trkpt lat="48.18887" lon="4.35447">
        <ele>192.4</ele>
        <time>2021-08-10T16:04:18Z</time>
      </trkpt>
      <trkpt lat="48.18865" lon="4.35421">
        <ele>192.4</ele>
        <time>2021-08-10T16:04:27Z</time>
      </trkpt>
      <trkpt lat="48.18843" lon="4.35388">
        <ele>192.4</ele>
        <time>2021-08-10T16:04:36Z</time>
      </trkpt>
      <trkpt lat="48.18839" lon="4.35362">
        <ele>192.4</ele>
        <time>2021-08-10T16:04:43Z</time>
      </trkpt>
      <trkpt lat="48.1884" lon="4.35339">
        <ele>193.84</ele>
        <time>2021-08-10T16:04:50Z</time>
      </trkpt>
      <trkpt lat="48.18838" lon="4.35335">
        <ele>193.84</ele>
        <time>2021-08-10T16:04:51Z</time>
      </trkpt>
      <trkpt lat="48.18837" lon="4.35331">
        <ele>193.84</ele>
        <time>2021-08-10T16:04:52Z</time>
      </trkpt>
      <trkpt lat="48.18834" lon="4.35327">
        <ele>193.84</ele>
        <time>2021-08-10T16:04:53Z</time>
      </trkpt>
      <trkpt lat="48.18831" lon="4.35324">
        <ele>193.84</ele>
        <time>2021-08-10T16:04:54Z</time>
      </trkpt>
      <trkpt lat="48.18828" lon="4.35321">
        <ele>193.84</ele>
        <time>2021-08-10T16:04:55Z</time>
      </trkpt>
      <trkpt lat="48.188" lon="4.35288">
        <ele>193.84</ele>
        <time>2021-08-10T16:05:03Z</time>
      </trkpt>
      <trkpt lat="48.18776" lon="4.35257">
        <ele>193.84</ele>
        <time>2021-08-10T16:05:11Z</time>
      </trkpt>
      <trkpt lat="48.18744" lon="4.35218">
        <ele>194.32</ele>
        <time>2021-08-10T16:05:21Z</time>
      </trkpt>
      <trkpt lat="48.18716" lon="4.35186">
        <ele>194.32</ele>
        <time>2021-08-10T16:05:29Z</time>
      </trkpt>
      <trkpt lat="48.18713" lon="4.35182">
        <ele>194.32</ele>
        <time>2021-08-10T16:05:30Z</time>
      </trkpt>
      <trkpt lat="48.18707" lon="4.35174">
        <ele>192.88</ele>
        <time>2021-08-10T16:05:32Z</time>
      </trkpt>
      <trkpt lat="48.18681" lon="4.35142">
        <ele>192.88</ele>
        <time>2021-08-10T16:05:41Z</time>
      </trkpt>
      <trkpt lat="48.18657" lon="4.35109">
        <ele>192.88</ele>
        <time>2021-08-10T16:05:49Z</time>
      </trkpt>
      <trkpt lat="48.18648" lon="4.35097">
        <ele>192.4</ele>
        <time>2021-08-10T16:05:52Z</time>
      </trkpt>
      <trkpt lat="48.18637" lon="4.35087">
        <ele>192.4</ele>
        <time>2021-08-10T16:05:55Z</time>
      </trkpt>
      <trkpt lat="48.18614" lon="4.35057">
        <ele>192.4</ele>
        <time>2021-08-10T16:06:02Z</time>
      </trkpt>
      <trkpt lat="48.18586" lon="4.35018">
        <ele>192.4</ele>
        <time>2021-08-10T16:06:11Z</time>
      </trkpt>
      <trkpt lat="48.1856" lon="4.34984">
        <ele>192.4</ele>
        <time>2021-08-10T16:06:19Z</time>
      </trkpt>
      <trkpt lat="48.1853" lon="4.34944">
        <ele>192.4</ele>
        <time>2021-08-10T16:06:28Z</time>
      </trkpt>
      <trkpt lat="48.18523" lon="4.34932">
        <ele>192.4</ele>
        <time>2021-08-10T16:06:30Z</time>
      </trkpt>
      <trkpt lat="48.18511" lon="4.349">
        <ele>193.36</ele>
        <time>2021-08-10T16:06:36Z</time>
      </trkpt>
      <trkpt lat="48.18496" lon="4.34854">
        <ele>193.36</ele>
        <time>2021-08-10T16:06:45Z</time>
      </trkpt>
      <trkpt lat="48.18487" lon="4.34825">
        <ele>193.84</ele>
        <time>2021-08-10T16:06:51Z</time>
      </trkpt>
      <trkpt lat="48.1849" lon="4.34791">
        <ele>194.32</ele>
        <time>2021-08-10T16:06:58Z</time>
      </trkpt>
      <trkpt lat="48.1848" lon="4.34763">
        <ele>194.32</ele>
        <time>2021-08-10T16:07:04Z</time>
      </trkpt>
      <trkpt lat="48.18478" lon="4.3476">
        <ele>194.32</ele>
        <time>2021-08-10T16:07:05Z</time>
      </trkpt>
      <trkpt lat="48.18475" lon="4.34759">
        <ele>194.32</ele>
        <time>2021-08-10T16:07:06Z</time>
      </trkpt>
      <trkpt lat="48.18472" lon="4.3476">
        <ele>194.32</ele>
        <time>2021-08-10T16:07:07Z</time>
      </trkpt>
      <trkpt lat="48.1847" lon="4.34761">
        <ele>194.32</ele>
        <time>2021-08-10T16:07:08Z</time>
      </trkpt>
      <trkpt lat="48.18468" lon="4.34764">
        <ele>194.32</ele>
        <time>2021-08-10T16:07:09Z</time>
      </trkpt>
      <trkpt lat="48.18466" lon="4.34766">
        <ele>194.32</ele>
        <time>2021-08-10T16:07:10Z</time>
      </trkpt>
      <trkpt lat="48.18464" lon="4.34768">
        <ele>194.32</ele>
        <time>2021-08-10T16:07:11Z</time>
      </trkpt>
      <trkpt lat="48.18452" lon="4.34784">
        <ele>194.32</ele>
        <time>2021-08-10T16:07:17Z</time>
      </trkpt>
      <trkpt lat="48.18443" lon="4.34794">
        <ele>192.4</ele>
        <time>2021-08-10T16:07:22Z</time>
      </trkpt>
      <trkpt lat="48.18443" lon="4.34797">
        <ele>192.4</ele>
        <time>2021-08-10T16:07:23Z</time>
      </trkpt>
      <trkpt lat="48.18444" lon="4.34798">
        <ele>192.4</ele>
        <time>2021-08-10T16:07:24Z</time>
      </trkpt>
      <trkpt lat="48.18445" lon="4.34798">
        <ele>192.4</ele>
        <time>2021-08-10T16:07:25Z</time>
      </trkpt>
      <trkpt lat="48.18446" lon="4.34796">
        <ele>192.4</ele>
        <time>2021-08-10T16:07:26Z</time>
      </trkpt>
      <trkpt lat="48.18447" lon="4.34794">
        <ele>192.4</ele>
        <time>2021-08-10T16:07:27Z</time>
      </trkpt>
      <trkpt lat="48.18448" lon="4.34792">
        <ele>192.4</ele>
        <time>2021-08-10T16:07:28Z</time>
      </trkpt>
      <trkpt lat="48.18457" lon="4.34778">
        <ele>192.4</ele>
        <time>2021-08-10T16:07:35Z</time>
      </trkpt>
      <trkpt lat="48.18466" lon="4.34765">
        <ele>193.84</ele>
        <time>2021-08-10T16:07:41Z</time>
      </trkpt>
      <trkpt lat="48.18468" lon="4.34763">
        <ele>193.84</ele>
        <time>2021-08-10T16:07:42Z</time>
      </trkpt>
      <trkpt lat="48.18469" lon="4.34762">
        <ele>193.84</ele>
        <time>2021-08-10T16:07:43Z</time>
      </trkpt>
      <trkpt lat="48.18471" lon="4.34762">
        <ele>193.84</ele>
        <time>2021-08-10T16:07:44Z</time>
      </trkpt>
      <trkpt lat="48.18474" lon="4.34761">
        <ele>193.84</ele>
        <time>2021-08-10T16:07:45Z</time>
      </trkpt>
      <trkpt lat="48.18476" lon="4.34761">
        <ele>193.84</ele>
        <time>2021-08-10T16:07:46Z</time>
      </trkpt>
      <trkpt lat="48.18479" lon="4.34761">
        <ele>193.84</ele>
        <time>2021-08-10T16:07:47Z</time>
      </trkpt>
      <trkpt lat="48.18481" lon="4.34764">
        <ele>193.84</ele>
        <time>2021-08-10T16:07:48Z</time>
      </trkpt>
      <trkpt lat="48.18482" lon="4.34767">
        <ele>193.84</ele>
        <time>2021-08-10T16:07:49Z</time>
      </trkpt>
      <trkpt lat="48.18489" lon="4.34787">
        <ele>194.32</ele>
        <time>2021-08-10T16:07:56Z</time>
      </trkpt>
      <trkpt lat="48.18492" lon="4.34791">
        <ele>194.32</ele>
        <time>2021-08-10T16:07:58Z</time>
      </trkpt>
      <trkpt lat="48.18493" lon="4.3479">
        <ele>194.32</ele>
        <time>2021-08-10T16:07:59Z</time>
      </trkpt>
      <trkpt lat="48.18493" lon="4.34787">
        <ele>194.32</ele>
        <time>2021-08-10T16:08:00Z</time>
      </trkpt>
      <trkpt lat="48.18483" lon="4.34764">
        <ele>193.84</ele>
        <time>2021-08-10T16:08:07Z</time>
      </trkpt>
      <trkpt lat="48.18482" lon="4.34756">
        <ele>193.84</ele>
        <time>2021-08-10T16:08:09Z</time>
      </trkpt>
      <trkpt lat="48.18484" lon="4.34753">
        <ele>193.84</ele>
        <time>2021-08-10T16:08:10Z</time>
      </trkpt>
      <trkpt lat="48.18489" lon="4.34748">
        <ele>192.88</ele>
        <time>2021-08-10T16:08:12Z</time>
      </trkpt>
      <trkpt lat="48.18493" lon="4.34742">
        <ele>192.4</ele>
        <time>2021-08-10T16:08:15Z</time>
      </trkpt>
      <trkpt lat="48.18493" lon="4.34739">
        <ele>192.4</ele>
        <time>2021-08-10T16:08:16Z</time>
      </trkpt>
      <trkpt lat="48.18493" lon="4.34736">
        <ele>191.92</ele>
        <time>2021-08-10T16:08:17Z</time>
      </trkpt>
      <trkpt lat="48.18492" lon="4.34733">
        <ele>191.92</ele>
        <time>2021-08-10T16:08:18Z</time>
      </trkpt>
      <trkpt lat="48.1849" lon="4.34728">
        <ele>191.44</ele>
        <time>2021-08-10T16:08:19Z</time>
      </trkpt>
      <trkpt lat="48.18488" lon="4.34723">
        <ele>191.44</ele>
        <time>2021-08-10T16:08:20Z</time>
      </trkpt>
      <trkpt lat="48.18472" lon="4.34678">
        <ele>189.04</ele>
        <time>2021-08-10T16:08:27Z</time>
      </trkpt>
      <trkpt lat="48.18463" lon="4.34652">
        <ele>188.08</ele>
        <time>2021-08-10T16:08:30Z</time>
      </trkpt>
      <trkpt lat="48.18454" lon="4.34628">
        <ele>186.15</ele>
        <time>2021-08-10T16:08:33Z</time>
      </trkpt>
      <trkpt lat="48.18448" lon="4.34622">
        <ele>186.15</ele>
        <time>2021-08-10T16:08:34Z</time>
      </trkpt>
      <trkpt lat="48.18443" lon="4.3462">
        <ele>186.15</ele>
        <time>2021-08-10T16:08:35Z</time>
      </trkpt>
      <trkpt lat="48.18437" lon="4.34619">
        <ele>186.15</ele>
        <time>2021-08-10T16:08:36Z</time>
      </trkpt>
      <trkpt lat="48.1843" lon="4.34618">
        <ele>186.15</ele>
        <time>2021-08-10T16:08:37Z</time>
      </trkpt>
      <trkpt lat="48.18425" lon="4.34618">
        <ele>186.15</ele>
        <time>2021-08-10T16:08:38Z</time>
      </trkpt>
      <trkpt lat="48.18377" lon="4.34629">
        <ele>185.19</ele>
        <time>2021-08-10T16:08:46Z</time>
      </trkpt>
      <trkpt lat="48.18348" lon="4.3465">
        <ele>183.75</ele>
        <time>2021-08-10T16:08:51Z</time>
      </trkpt>
      <trkpt lat="48.18304" lon="4.34701">
        <ele>181.83</ele>
        <time>2021-08-10T16:08:59Z</time>
      </trkpt>
      <trkpt lat="48.18289" lon="4.34716">
        <ele>180.87</ele>
        <time>2021-08-10T16:09:02Z</time>
      </trkpt>
      <trkpt lat="48.18285" lon="4.34716">
        <ele>180.87</ele>
        <time>2021-08-10T16:09:03Z</time>
      </trkpt>
      <trkpt lat="48.18281" lon="4.34716">
        <ele>180.87</ele>
        <time>2021-08-10T16:09:04Z</time>
      </trkpt>
      <trkpt lat="48.18246" lon="4.34708">
        <ele>178.46</ele>
        <time>2021-08-10T16:09:11Z</time>
      </trkpt>
      <trkpt lat="48.18232" lon="4.34703">
        <ele>177.98</ele>
        <time>2021-08-10T16:09:14Z</time>
      </trkpt>
      <trkpt lat="48.18228" lon="4.34702">
        <ele>177.98</ele>
        <time>2021-08-10T16:09:15Z</time>
      </trkpt>
      <trkpt lat="48.18224" lon="4.34703">
        <ele>177.5</ele>
        <time>2021-08-10T16:09:16Z</time>
      </trkpt>
      <trkpt lat="48.18215" lon="4.34706">
        <ele>177.02</ele>
        <time>2021-08-10T16:09:21Z</time>
      </trkpt>
      <trkpt lat="48.18214" lon="4.34707">
        <ele>177.02</ele>
        <time>2021-08-10T16:09:28Z</time>
      </trkpt>
      <trkpt lat="48.18215" lon="4.34706">
        <ele>177.02</ele>
        <time>2021-08-10T16:09:40Z</time>
      </trkpt>
      <trkpt lat="48.18215" lon="4.34705">
        <ele>177.02</ele>
        <time>2021-08-10T16:09:54Z</time>
      </trkpt>
      <trkpt lat="48.18215" lon="4.34706">
        <ele>177.02</ele>
        <time>2021-08-10T16:10:05Z</time>
      </trkpt>
      <trkpt lat="48.18215" lon="4.34705">
        <ele>176.54</ele>
        <time>2021-08-10T16:10:21Z</time>
      </trkpt>
      <trkpt lat="48.18215" lon="4.34705">
        <ele>176.54</ele>
        <time>2021-08-10T16:10:31Z</time>
      </trkpt>
      <trkpt lat="48.18214" lon="4.34705">
        <ele>176.54</ele>
        <time>2021-08-10T16:10:40Z</time>
      </trkpt>
      <trkpt lat="48.18214" lon="4.34705">
        <ele>176.54</ele>
        <time>2021-08-10T16:10:53Z</time>
      </trkpt>
      <trkpt lat="48.18214" lon="4.34706">
        <ele>176.54</ele>
        <time>2021-08-10T16:11:02Z</time>
      </trkpt>
      <trkpt lat="48.18214" lon="4.34705">
        <ele>176.54</ele>
        <time>2021-08-10T16:11:14Z</time>
      </trkpt>
      <trkpt lat="48.18215" lon="4.34704">
        <ele>176.54</ele>
        <time>2021-08-10T16:11:24Z</time>
      </trkpt>
      <trkpt lat="48.18214" lon="4.34702">
        <ele>176.54</ele>
        <time>2021-08-10T16:11:38Z</time>
      </trkpt>
      <trkpt lat="48.18214" lon="4.34702">
        <ele>176.54</ele>
        <time>2021-08-10T16:11:48Z</time>
      </trkpt>
      <trkpt lat="48.18214" lon="4.34701">
        <ele>176.54</ele>
        <time>2021-08-10T16:12:00Z</time>
      </trkpt>
      <trkpt lat="48.18214" lon="4.34699">
        <ele>176.54</ele>
        <time>2021-08-10T16:12:12Z</time>
      </trkpt>
      <trkpt lat="48.18214" lon="4.347">
        <ele>176.54</ele>
        <time>2021-08-10T16:12:22Z</time>
      </trkpt>
      <trkpt lat="48.18214" lon="4.34701">
        <ele>176.54</ele>
        <time>2021-08-10T16:12:32Z</time>
      </trkpt>
      <trkpt lat="48.18213" lon="4.347">
        <ele>176.54</ele>
        <time>2021-08-10T16:12:44Z</time>
      </trkpt>
      <trkpt lat="48.18215" lon="4.34702">
        <ele>176.54</ele>
        <time>2021-08-10T16:12:51Z</time>
      </trkpt>
      <trkpt lat="48.18216" lon="4.34705">
        <ele>176.54</ele>
        <time>2021-08-10T16:12:59Z</time>
      </trkpt>
      <trkpt lat="48.18217" lon="4.34706">
        <ele>176.54</ele>
        <time>2021-08-10T16:13:07Z</time>
      </trkpt>
      <trkpt lat="48.18217" lon="4.34706">
        <ele>176.54</ele>
        <time>2021-08-10T16:13:10Z</time>
      </trkpt>
      <trkpt lat="48.18225" lon="4.34703">
        <ele>176.54</ele>
        <time>2021-08-10T16:13:16Z</time>
      </trkpt>
      <trkpt lat="48.18235" lon="4.34702">
        <ele>177.5</ele>
        <time>2021-08-10T16:13:22Z</time>
      </trkpt>
      <trkpt lat="48.18244" lon="4.34707">
        <ele>177.98</ele>
        <time>2021-08-10T16:13:26Z</time>
      </trkpt>
      <trkpt lat="48.18246" lon="4.34709">
        <ele>177.5</ele>
        <time>2021-08-10T16:13:27Z</time>
      </trkpt>
      <trkpt lat="48.18247" lon="4.34712">
        <ele>178.46</ele>
        <time>2021-08-10T16:13:28Z</time>
      </trkpt>
      <trkpt lat="48.18249" lon="4.34714">
        <ele>178.46</ele>
        <time>2021-08-10T16:13:29Z</time>
      </trkpt>
      <trkpt lat="48.18252" lon="4.34715">
        <ele>178.94</ele>
        <time>2021-08-10T16:13:30Z</time>
      </trkpt>
      <trkpt lat="48.18254" lon="4.34716">
        <ele>178.94</ele>
        <time>2021-08-10T16:13:31Z</time>
      </trkpt>
      <trkpt lat="48.18256" lon="4.34716">
        <ele>178.94</ele>
        <time>2021-08-10T16:13:32Z</time>
      </trkpt>
      <trkpt lat="48.18259" lon="4.34717">
        <ele>179.42</ele>
        <time>2021-08-10T16:13:33Z</time>
      </trkpt>
      <trkpt lat="48.18279" lon="4.34714">
        <ele>179.9</ele>
        <time>2021-08-10T16:13:41Z</time>
      </trkpt>
      <trkpt lat="48.18285" lon="4.34715">
        <ele>179.9</ele>
        <time>2021-08-10T16:13:44Z</time>
      </trkpt>
      <trkpt lat="48.18286" lon="4.34718">
        <ele>179.9</ele>
        <time>2021-08-10T16:13:45Z</time>
      </trkpt>
      <trkpt lat="48.18286" lon="4.34721">
        <ele>179.9</ele>
        <time>2021-08-10T16:13:46Z</time>
      </trkpt>
      <trkpt lat="48.18284" lon="4.34725">
        <ele>179.9</ele>
        <time>2021-08-10T16:13:47Z</time>
      </trkpt>
      <trkpt lat="48.18282" lon="4.34729">
        <ele>179.9</ele>
        <time>2021-08-10T16:13:48Z</time>
      </trkpt>
      <trkpt lat="48.1827" lon="4.34745">
        <ele>178.94</ele>
        <time>2021-08-10T16:13:52Z</time>
      </trkpt>
      <trkpt lat="48.18242" lon="4.34783">
        <ele>176.06</ele>
        <time>2021-08-10T16:13:59Z</time>
      </trkpt>
      <trkpt lat="48.18219" lon="4.34813">
        <ele>173.66</ele>
        <time>2021-08-10T16:14:03Z</time>
      </trkpt>
      <trkpt lat="48.18193" lon="4.34849">
        <ele>170.77</ele>
        <time>2021-08-10T16:14:07Z</time>
      </trkpt>
      <trkpt lat="48.1816" lon="4.34889">
        <ele>166.45</ele>
        <time>2021-08-10T16:14:11Z</time>
      </trkpt>
      <trkpt lat="48.1813" lon="4.34917">
        <ele>162.6</ele>
        <time>2021-08-10T16:14:14Z</time>
      </trkpt>
      <trkpt lat="48.18097" lon="4.34946">
        <ele>159.24</ele>
        <time>2021-08-10T16:14:17Z</time>
      </trkpt>
      <trkpt lat="48.18053" lon="4.34978">
        <ele>156.83</ele>
        <time>2021-08-10T16:14:21Z</time>
      </trkpt>
      <trkpt lat="48.18003" lon="4.35007">
        <ele>157.31</ele>
        <time>2021-08-10T16:14:26Z</time>
      </trkpt>
      <trkpt lat="48.17958" lon="4.35038">
        <ele>158.27</ele>
        <time>2021-08-10T16:14:32Z</time>
      </trkpt>
      <trkpt lat="48.17927" lon="4.35073">
        <ele>159.72</ele>
        <time>2021-08-10T16:14:38Z</time>
      </trkpt>
      <trkpt lat="48.17899" lon="4.35109">
        <ele>160.68</ele>
        <time>2021-08-10T16:14:46Z</time>
      </trkpt>
      <trkpt lat="48.17881" lon="4.35129">
        <ele>162.12</ele>
        <time>2021-08-10T16:14:54Z</time>
      </trkpt>
      <trkpt lat="48.17869" lon="4.35144">
        <ele>162.6</ele>
        <time>2021-08-10T16:15:01Z</time>
      </trkpt>
      <trkpt lat="48.17853" lon="4.35164">
        <ele>164.04</ele>
        <time>2021-08-10T16:15:10Z</time>
      </trkpt>
      <trkpt lat="48.17831" lon="4.3519">
        <ele>165.48</ele>
        <time>2021-08-10T16:15:21Z</time>
      </trkpt>
      <trkpt lat="48.17811" lon="4.35214">
        <ele>166.93</ele>
        <time>2021-08-10T16:15:31Z</time>
      </trkpt>
      <trkpt lat="48.1779" lon="4.35243">
        <ele>167.89</ele>
        <time>2021-08-10T16:15:42Z</time>
      </trkpt>
      <trkpt lat="48.17773" lon="4.35273">
        <ele>168.85</ele>
        <time>2021-08-10T16:15:51Z</time>
      </trkpt>
      <trkpt lat="48.17761" lon="4.35305">
        <ele>169.81</ele>
        <time>2021-08-10T16:15:59Z</time>
      </trkpt>
      <trkpt lat="48.17745" lon="4.35346">
        <ele>170.29</ele>
        <time>2021-08-10T16:16:08Z</time>
      </trkpt>
      <trkpt lat="48.17727" lon="4.35398">
        <ele>170.29</ele>
        <time>2021-08-10T16:16:18Z</time>
      </trkpt>
      <trkpt lat="48.17717" lon="4.35428">
        <ele>171.25</ele>
        <time>2021-08-10T16:16:23Z</time>
      </trkpt>
      <trkpt lat="48.177" lon="4.35474">
        <ele>171.73</ele>
        <time>2021-08-10T16:16:31Z</time>
      </trkpt>
      <trkpt lat="48.17697" lon="4.3548">
        <ele>171.73</ele>
        <time>2021-08-10T16:16:32Z</time>
      </trkpt>
      <trkpt lat="48.17696" lon="4.35485">
        <ele>171.73</ele>
        <time>2021-08-10T16:16:33Z</time>
      </trkpt>
      <trkpt lat="48.17693" lon="4.35491">
        <ele>171.73</ele>
        <time>2021-08-10T16:16:34Z</time>
      </trkpt>
      <trkpt lat="48.17691" lon="4.35497">
        <ele>171.73</ele>
        <time>2021-08-10T16:16:35Z</time>
      </trkpt>
      <trkpt lat="48.17679" lon="4.35533">
        <ele>171.73</ele>
        <time>2021-08-10T16:16:41Z</time>
      </trkpt>
      <trkpt lat="48.1765" lon="4.3561">
        <ele>172.21</ele>
        <time>2021-08-10T16:16:54Z</time>
      </trkpt>
      <trkpt lat="48.17626" lon="4.3568">
        <ele>173.17</ele>
        <time>2021-08-10T16:17:06Z</time>
      </trkpt>
      <trkpt lat="48.176" lon="4.35757">
        <ele>174.62</ele>
        <time>2021-08-10T16:17:19Z</time>
      </trkpt>
      <trkpt lat="48.17581" lon="4.35827">
        <ele>174.62</ele>
        <time>2021-08-10T16:17:30Z</time>
      </trkpt>
      <trkpt lat="48.17566" lon="4.35896">
        <ele>174.62</ele>
        <time>2021-08-10T16:17:40Z</time>
      </trkpt>
      <trkpt lat="48.17553" lon="4.35976">
        <ele>174.62</ele>
        <time>2021-08-10T16:17:51Z</time>
      </trkpt>
      <trkpt lat="48.17541" lon="4.36047">
        <ele>175.1</ele>
        <time>2021-08-10T16:18:01Z</time>
      </trkpt>
      <trkpt lat="48.17526" lon="4.36125">
        <ele>175.1</ele>
        <time>2021-08-10T16:18:12Z</time>
      </trkpt>
      <trkpt lat="48.17518" lon="4.36181">
        <ele>175.58</ele>
        <time>2021-08-10T16:18:20Z</time>
      </trkpt>
      <trkpt lat="48.17508" lon="4.36238">
        <ele>176.06</ele>
        <time>2021-08-10T16:18:28Z</time>
      </trkpt>
      <trkpt lat="48.17502" lon="4.36267">
        <ele>176.06</ele>
        <time>2021-08-10T16:18:32Z</time>
      </trkpt>
      <trkpt lat="48.175" lon="4.36282">
        <ele>176.06</ele>
        <time>2021-08-10T16:18:34Z</time>
      </trkpt>
      <trkpt lat="48.17499" lon="4.36289">
        <ele>176.06</ele>
        <time>2021-08-10T16:18:35Z</time>
      </trkpt>
      <trkpt lat="48.17497" lon="4.36296">
        <ele>176.06</ele>
        <time>2021-08-10T16:18:36Z</time>
      </trkpt>
      <trkpt lat="48.17492" lon="4.36326">
        <ele>174.62</ele>
        <time>2021-08-10T16:18:40Z</time>
      </trkpt>
      <trkpt lat="48.17489" lon="4.36343">
        <ele>174.14</ele>
        <time>2021-08-10T16:18:42Z</time>
      </trkpt>
      <trkpt lat="48.17487" lon="4.36351">
        <ele>174.14</ele>
        <time>2021-08-10T16:18:43Z</time>
      </trkpt>
      <trkpt lat="48.17462" lon="4.36417">
        <ele>172.69</ele>
        <time>2021-08-10T16:18:51Z</time>
      </trkpt>
      <trkpt lat="48.17434" lon="4.36466">
        <ele>171.73</ele>
        <time>2021-08-10T16:18:58Z</time>
      </trkpt>
      <trkpt lat="48.17424" lon="4.36483">
        <ele>171.73</ele>
        <time>2021-08-10T16:19:01Z</time>
      </trkpt>
      <trkpt lat="48.1741" lon="4.36501">
        <ele>171.73</ele>
        <time>2021-08-10T16:19:04Z</time>
      </trkpt>
      <trkpt lat="48.17402" lon="4.36511">
        <ele>173.17</ele>
        <time>2021-08-10T16:19:06Z</time>
      </trkpt>
      <trkpt lat="48.17389" lon="4.36527">
        <ele>173.17</ele>
        <time>2021-08-10T16:19:09Z</time>
      </trkpt>
      <trkpt lat="48.17377" lon="4.36539">
        <ele>173.17</ele>
        <time>2021-08-10T16:19:12Z</time>
      </trkpt>
      <trkpt lat="48.17336" lon="4.36565">
        <ele>174.62</ele>
        <time>2021-08-10T16:19:22Z</time>
      </trkpt>
      <trkpt lat="48.17312" lon="4.36575">
        <ele>176.06</ele>
        <time>2021-08-10T16:19:30Z</time>
      </trkpt>
      <trkpt lat="48.1729" lon="4.3658">
        <ele>177.02</ele>
        <time>2021-08-10T16:19:38Z</time>
      </trkpt>
      <trkpt lat="48.17266" lon="4.36586">
        <ele>178.94</ele>
        <time>2021-08-10T16:19:47Z</time>
      </trkpt>
      <trkpt lat="48.17238" lon="4.36593">
        <ele>180.38</ele>
        <time>2021-08-10T16:19:58Z</time>
      </trkpt>
      <trkpt lat="48.17205" lon="4.36601">
        <ele>181.83</ele>
        <time>2021-08-10T16:20:11Z</time>
      </trkpt>
      <trkpt lat="48.17183" lon="4.36608">
        <ele>183.27</ele>
        <time>2021-08-10T16:20:20Z</time>
      </trkpt>
      <trkpt lat="48.17158" lon="4.36614">
        <ele>184.71</ele>
        <time>2021-08-10T16:20:29Z</time>
      </trkpt>
      <trkpt lat="48.17136" lon="4.36622">
        <ele>185.67</ele>
        <time>2021-08-10T16:20:37Z</time>
      </trkpt>
      <trkpt lat="48.1711" lon="4.36633">
        <ele>187.11</ele>
        <time>2021-08-10T16:20:46Z</time>
      </trkpt>
      <trkpt lat="48.17078" lon="4.36656">
        <ele>189.04</ele>
        <time>2021-08-10T16:20:58Z</time>
      </trkpt>
      <trkpt lat="48.17042" lon="4.36689">
        <ele>191.44</ele>
        <time>2021-08-10T16:21:12Z</time>
      </trkpt>
      <trkpt lat="48.17018" lon="4.36718">
        <ele>192.88</ele>
        <time>2021-08-10T16:21:22Z</time>
      </trkpt>
      <trkpt lat="48.16994" lon="4.3675">
        <ele>193.84</ele>
        <time>2021-08-10T16:21:32Z</time>
      </trkpt>
      <trkpt lat="48.16967" lon="4.36783">
        <ele>194.8</ele>
        <time>2021-08-10T16:21:42Z</time>
      </trkpt>
      <trkpt lat="48.16932" lon="4.36825">
        <ele>195.77</ele>
        <time>2021-08-10T16:21:54Z</time>
      </trkpt>
      <trkpt lat="48.16901" lon="4.36858">
        <ele>196.25</ele>
        <time>2021-08-10T16:22:04Z</time>
      </trkpt>
      <trkpt lat="48.16855" lon="4.36898">
        <ele>197.69</ele>
        <time>2021-08-10T16:22:18Z</time>
      </trkpt>
      <trkpt lat="48.16824" lon="4.36925">
        <ele>199.13</ele>
        <time>2021-08-10T16:22:28Z</time>
      </trkpt>
      <trkpt lat="48.16799" lon="4.36947">
        <ele>200.09</ele>
        <time>2021-08-10T16:22:36Z</time>
      </trkpt>
      <trkpt lat="48.16785" lon="4.36962">
        <ele>201.05</ele>
        <time>2021-08-10T16:22:42Z</time>
      </trkpt>
      <trkpt lat="48.16759" lon="4.36988">
        <ele>202.98</ele>
        <time>2021-08-10T16:22:53Z</time>
      </trkpt>
      <trkpt lat="48.16734" lon="4.37016">
        <ele>205.38</ele>
        <time>2021-08-10T16:23:05Z</time>
      </trkpt>
      <trkpt lat="48.16715" lon="4.37037">
        <ele>206.82</ele>
        <time>2021-08-10T16:23:14Z</time>
      </trkpt>
      <trkpt lat="48.16693" lon="4.37062">
        <ele>207.78</ele>
        <time>2021-08-10T16:23:25Z</time>
      </trkpt>
      <trkpt lat="48.16674" lon="4.37082">
        <ele>209.22</ele>
        <time>2021-08-10T16:23:34Z</time>
      </trkpt>
      <trkpt lat="48.16657" lon="4.37103">
        <ele>210.67</ele>
        <time>2021-08-10T16:23:43Z</time>
      </trkpt>
      <trkpt lat="48.1664" lon="4.37121">
        <ele>212.11</ele>
        <time>2021-08-10T16:23:52Z</time>
      </trkpt>
      <trkpt lat="48.16629" lon="4.37144">
        <ele>213.07</ele>
        <time>2021-08-10T16:24:00Z</time>
      </trkpt>
      <trkpt lat="48.16623" lon="4.37166">
        <ele>213.55</ele>
        <time>2021-08-10T16:24:07Z</time>
      </trkpt>
      <trkpt lat="48.16616" lon="4.37194">
        <ele>215.47</ele>
        <time>2021-08-10T16:24:15Z</time>
      </trkpt>
      <trkpt lat="48.1661" lon="4.37225">
        <ele>215.47</ele>
        <time>2021-08-10T16:24:22Z</time>
      </trkpt>
      <trkpt lat="48.16595" lon="4.37291">
        <ele>216.91</ele>
        <time>2021-08-10T16:24:34Z</time>
      </trkpt>
      <trkpt lat="48.16583" lon="4.37325">
        <ele>217.88</ele>
        <time>2021-08-10T16:24:41Z</time>
      </trkpt>
      <trkpt lat="48.1657" lon="4.37357">
        <ele>219.8</ele>
        <time>2021-08-10T16:24:49Z</time>
      </trkpt>
      <trkpt lat="48.16552" lon="4.37385">
        <ele>221.24</ele>
        <time>2021-08-10T16:24:58Z</time>
      </trkpt>
      <trkpt lat="48.16539" lon="4.37401">
        <ele>222.2</ele>
        <time>2021-08-10T16:25:06Z</time>
      </trkpt>
      <trkpt lat="48.16538" lon="4.37402">
        <ele>222.68</ele>
        <time>2021-08-10T16:25:11Z</time>
      </trkpt>
      <trkpt lat="48.16537" lon="4.37405">
        <ele>222.68</ele>
        <time>2021-08-10T16:25:28Z</time>
      </trkpt>
      <trkpt lat="48.16536" lon="4.37406">
        <ele>222.68</ele>
        <time>2021-08-10T16:25:29Z</time>
      </trkpt>
      <trkpt lat="48.16535" lon="4.37407">
        <ele>223.16</ele>
        <time>2021-08-10T16:25:30Z</time>
      </trkpt>
      <trkpt lat="48.16534" lon="4.37407">
        <ele>223.16</ele>
        <time>2021-08-10T16:25:31Z</time>
      </trkpt>
      <trkpt lat="48.16532" lon="4.37408">
        <ele>223.16</ele>
        <time>2021-08-10T16:25:32Z</time>
      </trkpt>
      <trkpt lat="48.1653" lon="4.37409">
        <ele>223.16</ele>
        <time>2021-08-10T16:25:33Z</time>
      </trkpt>
      <trkpt lat="48.16518" lon="4.37417">
        <ele>224.12</ele>
        <time>2021-08-10T16:25:41Z</time>
      </trkpt>
      <trkpt lat="48.16516" lon="4.37418">
        <ele>224.12</ele>
        <time>2021-08-10T16:25:42Z</time>
      </trkpt>
      <trkpt lat="48.16515" lon="4.37419">
        <ele>224.12</ele>
        <time>2021-08-10T16:25:43Z</time>
      </trkpt>
      <trkpt lat="48.16513" lon="4.3742">
        <ele>224.12</ele>
        <time>2021-08-10T16:25:44Z</time>
      </trkpt>
      <trkpt lat="48.16511" lon="4.37422">
        <ele>224.12</ele>
        <time>2021-08-10T16:25:45Z</time>
      </trkpt>
      <trkpt lat="48.16509" lon="4.37423">
        <ele>224.61</ele>
        <time>2021-08-10T16:25:46Z</time>
      </trkpt>
      <trkpt lat="48.16508" lon="4.37424">
        <ele>224.61</ele>
        <time>2021-08-10T16:25:47Z</time>
      </trkpt>
      <trkpt lat="48.16506" lon="4.37424">
        <ele>224.61</ele>
        <time>2021-08-10T16:25:48Z</time>
      </trkpt>
      <trkpt lat="48.16504" lon="4.37425">
        <ele>224.61</ele>
        <time>2021-08-10T16:25:49Z</time>
      </trkpt>
      <trkpt lat="48.16503" lon="4.37426">
        <ele>224.61</ele>
        <time>2021-08-10T16:25:50Z</time>
      </trkpt>
      <trkpt lat="48.16501" lon="4.37428">
        <ele>225.09</ele>
        <time>2021-08-10T16:25:51Z</time>
      </trkpt>
      <trkpt lat="48.165" lon="4.37428">
        <ele>225.09</ele>
        <time>2021-08-10T16:25:52Z</time>
      </trkpt>
      <trkpt lat="48.16498" lon="4.37428">
        <ele>225.09</ele>
        <time>2021-08-10T16:25:53Z</time>
      </trkpt>
      <trkpt lat="48.16496" lon="4.37427">
        <ele>225.09</ele>
        <time>2021-08-10T16:25:54Z</time>
      </trkpt>
      <trkpt lat="48.16495" lon="4.37428">
        <ele>225.09</ele>
        <time>2021-08-10T16:25:55Z</time>
      </trkpt>
      <trkpt lat="48.16492" lon="4.37429">
        <ele>225.09</ele>
        <time>2021-08-10T16:25:56Z</time>
      </trkpt>
      <trkpt lat="48.1649" lon="4.3743">
        <ele>225.57</ele>
        <time>2021-08-10T16:25:57Z</time>
      </trkpt>
      <trkpt lat="48.16488" lon="4.37431">
        <ele>225.57</ele>
        <time>2021-08-10T16:25:58Z</time>
      </trkpt>
      <trkpt lat="48.16486" lon="4.37432">
        <ele>225.57</ele>
        <time>2021-08-10T16:25:59Z</time>
      </trkpt>
      <trkpt lat="48.16484" lon="4.37433">
        <ele>226.05</ele>
        <time>2021-08-10T16:26:00Z</time>
      </trkpt>
      <trkpt lat="48.16482" lon="4.37434">
        <ele>226.05</ele>
        <time>2021-08-10T16:26:01Z</time>
      </trkpt>
      <trkpt lat="48.1648" lon="4.37434">
        <ele>226.05</ele>
        <time>2021-08-10T16:26:02Z</time>
      </trkpt>
      <trkpt lat="48.16459" lon="4.37437">
        <ele>227.97</ele>
        <time>2021-08-10T16:26:11Z</time>
      </trkpt>
      <trkpt lat="48.16457" lon="4.37435">
        <ele>227.97</ele>
        <time>2021-08-10T16:26:12Z</time>
      </trkpt>
      <trkpt lat="48.16455" lon="4.37432">
        <ele>227.97</ele>
        <time>2021-08-10T16:26:13Z</time>
      </trkpt>
      <trkpt lat="48.16454" lon="4.3743">
        <ele>227.97</ele>
        <time>2021-08-10T16:26:14Z</time>
      </trkpt>
      <trkpt lat="48.16452" lon="4.37426">
        <ele>227.97</ele>
        <time>2021-08-10T16:26:15Z</time>
      </trkpt>
      <trkpt lat="48.16452" lon="4.37423">
        <ele>227.97</ele>
        <time>2021-08-10T16:26:16Z</time>
      </trkpt>
      <trkpt lat="48.16451" lon="4.37419">
        <ele>227.97</ele>
        <time>2021-08-10T16:26:17Z</time>
      </trkpt>
      <trkpt lat="48.16449" lon="4.3739">
        <ele>228.93</ele>
        <time>2021-08-10T16:26:25Z</time>
      </trkpt>
      <trkpt lat="48.16448" lon="4.37346">
        <ele>229.41</ele>
        <time>2021-08-10T16:26:35Z</time>
      </trkpt>
      <trkpt lat="48.16444" lon="4.37293">
        <ele>229.41</ele>
        <time>2021-08-10T16:26:45Z</time>
      </trkpt>
      <trkpt lat="48.16438" lon="4.37253">
        <ele>229.41</ele>
        <time>2021-08-10T16:26:53Z</time>
      </trkpt>
      <trkpt lat="48.16424" lon="4.372">
        <ele>229.89</ele>
        <time>2021-08-10T16:27:03Z</time>
      </trkpt>
      <trkpt lat="48.16404" lon="4.37165">
        <ele>229.89</ele>
        <time>2021-08-10T16:27:11Z</time>
      </trkpt>
      <trkpt lat="48.164" lon="4.37164">
        <ele>228.45</ele>
        <time>2021-08-10T16:27:12Z</time>
      </trkpt>
      <trkpt lat="48.16396" lon="4.37164">
        <ele>228.45</ele>
        <time>2021-08-10T16:27:13Z</time>
      </trkpt>
      <trkpt lat="48.16367" lon="4.37168">
        <ele>229.89</ele>
        <time>2021-08-10T16:27:20Z</time>
      </trkpt>
      <trkpt lat="48.16354" lon="4.3717">
        <ele>229.89</ele>
        <time>2021-08-10T16:27:23Z</time>
      </trkpt>
      <trkpt lat="48.16317" lon="4.37178">
        <ele>229.89</ele>
        <time>2021-08-10T16:27:30Z</time>
      </trkpt>
      <trkpt lat="48.16304" lon="4.3718">
        <ele>228.45</ele>
        <time>2021-08-10T16:27:32Z</time>
      </trkpt>
      <trkpt lat="48.16258" lon="4.37183">
        <ele>225.57</ele>
        <time>2021-08-10T16:27:38Z</time>
      </trkpt>
      <trkpt lat="48.16222" lon="4.37186">
        <ele>222.68</ele>
        <time>2021-08-10T16:27:42Z</time>
      </trkpt>
      <trkpt lat="48.16181" lon="4.37188">
        <ele>219.32</ele>
        <time>2021-08-10T16:27:46Z</time>
      </trkpt>
      <trkpt lat="48.16126" lon="4.37191">
        <ele>215.95</ele>
        <time>2021-08-10T16:27:51Z</time>
      </trkpt>
      <trkpt lat="48.16081" lon="4.37188">
        <ele>212.59</ele>
        <time>2021-08-10T16:27:55Z</time>
      </trkpt>
      <trkpt lat="48.16033" lon="4.37179">
        <ele>209.22</ele>
        <time>2021-08-10T16:27:59Z</time>
      </trkpt>
      <trkpt lat="48.15983" lon="4.37164">
        <ele>205.86</ele>
        <time>2021-08-10T16:28:03Z</time>
      </trkpt>
      <trkpt lat="48.15959" lon="4.37153">
        <ele>204.42</ele>
        <time>2021-08-10T16:28:05Z</time>
      </trkpt>
      <trkpt lat="48.15948" lon="4.37146">
        <ele>203.94</ele>
        <time>2021-08-10T16:28:06Z</time>
      </trkpt>
      <trkpt lat="48.15938" lon="4.37137">
        <ele>202.98</ele>
        <time>2021-08-10T16:28:07Z</time>
      </trkpt>
      <trkpt lat="48.15899" lon="4.37099">
        <ele>200.57</ele>
        <time>2021-08-10T16:28:11Z</time>
      </trkpt>
      <trkpt lat="48.15888" lon="4.37092">
        <ele>199.61</ele>
        <time>2021-08-10T16:28:12Z</time>
      </trkpt>
      <trkpt lat="48.15878" lon="4.37086">
        <ele>199.61</ele>
        <time>2021-08-10T16:28:13Z</time>
      </trkpt>
      <trkpt lat="48.15866" lon="4.37084">
        <ele>198.65</ele>
        <time>2021-08-10T16:28:14Z</time>
      </trkpt>
      <trkpt lat="48.15855" lon="4.37085">
        <ele>198.17</ele>
        <time>2021-08-10T16:28:15Z</time>
      </trkpt>
      <trkpt lat="48.15844" lon="4.37088">
        <ele>197.69</ele>
        <time>2021-08-10T16:28:16Z</time>
      </trkpt>
      <trkpt lat="48.15833" lon="4.37093">
        <ele>197.21</ele>
        <time>2021-08-10T16:28:17Z</time>
      </trkpt>
      <trkpt lat="48.15789" lon="4.37113">
        <ele>195.28</ele>
        <time>2021-08-10T16:28:21Z</time>
      </trkpt>
      <trkpt lat="48.15718" lon="4.37143">
        <ele>191.92</ele>
        <time>2021-08-10T16:28:28Z</time>
      </trkpt>
      <trkpt lat="48.1568" lon="4.37169">
        <ele>189.52</ele>
        <time>2021-08-10T16:28:32Z</time>
      </trkpt>
      <trkpt lat="48.15629" lon="4.37202">
        <ele>186.15</ele>
        <time>2021-08-10T16:28:37Z</time>
      </trkpt>
      <trkpt lat="48.15567" lon="4.37247">
        <ele>183.75</ele>
        <time>2021-08-10T16:28:43Z</time>
      </trkpt>
      <trkpt lat="48.15497" lon="4.37299">
        <ele>181.83</ele>
        <time>2021-08-10T16:28:50Z</time>
      </trkpt>
      <trkpt lat="48.15487" lon="4.37302">
        <ele>181.83</ele>
        <time>2021-08-10T16:28:51Z</time>
      </trkpt>
      <trkpt lat="48.15477" lon="4.37304">
        <ele>181.83</ele>
        <time>2021-08-10T16:28:52Z</time>
      </trkpt>
      <trkpt lat="48.15433" lon="4.37303">
        <ele>183.27</ele>
        <time>2021-08-10T16:28:57Z</time>
      </trkpt>
      <trkpt lat="48.15404" lon="4.373">
        <ele>185.67</ele>
        <time>2021-08-10T16:29:02Z</time>
      </trkpt>
      <trkpt lat="48.1538" lon="4.37298">
        <ele>187.59</ele>
        <time>2021-08-10T16:29:09Z</time>
      </trkpt>
      <trkpt lat="48.15354" lon="4.37296">
        <ele>188.56</ele>
        <time>2021-08-10T16:29:19Z</time>
      </trkpt>
      <trkpt lat="48.15331" lon="4.37294">
        <ele>190.48</ele>
        <time>2021-08-10T16:29:29Z</time>
      </trkpt>
      <trkpt lat="48.15304" lon="4.37291">
        <ele>191.92</ele>
        <time>2021-08-10T16:29:40Z</time>
      </trkpt>
      <trkpt lat="48.15278" lon="4.37289">
        <ele>193.36</ele>
        <time>2021-08-10T16:29:51Z</time>
      </trkpt>
      <trkpt lat="48.15254" lon="4.37287">
        <ele>194.8</ele>
        <time>2021-08-10T16:30:01Z</time>
      </trkpt>
      <trkpt lat="48.15225" lon="4.37284">
        <ele>196.73</ele>
        <time>2021-08-10T16:30:13Z</time>
      </trkpt>
      <trkpt lat="48.15198" lon="4.37282">
        <ele>197.69</ele>
        <time>2021-08-10T16:30:24Z</time>
      </trkpt>
      <trkpt lat="48.15171" lon="4.37279">
        <ele>199.13</ele>
        <time>2021-08-10T16:30:34Z</time>
      </trkpt>
      <trkpt lat="48.15144" lon="4.37277">
        <ele>201.05</ele>
        <time>2021-08-10T16:30:44Z</time>
      </trkpt>
      <trkpt lat="48.15125" lon="4.37275">
        <ele>202.01</ele>
        <time>2021-08-10T16:30:51Z</time>
      </trkpt>
      <trkpt lat="48.15098" lon="4.37273">
        <ele>202.98</ele>
        <time>2021-08-10T16:31:01Z</time>
      </trkpt>
      <trkpt lat="48.1506" lon="4.37269">
        <ele>203.46</ele>
        <time>2021-08-10T16:31:14Z</time>
      </trkpt>
      <trkpt lat="48.15029" lon="4.37263">
        <ele>204.9</ele>
        <time>2021-08-10T16:31:24Z</time>
      </trkpt>
      <trkpt lat="48.14996" lon="4.37257">
        <ele>206.34</ele>
        <time>2021-08-10T16:31:34Z</time>
      </trkpt>
      <trkpt lat="48.14966" lon="4.37251">
        <ele>207.3</ele>
        <time>2021-08-10T16:31:43Z</time>
      </trkpt>
      <trkpt lat="48.14925" lon="4.37245">
        <ele>207.78</ele>
        <time>2021-08-10T16:31:53Z</time>
      </trkpt>
      <trkpt lat="48.14874" lon="4.37237">
        <ele>208.26</ele>
        <time>2021-08-10T16:32:05Z</time>
      </trkpt>
      <trkpt lat="48.14833" lon="4.37227">
        <ele>208.74</ele>
        <time>2021-08-10T16:32:14Z</time>
      </trkpt>
      <trkpt lat="48.1479" lon="4.37207">
        <ele>210.19</ele>
        <time>2021-08-10T16:32:24Z</time>
      </trkpt>
      <trkpt lat="48.14782" lon="4.37202">
        <ele>210.19</ele>
        <time>2021-08-10T16:32:26Z</time>
      </trkpt>
      <trkpt lat="48.14749" lon="4.37167">
        <ele>210.19</ele>
        <time>2021-08-10T16:32:35Z</time>
      </trkpt>
      <trkpt lat="48.14708" lon="4.37108">
        <ele>211.63</ele>
        <time>2021-08-10T16:32:47Z</time>
      </trkpt>
      <trkpt lat="48.14669" lon="4.3705">
        <ele>212.11</ele>
        <time>2021-08-10T16:32:58Z</time>
      </trkpt>
      <trkpt lat="48.14628" lon="4.36993">
        <ele>212.59</ele>
        <time>2021-08-10T16:33:09Z</time>
      </trkpt>
      <trkpt lat="48.14624" lon="4.36988">
        <ele>212.59</ele>
        <time>2021-08-10T16:33:10Z</time>
      </trkpt>
      <trkpt lat="48.14587" lon="4.36939">
        <ele>213.55</ele>
        <time>2021-08-10T16:33:20Z</time>
      </trkpt>
      <trkpt lat="48.14552" lon="4.36896">
        <ele>214.03</ele>
        <time>2021-08-10T16:33:29Z</time>
      </trkpt>
      <trkpt lat="48.14548" lon="4.36892">
        <ele>214.03</ele>
        <time>2021-08-10T16:33:30Z</time>
      </trkpt>
      <trkpt lat="48.14496" lon="4.36856">
        <ele>214.03</ele>
        <time>2021-08-10T16:33:41Z</time>
      </trkpt>
      <trkpt lat="48.14445" lon="4.3683">
        <ele>214.51</ele>
        <time>2021-08-10T16:33:51Z</time>
      </trkpt>
      <trkpt lat="48.14386" lon="4.36799">
        <ele>214.51</ele>
        <time>2021-08-10T16:34:02Z</time>
      </trkpt>
      <trkpt lat="48.14376" lon="4.36794">
        <ele>213.55</ele>
        <time>2021-08-10T16:34:04Z</time>
      </trkpt>
      <trkpt lat="48.14318" lon="4.36757">
        <ele>213.07</ele>
        <time>2021-08-10T16:34:15Z</time>
      </trkpt>
      <trkpt lat="48.14303" lon="4.36745">
        <ele>213.07</ele>
        <time>2021-08-10T16:34:18Z</time>
      </trkpt>
      <trkpt lat="48.14299" lon="4.36742">
        <ele>213.07</ele>
        <time>2021-08-10T16:34:19Z</time>
      </trkpt>
      <trkpt lat="48.14255" lon="4.36702">
        <ele>212.59</ele>
        <time>2021-08-10T16:34:28Z</time>
      </trkpt>
      <trkpt lat="48.14198" lon="4.36653">
        <ele>212.11</ele>
        <time>2021-08-10T16:34:39Z</time>
      </trkpt>
      <trkpt lat="48.14154" lon="4.36608">
        <ele>211.63</ele>
        <time>2021-08-10T16:34:48Z</time>
      </trkpt>
      <trkpt lat="48.14101" lon="4.36552">
        <ele>211.63</ele>
        <time>2021-08-10T16:35:00Z</time>
      </trkpt>
      <trkpt lat="48.14076" lon="4.36527">
        <ele>213.07</ele>
        <time>2021-08-10T16:35:06Z</time>
      </trkpt>
      <trkpt lat="48.14038" lon="4.3649">
        <ele>213.55</ele>
        <time>2021-08-10T16:35:15Z</time>
      </trkpt>
      <trkpt lat="48.1403" lon="4.3648">
        <ele>213.55</ele>
        <time>2021-08-10T16:35:17Z</time>
      </trkpt>
      <trkpt lat="48.13992" lon="4.36434">
        <ele>213.55</ele>
        <time>2021-08-10T16:35:27Z</time>
      </trkpt>
      <trkpt lat="48.13975" lon="4.36407">
        <ele>214.03</ele>
        <time>2021-08-10T16:35:32Z</time>
      </trkpt>
      <trkpt lat="48.13938" lon="4.36337">
        <ele>213.55</ele>
        <time>2021-08-10T16:35:44Z</time>
      </trkpt>
      <trkpt lat="48.13932" lon="4.36326">
        <ele>213.55</ele>
        <time>2021-08-10T16:35:46Z</time>
      </trkpt>
      <trkpt lat="48.13907" lon="4.36277">
        <ele>212.59</ele>
        <time>2021-08-10T16:35:55Z</time>
      </trkpt>
      <trkpt lat="48.13876" lon="4.36217">
        <ele>211.15</ele>
        <time>2021-08-10T16:36:04Z</time>
      </trkpt>
      <trkpt lat="48.13843" lon="4.36157">
        <ele>209.7</ele>
        <time>2021-08-10T16:36:12Z</time>
      </trkpt>
      <trkpt lat="48.13805" lon="4.36097">
        <ele>207.3</ele>
        <time>2021-08-10T16:36:20Z</time>
      </trkpt>
      <trkpt lat="48.13753" lon="4.36021">
        <ele>205.38</ele>
        <time>2021-08-10T16:36:30Z</time>
      </trkpt>
      <trkpt lat="48.137" lon="4.35951">
        <ele>202.01</ele>
        <time>2021-08-10T16:36:39Z</time>
      </trkpt>
      <trkpt lat="48.13688" lon="4.35936">
        <ele>201.53</ele>
        <time>2021-08-10T16:36:41Z</time>
      </trkpt>
      <trkpt lat="48.13652" lon="4.35895">
        <ele>197.69</ele>
        <time>2021-08-10T16:36:46Z</time>
      </trkpt>
      <trkpt lat="48.13626" lon="4.3587">
        <ele>194.8</ele>
        <time>2021-08-10T16:36:49Z</time>
      </trkpt>
      <trkpt lat="48.13589" lon="4.35835">
        <ele>191.44</ele>
        <time>2021-08-10T16:36:53Z</time>
      </trkpt>
      <trkpt lat="48.13558" lon="4.35805">
        <ele>188.08</ele>
        <time>2021-08-10T16:36:56Z</time>
      </trkpt>
      <trkpt lat="48.13527" lon="4.35776">
        <ele>184.71</ele>
        <time>2021-08-10T16:36:59Z</time>
      </trkpt>
      <trkpt lat="48.13492" lon="4.35751">
        <ele>181.83</ele>
        <time>2021-08-10T16:37:02Z</time>
      </trkpt>
      <trkpt lat="48.13455" lon="4.35729">
        <ele>177.98</ele>
        <time>2021-08-10T16:37:05Z</time>
      </trkpt>
      <trkpt lat="48.13437" lon="4.35713">
        <ele>177.5</ele>
        <time>2021-08-10T16:37:07Z</time>
      </trkpt>
      <trkpt lat="48.1343" lon="4.35704">
        <ele>176.54</ele>
        <time>2021-08-10T16:37:08Z</time>
      </trkpt>
      <trkpt lat="48.13425" lon="4.35693">
        <ele>176.06</ele>
        <time>2021-08-10T16:37:09Z</time>
      </trkpt>
      <trkpt lat="48.1342" lon="4.35681">
        <ele>175.58</ele>
        <time>2021-08-10T16:37:10Z</time>
      </trkpt>
      <trkpt lat="48.13418" lon="4.35667">
        <ele>174.62</ele>
        <time>2021-08-10T16:37:11Z</time>
      </trkpt>
      <trkpt lat="48.13416" lon="4.35652">
        <ele>173.66</ele>
        <time>2021-08-10T16:37:12Z</time>
      </trkpt>
      <trkpt lat="48.13409" lon="4.3559">
        <ele>170.29</ele>
        <time>2021-08-10T16:37:16Z</time>
      </trkpt>
      <trkpt lat="48.13396" lon="4.35528">
        <ele>166.93</ele>
        <time>2021-08-10T16:37:20Z</time>
      </trkpt>
      <trkpt lat="48.13374" lon="4.35466">
        <ele>164.04</ele>
        <time>2021-08-10T16:37:25Z</time>
      </trkpt>
      <trkpt lat="48.13368" lon="4.35458">
        <ele>163.08</ele>
        <time>2021-08-10T16:37:26Z</time>
      </trkpt>
      <trkpt lat="48.13362" lon="4.35453">
        <ele>163.08</ele>
        <time>2021-08-10T16:37:27Z</time>
      </trkpt>
      <trkpt lat="48.13357" lon="4.3545">
        <ele>162.12</ele>
        <time>2021-08-10T16:37:28Z</time>
      </trkpt>
      <trkpt lat="48.1335" lon="4.3545">
        <ele>162.12</ele>
        <time>2021-08-10T16:37:29Z</time>
      </trkpt>
      <trkpt lat="48.13344" lon="4.35452">
        <ele>161.16</ele>
        <time>2021-08-10T16:37:30Z</time>
      </trkpt>
      <trkpt lat="48.1334" lon="4.35454">
        <ele>161.16</ele>
        <time>2021-08-10T16:37:31Z</time>
      </trkpt>
      <trkpt lat="48.13336" lon="4.35455">
        <ele>161.16</ele>
        <time>2021-08-10T16:37:32Z</time>
      </trkpt>
      <trkpt lat="48.13335" lon="4.35457">
        <ele>160.68</ele>
        <time>2021-08-10T16:37:36Z</time>
      </trkpt>
      <trkpt lat="48.13333" lon="4.35459">
        <ele>161.16</ele>
        <time>2021-08-10T16:37:39Z</time>
      </trkpt>
      <trkpt lat="48.13331" lon="4.35461">
        <ele>161.16</ele>
        <time>2021-08-10T16:37:40Z</time>
      </trkpt>
      <trkpt lat="48.1333" lon="4.35464">
        <ele>161.16</ele>
        <time>2021-08-10T16:37:41Z</time>
      </trkpt>
      <trkpt lat="48.13329" lon="4.35468">
        <ele>161.16</ele>
        <time>2021-08-10T16:37:42Z</time>
      </trkpt>
      <trkpt lat="48.13328" lon="4.35472">
        <ele>161.16</ele>
        <time>2021-08-10T16:37:43Z</time>
      </trkpt>
      <trkpt lat="48.13328" lon="4.35477">
        <ele>161.16</ele>
        <time>2021-08-10T16:37:44Z</time>
      </trkpt>
      <trkpt lat="48.13319" lon="4.35524">
        <ele>160.68</ele>
        <time>2021-08-10T16:37:51Z</time>
      </trkpt>
      <trkpt lat="48.13307" lon="4.35602">
        <ele>160.68</ele>
        <time>2021-08-10T16:38:01Z</time>
      </trkpt>
      <trkpt lat="48.133" lon="4.35652">
        <ele>160.68</ele>
        <time>2021-08-10T16:38:07Z</time>
      </trkpt>
      <trkpt lat="48.13283" lon="4.35741">
        <ele>160.2</ele>
        <time>2021-08-10T16:38:18Z</time>
      </trkpt>
      <trkpt lat="48.13262" lon="4.35818">
        <ele>158.75</ele>
        <time>2021-08-10T16:38:27Z</time>
      </trkpt>
      <trkpt lat="48.13254" lon="4.35854">
        <ele>158.75</ele>
        <time>2021-08-10T16:38:31Z</time>
      </trkpt>
      <trkpt lat="48.13252" lon="4.35862">
        <ele>158.75</ele>
        <time>2021-08-10T16:38:32Z</time>
      </trkpt>
      <trkpt lat="48.1325" lon="4.3587">
        <ele>158.27</ele>
        <time>2021-08-10T16:38:33Z</time>
      </trkpt>
      <trkpt lat="48.13246" lon="4.35875">
        <ele>158.27</ele>
        <time>2021-08-10T16:38:34Z</time>
      </trkpt>
      <trkpt lat="48.13241" lon="4.35877">
        <ele>157.79</ele>
        <time>2021-08-10T16:38:35Z</time>
      </trkpt>
      <trkpt lat="48.13236" lon="4.35875">
        <ele>157.79</ele>
        <time>2021-08-10T16:38:36Z</time>
      </trkpt>
      <trkpt lat="48.13231" lon="4.35873">
        <ele>157.79</ele>
        <time>2021-08-10T16:38:37Z</time>
      </trkpt>
      <trkpt lat="48.13189" lon="4.35853">
        <ele>156.83</ele>
        <time>2021-08-10T16:38:45Z</time>
      </trkpt>
      <trkpt lat="48.13144" lon="4.35829">
        <ele>156.83</ele>
        <time>2021-08-10T16:38:54Z</time>
      </trkpt>
      <trkpt lat="48.1314" lon="4.35827">
        <ele>156.83</ele>
        <time>2021-08-10T16:38:55Z</time>
      </trkpt>
      <trkpt lat="48.13109" lon="4.35811">
        <ele>156.83</ele>
        <time>2021-08-10T16:39:02Z</time>
      </trkpt>
      <trkpt lat="48.13068" lon="4.35784">
        <ele>156.35</ele>
        <time>2021-08-10T16:39:11Z</time>
      </trkpt>
      <trkpt lat="48.13063" lon="4.35781">
        <ele>156.35</ele>
        <time>2021-08-10T16:39:12Z</time>
      </trkpt>
      <trkpt lat="48.13059" lon="4.3578">
        <ele>156.35</ele>
        <time>2021-08-10T16:39:13Z</time>
      </trkpt>
      <trkpt lat="48.13055" lon="4.35779">
        <ele>156.35</ele>
        <time>2021-08-10T16:39:14Z</time>
      </trkpt>
      <trkpt lat="48.13051" lon="4.3578">
        <ele>156.35</ele>
        <time>2021-08-10T16:39:15Z</time>
      </trkpt>
      <trkpt lat="48.13047" lon="4.35782">
        <ele>156.35</ele>
        <time>2021-08-10T16:39:16Z</time>
      </trkpt>
      <trkpt lat="48.13044" lon="4.35787">
        <ele>156.35</ele>
        <time>2021-08-10T16:39:17Z</time>
      </trkpt>
      <trkpt lat="48.13043" lon="4.35793">
        <ele>156.35</ele>
        <time>2021-08-10T16:39:18Z</time>
      </trkpt>
      <trkpt lat="48.13042" lon="4.35799">
        <ele>156.35</ele>
        <time>2021-08-10T16:39:19Z</time>
      </trkpt>
      <trkpt lat="48.13035" lon="4.35846">
        <ele>156.35</ele>
        <time>2021-08-10T16:39:26Z</time>
      </trkpt>
      <trkpt lat="48.13029" lon="4.35877">
        <ele>156.35</ele>
        <time>2021-08-10T16:39:31Z</time>
      </trkpt>
      <trkpt lat="48.13026" lon="4.3588">
        <ele>156.35</ele>
        <time>2021-08-10T16:39:32Z</time>
      </trkpt>
      <trkpt lat="48.13023" lon="4.3588">
        <ele>156.35</ele>
        <time>2021-08-10T16:39:33Z</time>
      </trkpt>
      <trkpt lat="48.1302" lon="4.35879">
        <ele>156.35</ele>
        <time>2021-08-10T16:39:34Z</time>
      </trkpt>
      <trkpt lat="48.13017" lon="4.35878">
        <ele>156.35</ele>
        <time>2021-08-10T16:39:35Z</time>
      </trkpt>
      <trkpt lat="48.13014" lon="4.3588">
        <ele>156.35</ele>
        <time>2021-08-10T16:39:36Z</time>
      </trkpt>
      <trkpt lat="48.13012" lon="4.35885">
        <ele>156.35</ele>
        <time>2021-08-10T16:39:37Z</time>
      </trkpt>
      <trkpt lat="48.13011" lon="4.35889">
        <ele>156.35</ele>
        <time>2021-08-10T16:39:38Z</time>
      </trkpt>
      <trkpt lat="48.1301" lon="4.35895">
        <ele>156.35</ele>
        <time>2021-08-10T16:39:39Z</time>
      </trkpt>
      <trkpt lat="48.1301" lon="4.35901">
        <ele>156.35</ele>
        <time>2021-08-10T16:39:40Z</time>
      </trkpt>
      <trkpt lat="48.13009" lon="4.35914">
        <ele>156.35</ele>
        <time>2021-08-10T16:39:42Z</time>
      </trkpt>
      <trkpt lat="48.13002" lon="4.35971">
        <ele>156.35</ele>
        <time>2021-08-10T16:39:50Z</time>
      </trkpt>
      <trkpt lat="48.12999" lon="4.35994">
        <ele>156.35</ele>
        <time>2021-08-10T16:39:53Z</time>
      </trkpt>
      <trkpt lat="48.12992" lon="4.36017">
        <ele>156.35</ele>
        <time>2021-08-10T16:39:56Z</time>
      </trkpt>
      <trkpt lat="48.12989" lon="4.36023">
        <ele>156.35</ele>
        <time>2021-08-10T16:39:57Z</time>
      </trkpt>
      <trkpt lat="48.12972" lon="4.3605">
        <ele>156.35</ele>
        <time>2021-08-10T16:40:02Z</time>
      </trkpt>
      <trkpt lat="48.1297" lon="4.36056">
        <ele>156.35</ele>
        <time>2021-08-10T16:40:03Z</time>
      </trkpt>
      <trkpt lat="48.12966" lon="4.36068">
        <ele>156.35</ele>
        <time>2021-08-10T16:40:05Z</time>
      </trkpt>
      <trkpt lat="48.12954" lon="4.36132">
        <ele>156.35</ele>
        <time>2021-08-10T16:40:14Z</time>
      </trkpt>
      <trkpt lat="48.12947" lon="4.3618">
        <ele>156.35</ele>
        <time>2021-08-10T16:40:21Z</time>
      </trkpt>
      <trkpt lat="48.12946" lon="4.36201">
        <ele>156.35</ele>
        <time>2021-08-10T16:40:24Z</time>
      </trkpt>
      <trkpt lat="48.12945" lon="4.3623">
        <ele>157.31</ele>
        <time>2021-08-10T16:40:29Z</time>
      </trkpt>
      <trkpt lat="48.12944" lon="4.3624">
        <ele>157.31</ele>
        <time>2021-08-10T16:40:31Z</time>
      </trkpt>
      <trkpt lat="48.12943" lon="4.36243">
        <ele>157.79</ele>
        <time>2021-08-10T16:40:32Z</time>
      </trkpt>
      <trkpt lat="48.12932" lon="4.36277">
        <ele>157.79</ele>
        <time>2021-08-10T16:40:38Z</time>
      </trkpt>
      <trkpt lat="48.1292" lon="4.36321">
        <ele>157.79</ele>
        <time>2021-08-10T16:40:44Z</time>
      </trkpt>
      <trkpt lat="48.12903" lon="4.36387">
        <ele>157.79</ele>
        <time>2021-08-10T16:40:53Z</time>
      </trkpt>
      <trkpt lat="48.12886" lon="4.36466">
        <ele>157.79</ele>
        <time>2021-08-10T16:41:04Z</time>
      </trkpt>
      <trkpt lat="48.12877" lon="4.36507">
        <ele>158.27</ele>
        <time>2021-08-10T16:41:10Z</time>
      </trkpt>
      <trkpt lat="48.12874" lon="4.36513">
        <ele>158.27</ele>
        <time>2021-08-10T16:41:11Z</time>
      </trkpt>
      <trkpt lat="48.1287" lon="4.36517">
        <ele>158.27</ele>
        <time>2021-08-10T16:41:12Z</time>
      </trkpt>
      <trkpt lat="48.12865" lon="4.3652">
        <ele>158.27</ele>
        <time>2021-08-10T16:41:13Z</time>
      </trkpt>
      <trkpt lat="48.1286" lon="4.36519">
        <ele>158.27</ele>
        <time>2021-08-10T16:41:14Z</time>
      </trkpt>
      <trkpt lat="48.12855" lon="4.36516">
        <ele>158.27</ele>
        <time>2021-08-10T16:41:15Z</time>
      </trkpt>
      <trkpt lat="48.1285" lon="4.36512">
        <ele>158.27</ele>
        <time>2021-08-10T16:41:16Z</time>
      </trkpt>
      <trkpt lat="48.12803" lon="4.36479">
        <ele>157.31</ele>
        <time>2021-08-10T16:41:26Z</time>
      </trkpt>
      <trkpt lat="48.12799" lon="4.36478">
        <ele>157.31</ele>
        <time>2021-08-10T16:41:27Z</time>
      </trkpt>
      <trkpt lat="48.12795" lon="4.36478">
        <ele>157.31</ele>
        <time>2021-08-10T16:41:28Z</time>
      </trkpt>
      <trkpt lat="48.12791" lon="4.36479">
        <ele>157.31</ele>
        <time>2021-08-10T16:41:29Z</time>
      </trkpt>
      <trkpt lat="48.12787" lon="4.36481">
        <ele>157.31</ele>
        <time>2021-08-10T16:41:30Z</time>
      </trkpt>
      <trkpt lat="48.12783" lon="4.36485">
        <ele>157.31</ele>
        <time>2021-08-10T16:41:31Z</time>
      </trkpt>
      <trkpt lat="48.12779" lon="4.3649">
        <ele>156.83</ele>
        <time>2021-08-10T16:41:32Z</time>
      </trkpt>
      <trkpt lat="48.12776" lon="4.36496">
        <ele>156.83</ele>
        <time>2021-08-10T16:41:33Z</time>
      </trkpt>
      <trkpt lat="48.12773" lon="4.36503">
        <ele>156.83</ele>
        <time>2021-08-10T16:41:34Z</time>
      </trkpt>
      <trkpt lat="48.1277" lon="4.36509">
        <ele>156.83</ele>
        <time>2021-08-10T16:41:35Z</time>
      </trkpt>
      <trkpt lat="48.12768" lon="4.36516">
        <ele>156.83</ele>
        <time>2021-08-10T16:41:36Z</time>
      </trkpt>
      <trkpt lat="48.12765" lon="4.36523">
        <ele>156.83</ele>
        <time>2021-08-10T16:41:37Z</time>
      </trkpt>
      <trkpt lat="48.12754" lon="4.36549">
        <ele>156.83</ele>
        <time>2021-08-10T16:41:41Z</time>
      </trkpt>
      <trkpt lat="48.12732" lon="4.36597">
        <ele>156.83</ele>
        <time>2021-08-10T16:41:49Z</time>
      </trkpt>
      <trkpt lat="48.12714" lon="4.3664">
        <ele>156.83</ele>
        <time>2021-08-10T16:41:56Z</time>
      </trkpt>
      <trkpt lat="48.127" lon="4.36676">
        <ele>156.83</ele>
        <time>2021-08-10T16:42:02Z</time>
      </trkpt>
      <trkpt lat="48.12682" lon="4.3672">
        <ele>156.83</ele>
        <time>2021-08-10T16:42:09Z</time>
      </trkpt>
      <trkpt lat="48.12676" lon="4.36746">
        <ele>156.83</ele>
        <time>2021-08-10T16:42:13Z</time>
      </trkpt>
      <trkpt lat="48.12675" lon="4.3676">
        <ele>156.83</ele>
        <time>2021-08-10T16:42:15Z</time>
      </trkpt>
      <trkpt lat="48.12676" lon="4.368">
        <ele>157.79</ele>
        <time>2021-08-10T16:42:21Z</time>
      </trkpt>
      <trkpt lat="48.12679" lon="4.36839">
        <ele>158.27</ele>
        <time>2021-08-10T16:42:27Z</time>
      </trkpt>
      <trkpt lat="48.1268" lon="4.36848">
        <ele>158.27</ele>
        <time>2021-08-10T16:42:28Z</time>
      </trkpt>
      <trkpt lat="48.12681" lon="4.36868">
        <ele>158.75</ele>
        <time>2021-08-10T16:42:32Z</time>
      </trkpt>
      <trkpt lat="48.12682" lon="4.36896">
        <ele>158.75</ele>
        <time>2021-08-10T16:42:37Z</time>
      </trkpt>
      <trkpt lat="48.12681" lon="4.36944">
        <ele>158.75</ele>
        <time>2021-08-10T16:42:45Z</time>
      </trkpt>
      <trkpt lat="48.1268" lon="4.36978">
        <ele>158.75</ele>
        <time>2021-08-10T16:42:50Z</time>
      </trkpt>
      <trkpt lat="48.12682" lon="4.37003">
        <ele>158.75</ele>
        <time>2021-08-10T16:42:54Z</time>
      </trkpt>
      <trkpt lat="48.12683" lon="4.37033">
        <ele>158.75</ele>
        <time>2021-08-10T16:42:58Z</time>
      </trkpt>
      <trkpt lat="48.12683" lon="4.3704">
        <ele>157.31</ele>
        <time>2021-08-10T16:42:59Z</time>
      </trkpt>
      <trkpt lat="48.12682" lon="4.37047">
        <ele>157.31</ele>
        <time>2021-08-10T16:43:00Z</time>
      </trkpt>
      <trkpt lat="48.12682" lon="4.37074">
        <ele>157.31</ele>
        <time>2021-08-10T16:43:04Z</time>
      </trkpt>
      <trkpt lat="48.12682" lon="4.37142">
        <ele>157.31</ele>
        <time>2021-08-10T16:43:13Z</time>
      </trkpt>
      <trkpt lat="48.1268" lon="4.3717">
        <ele>157.31</ele>
        <time>2021-08-10T16:43:17Z</time>
      </trkpt>
      <trkpt lat="48.12678" lon="4.37213">
        <ele>157.31</ele>
        <time>2021-08-10T16:43:24Z</time>
      </trkpt>
      <trkpt lat="48.12678" lon="4.3722">
        <ele>157.31</ele>
        <time>2021-08-10T16:43:25Z</time>
      </trkpt>
      <trkpt lat="48.12674" lon="4.37246">
        <ele>157.31</ele>
        <time>2021-08-10T16:43:29Z</time>
      </trkpt>
      <trkpt lat="48.12673" lon="4.37253">
        <ele>157.31</ele>
        <time>2021-08-10T16:43:30Z</time>
      </trkpt>
      <trkpt lat="48.12673" lon="4.37259">
        <ele>157.31</ele>
        <time>2021-08-10T16:43:31Z</time>
      </trkpt>
      <trkpt lat="48.12673" lon="4.37266">
        <ele>157.31</ele>
        <time>2021-08-10T16:43:32Z</time>
      </trkpt>
      <trkpt lat="48.12672" lon="4.37273">
        <ele>157.31</ele>
        <time>2021-08-10T16:43:33Z</time>
      </trkpt>
      <trkpt lat="48.12672" lon="4.37281">
        <ele>157.31</ele>
        <time>2021-08-10T16:43:34Z</time>
      </trkpt>
      <trkpt lat="48.12671" lon="4.37296">
        <ele>157.31</ele>
        <time>2021-08-10T16:43:36Z</time>
      </trkpt>
      <trkpt lat="48.12669" lon="4.37302">
        <ele>157.31</ele>
        <time>2021-08-10T16:43:37Z</time>
      </trkpt>
      <trkpt lat="48.12668" lon="4.37308">
        <ele>157.31</ele>
        <time>2021-08-10T16:43:38Z</time>
      </trkpt>
      <trkpt lat="48.12662" lon="4.37344">
        <ele>157.31</ele>
        <time>2021-08-10T16:43:44Z</time>
      </trkpt>
      <trkpt lat="48.1266" lon="4.3735">
        <ele>157.31</ele>
        <time>2021-08-10T16:43:45Z</time>
      </trkpt>
      <trkpt lat="48.12642" lon="4.37396">
        <ele>157.31</ele>
        <time>2021-08-10T16:43:52Z</time>
      </trkpt>
      <trkpt lat="48.1264" lon="4.37404">
        <ele>157.31</ele>
        <time>2021-08-10T16:43:53Z</time>
      </trkpt>
      <trkpt lat="48.12638" lon="4.3741">
        <ele>157.31</ele>
        <time>2021-08-10T16:43:54Z</time>
      </trkpt>
      <trkpt lat="48.12635" lon="4.37415">
        <ele>157.31</ele>
        <time>2021-08-10T16:43:55Z</time>
      </trkpt>
      <trkpt lat="48.12632" lon="4.37416">
        <ele>157.31</ele>
        <time>2021-08-10T16:43:56Z</time>
      </trkpt>
      <trkpt lat="48.12629" lon="4.37418">
        <ele>157.31</ele>
        <time>2021-08-10T16:43:57Z</time>
      </trkpt>
      <trkpt lat="48.12628" lon="4.37419">
        <ele>157.31</ele>
        <time>2021-08-10T16:43:58Z</time>
      </trkpt>
      <trkpt lat="48.12626" lon="4.37421">
        <ele>157.31</ele>
        <time>2021-08-10T16:43:59Z</time>
      </trkpt>
      <trkpt lat="48.12625" lon="4.37425">
        <ele>157.31</ele>
        <time>2021-08-10T16:44:00Z</time>
      </trkpt>
      <trkpt lat="48.12623" lon="4.37428">
        <ele>157.31</ele>
        <time>2021-08-10T16:44:01Z</time>
      </trkpt>
      <trkpt lat="48.1262" lon="4.37431">
        <ele>157.31</ele>
        <time>2021-08-10T16:44:02Z</time>
      </trkpt>
      <trkpt lat="48.12617" lon="4.37435">
        <ele>157.31</ele>
        <time>2021-08-10T16:44:03Z</time>
      </trkpt>
      <trkpt lat="48.12614" lon="4.37439">
        <ele>157.31</ele>
        <time>2021-08-10T16:44:04Z</time>
      </trkpt>
      <trkpt lat="48.12595" lon="4.37469">
        <ele>157.31</ele>
        <time>2021-08-10T16:44:10Z</time>
      </trkpt>
      <trkpt lat="48.12585" lon="4.37486">
        <ele>157.31</ele>
        <time>2021-08-10T16:44:13Z</time>
      </trkpt>
      <trkpt lat="48.12584" lon="4.37493">
        <ele>157.31</ele>
        <time>2021-08-10T16:44:14Z</time>
      </trkpt>
      <trkpt lat="48.12583" lon="4.37497">
        <ele>157.31</ele>
        <time>2021-08-10T16:44:15Z</time>
      </trkpt>
      <trkpt lat="48.12584" lon="4.37507">
        <ele>157.31</ele>
        <time>2021-08-10T16:44:17Z</time>
      </trkpt>
      <trkpt lat="48.12579" lon="4.37517">
        <ele>157.31</ele>
        <time>2021-08-10T16:44:20Z</time>
      </trkpt>
      <trkpt lat="48.12575" lon="4.37522">
        <ele>157.31</ele>
        <time>2021-08-10T16:44:21Z</time>
      </trkpt>
      <trkpt lat="48.12571" lon="4.37527">
        <ele>157.31</ele>
        <time>2021-08-10T16:44:22Z</time>
      </trkpt>
      <trkpt lat="48.12566" lon="4.37532">
        <ele>157.31</ele>
        <time>2021-08-10T16:44:23Z</time>
      </trkpt>
      <trkpt lat="48.12562" lon="4.37538">
        <ele>157.31</ele>
        <time>2021-08-10T16:44:24Z</time>
      </trkpt>
      <trkpt lat="48.12558" lon="4.37543">
        <ele>157.31</ele>
        <time>2021-08-10T16:44:25Z</time>
      </trkpt>
      <trkpt lat="48.12532" lon="4.37579">
        <ele>157.31</ele>
        <time>2021-08-10T16:44:32Z</time>
      </trkpt>
      <trkpt lat="48.12498" lon="4.37626">
        <ele>157.31</ele>
        <time>2021-08-10T16:44:43Z</time>
      </trkpt>
      <trkpt lat="48.12469" lon="4.37662">
        <ele>157.31</ele>
        <time>2021-08-10T16:44:51Z</time>
      </trkpt>
      <trkpt lat="48.12445" lon="4.3769">
        <ele>157.31</ele>
        <time>2021-08-10T16:44:57Z</time>
      </trkpt>
      <trkpt lat="48.12441" lon="4.37694">
        <ele>157.31</ele>
        <time>2021-08-10T16:44:58Z</time>
      </trkpt>
      <trkpt lat="48.124" lon="4.37736">
        <ele>157.31</ele>
        <time>2021-08-10T16:45:07Z</time>
      </trkpt>
      <trkpt lat="48.12368" lon="4.37767">
        <ele>157.31</ele>
        <time>2021-08-10T16:45:14Z</time>
      </trkpt>
      <trkpt lat="48.1233" lon="4.37797">
        <ele>157.31</ele>
        <time>2021-08-10T16:45:22Z</time>
      </trkpt>
      <trkpt lat="48.12292" lon="4.37823">
        <ele>158.75</ele>
        <time>2021-08-10T16:45:30Z</time>
      </trkpt>
      <trkpt lat="48.12246" lon="4.37837">
        <ele>159.24</ele>
        <time>2021-08-10T16:45:39Z</time>
      </trkpt>
      <trkpt lat="48.1224" lon="4.37837">
        <ele>159.24</ele>
        <time>2021-08-10T16:45:40Z</time>
      </trkpt>
      <trkpt lat="48.12218" lon="4.37836">
        <ele>159.24</ele>
        <time>2021-08-10T16:45:44Z</time>
      </trkpt>
      <trkpt lat="48.12174" lon="4.3785">
        <ele>159.24</ele>
        <time>2021-08-10T16:45:52Z</time>
      </trkpt>
      <trkpt lat="48.12121" lon="4.37881">
        <ele>159.24</ele>
        <time>2021-08-10T16:46:02Z</time>
      </trkpt>
      <trkpt lat="48.12086" lon="4.37902">
        <ele>159.24</ele>
        <time>2021-08-10T16:46:09Z</time>
      </trkpt>
      <trkpt lat="48.12045" lon="4.37918">
        <ele>159.24</ele>
        <time>2021-08-10T16:46:16Z</time>
      </trkpt>
      <trkpt lat="48.12012" lon="4.37941">
        <ele>157.31</ele>
        <time>2021-08-10T16:46:22Z</time>
      </trkpt>
      <trkpt lat="48.11989" lon="4.37955">
        <ele>157.31</ele>
        <time>2021-08-10T16:46:26Z</time>
      </trkpt>
      <trkpt lat="48.11945" lon="4.37986">
        <ele>157.31</ele>
        <time>2021-08-10T16:46:34Z</time>
      </trkpt>
      <trkpt lat="48.11887" lon="4.38017">
        <ele>157.31</ele>
        <time>2021-08-10T16:46:44Z</time>
      </trkpt>
      <trkpt lat="48.11832" lon="4.38051">
        <ele>157.31</ele>
        <time>2021-08-10T16:46:54Z</time>
      </trkpt>
      <trkpt lat="48.11783" lon="4.38079">
        <ele>157.31</ele>
        <time>2021-08-10T16:47:03Z</time>
      </trkpt>
      <trkpt lat="48.11758" lon="4.38092">
        <ele>158.75</ele>
        <time>2021-08-10T16:47:08Z</time>
      </trkpt>
      <trkpt lat="48.11713" lon="4.38091">
        <ele>158.75</ele>
        <time>2021-08-10T16:47:16Z</time>
      </trkpt>
      <trkpt lat="48.11671" lon="4.38085">
        <ele>157.31</ele>
        <time>2021-08-10T16:47:23Z</time>
      </trkpt>
      <trkpt lat="48.11665" lon="4.38086">
        <ele>157.31</ele>
        <time>2021-08-10T16:47:24Z</time>
      </trkpt>
      <trkpt lat="48.11631" lon="4.38083">
        <ele>157.31</ele>
        <time>2021-08-10T16:47:31Z</time>
      </trkpt>
      <trkpt lat="48.11618" lon="4.3808">
        <ele>158.75</ele>
        <time>2021-08-10T16:47:34Z</time>
      </trkpt>
      <trkpt lat="48.11614" lon="4.38078">
        <ele>158.75</ele>
        <time>2021-08-10T16:47:35Z</time>
      </trkpt>
      <trkpt lat="48.11609" lon="4.38077">
        <ele>158.75</ele>
        <time>2021-08-10T16:47:36Z</time>
      </trkpt>
      <trkpt lat="48.11579" lon="4.38074">
        <ele>158.75</ele>
        <time>2021-08-10T16:47:44Z</time>
      </trkpt>
      <trkpt lat="48.11575" lon="4.38071">
        <ele>158.75</ele>
        <time>2021-08-10T16:47:46Z</time>
      </trkpt>
      <trkpt lat="48.11574" lon="4.38068">
        <ele>158.75</ele>
        <time>2021-08-10T16:47:47Z</time>
      </trkpt>
      <trkpt lat="48.11574" lon="4.38066">
        <ele>158.75</ele>
        <time>2021-08-10T16:47:48Z</time>
      </trkpt>
      <trkpt lat="48.11573" lon="4.38063">
        <ele>158.75</ele>
        <time>2021-08-10T16:47:49Z</time>
      </trkpt>
      <trkpt lat="48.11573" lon="4.38061">
        <ele>158.75</ele>
        <time>2021-08-10T16:47:50Z</time>
      </trkpt>
      <trkpt lat="48.11572" lon="4.38058">
        <ele>158.75</ele>
        <time>2021-08-10T16:47:51Z</time>
      </trkpt>
      <trkpt lat="48.11572" lon="4.38051">
        <ele>158.75</ele>
        <time>2021-08-10T16:47:54Z</time>
      </trkpt>
      <trkpt lat="48.11573" lon="4.38048">
        <ele>158.75</ele>
        <time>2021-08-10T16:47:59Z</time>
      </trkpt>
      <trkpt lat="48.11572" lon="4.38048">
        <ele>158.75</ele>
        <time>2021-08-10T16:48:10Z</time>
      </trkpt>
      <trkpt lat="48.11571" lon="4.38049">
        <ele>159.24</ele>
        <time>2021-08-10T16:48:25Z</time>
      </trkpt>
      <trkpt lat="48.1157" lon="4.38049">
        <ele>159.24</ele>
        <time>2021-08-10T16:48:44Z</time>
      </trkpt>
      <trkpt lat="48.1157" lon="4.38048">
        <ele>159.24</ele>
        <time>2021-08-10T16:49:09Z</time>
      </trkpt>
      <trkpt lat="48.11569" lon="4.38048">
        <ele>159.24</ele>
        <time>2021-08-10T16:49:32Z</time>
      </trkpt>
      <trkpt lat="48.11569" lon="4.38048">
        <ele>159.24</ele>
        <time>2021-08-10T16:49:48Z</time>
      </trkpt>
      <trkpt lat="48.1157" lon="4.38048">
        <ele>159.24</ele>
        <time>2021-08-10T16:50:05Z</time>
      </trkpt>
      <trkpt lat="48.11571" lon="4.38048">
        <ele>159.24</ele>
        <time>2021-08-10T16:50:26Z</time>
      </trkpt>
      <trkpt lat="48.1157" lon="4.38045">
        <ele>159.24</ele>
        <time>2021-08-10T16:50:37Z</time>
      </trkpt>
      <trkpt lat="48.1157" lon="4.38044">
        <ele>159.24</ele>
        <time>2021-08-10T16:50:40Z</time>
      </trkpt>
      <trkpt lat="48.11568" lon="4.38044">
        <ele>159.24</ele>
        <time>2021-08-10T16:50:41Z</time>
      </trkpt>
      <trkpt lat="48.11567" lon="4.38046">
        <ele>159.24</ele>
        <time>2021-08-10T16:50:42Z</time>
      </trkpt>
      <trkpt lat="48.11566" lon="4.38049">
        <ele>159.24</ele>
        <time>2021-08-10T16:50:43Z</time>
      </trkpt>
      <trkpt lat="48.11567" lon="4.38051">
        <ele>159.24</ele>
        <time>2021-08-10T16:50:44Z</time>
      </trkpt>
      <trkpt lat="48.11568" lon="4.38055">
        <ele>159.24</ele>
        <time>2021-08-10T16:50:45Z</time>
      </trkpt>
      <trkpt lat="48.11568" lon="4.38059">
        <ele>159.24</ele>
        <time>2021-08-10T16:50:46Z</time>
      </trkpt>
      <trkpt lat="48.11569" lon="4.38063">
        <ele>159.24</ele>
        <time>2021-08-10T16:50:47Z</time>
      </trkpt>
      <trkpt lat="48.11571" lon="4.38067">
        <ele>159.24</ele>
        <time>2021-08-10T16:50:48Z</time>
      </trkpt>
      <trkpt lat="48.11578" lon="4.38104">
        <ele>159.24</ele>
        <time>2021-08-10T16:50:54Z</time>
      </trkpt>
      <trkpt lat="48.11587" lon="4.38157">
        <ele>159.24</ele>
        <time>2021-08-10T16:51:01Z</time>
      </trkpt>
      <trkpt lat="48.11593" lon="4.38205">
        <ele>158.27</ele>
        <time>2021-08-10T16:51:08Z</time>
      </trkpt>
      <trkpt lat="48.11593" lon="4.38211">
        <ele>158.27</ele>
        <time>2021-08-10T16:51:09Z</time>
      </trkpt>
      <trkpt lat="48.11591" lon="4.38217">
        <ele>158.27</ele>
        <time>2021-08-10T16:51:10Z</time>
      </trkpt>
      <trkpt lat="48.11588" lon="4.3822">
        <ele>158.27</ele>
        <time>2021-08-10T16:51:11Z</time>
      </trkpt>
      <trkpt lat="48.11586" lon="4.38223">
        <ele>158.27</ele>
        <time>2021-08-10T16:51:12Z</time>
      </trkpt>
      <trkpt lat="48.11582" lon="4.38225">
        <ele>158.27</ele>
        <time>2021-08-10T16:51:13Z</time>
      </trkpt>
      <trkpt lat="48.11579" lon="4.38227">
        <ele>158.27</ele>
        <time>2021-08-10T16:51:14Z</time>
      </trkpt>
      <trkpt lat="48.11576" lon="4.38229">
        <ele>158.27</ele>
        <time>2021-08-10T16:51:15Z</time>
      </trkpt>
      <trkpt lat="48.11552" lon="4.38232">
        <ele>158.27</ele>
        <time>2021-08-10T16:51:21Z</time>
      </trkpt>
      <trkpt lat="48.11547" lon="4.38233">
        <ele>158.27</ele>
        <time>2021-08-10T16:51:22Z</time>
      </trkpt>
      <trkpt lat="48.11542" lon="4.38235">
        <ele>158.27</ele>
        <time>2021-08-10T16:51:23Z</time>
      </trkpt>
      <trkpt lat="48.11538" lon="4.38235">
        <ele>158.27</ele>
        <time>2021-08-10T16:51:24Z</time>
      </trkpt>
      <trkpt lat="48.11534" lon="4.38233">
        <ele>158.27</ele>
        <time>2021-08-10T16:51:25Z</time>
      </trkpt>
      <trkpt lat="48.1153" lon="4.38229">
        <ele>158.27</ele>
        <time>2021-08-10T16:51:26Z</time>
      </trkpt>
      <trkpt lat="48.11526" lon="4.38224">
        <ele>158.27</ele>
        <time>2021-08-10T16:51:27Z</time>
      </trkpt>
      <trkpt lat="48.11523" lon="4.38219">
        <ele>158.27</ele>
        <time>2021-08-10T16:51:28Z</time>
      </trkpt>
      <trkpt lat="48.11522" lon="4.38214">
        <ele>158.27</ele>
        <time>2021-08-10T16:51:29Z</time>
      </trkpt>
      <trkpt lat="48.1152" lon="4.38208">
        <ele>158.27</ele>
        <time>2021-08-10T16:51:30Z</time>
      </trkpt>
      <trkpt lat="48.11519" lon="4.38202">
        <ele>158.27</ele>
        <time>2021-08-10T16:51:31Z</time>
      </trkpt>
      <trkpt lat="48.11517" lon="4.38197">
        <ele>158.27</ele>
        <time>2021-08-10T16:51:32Z</time>
      </trkpt>
      <trkpt lat="48.11507" lon="4.3818">
        <ele>158.27</ele>
        <time>2021-08-10T16:51:36Z</time>
      </trkpt>
      <trkpt lat="48.11504" lon="4.38179">
        <ele>158.27</ele>
        <time>2021-08-10T16:51:37Z</time>
      </trkpt>
      <trkpt lat="48.11501" lon="4.3818">
        <ele>158.27</ele>
        <time>2021-08-10T16:51:38Z</time>
      </trkpt>
      <trkpt lat="48.11489" lon="4.38181">
        <ele>158.27</ele>
        <time>2021-08-10T16:51:44Z</time>
      </trkpt>
      <trkpt lat="48.11486" lon="4.38181">
        <ele>158.27</ele>
        <time>2021-08-10T16:51:52Z</time>
      </trkpt>
      <trkpt lat="48.11482" lon="4.38184">
        <ele>158.27</ele>
        <time>2021-08-10T16:52:01Z</time>
      </trkpt>
      <trkpt lat="48.11483" lon="4.38187">
        <ele>158.27</ele>
        <time>2021-08-10T16:52:09Z</time>
      </trkpt>
      <trkpt lat="48.11484" lon="4.38186">
        <ele>158.27</ele>
        <time>2021-08-10T16:52:24Z</time>
      </trkpt>
      <trkpt lat="48.11485" lon="4.38186">
        <ele>158.27</ele>
        <time>2021-08-10T16:52:30Z</time>
      </trkpt>
      <trkpt lat="48.11484" lon="4.38187">
        <ele>158.27</ele>
        <time>2021-08-10T16:52:36Z</time>
      </trkpt>
      <trkpt lat="48.11484" lon="4.38186">
        <ele>158.27</ele>
        <time>2021-08-10T16:52:52Z</time>
      </trkpt>
      <trkpt lat="48.11485" lon="4.38187">
        <ele>158.27</ele>
        <time>2021-08-10T16:53:13Z</time>
      </trkpt>
      <trkpt lat="48.11485" lon="4.38187">
        <ele>158.27</ele>
        <time>2021-08-10T16:53:33Z</time>
      </trkpt>
      <trkpt lat="48.11483" lon="4.38186">
        <ele>158.27</ele>
        <time>2021-08-10T16:53:51Z</time>
      </trkpt>
      <trkpt lat="48.11484" lon="4.38186">
        <ele>158.27</ele>
        <time>2021-08-10T16:54:08Z</time>
      </trkpt>
      <trkpt lat="48.11482" lon="4.38186">
        <ele>158.27</ele>
        <time>2021-08-10T16:54:33Z</time>
      </trkpt>
      <trkpt lat="48.11483" lon="4.38185">
        <ele>157.79</ele>
        <time>2021-08-10T16:54:57Z</time>
      </trkpt>
      <trkpt lat="48.11483" lon="4.38185">
        <ele>157.79</ele>
        <time>2021-08-10T16:55:19Z</time>
      </trkpt>
      <trkpt lat="48.11484" lon="4.38184">
        <ele>157.79</ele>
        <time>2021-08-10T16:55:40Z</time>
      </trkpt>
      <trkpt lat="48.11483" lon="4.38184">
        <ele>157.79</ele>
        <time>2021-08-10T16:56:02Z</time>
      </trkpt>
      <trkpt lat="48.11484" lon="4.38185">
        <ele>157.79</ele>
        <time>2021-08-10T16:56:20Z</time>
      </trkpt>
      <trkpt lat="48.11483" lon="4.38186">
        <ele>157.79</ele>
        <time>2021-08-10T16:56:32Z</time>
      </trkpt>
      <trkpt lat="48.11481" lon="4.38186">
        <ele>157.79</ele>
        <time>2021-08-10T16:56:44Z</time>
      </trkpt>
      <trkpt lat="48.11481" lon="4.38185">
        <ele>157.79</ele>
        <time>2021-08-10T16:56:57Z</time>
      </trkpt>
      <trkpt lat="48.1148" lon="4.38186">
        <ele>157.79</ele>
        <time>2021-08-10T16:57:10Z</time>
      </trkpt>
      <trkpt lat="48.11479" lon="4.38187">
        <ele>157.79</ele>
        <time>2021-08-10T16:57:23Z</time>
      </trkpt>
      <trkpt lat="48.11479" lon="4.38188">
        <ele>157.79</ele>
        <time>2021-08-10T16:57:31Z</time>
      </trkpt>
      <trkpt lat="48.11479" lon="4.38187">
        <ele>157.79</ele>
        <time>2021-08-10T16:57:46Z</time>
      </trkpt>
      <trkpt lat="48.11482" lon="4.38185">
        <ele>157.79</ele>
        <time>2021-08-10T16:58:00Z</time>
      </trkpt>
      <trkpt lat="48.11482" lon="4.38184">
        <ele>157.79</ele>
        <time>2021-08-10T16:58:17Z</time>
      </trkpt>
      <trkpt lat="48.11484" lon="4.38184">
        <ele>158.27</ele>
        <time>2021-08-10T16:58:34Z</time>
      </trkpt>
      <trkpt lat="48.11486" lon="4.38184">
        <ele>158.27</ele>
        <time>2021-08-10T16:58:45Z</time>
      </trkpt>
      <trkpt lat="48.11488" lon="4.38184">
        <ele>158.27</ele>
        <time>2021-08-10T16:58:57Z</time>
      </trkpt>
      <trkpt lat="48.11486" lon="4.38183">
        <ele>158.27</ele>
        <time>2021-08-10T16:59:11Z</time>
      </trkpt>
      <trkpt lat="48.11486" lon="4.38183">
        <ele>158.27</ele>
        <time>2021-08-10T16:59:30Z</time>
      </trkpt>
      <trkpt lat="48.11485" lon="4.38184">
        <ele>158.27</ele>
        <time>2021-08-10T16:59:45Z</time>
      </trkpt>
      <trkpt lat="48.11486" lon="4.38183">
        <ele>158.27</ele>
        <time>2021-08-10T16:59:58Z</time>
      </trkpt>
      <trkpt lat="48.11482" lon="4.38182">
        <ele>158.27</ele>
        <time>2021-08-10T17:00:13Z</time>
      </trkpt>
      <trkpt lat="48.11482" lon="4.38182">
        <ele>158.27</ele>
        <time>2021-08-10T17:00:27Z</time>
      </trkpt>
      <trkpt lat="48.11482" lon="4.38182">
        <ele>158.27</ele>
        <time>2021-08-10T17:00:35Z</time>
      </trkpt>
      <trkpt lat="48.11483" lon="4.38184">
        <ele>158.27</ele>
        <time>2021-08-10T17:00:54Z</time>
      </trkpt>
      <trkpt lat="48.11481" lon="4.38185">
        <ele>158.27</ele>
        <time>2021-08-10T17:01:09Z</time>
      </trkpt>
      <trkpt lat="48.11479" lon="4.38184">
        <ele>158.75</ele>
        <time>2021-08-10T17:01:26Z</time>
      </trkpt>
      <trkpt lat="48.11476" lon="4.38183">
        <ele>158.75</ele>
        <time>2021-08-10T17:01:35Z</time>
      </trkpt>
      <trkpt lat="48.11474" lon="4.38182">
        <ele>158.75</ele>
        <time>2021-08-10T17:01:44Z</time>
      </trkpt>
      <trkpt lat="48.11478" lon="4.38183">
        <ele>158.75</ele>
        <time>2021-08-10T17:02:01Z</time>
      </trkpt>
      <trkpt lat="48.11478" lon="4.38184">
        <ele>158.75</ele>
        <time>2021-08-10T17:02:20Z</time>
      </trkpt>
      <trkpt lat="48.11481" lon="4.38185">
        <ele>158.75</ele>
        <time>2021-08-10T17:02:27Z</time>
      </trkpt>
      <trkpt lat="48.11485" lon="4.38187">
        <ele>158.27</ele>
        <time>2021-08-10T17:02:36Z</time>
      </trkpt>
      <trkpt lat="48.11489" lon="4.38187">
        <ele>158.27</ele>
        <time>2021-08-10T17:03:03Z</time>
      </trkpt>
      <trkpt lat="48.11489" lon="4.38185">
        <ele>158.27</ele>
        <time>2021-08-10T17:03:19Z</time>
      </trkpt>
      <trkpt lat="48.11488" lon="4.38185">
        <ele>158.27</ele>
        <time>2021-08-10T17:03:44Z</time>
      </trkpt>
      <trkpt lat="48.11485" lon="4.38186">
        <ele>158.27</ele>
        <time>2021-08-10T17:04:06Z</time>
      </trkpt>
      <trkpt lat="48.11482" lon="4.38185">
        <ele>158.27</ele>
        <time>2021-08-10T17:04:25Z</time>
      </trkpt>
      <trkpt lat="48.1148" lon="4.38185">
        <ele>158.27</ele>
        <time>2021-08-10T17:04:44Z</time>
      </trkpt>
      <trkpt lat="48.1148" lon="4.38183">
        <ele>158.27</ele>
        <time>2021-08-10T17:05:09Z</time>
      </trkpt>
      <trkpt lat="48.11482" lon="4.38183">
        <ele>158.27</ele>
        <time>2021-08-10T17:05:26Z</time>
      </trkpt>
      <trkpt lat="48.11485" lon="4.38184">
        <ele>158.27</ele>
        <time>2021-08-10T17:05:45Z</time>
      </trkpt>
      <trkpt lat="48.11486" lon="4.38185">
        <ele>158.27</ele>
        <time>2021-08-10T17:05:54Z</time>
      </trkpt>
      <trkpt lat="48.11487" lon="4.38187">
        <ele>158.27</ele>
        <time>2021-08-10T17:06:02Z</time>
      </trkpt>
      <trkpt lat="48.11489" lon="4.38187">
        <ele>158.27</ele>
        <time>2021-08-10T17:06:10Z</time>
      </trkpt>
      <trkpt lat="48.1149" lon="4.38188">
        <ele>158.27</ele>
        <time>2021-08-10T17:06:22Z</time>
      </trkpt>
      <trkpt lat="48.11492" lon="4.38187">
        <ele>158.27</ele>
        <time>2021-08-10T17:06:41Z</time>
      </trkpt>
      <trkpt lat="48.1149" lon="4.38187">
        <ele>158.27</ele>
        <time>2021-08-10T17:06:58Z</time>
      </trkpt>
      <trkpt lat="48.1149" lon="4.38187">
        <ele>158.75</ele>
        <time>2021-08-10T17:07:11Z</time>
      </trkpt>
      <trkpt lat="48.11487" lon="4.38188">
        <ele>158.75</ele>
        <time>2021-08-10T17:07:30Z</time>
      </trkpt>
      <trkpt lat="48.11486" lon="4.38188">
        <ele>158.75</ele>
        <time>2021-08-10T17:07:40Z</time>
      </trkpt>
      <trkpt lat="48.11486" lon="4.38187">
        <ele>158.75</ele>
        <time>2021-08-10T17:07:54Z</time>
      </trkpt>
      <trkpt lat="48.1149" lon="4.38186">
        <ele>158.75</ele>
        <time>2021-08-10T17:08:11Z</time>
      </trkpt>
      <trkpt lat="48.11495" lon="4.38186">
        <ele>159.24</ele>
        <time>2021-08-10T17:08:33Z</time>
      </trkpt>
      <trkpt lat="48.11494" lon="4.38185">
        <ele>159.24</ele>
        <time>2021-08-10T17:08:46Z</time>
      </trkpt>
      <trkpt lat="48.11491" lon="4.38185">
        <ele>159.24</ele>
        <time>2021-08-10T17:08:57Z</time>
      </trkpt>
      <trkpt lat="48.11489" lon="4.38186">
        <ele>159.24</ele>
        <time>2021-08-10T17:09:16Z</time>
      </trkpt>
      <trkpt lat="48.11487" lon="4.38187">
        <ele>159.72</ele>
        <time>2021-08-10T17:09:32Z</time>
      </trkpt>
      <trkpt lat="48.11487" lon="4.38187">
        <ele>159.72</ele>
        <time>2021-08-10T17:09:42Z</time>
      </trkpt>
      <trkpt lat="48.11486" lon="4.38186">
        <ele>159.72</ele>
        <time>2021-08-10T17:10:03Z</time>
      </trkpt>
      <trkpt lat="48.11487" lon="4.38186">
        <ele>159.72</ele>
        <time>2021-08-10T17:10:16Z</time>
      </trkpt>
      <trkpt lat="48.11486" lon="4.38186">
        <ele>159.72</ele>
        <time>2021-08-10T17:10:35Z</time>
      </trkpt>
      <trkpt lat="48.11487" lon="4.38188">
        <ele>159.72</ele>
        <time>2021-08-10T17:10:45Z</time>
      </trkpt>
      <trkpt lat="48.11491" lon="4.3819">
        <ele>159.72</ele>
        <time>2021-08-10T17:11:03Z</time>
      </trkpt>
      <trkpt lat="48.11494" lon="4.3819">
        <ele>159.72</ele>
        <time>2021-08-10T17:11:12Z</time>
      </trkpt>
      <trkpt lat="48.11492" lon="4.38191">
        <ele>159.72</ele>
        <time>2021-08-10T17:11:26Z</time>
      </trkpt>
      <trkpt lat="48.11494" lon="4.38189">
        <ele>159.72</ele>
        <time>2021-08-10T17:11:42Z</time>
      </trkpt>
      <trkpt lat="48.11493" lon="4.38188">
        <ele>160.2</ele>
        <time>2021-08-10T17:11:55Z</time>
      </trkpt>
      <trkpt lat="48.11496" lon="4.38189">
        <ele>160.2</ele>
        <time>2021-08-10T17:12:08Z</time>
      </trkpt>
      <trkpt lat="48.115" lon="4.38189">
        <ele>160.2</ele>
        <time>2021-08-10T17:12:22Z</time>
      </trkpt>
      <trkpt lat="48.11503" lon="4.38189">
        <ele>160.2</ele>
        <time>2021-08-10T17:12:33Z</time>
      </trkpt>
      <trkpt lat="48.11504" lon="4.38188">
        <ele>160.2</ele>
        <time>2021-08-10T17:12:47Z</time>
      </trkpt>
      <trkpt lat="48.11504" lon="4.38188">
        <ele>160.2</ele>
        <time>2021-08-10T17:13:04Z</time>
      </trkpt>
      <trkpt lat="48.11501" lon="4.3819">
        <ele>160.68</ele>
        <time>2021-08-10T17:13:25Z</time>
      </trkpt>
      <trkpt lat="48.11502" lon="4.3819">
        <ele>160.68</ele>
        <time>2021-08-10T17:13:46Z</time>
      </trkpt>
      <trkpt lat="48.115" lon="4.38189">
        <ele>160.68</ele>
        <time>2021-08-10T17:14:02Z</time>
      </trkpt>
      <trkpt lat="48.11497" lon="4.3819">
        <ele>161.16</ele>
        <time>2021-08-10T17:14:22Z</time>
      </trkpt>
      <trkpt lat="48.11499" lon="4.3819">
        <ele>161.16</ele>
        <time>2021-08-10T17:14:40Z</time>
      </trkpt>
      <trkpt lat="48.115" lon="4.38192">
        <ele>161.16</ele>
        <time>2021-08-10T17:14:55Z</time>
      </trkpt>
      <trkpt lat="48.11494" lon="4.38191">
        <ele>161.16</ele>
        <time>2021-08-10T17:15:16Z</time>
      </trkpt>
      <trkpt lat="48.11492" lon="4.38191">
        <ele>161.64</ele>
        <time>2021-08-10T17:15:38Z</time>
      </trkpt>
      <trkpt lat="48.1149" lon="4.38191">
        <ele>161.64</ele>
        <time>2021-08-10T17:15:54Z</time>
      </trkpt>
      <trkpt lat="48.11491" lon="4.3819">
        <ele>161.64</ele>
        <time>2021-08-10T17:16:13Z</time>
      </trkpt>
      <trkpt lat="48.11488" lon="4.38189">
        <ele>161.64</ele>
        <time>2021-08-10T17:16:36Z</time>
      </trkpt>
      <trkpt lat="48.1149" lon="4.38191">
        <ele>162.12</ele>
        <time>2021-08-10T17:17:01Z</time>
      </trkpt>
      <trkpt lat="48.11489" lon="4.38193">
        <ele>162.12</ele>
        <time>2021-08-10T17:17:20Z</time>
      </trkpt>
      <trkpt lat="48.11492" lon="4.38194">
        <ele>162.6</ele>
        <time>2021-08-10T17:17:41Z</time>
      </trkpt>
      <trkpt lat="48.11492" lon="4.38193">
        <ele>162.6</ele>
        <time>2021-08-10T17:18:06Z</time>
      </trkpt>
      <trkpt lat="48.11491" lon="4.38192">
        <ele>163.08</ele>
        <time>2021-08-10T17:18:29Z</time>
      </trkpt>
      <trkpt lat="48.11486" lon="4.38187">
        <ele>163.08</ele>
        <time>2021-08-10T17:18:54Z</time>
      </trkpt>
      <trkpt lat="48.11485" lon="4.38184">
        <ele>163.08</ele>
        <time>2021-08-10T17:19:13Z</time>
      </trkpt>
      <trkpt lat="48.11484" lon="4.38183">
        <ele>163.08</ele>
        <time>2021-08-10T17:19:32Z</time>
      </trkpt>
      <trkpt lat="48.11481" lon="4.38183">
        <ele>163.08</ele>
        <time>2021-08-10T17:19:50Z</time>
      </trkpt>
      <trkpt lat="48.1148" lon="4.38184">
        <ele>163.08</ele>
        <time>2021-08-10T17:20:05Z</time>
      </trkpt>
      <trkpt lat="48.11479" lon="4.38184">
        <ele>163.08</ele>
        <time>2021-08-10T17:20:23Z</time>
      </trkpt>
      <trkpt lat="48.11479" lon="4.38185">
        <ele>163.08</ele>
        <time>2021-08-10T17:20:41Z</time>
      </trkpt>
      <trkpt lat="48.11478" lon="4.38186">
        <ele>162.6</ele>
        <time>2021-08-10T17:21:00Z</time>
      </trkpt>
      <trkpt lat="48.1148" lon="4.38186">
        <ele>162.6</ele>
        <time>2021-08-10T17:21:13Z</time>
      </trkpt>
      <trkpt lat="48.1148" lon="4.38184">
        <ele>162.6</ele>
        <time>2021-08-10T17:21:36Z</time>
      </trkpt>
      <trkpt lat="48.1148" lon="4.38184">
        <ele>162.6</ele>
        <time>2021-08-10T17:21:55Z</time>
      </trkpt>
      <trkpt lat="48.11481" lon="4.38184">
        <ele>162.12</ele>
        <time>2021-08-10T17:22:10Z</time>
      </trkpt>
      <trkpt lat="48.11483" lon="4.38187">
        <ele>162.12</ele>
        <time>2021-08-10T17:22:28Z</time>
      </trkpt>
      <trkpt lat="48.11483" lon="4.38187">
        <ele>162.12</ele>
        <time>2021-08-10T17:22:48Z</time>
      </trkpt>
      <trkpt lat="48.11483" lon="4.38188">
        <ele>162.12</ele>
        <time>2021-08-10T17:23:04Z</time>
      </trkpt>
      <trkpt lat="48.11481" lon="4.38187">
        <ele>162.12</ele>
        <time>2021-08-10T17:23:22Z</time>
      </trkpt>
      <trkpt lat="48.11481" lon="4.38186">
        <ele>162.12</ele>
        <time>2021-08-10T17:23:43Z</time>
      </trkpt>
      <trkpt lat="48.11481" lon="4.38186">
        <ele>161.64</ele>
        <time>2021-08-10T17:23:56Z</time>
      </trkpt>
      <trkpt lat="48.1148" lon="4.38186">
        <ele>161.64</ele>
        <time>2021-08-10T17:24:14Z</time>
      </trkpt>
      <trkpt lat="48.11483" lon="4.38188">
        <ele>161.64</ele>
        <time>2021-08-10T17:24:30Z</time>
      </trkpt>
      <trkpt lat="48.11482" lon="4.38187">
        <ele>161.64</ele>
        <time>2021-08-10T17:24:46Z</time>
      </trkpt>
      <trkpt lat="48.11482" lon="4.38185">
        <ele>161.64</ele>
        <time>2021-08-10T17:25:03Z</time>
      </trkpt>
      <trkpt lat="48.11481" lon="4.38186">
        <ele>161.16</ele>
        <time>2021-08-10T17:25:18Z</time>
      </trkpt>
      <trkpt lat="48.11483" lon="4.38185">
        <ele>161.16</ele>
        <time>2021-08-10T17:25:36Z</time>
      </trkpt>
      <trkpt lat="48.11483" lon="4.38187">
        <ele>161.16</ele>
        <time>2021-08-10T17:25:55Z</time>
      </trkpt>
      <trkpt lat="48.11482" lon="4.38186">
        <ele>161.16</ele>
        <time>2021-08-10T17:26:09Z</time>
      </trkpt>
      <trkpt lat="48.11482" lon="4.38182">
        <ele>161.16</ele>
        <time>2021-08-10T17:26:23Z</time>
      </trkpt>
      <trkpt lat="48.11482" lon="4.38181">
        <ele>161.16</ele>
        <time>2021-08-10T17:26:24Z</time>
      </trkpt>
      <trkpt lat="48.11482" lon="4.38171">
        <ele>161.16</ele>
        <time>2021-08-10T17:26:31Z</time>
      </trkpt>
      <trkpt lat="48.11482" lon="4.3817">
        <ele>161.16</ele>
        <time>2021-08-10T17:26:32Z</time>
      </trkpt>
      <trkpt lat="48.11481" lon="4.38169">
        <ele>161.16</ele>
        <time>2021-08-10T17:26:33Z</time>
      </trkpt>
      <trkpt lat="48.11478" lon="4.38169">
        <ele>161.16</ele>
        <time>2021-08-10T17:26:38Z</time>
      </trkpt>
      <trkpt lat="48.11478" lon="4.38168">
        <ele>161.16</ele>
        <time>2021-08-10T17:26:54Z</time>
      </trkpt>
      <trkpt lat="48.11483" lon="4.38163">
        <ele>161.16</ele>
        <time>2021-08-10T17:27:11Z</time>
      </trkpt>
      <trkpt lat="48.11487" lon="4.38164">
        <ele>160.68</ele>
        <time>2021-08-10T17:27:20Z</time>
      </trkpt>
      <trkpt lat="48.11497" lon="4.38163">
        <ele>160.68</ele>
        <time>2021-08-10T17:27:35Z</time>
      </trkpt>
      <trkpt lat="48.11502" lon="4.38166">
        <ele>160.68</ele>
        <time>2021-08-10T17:27:46Z</time>
      </trkpt>
      <trkpt lat="48.11503" lon="4.38167">
        <ele>160.68</ele>
        <time>2021-08-10T17:28:00Z</time>
      </trkpt>
      <trkpt lat="48.11502" lon="4.38165">
        <ele>160.68</ele>
        <time>2021-08-10T17:28:19Z</time>
      </trkpt>
      <trkpt lat="48.11504" lon="4.38166">
        <ele>160.68</ele>
        <time>2021-08-10T17:28:29Z</time>
      </trkpt>
      <trkpt lat="48.11508" lon="4.38164">
        <ele>160.68</ele>
        <time>2021-08-10T17:28:45Z</time>
      </trkpt>
      <trkpt lat="48.1151" lon="4.38163">
        <ele>160.68</ele>
        <time>2021-08-10T17:28:58Z</time>
      </trkpt>
      <trkpt lat="48.11511" lon="4.38167">
        <ele>160.68</ele>
        <time>2021-08-10T17:29:10Z</time>
      </trkpt>
      <trkpt lat="48.11511" lon="4.38169">
        <ele>160.68</ele>
        <time>2021-08-10T17:29:27Z</time>
      </trkpt>
      <trkpt lat="48.11512" lon="4.3817">
        <ele>161.16</ele>
        <time>2021-08-10T17:29:39Z</time>
      </trkpt>
      <trkpt lat="48.11514" lon="4.3817">
        <ele>161.16</ele>
        <time>2021-08-10T17:29:56Z</time>
      </trkpt>
      <trkpt lat="48.11514" lon="4.3817">
        <ele>161.16</ele>
        <time>2021-08-10T17:30:14Z</time>
      </trkpt>
      <trkpt lat="48.11513" lon="4.38171">
        <ele>161.64</ele>
        <time>2021-08-10T17:30:26Z</time>
      </trkpt>
      <trkpt lat="48.11513" lon="4.38172">
        <ele>161.64</ele>
        <time>2021-08-10T17:30:41Z</time>
      </trkpt>
      <trkpt lat="48.11514" lon="4.38174">
        <ele>161.64</ele>
        <time>2021-08-10T17:30:56Z</time>
      </trkpt>
      <trkpt lat="48.11514" lon="4.38174">
        <ele>161.64</ele>
        <time>2021-08-10T17:31:05Z</time>
      </trkpt>
      <trkpt lat="48.11515" lon="4.38177">
        <ele>162.12</ele>
        <time>2021-08-10T17:31:17Z</time>
      </trkpt>
      <trkpt lat="48.11516" lon="4.38176">
        <ele>162.12</ele>
        <time>2021-08-10T17:31:29Z</time>
      </trkpt>
      <trkpt lat="48.11514" lon="4.38173">
        <ele>162.12</ele>
        <time>2021-08-10T17:31:48Z</time>
      </trkpt>
      <trkpt lat="48.11513" lon="4.38173">
        <ele>162.6</ele>
        <time>2021-08-10T17:31:59Z</time>
      </trkpt>
      <trkpt lat="48.11511" lon="4.38173">
        <ele>162.6</ele>
        <time>2021-08-10T17:32:03Z</time>
      </trkpt>
      <trkpt lat="48.11509" lon="4.38173">
        <ele>162.6</ele>
        <time>2021-08-10T17:32:04Z</time>
      </trkpt>
      <trkpt lat="48.11509" lon="4.38172">
        <ele>162.6</ele>
        <time>2021-08-10T17:32:09Z</time>
      </trkpt>
      <trkpt lat="48.11507" lon="4.38171">
        <ele>162.6</ele>
        <time>2021-08-10T17:32:26Z</time>
      </trkpt>
      <trkpt lat="48.11503" lon="4.38169">
        <ele>162.6</ele>
        <time>2021-08-10T17:32:46Z</time>
      </trkpt>
      <trkpt lat="48.11499" lon="4.3817">
        <ele>162.6</ele>
        <time>2021-08-10T17:33:06Z</time>
      </trkpt>
      <trkpt lat="48.11499" lon="4.38171">
        <ele>162.6</ele>
        <time>2021-08-10T17:33:19Z</time>
      </trkpt>
      <trkpt lat="48.11501" lon="4.38168">
        <ele>162.6</ele>
        <time>2021-08-10T17:33:35Z</time>
      </trkpt>
      <trkpt lat="48.11498" lon="4.38167">
        <ele>162.6</ele>
        <time>2021-08-10T17:33:52Z</time>
      </trkpt>
      <trkpt lat="48.11494" lon="4.38168">
        <ele>162.6</ele>
        <time>2021-08-10T17:34:08Z</time>
      </trkpt>
      <trkpt lat="48.11496" lon="4.38168">
        <ele>162.6</ele>
        <time>2021-08-10T17:34:24Z</time>
      </trkpt>
      <trkpt lat="48.11501" lon="4.38166">
        <ele>162.6</ele>
        <time>2021-08-10T17:34:39Z</time>
      </trkpt>
      <trkpt lat="48.11498" lon="4.38165">
        <ele>162.12</ele>
        <time>2021-08-10T17:34:52Z</time>
      </trkpt>
      <trkpt lat="48.11499" lon="4.38165">
        <ele>162.12</ele>
        <time>2021-08-10T17:35:06Z</time>
      </trkpt>
      <trkpt lat="48.11496" lon="4.38165">
        <ele>162.12</ele>
        <time>2021-08-10T17:35:20Z</time>
      </trkpt>
      <trkpt lat="48.11497" lon="4.38165">
        <ele>162.12</ele>
        <time>2021-08-10T17:35:31Z</time>
      </trkpt>
      <trkpt lat="48.11494" lon="4.38165">
        <ele>162.12</ele>
        <time>2021-08-10T17:35:42Z</time>
      </trkpt>
      <trkpt lat="48.11494" lon="4.38162">
        <ele>161.64</ele>
        <time>2021-08-10T17:36:01Z</time>
      </trkpt>
      <trkpt lat="48.11492" lon="4.38159">
        <ele>161.64</ele>
        <time>2021-08-10T17:36:15Z</time>
      </trkpt>
      <trkpt lat="48.11489" lon="4.3816">
        <ele>161.64</ele>
        <time>2021-08-10T17:36:25Z</time>
      </trkpt>
      <trkpt lat="48.11487" lon="4.3816">
        <ele>161.64</ele>
        <time>2021-08-10T17:36:43Z</time>
      </trkpt>
      <trkpt lat="48.11486" lon="4.38159">
        <ele>161.64</ele>
        <time>2021-08-10T17:36:53Z</time>
      </trkpt>
      <trkpt lat="48.11489" lon="4.38161">
        <ele>161.64</ele>
        <time>2021-08-10T17:37:13Z</time>
      </trkpt>
      <trkpt lat="48.11491" lon="4.38162">
        <ele>161.64</ele>
        <time>2021-08-10T17:37:15Z</time>
      </trkpt>
      <trkpt lat="48.11493" lon="4.38164">
        <ele>161.64</ele>
        <time>2021-08-10T17:37:16Z</time>
      </trkpt>
      <trkpt lat="48.11495" lon="4.38165">
        <ele>161.64</ele>
        <time>2021-08-10T17:37:20Z</time>
      </trkpt>
      <trkpt lat="48.11499" lon="4.38167">
        <ele>161.64</ele>
        <time>2021-08-10T17:37:24Z</time>
      </trkpt>
      <trkpt lat="48.11501" lon="4.38168">
        <ele>161.64</ele>
        <time>2021-08-10T17:37:42Z</time>
      </trkpt>
      <trkpt lat="48.11503" lon="4.3817">
        <ele>161.64</ele>
        <time>2021-08-10T17:38:01Z</time>
      </trkpt>
      <trkpt lat="48.11502" lon="4.38167">
        <ele>161.64</ele>
        <time>2021-08-10T17:38:18Z</time>
      </trkpt>
      <trkpt lat="48.11504" lon="4.38163">
        <ele>161.64</ele>
        <time>2021-08-10T17:38:30Z</time>
      </trkpt>
      <trkpt lat="48.115" lon="4.38165">
        <ele>161.64</ele>
        <time>2021-08-10T17:38:54Z</time>
      </trkpt>
      <trkpt lat="48.11501" lon="4.38165">
        <ele>161.16</ele>
        <time>2021-08-10T17:39:10Z</time>
      </trkpt>
      <trkpt lat="48.11502" lon="4.38168">
        <ele>161.16</ele>
        <time>2021-08-10T17:39:21Z</time>
      </trkpt>
      <trkpt lat="48.11502" lon="4.38169">
        <ele>161.16</ele>
        <time>2021-08-10T17:39:38Z</time>
      </trkpt>
      <trkpt lat="48.11496" lon="4.38168">
        <ele>161.16</ele>
        <time>2021-08-10T17:39:52Z</time>
      </trkpt>
      <trkpt lat="48.11491" lon="4.38166">
        <ele>161.16</ele>
        <time>2021-08-10T17:40:15Z</time>
      </trkpt>
      <trkpt lat="48.11493" lon="4.38163">
        <ele>161.16</ele>
        <time>2021-08-10T17:40:30Z</time>
      </trkpt>
      <trkpt lat="48.11496" lon="4.3816">
        <ele>160.68</ele>
        <time>2021-08-10T17:40:44Z</time>
      </trkpt>
      <trkpt lat="48.11494" lon="4.3816">
        <ele>160.68</ele>
        <time>2021-08-10T17:41:06Z</time>
      </trkpt>
      <trkpt lat="48.11494" lon="4.3816">
        <ele>160.68</ele>
        <time>2021-08-10T17:41:21Z</time>
      </trkpt>
      <trkpt lat="48.11494" lon="4.38158">
        <ele>160.68</ele>
        <time>2021-08-10T17:41:31Z</time>
      </trkpt>
      <trkpt lat="48.11492" lon="4.38159">
        <ele>160.68</ele>
        <time>2021-08-10T17:41:46Z</time>
      </trkpt>
      <trkpt lat="48.11498" lon="4.38159">
        <ele>160.68</ele>
        <time>2021-08-10T17:42:06Z</time>
      </trkpt>
      <trkpt lat="48.11501" lon="4.3816">
        <ele>160.68</ele>
        <time>2021-08-10T17:42:22Z</time>
      </trkpt>
      <trkpt lat="48.115" lon="4.38156">
        <ele>160.68</ele>
        <time>2021-08-10T17:42:42Z</time>
      </trkpt>
      <trkpt lat="48.11508" lon="4.38158">
        <ele>160.68</ele>
        <time>2021-08-10T17:42:57Z</time>
      </trkpt>
      <trkpt lat="48.1151" lon="4.3816">
        <ele>160.68</ele>
        <time>2021-08-10T17:43:10Z</time>
      </trkpt>
      <trkpt lat="48.11509" lon="4.38161">
        <ele>160.68</ele>
        <time>2021-08-10T17:43:21Z</time>
      </trkpt>
      <trkpt lat="48.11504" lon="4.38153">
        <ele>160.68</ele>
        <time>2021-08-10T17:43:41Z</time>
      </trkpt>
      <trkpt lat="48.11499" lon="4.38152">
        <ele>160.68</ele>
        <time>2021-08-10T17:43:56Z</time>
      </trkpt>
      <trkpt lat="48.11505" lon="4.38153">
        <ele>160.68</ele>
        <time>2021-08-10T17:44:10Z</time>
      </trkpt>
      <trkpt lat="48.11505" lon="4.38154">
        <ele>160.68</ele>
        <time>2021-08-10T17:44:27Z</time>
      </trkpt>
      <trkpt lat="48.11505" lon="4.38157">
        <ele>160.68</ele>
        <time>2021-08-10T17:44:42Z</time>
      </trkpt>
      <trkpt lat="48.11501" lon="4.38162">
        <ele>160.68</ele>
        <time>2021-08-10T17:44:57Z</time>
      </trkpt>
      <trkpt lat="48.11502" lon="4.38168">
        <ele>160.68</ele>
        <time>2021-08-10T17:45:17Z</time>
      </trkpt>
      <trkpt lat="48.11502" lon="4.38165">
        <ele>160.68</ele>
        <time>2021-08-10T17:45:40Z</time>
      </trkpt>
      <trkpt lat="48.11511" lon="4.38168">
        <ele>161.64</ele>
        <time>2021-08-10T17:46:02Z</time>
      </trkpt>
      <trkpt lat="48.11495" lon="4.38172">
        <ele>161.64</ele>
        <time>2021-08-10T17:46:24Z</time>
      </trkpt>
      <trkpt lat="48.11492" lon="4.38168">
        <ele>161.64</ele>
        <time>2021-08-10T17:46:48Z</time>
      </trkpt>
      <trkpt lat="48.11489" lon="4.38166">
        <ele>161.64</ele>
        <time>2021-08-10T17:47:03Z</time>
      </trkpt>
      <trkpt lat="48.11471" lon="4.38164">
        <ele>161.64</ele>
        <time>2021-08-10T17:47:24Z</time>
      </trkpt>
      <trkpt lat="48.11466" lon="4.3816">
        <ele>161.16</ele>
        <time>2021-08-10T17:47:40Z</time>
      </trkpt>
      <trkpt lat="48.11472" lon="4.38161">
        <ele>161.16</ele>
        <time>2021-08-10T17:47:58Z</time>
      </trkpt>
      <trkpt lat="48.11476" lon="4.38163">
        <ele>160.68</ele>
        <time>2021-08-10T17:48:13Z</time>
      </trkpt>
      <trkpt lat="48.11478" lon="4.38163">
        <ele>160.68</ele>
        <time>2021-08-10T17:48:34Z</time>
      </trkpt>
      <trkpt lat="48.11481" lon="4.38162">
        <ele>160.68</ele>
        <time>2021-08-10T17:48:50Z</time>
      </trkpt>
      <trkpt lat="48.11482" lon="4.38163">
        <ele>160.2</ele>
        <time>2021-08-10T17:49:12Z</time>
      </trkpt>
      <trkpt lat="48.11485" lon="4.38166">
        <ele>160.2</ele>
        <time>2021-08-10T17:49:31Z</time>
      </trkpt>
      <trkpt lat="48.11485" lon="4.3817">
        <ele>160.2</ele>
        <time>2021-08-10T17:49:53Z</time>
      </trkpt>
      <trkpt lat="48.11473" lon="4.38168">
        <ele>159.72</ele>
        <time>2021-08-10T17:50:16Z</time>
      </trkpt>
      <trkpt lat="48.11465" lon="4.38166">
        <ele>159.72</ele>
        <time>2021-08-10T17:50:31Z</time>
      </trkpt>
      <trkpt lat="48.11462" lon="4.38168">
        <ele>159.72</ele>
        <time>2021-08-10T17:50:52Z</time>
      </trkpt>
      <trkpt lat="48.11466" lon="4.3817">
        <ele>159.24</ele>
        <time>2021-08-10T17:51:12Z</time>
      </trkpt>
      <trkpt lat="48.11469" lon="4.3817">
        <ele>159.24</ele>
        <time>2021-08-10T17:51:29Z</time>
      </trkpt>
      <trkpt lat="48.11472" lon="4.38169">
        <ele>158.75</ele>
        <time>2021-08-10T17:51:41Z</time>
      </trkpt>
      <trkpt lat="48.1149" lon="4.38167">
        <ele>158.75</ele>
        <time>2021-08-10T17:52:06Z</time>
      </trkpt>
      <trkpt lat="48.11485" lon="4.38164">
        <ele>158.27</ele>
        <time>2021-08-10T17:52:28Z</time>
      </trkpt>
      <trkpt lat="48.11484" lon="4.38162">
        <ele>158.27</ele>
        <time>2021-08-10T17:52:44Z</time>
      </trkpt>
      <trkpt lat="48.11485" lon="4.3816">
        <ele>158.27</ele>
        <time>2021-08-10T17:52:56Z</time>
      </trkpt>
      <trkpt lat="48.11486" lon="4.38161">
        <ele>158.27</ele>
        <time>2021-08-10T17:53:08Z</time>
      </trkpt>
      <trkpt lat="48.11488" lon="4.38166">
        <ele>158.27</ele>
        <time>2021-08-10T17:53:24Z</time>
      </trkpt>
      <trkpt lat="48.11495" lon="4.38173">
        <ele>157.79</ele>
        <time>2021-08-10T17:53:47Z</time>
      </trkpt>
      <trkpt lat="48.11485" lon="4.38169">
        <ele>157.79</ele>
        <time>2021-08-10T17:54:11Z</time>
      </trkpt>
      <trkpt lat="48.11477" lon="4.38167">
        <ele>157.79</ele>
        <time>2021-08-10T17:54:29Z</time>
      </trkpt>
      <trkpt lat="48.11478" lon="4.38162">
        <ele>157.31</ele>
        <time>2021-08-10T17:54:44Z</time>
      </trkpt>
      <trkpt lat="48.1148" lon="4.38164">
        <ele>157.31</ele>
        <time>2021-08-10T17:55:01Z</time>
      </trkpt>
      <trkpt lat="48.11483" lon="4.38163">
        <ele>157.31</ele>
        <time>2021-08-10T17:55:19Z</time>
      </trkpt>
      <trkpt lat="48.11484" lon="4.38165">
        <ele>157.31</ele>
        <time>2021-08-10T17:55:38Z</time>
      </trkpt>
      <trkpt lat="48.11481" lon="4.38163">
        <ele>157.31</ele>
        <time>2021-08-10T17:55:55Z</time>
      </trkpt>
      <trkpt lat="48.11487" lon="4.38161">
        <ele>156.83</ele>
        <time>2021-08-10T17:56:15Z</time>
      </trkpt>
      <trkpt lat="48.11486" lon="4.3816">
        <ele>156.83</ele>
        <time>2021-08-10T17:56:27Z</time>
      </trkpt>
      <trkpt lat="48.11486" lon="4.38156">
        <ele>156.83</ele>
        <time>2021-08-10T17:56:47Z</time>
      </trkpt>
      <trkpt lat="48.11484" lon="4.38158">
        <ele>156.83</ele>
        <time>2021-08-10T17:57:04Z</time>
      </trkpt>
      <trkpt lat="48.11486" lon="4.38158">
        <ele>156.83</ele>
        <time>2021-08-10T17:57:18Z</time>
      </trkpt>
      <trkpt lat="48.1149" lon="4.38161">
        <ele>156.83</ele>
        <time>2021-08-10T17:57:34Z</time>
      </trkpt>
      <trkpt lat="48.11491" lon="4.38161">
        <ele>156.83</ele>
        <time>2021-08-10T17:57:44Z</time>
      </trkpt>
      <trkpt lat="48.115" lon="4.38167">
        <ele>156.83</ele>
        <time>2021-08-10T17:57:55Z</time>
      </trkpt>
      <trkpt lat="48.115" lon="4.38169">
        <ele>156.83</ele>
        <time>2021-08-10T17:58:07Z</time>
      </trkpt>
      <trkpt lat="48.11502" lon="4.38166">
        <ele>156.35</ele>
        <time>2021-08-10T17:58:20Z</time>
      </trkpt>
      <trkpt lat="48.11499" lon="4.38159">
        <ele>156.35</ele>
        <time>2021-08-10T17:58:34Z</time>
      </trkpt>
      <trkpt lat="48.11501" lon="4.38159">
        <ele>156.35</ele>
        <time>2021-08-10T17:58:44Z</time>
      </trkpt>
      <trkpt lat="48.11501" lon="4.38161">
        <ele>156.35</ele>
        <time>2021-08-10T17:59:06Z</time>
      </trkpt>
      <trkpt lat="48.11499" lon="4.38162">
        <ele>156.35</ele>
        <time>2021-08-10T17:59:21Z</time>
      </trkpt>
      <trkpt lat="48.11495" lon="4.38163">
        <ele>156.35</ele>
        <time>2021-08-10T17:59:30Z</time>
      </trkpt>
      <trkpt lat="48.11495" lon="4.38163">
        <ele>156.35</ele>
        <time>2021-08-10T17:59:42Z</time>
      </trkpt>
      <trkpt lat="48.11494" lon="4.38162">
        <ele>156.35</ele>
        <time>2021-08-10T17:59:52Z</time>
      </trkpt>
      <trkpt lat="48.11493" lon="4.38163">
        <ele>156.35</ele>
        <time>2021-08-10T18:00:08Z</time>
      </trkpt>
      <trkpt lat="48.1149" lon="4.38165">
        <ele>156.35</ele>
        <time>2021-08-10T18:00:15Z</time>
      </trkpt>
      <trkpt lat="48.11486" lon="4.38162">
        <ele>156.35</ele>
        <time>2021-08-10T18:00:33Z</time>
      </trkpt>
      <trkpt lat="48.11489" lon="4.38162">
        <ele>156.35</ele>
        <time>2021-08-10T18:00:48Z</time>
      </trkpt>
      <trkpt lat="48.11494" lon="4.38163">
        <ele>156.35</ele>
        <time>2021-08-10T18:01:00Z</time>
      </trkpt>
      <trkpt lat="48.11495" lon="4.38161">
        <ele>156.35</ele>
        <time>2021-08-10T18:01:12Z</time>
      </trkpt>
      <trkpt lat="48.11496" lon="4.38161">
        <ele>156.35</ele>
        <time>2021-08-10T18:01:28Z</time>
      </trkpt>
      <trkpt lat="48.11491" lon="4.38161">
        <ele>156.35</ele>
        <time>2021-08-10T18:01:45Z</time>
      </trkpt>
      <trkpt lat="48.11491" lon="4.38159">
        <ele>156.83</ele>
        <time>2021-08-10T18:02:11Z</time>
      </trkpt>
      <trkpt lat="48.11494" lon="4.38158">
        <ele>156.83</ele>
        <time>2021-08-10T18:02:26Z</time>
      </trkpt>
      <trkpt lat="48.11493" lon="4.3816">
        <ele>156.83</ele>
        <time>2021-08-10T18:02:39Z</time>
      </trkpt>
      <trkpt lat="48.11492" lon="4.38159">
        <ele>156.83</ele>
        <time>2021-08-10T18:02:50Z</time>
      </trkpt>
      <trkpt lat="48.1149" lon="4.38158">
        <ele>156.83</ele>
        <time>2021-08-10T18:03:08Z</time>
      </trkpt>
      <trkpt lat="48.11489" lon="4.38157">
        <ele>156.83</ele>
        <time>2021-08-10T18:03:20Z</time>
      </trkpt>
      <trkpt lat="48.11495" lon="4.38159">
        <ele>156.83</ele>
        <time>2021-08-10T18:03:35Z</time>
      </trkpt>
      <trkpt lat="48.11502" lon="4.38164">
        <ele>156.83</ele>
        <time>2021-08-10T18:03:57Z</time>
      </trkpt>
      <trkpt lat="48.115" lon="4.38165">
        <ele>156.83</ele>
        <time>2021-08-10T18:04:15Z</time>
      </trkpt>
      <trkpt lat="48.11505" lon="4.38161">
        <ele>156.83</ele>
        <time>2021-08-10T18:04:41Z</time>
      </trkpt>
      <trkpt lat="48.11508" lon="4.38162">
        <ele>156.83</ele>
        <time>2021-08-10T18:04:59Z</time>
      </trkpt>
      <trkpt lat="48.11506" lon="4.38157">
        <ele>156.83</ele>
        <time>2021-08-10T18:05:14Z</time>
      </trkpt>
      <trkpt lat="48.11501" lon="4.38157">
        <ele>156.83</ele>
        <time>2021-08-10T18:05:32Z</time>
      </trkpt>
      <trkpt lat="48.11495" lon="4.38158">
        <ele>156.83</ele>
        <time>2021-08-10T18:05:45Z</time>
      </trkpt>
      <trkpt lat="48.11494" lon="4.38157">
        <ele>156.83</ele>
        <time>2021-08-10T18:05:55Z</time>
      </trkpt>
      <trkpt lat="48.11496" lon="4.38162">
        <ele>156.83</ele>
        <time>2021-08-10T18:06:07Z</time>
      </trkpt>
      <trkpt lat="48.11505" lon="4.38165">
        <ele>156.83</ele>
        <time>2021-08-10T18:06:24Z</time>
      </trkpt>
      <trkpt lat="48.11499" lon="4.38161">
        <ele>155.87</ele>
        <time>2021-08-10T18:06:48Z</time>
      </trkpt>
      <trkpt lat="48.11494" lon="4.38161">
        <ele>155.87</ele>
        <time>2021-08-10T18:07:06Z</time>
      </trkpt>
      <trkpt lat="48.11494" lon="4.38161">
        <ele>155.87</ele>
        <time>2021-08-10T18:07:23Z</time>
      </trkpt>
      <trkpt lat="48.11491" lon="4.38163">
        <ele>155.87</ele>
        <time>2021-08-10T18:07:41Z</time>
      </trkpt>
      <trkpt lat="48.1149" lon="4.38165">
        <ele>155.87</ele>
        <time>2021-08-10T18:07:59Z</time>
      </trkpt>
      <trkpt lat="48.11489" lon="4.38162">
        <ele>155.87</ele>
        <time>2021-08-10T18:08:14Z</time>
      </trkpt>
      <trkpt lat="48.1149" lon="4.38159">
        <ele>155.87</ele>
        <time>2021-08-10T18:08:34Z</time>
      </trkpt>
      <trkpt lat="48.11489" lon="4.38159">
        <ele>155.87</ele>
        <time>2021-08-10T18:08:52Z</time>
      </trkpt>
      <trkpt lat="48.11491" lon="4.38164">
        <ele>155.87</ele>
        <time>2021-08-10T18:09:07Z</time>
      </trkpt>
      <trkpt lat="48.11493" lon="4.38164">
        <ele>155.87</ele>
        <time>2021-08-10T18:09:20Z</time>
      </trkpt>
      <trkpt lat="48.11493" lon="4.38165">
        <ele>155.39</ele>
        <time>2021-08-10T18:09:35Z</time>
      </trkpt>
      <trkpt lat="48.11491" lon="4.38165">
        <ele>155.39</ele>
        <time>2021-08-10T18:09:51Z</time>
      </trkpt>
      <trkpt lat="48.11488" lon="4.38164">
        <ele>155.39</ele>
        <time>2021-08-10T18:10:03Z</time>
      </trkpt>
      <trkpt lat="48.11485" lon="4.38163">
        <ele>155.39</ele>
        <time>2021-08-10T18:10:20Z</time>
      </trkpt>
      <trkpt lat="48.11484" lon="4.38164">
        <ele>155.39</ele>
        <time>2021-08-10T18:10:37Z</time>
      </trkpt>
      <trkpt lat="48.11484" lon="4.38164">
        <ele>155.39</ele>
        <time>2021-08-10T18:10:49Z</time>
      </trkpt>
      <trkpt lat="48.11487" lon="4.38163">
        <ele>155.39</ele>
        <time>2021-08-10T18:11:04Z</time>
      </trkpt>
      <trkpt lat="48.11489" lon="4.38166">
        <ele>155.39</ele>
        <time>2021-08-10T18:11:24Z</time>
      </trkpt>
      <trkpt lat="48.11491" lon="4.38164">
        <ele>155.39</ele>
        <time>2021-08-10T18:11:41Z</time>
      </trkpt>
      <trkpt lat="48.1149" lon="4.38166">
        <ele>154.91</ele>
        <time>2021-08-10T18:11:58Z</time>
      </trkpt>
      <trkpt lat="48.11493" lon="4.38166">
        <ele>154.91</ele>
        <time>2021-08-10T18:12:10Z</time>
      </trkpt>
      <trkpt lat="48.11495" lon="4.38164">
        <ele>154.91</ele>
        <time>2021-08-10T18:12:29Z</time>
      </trkpt>
      <trkpt lat="48.11499" lon="4.38165">
        <ele>154.91</ele>
        <time>2021-08-10T18:12:46Z</time>
      </trkpt>
      <trkpt lat="48.115" lon="4.38168">
        <ele>155.39</ele>
        <time>2021-08-10T18:13:09Z</time>
      </trkpt>
      <trkpt lat="48.115" lon="4.38168">
        <ele>155.39</ele>
        <time>2021-08-10T18:13:24Z</time>
      </trkpt>
      <trkpt lat="48.11501" lon="4.38169">
        <ele>155.39</ele>
        <time>2021-08-10T18:13:41Z</time>
      </trkpt>
      <trkpt lat="48.115" lon="4.38168">
        <ele>155.39</ele>
        <time>2021-08-10T18:14:00Z</time>
      </trkpt>
      <trkpt lat="48.11499" lon="4.38167">
        <ele>155.39</ele>
        <time>2021-08-10T18:14:14Z</time>
      </trkpt>
      <trkpt lat="48.11498" lon="4.38164">
        <ele>155.39</ele>
        <time>2021-08-10T18:14:29Z</time>
      </trkpt>
      <trkpt lat="48.11493" lon="4.38164">
        <ele>155.39</ele>
        <time>2021-08-10T18:14:45Z</time>
      </trkpt>
      <trkpt lat="48.11495" lon="4.38161">
        <ele>155.39</ele>
        <time>2021-08-10T18:15:01Z</time>
      </trkpt>
      <trkpt lat="48.11497" lon="4.38164">
        <ele>155.39</ele>
        <time>2021-08-10T18:15:17Z</time>
      </trkpt>
      <trkpt lat="48.11504" lon="4.38164">
        <ele>155.39</ele>
        <time>2021-08-10T18:15:31Z</time>
      </trkpt>
      <trkpt lat="48.11503" lon="4.38167">
        <ele>155.39</ele>
        <time>2021-08-10T18:15:48Z</time>
      </trkpt>
      <trkpt lat="48.11503" lon="4.38167">
        <ele>155.39</ele>
        <time>2021-08-10T18:16:06Z</time>
      </trkpt>
      <trkpt lat="48.11499" lon="4.38167">
        <ele>155.39</ele>
        <time>2021-08-10T18:16:21Z</time>
      </trkpt>
      <trkpt lat="48.11496" lon="4.38167">
        <ele>155.39</ele>
        <time>2021-08-10T18:16:37Z</time>
      </trkpt>
      <trkpt lat="48.11494" lon="4.38165">
        <ele>155.39</ele>
        <time>2021-08-10T18:16:53Z</time>
      </trkpt>
      <trkpt lat="48.11496" lon="4.38169">
        <ele>155.39</ele>
        <time>2021-08-10T18:17:13Z</time>
      </trkpt>
      <trkpt lat="48.11496" lon="4.38172">
        <ele>155.39</ele>
        <time>2021-08-10T18:17:30Z</time>
      </trkpt>
      <trkpt lat="48.11494" lon="4.38172">
        <ele>155.39</ele>
        <time>2021-08-10T18:17:45Z</time>
      </trkpt>
      <trkpt lat="48.11498" lon="4.3817">
        <ele>155.39</ele>
        <time>2021-08-10T18:17:56Z</time>
      </trkpt>
      <trkpt lat="48.11507" lon="4.38173">
        <ele>155.39</ele>
        <time>2021-08-10T18:18:15Z</time>
      </trkpt>
      <trkpt lat="48.11507" lon="4.38169">
        <ele>154.91</ele>
        <time>2021-08-10T18:18:34Z</time>
      </trkpt>
      <trkpt lat="48.11504" lon="4.38169">
        <ele>154.91</ele>
        <time>2021-08-10T18:18:50Z</time>
      </trkpt>
      <trkpt lat="48.11497" lon="4.38171">
        <ele>154.91</ele>
        <time>2021-08-10T18:19:07Z</time>
      </trkpt>
      <trkpt lat="48.11492" lon="4.3817">
        <ele>154.91</ele>
        <time>2021-08-10T18:19:22Z</time>
      </trkpt>
      <trkpt lat="48.11491" lon="4.38169">
        <ele>154.91</ele>
        <time>2021-08-10T18:19:39Z</time>
      </trkpt>
      <trkpt lat="48.1149" lon="4.38166">
        <ele>154.91</ele>
        <time>2021-08-10T18:19:52Z</time>
      </trkpt>
      <trkpt lat="48.11488" lon="4.38164">
        <ele>154.91</ele>
        <time>2021-08-10T18:20:09Z</time>
      </trkpt>
      <trkpt lat="48.11486" lon="4.38168">
        <ele>154.91</ele>
        <time>2021-08-10T18:20:22Z</time>
      </trkpt>
      <trkpt lat="48.11489" lon="4.38167">
        <ele>154.43</ele>
        <time>2021-08-10T18:20:35Z</time>
      </trkpt>
      <trkpt lat="48.11489" lon="4.3817">
        <ele>154.43</ele>
        <time>2021-08-10T18:20:43Z</time>
      </trkpt>
      <trkpt lat="48.11492" lon="4.38174">
        <ele>154.43</ele>
        <time>2021-08-10T18:20:46Z</time>
      </trkpt>
      <trkpt lat="48.11491" lon="4.38176">
        <ele>154.43</ele>
        <time>2021-08-10T18:20:47Z</time>
      </trkpt>
      <trkpt lat="48.1149" lon="4.38178">
        <ele>154.43</ele>
        <time>2021-08-10T18:20:48Z</time>
      </trkpt>
      <trkpt lat="48.11488" lon="4.38177">
        <ele>154.43</ele>
        <time>2021-08-10T18:20:49Z</time>
      </trkpt>
      <trkpt lat="48.11484" lon="4.38167">
        <ele>154.43</ele>
        <time>2021-08-10T18:20:55Z</time>
      </trkpt>
      <trkpt lat="48.11484" lon="4.38166">
        <ele>154.43</ele>
        <time>2021-08-10T18:20:56Z</time>
      </trkpt>
      <trkpt lat="48.11497" lon="4.3817">
        <ele>153.95</ele>
        <time>2021-08-10T18:21:01Z</time>
      </trkpt>
      <trkpt lat="48.11501" lon="4.38172">
        <ele>154.43</ele>
        <time>2021-08-10T18:21:02Z</time>
      </trkpt>
      <trkpt lat="48.11504" lon="4.38176">
        <ele>154.43</ele>
        <time>2021-08-10T18:21:03Z</time>
      </trkpt>
      <trkpt lat="48.11506" lon="4.3818">
        <ele>154.43</ele>
        <time>2021-08-10T18:21:04Z</time>
      </trkpt>
      <trkpt lat="48.11508" lon="4.38183">
        <ele>154.43</ele>
        <time>2021-08-10T18:21:05Z</time>
      </trkpt>
      <trkpt lat="48.11524" lon="4.38195">
        <ele>154.43</ele>
        <time>2021-08-10T18:21:10Z</time>
      </trkpt>
      <trkpt lat="48.11542" lon="4.38192">
        <ele>154.43</ele>
        <time>2021-08-10T18:21:15Z</time>
      </trkpt>
      <trkpt lat="48.11553" lon="4.3819">
        <ele>154.43</ele>
        <time>2021-08-10T18:21:18Z</time>
      </trkpt>
      <trkpt lat="48.11556" lon="4.38192">
        <ele>154.43</ele>
        <time>2021-08-10T18:21:19Z</time>
      </trkpt>
      <trkpt lat="48.11559" lon="4.38197">
        <ele>154.43</ele>
        <time>2021-08-10T18:21:20Z</time>
      </trkpt>
      <trkpt lat="48.11561" lon="4.38202">
        <ele>154.43</ele>
        <time>2021-08-10T18:21:21Z</time>
      </trkpt>
      <trkpt lat="48.11563" lon="4.38208">
        <ele>154.43</ele>
        <time>2021-08-10T18:21:22Z</time>
      </trkpt>
      <trkpt lat="48.11564" lon="4.38214">
        <ele>154.43</ele>
        <time>2021-08-10T18:21:23Z</time>
      </trkpt>
      <trkpt lat="48.11565" lon="4.38219">
        <ele>154.43</ele>
        <time>2021-08-10T18:21:24Z</time>
      </trkpt>
      <trkpt lat="48.11567" lon="4.38223">
        <ele>154.43</ele>
        <time>2021-08-10T18:21:25Z</time>
      </trkpt>
      <trkpt lat="48.1157" lon="4.38226">
        <ele>154.43</ele>
        <time>2021-08-10T18:21:26Z</time>
      </trkpt>
      <trkpt lat="48.11572" lon="4.38228">
        <ele>154.43</ele>
        <time>2021-08-10T18:21:27Z</time>
      </trkpt>
      <trkpt lat="48.11576" lon="4.3823">
        <ele>154.43</ele>
        <time>2021-08-10T18:21:28Z</time>
      </trkpt>
      <trkpt lat="48.11578" lon="4.3823">
        <ele>154.43</ele>
        <time>2021-08-10T18:21:29Z</time>
      </trkpt>
      <trkpt lat="48.11581" lon="4.38229">
        <ele>154.43</ele>
        <time>2021-08-10T18:21:30Z</time>
      </trkpt>
      <trkpt lat="48.11594" lon="4.3822">
        <ele>154.43</ele>
        <time>2021-08-10T18:21:35Z</time>
      </trkpt>
      <trkpt lat="48.11596" lon="4.38216">
        <ele>154.43</ele>
        <time>2021-08-10T18:21:36Z</time>
      </trkpt>
      <trkpt lat="48.11597" lon="4.38211">
        <ele>154.43</ele>
        <time>2021-08-10T18:21:37Z</time>
      </trkpt>
      <trkpt lat="48.11596" lon="4.38205">
        <ele>154.43</ele>
        <time>2021-08-10T18:21:38Z</time>
      </trkpt>
      <trkpt lat="48.11595" lon="4.38201">
        <ele>154.43</ele>
        <time>2021-08-10T18:21:39Z</time>
      </trkpt>
      <trkpt lat="48.11595" lon="4.38196">
        <ele>154.43</ele>
        <time>2021-08-10T18:21:40Z</time>
      </trkpt>
      <trkpt lat="48.11594" lon="4.38191">
        <ele>154.43</ele>
        <time>2021-08-10T18:21:41Z</time>
      </trkpt>
      <trkpt lat="48.11585" lon="4.38128">
        <ele>154.43</ele>
        <time>2021-08-10T18:21:51Z</time>
      </trkpt>
      <trkpt lat="48.11571" lon="4.38054">
        <ele>154.43</ele>
        <time>2021-08-10T18:22:03Z</time>
      </trkpt>
      <trkpt lat="48.11571" lon="4.38053">
        <ele>155.39</ele>
        <time>2021-08-10T18:22:07Z</time>
      </trkpt>
      <trkpt lat="48.1157" lon="4.38047">
        <ele>155.39</ele>
        <time>2021-08-10T18:22:11Z</time>
      </trkpt>
      <trkpt lat="48.11568" lon="4.38044">
        <ele>155.39</ele>
        <time>2021-08-10T18:22:12Z</time>
      </trkpt>
      <trkpt lat="48.11567" lon="4.3804">
        <ele>155.39</ele>
        <time>2021-08-10T18:22:13Z</time>
      </trkpt>
      <trkpt lat="48.1156" lon="4.38002">
        <ele>155.39</ele>
        <time>2021-08-10T18:22:20Z</time>
      </trkpt>
      <trkpt lat="48.1155" lon="4.37949">
        <ele>154.43</ele>
        <time>2021-08-10T18:22:28Z</time>
      </trkpt>
      <trkpt lat="48.11534" lon="4.37864">
        <ele>154.43</ele>
        <time>2021-08-10T18:22:41Z</time>
      </trkpt>
      <trkpt lat="48.1152" lon="4.37811">
        <ele>156.35</ele>
        <time>2021-08-10T18:22:51Z</time>
      </trkpt>
      <trkpt lat="48.11503" lon="4.37748">
        <ele>156.35</ele>
        <time>2021-08-10T18:23:02Z</time>
      </trkpt>
      <trkpt lat="48.11491" lon="4.37698">
        <ele>156.35</ele>
        <time>2021-08-10T18:23:11Z</time>
      </trkpt>
      <trkpt lat="48.1149" lon="4.37696">
        <ele>156.35</ele>
        <time>2021-08-10T18:23:16Z</time>
      </trkpt>
      <trkpt lat="48.1149" lon="4.37696">
        <ele>154.91</ele>
        <time>2021-08-10T18:23:22Z</time>
      </trkpt>
      <trkpt lat="48.11489" lon="4.37696">
        <ele>154.91</ele>
        <time>2021-08-10T18:23:41Z</time>
      </trkpt>
      <trkpt lat="48.1149" lon="4.37694">
        <ele>154.91</ele>
        <time>2021-08-10T18:23:52Z</time>
      </trkpt>
      <trkpt lat="48.11487" lon="4.37687">
        <ele>154.91</ele>
        <time>2021-08-10T18:23:59Z</time>
      </trkpt>
      <trkpt lat="48.11485" lon="4.37689">
        <ele>154.91</ele>
        <time>2021-08-10T18:24:16Z</time>
      </trkpt>
      <trkpt lat="48.1148" lon="4.37666">
        <ele>154.91</ele>
        <time>2021-08-10T18:24:22Z</time>
      </trkpt>
      <trkpt lat="48.11468" lon="4.37632">
        <ele>154.91</ele>
        <time>2021-08-10T18:24:29Z</time>
      </trkpt>
      <trkpt lat="48.11461" lon="4.37605">
        <ele>154.91</ele>
        <time>2021-08-10T18:24:35Z</time>
      </trkpt>
      <trkpt lat="48.1146" lon="4.37604">
        <ele>154.91</ele>
        <time>2021-08-10T18:24:41Z</time>
      </trkpt>
      <trkpt lat="48.11461" lon="4.37607">
        <ele>154.91</ele>
        <time>2021-08-10T18:24:49Z</time>
      </trkpt>
      <trkpt lat="48.11462" lon="4.37607">
        <ele>154.91</ele>
        <time>2021-08-10T18:24:57Z</time>
      </trkpt>
      <trkpt lat="48.11462" lon="4.37606">
        <ele>154.91</ele>
        <time>2021-08-10T18:25:11Z</time>
      </trkpt>
      <trkpt lat="48.11461" lon="4.37607">
        <ele>154.91</ele>
        <time>2021-08-10T18:25:31Z</time>
      </trkpt>
      <trkpt lat="48.11462" lon="4.37607">
        <ele>154.91</ele>
        <time>2021-08-10T18:25:44Z</time>
      </trkpt>
      <trkpt lat="48.11462" lon="4.37607">
        <ele>154.43</ele>
        <time>2021-08-10T18:26:02Z</time>
      </trkpt>
      <trkpt lat="48.11462" lon="4.37608">
        <ele>154.43</ele>
        <time>2021-08-10T18:26:11Z</time>
      </trkpt>
      <trkpt lat="48.11464" lon="4.37609">
        <ele>154.43</ele>
        <time>2021-08-10T18:26:31Z</time>
      </trkpt>
      <trkpt lat="48.11465" lon="4.37607">
        <ele>154.43</ele>
        <time>2021-08-10T18:26:33Z</time>
      </trkpt>
      <trkpt lat="48.11465" lon="4.37605">
        <ele>154.43</ele>
        <time>2021-08-10T18:26:34Z</time>
      </trkpt>
      <trkpt lat="48.11464" lon="4.37602">
        <ele>154.43</ele>
        <time>2021-08-10T18:26:35Z</time>
      </trkpt>
      <trkpt lat="48.11463" lon="4.37599">
        <ele>154.43</ele>
        <time>2021-08-10T18:26:36Z</time>
      </trkpt>
      <trkpt lat="48.11463" lon="4.37595">
        <ele>154.43</ele>
        <time>2021-08-10T18:26:37Z</time>
      </trkpt>
      <trkpt lat="48.11457" lon="4.37562">
        <ele>154.43</ele>
        <time>2021-08-10T18:26:44Z</time>
      </trkpt>
      <trkpt lat="48.11448" lon="4.3752">
        <ele>154.43</ele>
        <time>2021-08-10T18:26:52Z</time>
      </trkpt>
      <trkpt lat="48.11439" lon="4.37482">
        <ele>155.87</ele>
        <time>2021-08-10T18:26:59Z</time>
      </trkpt>
      <trkpt lat="48.1143" lon="4.37446">
        <ele>156.35</ele>
        <time>2021-08-10T18:27:07Z</time>
      </trkpt>
      <trkpt lat="48.11422" lon="4.37414">
        <ele>157.31</ele>
        <time>2021-08-10T18:27:15Z</time>
      </trkpt>
      <trkpt lat="48.1142" lon="4.37399">
        <ele>156.83</ele>
        <time>2021-08-10T18:27:19Z</time>
      </trkpt>
      <trkpt lat="48.11421" lon="4.37397">
        <ele>156.83</ele>
        <time>2021-08-10T18:27:20Z</time>
      </trkpt>
      <trkpt lat="48.11422" lon="4.37396">
        <ele>156.83</ele>
        <time>2021-08-10T18:27:21Z</time>
      </trkpt>
      <trkpt lat="48.1144" lon="4.37393">
        <ele>157.31</ele>
        <time>2021-08-10T18:27:28Z</time>
      </trkpt>
      <trkpt lat="48.11445" lon="4.37386">
        <ele>157.31</ele>
        <time>2021-08-10T18:27:31Z</time>
      </trkpt>
      <trkpt lat="48.11443" lon="4.37381">
        <ele>157.31</ele>
        <time>2021-08-10T18:27:34Z</time>
      </trkpt>
      <trkpt lat="48.11442" lon="4.3738">
        <ele>157.79</ele>
        <time>2021-08-10T18:27:40Z</time>
      </trkpt>
      <trkpt lat="48.11442" lon="4.37381">
        <ele>157.79</ele>
        <time>2021-08-10T18:27:46Z</time>
      </trkpt>
      <trkpt lat="48.11441" lon="4.37383">
        <ele>157.79</ele>
        <time>2021-08-10T18:27:47Z</time>
      </trkpt>
      <trkpt lat="48.11439" lon="4.37384">
        <ele>157.79</ele>
        <time>2021-08-10T18:27:48Z</time>
      </trkpt>
      <trkpt lat="48.11437" lon="4.37385">
        <ele>157.79</ele>
        <time>2021-08-10T18:27:49Z</time>
      </trkpt>
      <trkpt lat="48.11435" lon="4.37385">
        <ele>157.79</ele>
        <time>2021-08-10T18:27:50Z</time>
      </trkpt>
      <trkpt lat="48.11433" lon="4.37386">
        <ele>157.79</ele>
        <time>2021-08-10T18:27:51Z</time>
      </trkpt>
      <trkpt lat="48.11431" lon="4.37387">
        <ele>157.79</ele>
        <time>2021-08-10T18:27:52Z</time>
      </trkpt>
      <trkpt lat="48.11428" lon="4.37389">
        <ele>157.79</ele>
        <time>2021-08-10T18:27:53Z</time>
      </trkpt>
      <trkpt lat="48.11418" lon="4.37394">
        <ele>157.79</ele>
        <time>2021-08-10T18:27:57Z</time>
      </trkpt>
      <trkpt lat="48.11416" lon="4.37395">
        <ele>157.79</ele>
        <time>2021-08-10T18:27:58Z</time>
      </trkpt>
      <trkpt lat="48.11414" lon="4.37395">
        <ele>157.79</ele>
        <time>2021-08-10T18:27:59Z</time>
      </trkpt>
      <trkpt lat="48.11414" lon="4.37393">
        <ele>157.79</ele>
        <time>2021-08-10T18:28:00Z</time>
      </trkpt>
      <trkpt lat="48.11413" lon="4.3739">
        <ele>157.79</ele>
        <time>2021-08-10T18:28:01Z</time>
      </trkpt>
      <trkpt lat="48.11412" lon="4.37387">
        <ele>157.79</ele>
        <time>2021-08-10T18:28:02Z</time>
      </trkpt>
      <trkpt lat="48.11412" lon="4.37384">
        <ele>157.79</ele>
        <time>2021-08-10T18:28:03Z</time>
      </trkpt>
      <trkpt lat="48.11412" lon="4.3738">
        <ele>157.79</ele>
        <time>2021-08-10T18:28:04Z</time>
      </trkpt>
      <trkpt lat="48.11411" lon="4.37376">
        <ele>157.79</ele>
        <time>2021-08-10T18:28:05Z</time>
      </trkpt>
      <trkpt lat="48.11411" lon="4.37373">
        <ele>158.27</ele>
        <time>2021-08-10T18:28:06Z</time>
      </trkpt>
      <trkpt lat="48.11409" lon="4.37355">
        <ele>158.27</ele>
        <time>2021-08-10T18:28:11Z</time>
      </trkpt>
      <trkpt lat="48.1141" lon="4.37352">
        <ele>158.27</ele>
        <time>2021-08-10T18:28:12Z</time>
      </trkpt>
      <trkpt lat="48.11412" lon="4.3735">
        <ele>158.27</ele>
        <time>2021-08-10T18:28:13Z</time>
      </trkpt>
      <trkpt lat="48.11415" lon="4.37349">
        <ele>158.27</ele>
        <time>2021-08-10T18:28:14Z</time>
      </trkpt>
      <trkpt lat="48.11417" lon="4.37348">
        <ele>158.27</ele>
        <time>2021-08-10T18:28:15Z</time>
      </trkpt>
      <trkpt lat="48.11443" lon="4.37337">
        <ele>158.27</ele>
        <time>2021-08-10T18:28:24Z</time>
      </trkpt>
      <trkpt lat="48.11471" lon="4.37322">
        <ele>159.24</ele>
        <time>2021-08-10T18:28:33Z</time>
      </trkpt>
      <trkpt lat="48.11497" lon="4.3731">
        <ele>159.24</ele>
        <time>2021-08-10T18:28:41Z</time>
      </trkpt>
      <trkpt lat="48.11528" lon="4.37299">
        <ele>159.72</ele>
        <time>2021-08-10T18:28:50Z</time>
      </trkpt>
      <trkpt lat="48.11542" lon="4.3729">
        <ele>159.72</ele>
        <time>2021-08-10T18:28:55Z</time>
      </trkpt>
      <trkpt lat="48.11543" lon="4.37286">
        <ele>159.72</ele>
        <time>2021-08-10T18:28:56Z</time>
      </trkpt>
      <trkpt lat="48.11543" lon="4.37282">
        <ele>159.72</ele>
        <time>2021-08-10T18:28:57Z</time>
      </trkpt>
      <trkpt lat="48.11543" lon="4.37278">
        <ele>159.72</ele>
        <time>2021-08-10T18:28:58Z</time>
      </trkpt>
      <trkpt lat="48.11542" lon="4.37275">
        <ele>160.2</ele>
        <time>2021-08-10T18:28:59Z</time>
      </trkpt>
      <trkpt lat="48.11541" lon="4.37272">
        <ele>160.2</ele>
        <time>2021-08-10T18:29:00Z</time>
      </trkpt>
      <trkpt lat="48.11534" lon="4.37256">
        <ele>161.64</ele>
        <time>2021-08-10T18:29:08Z</time>
      </trkpt>
      <trkpt lat="48.11526" lon="4.37239">
        <ele>163.08</ele>
        <time>2021-08-10T18:29:17Z</time>
      </trkpt>
      <trkpt lat="48.11516" lon="4.37223">
        <ele>164.52</ele>
        <time>2021-08-10T18:29:27Z</time>
      </trkpt>
      <trkpt lat="48.11503" lon="4.37208">
        <ele>166.45</ele>
        <time>2021-08-10T18:29:38Z</time>
      </trkpt>
      <trkpt lat="48.1149" lon="4.37194">
        <ele>167.41</ele>
        <time>2021-08-10T18:29:48Z</time>
      </trkpt>
      <trkpt lat="48.11475" lon="4.37178">
        <ele>168.85</ele>
        <time>2021-08-10T18:30:00Z</time>
      </trkpt>
      <trkpt lat="48.11465" lon="4.37171">
        <ele>170.29</ele>
        <time>2021-08-10T18:30:08Z</time>
      </trkpt>
      <trkpt lat="48.11451" lon="4.37159">
        <ele>171.25</ele>
        <time>2021-08-10T18:30:19Z</time>
      </trkpt>
      <trkpt lat="48.11436" lon="4.37147">
        <ele>172.69</ele>
        <time>2021-08-10T18:30:30Z</time>
      </trkpt>
      <trkpt lat="48.11423" lon="4.37137">
        <ele>174.62</ele>
        <time>2021-08-10T18:30:40Z</time>
      </trkpt>
      <trkpt lat="48.11418" lon="4.37134">
        <ele>175.1</ele>
        <time>2021-08-10T18:30:44Z</time>
      </trkpt>
      <trkpt lat="48.11417" lon="4.37133">
        <ele>175.58</ele>
        <time>2021-08-10T18:30:45Z</time>
      </trkpt>
      <trkpt lat="48.11415" lon="4.37132">
        <ele>175.58</ele>
        <time>2021-08-10T18:30:46Z</time>
      </trkpt>
      <trkpt lat="48.11414" lon="4.37132">
        <ele>175.58</ele>
        <time>2021-08-10T18:30:47Z</time>
      </trkpt>
      <trkpt lat="48.11412" lon="4.37131">
        <ele>175.58</ele>
        <time>2021-08-10T18:30:48Z</time>
      </trkpt>
      <trkpt lat="48.1141" lon="4.3713">
        <ele>176.06</ele>
        <time>2021-08-10T18:30:49Z</time>
      </trkpt>
      <trkpt lat="48.11409" lon="4.37129">
        <ele>176.06</ele>
        <time>2021-08-10T18:30:50Z</time>
      </trkpt>
      <trkpt lat="48.11402" lon="4.37124">
        <ele>176.54</ele>
        <time>2021-08-10T18:30:55Z</time>
      </trkpt>
      <trkpt lat="48.114" lon="4.37122">
        <ele>176.54</ele>
        <time>2021-08-10T18:30:56Z</time>
      </trkpt>
      <trkpt lat="48.11399" lon="4.3712">
        <ele>177.02</ele>
        <time>2021-08-10T18:30:57Z</time>
      </trkpt>
      <trkpt lat="48.11398" lon="4.3712">
        <ele>177.02</ele>
        <time>2021-08-10T18:30:58Z</time>
      </trkpt>
      <trkpt lat="48.11396" lon="4.37119">
        <ele>177.02</ele>
        <time>2021-08-10T18:30:59Z</time>
      </trkpt>
      <trkpt lat="48.11395" lon="4.37119">
        <ele>177.5</ele>
        <time>2021-08-10T18:31:00Z</time>
      </trkpt>
      <trkpt lat="48.11386" lon="4.37119">
        <ele>177.5</ele>
        <time>2021-08-10T18:31:04Z</time>
      </trkpt>
      <trkpt lat="48.11373" lon="4.37115">
        <ele>178.94</ele>
        <time>2021-08-10T18:31:13Z</time>
      </trkpt>
      <trkpt lat="48.11362" lon="4.37103">
        <ele>180.87</ele>
        <time>2021-08-10T18:31:23Z</time>
      </trkpt>
      <trkpt lat="48.11351" lon="4.37096">
        <ele>181.83</ele>
        <time>2021-08-10T18:31:31Z</time>
      </trkpt>
      <trkpt lat="48.11341" lon="4.37092">
        <ele>182.31</ele>
        <time>2021-08-10T18:31:37Z</time>
      </trkpt>
      <trkpt lat="48.1134" lon="4.37091">
        <ele>182.31</ele>
        <time>2021-08-10T18:31:38Z</time>
      </trkpt>
      <trkpt lat="48.11339" lon="4.3709">
        <ele>182.31</ele>
        <time>2021-08-10T18:31:39Z</time>
      </trkpt>
      <trkpt lat="48.11325" lon="4.37082">
        <ele>183.75</ele>
        <time>2021-08-10T18:31:47Z</time>
      </trkpt>
      <trkpt lat="48.11307" lon="4.37073">
        <ele>185.19</ele>
        <time>2021-08-10T18:31:57Z</time>
      </trkpt>
      <trkpt lat="48.11293" lon="4.37067">
        <ele>186.15</ele>
        <time>2021-08-10T18:32:05Z</time>
      </trkpt>
      <trkpt lat="48.11272" lon="4.37063">
        <ele>187.59</ele>
        <time>2021-08-10T18:32:16Z</time>
      </trkpt>
      <trkpt lat="48.11256" lon="4.37057">
        <ele>188.56</ele>
        <time>2021-08-10T18:32:25Z</time>
      </trkpt>
      <trkpt lat="48.11244" lon="4.37051">
        <ele>190</ele>
        <time>2021-08-10T18:32:33Z</time>
      </trkpt>
      <trkpt lat="48.11228" lon="4.37043">
        <ele>191.44</ele>
        <time>2021-08-10T18:32:42Z</time>
      </trkpt>
      <trkpt lat="48.11217" lon="4.37037">
        <ele>192.4</ele>
        <time>2021-08-10T18:32:49Z</time>
      </trkpt>
      <trkpt lat="48.11201" lon="4.37023">
        <ele>194.32</ele>
        <time>2021-08-10T18:32:59Z</time>
      </trkpt>
      <trkpt lat="48.11189" lon="4.37013">
        <ele>195.28</ele>
        <time>2021-08-10T18:33:07Z</time>
      </trkpt>
      <trkpt lat="48.11175" lon="4.37">
        <ele>196.25</ele>
        <time>2021-08-10T18:33:15Z</time>
      </trkpt>
      <trkpt lat="48.11164" lon="4.36989">
        <ele>197.69</ele>
        <time>2021-08-10T18:33:23Z</time>
      </trkpt>
      <trkpt lat="48.11155" lon="4.36979">
        <ele>198.65</ele>
        <time>2021-08-10T18:33:29Z</time>
      </trkpt>
      <trkpt lat="48.11154" lon="4.36977">
        <ele>198.65</ele>
        <time>2021-08-10T18:33:30Z</time>
      </trkpt>
      <trkpt lat="48.11153" lon="4.36975">
        <ele>198.65</ele>
        <time>2021-08-10T18:33:31Z</time>
      </trkpt>
      <trkpt lat="48.11152" lon="4.36973">
        <ele>198.65</ele>
        <time>2021-08-10T18:33:32Z</time>
      </trkpt>
      <trkpt lat="48.11152" lon="4.3697">
        <ele>199.13</ele>
        <time>2021-08-10T18:33:33Z</time>
      </trkpt>
      <trkpt lat="48.11151" lon="4.36968">
        <ele>199.13</ele>
        <time>2021-08-10T18:33:34Z</time>
      </trkpt>
      <trkpt lat="48.11144" lon="4.36958">
        <ele>199.61</ele>
        <time>2021-08-10T18:33:40Z</time>
      </trkpt>
      <trkpt lat="48.11143" lon="4.36956">
        <ele>200.09</ele>
        <time>2021-08-10T18:33:41Z</time>
      </trkpt>
      <trkpt lat="48.11142" lon="4.36955">
        <ele>200.09</ele>
        <time>2021-08-10T18:33:42Z</time>
      </trkpt>
      <trkpt lat="48.11133" lon="4.36939">
        <ele>201.05</ele>
        <time>2021-08-10T18:33:50Z</time>
      </trkpt>
      <trkpt lat="48.11123" lon="4.36924">
        <ele>202.49</ele>
        <time>2021-08-10T18:33:58Z</time>
      </trkpt>
      <trkpt lat="48.1111" lon="4.36909">
        <ele>202.98</ele>
        <time>2021-08-10T18:34:05Z</time>
      </trkpt>
      <trkpt lat="48.111" lon="4.36889">
        <ele>203.94</ele>
        <time>2021-08-10T18:34:12Z</time>
      </trkpt>
      <trkpt lat="48.11091" lon="4.36874">
        <ele>204.9</ele>
        <time>2021-08-10T18:34:19Z</time>
      </trkpt>
      <trkpt lat="48.11083" lon="4.36859">
        <ele>205.86</ele>
        <time>2021-08-10T18:34:27Z</time>
      </trkpt>
      <trkpt lat="48.1107" lon="4.36845">
        <ele>207.3</ele>
        <time>2021-08-10T18:34:35Z</time>
      </trkpt>
      <trkpt lat="48.11055" lon="4.36831">
        <ele>208.26</ele>
        <time>2021-08-10T18:34:43Z</time>
      </trkpt>
      <trkpt lat="48.1104" lon="4.36819">
        <ele>209.22</ele>
        <time>2021-08-10T18:34:51Z</time>
      </trkpt>
      <trkpt lat="48.11037" lon="4.36816">
        <ele>209.7</ele>
        <time>2021-08-10T18:34:53Z</time>
      </trkpt>
      <trkpt lat="48.11035" lon="4.36815">
        <ele>209.7</ele>
        <time>2021-08-10T18:34:54Z</time>
      </trkpt>
      <trkpt lat="48.11024" lon="4.36806">
        <ele>211.15</ele>
        <time>2021-08-10T18:35:01Z</time>
      </trkpt>
      <trkpt lat="48.11012" lon="4.36797">
        <ele>212.59</ele>
        <time>2021-08-10T18:35:09Z</time>
      </trkpt>
      <trkpt lat="48.11003" lon="4.3679">
        <ele>213.55</ele>
        <time>2021-08-10T18:35:15Z</time>
      </trkpt>
      <trkpt lat="48.11" lon="4.36783">
        <ele>214.03</ele>
        <time>2021-08-10T18:35:21Z</time>
      </trkpt>
      <trkpt lat="48.10996" lon="4.36777">
        <ele>214.51</ele>
        <time>2021-08-10T18:35:26Z</time>
      </trkpt>
      <trkpt lat="48.10991" lon="4.36769">
        <ele>214.99</ele>
        <time>2021-08-10T18:35:34Z</time>
      </trkpt>
      <trkpt lat="48.1099" lon="4.36766">
        <ele>214.99</ele>
        <time>2021-08-10T18:35:47Z</time>
      </trkpt>
      <trkpt lat="48.10983" lon="4.36765">
        <ele>215.47</ele>
        <time>2021-08-10T18:35:54Z</time>
      </trkpt>
      <trkpt lat="48.10983" lon="4.36766">
        <ele>215.47</ele>
        <time>2021-08-10T18:35:55Z</time>
      </trkpt>
      <trkpt lat="48.10984" lon="4.36768">
        <ele>215.47</ele>
        <time>2021-08-10T18:35:56Z</time>
      </trkpt>
      <trkpt lat="48.10986" lon="4.36769">
        <ele>215.47</ele>
        <time>2021-08-10T18:35:57Z</time>
      </trkpt>
      <trkpt lat="48.10988" lon="4.36771">
        <ele>215.47</ele>
        <time>2021-08-10T18:35:58Z</time>
      </trkpt>
      <trkpt lat="48.10998" lon="4.36781">
        <ele>213.07</ele>
        <time>2021-08-10T18:36:02Z</time>
      </trkpt>
      <trkpt lat="48.11007" lon="4.36788">
        <ele>212.11</ele>
        <time>2021-08-10T18:36:04Z</time>
      </trkpt>
      <trkpt lat="48.11024" lon="4.36802">
        <ele>210.19</ele>
        <time>2021-08-10T18:36:09Z</time>
      </trkpt>
      <trkpt lat="48.11041" lon="4.36816">
        <ele>208.26</ele>
        <time>2021-08-10T18:36:15Z</time>
      </trkpt>
      <trkpt lat="48.1106" lon="4.36836">
        <ele>207.3</ele>
        <time>2021-08-10T18:36:22Z</time>
      </trkpt>
      <trkpt lat="48.1107" lon="4.36844">
        <ele>206.34</ele>
        <time>2021-08-10T18:36:28Z</time>
      </trkpt>
      <trkpt lat="48.11076" lon="4.36846">
        <ele>206.34</ele>
        <time>2021-08-10T18:36:36Z</time>
      </trkpt>
      <trkpt lat="48.11083" lon="4.36854">
        <ele>205.86</ele>
        <time>2021-08-10T18:36:46Z</time>
      </trkpt>
      <trkpt lat="48.11094" lon="4.36873">
        <ele>204.9</ele>
        <time>2021-08-10T18:36:52Z</time>
      </trkpt>
      <trkpt lat="48.11097" lon="4.36878">
        <ele>204.9</ele>
        <time>2021-08-10T18:36:53Z</time>
      </trkpt>
      <trkpt lat="48.11113" lon="4.36903">
        <ele>203.46</ele>
        <time>2021-08-10T18:36:59Z</time>
      </trkpt>
      <trkpt lat="48.11119" lon="4.3692">
        <ele>202.98</ele>
        <time>2021-08-10T18:37:05Z</time>
      </trkpt>
      <trkpt lat="48.1112" lon="4.36923">
        <ele>202.01</ele>
        <time>2021-08-10T18:37:06Z</time>
      </trkpt>
      <trkpt lat="48.11122" lon="4.36925">
        <ele>202.49</ele>
        <time>2021-08-10T18:37:07Z</time>
      </trkpt>
      <trkpt lat="48.11136" lon="4.3695">
        <ele>201.05</ele>
        <time>2021-08-10T18:37:13Z</time>
      </trkpt>
      <trkpt lat="48.11151" lon="4.36975">
        <ele>199.61</ele>
        <time>2021-08-10T18:37:19Z</time>
      </trkpt>
      <trkpt lat="48.11151" lon="4.36978">
        <ele>199.61</ele>
        <time>2021-08-10T18:37:20Z</time>
      </trkpt>
      <trkpt lat="48.11152" lon="4.3698">
        <ele>199.61</ele>
        <time>2021-08-10T18:37:21Z</time>
      </trkpt>
      <trkpt lat="48.11152" lon="4.36985">
        <ele>199.61</ele>
        <time>2021-08-10T18:37:24Z</time>
      </trkpt>
      <trkpt lat="48.11151" lon="4.36985">
        <ele>199.61</ele>
        <time>2021-08-10T18:37:25Z</time>
      </trkpt>
      <trkpt lat="48.1115" lon="4.36986">
        <ele>201.53</ele>
        <time>2021-08-10T18:37:29Z</time>
      </trkpt>
      <trkpt lat="48.11142" lon="4.36985">
        <ele>202.49</ele>
        <time>2021-08-10T18:37:35Z</time>
      </trkpt>
      <trkpt lat="48.11138" lon="4.36982">
        <ele>204.42</ele>
        <time>2021-08-10T18:37:42Z</time>
      </trkpt>
      <trkpt lat="48.11136" lon="4.3698">
        <ele>205.38</ele>
        <time>2021-08-10T18:37:48Z</time>
      </trkpt>
      <trkpt lat="48.11131" lon="4.36976">
        <ele>206.82</ele>
        <time>2021-08-10T18:37:57Z</time>
      </trkpt>
      <trkpt lat="48.11126" lon="4.36971">
        <ele>208.26</ele>
        <time>2021-08-10T18:38:06Z</time>
      </trkpt>
      <trkpt lat="48.11119" lon="4.36963">
        <ele>209.22</ele>
        <time>2021-08-10T18:38:16Z</time>
      </trkpt>
      <trkpt lat="48.11118" lon="4.36961">
        <ele>209.7</ele>
        <time>2021-08-10T18:38:20Z</time>
      </trkpt>
      <trkpt lat="48.11109" lon="4.36951">
        <ele>210.19</ele>
        <time>2021-08-10T18:38:27Z</time>
      </trkpt>
      <trkpt lat="48.11097" lon="4.36932">
        <ele>211.63</ele>
        <time>2021-08-10T18:38:36Z</time>
      </trkpt>
      <trkpt lat="48.11088" lon="4.36916">
        <ele>211.63</ele>
        <time>2021-08-10T18:38:43Z</time>
      </trkpt>
      <trkpt lat="48.1108" lon="4.36905">
        <ele>212.59</ele>
        <time>2021-08-10T18:38:49Z</time>
      </trkpt>
      <trkpt lat="48.1107" lon="4.36892">
        <ele>213.55</ele>
        <time>2021-08-10T18:38:56Z</time>
      </trkpt>
      <trkpt lat="48.11061" lon="4.3688">
        <ele>214.51</ele>
        <time>2021-08-10T18:39:03Z</time>
      </trkpt>
      <trkpt lat="48.11047" lon="4.36865">
        <ele>215.95</ele>
        <time>2021-08-10T18:39:11Z</time>
      </trkpt>
      <trkpt lat="48.11037" lon="4.36857">
        <ele>216.91</ele>
        <time>2021-08-10T18:39:17Z</time>
      </trkpt>
      <trkpt lat="48.1102" lon="4.36849">
        <ele>217.88</ele>
        <time>2021-08-10T18:39:26Z</time>
      </trkpt>
      <trkpt lat="48.11012" lon="4.36847">
        <ele>218.84</ele>
        <time>2021-08-10T18:39:30Z</time>
      </trkpt>
      <trkpt lat="48.1101" lon="4.36847">
        <ele>219.8</ele>
        <time>2021-08-10T18:39:31Z</time>
      </trkpt>
      <trkpt lat="48.11005" lon="4.36847">
        <ele>219.8</ele>
        <time>2021-08-10T18:39:34Z</time>
      </trkpt>
      <trkpt lat="48.11004" lon="4.36846">
        <ele>219.8</ele>
        <time>2021-08-10T18:39:35Z</time>
      </trkpt>
      <trkpt lat="48.11002" lon="4.36845">
        <ele>219.8</ele>
        <time>2021-08-10T18:39:36Z</time>
      </trkpt>
      <trkpt lat="48.11001" lon="4.36844">
        <ele>220.28</ele>
        <time>2021-08-10T18:39:37Z</time>
      </trkpt>
      <trkpt lat="48.11" lon="4.36843">
        <ele>220.28</ele>
        <time>2021-08-10T18:39:38Z</time>
      </trkpt>
      <trkpt lat="48.10998" lon="4.36842">
        <ele>220.28</ele>
        <time>2021-08-10T18:39:39Z</time>
      </trkpt>
      <trkpt lat="48.10997" lon="4.36841">
        <ele>220.28</ele>
        <time>2021-08-10T18:39:40Z</time>
      </trkpt>
      <trkpt lat="48.10995" lon="4.36839">
        <ele>220.28</ele>
        <time>2021-08-10T18:39:41Z</time>
      </trkpt>
      <trkpt lat="48.10993" lon="4.36838">
        <ele>220.76</ele>
        <time>2021-08-10T18:39:42Z</time>
      </trkpt>
      <trkpt lat="48.10992" lon="4.36837">
        <ele>220.76</ele>
        <time>2021-08-10T18:39:43Z</time>
      </trkpt>
      <trkpt lat="48.10977" lon="4.36828">
        <ele>221.24</ele>
        <time>2021-08-10T18:39:51Z</time>
      </trkpt>
      <trkpt lat="48.10962" lon="4.36821">
        <ele>222.68</ele>
        <time>2021-08-10T18:39:59Z</time>
      </trkpt>
      <trkpt lat="48.10946" lon="4.36813">
        <ele>223.64</ele>
        <time>2021-08-10T18:40:07Z</time>
      </trkpt>
      <trkpt lat="48.10924" lon="4.36803">
        <ele>225.09</ele>
        <time>2021-08-10T18:40:17Z</time>
      </trkpt>
      <trkpt lat="48.10899" lon="4.36793">
        <ele>226.53</ele>
        <time>2021-08-10T18:40:28Z</time>
      </trkpt>
      <trkpt lat="48.10875" lon="4.36783">
        <ele>227.97</ele>
        <time>2021-08-10T18:40:39Z</time>
      </trkpt>
      <trkpt lat="48.10852" lon="4.36773">
        <ele>229.89</ele>
        <time>2021-08-10T18:40:50Z</time>
      </trkpt>
      <trkpt lat="48.10834" lon="4.36766">
        <ele>230.85</ele>
        <time>2021-08-10T18:40:58Z</time>
      </trkpt>
      <trkpt lat="48.10822" lon="4.36762">
        <ele>231.81</ele>
        <time>2021-08-10T18:41:03Z</time>
      </trkpt>
      <trkpt lat="48.10808" lon="4.36749">
        <ele>232.78</ele>
        <time>2021-08-10T18:41:11Z</time>
      </trkpt>
      <trkpt lat="48.10806" lon="4.36726">
        <ele>233.26</ele>
        <time>2021-08-10T18:41:17Z</time>
      </trkpt>
      <trkpt lat="48.10813" lon="4.36707">
        <ele>233.26</ele>
        <time>2021-08-10T18:41:21Z</time>
      </trkpt>
      <trkpt lat="48.10817" lon="4.36696">
        <ele>232.3</ele>
        <time>2021-08-10T18:41:23Z</time>
      </trkpt>
      <trkpt lat="48.10838" lon="4.36643">
        <ele>229.41</ele>
        <time>2021-08-10T18:41:30Z</time>
      </trkpt>
      <trkpt lat="48.1086" lon="4.3658">
        <ele>228.93</ele>
        <time>2021-08-10T18:41:37Z</time>
      </trkpt>
      <trkpt lat="48.10862" lon="4.36573">
        <ele>228.93</ele>
        <time>2021-08-10T18:41:38Z</time>
      </trkpt>
      <trkpt lat="48.10862" lon="4.36541">
        <ele>230.37</ele>
        <time>2021-08-10T18:41:44Z</time>
      </trkpt>
      <trkpt lat="48.10853" lon="4.365">
        <ele>233.26</ele>
        <time>2021-08-10T18:41:53Z</time>
      </trkpt>
      <trkpt lat="48.10841" lon="4.36456">
        <ele>234.7</ele>
        <time>2021-08-10T18:42:03Z</time>
      </trkpt>
      <trkpt lat="48.10828" lon="4.36408">
        <ele>236.62</ele>
        <time>2021-08-10T18:42:14Z</time>
      </trkpt>
      <trkpt lat="48.10821" lon="4.36362">
        <ele>237.58</ele>
        <time>2021-08-10T18:42:24Z</time>
      </trkpt>
      <trkpt lat="48.10816" lon="4.36309">
        <ele>237.58</ele>
        <time>2021-08-10T18:42:34Z</time>
      </trkpt>
      <trkpt lat="48.10813" lon="4.36277">
        <ele>238.06</ele>
        <time>2021-08-10T18:42:42Z</time>
      </trkpt>
      <trkpt lat="48.10814" lon="4.36277">
        <ele>238.06</ele>
        <time>2021-08-10T18:42:58Z</time>
      </trkpt>
      <trkpt lat="48.10814" lon="4.36277">
        <ele>238.06</ele>
        <time>2021-08-10T18:43:19Z</time>
      </trkpt>
      <trkpt lat="48.10814" lon="4.36276">
        <ele>238.06</ele>
        <time>2021-08-10T18:43:34Z</time>
      </trkpt>
      <trkpt lat="48.10814" lon="4.36276">
        <ele>238.06</ele>
        <time>2021-08-10T18:43:47Z</time>
      </trkpt>
      <trkpt lat="48.10815" lon="4.36276">
        <ele>238.06</ele>
        <time>2021-08-10T18:44:08Z</time>
      </trkpt>
      <trkpt lat="48.10814" lon="4.36276">
        <ele>238.06</ele>
        <time>2021-08-10T18:44:20Z</time>
      </trkpt>
      <trkpt lat="48.10814" lon="4.36276">
        <ele>238.06</ele>
        <time>2021-08-10T18:44:40Z</time>
      </trkpt>
      <trkpt lat="48.10814" lon="4.36275">
        <ele>238.06</ele>
        <time>2021-08-10T18:44:46Z</time>
      </trkpt>
      <trkpt lat="48.10815" lon="4.3626">
        <ele>238.06</ele>
        <time>2021-08-10T18:44:51Z</time>
      </trkpt>
      <trkpt lat="48.10815" lon="4.36217">
        <ele>236.62</ele>
        <time>2021-08-10T18:44:59Z</time>
      </trkpt>
      <trkpt lat="48.10822" lon="4.36183">
        <ele>236.14</ele>
        <time>2021-08-10T18:45:04Z</time>
      </trkpt>
      <trkpt lat="48.10824" lon="4.36176">
        <ele>236.14</ele>
        <time>2021-08-10T18:45:05Z</time>
      </trkpt>
      <trkpt lat="48.10827" lon="4.36168">
        <ele>235.66</ele>
        <time>2021-08-10T18:45:06Z</time>
      </trkpt>
      <trkpt lat="48.10843" lon="4.3612">
        <ele>234.22</ele>
        <time>2021-08-10T18:45:12Z</time>
      </trkpt>
      <trkpt lat="48.10844" lon="4.3611">
        <ele>233.74</ele>
        <time>2021-08-10T18:45:13Z</time>
      </trkpt>
      <trkpt lat="48.10844" lon="4.36099">
        <ele>233.26</ele>
        <time>2021-08-10T18:45:14Z</time>
      </trkpt>
      <trkpt lat="48.10842" lon="4.36089">
        <ele>232.78</ele>
        <time>2021-08-10T18:45:15Z</time>
      </trkpt>
      <trkpt lat="48.1084" lon="4.36079">
        <ele>232.78</ele>
        <time>2021-08-10T18:45:16Z</time>
      </trkpt>
      <trkpt lat="48.10837" lon="4.36069">
        <ele>232.78</ele>
        <time>2021-08-10T18:45:17Z</time>
      </trkpt>
      <trkpt lat="48.10809" lon="4.35997">
        <ele>231.81</ele>
        <time>2021-08-10T18:45:25Z</time>
      </trkpt>
      <trkpt lat="48.10777" lon="4.3594">
        <ele>231.81</ele>
        <time>2021-08-10T18:45:33Z</time>
      </trkpt>
      <trkpt lat="48.10754" lon="4.35891">
        <ele>231.81</ele>
        <time>2021-08-10T18:45:40Z</time>
      </trkpt>
      <trkpt lat="48.10753" lon="4.35883">
        <ele>231.81</ele>
        <time>2021-08-10T18:45:41Z</time>
      </trkpt>
      <trkpt lat="48.10748" lon="4.35846">
        <ele>233.26</ele>
        <time>2021-08-10T18:45:46Z</time>
      </trkpt>
      <trkpt lat="48.10747" lon="4.35798">
        <ele>234.22</ele>
        <time>2021-08-10T18:45:54Z</time>
      </trkpt>
      <trkpt lat="48.10747" lon="4.35771">
        <ele>236.14</ele>
        <time>2021-08-10T18:46:01Z</time>
      </trkpt>
      <trkpt lat="48.10744" lon="4.35747">
        <ele>236.14</ele>
        <time>2021-08-10T18:46:07Z</time>
      </trkpt>
      <trkpt lat="48.10731" lon="4.35712">
        <ele>237.1</ele>
        <time>2021-08-10T18:46:15Z</time>
      </trkpt>
      <trkpt lat="48.10712" lon="4.35668">
        <ele>238.06</ele>
        <time>2021-08-10T18:46:25Z</time>
      </trkpt>
      <trkpt lat="48.1069" lon="4.35614">
        <ele>238.54</ele>
        <time>2021-08-10T18:46:36Z</time>
      </trkpt>
      <trkpt lat="48.10668" lon="4.35559">
        <ele>239.51</ele>
        <time>2021-08-10T18:46:47Z</time>
      </trkpt>
      <trkpt lat="48.10645" lon="4.35503">
        <ele>239.99</ele>
        <time>2021-08-10T18:46:58Z</time>
      </trkpt>
      <trkpt lat="48.1062" lon="4.35442">
        <ele>240.47</ele>
        <time>2021-08-10T18:47:10Z</time>
      </trkpt>
      <trkpt lat="48.10595" lon="4.35382">
        <ele>240.95</ele>
        <time>2021-08-10T18:47:20Z</time>
      </trkpt>
      <trkpt lat="48.10566" lon="4.35313">
        <ele>239.51</ele>
        <time>2021-08-10T18:47:30Z</time>
      </trkpt>
      <trkpt lat="48.10523" lon="4.35207">
        <ele>238.54</ele>
        <time>2021-08-10T18:47:44Z</time>
      </trkpt>
      <trkpt lat="48.10479" lon="4.35103">
        <ele>237.1</ele>
        <time>2021-08-10T18:47:57Z</time>
      </trkpt>
      <trkpt lat="48.10439" lon="4.35008">
        <ele>235.66</ele>
        <time>2021-08-10T18:48:09Z</time>
      </trkpt>
      <trkpt lat="48.104" lon="4.34913">
        <ele>235.66</ele>
        <time>2021-08-10T18:48:21Z</time>
      </trkpt>
      <trkpt lat="48.10363" lon="4.34824">
        <ele>235.66</ele>
        <time>2021-08-10T18:48:33Z</time>
      </trkpt>
      <trkpt lat="48.10322" lon="4.34721">
        <ele>235.18</ele>
        <time>2021-08-10T18:48:46Z</time>
      </trkpt>
      <trkpt lat="48.10284" lon="4.34627">
        <ele>233.74</ele>
        <time>2021-08-10T18:48:58Z</time>
      </trkpt>
      <trkpt lat="48.10248" lon="4.34542">
        <ele>233.26</ele>
        <time>2021-08-10T18:49:09Z</time>
      </trkpt>
      <trkpt lat="48.10212" lon="4.34478">
        <ele>231.81</ele>
        <time>2021-08-10T18:49:18Z</time>
      </trkpt>
      <trkpt lat="48.10179" lon="4.34421">
        <ele>231.81</ele>
        <time>2021-08-10T18:49:26Z</time>
      </trkpt>
      <trkpt lat="48.10143" lon="4.34363">
        <ele>231.81</ele>
        <time>2021-08-10T18:49:35Z</time>
      </trkpt>
      <trkpt lat="48.1012" lon="4.34325">
        <ele>233.26</ele>
        <time>2021-08-10T18:49:41Z</time>
      </trkpt>
      <trkpt lat="48.10077" lon="4.34255">
        <ele>233.74</ele>
        <time>2021-08-10T18:49:52Z</time>
      </trkpt>
      <trkpt lat="48.10048" lon="4.34209">
        <ele>232.3</ele>
        <time>2021-08-10T18:49:59Z</time>
      </trkpt>
      <trkpt lat="48.09997" lon="4.34125">
        <ele>231.33</ele>
        <time>2021-08-10T18:50:11Z</time>
      </trkpt>
      <trkpt lat="48.09949" lon="4.34046">
        <ele>230.85</ele>
        <time>2021-08-10T18:50:22Z</time>
      </trkpt>
      <trkpt lat="48.09908" lon="4.33982">
        <ele>231.33</ele>
        <time>2021-08-10T18:50:32Z</time>
      </trkpt>
      <trkpt lat="48.09873" lon="4.33928">
        <ele>233.26</ele>
        <time>2021-08-10T18:50:42Z</time>
      </trkpt>
      <trkpt lat="48.09841" lon="4.33882">
        <ele>234.22</ele>
        <time>2021-08-10T18:50:51Z</time>
      </trkpt>
      <trkpt lat="48.09838" lon="4.33876">
        <ele>234.22</ele>
        <time>2021-08-10T18:50:52Z</time>
      </trkpt>
      <trkpt lat="48.0981" lon="4.33834">
        <ele>235.18</ele>
        <time>2021-08-10T18:51:00Z</time>
      </trkpt>
      <trkpt lat="48.09778" lon="4.33784">
        <ele>235.66</ele>
        <time>2021-08-10T18:51:10Z</time>
      </trkpt>
      <trkpt lat="48.09751" lon="4.33736">
        <ele>236.14</ele>
        <time>2021-08-10T18:51:19Z</time>
      </trkpt>
      <trkpt lat="48.09721" lon="4.33678">
        <ele>236.14</ele>
        <time>2021-08-10T18:51:29Z</time>
      </trkpt>
      <trkpt lat="48.09688" lon="4.33613">
        <ele>236.62</ele>
        <time>2021-08-10T18:51:40Z</time>
      </trkpt>
      <trkpt lat="48.09653" lon="4.33542">
        <ele>236.62</ele>
        <time>2021-08-10T18:51:52Z</time>
      </trkpt>
      <trkpt lat="48.09622" lon="4.33483">
        <ele>237.1</ele>
        <time>2021-08-10T18:52:02Z</time>
      </trkpt>
      <trkpt lat="48.09581" lon="4.33401">
        <ele>237.1</ele>
        <time>2021-08-10T18:52:16Z</time>
      </trkpt>
      <trkpt lat="48.09541" lon="4.33323">
        <ele>237.58</ele>
        <time>2021-08-10T18:52:29Z</time>
      </trkpt>
      <trkpt lat="48.09503" lon="4.33247">
        <ele>237.58</ele>
        <time>2021-08-10T18:52:41Z</time>
      </trkpt>
      <trkpt lat="48.0947" lon="4.33183">
        <ele>237.58</ele>
        <time>2021-08-10T18:52:51Z</time>
      </trkpt>
      <trkpt lat="48.09442" lon="4.33127">
        <ele>235.66</ele>
        <time>2021-08-10T18:53:00Z</time>
      </trkpt>
      <trkpt lat="48.09413" lon="4.33071">
        <ele>235.18</ele>
        <time>2021-08-10T18:53:09Z</time>
      </trkpt>
      <trkpt lat="48.0938" lon="4.33005">
        <ele>232.3</ele>
        <time>2021-08-10T18:53:18Z</time>
      </trkpt>
      <trkpt lat="48.09344" lon="4.32932">
        <ele>229.41</ele>
        <time>2021-08-10T18:53:26Z</time>
      </trkpt>
      <trkpt lat="48.09302" lon="4.32848">
        <ele>226.05</ele>
        <time>2021-08-10T18:53:34Z</time>
      </trkpt>
      <trkpt lat="48.09261" lon="4.32751">
        <ele>223.64</ele>
        <time>2021-08-10T18:53:42Z</time>
      </trkpt>
      <trkpt lat="48.09223" lon="4.32645">
        <ele>220.76</ele>
        <time>2021-08-10T18:53:50Z</time>
      </trkpt>
      <trkpt lat="48.09214" lon="4.32618">
        <ele>219.8</ele>
        <time>2021-08-10T18:53:52Z</time>
      </trkpt>
      <trkpt lat="48.09189" lon="4.32544">
        <ele>216.43</ele>
        <time>2021-08-10T18:53:57Z</time>
      </trkpt>
      <trkpt lat="48.0917" lon="4.3248">
        <ele>213.07</ele>
        <time>2021-08-10T18:54:01Z</time>
      </trkpt>
      <trkpt lat="48.09147" lon="4.32418">
        <ele>209.7</ele>
        <time>2021-08-10T18:54:05Z</time>
      </trkpt>
      <trkpt lat="48.09124" lon="4.32374">
        <ele>206.82</ele>
        <time>2021-08-10T18:54:08Z</time>
      </trkpt>
      <trkpt lat="48.09092" lon="4.32311">
        <ele>203.46</ele>
        <time>2021-08-10T18:54:12Z</time>
      </trkpt>
      <trkpt lat="48.09071" lon="4.32262">
        <ele>202.01</ele>
        <time>2021-08-10T18:54:15Z</time>
      </trkpt>
      <trkpt lat="48.09043" lon="4.32193">
        <ele>198.17</ele>
        <time>2021-08-10T18:54:19Z</time>
      </trkpt>
      <trkpt lat="48.09032" lon="4.32155">
        <ele>196.73</ele>
        <time>2021-08-10T18:54:21Z</time>
      </trkpt>
      <trkpt lat="48.09021" lon="4.32074">
        <ele>193.36</ele>
        <time>2021-08-10T18:54:25Z</time>
      </trkpt>
      <trkpt lat="48.0902" lon="4.32054">
        <ele>193.36</ele>
        <time>2021-08-10T18:54:26Z</time>
      </trkpt>
      <trkpt lat="48.09024" lon="4.3196">
        <ele>193.36</ele>
        <time>2021-08-10T18:54:31Z</time>
      </trkpt>
      <trkpt lat="48.09023" lon="4.31896">
        <ele>194.8</ele>
        <time>2021-08-10T18:54:35Z</time>
      </trkpt>
      <trkpt lat="48.09019" lon="4.31855">
        <ele>196.25</ele>
        <time>2021-08-10T18:54:38Z</time>
      </trkpt>
      <trkpt lat="48.09008" lon="4.31771">
        <ele>197.21</ele>
        <time>2021-08-10T18:54:45Z</time>
      </trkpt>
      <trkpt lat="48.08997" lon="4.3169">
        <ele>199.13</ele>
        <time>2021-08-10T18:54:53Z</time>
      </trkpt>
      <trkpt lat="48.08986" lon="4.31612">
        <ele>199.61</ele>
        <time>2021-08-10T18:55:02Z</time>
      </trkpt>
      <trkpt lat="48.08975" lon="4.31533">
        <ele>200.57</ele>
        <time>2021-08-10T18:55:12Z</time>
      </trkpt>
      <trkpt lat="48.08962" lon="4.31441">
        <ele>200.57</ele>
        <time>2021-08-10T18:55:23Z</time>
      </trkpt>
      <trkpt lat="48.08948" lon="4.31335">
        <ele>200.57</ele>
        <time>2021-08-10T18:55:35Z</time>
      </trkpt>
      <trkpt lat="48.08934" lon="4.31237">
        <ele>200.57</ele>
        <time>2021-08-10T18:55:46Z</time>
      </trkpt>
      <trkpt lat="48.08919" lon="4.31137">
        <ele>200.57</ele>
        <time>2021-08-10T18:55:57Z</time>
      </trkpt>
      <trkpt lat="48.08913" lon="4.31092">
        <ele>200.57</ele>
        <time>2021-08-10T18:56:02Z</time>
      </trkpt>
      <trkpt lat="48.08912" lon="4.31082">
        <ele>200.57</ele>
        <time>2021-08-10T18:56:03Z</time>
      </trkpt>
      <trkpt lat="48.08899" lon="4.30997">
        <ele>200.57</ele>
        <time>2021-08-10T18:56:12Z</time>
      </trkpt>
      <trkpt lat="48.08882" lon="4.3088">
        <ele>200.57</ele>
        <time>2021-08-10T18:56:24Z</time>
      </trkpt>
      <trkpt lat="48.08878" lon="4.3086">
        <ele>199.13</ele>
        <time>2021-08-10T18:56:26Z</time>
      </trkpt>
      <trkpt lat="48.08859" lon="4.3073">
        <ele>198.17</ele>
        <time>2021-08-10T18:56:39Z</time>
      </trkpt>
      <trkpt lat="48.0884" lon="4.30594">
        <ele>196.25</ele>
        <time>2021-08-10T18:56:52Z</time>
      </trkpt>
      <trkpt lat="48.08835" lon="4.3056">
        <ele>194.8</ele>
        <time>2021-08-10T18:56:55Z</time>
      </trkpt>
      <trkpt lat="48.08832" lon="4.30499">
        <ele>192.4</ele>
        <time>2021-08-10T18:57:00Z</time>
      </trkpt>
      <trkpt lat="48.0884" lon="4.30432">
        <ele>189.52</ele>
        <time>2021-08-10T18:57:05Z</time>
      </trkpt>
      <trkpt lat="48.08847" lon="4.30388">
        <ele>187.59</ele>
        <time>2021-08-10T18:57:08Z</time>
      </trkpt>
      <trkpt lat="48.08858" lon="4.30325">
        <ele>184.23</ele>
        <time>2021-08-10T18:57:12Z</time>
      </trkpt>
      <trkpt lat="48.08872" lon="4.30242">
        <ele>180.38</ele>
        <time>2021-08-10T18:57:17Z</time>
      </trkpt>
      <trkpt lat="48.08878" lon="4.3018">
        <ele>178.94</ele>
        <time>2021-08-10T18:57:21Z</time>
      </trkpt>
      <trkpt lat="48.08876" lon="4.30165">
        <ele>177.98</ele>
        <time>2021-08-10T18:57:22Z</time>
      </trkpt>
      <trkpt lat="48.08872" lon="4.3015">
        <ele>177.98</ele>
        <time>2021-08-10T18:57:23Z</time>
      </trkpt>
      <trkpt lat="48.08866" lon="4.30138">
        <ele>177.5</ele>
        <time>2021-08-10T18:57:24Z</time>
      </trkpt>
      <trkpt lat="48.08858" lon="4.30128">
        <ele>177.02</ele>
        <time>2021-08-10T18:57:25Z</time>
      </trkpt>
      <trkpt lat="48.08849" lon="4.30121">
        <ele>176.54</ele>
        <time>2021-08-10T18:57:26Z</time>
      </trkpt>
      <trkpt lat="48.08838" lon="4.30119">
        <ele>175.58</ele>
        <time>2021-08-10T18:57:27Z</time>
      </trkpt>
      <trkpt lat="48.08828" lon="4.30121">
        <ele>175.1</ele>
        <time>2021-08-10T18:57:28Z</time>
      </trkpt>
      <trkpt lat="48.08818" lon="4.30127">
        <ele>175.1</ele>
        <time>2021-08-10T18:57:29Z</time>
      </trkpt>
      <trkpt lat="48.08808" lon="4.30136">
        <ele>175.1</ele>
        <time>2021-08-10T18:57:30Z</time>
      </trkpt>
      <trkpt lat="48.08801" lon="4.30145">
        <ele>174.14</ele>
        <time>2021-08-10T18:57:31Z</time>
      </trkpt>
      <trkpt lat="48.08794" lon="4.30153">
        <ele>173.66</ele>
        <time>2021-08-10T18:57:32Z</time>
      </trkpt>
      <trkpt lat="48.08773" lon="4.30176">
        <ele>173.66</ele>
        <time>2021-08-10T18:57:35Z</time>
      </trkpt>
      <trkpt lat="48.08766" lon="4.3018">
        <ele>173.17</ele>
        <time>2021-08-10T18:57:36Z</time>
      </trkpt>
      <trkpt lat="48.08758" lon="4.30183">
        <ele>173.17</ele>
        <time>2021-08-10T18:57:37Z</time>
      </trkpt>
      <trkpt lat="48.08751" lon="4.30185">
        <ele>173.17</ele>
        <time>2021-08-10T18:57:38Z</time>
      </trkpt>
      <trkpt lat="48.08744" lon="4.30185">
        <ele>172.21</ele>
        <time>2021-08-10T18:57:39Z</time>
      </trkpt>
      <trkpt lat="48.08736" lon="4.30184">
        <ele>172.21</ele>
        <time>2021-08-10T18:57:40Z</time>
      </trkpt>
      <trkpt lat="48.0873" lon="4.30183">
        <ele>172.21</ele>
        <time>2021-08-10T18:57:41Z</time>
      </trkpt>
      <trkpt lat="48.08677" lon="4.30172">
        <ele>171.73</ele>
        <time>2021-08-10T18:57:49Z</time>
      </trkpt>
      <trkpt lat="48.08626" lon="4.30161">
        <ele>171.73</ele>
        <time>2021-08-10T18:57:57Z</time>
      </trkpt>
      <trkpt lat="48.08566" lon="4.30149">
        <ele>171.25</ele>
        <time>2021-08-10T18:58:07Z</time>
      </trkpt>
      <trkpt lat="48.08515" lon="4.30138">
        <ele>171.25</ele>
        <time>2021-08-10T18:58:16Z</time>
      </trkpt>
      <trkpt lat="48.08494" lon="4.30132">
        <ele>171.25</ele>
        <time>2021-08-10T18:58:20Z</time>
      </trkpt>
      <trkpt lat="48.08488" lon="4.30132">
        <ele>171.25</ele>
        <time>2021-08-10T18:58:21Z</time>
      </trkpt>
      <trkpt lat="48.08482" lon="4.30133">
        <ele>171.25</ele>
        <time>2021-08-10T18:58:22Z</time>
      </trkpt>
      <trkpt lat="48.08478" lon="4.30135">
        <ele>171.25</ele>
        <time>2021-08-10T18:58:23Z</time>
      </trkpt>
      <trkpt lat="48.08472" lon="4.30137">
        <ele>171.25</ele>
        <time>2021-08-10T18:58:24Z</time>
      </trkpt>
      <trkpt lat="48.0843" lon="4.30142">
        <ele>171.25</ele>
        <time>2021-08-10T18:58:32Z</time>
      </trkpt>
      <trkpt lat="48.08425" lon="4.30142">
        <ele>171.25</ele>
        <time>2021-08-10T18:58:33Z</time>
      </trkpt>
      <trkpt lat="48.08381" lon="4.30135">
        <ele>172.69</ele>
        <time>2021-08-10T18:58:42Z</time>
      </trkpt>
      <trkpt lat="48.08331" lon="4.30117">
        <ele>172.69</ele>
        <time>2021-08-10T18:58:52Z</time>
      </trkpt>
      <trkpt lat="48.0828" lon="4.30103">
        <ele>172.69</ele>
        <time>2021-08-10T18:59:02Z</time>
      </trkpt>
      <trkpt lat="48.08226" lon="4.30088">
        <ele>173.17</ele>
        <time>2021-08-10T18:59:13Z</time>
      </trkpt>
      <trkpt lat="48.08222" lon="4.30087">
        <ele>173.17</ele>
        <time>2021-08-10T18:59:14Z</time>
      </trkpt>
      <trkpt lat="48.08217" lon="4.30087">
        <ele>173.17</ele>
        <time>2021-08-10T18:59:15Z</time>
      </trkpt>
      <trkpt lat="48.08213" lon="4.30087">
        <ele>173.17</ele>
        <time>2021-08-10T18:59:16Z</time>
      </trkpt>
      <trkpt lat="48.08208" lon="4.30088">
        <ele>173.66</ele>
        <time>2021-08-10T18:59:17Z</time>
      </trkpt>
      <trkpt lat="48.08204" lon="4.3009">
        <ele>173.66</ele>
        <time>2021-08-10T18:59:18Z</time>
      </trkpt>
      <trkpt lat="48.082" lon="4.30092">
        <ele>174.14</ele>
        <time>2021-08-10T18:59:19Z</time>
      </trkpt>
      <trkpt lat="48.08197" lon="4.30094">
        <ele>174.14</ele>
        <time>2021-08-10T18:59:20Z</time>
      </trkpt>
      <trkpt lat="48.08194" lon="4.30097">
        <ele>174.14</ele>
        <time>2021-08-10T18:59:21Z</time>
      </trkpt>
      <trkpt lat="48.0817" lon="4.30119">
        <ele>175.58</ele>
        <time>2021-08-10T18:59:29Z</time>
      </trkpt>
      <trkpt lat="48.08153" lon="4.30134">
        <ele>177.02</ele>
        <time>2021-08-10T18:59:36Z</time>
      </trkpt>
      <trkpt lat="48.08133" lon="4.30145">
        <ele>178.46</ele>
        <time>2021-08-10T18:59:43Z</time>
      </trkpt>
      <trkpt lat="48.08109" lon="4.3016">
        <ele>179.9</ele>
        <time>2021-08-10T18:59:51Z</time>
      </trkpt>
      <trkpt lat="48.0809" lon="4.30175">
        <ele>180.87</ele>
        <time>2021-08-10T18:59:58Z</time>
      </trkpt>
      <trkpt lat="48.08072" lon="4.30189">
        <ele>181.83</ele>
        <time>2021-08-10T19:00:05Z</time>
      </trkpt>
      <trkpt lat="48.08051" lon="4.30202">
        <ele>182.79</ele>
        <time>2021-08-10T19:00:13Z</time>
      </trkpt>
      <trkpt lat="48.08025" lon="4.30219">
        <ele>183.75</ele>
        <time>2021-08-10T19:00:22Z</time>
      </trkpt>
      <trkpt lat="48.08" lon="4.30231">
        <ele>184.71</ele>
        <time>2021-08-10T19:00:31Z</time>
      </trkpt>
      <trkpt lat="48.07975" lon="4.30236">
        <ele>186.15</ele>
        <time>2021-08-10T19:00:40Z</time>
      </trkpt>
      <trkpt lat="48.07949" lon="4.30234">
        <ele>187.59</ele>
        <time>2021-08-10T19:00:49Z</time>
      </trkpt>
      <trkpt lat="48.07931" lon="4.30231">
        <ele>188.56</ele>
        <time>2021-08-10T19:00:55Z</time>
      </trkpt>
      <trkpt lat="48.07912" lon="4.30228">
        <ele>190</ele>
        <time>2021-08-10T19:01:02Z</time>
      </trkpt>
      <trkpt lat="48.07886" lon="4.30226">
        <ele>190.96</ele>
        <time>2021-08-10T19:01:11Z</time>
      </trkpt>
      <trkpt lat="48.07863" lon="4.30232">
        <ele>191.92</ele>
        <time>2021-08-10T19:01:19Z</time>
      </trkpt>
      <trkpt lat="48.07831" lon="4.30246">
        <ele>192.88</ele>
        <time>2021-08-10T19:01:29Z</time>
      </trkpt>
      <trkpt lat="48.07807" lon="4.30258">
        <ele>193.36</ele>
        <time>2021-08-10T19:01:36Z</time>
      </trkpt>
      <trkpt lat="48.07781" lon="4.30265">
        <ele>194.32</ele>
        <time>2021-08-10T19:01:44Z</time>
      </trkpt>
      <trkpt lat="48.0776" lon="4.30264">
        <ele>195.77</ele>
        <time>2021-08-10T19:01:51Z</time>
      </trkpt>
      <trkpt lat="48.07734" lon="4.30261">
        <ele>196.73</ele>
        <time>2021-08-10T19:01:59Z</time>
      </trkpt>
      <trkpt lat="48.077" lon="4.30265">
        <ele>198.65</ele>
        <time>2021-08-10T19:02:10Z</time>
      </trkpt>
      <trkpt lat="48.07671" lon="4.30275">
        <ele>200.09</ele>
        <time>2021-08-10T19:02:20Z</time>
      </trkpt>
      <trkpt lat="48.07639" lon="4.30289">
        <ele>201.53</ele>
        <time>2021-08-10T19:02:31Z</time>
      </trkpt>
      <trkpt lat="48.07615" lon="4.30304">
        <ele>203.46</ele>
        <time>2021-08-10T19:02:40Z</time>
      </trkpt>
      <trkpt lat="48.07592" lon="4.30324">
        <ele>203.94</ele>
        <time>2021-08-10T19:02:49Z</time>
      </trkpt>
      <trkpt lat="48.07565" lon="4.30352">
        <ele>205.86</ele>
        <time>2021-08-10T19:03:00Z</time>
      </trkpt>
      <trkpt lat="48.07542" lon="4.30377">
        <ele>207.3</ele>
        <time>2021-08-10T19:03:10Z</time>
      </trkpt>
      <trkpt lat="48.0752" lon="4.30403">
        <ele>208.74</ele>
        <time>2021-08-10T19:03:20Z</time>
      </trkpt>
      <trkpt lat="48.07501" lon="4.30426">
        <ele>209.7</ele>
        <time>2021-08-10T19:03:29Z</time>
      </trkpt>
      <trkpt lat="48.0748" lon="4.30451">
        <ele>211.15</ele>
        <time>2021-08-10T19:03:39Z</time>
      </trkpt>
      <trkpt lat="48.07463" lon="4.30472">
        <ele>212.11</ele>
        <time>2021-08-10T19:03:47Z</time>
      </trkpt>
      <trkpt lat="48.07445" lon="4.30496">
        <ele>213.55</ele>
        <time>2021-08-10T19:03:56Z</time>
      </trkpt>
      <trkpt lat="48.07427" lon="4.30523">
        <ele>214.51</ele>
        <time>2021-08-10T19:04:05Z</time>
      </trkpt>
      <trkpt lat="48.07412" lon="4.30551">
        <ele>215.95</ele>
        <time>2021-08-10T19:04:13Z</time>
      </trkpt>
      <trkpt lat="48.07401" lon="4.30577">
        <ele>216.91</ele>
        <time>2021-08-10T19:04:20Z</time>
      </trkpt>
      <trkpt lat="48.07391" lon="4.30609">
        <ele>217.88</ele>
        <time>2021-08-10T19:04:28Z</time>
      </trkpt>
      <trkpt lat="48.0738" lon="4.30644">
        <ele>219.32</ele>
        <time>2021-08-10T19:04:37Z</time>
      </trkpt>
      <trkpt lat="48.07367" lon="4.30683">
        <ele>220.76</ele>
        <time>2021-08-10T19:04:47Z</time>
      </trkpt>
      <trkpt lat="48.07351" lon="4.3072">
        <ele>221.72</ele>
        <time>2021-08-10T19:04:57Z</time>
      </trkpt>
      <trkpt lat="48.07332" lon="4.30749">
        <ele>222.68</ele>
        <time>2021-08-10T19:05:06Z</time>
      </trkpt>
      <trkpt lat="48.07307" lon="4.30777">
        <ele>223.64</ele>
        <time>2021-08-10T19:05:16Z</time>
      </trkpt>
      <trkpt lat="48.07282" lon="4.308">
        <ele>225.09</ele>
        <time>2021-08-10T19:05:25Z</time>
      </trkpt>
      <trkpt lat="48.0725" lon="4.30832">
        <ele>226.53</ele>
        <time>2021-08-10T19:05:37Z</time>
      </trkpt>
      <trkpt lat="48.07229" lon="4.30851">
        <ele>227.01</ele>
        <time>2021-08-10T19:05:45Z</time>
      </trkpt>
      <trkpt lat="48.07205" lon="4.30874">
        <ele>228.45</ele>
        <time>2021-08-10T19:05:54Z</time>
      </trkpt>
      <trkpt lat="48.07187" lon="4.30892">
        <ele>228.93</ele>
        <time>2021-08-10T19:06:01Z</time>
      </trkpt>
      <trkpt lat="48.07163" lon="4.30914">
        <ele>229.89</ele>
        <time>2021-08-10T19:06:10Z</time>
      </trkpt>
      <trkpt lat="48.07134" lon="4.30941">
        <ele>231.33</ele>
        <time>2021-08-10T19:06:21Z</time>
      </trkpt>
      <trkpt lat="48.07109" lon="4.30965">
        <ele>232.3</ele>
        <time>2021-08-10T19:06:31Z</time>
      </trkpt>
      <trkpt lat="48.07084" lon="4.30988">
        <ele>233.74</ele>
        <time>2021-08-10T19:06:41Z</time>
      </trkpt>
      <trkpt lat="48.07057" lon="4.31017">
        <ele>234.7</ele>
        <time>2021-08-10T19:06:52Z</time>
      </trkpt>
      <trkpt lat="48.07036" lon="4.31051">
        <ele>235.66</ele>
        <time>2021-08-10T19:07:01Z</time>
      </trkpt>
      <trkpt lat="48.07024" lon="4.31087">
        <ele>236.62</ele>
        <time>2021-08-10T19:07:09Z</time>
      </trkpt>
      <trkpt lat="48.07012" lon="4.31127">
        <ele>237.1</ele>
        <time>2021-08-10T19:07:18Z</time>
      </trkpt>
      <trkpt lat="48.06998" lon="4.31176">
        <ele>238.06</ele>
        <time>2021-08-10T19:07:29Z</time>
      </trkpt>
      <trkpt lat="48.06986" lon="4.31217">
        <ele>239.02</ele>
        <time>2021-08-10T19:07:38Z</time>
      </trkpt>
      <trkpt lat="48.06969" lon="4.31276">
        <ele>240.47</ele>
        <time>2021-08-10T19:07:51Z</time>
      </trkpt>
      <trkpt lat="48.06956" lon="4.31321">
        <ele>241.43</ele>
        <time>2021-08-10T19:08:01Z</time>
      </trkpt>
      <trkpt lat="48.06938" lon="4.31381">
        <ele>242.87</ele>
        <time>2021-08-10T19:08:14Z</time>
      </trkpt>
      <trkpt lat="48.06929" lon="4.31408">
        <ele>243.83</ele>
        <time>2021-08-10T19:08:20Z</time>
      </trkpt>
      <trkpt lat="48.06918" lon="4.31446">
        <ele>244.31</ele>
        <time>2021-08-10T19:08:28Z</time>
      </trkpt>
      <trkpt lat="48.06907" lon="4.31482">
        <ele>244.79</ele>
        <time>2021-08-10T19:08:35Z</time>
      </trkpt>
      <trkpt lat="48.06891" lon="4.31539">
        <ele>244.79</ele>
        <time>2021-08-10T19:08:44Z</time>
      </trkpt>
      <trkpt lat="48.06887" lon="4.31554">
        <ele>242.87</ele>
        <time>2021-08-10T19:08:46Z</time>
      </trkpt>
      <trkpt lat="48.06868" lon="4.31604">
        <ele>240.47</ele>
        <time>2021-08-10T19:08:52Z</time>
      </trkpt>
      <trkpt lat="48.06863" lon="4.31611">
        <ele>239.99</ele>
        <time>2021-08-10T19:08:53Z</time>
      </trkpt>
      <trkpt lat="48.06858" lon="4.31618">
        <ele>239.51</ele>
        <time>2021-08-10T19:08:54Z</time>
      </trkpt>
      <trkpt lat="48.06852" lon="4.31624">
        <ele>239.02</ele>
        <time>2021-08-10T19:08:55Z</time>
      </trkpt>
      <trkpt lat="48.06846" lon="4.31628">
        <ele>239.02</ele>
        <time>2021-08-10T19:08:56Z</time>
      </trkpt>
      <trkpt lat="48.06839" lon="4.31632">
        <ele>238.54</ele>
        <time>2021-08-10T19:08:57Z</time>
      </trkpt>
      <trkpt lat="48.06832" lon="4.31635">
        <ele>238.54</ele>
        <time>2021-08-10T19:08:58Z</time>
      </trkpt>
      <trkpt lat="48.06824" lon="4.31637">
        <ele>237.58</ele>
        <time>2021-08-10T19:08:59Z</time>
      </trkpt>
      <trkpt lat="48.06817" lon="4.31637">
        <ele>237.58</ele>
        <time>2021-08-10T19:09:00Z</time>
      </trkpt>
      <trkpt lat="48.0681" lon="4.31637">
        <ele>237.58</ele>
        <time>2021-08-10T19:09:01Z</time>
      </trkpt>
      <trkpt lat="48.06802" lon="4.31637">
        <ele>237.58</ele>
        <time>2021-08-10T19:09:02Z</time>
      </trkpt>
      <trkpt lat="48.06745" lon="4.3163">
        <ele>238.06</ele>
        <time>2021-08-10T19:09:11Z</time>
      </trkpt>
      <trkpt lat="48.06734" lon="4.31632">
        <ele>238.06</ele>
        <time>2021-08-10T19:09:13Z</time>
      </trkpt>
      <trkpt lat="48.06728" lon="4.31634">
        <ele>238.06</ele>
        <time>2021-08-10T19:09:14Z</time>
      </trkpt>
      <trkpt lat="48.06723" lon="4.31637">
        <ele>238.06</ele>
        <time>2021-08-10T19:09:15Z</time>
      </trkpt>
      <trkpt lat="48.06717" lon="4.31641">
        <ele>238.06</ele>
        <time>2021-08-10T19:09:16Z</time>
      </trkpt>
      <trkpt lat="48.06712" lon="4.31645">
        <ele>238.06</ele>
        <time>2021-08-10T19:09:17Z</time>
      </trkpt>
      <trkpt lat="48.06707" lon="4.3165">
        <ele>238.06</ele>
        <time>2021-08-10T19:09:18Z</time>
      </trkpt>
      <trkpt lat="48.06702" lon="4.31656">
        <ele>238.06</ele>
        <time>2021-08-10T19:09:19Z</time>
      </trkpt>
      <trkpt lat="48.06697" lon="4.31662">
        <ele>238.06</ele>
        <time>2021-08-10T19:09:20Z</time>
      </trkpt>
      <trkpt lat="48.06693" lon="4.31668">
        <ele>238.06</ele>
        <time>2021-08-10T19:09:21Z</time>
      </trkpt>
      <trkpt lat="48.06686" lon="4.3168">
        <ele>238.06</ele>
        <time>2021-08-10T19:09:23Z</time>
      </trkpt>
      <trkpt lat="48.06682" lon="4.31686">
        <ele>238.06</ele>
        <time>2021-08-10T19:09:24Z</time>
      </trkpt>
      <trkpt lat="48.06679" lon="4.31691">
        <ele>238.06</ele>
        <time>2021-08-10T19:09:25Z</time>
      </trkpt>
      <trkpt lat="48.06676" lon="4.31696">
        <ele>239.51</ele>
        <time>2021-08-10T19:09:26Z</time>
      </trkpt>
      <trkpt lat="48.06673" lon="4.317">
        <ele>239.51</ele>
        <time>2021-08-10T19:09:27Z</time>
      </trkpt>
      <trkpt lat="48.06662" lon="4.31725">
        <ele>240.47</ele>
        <time>2021-08-10T19:09:33Z</time>
      </trkpt>
      <trkpt lat="48.06643" lon="4.31758">
        <ele>242.87</ele>
        <time>2021-08-10T19:09:41Z</time>
      </trkpt>
      <trkpt lat="48.06623" lon="4.31795">
        <ele>244.79</ele>
        <time>2021-08-10T19:09:50Z</time>
      </trkpt>
      <trkpt lat="48.06601" lon="4.31831">
        <ele>246.23</ele>
        <time>2021-08-10T19:10:00Z</time>
      </trkpt>
      <trkpt lat="48.06586" lon="4.31858">
        <ele>247.68</ele>
        <time>2021-08-10T19:10:08Z</time>
      </trkpt>
      <trkpt lat="48.06571" lon="4.31886">
        <ele>249.12</ele>
        <time>2021-08-10T19:10:16Z</time>
      </trkpt>
      <trkpt lat="48.0655" lon="4.31922">
        <ele>251.04</ele>
        <time>2021-08-10T19:10:27Z</time>
      </trkpt>
      <trkpt lat="48.06531" lon="4.31957">
        <ele>252.96</ele>
        <time>2021-08-10T19:10:38Z</time>
      </trkpt>
      <trkpt lat="48.06515" lon="4.31985">
        <ele>253.93</ele>
        <time>2021-08-10T19:10:47Z</time>
      </trkpt>
      <trkpt lat="48.06503" lon="4.32001">
        <ele>254.89</ele>
        <time>2021-08-10T19:10:53Z</time>
      </trkpt>
      <trkpt lat="48.06496" lon="4.32014">
        <ele>255.85</ele>
        <time>2021-08-10T19:10:57Z</time>
      </trkpt>
      <trkpt lat="48.06495" lon="4.32018">
        <ele>255.85</ele>
        <time>2021-08-10T19:10:58Z</time>
      </trkpt>
      <trkpt lat="48.06494" lon="4.32021">
        <ele>255.85</ele>
        <time>2021-08-10T19:10:59Z</time>
      </trkpt>
      <trkpt lat="48.06475" lon="4.32056">
        <ele>257.29</ele>
        <time>2021-08-10T19:11:10Z</time>
      </trkpt>
      <trkpt lat="48.06459" lon="4.32083">
        <ele>258.73</ele>
        <time>2021-08-10T19:11:19Z</time>
      </trkpt>
      <trkpt lat="48.06445" lon="4.32106">
        <ele>259.69</ele>
        <time>2021-08-10T19:11:27Z</time>
      </trkpt>
      <trkpt lat="48.0643" lon="4.32127">
        <ele>260.65</ele>
        <time>2021-08-10T19:11:35Z</time>
      </trkpt>
      <trkpt lat="48.06414" lon="4.32148">
        <ele>262.1</ele>
        <time>2021-08-10T19:11:44Z</time>
      </trkpt>
      <trkpt lat="48.06394" lon="4.32169">
        <ele>263.06</ele>
        <time>2021-08-10T19:11:53Z</time>
      </trkpt>
      <trkpt lat="48.06376" lon="4.32188">
        <ele>264.02</ele>
        <time>2021-08-10T19:12:01Z</time>
      </trkpt>
      <trkpt lat="48.06369" lon="4.32194">
        <ele>264.5</ele>
        <time>2021-08-10T19:12:04Z</time>
      </trkpt>
      <trkpt lat="48.06367" lon="4.32197">
        <ele>264.5</ele>
        <time>2021-08-10T19:12:05Z</time>
      </trkpt>
      <trkpt lat="48.06346" lon="4.32225">
        <ele>265.94</ele>
        <time>2021-08-10T19:12:14Z</time>
      </trkpt>
      <trkpt lat="48.06329" lon="4.32253">
        <ele>266.42</ele>
        <time>2021-08-10T19:12:22Z</time>
      </trkpt>
      <trkpt lat="48.06311" lon="4.32284">
        <ele>265.94</ele>
        <time>2021-08-10T19:12:30Z</time>
      </trkpt>
      <trkpt lat="48.06295" lon="4.32313">
        <ele>264.5</ele>
        <time>2021-08-10T19:12:36Z</time>
      </trkpt>
      <trkpt lat="48.06265" lon="4.32372">
        <ele>264.02</ele>
        <time>2021-08-10T19:12:46Z</time>
      </trkpt>
      <trkpt lat="48.06229" lon="4.32436">
        <ele>264.02</ele>
        <time>2021-08-10T19:12:57Z</time>
      </trkpt>
      <trkpt lat="48.06196" lon="4.32497">
        <ele>266.42</ele>
        <time>2021-08-10T19:13:08Z</time>
      </trkpt>
      <trkpt lat="48.0617" lon="4.32542">
        <ele>267.38</ele>
        <time>2021-08-10T19:13:17Z</time>
      </trkpt>
      <trkpt lat="48.06138" lon="4.32602">
        <ele>268.83</ele>
        <time>2021-08-10T19:13:30Z</time>
      </trkpt>
      <trkpt lat="48.06118" lon="4.32638">
        <ele>269.79</ele>
        <time>2021-08-10T19:13:38Z</time>
      </trkpt>
      <trkpt lat="48.06092" lon="4.32687">
        <ele>270.75</ele>
        <time>2021-08-10T19:13:49Z</time>
      </trkpt>
      <trkpt lat="48.06077" lon="4.32716">
        <ele>270.75</ele>
        <time>2021-08-10T19:13:56Z</time>
      </trkpt>
      <trkpt lat="48.06053" lon="4.3276">
        <ele>272.19</ele>
        <time>2021-08-10T19:14:06Z</time>
      </trkpt>
      <trkpt lat="48.06035" lon="4.32794">
        <ele>272.67</ele>
        <time>2021-08-10T19:14:14Z</time>
      </trkpt>
      <trkpt lat="48.06016" lon="4.32828">
        <ele>273.15</ele>
        <time>2021-08-10T19:14:22Z</time>
      </trkpt>
      <trkpt lat="48.06013" lon="4.32831">
        <ele>273.15</ele>
        <time>2021-08-10T19:14:23Z</time>
      </trkpt>
      <trkpt lat="48.0601" lon="4.32832">
        <ele>273.15</ele>
        <time>2021-08-10T19:14:24Z</time>
      </trkpt>
      <trkpt lat="48.06006" lon="4.32831">
        <ele>273.15</ele>
        <time>2021-08-10T19:14:25Z</time>
      </trkpt>
      <trkpt lat="48.06003" lon="4.32828">
        <ele>273.15</ele>
        <time>2021-08-10T19:14:26Z</time>
      </trkpt>
      <trkpt lat="48.06002" lon="4.32823">
        <ele>273.63</ele>
        <time>2021-08-10T19:14:27Z</time>
      </trkpt>
      <trkpt lat="48.06002" lon="4.32818">
        <ele>273.63</ele>
        <time>2021-08-10T19:14:28Z</time>
      </trkpt>
      <trkpt lat="48.06001" lon="4.32813">
        <ele>273.63</ele>
        <time>2021-08-10T19:14:29Z</time>
      </trkpt>
      <trkpt lat="48.06001" lon="4.32789">
        <ele>273.63</ele>
        <time>2021-08-10T19:14:33Z</time>
      </trkpt>
      <trkpt lat="48.06008" lon="4.32738">
        <ele>272.67</ele>
        <time>2021-08-10T19:14:41Z</time>
      </trkpt>
      <trkpt lat="48.06012" lon="4.32678">
        <ele>271.23</ele>
        <time>2021-08-10T19:14:49Z</time>
      </trkpt>
      <trkpt lat="48.06014" lon="4.32662">
        <ele>271.23</ele>
        <time>2021-08-10T19:14:51Z</time>
      </trkpt>
      <trkpt lat="48.06014" lon="4.32655">
        <ele>271.23</ele>
        <time>2021-08-10T19:14:52Z</time>
      </trkpt>
      <trkpt lat="48.06014" lon="4.32645">
        <ele>270.75</ele>
        <time>2021-08-10T19:14:53Z</time>
      </trkpt>
      <trkpt lat="48.06015" lon="4.32638">
        <ele>270.75</ele>
        <time>2021-08-10T19:14:54Z</time>
      </trkpt>
      <trkpt lat="48.06016" lon="4.32629">
        <ele>270.75</ele>
        <time>2021-08-10T19:14:55Z</time>
      </trkpt>
      <trkpt lat="48.06022" lon="4.32538">
        <ele>268.83</ele>
        <time>2021-08-10T19:15:04Z</time>
      </trkpt>
      <trkpt lat="48.06029" lon="4.32424">
        <ele>266.42</ele>
        <time>2021-08-10T19:15:14Z</time>
      </trkpt>
      <trkpt lat="48.06038" lon="4.32307">
        <ele>264.98</ele>
        <time>2021-08-10T19:15:24Z</time>
      </trkpt>
      <trkpt lat="48.06047" lon="4.32179">
        <ele>264.02</ele>
        <time>2021-08-10T19:15:35Z</time>
      </trkpt>
      <trkpt lat="48.06054" lon="4.32062">
        <ele>264.02</ele>
        <time>2021-08-10T19:15:46Z</time>
      </trkpt>
      <trkpt lat="48.06063" lon="4.31957">
        <ele>263.54</ele>
        <time>2021-08-10T19:15:56Z</time>
      </trkpt>
      <trkpt lat="48.06069" lon="4.31867">
        <ele>263.06</ele>
        <time>2021-08-10T19:16:05Z</time>
      </trkpt>
      <trkpt lat="48.0607" lon="4.31798">
        <ele>264.02</ele>
        <time>2021-08-10T19:16:13Z</time>
      </trkpt>
      <trkpt lat="48.06064" lon="4.31708">
        <ele>264.98</ele>
        <time>2021-08-10T19:16:24Z</time>
      </trkpt>
      <trkpt lat="48.0606" lon="4.31663">
        <ele>265.46</ele>
        <time>2021-08-10T19:16:30Z</time>
      </trkpt>
      <trkpt lat="48.06059" lon="4.31656">
        <ele>265.46</ele>
        <time>2021-08-10T19:16:31Z</time>
      </trkpt>
      <trkpt lat="48.06054" lon="4.31608">
        <ele>265.94</ele>
        <time>2021-08-10T19:16:38Z</time>
      </trkpt>
      <trkpt lat="48.06053" lon="4.31594">
        <ele>265.94</ele>
        <time>2021-08-10T19:16:40Z</time>
      </trkpt>
      <trkpt lat="48.06049" lon="4.3153">
        <ele>265.94</ele>
        <time>2021-08-10T19:16:49Z</time>
      </trkpt>
      <trkpt lat="48.06041" lon="4.31467">
        <ele>266.42</ele>
        <time>2021-08-10T19:16:58Z</time>
      </trkpt>
      <trkpt lat="48.06026" lon="4.31403">
        <ele>266.42</ele>
        <time>2021-08-10T19:17:07Z</time>
      </trkpt>
      <trkpt lat="48.06002" lon="4.31317">
        <ele>266.9</ele>
        <time>2021-08-10T19:17:19Z</time>
      </trkpt>
      <trkpt lat="48.0598" lon="4.31232">
        <ele>267.86</ele>
        <time>2021-08-10T19:17:31Z</time>
      </trkpt>
      <trkpt lat="48.05978" lon="4.31224">
        <ele>267.86</ele>
        <time>2021-08-10T19:17:32Z</time>
      </trkpt>
      <trkpt lat="48.05953" lon="4.3113">
        <ele>267.86</ele>
        <time>2021-08-10T19:17:45Z</time>
      </trkpt>
      <trkpt lat="48.05947" lon="4.3111">
        <ele>267.86</ele>
        <time>2021-08-10T19:17:48Z</time>
      </trkpt>
      <trkpt lat="48.05945" lon="4.31096">
        <ele>267.86</ele>
        <time>2021-08-10T19:17:50Z</time>
      </trkpt>
      <trkpt lat="48.05943" lon="4.3109">
        <ele>267.86</ele>
        <time>2021-08-10T19:17:51Z</time>
      </trkpt>
      <trkpt lat="48.05939" lon="4.31077">
        <ele>267.86</ele>
        <time>2021-08-10T19:17:53Z</time>
      </trkpt>
      <trkpt lat="48.05937" lon="4.3107">
        <ele>267.86</ele>
        <time>2021-08-10T19:17:54Z</time>
      </trkpt>
      <trkpt lat="48.05935" lon="4.31062">
        <ele>267.86</ele>
        <time>2021-08-10T19:17:55Z</time>
      </trkpt>
      <trkpt lat="48.05933" lon="4.31055">
        <ele>267.86</ele>
        <time>2021-08-10T19:17:56Z</time>
      </trkpt>
      <trkpt lat="48.05931" lon="4.31048">
        <ele>266.42</ele>
        <time>2021-08-10T19:17:57Z</time>
      </trkpt>
      <trkpt lat="48.05915" lon="4.30992">
        <ele>266.42</ele>
        <time>2021-08-10T19:18:05Z</time>
      </trkpt>
      <trkpt lat="48.05913" lon="4.30985">
        <ele>266.42</ele>
        <time>2021-08-10T19:18:06Z</time>
      </trkpt>
      <trkpt lat="48.059" lon="4.30928">
        <ele>265.94</ele>
        <time>2021-08-10T19:18:14Z</time>
      </trkpt>
      <trkpt lat="48.05896" lon="4.3091">
        <ele>266.42</ele>
        <time>2021-08-10T19:18:17Z</time>
      </trkpt>
      <trkpt lat="48.0589" lon="4.309">
        <ele>266.42</ele>
        <time>2021-08-10T19:18:19Z</time>
      </trkpt>
      <trkpt lat="48.05884" lon="4.30896">
        <ele>265.46</ele>
        <time>2021-08-10T19:18:20Z</time>
      </trkpt>
      <trkpt lat="48.05881" lon="4.30894">
        <ele>265.46</ele>
        <time>2021-08-10T19:18:21Z</time>
      </trkpt>
      <trkpt lat="48.05843" lon="4.30879">
        <ele>264.5</ele>
        <time>2021-08-10T19:18:28Z</time>
      </trkpt>
      <trkpt lat="48.05799" lon="4.30862">
        <ele>262.1</ele>
        <time>2021-08-10T19:18:35Z</time>
      </trkpt>
      <trkpt lat="48.05758" lon="4.30845">
        <ele>259.21</ele>
        <time>2021-08-10T19:18:41Z</time>
      </trkpt>
      <trkpt lat="48.05743" lon="4.30841">
        <ele>257.77</ele>
        <time>2021-08-10T19:18:43Z</time>
      </trkpt>
      <trkpt lat="48.05736" lon="4.30838">
        <ele>257.77</ele>
        <time>2021-08-10T19:18:44Z</time>
      </trkpt>
      <trkpt lat="48.0573" lon="4.30833">
        <ele>257.29</ele>
        <time>2021-08-10T19:18:45Z</time>
      </trkpt>
      <trkpt lat="48.05699" lon="4.30808">
        <ele>255.85</ele>
        <time>2021-08-10T19:18:50Z</time>
      </trkpt>
      <trkpt lat="48.05695" lon="4.30802">
        <ele>254.89</ele>
        <time>2021-08-10T19:18:51Z</time>
      </trkpt>
      <trkpt lat="48.05688" lon="4.30792">
        <ele>254.41</ele>
        <time>2021-08-10T19:18:53Z</time>
      </trkpt>
      <trkpt lat="48.05684" lon="4.30788">
        <ele>252.96</ele>
        <time>2021-08-10T19:18:54Z</time>
      </trkpt>
      <trkpt lat="48.05666" lon="4.30767">
        <ele>250.08</ele>
        <time>2021-08-10T19:18:58Z</time>
      </trkpt>
      <trkpt lat="48.05661" lon="4.30762">
        <ele>249.12</ele>
        <time>2021-08-10T19:18:59Z</time>
      </trkpt>
      <trkpt lat="48.05656" lon="4.30759">
        <ele>248.64</ele>
        <time>2021-08-10T19:19:00Z</time>
      </trkpt>
      <trkpt lat="48.05651" lon="4.30756">
        <ele>247.68</ele>
        <time>2021-08-10T19:19:01Z</time>
      </trkpt>
      <trkpt lat="48.05646" lon="4.30753">
        <ele>247.68</ele>
        <time>2021-08-10T19:19:02Z</time>
      </trkpt>
      <trkpt lat="48.05634" lon="4.30747">
        <ele>246.23</ele>
        <time>2021-08-10T19:19:05Z</time>
      </trkpt>
      <trkpt lat="48.05633" lon="4.30747">
        <ele>246.23</ele>
        <time>2021-08-10T19:19:10Z</time>
      </trkpt>
      <trkpt lat="48.05628" lon="4.30744">
        <ele>245.75</ele>
        <time>2021-08-10T19:19:25Z</time>
      </trkpt>
      <trkpt lat="48.05615" lon="4.30738">
        <ele>244.31</ele>
        <time>2021-08-10T19:19:29Z</time>
      </trkpt>
      <trkpt lat="48.05611" lon="4.30735">
        <ele>243.83</ele>
        <time>2021-08-10T19:19:30Z</time>
      </trkpt>
      <trkpt lat="48.05608" lon="4.30733">
        <ele>243.35</ele>
        <time>2021-08-10T19:19:31Z</time>
      </trkpt>
      <trkpt lat="48.05605" lon="4.30731">
        <ele>242.87</ele>
        <time>2021-08-10T19:19:32Z</time>
      </trkpt>
      <trkpt lat="48.05602" lon="4.30729">
        <ele>242.39</ele>
        <time>2021-08-10T19:19:33Z</time>
      </trkpt>
      <trkpt lat="48.056" lon="4.30726">
        <ele>242.39</ele>
        <time>2021-08-10T19:19:34Z</time>
      </trkpt>
      <trkpt lat="48.05591" lon="4.30721">
        <ele>240.47</ele>
        <time>2021-08-10T19:19:37Z</time>
      </trkpt>
      <trkpt lat="48.05581" lon="4.30716">
        <ele>239.02</ele>
        <time>2021-08-10T19:19:40Z</time>
      </trkpt>
      <trkpt lat="48.05572" lon="4.3071">
        <ele>237.1</ele>
        <time>2021-08-10T19:19:42Z</time>
      </trkpt>
      <trkpt lat="48.05548" lon="4.30701">
        <ele>233.74</ele>
        <time>2021-08-10T19:19:47Z</time>
      </trkpt>
      <trkpt lat="48.05543" lon="4.307">
        <ele>232.78</ele>
        <time>2021-08-10T19:19:48Z</time>
      </trkpt>
      <trkpt lat="48.05537" lon="4.307">
        <ele>232.78</ele>
        <time>2021-08-10T19:19:49Z</time>
      </trkpt>
      <trkpt lat="48.05532" lon="4.30701">
        <ele>231.81</ele>
        <time>2021-08-10T19:19:50Z</time>
      </trkpt>
      <trkpt lat="48.05506" lon="4.30704">
        <ele>229.41</ele>
        <time>2021-08-10T19:19:56Z</time>
      </trkpt>
      <trkpt lat="48.05496" lon="4.30706">
        <ele>228.93</ele>
        <time>2021-08-10T19:19:58Z</time>
      </trkpt>
      <trkpt lat="48.05492" lon="4.30708">
        <ele>228.93</ele>
        <time>2021-08-10T19:19:59Z</time>
      </trkpt>
      <trkpt lat="48.05487" lon="4.3071">
        <ele>227.97</ele>
        <time>2021-08-10T19:20:00Z</time>
      </trkpt>
      <trkpt lat="48.05466" lon="4.30721">
        <ele>227.49</ele>
        <time>2021-08-10T19:20:04Z</time>
      </trkpt>
      <trkpt lat="48.05449" lon="4.3073">
        <ele>226.05</ele>
        <time>2021-08-10T19:20:07Z</time>
      </trkpt>
      <trkpt lat="48.05429" lon="4.30743">
        <ele>224.12</ele>
        <time>2021-08-10T19:20:11Z</time>
      </trkpt>
      <trkpt lat="48.05424" lon="4.30745">
        <ele>223.64</ele>
        <time>2021-08-10T19:20:12Z</time>
      </trkpt>
      <trkpt lat="48.05411" lon="4.30748">
        <ele>223.16</ele>
        <time>2021-08-10T19:20:14Z</time>
      </trkpt>
      <trkpt lat="48.05389" lon="4.30748">
        <ele>222.68</ele>
        <time>2021-08-10T19:20:18Z</time>
      </trkpt>
      <trkpt lat="48.05354" lon="4.30719">
        <ele>221.72</ele>
        <time>2021-08-10T19:20:26Z</time>
      </trkpt>
      <trkpt lat="48.05329" lon="4.30688">
        <ele>220.28</ele>
        <time>2021-08-10T19:20:32Z</time>
      </trkpt>
      <trkpt lat="48.05321" lon="4.30677">
        <ele>219.8</ele>
        <time>2021-08-10T19:20:34Z</time>
      </trkpt>
      <trkpt lat="48.05317" lon="4.30672">
        <ele>219.32</ele>
        <time>2021-08-10T19:20:35Z</time>
      </trkpt>
      <trkpt lat="48.05306" lon="4.30652">
        <ele>218.84</ele>
        <time>2021-08-10T19:20:38Z</time>
      </trkpt>
      <trkpt lat="48.05303" lon="4.30645">
        <ele>218.36</ele>
        <time>2021-08-10T19:20:39Z</time>
      </trkpt>
      <trkpt lat="48.053" lon="4.30632">
        <ele>218.36</ele>
        <time>2021-08-10T19:20:41Z</time>
      </trkpt>
      <trkpt lat="48.05282" lon="4.30598">
        <ele>217.88</ele>
        <time>2021-08-10T19:20:48Z</time>
      </trkpt>
      <trkpt lat="48.05262" lon="4.30568">
        <ele>217.4</ele>
        <time>2021-08-10T19:20:55Z</time>
      </trkpt>
      <trkpt lat="48.05246" lon="4.3055">
        <ele>216.91</ele>
        <time>2021-08-10T19:20:59Z</time>
      </trkpt>
      <trkpt lat="48.05237" lon="4.30541">
        <ele>216.91</ele>
        <time>2021-08-10T19:21:01Z</time>
      </trkpt>
      <trkpt lat="48.05212" lon="4.30501">
        <ele>216.43</ele>
        <time>2021-08-10T19:21:08Z</time>
      </trkpt>
      <trkpt lat="48.05192" lon="4.30463">
        <ele>215.95</ele>
        <time>2021-08-10T19:21:15Z</time>
      </trkpt>
      <trkpt lat="48.05179" lon="4.30415">
        <ele>214.99</ele>
        <time>2021-08-10T19:21:23Z</time>
      </trkpt>
      <trkpt lat="48.05175" lon="4.30402">
        <ele>214.99</ele>
        <time>2021-08-10T19:21:25Z</time>
      </trkpt>
      <trkpt lat="48.05161" lon="4.30346">
        <ele>214.51</ele>
        <time>2021-08-10T19:21:34Z</time>
      </trkpt>
      <trkpt lat="48.05153" lon="4.30319">
        <ele>213.55</ele>
        <time>2021-08-10T19:21:39Z</time>
      </trkpt>
      <trkpt lat="48.05136" lon="4.30275">
        <ele>213.07</ele>
        <time>2021-08-10T19:21:47Z</time>
      </trkpt>
      <trkpt lat="48.05118" lon="4.30245">
        <ele>213.07</ele>
        <time>2021-08-10T19:21:54Z</time>
      </trkpt>
      <trkpt lat="48.05088" lon="4.30212">
        <ele>211.63</ele>
        <time>2021-08-10T19:22:03Z</time>
      </trkpt>
      <trkpt lat="48.05072" lon="4.3019">
        <ele>211.15</ele>
        <time>2021-08-10T19:22:09Z</time>
      </trkpt>
      <trkpt lat="48.05054" lon="4.3016">
        <ele>211.15</ele>
        <time>2021-08-10T19:22:16Z</time>
      </trkpt>
      <trkpt lat="48.05033" lon="4.30131">
        <ele>210.67</ele>
        <time>2021-08-10T19:22:23Z</time>
      </trkpt>
      <trkpt lat="48.05015" lon="4.3011">
        <ele>210.67</ele>
        <time>2021-08-10T19:22:30Z</time>
      </trkpt>
      <trkpt lat="48.04995" lon="4.30086">
        <ele>210.67</ele>
        <time>2021-08-10T19:22:38Z</time>
      </trkpt>
      <trkpt lat="48.04976" lon="4.30057">
        <ele>210.19</ele>
        <time>2021-08-10T19:22:45Z</time>
      </trkpt>
      <trkpt lat="48.04952" lon="4.30014">
        <ele>209.7</ele>
        <time>2021-08-10T19:22:52Z</time>
      </trkpt>
      <trkpt lat="48.04934" lon="4.29984">
        <ele>209.7</ele>
        <time>2021-08-10T19:22:58Z</time>
      </trkpt>
      <trkpt lat="48.04917" lon="4.29959">
        <ele>209.7</ele>
        <time>2021-08-10T19:23:04Z</time>
      </trkpt>
      <trkpt lat="48.04902" lon="4.29931">
        <ele>209.22</ele>
        <time>2021-08-10T19:23:10Z</time>
      </trkpt>
      <trkpt lat="48.04882" lon="4.29896">
        <ele>208.26</ele>
        <time>2021-08-10T19:23:17Z</time>
      </trkpt>
      <trkpt lat="48.04859" lon="4.29858">
        <ele>207.3</ele>
        <time>2021-08-10T19:23:24Z</time>
      </trkpt>
      <trkpt lat="48.04856" lon="4.29854">
        <ele>207.3</ele>
        <time>2021-08-10T19:23:25Z</time>
      </trkpt>
      <trkpt lat="48.04827" lon="4.29808">
        <ele>206.82</ele>
        <time>2021-08-10T19:23:33Z</time>
      </trkpt>
      <trkpt lat="48.04805" lon="4.29777">
        <ele>206.34</ele>
        <time>2021-08-10T19:23:39Z</time>
      </trkpt>
      <trkpt lat="48.048" lon="4.29773">
        <ele>206.34</ele>
        <time>2021-08-10T19:23:40Z</time>
      </trkpt>
      <trkpt lat="48.04796" lon="4.29768">
        <ele>205.86</ele>
        <time>2021-08-10T19:23:41Z</time>
      </trkpt>
      <trkpt lat="48.04789" lon="4.29758">
        <ele>205.86</ele>
        <time>2021-08-10T19:23:43Z</time>
      </trkpt>
      <trkpt lat="48.04782" lon="4.29747">
        <ele>205.86</ele>
        <time>2021-08-10T19:23:45Z</time>
      </trkpt>
      <trkpt lat="48.04778" lon="4.29742">
        <ele>205.86</ele>
        <time>2021-08-10T19:23:46Z</time>
      </trkpt>
      <trkpt lat="48.04763" lon="4.2971">
        <ele>205.86</ele>
        <time>2021-08-10T19:23:52Z</time>
      </trkpt>
      <trkpt lat="48.04759" lon="4.29699">
        <ele>205.38</ele>
        <time>2021-08-10T19:23:54Z</time>
      </trkpt>
      <trkpt lat="48.04756" lon="4.29694">
        <ele>205.38</ele>
        <time>2021-08-10T19:23:55Z</time>
      </trkpt>
      <trkpt lat="48.04754" lon="4.29687">
        <ele>205.38</ele>
        <time>2021-08-10T19:23:56Z</time>
      </trkpt>
      <trkpt lat="48.04743" lon="4.29644">
        <ele>204.9</ele>
        <time>2021-08-10T19:24:03Z</time>
      </trkpt>
      <trkpt lat="48.04739" lon="4.29626">
        <ele>204.9</ele>
        <time>2021-08-10T19:24:06Z</time>
      </trkpt>
      <trkpt lat="48.04738" lon="4.29619">
        <ele>204.42</ele>
        <time>2021-08-10T19:24:07Z</time>
      </trkpt>
      <trkpt lat="48.04738" lon="4.29612">
        <ele>204.42</ele>
        <time>2021-08-10T19:24:08Z</time>
      </trkpt>
      <trkpt lat="48.04737" lon="4.29571">
        <ele>203.94</ele>
        <time>2021-08-10T19:24:14Z</time>
      </trkpt>
      <trkpt lat="48.04737" lon="4.29563">
        <ele>203.46</ele>
        <time>2021-08-10T19:24:15Z</time>
      </trkpt>
      <trkpt lat="48.04737" lon="4.29557">
        <ele>203.46</ele>
        <time>2021-08-10T19:24:16Z</time>
      </trkpt>
      <trkpt lat="48.04734" lon="4.29523">
        <ele>203.46</ele>
        <time>2021-08-10T19:24:22Z</time>
      </trkpt>
      <trkpt lat="48.04725" lon="4.29493">
        <ele>203.46</ele>
        <time>2021-08-10T19:24:27Z</time>
      </trkpt>
      <trkpt lat="48.04708" lon="4.29462">
        <ele>202.98</ele>
        <time>2021-08-10T19:24:34Z</time>
      </trkpt>
      <trkpt lat="48.04692" lon="4.29433">
        <ele>202.98</ele>
        <time>2021-08-10T19:24:40Z</time>
      </trkpt>
      <trkpt lat="48.04689" lon="4.29429">
        <ele>202.98</ele>
        <time>2021-08-10T19:24:41Z</time>
      </trkpt>
      <trkpt lat="48.04665" lon="4.29396">
        <ele>202.01</ele>
        <time>2021-08-10T19:24:48Z</time>
      </trkpt>
      <trkpt lat="48.04646" lon="4.29375">
        <ele>202.01</ele>
        <time>2021-08-10T19:24:54Z</time>
      </trkpt>
      <trkpt lat="48.04629" lon="4.29357">
        <ele>202.01</ele>
        <time>2021-08-10T19:24:59Z</time>
      </trkpt>
      <trkpt lat="48.04626" lon="4.29343">
        <ele>201.53</ele>
        <time>2021-08-10T19:25:05Z</time>
      </trkpt>
      <trkpt lat="48.04623" lon="4.29337">
        <ele>202.01</ele>
        <time>2021-08-10T19:25:08Z</time>
      </trkpt>
      <trkpt lat="48.04621" lon="4.29336">
        <ele>202.01</ele>
        <time>2021-08-10T19:25:09Z</time>
      </trkpt>
      <trkpt lat="48.0462" lon="4.29334">
        <ele>202.01</ele>
        <time>2021-08-10T19:25:10Z</time>
      </trkpt>
      <trkpt lat="48.04618" lon="4.29332">
        <ele>202.01</ele>
        <time>2021-08-10T19:25:11Z</time>
      </trkpt>
      <trkpt lat="48.04616" lon="4.29331">
        <ele>202.01</ele>
        <time>2021-08-10T19:25:12Z</time>
      </trkpt>
      <trkpt lat="48.04614" lon="4.2933">
        <ele>202.01</ele>
        <time>2021-08-10T19:25:13Z</time>
      </trkpt>
      <trkpt lat="48.046" lon="4.29319">
        <ele>202.01</ele>
        <time>2021-08-10T19:25:18Z</time>
      </trkpt>
      <trkpt lat="48.04579" lon="4.29304">
        <ele>201.53</ele>
        <time>2021-08-10T19:25:24Z</time>
      </trkpt>
      <trkpt lat="48.04559" lon="4.29287">
        <ele>201.05</ele>
        <time>2021-08-10T19:25:30Z</time>
      </trkpt>
      <trkpt lat="48.04537" lon="4.29268">
        <ele>201.05</ele>
        <time>2021-08-10T19:25:36Z</time>
      </trkpt>
      <trkpt lat="48.04532" lon="4.29264">
        <ele>200.57</ele>
        <time>2021-08-10T19:25:37Z</time>
      </trkpt>
      <trkpt lat="48.04509" lon="4.29239">
        <ele>200.09</ele>
        <time>2021-08-10T19:25:44Z</time>
      </trkpt>
      <trkpt lat="48.04489" lon="4.29207">
        <ele>200.57</ele>
        <time>2021-08-10T19:25:51Z</time>
      </trkpt>
      <trkpt lat="48.04477" lon="4.29174">
        <ele>199.61</ele>
        <time>2021-08-10T19:25:57Z</time>
      </trkpt>
      <trkpt lat="48.04472" lon="4.29157">
        <ele>199.61</ele>
        <time>2021-08-10T19:26:00Z</time>
      </trkpt>
      <trkpt lat="48.04462" lon="4.29116">
        <ele>199.13</ele>
        <time>2021-08-10T19:26:06Z</time>
      </trkpt>
      <trkpt lat="48.0446" lon="4.29109">
        <ele>199.13</ele>
        <time>2021-08-10T19:26:07Z</time>
      </trkpt>
      <trkpt lat="48.04455" lon="4.29089">
        <ele>199.13</ele>
        <time>2021-08-10T19:26:10Z</time>
      </trkpt>
      <trkpt lat="48.04453" lon="4.29083">
        <ele>199.13</ele>
        <time>2021-08-10T19:26:11Z</time>
      </trkpt>
      <trkpt lat="48.04451" lon="4.29076">
        <ele>199.13</ele>
        <time>2021-08-10T19:26:12Z</time>
      </trkpt>
      <trkpt lat="48.04447" lon="4.29064">
        <ele>198.65</ele>
        <time>2021-08-10T19:26:14Z</time>
      </trkpt>
      <trkpt lat="48.04441" lon="4.29035">
        <ele>199.13</ele>
        <time>2021-08-10T19:26:20Z</time>
      </trkpt>
      <trkpt lat="48.04441" lon="4.29028">
        <ele>199.13</ele>
        <time>2021-08-10T19:26:25Z</time>
      </trkpt>
      <trkpt lat="48.0444" lon="4.29023">
        <ele>199.13</ele>
        <time>2021-08-10T19:26:27Z</time>
      </trkpt>
      <trkpt lat="48.04438" lon="4.2902">
        <ele>199.13</ele>
        <time>2021-08-10T19:26:28Z</time>
      </trkpt>
      <trkpt lat="48.04437" lon="4.29017">
        <ele>199.13</ele>
        <time>2021-08-10T19:26:29Z</time>
      </trkpt>
      <trkpt lat="48.04435" lon="4.29013">
        <ele>199.13</ele>
        <time>2021-08-10T19:26:30Z</time>
      </trkpt>
      <trkpt lat="48.04433" lon="4.29008">
        <ele>199.13</ele>
        <time>2021-08-10T19:26:31Z</time>
      </trkpt>
      <trkpt lat="48.04431" lon="4.29003">
        <ele>199.13</ele>
        <time>2021-08-10T19:26:32Z</time>
      </trkpt>
      <trkpt lat="48.0442" lon="4.28969">
        <ele>198.65</ele>
        <time>2021-08-10T19:26:39Z</time>
      </trkpt>
      <trkpt lat="48.0442" lon="4.28969">
        <ele>198.65</ele>
        <time>2021-08-10T19:26:47Z</time>
      </trkpt>
      <trkpt lat="48.0442" lon="4.2897">
        <ele>198.65</ele>
        <time>2021-08-10T19:26:59Z</time>
      </trkpt>
      <trkpt lat="48.0442" lon="4.2897">
        <ele>198.65</ele>
        <time>2021-08-10T19:27:13Z</time>
      </trkpt>
      <trkpt lat="48.04419" lon="4.28969">
        <ele>198.65</ele>
        <time>2021-08-10T19:27:26Z</time>
      </trkpt>
      <trkpt lat="48.04417" lon="4.28962">
        <ele>198.65</ele>
        <time>2021-08-10T19:27:36Z</time>
      </trkpt>
      <trkpt lat="48.0441" lon="4.28941">
        <ele>198.17</ele>
        <time>2021-08-10T19:27:42Z</time>
      </trkpt>
      <trkpt lat="48.04397" lon="4.28898">
        <ele>197.69</ele>
        <time>2021-08-10T19:27:49Z</time>
      </trkpt>
      <trkpt lat="48.04374" lon="4.28843">
        <ele>197.21</ele>
        <time>2021-08-10T19:27:59Z</time>
      </trkpt>
      <trkpt lat="48.04351" lon="4.28798">
        <ele>196.73</ele>
        <time>2021-08-10T19:28:08Z</time>
      </trkpt>
      <trkpt lat="48.04326" lon="4.28738">
        <ele>196.25</ele>
        <time>2021-08-10T19:28:18Z</time>
      </trkpt>
      <trkpt lat="48.04306" lon="4.28679">
        <ele>196.25</ele>
        <time>2021-08-10T19:28:27Z</time>
      </trkpt>
      <trkpt lat="48.0429" lon="4.28614">
        <ele>195.77</ele>
        <time>2021-08-10T19:28:36Z</time>
      </trkpt>
      <trkpt lat="48.04279" lon="4.28541">
        <ele>195.28</ele>
        <time>2021-08-10T19:28:46Z</time>
      </trkpt>
      <trkpt lat="48.04262" lon="4.28469">
        <ele>194.8</ele>
        <time>2021-08-10T19:28:57Z</time>
      </trkpt>
      <trkpt lat="48.04252" lon="4.28427">
        <ele>194.32</ele>
        <time>2021-08-10T19:29:05Z</time>
      </trkpt>
      <trkpt lat="48.04244" lon="4.28388">
        <ele>194.32</ele>
        <time>2021-08-10T19:29:13Z</time>
      </trkpt>
      <trkpt lat="48.04242" lon="4.28387">
        <ele>194.32</ele>
        <time>2021-08-10T19:29:14Z</time>
      </trkpt>
      <trkpt lat="48.0424" lon="4.28388">
        <ele>194.32</ele>
        <time>2021-08-10T19:29:15Z</time>
      </trkpt>
      <trkpt lat="48.04238" lon="4.2839">
        <ele>194.32</ele>
        <time>2021-08-10T19:29:16Z</time>
      </trkpt>
      <trkpt lat="48.04238" lon="4.28392">
        <ele>194.32</ele>
        <time>2021-08-10T19:29:17Z</time>
      </trkpt>
      <trkpt lat="48.04237" lon="4.28396">
        <ele>193.84</ele>
        <time>2021-08-10T19:29:18Z</time>
      </trkpt>
      <trkpt lat="48.04237" lon="4.28399">
        <ele>193.84</ele>
        <time>2021-08-10T19:29:19Z</time>
      </trkpt>
      <trkpt lat="48.04236" lon="4.28415">
        <ele>193.84</ele>
        <time>2021-08-10T19:29:24Z</time>
      </trkpt>
      <trkpt lat="48.04237" lon="4.28415">
        <ele>193.84</ele>
        <time>2021-08-10T19:29:25Z</time>
      </trkpt>
      <trkpt lat="48.04239" lon="4.28398">
        <ele>193.84</ele>
        <time>2021-08-10T19:29:30Z</time>
      </trkpt>
      <trkpt lat="48.04242" lon="4.2837">
        <ele>193.84</ele>
        <time>2021-08-10T19:29:36Z</time>
      </trkpt>
      <trkpt lat="48.04241" lon="4.28366">
        <ele>193.84</ele>
        <time>2021-08-10T19:29:37Z</time>
      </trkpt>
      <trkpt lat="48.04238" lon="4.28364">
        <ele>193.84</ele>
        <time>2021-08-10T19:29:38Z</time>
      </trkpt>
      <trkpt lat="48.04235" lon="4.28364">
        <ele>193.84</ele>
        <time>2021-08-10T19:29:39Z</time>
      </trkpt>
      <trkpt lat="48.04232" lon="4.28366">
        <ele>193.84</ele>
        <time>2021-08-10T19:29:40Z</time>
      </trkpt>
      <trkpt lat="48.04229" lon="4.2837">
        <ele>193.84</ele>
        <time>2021-08-10T19:29:41Z</time>
      </trkpt>
      <trkpt lat="48.04226" lon="4.28375">
        <ele>193.84</ele>
        <time>2021-08-10T19:29:42Z</time>
      </trkpt>
      <trkpt lat="48.04203" lon="4.28402">
        <ele>193.36</ele>
        <time>2021-08-10T19:29:49Z</time>
      </trkpt>
      <trkpt lat="48.04163" lon="4.28443">
        <ele>193.36</ele>
        <time>2021-08-10T19:30:00Z</time>
      </trkpt>
      <trkpt lat="48.04133" lon="4.28478">
        <ele>193.36</ele>
        <time>2021-08-10T19:30:09Z</time>
      </trkpt>
      <trkpt lat="48.04098" lon="4.28515">
        <ele>193.36</ele>
        <time>2021-08-10T19:30:19Z</time>
      </trkpt>
      <trkpt lat="48.04095" lon="4.28519">
        <ele>194.8</ele>
        <time>2021-08-10T19:30:20Z</time>
      </trkpt>
      <trkpt lat="48.04092" lon="4.28523">
        <ele>194.8</ele>
        <time>2021-08-10T19:30:21Z</time>
      </trkpt>
      <trkpt lat="48.04057" lon="4.28567">
        <ele>194.8</ele>
        <time>2021-08-10T19:30:31Z</time>
      </trkpt>
      <trkpt lat="48.04023" lon="4.28615">
        <ele>194.8</ele>
        <time>2021-08-10T19:30:41Z</time>
      </trkpt>
      <trkpt lat="48.0402" lon="4.28619">
        <ele>194.8</ele>
        <time>2021-08-10T19:30:42Z</time>
      </trkpt>
      <trkpt lat="48.04008" lon="4.28639">
        <ele>194.8</ele>
        <time>2021-08-10T19:30:46Z</time>
      </trkpt>
      <trkpt lat="48.03987" lon="4.2867">
        <ele>194.8</ele>
        <time>2021-08-10T19:30:53Z</time>
      </trkpt>
      <trkpt lat="48.03983" lon="4.28674">
        <ele>194.8</ele>
        <time>2021-08-10T19:30:54Z</time>
      </trkpt>
      <trkpt lat="48.03955" lon="4.28715">
        <ele>194.8</ele>
        <time>2021-08-10T19:31:03Z</time>
      </trkpt>
      <trkpt lat="48.03923" lon="4.28758">
        <ele>194.8</ele>
        <time>2021-08-10T19:31:13Z</time>
      </trkpt>
      <trkpt lat="48.039" lon="4.2879">
        <ele>194.8</ele>
        <time>2021-08-10T19:31:20Z</time>
      </trkpt>
      <trkpt lat="48.03871" lon="4.28833">
        <ele>194.8</ele>
        <time>2021-08-10T19:31:29Z</time>
      </trkpt>
      <trkpt lat="48.03837" lon="4.28885">
        <ele>194.8</ele>
        <time>2021-08-10T19:31:40Z</time>
      </trkpt>
      <trkpt lat="48.03804" lon="4.28936">
        <ele>194.8</ele>
        <time>2021-08-10T19:31:51Z</time>
      </trkpt>
      <trkpt lat="48.03772" lon="4.28987">
        <ele>194.8</ele>
        <time>2021-08-10T19:32:02Z</time>
      </trkpt>
      <trkpt lat="48.03742" lon="4.29031">
        <ele>195.28</ele>
        <time>2021-08-10T19:32:12Z</time>
      </trkpt>
      <trkpt lat="48.03736" lon="4.29041">
        <ele>195.28</ele>
        <time>2021-08-10T19:32:14Z</time>
      </trkpt>
      <trkpt lat="48.0371" lon="4.29084">
        <ele>195.77</ele>
        <time>2021-08-10T19:32:23Z</time>
      </trkpt>
      <trkpt lat="48.03684" lon="4.29137">
        <ele>195.77</ele>
        <time>2021-08-10T19:32:33Z</time>
      </trkpt>
      <trkpt lat="48.03667" lon="4.29187">
        <ele>196.25</ele>
        <time>2021-08-10T19:32:42Z</time>
      </trkpt>
      <trkpt lat="48.03651" lon="4.29239">
        <ele>196.73</ele>
        <time>2021-08-10T19:32:51Z</time>
      </trkpt>
      <trkpt lat="48.03639" lon="4.2927">
        <ele>196.73</ele>
        <time>2021-08-10T19:32:56Z</time>
      </trkpt>
      <trkpt lat="48.03618" lon="4.29312">
        <ele>196.73</ele>
        <time>2021-08-10T19:33:03Z</time>
      </trkpt>
      <trkpt lat="48.03581" lon="4.29363">
        <ele>196.73</ele>
        <time>2021-08-10T19:33:13Z</time>
      </trkpt>
      <trkpt lat="48.03536" lon="4.29418">
        <ele>195.77</ele>
        <time>2021-08-10T19:33:25Z</time>
      </trkpt>
      <trkpt lat="48.03519" lon="4.29433">
        <ele>195.28</ele>
        <time>2021-08-10T19:33:29Z</time>
      </trkpt>
      <trkpt lat="48.03515" lon="4.29436">
        <ele>195.28</ele>
        <time>2021-08-10T19:33:30Z</time>
      </trkpt>
      <trkpt lat="48.03483" lon="4.29465">
        <ele>195.28</ele>
        <time>2021-08-10T19:33:38Z</time>
      </trkpt>
      <trkpt lat="48.03439" lon="4.29496">
        <ele>196.73</ele>
        <time>2021-08-10T19:33:49Z</time>
      </trkpt>
      <trkpt lat="48.03403" lon="4.29531">
        <ele>197.21</ele>
        <time>2021-08-10T19:33:58Z</time>
      </trkpt>
      <trkpt lat="48.03386" lon="4.29549">
        <ele>197.21</ele>
        <time>2021-08-10T19:34:03Z</time>
      </trkpt>
      <trkpt lat="48.03356" lon="4.2959">
        <ele>197.21</ele>
        <time>2021-08-10T19:34:12Z</time>
      </trkpt>
      <trkpt lat="48.0335" lon="4.29599">
        <ele>197.21</ele>
        <time>2021-08-10T19:34:14Z</time>
      </trkpt>
      <trkpt lat="48.03314" lon="4.29641">
        <ele>197.21</ele>
        <time>2021-08-10T19:34:24Z</time>
      </trkpt>
      <trkpt lat="48.03276" lon="4.29679">
        <ele>197.21</ele>
        <time>2021-08-10T19:34:34Z</time>
      </trkpt>
      <trkpt lat="48.0326" lon="4.29692">
        <ele>197.21</ele>
        <time>2021-08-10T19:34:38Z</time>
      </trkpt>
      <trkpt lat="48.03248" lon="4.29704">
        <ele>197.21</ele>
        <time>2021-08-10T19:34:41Z</time>
      </trkpt>
      <trkpt lat="48.03212" lon="4.29746">
        <ele>196.73</ele>
        <time>2021-08-10T19:34:50Z</time>
      </trkpt>
      <trkpt lat="48.03165" lon="4.2979">
        <ele>196.73</ele>
        <time>2021-08-10T19:35:01Z</time>
      </trkpt>
      <trkpt lat="48.03127" lon="4.29827">
        <ele>196.73</ele>
        <time>2021-08-10T19:35:10Z</time>
      </trkpt>
      <trkpt lat="48.03081" lon="4.29871">
        <ele>197.21</ele>
        <time>2021-08-10T19:35:21Z</time>
      </trkpt>
      <trkpt lat="48.03039" lon="4.29913">
        <ele>197.21</ele>
        <time>2021-08-10T19:35:31Z</time>
      </trkpt>
      <trkpt lat="48.02989" lon="4.29964">
        <ele>197.69</ele>
        <time>2021-08-10T19:35:43Z</time>
      </trkpt>
      <trkpt lat="48.02939" lon="4.30017">
        <ele>197.69</ele>
        <time>2021-08-10T19:35:55Z</time>
      </trkpt>
      <trkpt lat="48.02901" lon="4.30054">
        <ele>198.17</ele>
        <time>2021-08-10T19:36:04Z</time>
      </trkpt>
      <trkpt lat="48.02883" lon="4.30068">
        <ele>198.17</ele>
        <time>2021-08-10T19:36:08Z</time>
      </trkpt>
      <trkpt lat="48.02877" lon="4.30072">
        <ele>198.17</ele>
        <time>2021-08-10T19:36:09Z</time>
      </trkpt>
      <trkpt lat="48.02871" lon="4.30076">
        <ele>198.17</ele>
        <time>2021-08-10T19:36:10Z</time>
      </trkpt>
      <trkpt lat="48.02866" lon="4.3008">
        <ele>198.17</ele>
        <time>2021-08-10T19:36:11Z</time>
      </trkpt>
      <trkpt lat="48.02862" lon="4.30084">
        <ele>198.17</ele>
        <time>2021-08-10T19:36:12Z</time>
      </trkpt>
      <trkpt lat="48.02853" lon="4.3009">
        <ele>198.65</ele>
        <time>2021-08-10T19:36:14Z</time>
      </trkpt>
      <trkpt lat="48.02848" lon="4.30093">
        <ele>198.65</ele>
        <time>2021-08-10T19:36:15Z</time>
      </trkpt>
      <trkpt lat="48.02843" lon="4.30096">
        <ele>198.65</ele>
        <time>2021-08-10T19:36:16Z</time>
      </trkpt>
      <trkpt lat="48.0282" lon="4.30118">
        <ele>199.13</ele>
        <time>2021-08-10T19:36:23Z</time>
      </trkpt>
      <trkpt lat="48.02797" lon="4.30138">
        <ele>199.61</ele>
        <time>2021-08-10T19:36:29Z</time>
      </trkpt>
      <trkpt lat="48.0279" lon="4.30147">
        <ele>199.61</ele>
        <time>2021-08-10T19:36:31Z</time>
      </trkpt>
      <trkpt lat="48.02752" lon="4.30185">
        <ele>199.61</ele>
        <time>2021-08-10T19:36:41Z</time>
      </trkpt>
      <trkpt lat="48.02734" lon="4.30199">
        <ele>199.61</ele>
        <time>2021-08-10T19:36:46Z</time>
      </trkpt>
      <trkpt lat="48.02729" lon="4.30197">
        <ele>199.61</ele>
        <time>2021-08-10T19:36:47Z</time>
      </trkpt>
      <trkpt lat="48.02726" lon="4.30194">
        <ele>199.61</ele>
        <time>2021-08-10T19:36:48Z</time>
      </trkpt>
      <trkpt lat="48.02724" lon="4.30189">
        <ele>199.61</ele>
        <time>2021-08-10T19:36:49Z</time>
      </trkpt>
      <trkpt lat="48.02722" lon="4.30183">
        <ele>199.61</ele>
        <time>2021-08-10T19:36:50Z</time>
      </trkpt>
      <trkpt lat="48.0272" lon="4.30177">
        <ele>199.61</ele>
        <time>2021-08-10T19:36:51Z</time>
      </trkpt>
      <trkpt lat="48.02718" lon="4.30171">
        <ele>199.61</ele>
        <time>2021-08-10T19:36:52Z</time>
      </trkpt>
      <trkpt lat="48.02696" lon="4.30114">
        <ele>199.61</ele>
        <time>2021-08-10T19:37:01Z</time>
      </trkpt>
      <trkpt lat="48.02683" lon="4.30083">
        <ele>199.61</ele>
        <time>2021-08-10T19:37:06Z</time>
      </trkpt>
      <trkpt lat="48.02679" lon="4.30079">
        <ele>199.61</ele>
        <time>2021-08-10T19:37:07Z</time>
      </trkpt>
      <trkpt lat="48.02675" lon="4.30075">
        <ele>199.61</ele>
        <time>2021-08-10T19:37:08Z</time>
      </trkpt>
      <trkpt lat="48.02671" lon="4.30074">
        <ele>199.61</ele>
        <time>2021-08-10T19:37:09Z</time>
      </trkpt>
      <trkpt lat="48.02667" lon="4.30076">
        <ele>199.61</ele>
        <time>2021-08-10T19:37:10Z</time>
      </trkpt>
      <trkpt lat="48.02662" lon="4.30078">
        <ele>199.61</ele>
        <time>2021-08-10T19:37:11Z</time>
      </trkpt>
      <trkpt lat="48.02649" lon="4.30086">
        <ele>199.61</ele>
        <time>2021-08-10T19:37:14Z</time>
      </trkpt>
      <trkpt lat="48.02645" lon="4.30087">
        <ele>199.61</ele>
        <time>2021-08-10T19:37:15Z</time>
      </trkpt>
      <trkpt lat="48.02641" lon="4.30088">
        <ele>199.61</ele>
        <time>2021-08-10T19:37:16Z</time>
      </trkpt>
      <trkpt lat="48.02637" lon="4.30088">
        <ele>199.61</ele>
        <time>2021-08-10T19:37:17Z</time>
      </trkpt>
      <trkpt lat="48.02633" lon="4.30086">
        <ele>199.61</ele>
        <time>2021-08-10T19:37:18Z</time>
      </trkpt>
      <trkpt lat="48.02629" lon="4.30083">
        <ele>199.61</ele>
        <time>2021-08-10T19:37:19Z</time>
      </trkpt>
      <trkpt lat="48.02626" lon="4.30079">
        <ele>199.61</ele>
        <time>2021-08-10T19:37:20Z</time>
      </trkpt>
      <trkpt lat="48.02622" lon="4.30075">
        <ele>199.61</ele>
        <time>2021-08-10T19:37:21Z</time>
      </trkpt>
      <trkpt lat="48.02605" lon="4.30058">
        <ele>198.65</ele>
        <time>2021-08-10T19:37:25Z</time>
      </trkpt>
      <trkpt lat="48.02601" lon="4.30052">
        <ele>198.65</ele>
        <time>2021-08-10T19:37:26Z</time>
      </trkpt>
      <trkpt lat="48.02598" lon="4.30048">
        <ele>198.65</ele>
        <time>2021-08-10T19:37:27Z</time>
      </trkpt>
      <trkpt lat="48.02596" lon="4.30042">
        <ele>198.65</ele>
        <time>2021-08-10T19:37:28Z</time>
      </trkpt>
      <trkpt lat="48.02587" lon="4.30026">
        <ele>198.65</ele>
        <time>2021-08-10T19:37:31Z</time>
      </trkpt>
      <trkpt lat="48.02581" lon="4.30016">
        <ele>198.65</ele>
        <time>2021-08-10T19:37:33Z</time>
      </trkpt>
      <trkpt lat="48.02577" lon="4.30012">
        <ele>198.65</ele>
        <time>2021-08-10T19:37:34Z</time>
      </trkpt>
      <trkpt lat="48.02573" lon="4.30009">
        <ele>198.65</ele>
        <time>2021-08-10T19:37:35Z</time>
      </trkpt>
      <trkpt lat="48.02569" lon="4.30007">
        <ele>198.65</ele>
        <time>2021-08-10T19:37:36Z</time>
      </trkpt>
      <trkpt lat="48.02565" lon="4.30004">
        <ele>198.65</ele>
        <time>2021-08-10T19:37:37Z</time>
      </trkpt>
      <trkpt lat="48.02553" lon="4.29995">
        <ele>198.65</ele>
        <time>2021-08-10T19:37:40Z</time>
      </trkpt>
      <trkpt lat="48.0255" lon="4.2999">
        <ele>198.65</ele>
        <time>2021-08-10T19:37:41Z</time>
      </trkpt>
      <trkpt lat="48.02547" lon="4.29986">
        <ele>198.65</ele>
        <time>2021-08-10T19:37:42Z</time>
      </trkpt>
      <trkpt lat="48.02536" lon="4.29969">
        <ele>199.61</ele>
        <time>2021-08-10T19:37:46Z</time>
      </trkpt>
      <trkpt lat="48.02526" lon="4.29939">
        <ele>200.09</ele>
        <time>2021-08-10T19:37:52Z</time>
      </trkpt>
      <trkpt lat="48.02511" lon="4.29931">
        <ele>200.57</ele>
        <time>2021-08-10T19:37:57Z</time>
      </trkpt>
      <trkpt lat="48.02496" lon="4.29927">
        <ele>202.01</ele>
        <time>2021-08-10T19:38:04Z</time>
      </trkpt>
      <trkpt lat="48.02483" lon="4.29918">
        <ele>202.98</ele>
        <time>2021-08-10T19:38:11Z</time>
      </trkpt>
      <trkpt lat="48.02464" lon="4.29921">
        <ele>203.94</ele>
        <time>2021-08-10T19:38:20Z</time>
      </trkpt>
      <trkpt lat="48.02445" lon="4.29928">
        <ele>205.38</ele>
        <time>2021-08-10T19:38:29Z</time>
      </trkpt>
      <trkpt lat="48.02417" lon="4.29937">
        <ele>206.82</ele>
        <time>2021-08-10T19:38:42Z</time>
      </trkpt>
      <trkpt lat="48.02397" lon="4.29942">
        <ele>208.26</ele>
        <time>2021-08-10T19:38:52Z</time>
      </trkpt>
      <trkpt lat="48.0238" lon="4.29945">
        <ele>208.74</ele>
        <time>2021-08-10T19:39:00Z</time>
      </trkpt>
      <trkpt lat="48.02362" lon="4.29943">
        <ele>210.19</ele>
        <time>2021-08-10T19:39:08Z</time>
      </trkpt>
      <trkpt lat="48.02348" lon="4.29935">
        <ele>211.15</ele>
        <time>2021-08-10T19:39:15Z</time>
      </trkpt>
      <trkpt lat="48.02333" lon="4.29918">
        <ele>212.59</ele>
        <time>2021-08-10T19:39:25Z</time>
      </trkpt>
      <trkpt lat="48.02319" lon="4.299">
        <ele>214.03</ele>
        <time>2021-08-10T19:39:35Z</time>
      </trkpt>
      <trkpt lat="48.02307" lon="4.29885">
        <ele>215.47</ele>
        <time>2021-08-10T19:39:44Z</time>
      </trkpt>
      <trkpt lat="48.02296" lon="4.2987">
        <ele>216.91</ele>
        <time>2021-08-10T19:39:55Z</time>
      </trkpt>
      <trkpt lat="48.02285" lon="4.2986">
        <ele>218.84</ele>
        <time>2021-08-10T19:40:05Z</time>
      </trkpt>
      <trkpt lat="48.02271" lon="4.29853">
        <ele>220.76</ele>
        <time>2021-08-10T19:40:16Z</time>
      </trkpt>
      <trkpt lat="48.0226" lon="4.29847">
        <ele>222.2</ele>
        <time>2021-08-10T19:40:25Z</time>
      </trkpt>
      <trkpt lat="48.02258" lon="4.29846">
        <ele>222.2</ele>
        <time>2021-08-10T19:40:26Z</time>
      </trkpt>
      <trkpt lat="48.02257" lon="4.29846">
        <ele>222.68</ele>
        <time>2021-08-10T19:40:27Z</time>
      </trkpt>
      <trkpt lat="48.02256" lon="4.29845">
        <ele>222.68</ele>
        <time>2021-08-10T19:40:28Z</time>
      </trkpt>
      <trkpt lat="48.02255" lon="4.29844">
        <ele>223.16</ele>
        <time>2021-08-10T19:40:29Z</time>
      </trkpt>
      <trkpt lat="48.02254" lon="4.29843">
        <ele>223.16</ele>
        <time>2021-08-10T19:40:30Z</time>
      </trkpt>
      <trkpt lat="48.02253" lon="4.29842">
        <ele>223.64</ele>
        <time>2021-08-10T19:40:31Z</time>
      </trkpt>
      <trkpt lat="48.02245" lon="4.29839">
        <ele>224.12</ele>
        <time>2021-08-10T19:40:37Z</time>
      </trkpt>
      <trkpt lat="48.02238" lon="4.29836">
        <ele>225.57</ele>
        <time>2021-08-10T19:40:43Z</time>
      </trkpt>
      <trkpt lat="48.02232" lon="4.29833">
        <ele>226.53</ele>
        <time>2021-08-10T19:40:48Z</time>
      </trkpt>
      <trkpt lat="48.02231" lon="4.29832">
        <ele>226.53</ele>
        <time>2021-08-10T19:40:49Z</time>
      </trkpt>
      <trkpt lat="48.02215" lon="4.29824">
        <ele>228.45</ele>
        <time>2021-08-10T19:41:00Z</time>
      </trkpt>
      <trkpt lat="48.02201" lon="4.29816">
        <ele>229.41</ele>
        <time>2021-08-10T19:41:09Z</time>
      </trkpt>
      <trkpt lat="48.02184" lon="4.29805">
        <ele>231.33</ele>
        <time>2021-08-10T19:41:21Z</time>
      </trkpt>
      <trkpt lat="48.02168" lon="4.29792">
        <ele>232.3</ele>
        <time>2021-08-10T19:41:32Z</time>
      </trkpt>
      <trkpt lat="48.02155" lon="4.29781">
        <ele>233.74</ele>
        <time>2021-08-10T19:41:41Z</time>
      </trkpt>
      <trkpt lat="48.02141" lon="4.29769">
        <ele>235.18</ele>
        <time>2021-08-10T19:41:51Z</time>
      </trkpt>
      <trkpt lat="48.02127" lon="4.29755">
        <ele>237.1</ele>
        <time>2021-08-10T19:42:02Z</time>
      </trkpt>
      <trkpt lat="48.02113" lon="4.29743">
        <ele>238.54</ele>
        <time>2021-08-10T19:42:12Z</time>
      </trkpt>
      <trkpt lat="48.021" lon="4.29731">
        <ele>240.47</ele>
        <time>2021-08-10T19:42:22Z</time>
      </trkpt>
      <trkpt lat="48.02087" lon="4.2972">
        <ele>241.43</ele>
        <time>2021-08-10T19:42:31Z</time>
      </trkpt>
      <trkpt lat="48.0207" lon="4.2971">
        <ele>242.87</ele>
        <time>2021-08-10T19:42:40Z</time>
      </trkpt>
      <trkpt lat="48.02056" lon="4.29702">
        <ele>243.83</ele>
        <time>2021-08-10T19:42:47Z</time>
      </trkpt>
      <trkpt lat="48.02037" lon="4.2969">
        <ele>245.27</ele>
        <time>2021-08-10T19:42:56Z</time>
      </trkpt>
      <trkpt lat="48.02019" lon="4.29676">
        <ele>246.23</ele>
        <time>2021-08-10T19:43:05Z</time>
      </trkpt>
      <trkpt lat="48.02004" lon="4.29666">
        <ele>247.68</ele>
        <time>2021-08-10T19:43:12Z</time>
      </trkpt>
      <trkpt lat="48.01989" lon="4.29654">
        <ele>249.12</ele>
        <time>2021-08-10T19:43:20Z</time>
      </trkpt>
      <trkpt lat="48.01973" lon="4.29643">
        <ele>250.56</ele>
        <time>2021-08-10T19:43:28Z</time>
      </trkpt>
      <trkpt lat="48.01958" lon="4.29633">
        <ele>252</ele>
        <time>2021-08-10T19:43:36Z</time>
      </trkpt>
      <trkpt lat="48.01939" lon="4.29625">
        <ele>253.44</ele>
        <time>2021-08-10T19:43:45Z</time>
      </trkpt>
      <trkpt lat="48.01921" lon="4.29618">
        <ele>254.89</ele>
        <time>2021-08-10T19:43:55Z</time>
      </trkpt>
      <trkpt lat="48.01905" lon="4.29611">
        <ele>255.85</ele>
        <time>2021-08-10T19:44:04Z</time>
      </trkpt>
      <trkpt lat="48.01892" lon="4.29606">
        <ele>257.77</ele>
        <time>2021-08-10T19:44:12Z</time>
      </trkpt>
      <trkpt lat="48.01877" lon="4.29598">
        <ele>260.17</ele>
        <time>2021-08-10T19:44:22Z</time>
      </trkpt>
      <trkpt lat="48.01862" lon="4.29586">
        <ele>262.1</ele>
        <time>2021-08-10T19:44:34Z</time>
      </trkpt>
      <trkpt lat="48.01851" lon="4.29578">
        <ele>264.02</ele>
        <time>2021-08-10T19:44:42Z</time>
      </trkpt>
      <trkpt lat="48.01839" lon="4.29569">
        <ele>265.46</ele>
        <time>2021-08-10T19:44:51Z</time>
      </trkpt>
      <trkpt lat="48.01836" lon="4.29567">
        <ele>266.42</ele>
        <time>2021-08-10T19:44:53Z</time>
      </trkpt>
      <trkpt lat="48.01835" lon="4.29565">
        <ele>266.42</ele>
        <time>2021-08-10T19:44:54Z</time>
      </trkpt>
      <trkpt lat="48.01834" lon="4.29565">
        <ele>266.42</ele>
        <time>2021-08-10T19:44:55Z</time>
      </trkpt>
      <trkpt lat="48.01818" lon="4.29554">
        <ele>268.83</ele>
        <time>2021-08-10T19:45:07Z</time>
      </trkpt>
      <trkpt lat="48.01801" lon="4.29544">
        <ele>271.23</ele>
        <time>2021-08-10T19:45:19Z</time>
      </trkpt>
      <trkpt lat="48.01784" lon="4.29534">
        <ele>273.15</ele>
        <time>2021-08-10T19:45:31Z</time>
      </trkpt>
      <trkpt lat="48.01769" lon="4.29527">
        <ele>274.59</ele>
        <time>2021-08-10T19:45:41Z</time>
      </trkpt>
      <trkpt lat="48.01759" lon="4.29523">
        <ele>276.04</ele>
        <time>2021-08-10T19:45:48Z</time>
      </trkpt>
      <trkpt lat="48.01738" lon="4.29515">
        <ele>277.48</ele>
        <time>2021-08-10T19:46:01Z</time>
      </trkpt>
      <trkpt lat="48.01721" lon="4.2951">
        <ele>278.92</ele>
        <time>2021-08-10T19:46:11Z</time>
      </trkpt>
      <trkpt lat="48.01701" lon="4.29507">
        <ele>280.84</ele>
        <time>2021-08-10T19:46:22Z</time>
      </trkpt>
      <trkpt lat="48.01682" lon="4.29504">
        <ele>281.8</ele>
        <time>2021-08-10T19:46:32Z</time>
      </trkpt>
      <trkpt lat="48.01665" lon="4.295">
        <ele>283.25</ele>
        <time>2021-08-10T19:46:40Z</time>
      </trkpt>
      <trkpt lat="48.01646" lon="4.29494">
        <ele>283.73</ele>
        <time>2021-08-10T19:46:49Z</time>
      </trkpt>
      <trkpt lat="48.01628" lon="4.29486">
        <ele>285.17</ele>
        <time>2021-08-10T19:46:58Z</time>
      </trkpt>
      <trkpt lat="48.01603" lon="4.29472">
        <ele>286.61</ele>
        <time>2021-08-10T19:47:10Z</time>
      </trkpt>
      <trkpt lat="48.01576" lon="4.29453">
        <ele>289.01</ele>
        <time>2021-08-10T19:47:21Z</time>
      </trkpt>
      <trkpt lat="48.01553" lon="4.2944">
        <ele>289.97</ele>
        <time>2021-08-10T19:47:29Z</time>
      </trkpt>
      <trkpt lat="48.01521" lon="4.29424">
        <ele>290.94</ele>
        <time>2021-08-10T19:47:40Z</time>
      </trkpt>
      <trkpt lat="48.01493" lon="4.29415">
        <ele>291.9</ele>
        <time>2021-08-10T19:47:49Z</time>
      </trkpt>
      <trkpt lat="48.01462" lon="4.29406">
        <ele>292.86</ele>
        <time>2021-08-10T19:47:59Z</time>
      </trkpt>
      <trkpt lat="48.01426" lon="4.29394">
        <ele>294.78</ele>
        <time>2021-08-10T19:48:11Z</time>
      </trkpt>
      <trkpt lat="48.01393" lon="4.29378">
        <ele>295.74</ele>
        <time>2021-08-10T19:48:22Z</time>
      </trkpt>
      <trkpt lat="48.01358" lon="4.29366">
        <ele>297.67</ele>
        <time>2021-08-10T19:48:34Z</time>
      </trkpt>
      <trkpt lat="48.01323" lon="4.29376">
        <ele>298.63</ele>
        <time>2021-08-10T19:48:45Z</time>
      </trkpt>
      <trkpt lat="48.01299" lon="4.29398">
        <ele>300.07</ele>
        <time>2021-08-10T19:48:54Z</time>
      </trkpt>
      <trkpt lat="48.0127" lon="4.29421">
        <ele>301.99</ele>
        <time>2021-08-10T19:49:05Z</time>
      </trkpt>
      <trkpt lat="48.01244" lon="4.29428">
        <ele>302.95</ele>
        <time>2021-08-10T19:49:13Z</time>
      </trkpt>
      <trkpt lat="48.01222" lon="4.29443">
        <ele>303.91</ele>
        <time>2021-08-10T19:49:20Z</time>
      </trkpt>
      <trkpt lat="48.012" lon="4.29474">
        <ele>303.91</ele>
        <time>2021-08-10T19:49:28Z</time>
      </trkpt>
      <trkpt lat="48.01186" lon="4.29482">
        <ele>304.39</ele>
        <time>2021-08-10T19:49:32Z</time>
      </trkpt>
      <trkpt lat="48.01181" lon="4.29482">
        <ele>304.39</ele>
        <time>2021-08-10T19:49:33Z</time>
      </trkpt>
      <trkpt lat="48.01154" lon="4.29478">
        <ele>304.88</ele>
        <time>2021-08-10T19:49:40Z</time>
      </trkpt>
      <trkpt lat="48.01129" lon="4.29474">
        <ele>304.88</ele>
        <time>2021-08-10T19:49:47Z</time>
      </trkpt>
      <trkpt lat="48.01116" lon="4.29473">
        <ele>304.88</ele>
        <time>2021-08-10T19:49:50Z</time>
      </trkpt>
      <trkpt lat="48.01071" lon="4.29472">
        <ele>302.95</ele>
        <time>2021-08-10T19:49:59Z</time>
      </trkpt>
      <trkpt lat="48.01019" lon="4.29475">
        <ele>300.07</ele>
        <time>2021-08-10T19:50:07Z</time>
      </trkpt>
      <trkpt lat="48.0096" lon="4.29486">
        <ele>297.18</ele>
        <time>2021-08-10T19:50:15Z</time>
      </trkpt>
      <trkpt lat="48.00897" lon="4.29516">
        <ele>293.82</ele>
        <time>2021-08-10T19:50:23Z</time>
      </trkpt>
      <trkpt lat="48.00822" lon="4.29564">
        <ele>291.9</ele>
        <time>2021-08-10T19:50:33Z</time>
      </trkpt>
      <trkpt lat="48.00769" lon="4.29603">
        <ele>290.94</ele>
        <time>2021-08-10T19:50:41Z</time>
      </trkpt>
      <trkpt lat="48.00711" lon="4.29631">
        <ele>290.94</ele>
        <time>2021-08-10T19:50:50Z</time>
      </trkpt>
      <trkpt lat="48.00689" lon="4.29641">
        <ele>292.38</ele>
        <time>2021-08-10T19:50:54Z</time>
      </trkpt>
      <trkpt lat="48.00646" lon="4.29661">
        <ele>293.34</ele>
        <time>2021-08-10T19:51:03Z</time>
      </trkpt>
      <trkpt lat="48.00616" lon="4.29675">
        <ele>294.3</ele>
        <time>2021-08-10T19:51:11Z</time>
      </trkpt>
      <trkpt lat="48.00579" lon="4.29692">
        <ele>295.26</ele>
        <time>2021-08-10T19:51:21Z</time>
      </trkpt>
      <trkpt lat="48.00541" lon="4.2971">
        <ele>295.74</ele>
        <time>2021-08-10T19:51:31Z</time>
      </trkpt>
      <trkpt lat="48.0051" lon="4.29727">
        <ele>296.22</ele>
        <time>2021-08-10T19:51:39Z</time>
      </trkpt>
      <trkpt lat="48.00506" lon="4.2973">
        <ele>296.22</ele>
        <time>2021-08-10T19:51:40Z</time>
      </trkpt>
      <trkpt lat="48.00465" lon="4.29753">
        <ele>296.22</ele>
        <time>2021-08-10T19:51:50Z</time>
      </trkpt>
      <trkpt lat="48.00428" lon="4.29774">
        <ele>294.3</ele>
        <time>2021-08-10T19:51:59Z</time>
      </trkpt>
      <trkpt lat="48.0039" lon="4.29795">
        <ele>293.82</ele>
        <time>2021-08-10T19:52:07Z</time>
      </trkpt>
      <trkpt lat="48.00344" lon="4.29818">
        <ele>291.9</ele>
        <time>2021-08-10T19:52:16Z</time>
      </trkpt>
      <trkpt lat="48.0029" lon="4.2984">
        <ele>289.97</ele>
        <time>2021-08-10T19:52:25Z</time>
      </trkpt>
      <trkpt lat="48.00228" lon="4.29847">
        <ele>287.09</ele>
        <time>2021-08-10T19:52:34Z</time>
      </trkpt>
      <trkpt lat="48.00174" lon="4.29866">
        <ele>285.17</ele>
        <time>2021-08-10T19:52:41Z</time>
      </trkpt>
      <trkpt lat="48.00115" lon="4.29899">
        <ele>282.77</ele>
        <time>2021-08-10T19:52:49Z</time>
      </trkpt>
      <trkpt lat="48.00043" lon="4.29922">
        <ele>280.84</ele>
        <time>2021-08-10T19:52:58Z</time>
      </trkpt>
      <trkpt lat="47.99961" lon="4.29942">
        <ele>277.48</ele>
        <time>2021-08-10T19:53:08Z</time>
      </trkpt>
      <trkpt lat="47.99918" lon="4.29957">
        <ele>274.59</ele>
        <time>2021-08-10T19:53:13Z</time>
      </trkpt>
      <trkpt lat="47.999" lon="4.29964">
        <ele>273.63</ele>
        <time>2021-08-10T19:53:15Z</time>
      </trkpt>
      <trkpt lat="47.99829" lon="4.29991">
        <ele>270.27</ele>
        <time>2021-08-10T19:53:23Z</time>
      </trkpt>
      <trkpt lat="47.99778" lon="4.30018">
        <ele>268.35</ele>
        <time>2021-08-10T19:53:29Z</time>
      </trkpt>
      <trkpt lat="47.99732" lon="4.30031">
        <ele>265.46</ele>
        <time>2021-08-10T19:53:35Z</time>
      </trkpt>
      <trkpt lat="47.9971" lon="4.30034">
        <ele>264.5</ele>
        <time>2021-08-10T19:53:38Z</time>
      </trkpt>
      <trkpt lat="47.99666" lon="4.30034">
        <ele>261.14</ele>
        <time>2021-08-10T19:53:44Z</time>
      </trkpt>
      <trkpt lat="47.99645" lon="4.3003">
        <ele>258.73</ele>
        <time>2021-08-10T19:53:47Z</time>
      </trkpt>
      <trkpt lat="47.99638" lon="4.30027">
        <ele>257.77</ele>
        <time>2021-08-10T19:53:48Z</time>
      </trkpt>
      <trkpt lat="47.99612" lon="4.30013">
        <ele>254.89</ele>
        <time>2021-08-10T19:53:52Z</time>
      </trkpt>
      <trkpt lat="47.99607" lon="4.30009">
        <ele>254.41</ele>
        <time>2021-08-10T19:53:53Z</time>
      </trkpt>
      <trkpt lat="47.99602" lon="4.30003">
        <ele>253.93</ele>
        <time>2021-08-10T19:53:54Z</time>
      </trkpt>
      <trkpt lat="47.99598" lon="4.29997">
        <ele>253.93</ele>
        <time>2021-08-10T19:53:55Z</time>
      </trkpt>
      <trkpt lat="47.99594" lon="4.29991">
        <ele>252.96</ele>
        <time>2021-08-10T19:53:56Z</time>
      </trkpt>
      <trkpt lat="47.99591" lon="4.29984">
        <ele>252.48</ele>
        <time>2021-08-10T19:53:57Z</time>
      </trkpt>
      <trkpt lat="47.99576" lon="4.29958">
        <ele>249.12</ele>
        <time>2021-08-10T19:54:01Z</time>
      </trkpt>
      <trkpt lat="47.99572" lon="4.29951">
        <ele>248.16</ele>
        <time>2021-08-10T19:54:02Z</time>
      </trkpt>
      <trkpt lat="47.99567" lon="4.29946">
        <ele>247.2</ele>
        <time>2021-08-10T19:54:03Z</time>
      </trkpt>
      <trkpt lat="47.99561" lon="4.29942">
        <ele>246.23</ele>
        <time>2021-08-10T19:54:04Z</time>
      </trkpt>
      <trkpt lat="47.99555" lon="4.29938">
        <ele>244.79</ele>
        <time>2021-08-10T19:54:05Z</time>
      </trkpt>
      <trkpt lat="47.9955" lon="4.29936">
        <ele>243.83</ele>
        <time>2021-08-10T19:54:06Z</time>
      </trkpt>
      <trkpt lat="47.99544" lon="4.29935">
        <ele>242.87</ele>
        <time>2021-08-10T19:54:07Z</time>
      </trkpt>
      <trkpt lat="47.99539" lon="4.29934">
        <ele>242.39</ele>
        <time>2021-08-10T19:54:08Z</time>
      </trkpt>
      <trkpt lat="47.99534" lon="4.29933">
        <ele>241.43</ele>
        <time>2021-08-10T19:54:09Z</time>
      </trkpt>
      <trkpt lat="47.99528" lon="4.29933">
        <ele>240.47</ele>
        <time>2021-08-10T19:54:10Z</time>
      </trkpt>
      <trkpt lat="47.99522" lon="4.29934">
        <ele>239.99</ele>
        <time>2021-08-10T19:54:11Z</time>
      </trkpt>
      <trkpt lat="47.99517" lon="4.29936">
        <ele>239.02</ele>
        <time>2021-08-10T19:54:12Z</time>
      </trkpt>
      <trkpt lat="47.99512" lon="4.29938">
        <ele>238.54</ele>
        <time>2021-08-10T19:54:13Z</time>
      </trkpt>
      <trkpt lat="47.9949" lon="4.29948">
        <ele>235.66</ele>
        <time>2021-08-10T19:54:17Z</time>
      </trkpt>
      <trkpt lat="47.99484" lon="4.2995">
        <ele>234.7</ele>
        <time>2021-08-10T19:54:18Z</time>
      </trkpt>
      <trkpt lat="47.99478" lon="4.2995">
        <ele>234.22</ele>
        <time>2021-08-10T19:54:19Z</time>
      </trkpt>
      <trkpt lat="47.99472" lon="4.29949">
        <ele>233.74</ele>
        <time>2021-08-10T19:54:20Z</time>
      </trkpt>
      <trkpt lat="47.99467" lon="4.29948">
        <ele>232.78</ele>
        <time>2021-08-10T19:54:21Z</time>
      </trkpt>
      <trkpt lat="47.99443" lon="4.29934">
        <ele>230.37</ele>
        <time>2021-08-10T19:54:27Z</time>
      </trkpt>
      <trkpt lat="47.99432" lon="4.29915">
        <ele>228.93</ele>
        <time>2021-08-10T19:54:33Z</time>
      </trkpt>
      <trkpt lat="47.99431" lon="4.29914">
        <ele>228.93</ele>
        <time>2021-08-10T19:54:34Z</time>
      </trkpt>
      <trkpt lat="47.99428" lon="4.29913">
        <ele>228.45</ele>
        <time>2021-08-10T19:54:35Z</time>
      </trkpt>
      <trkpt lat="47.99426" lon="4.29912">
        <ele>228.93</ele>
        <time>2021-08-10T19:54:36Z</time>
      </trkpt>
      <trkpt lat="47.99424" lon="4.29912">
        <ele>228.93</ele>
        <time>2021-08-10T19:54:37Z</time>
      </trkpt>
      <trkpt lat="47.99422" lon="4.29911">
        <ele>228.93</ele>
        <time>2021-08-10T19:54:38Z</time>
      </trkpt>
      <trkpt lat="47.99419" lon="4.29911">
        <ele>228.93</ele>
        <time>2021-08-10T19:54:39Z</time>
      </trkpt>
      <trkpt lat="47.99394" lon="4.29911">
        <ele>227.01</ele>
        <time>2021-08-10T19:54:46Z</time>
      </trkpt>
      <trkpt lat="47.99377" lon="4.29905">
        <ele>225.57</ele>
        <time>2021-08-10T19:54:51Z</time>
      </trkpt>
      <trkpt lat="47.9935" lon="4.29877">
        <ele>222.68</ele>
        <time>2021-08-10T19:54:57Z</time>
      </trkpt>
      <trkpt lat="47.99345" lon="4.29871">
        <ele>222.2</ele>
        <time>2021-08-10T19:54:58Z</time>
      </trkpt>
      <trkpt lat="47.99341" lon="4.29866">
        <ele>222.2</ele>
        <time>2021-08-10T19:54:59Z</time>
      </trkpt>
      <trkpt lat="47.99335" lon="4.2986">
        <ele>221.24</ele>
        <time>2021-08-10T19:55:00Z</time>
      </trkpt>
      <trkpt lat="47.99315" lon="4.29843">
        <ele>220.76</ele>
        <time>2021-08-10T19:55:04Z</time>
      </trkpt>
      <trkpt lat="47.9928" lon="4.2981">
        <ele>220.76</ele>
        <time>2021-08-10T19:55:12Z</time>
      </trkpt>
      <trkpt lat="47.9925" lon="4.29788">
        <ele>222.2</ele>
        <time>2021-08-10T19:55:20Z</time>
      </trkpt>
      <trkpt lat="47.9924" lon="4.2978">
        <ele>223.64</ele>
        <time>2021-08-10T19:55:26Z</time>
      </trkpt>
      <trkpt lat="47.99239" lon="4.29779">
        <ele>223.64</ele>
        <time>2021-08-10T19:55:27Z</time>
      </trkpt>
      <trkpt lat="47.9923" lon="4.29773">
        <ele>225.09</ele>
        <time>2021-08-10T19:55:35Z</time>
      </trkpt>
      <trkpt lat="47.99229" lon="4.29773">
        <ele>225.57</ele>
        <time>2021-08-10T19:55:37Z</time>
      </trkpt>
      <trkpt lat="47.99226" lon="4.29773">
        <ele>225.57</ele>
        <time>2021-08-10T19:55:40Z</time>
      </trkpt>
      <trkpt lat="47.99224" lon="4.29774">
        <ele>226.05</ele>
        <time>2021-08-10T19:55:42Z</time>
      </trkpt>
      <trkpt lat="47.99222" lon="4.29775">
        <ele>226.05</ele>
        <time>2021-08-10T19:55:43Z</time>
      </trkpt>
      <trkpt lat="47.99207" lon="4.29772">
        <ele>226.53</ele>
        <time>2021-08-10T19:55:52Z</time>
      </trkpt>
      <trkpt lat="47.99189" lon="4.29764">
        <ele>227.49</ele>
        <time>2021-08-10T19:56:02Z</time>
      </trkpt>
      <trkpt lat="47.99172" lon="4.29755">
        <ele>228.45</ele>
        <time>2021-08-10T19:56:11Z</time>
      </trkpt>
      <trkpt lat="47.99159" lon="4.29749">
        <ele>229.41</ele>
        <time>2021-08-10T19:56:18Z</time>
      </trkpt>
      <trkpt lat="47.99141" lon="4.2974">
        <ele>229.41</ele>
        <time>2021-08-10T19:56:28Z</time>
      </trkpt>
      <trkpt lat="47.99124" lon="4.29729">
        <ele>230.85</ele>
        <time>2021-08-10T19:56:38Z</time>
      </trkpt>
      <trkpt lat="47.9911" lon="4.29723">
        <ele>231.33</ele>
        <time>2021-08-10T19:56:46Z</time>
      </trkpt>
      <trkpt lat="47.99092" lon="4.29715">
        <ele>232.3</ele>
        <time>2021-08-10T19:56:55Z</time>
      </trkpt>
      <trkpt lat="47.99074" lon="4.29702">
        <ele>232.78</ele>
        <time>2021-08-10T19:57:05Z</time>
      </trkpt>
      <trkpt lat="47.99072" lon="4.29702">
        <ele>232.78</ele>
        <time>2021-08-10T19:57:06Z</time>
      </trkpt>
      <trkpt lat="47.99071" lon="4.29701">
        <ele>233.26</ele>
        <time>2021-08-10T19:57:07Z</time>
      </trkpt>
      <trkpt lat="47.9907" lon="4.297">
        <ele>233.26</ele>
        <time>2021-08-10T19:57:13Z</time>
      </trkpt>
      <trkpt lat="47.99068" lon="4.29698">
        <ele>233.74</ele>
        <time>2021-08-10T19:57:17Z</time>
      </trkpt>
      <trkpt lat="47.99067" lon="4.29696">
        <ele>233.74</ele>
        <time>2021-08-10T19:57:18Z</time>
      </trkpt>
      <trkpt lat="47.99066" lon="4.29694">
        <ele>233.74</ele>
        <time>2021-08-10T19:57:19Z</time>
      </trkpt>
      <trkpt lat="47.99065" lon="4.29693">
        <ele>233.74</ele>
        <time>2021-08-10T19:57:20Z</time>
      </trkpt>
      <trkpt lat="47.99063" lon="4.29691">
        <ele>233.74</ele>
        <time>2021-08-10T19:57:21Z</time>
      </trkpt>
      <trkpt lat="47.99062" lon="4.29691">
        <ele>233.74</ele>
        <time>2021-08-10T19:57:22Z</time>
      </trkpt>
      <trkpt lat="47.9906" lon="4.2969">
        <ele>233.74</ele>
        <time>2021-08-10T19:57:23Z</time>
      </trkpt>
      <trkpt lat="47.99057" lon="4.29687">
        <ele>234.22</ele>
        <time>2021-08-10T19:57:28Z</time>
      </trkpt>
      <trkpt lat="47.99056" lon="4.29688">
        <ele>234.22</ele>
        <time>2021-08-10T19:57:34Z</time>
      </trkpt>
      <trkpt lat="47.99055" lon="4.29689">
        <ele>234.22</ele>
        <time>2021-08-10T19:57:36Z</time>
      </trkpt>
      <trkpt lat="47.99054" lon="4.29692">
        <ele>234.22</ele>
        <time>2021-08-10T19:57:38Z</time>
      </trkpt>
      <trkpt lat="47.99055" lon="4.29693">
        <ele>234.22</ele>
        <time>2021-08-10T19:57:39Z</time>
      </trkpt>
      <trkpt lat="47.99057" lon="4.29694">
        <ele>234.22</ele>
        <time>2021-08-10T19:57:40Z</time>
      </trkpt>
      <trkpt lat="47.99059" lon="4.29693">
        <ele>234.22</ele>
        <time>2021-08-10T19:57:41Z</time>
      </trkpt>
      <trkpt lat="47.99061" lon="4.29691">
        <ele>234.22</ele>
        <time>2021-08-10T19:57:42Z</time>
      </trkpt>
      <trkpt lat="47.99062" lon="4.29688">
        <ele>234.22</ele>
        <time>2021-08-10T19:57:43Z</time>
      </trkpt>
      <trkpt lat="47.99062" lon="4.29684">
        <ele>234.22</ele>
        <time>2021-08-10T19:57:44Z</time>
      </trkpt>
      <trkpt lat="47.99061" lon="4.29681">
        <ele>234.22</ele>
        <time>2021-08-10T19:57:45Z</time>
      </trkpt>
      <trkpt lat="47.9906" lon="4.29678">
        <ele>234.22</ele>
        <time>2021-08-10T19:57:46Z</time>
      </trkpt>
      <trkpt lat="47.99059" lon="4.29675">
        <ele>234.22</ele>
        <time>2021-08-10T19:57:47Z</time>
      </trkpt>
      <trkpt lat="47.99058" lon="4.29673">
        <ele>234.22</ele>
        <time>2021-08-10T19:57:48Z</time>
      </trkpt>
      <trkpt lat="47.99056" lon="4.2967">
        <ele>234.22</ele>
        <time>2021-08-10T19:57:49Z</time>
      </trkpt>
      <trkpt lat="47.99047" lon="4.2964">
        <ele>235.18</ele>
        <time>2021-08-10T19:57:58Z</time>
      </trkpt>
      <trkpt lat="47.99038" lon="4.29607">
        <ele>236.62</ele>
        <time>2021-08-10T19:58:07Z</time>
      </trkpt>
      <trkpt lat="47.99026" lon="4.29558">
        <ele>238.06</ele>
        <time>2021-08-10T19:58:20Z</time>
      </trkpt>
      <trkpt lat="47.99017" lon="4.29524">
        <ele>239.51</ele>
        <time>2021-08-10T19:58:29Z</time>
      </trkpt>
      <trkpt lat="47.99005" lon="4.29482">
        <ele>240.95</ele>
        <time>2021-08-10T19:58:41Z</time>
      </trkpt>
      <trkpt lat="47.98996" lon="4.29451">
        <ele>241.91</ele>
        <time>2021-08-10T19:58:50Z</time>
      </trkpt>
      <trkpt lat="47.98988" lon="4.29422">
        <ele>243.83</ele>
        <time>2021-08-10T19:59:00Z</time>
      </trkpt>
      <trkpt lat="47.98978" lon="4.29389">
        <ele>245.75</ele>
        <time>2021-08-10T19:59:13Z</time>
      </trkpt>
      <trkpt lat="47.98969" lon="4.29358">
        <ele>247.2</ele>
        <time>2021-08-10T19:59:24Z</time>
      </trkpt>
      <trkpt lat="47.98959" lon="4.29318">
        <ele>249.12</ele>
        <time>2021-08-10T19:59:37Z</time>
      </trkpt>
      <trkpt lat="47.98949" lon="4.29284">
        <ele>251.04</ele>
        <time>2021-08-10T19:59:49Z</time>
      </trkpt>
      <trkpt lat="47.98938" lon="4.29253">
        <ele>252.48</ele>
        <time>2021-08-10T20:00:01Z</time>
      </trkpt>
      <trkpt lat="47.98928" lon="4.29224">
        <ele>253.44</ele>
        <time>2021-08-10T20:00:11Z</time>
      </trkpt>
      <trkpt lat="47.98918" lon="4.29194">
        <ele>254.89</ele>
        <time>2021-08-10T20:00:20Z</time>
      </trkpt>
      <trkpt lat="47.98909" lon="4.29167">
        <ele>255.85</ele>
        <time>2021-08-10T20:00:28Z</time>
      </trkpt>
      <trkpt lat="47.98901" lon="4.29145">
        <ele>257.77</ele>
        <time>2021-08-10T20:00:35Z</time>
      </trkpt>
      <trkpt lat="47.98898" lon="4.29137">
        <ele>257.77</ele>
        <time>2021-08-10T20:00:38Z</time>
      </trkpt>
      <trkpt lat="47.98897" lon="4.29134">
        <ele>257.77</ele>
        <time>2021-08-10T20:00:39Z</time>
      </trkpt>
      <trkpt lat="47.98896" lon="4.29131">
        <ele>258.25</ele>
        <time>2021-08-10T20:00:40Z</time>
      </trkpt>
      <trkpt lat="47.98881" lon="4.29098">
        <ele>259.69</ele>
        <time>2021-08-10T20:00:51Z</time>
      </trkpt>
      <trkpt lat="47.98865" lon="4.2907">
        <ele>260.65</ele>
        <time>2021-08-10T20:01:01Z</time>
      </trkpt>
      <trkpt lat="47.98844" lon="4.29034">
        <ele>263.06</ele>
        <time>2021-08-10T20:01:14Z</time>
      </trkpt>
      <trkpt lat="47.98821" lon="4.29001">
        <ele>264.98</ele>
        <time>2021-08-10T20:01:27Z</time>
      </trkpt>
      <trkpt lat="47.98804" lon="4.28979">
        <ele>265.94</ele>
        <time>2021-08-10T20:01:36Z</time>
      </trkpt>
      <trkpt lat="47.98781" lon="4.28961">
        <ele>266.9</ele>
        <time>2021-08-10T20:01:45Z</time>
      </trkpt>
      <trkpt lat="47.98752" lon="4.28943">
        <ele>267.86</ele>
        <time>2021-08-10T20:01:55Z</time>
      </trkpt>
      <trkpt lat="47.98726" lon="4.28927">
        <ele>268.35</ele>
        <time>2021-08-10T20:02:04Z</time>
      </trkpt>
      <trkpt lat="47.98695" lon="4.28904">
        <ele>269.79</ele>
        <time>2021-08-10T20:02:15Z</time>
      </trkpt>
      <trkpt lat="47.98659" lon="4.28878">
        <ele>270.27</ele>
        <time>2021-08-10T20:02:27Z</time>
      </trkpt>
      <trkpt lat="47.98624" lon="4.2885">
        <ele>271.71</ele>
        <time>2021-08-10T20:02:38Z</time>
      </trkpt>
      <trkpt lat="47.98599" lon="4.28828">
        <ele>272.19</ele>
        <time>2021-08-10T20:02:46Z</time>
      </trkpt>
      <trkpt lat="47.98564" lon="4.28802">
        <ele>273.15</ele>
        <time>2021-08-10T20:02:57Z</time>
      </trkpt>
      <trkpt lat="47.98528" lon="4.28788">
        <ele>274.11</ele>
        <time>2021-08-10T20:03:07Z</time>
      </trkpt>
      <trkpt lat="47.985" lon="4.28781">
        <ele>274.11</ele>
        <time>2021-08-10T20:03:14Z</time>
      </trkpt>
      <trkpt lat="47.9847" lon="4.28771">
        <ele>274.11</ele>
        <time>2021-08-10T20:03:22Z</time>
      </trkpt>
      <trkpt lat="47.98441" lon="4.28762">
        <ele>274.59</ele>
        <time>2021-08-10T20:03:30Z</time>
      </trkpt>
      <trkpt lat="47.98417" lon="4.28756">
        <ele>276.52</ele>
        <time>2021-08-10T20:03:39Z</time>
      </trkpt>
      <trkpt lat="47.98401" lon="4.28749">
        <ele>278.44</ele>
        <time>2021-08-10T20:03:48Z</time>
      </trkpt>
      <trkpt lat="47.98387" lon="4.28744">
        <ele>279.88</ele>
        <time>2021-08-10T20:03:56Z</time>
      </trkpt>
      <trkpt lat="47.98373" lon="4.2874">
        <ele>281.8</ele>
        <time>2021-08-10T20:04:04Z</time>
      </trkpt>
      <trkpt lat="47.98365" lon="4.28737">
        <ele>282.77</ele>
        <time>2021-08-10T20:04:09Z</time>
      </trkpt>
      <trkpt lat="47.98363" lon="4.28735">
        <ele>282.77</ele>
        <time>2021-08-10T20:04:10Z</time>
      </trkpt>
      <trkpt lat="47.98351" lon="4.28728">
        <ele>284.69</ele>
        <time>2021-08-10T20:04:19Z</time>
      </trkpt>
      <trkpt lat="47.98346" lon="4.28727">
        <ele>285.17</ele>
        <time>2021-08-10T20:04:23Z</time>
      </trkpt>
      <trkpt lat="47.98345" lon="4.28727">
        <ele>285.65</ele>
        <time>2021-08-10T20:04:24Z</time>
      </trkpt>
      <trkpt lat="47.98342" lon="4.28726">
        <ele>285.65</ele>
        <time>2021-08-10T20:04:26Z</time>
      </trkpt>
      <trkpt lat="47.98341" lon="4.28725">
        <ele>286.13</ele>
        <time>2021-08-10T20:04:27Z</time>
      </trkpt>
      <trkpt lat="47.98339" lon="4.28725">
        <ele>286.13</ele>
        <time>2021-08-10T20:04:28Z</time>
      </trkpt>
      <trkpt lat="47.98338" lon="4.28724">
        <ele>286.13</ele>
        <time>2021-08-10T20:04:29Z</time>
      </trkpt>
      <trkpt lat="47.98337" lon="4.28723">
        <ele>286.61</ele>
        <time>2021-08-10T20:04:30Z</time>
      </trkpt>
      <trkpt lat="47.98326" lon="4.28717">
        <ele>287.09</ele>
        <time>2021-08-10T20:04:38Z</time>
      </trkpt>
      <trkpt lat="47.98314" lon="4.28709">
        <ele>288.53</ele>
        <time>2021-08-10T20:04:46Z</time>
      </trkpt>
      <trkpt lat="47.98294" lon="4.28696">
        <ele>289.97</ele>
        <time>2021-08-10T20:04:57Z</time>
      </trkpt>
      <trkpt lat="47.98276" lon="4.28682">
        <ele>291.42</ele>
        <time>2021-08-10T20:05:07Z</time>
      </trkpt>
      <trkpt lat="47.98255" lon="4.28664">
        <ele>292.86</ele>
        <time>2021-08-10T20:05:18Z</time>
      </trkpt>
      <trkpt lat="47.98234" lon="4.28643">
        <ele>294.3</ele>
        <time>2021-08-10T20:05:29Z</time>
      </trkpt>
      <trkpt lat="47.9822" lon="4.28625">
        <ele>295.26</ele>
        <time>2021-08-10T20:05:37Z</time>
      </trkpt>
      <trkpt lat="47.98207" lon="4.28603">
        <ele>296.22</ele>
        <time>2021-08-10T20:05:46Z</time>
      </trkpt>
      <trkpt lat="47.98193" lon="4.28574">
        <ele>297.67</ele>
        <time>2021-08-10T20:05:56Z</time>
      </trkpt>
      <trkpt lat="47.98177" lon="4.2854">
        <ele>298.63</ele>
        <time>2021-08-10T20:06:07Z</time>
      </trkpt>
      <trkpt lat="47.98164" lon="4.28507">
        <ele>299.59</ele>
        <time>2021-08-10T20:06:17Z</time>
      </trkpt>
      <trkpt lat="47.98148" lon="4.28463">
        <ele>300.55</ele>
        <time>2021-08-10T20:06:28Z</time>
      </trkpt>
      <trkpt lat="47.98133" lon="4.28426">
        <ele>301.51</ele>
        <time>2021-08-10T20:06:37Z</time>
      </trkpt>
      <trkpt lat="47.98114" lon="4.28378">
        <ele>302.47</ele>
        <time>2021-08-10T20:06:49Z</time>
      </trkpt>
      <trkpt lat="47.98097" lon="4.2834">
        <ele>303.43</ele>
        <time>2021-08-10T20:06:59Z</time>
      </trkpt>
      <trkpt lat="47.98081" lon="4.28307">
        <ele>304.39</ele>
        <time>2021-08-10T20:07:08Z</time>
      </trkpt>
      <trkpt lat="47.98065" lon="4.28276">
        <ele>305.36</ele>
        <time>2021-08-10T20:07:17Z</time>
      </trkpt>
      <trkpt lat="47.98046" lon="4.28251">
        <ele>306.32</ele>
        <time>2021-08-10T20:07:26Z</time>
      </trkpt>
      <trkpt lat="47.98027" lon="4.28229">
        <ele>308.24</ele>
        <time>2021-08-10T20:07:35Z</time>
      </trkpt>
      <trkpt lat="47.98004" lon="4.28207">
        <ele>308.72</ele>
        <time>2021-08-10T20:07:46Z</time>
      </trkpt>
      <trkpt lat="47.9798" lon="4.28185">
        <ele>310.16</ele>
        <time>2021-08-10T20:07:57Z</time>
      </trkpt>
      <trkpt lat="47.97958" lon="4.28168">
        <ele>311.12</ele>
        <time>2021-08-10T20:08:06Z</time>
      </trkpt>
      <trkpt lat="47.97932" lon="4.28138">
        <ele>311.6</ele>
        <time>2021-08-10T20:08:17Z</time>
      </trkpt>
      <trkpt lat="47.97916" lon="4.28101">
        <ele>312.57</ele>
        <time>2021-08-10T20:08:26Z</time>
      </trkpt>
      <trkpt lat="47.97901" lon="4.28054">
        <ele>312.57</ele>
        <time>2021-08-10T20:08:35Z</time>
      </trkpt>
      <trkpt lat="47.97886" lon="4.28015">
        <ele>313.53</ele>
        <time>2021-08-10T20:08:42Z</time>
      </trkpt>
      <trkpt lat="47.97869" lon="4.27979">
        <ele>313.05</ele>
        <time>2021-08-10T20:08:50Z</time>
      </trkpt>
      <trkpt lat="47.97849" lon="4.27938">
        <ele>313.05</ele>
        <time>2021-08-10T20:09:00Z</time>
      </trkpt>
      <trkpt lat="47.9784" lon="4.27919">
        <ele>312.09</ele>
        <time>2021-08-10T20:09:04Z</time>
      </trkpt>
      <trkpt lat="47.97816" lon="4.27871">
        <ele>310.16</ele>
        <time>2021-08-10T20:09:12Z</time>
      </trkpt>
      <trkpt lat="47.97799" lon="4.27836">
        <ele>308.24</ele>
        <time>2021-08-10T20:09:17Z</time>
      </trkpt>
      <trkpt lat="47.97769" lon="4.27779">
        <ele>306.32</ele>
        <time>2021-08-10T20:09:25Z</time>
      </trkpt>
      <trkpt lat="47.97744" lon="4.27739">
        <ele>304.88</ele>
        <time>2021-08-10T20:09:32Z</time>
      </trkpt>
      <trkpt lat="47.97736" lon="4.27725">
        <ele>303.91</ele>
        <time>2021-08-10T20:09:34Z</time>
      </trkpt>
      <trkpt lat="47.97709" lon="4.27679">
        <ele>301.03</ele>
        <time>2021-08-10T20:09:40Z</time>
      </trkpt>
      <trkpt lat="47.97692" lon="4.27646">
        <ele>299.59</ele>
        <time>2021-08-10T20:09:45Z</time>
      </trkpt>
      <trkpt lat="47.97683" lon="4.27621">
        <ele>298.63</ele>
        <time>2021-08-10T20:09:50Z</time>
      </trkpt>
      <trkpt lat="47.97681" lon="4.27614">
        <ele>298.63</ele>
        <time>2021-08-10T20:09:51Z</time>
      </trkpt>
      <trkpt lat="47.9768" lon="4.27607">
        <ele>297.67</ele>
        <time>2021-08-10T20:09:52Z</time>
      </trkpt>
      <trkpt lat="47.97678" lon="4.276">
        <ele>297.18</ele>
        <time>2021-08-10T20:09:53Z</time>
      </trkpt>
      <trkpt lat="47.97673" lon="4.27583">
        <ele>296.22</ele>
        <time>2021-08-10T20:09:55Z</time>
      </trkpt>
      <trkpt lat="47.97669" lon="4.27576">
        <ele>295.74</ele>
        <time>2021-08-10T20:09:56Z</time>
      </trkpt>
      <trkpt lat="47.97665" lon="4.2757">
        <ele>295.26</ele>
        <time>2021-08-10T20:09:57Z</time>
      </trkpt>
      <trkpt lat="47.9766" lon="4.27564">
        <ele>294.3</ele>
        <time>2021-08-10T20:09:58Z</time>
      </trkpt>
      <trkpt lat="47.97656" lon="4.2756">
        <ele>293.82</ele>
        <time>2021-08-10T20:09:59Z</time>
      </trkpt>
      <trkpt lat="47.97639" lon="4.27543">
        <ele>290.94</ele>
        <time>2021-08-10T20:10:03Z</time>
      </trkpt>
      <trkpt lat="47.97628" lon="4.27532">
        <ele>287.57</ele>
        <time>2021-08-10T20:10:05Z</time>
      </trkpt>
      <trkpt lat="47.97608" lon="4.27518">
        <ele>283.73</ele>
        <time>2021-08-10T20:10:08Z</time>
      </trkpt>
      <trkpt lat="47.97589" lon="4.27509">
        <ele>280.36</ele>
        <time>2021-08-10T20:10:11Z</time>
      </trkpt>
      <trkpt lat="47.97565" lon="4.27499">
        <ele>276.04</ele>
        <time>2021-08-10T20:10:15Z</time>
      </trkpt>
      <trkpt lat="47.97545" lon="4.27491">
        <ele>272.67</ele>
        <time>2021-08-10T20:10:18Z</time>
      </trkpt>
      <trkpt lat="47.97531" lon="4.27484">
        <ele>269.31</ele>
        <time>2021-08-10T20:10:20Z</time>
      </trkpt>
      <trkpt lat="47.9751" lon="4.27471">
        <ele>264.98</ele>
        <time>2021-08-10T20:10:23Z</time>
      </trkpt>
      <trkpt lat="47.97495" lon="4.27458">
        <ele>262.1</ele>
        <time>2021-08-10T20:10:25Z</time>
      </trkpt>
      <trkpt lat="47.97479" lon="4.27444">
        <ele>258.73</ele>
        <time>2021-08-10T20:10:27Z</time>
      </trkpt>
      <trkpt lat="47.97464" lon="4.2743">
        <ele>257.77</ele>
        <time>2021-08-10T20:10:29Z</time>
      </trkpt>
      <trkpt lat="47.9744" lon="4.27412">
        <ele>257.29</ele>
        <time>2021-08-10T20:10:33Z</time>
      </trkpt>
      <trkpt lat="47.97427" lon="4.27407">
        <ele>256.81</ele>
        <time>2021-08-10T20:10:36Z</time>
      </trkpt>
      <trkpt lat="47.97423" lon="4.27405">
        <ele>256.81</ele>
        <time>2021-08-10T20:10:37Z</time>
      </trkpt>
      <trkpt lat="47.97398" lon="4.27397">
        <ele>256.81</ele>
        <time>2021-08-10T20:10:44Z</time>
      </trkpt>
      <trkpt lat="47.97371" lon="4.27384">
        <ele>256.81</ele>
        <time>2021-08-10T20:10:51Z</time>
      </trkpt>
      <trkpt lat="47.97363" lon="4.27379">
        <ele>256.81</ele>
        <time>2021-08-10T20:10:53Z</time>
      </trkpt>
      <trkpt lat="47.97359" lon="4.27377">
        <ele>256.33</ele>
        <time>2021-08-10T20:10:54Z</time>
      </trkpt>
      <trkpt lat="47.97355" lon="4.27377">
        <ele>256.33</ele>
        <time>2021-08-10T20:10:55Z</time>
      </trkpt>
      <trkpt lat="47.97342" lon="4.27378">
        <ele>254.89</ele>
        <time>2021-08-10T20:10:58Z</time>
      </trkpt>
      <trkpt lat="47.97316" lon="4.27391">
        <ele>251.52</ele>
        <time>2021-08-10T20:11:03Z</time>
      </trkpt>
      <trkpt lat="47.97299" lon="4.27397">
        <ele>249.6</ele>
        <time>2021-08-10T20:11:06Z</time>
      </trkpt>
      <trkpt lat="47.97294" lon="4.27396">
        <ele>249.6</ele>
        <time>2021-08-10T20:11:07Z</time>
      </trkpt>
      <trkpt lat="47.9729" lon="4.27393">
        <ele>249.6</ele>
        <time>2021-08-10T20:11:08Z</time>
      </trkpt>
      <trkpt lat="47.97286" lon="4.27389">
        <ele>249.12</ele>
        <time>2021-08-10T20:11:09Z</time>
      </trkpt>
      <trkpt lat="47.97284" lon="4.27385">
        <ele>249.12</ele>
        <time>2021-08-10T20:11:10Z</time>
      </trkpt>
      <trkpt lat="47.97282" lon="4.27382">
        <ele>249.12</ele>
        <time>2021-08-10T20:11:11Z</time>
      </trkpt>
      <trkpt lat="47.97274" lon="4.27365">
        <ele>251.52</ele>
        <time>2021-08-10T20:11:18Z</time>
      </trkpt>
      <trkpt lat="47.97262" lon="4.27345">
        <ele>252.96</ele>
        <time>2021-08-10T20:11:26Z</time>
      </trkpt>
      <trkpt lat="47.97255" lon="4.27323">
        <ele>253.44</ele>
        <time>2021-08-10T20:11:33Z</time>
      </trkpt>
      <trkpt lat="47.97244" lon="4.27287">
        <ele>254.41</ele>
        <time>2021-08-10T20:11:43Z</time>
      </trkpt>
      <trkpt lat="47.97237" lon="4.2725">
        <ele>254.41</ele>
        <time>2021-08-10T20:11:51Z</time>
      </trkpt>
      <trkpt lat="47.97234" lon="4.27237">
        <ele>252.96</ele>
        <time>2021-08-10T20:11:53Z</time>
      </trkpt>
      <trkpt lat="47.97233" lon="4.27229">
        <ele>252.96</ele>
        <time>2021-08-10T20:11:54Z</time>
      </trkpt>
      <trkpt lat="47.97222" lon="4.27184">
        <ele>249.6</ele>
        <time>2021-08-10T20:11:59Z</time>
      </trkpt>
      <trkpt lat="47.97204" lon="4.27141">
        <ele>246.23</ele>
        <time>2021-08-10T20:12:03Z</time>
      </trkpt>
      <trkpt lat="47.97178" lon="4.27082">
        <ele>242.87</ele>
        <time>2021-08-10T20:12:08Z</time>
      </trkpt>
      <trkpt lat="47.97123" lon="4.26974">
        <ele>239.99</ele>
        <time>2021-08-10T20:12:18Z</time>
      </trkpt>
      <trkpt lat="47.97081" lon="4.26905">
        <ele>239.02</ele>
        <time>2021-08-10T20:12:26Z</time>
      </trkpt>
      <trkpt lat="47.97048" lon="4.26847">
        <ele>239.02</ele>
        <time>2021-08-10T20:12:34Z</time>
      </trkpt>
      <trkpt lat="47.97032" lon="4.26825">
        <ele>239.02</ele>
        <time>2021-08-10T20:12:38Z</time>
      </trkpt>
      <trkpt lat="47.97013" lon="4.26808">
        <ele>240.47</ele>
        <time>2021-08-10T20:12:44Z</time>
      </trkpt>
      <trkpt lat="47.96993" lon="4.26791">
        <ele>241.43</ele>
        <time>2021-08-10T20:12:53Z</time>
      </trkpt>
      <trkpt lat="47.96983" lon="4.26782">
        <ele>242.39</ele>
        <time>2021-08-10T20:13:00Z</time>
      </trkpt>
      <trkpt lat="47.96966" lon="4.26771">
        <ele>243.35</ele>
        <time>2021-08-10T20:13:10Z</time>
      </trkpt>
      <trkpt lat="47.96948" lon="4.26765">
        <ele>244.79</ele>
        <time>2021-08-10T20:13:20Z</time>
      </trkpt>
      <trkpt lat="47.96936" lon="4.26763">
        <ele>245.75</ele>
        <time>2021-08-10T20:13:27Z</time>
      </trkpt>
      <trkpt lat="47.96934" lon="4.26763">
        <ele>246.23</ele>
        <time>2021-08-10T20:13:28Z</time>
      </trkpt>
      <trkpt lat="47.96932" lon="4.26763">
        <ele>246.23</ele>
        <time>2021-08-10T20:13:29Z</time>
      </trkpt>
      <trkpt lat="47.96931" lon="4.26763">
        <ele>246.23</ele>
        <time>2021-08-10T20:13:30Z</time>
      </trkpt>
      <trkpt lat="47.96929" lon="4.26762">
        <ele>246.23</ele>
        <time>2021-08-10T20:13:31Z</time>
      </trkpt>
      <trkpt lat="47.96927" lon="4.26761">
        <ele>246.23</ele>
        <time>2021-08-10T20:13:32Z</time>
      </trkpt>
      <trkpt lat="47.96912" lon="4.26756">
        <ele>247.68</ele>
        <time>2021-08-10T20:13:41Z</time>
      </trkpt>
      <trkpt lat="47.969" lon="4.2675">
        <ele>248.16</ele>
        <time>2021-08-10T20:13:48Z</time>
      </trkpt>
      <trkpt lat="47.96879" lon="4.26733">
        <ele>249.12</ele>
        <time>2021-08-10T20:14:00Z</time>
      </trkpt>
      <trkpt lat="47.96874" lon="4.26714">
        <ele>250.08</ele>
        <time>2021-08-10T20:14:07Z</time>
      </trkpt>
      <trkpt lat="47.96872" lon="4.26674">
        <ele>250.56</ele>
        <time>2021-08-10T20:14:19Z</time>
      </trkpt>
      <trkpt lat="47.96863" lon="4.26648">
        <ele>252</ele>
        <time>2021-08-10T20:14:28Z</time>
      </trkpt>
      <trkpt lat="47.96848" lon="4.26628">
        <ele>252.48</ele>
        <time>2021-08-10T20:14:37Z</time>
      </trkpt>
      <trkpt lat="47.96832" lon="4.26609">
        <ele>252.96</ele>
        <time>2021-08-10T20:14:46Z</time>
      </trkpt>
      <trkpt lat="47.96811" lon="4.26582">
        <ele>253.93</ele>
        <time>2021-08-10T20:14:57Z</time>
      </trkpt>
      <trkpt lat="47.96795" lon="4.26562">
        <ele>254.41</ele>
        <time>2021-08-10T20:15:05Z</time>
      </trkpt>
      <trkpt lat="47.96777" lon="4.26537">
        <ele>255.37</ele>
        <time>2021-08-10T20:15:14Z</time>
      </trkpt>
      <trkpt lat="47.96763" lon="4.26518">
        <ele>256.33</ele>
        <time>2021-08-10T20:15:21Z</time>
      </trkpt>
      <trkpt lat="47.96752" lon="4.26498">
        <ele>256.81</ele>
        <time>2021-08-10T20:15:27Z</time>
      </trkpt>
      <trkpt lat="47.96745" lon="4.26488">
        <ele>257.29</ele>
        <time>2021-08-10T20:15:31Z</time>
      </trkpt>
      <trkpt lat="47.96745" lon="4.26485">
        <ele>257.29</ele>
        <time>2021-08-10T20:15:32Z</time>
      </trkpt>
      <trkpt lat="47.96743" lon="4.26482">
        <ele>257.29</ele>
        <time>2021-08-10T20:15:33Z</time>
      </trkpt>
      <trkpt lat="47.96727" lon="4.26463">
        <ele>258.25</ele>
        <time>2021-08-10T20:15:41Z</time>
      </trkpt>
      <trkpt lat="47.96716" lon="4.26445">
        <ele>258.25</ele>
        <time>2021-08-10T20:15:48Z</time>
      </trkpt>
      <trkpt lat="47.96719" lon="4.26432">
        <ele>258.73</ele>
        <time>2021-08-10T20:15:55Z</time>
      </trkpt>
      <trkpt lat="47.96718" lon="4.26431">
        <ele>258.73</ele>
        <time>2021-08-10T20:15:56Z</time>
      </trkpt>
      <trkpt lat="47.96717" lon="4.26431">
        <ele>258.73</ele>
        <time>2021-08-10T20:15:57Z</time>
      </trkpt>
      <trkpt lat="47.96715" lon="4.26433">
        <ele>258.73</ele>
        <time>2021-08-10T20:15:58Z</time>
      </trkpt>
      <trkpt lat="47.96714" lon="4.26434">
        <ele>258.73</ele>
        <time>2021-08-10T20:15:59Z</time>
      </trkpt>
      <trkpt lat="47.96713" lon="4.26436">
        <ele>258.73</ele>
        <time>2021-08-10T20:16:00Z</time>
      </trkpt>
      <trkpt lat="47.96712" lon="4.26437">
        <ele>258.73</ele>
        <time>2021-08-10T20:16:01Z</time>
      </trkpt>
      <trkpt lat="47.9671" lon="4.26438">
        <ele>258.73</ele>
        <time>2021-08-10T20:16:02Z</time>
      </trkpt>
      <trkpt lat="47.96709" lon="4.26439">
        <ele>258.73</ele>
        <time>2021-08-10T20:16:03Z</time>
      </trkpt>
      <trkpt lat="47.96707" lon="4.2644">
        <ele>258.73</ele>
        <time>2021-08-10T20:16:04Z</time>
      </trkpt>
      <trkpt lat="47.96706" lon="4.26441">
        <ele>258.73</ele>
        <time>2021-08-10T20:16:05Z</time>
      </trkpt>
      <trkpt lat="47.96702" lon="4.26441">
        <ele>258.73</ele>
        <time>2021-08-10T20:16:07Z</time>
      </trkpt>
      <trkpt lat="47.96701" lon="4.26439">
        <ele>258.73</ele>
        <time>2021-08-10T20:16:08Z</time>
      </trkpt>
      <trkpt lat="47.96699" lon="4.26434">
        <ele>259.21</ele>
        <time>2021-08-10T20:16:14Z</time>
      </trkpt>
      <trkpt lat="47.967" lon="4.26437">
        <ele>259.21</ele>
        <time>2021-08-10T20:16:27Z</time>
      </trkpt>
      <trkpt lat="47.96694" lon="4.26445">
        <ele>259.21</ele>
        <time>2021-08-10T20:16:47Z</time>
      </trkpt>
      <trkpt lat="47.96698" lon="4.2644">
        <ele>259.21</ele>
        <time>2021-08-10T20:16:57Z</time>
      </trkpt>
      <trkpt lat="47.96699" lon="4.26441">
        <ele>259.21</ele>
        <time>2021-08-10T20:17:02Z</time>
      </trkpt>
      <trkpt lat="47.96699" lon="4.26443">
        <ele>259.21</ele>
        <time>2021-08-10T20:17:03Z</time>
      </trkpt>
      <trkpt lat="47.96697" lon="4.26446">
        <ele>259.21</ele>
        <time>2021-08-10T20:17:04Z</time>
      </trkpt>
      <trkpt lat="47.96696" lon="4.26447">
        <ele>259.21</ele>
        <time>2021-08-10T20:17:05Z</time>
      </trkpt>
      <trkpt lat="47.96695" lon="4.26449">
        <ele>259.21</ele>
        <time>2021-08-10T20:17:06Z</time>
      </trkpt>
      <trkpt lat="47.96693" lon="4.26449">
        <ele>259.21</ele>
        <time>2021-08-10T20:17:07Z</time>
      </trkpt>
      <trkpt lat="47.96692" lon="4.2645">
        <ele>259.21</ele>
        <time>2021-08-10T20:17:08Z</time>
      </trkpt>
      <trkpt lat="47.96689" lon="4.26449">
        <ele>259.21</ele>
        <time>2021-08-10T20:17:09Z</time>
      </trkpt>
      <trkpt lat="47.96688" lon="4.26447">
        <ele>259.21</ele>
        <time>2021-08-10T20:17:10Z</time>
      </trkpt>
      <trkpt lat="47.96686" lon="4.26444">
        <ele>259.21</ele>
        <time>2021-08-10T20:17:11Z</time>
      </trkpt>
      <trkpt lat="47.96685" lon="4.26442">
        <ele>259.21</ele>
        <time>2021-08-10T20:17:12Z</time>
      </trkpt>
      <trkpt lat="47.96684" lon="4.26439">
        <ele>259.69</ele>
        <time>2021-08-10T20:17:13Z</time>
      </trkpt>
      <trkpt lat="47.96682" lon="4.26436">
        <ele>259.69</ele>
        <time>2021-08-10T20:17:14Z</time>
      </trkpt>
      <trkpt lat="47.96669" lon="4.26415">
        <ele>260.17</ele>
        <time>2021-08-10T20:17:22Z</time>
      </trkpt>
      <trkpt lat="47.96665" lon="4.2641">
        <ele>260.65</ele>
        <time>2021-08-10T20:17:25Z</time>
      </trkpt>
      <trkpt lat="47.96664" lon="4.2641">
        <ele>260.65</ele>
        <time>2021-08-10T20:17:26Z</time>
      </trkpt>
      <trkpt lat="47.96663" lon="4.26408">
        <ele>260.65</ele>
        <time>2021-08-10T20:17:27Z</time>
      </trkpt>
      <trkpt lat="47.96662" lon="4.26408">
        <ele>261.14</ele>
        <time>2021-08-10T20:17:28Z</time>
      </trkpt>
      <trkpt lat="47.96661" lon="4.26406">
        <ele>261.14</ele>
        <time>2021-08-10T20:17:29Z</time>
      </trkpt>
      <trkpt lat="47.9666" lon="4.26405">
        <ele>261.14</ele>
        <time>2021-08-10T20:17:30Z</time>
      </trkpt>
      <trkpt lat="47.96659" lon="4.26405">
        <ele>261.14</ele>
        <time>2021-08-10T20:17:31Z</time>
      </trkpt>
      <trkpt lat="47.96658" lon="4.26406">
        <ele>261.14</ele>
        <time>2021-08-10T20:17:32Z</time>
      </trkpt>
      <trkpt lat="47.96659" lon="4.26408">
        <ele>261.14</ele>
        <time>2021-08-10T20:17:33Z</time>
      </trkpt>
      <trkpt lat="47.9666" lon="4.26409">
        <ele>261.14</ele>
        <time>2021-08-10T20:17:34Z</time>
      </trkpt>
      <trkpt lat="47.96662" lon="4.2641">
        <ele>261.14</ele>
        <time>2021-08-10T20:17:35Z</time>
      </trkpt>
      <trkpt lat="47.96664" lon="4.26411">
        <ele>261.14</ele>
        <time>2021-08-10T20:17:36Z</time>
      </trkpt>
      <trkpt lat="47.96665" lon="4.26413">
        <ele>261.14</ele>
        <time>2021-08-10T20:17:37Z</time>
      </trkpt>
      <trkpt lat="47.96673" lon="4.26417">
        <ele>261.14</ele>
        <time>2021-08-10T20:17:44Z</time>
      </trkpt>
      <trkpt lat="47.96672" lon="4.26419">
        <ele>261.14</ele>
        <time>2021-08-10T20:17:50Z</time>
      </trkpt>
      <trkpt lat="47.96671" lon="4.26418">
        <ele>261.14</ele>
        <time>2021-08-10T20:17:51Z</time>
      </trkpt>
      <trkpt lat="47.9667" lon="4.26417">
        <ele>261.14</ele>
        <time>2021-08-10T20:17:52Z</time>
      </trkpt>
      <trkpt lat="47.96656" lon="4.26402">
        <ele>261.14</ele>
        <time>2021-08-10T20:17:59Z</time>
      </trkpt>
      <trkpt lat="47.96637" lon="4.26387">
        <ele>261.62</ele>
        <time>2021-08-10T20:18:06Z</time>
      </trkpt>
      <trkpt lat="47.96613" lon="4.26366">
        <ele>262.58</ele>
        <time>2021-08-10T20:18:15Z</time>
      </trkpt>
      <trkpt lat="47.96592" lon="4.26347">
        <ele>263.54</ele>
        <time>2021-08-10T20:18:25Z</time>
      </trkpt>
      <trkpt lat="47.96573" lon="4.26333">
        <ele>264.02</ele>
        <time>2021-08-10T20:18:34Z</time>
      </trkpt>
      <trkpt lat="47.96557" lon="4.26322">
        <ele>265.46</ele>
        <time>2021-08-10T20:18:41Z</time>
      </trkpt>
      <trkpt lat="47.96535" lon="4.26309">
        <ele>266.42</ele>
        <time>2021-08-10T20:18:52Z</time>
      </trkpt>
      <trkpt lat="47.96508" lon="4.26294">
        <ele>267.38</ele>
        <time>2021-08-10T20:19:04Z</time>
      </trkpt>
      <trkpt lat="47.9649" lon="4.26285">
        <ele>268.35</ele>
        <time>2021-08-10T20:19:12Z</time>
      </trkpt>
      <trkpt lat="47.9647" lon="4.26267">
        <ele>268.83</ele>
        <time>2021-08-10T20:19:21Z</time>
      </trkpt>
      <trkpt lat="47.96467" lon="4.26257">
        <ele>268.83</ele>
        <time>2021-08-10T20:19:23Z</time>
      </trkpt>
      <trkpt lat="47.96466" lon="4.26251">
        <ele>268.83</ele>
        <time>2021-08-10T20:19:24Z</time>
      </trkpt>
      <trkpt lat="47.96458" lon="4.26202">
        <ele>265.46</ele>
        <time>2021-08-10T20:19:30Z</time>
      </trkpt>
      <trkpt lat="47.96452" lon="4.26162">
        <ele>263.54</ele>
        <time>2021-08-10T20:19:34Z</time>
      </trkpt>
      <trkpt lat="47.96446" lon="4.26141">
        <ele>261.62</ele>
        <time>2021-08-10T20:19:36Z</time>
      </trkpt>
      <trkpt lat="47.96443" lon="4.2613">
        <ele>261.62</ele>
        <time>2021-08-10T20:19:37Z</time>
      </trkpt>
      <trkpt lat="47.96424" lon="4.26088">
        <ele>259.21</ele>
        <time>2021-08-10T20:19:41Z</time>
      </trkpt>
      <trkpt lat="47.96416" lon="4.26065">
        <ele>258.73</ele>
        <time>2021-08-10T20:19:43Z</time>
      </trkpt>
      <trkpt lat="47.96413" lon="4.26054">
        <ele>258.73</ele>
        <time>2021-08-10T20:19:44Z</time>
      </trkpt>
      <trkpt lat="47.96411" lon="4.26043">
        <ele>258.73</ele>
        <time>2021-08-10T20:19:45Z</time>
      </trkpt>
      <trkpt lat="47.96407" lon="4.26004">
        <ele>259.69</ele>
        <time>2021-08-10T20:19:49Z</time>
      </trkpt>
      <trkpt lat="47.96404" lon="4.25975">
        <ele>261.14</ele>
        <time>2021-08-10T20:19:53Z</time>
      </trkpt>
      <trkpt lat="47.96404" lon="4.25969">
        <ele>262.1</ele>
        <time>2021-08-10T20:19:54Z</time>
      </trkpt>
      <trkpt lat="47.96402" lon="4.25937">
        <ele>263.54</ele>
        <time>2021-08-10T20:20:01Z</time>
      </trkpt>
      <trkpt lat="47.96399" lon="4.2589">
        <ele>265.94</ele>
        <time>2021-08-10T20:20:11Z</time>
      </trkpt>
      <trkpt lat="47.964" lon="4.25848">
        <ele>266.42</ele>
        <time>2021-08-10T20:20:20Z</time>
      </trkpt>
      <trkpt lat="47.96401" lon="4.25833">
        <ele>266.42</ele>
        <time>2021-08-10T20:20:23Z</time>
      </trkpt>
      <trkpt lat="47.96405" lon="4.25808">
        <ele>266.42</ele>
        <time>2021-08-10T20:20:28Z</time>
      </trkpt>
      <trkpt lat="47.96407" lon="4.25803">
        <ele>266.42</ele>
        <time>2021-08-10T20:20:29Z</time>
      </trkpt>
      <trkpt lat="47.96409" lon="4.25798">
        <ele>266.42</ele>
        <time>2021-08-10T20:20:30Z</time>
      </trkpt>
      <trkpt lat="47.9641" lon="4.25792">
        <ele>266.42</ele>
        <time>2021-08-10T20:20:31Z</time>
      </trkpt>
      <trkpt lat="47.96411" lon="4.25787">
        <ele>266.42</ele>
        <time>2021-08-10T20:20:32Z</time>
      </trkpt>
      <trkpt lat="47.96412" lon="4.2578">
        <ele>266.42</ele>
        <time>2021-08-10T20:20:33Z</time>
      </trkpt>
      <trkpt lat="47.96416" lon="4.25762">
        <ele>264.98</ele>
        <time>2021-08-10T20:20:36Z</time>
      </trkpt>
      <trkpt lat="47.96427" lon="4.25695">
        <ele>262.58</ele>
        <time>2021-08-10T20:20:45Z</time>
      </trkpt>
      <trkpt lat="47.96428" lon="4.25633">
        <ele>260.65</ele>
        <time>2021-08-10T20:20:52Z</time>
      </trkpt>
      <trkpt lat="47.96422" lon="4.25548">
        <ele>257.77</ele>
        <time>2021-08-10T20:21:00Z</time>
      </trkpt>
      <trkpt lat="47.96413" lon="4.25432">
        <ele>254.89</ele>
        <time>2021-08-10T20:21:10Z</time>
      </trkpt>
      <trkpt lat="47.96406" lon="4.25316">
        <ele>253.93</ele>
        <time>2021-08-10T20:21:21Z</time>
      </trkpt>
      <trkpt lat="47.964" lon="4.25221">
        <ele>252</ele>
        <time>2021-08-10T20:21:30Z</time>
      </trkpt>
      <trkpt lat="47.96396" lon="4.25154">
        <ele>252</ele>
        <time>2021-08-10T20:21:38Z</time>
      </trkpt>
      <trkpt lat="47.96395" lon="4.25146">
        <ele>252</ele>
        <time>2021-08-10T20:21:39Z</time>
      </trkpt>
      <trkpt lat="47.96394" lon="4.2514">
        <ele>252</ele>
        <time>2021-08-10T20:21:40Z</time>
      </trkpt>
      <trkpt lat="47.96392" lon="4.25134">
        <ele>252</ele>
        <time>2021-08-10T20:21:41Z</time>
      </trkpt>
      <trkpt lat="47.96391" lon="4.25128">
        <ele>252</ele>
        <time>2021-08-10T20:21:42Z</time>
      </trkpt>
      <trkpt lat="47.96376" lon="4.25066">
        <ele>253.93</ele>
        <time>2021-08-10T20:21:53Z</time>
      </trkpt>
      <trkpt lat="47.96367" lon="4.2501">
        <ele>254.41</ele>
        <time>2021-08-10T20:22:03Z</time>
      </trkpt>
      <trkpt lat="47.96368" lon="4.25004">
        <ele>254.41</ele>
        <time>2021-08-10T20:22:04Z</time>
      </trkpt>
      <trkpt lat="47.96386" lon="4.24958">
        <ele>254.41</ele>
        <time>2021-08-10T20:22:13Z</time>
      </trkpt>
      <trkpt lat="47.96388" lon="4.24947">
        <ele>254.41</ele>
        <time>2021-08-10T20:22:15Z</time>
      </trkpt>
      <trkpt lat="47.96389" lon="4.24941">
        <ele>254.41</ele>
        <time>2021-08-10T20:22:16Z</time>
      </trkpt>
      <trkpt lat="47.96389" lon="4.24935">
        <ele>254.41</ele>
        <time>2021-08-10T20:22:17Z</time>
      </trkpt>
      <trkpt lat="47.96389" lon="4.24929">
        <ele>254.41</ele>
        <time>2021-08-10T20:22:18Z</time>
      </trkpt>
      <trkpt lat="47.96388" lon="4.24923">
        <ele>254.89</ele>
        <time>2021-08-10T20:22:19Z</time>
      </trkpt>
      <trkpt lat="47.96387" lon="4.24918">
        <ele>254.89</ele>
        <time>2021-08-10T20:22:20Z</time>
      </trkpt>
      <trkpt lat="47.96386" lon="4.24882">
        <ele>255.85</ele>
        <time>2021-08-10T20:22:27Z</time>
      </trkpt>
      <trkpt lat="47.96392" lon="4.24871">
        <ele>256.81</ele>
        <time>2021-08-10T20:22:33Z</time>
      </trkpt>
      <trkpt lat="47.96397" lon="4.24867">
        <ele>257.29</ele>
        <time>2021-08-10T20:22:37Z</time>
      </trkpt>
      <trkpt lat="47.96398" lon="4.24866">
        <ele>257.29</ele>
        <time>2021-08-10T20:22:38Z</time>
      </trkpt>
      <trkpt lat="47.96398" lon="4.24864">
        <ele>257.29</ele>
        <time>2021-08-10T20:22:39Z</time>
      </trkpt>
      <trkpt lat="47.96399" lon="4.24863">
        <ele>258.25</ele>
        <time>2021-08-10T20:22:40Z</time>
      </trkpt>
      <trkpt lat="47.96399" lon="4.24861">
        <ele>258.25</ele>
        <time>2021-08-10T20:22:41Z</time>
      </trkpt>
      <trkpt lat="47.96403" lon="4.24856">
        <ele>259.21</ele>
        <time>2021-08-10T20:22:45Z</time>
      </trkpt>
      <trkpt lat="47.96409" lon="4.24854">
        <ele>260.17</ele>
        <time>2021-08-10T20:22:50Z</time>
      </trkpt>
      <trkpt lat="47.96417" lon="4.24841">
        <ele>262.1</ele>
        <time>2021-08-10T20:23:00Z</time>
      </trkpt>
      <trkpt lat="47.96422" lon="4.24837">
        <ele>262.58</ele>
        <time>2021-08-10T20:23:08Z</time>
      </trkpt>
      <trkpt lat="47.96428" lon="4.2483">
        <ele>264.5</ele>
        <time>2021-08-10T20:23:16Z</time>
      </trkpt>
      <trkpt lat="47.9643" lon="4.24829">
        <ele>264.02</ele>
        <time>2021-08-10T20:23:18Z</time>
      </trkpt>
      <trkpt lat="47.96435" lon="4.24823">
        <ele>265.46</ele>
        <time>2021-08-10T20:23:26Z</time>
      </trkpt>
      <trkpt lat="47.96442" lon="4.24814">
        <ele>267.38</ele>
        <time>2021-08-10T20:23:36Z</time>
      </trkpt>
      <trkpt lat="47.9645" lon="4.24805">
        <ele>268.35</ele>
        <time>2021-08-10T20:23:45Z</time>
      </trkpt>
      <trkpt lat="47.96458" lon="4.24795">
        <ele>269.31</ele>
        <time>2021-08-10T20:23:54Z</time>
      </trkpt>
      <trkpt lat="47.96464" lon="4.24788">
        <ele>270.75</ele>
        <time>2021-08-10T20:24:02Z</time>
      </trkpt>
      <trkpt lat="47.96465" lon="4.24789">
        <ele>270.27</ele>
        <time>2021-08-10T20:24:08Z</time>
      </trkpt>
      <trkpt lat="47.96464" lon="4.24789">
        <ele>270.27</ele>
        <time>2021-08-10T20:24:26Z</time>
      </trkpt>
      <trkpt lat="47.96465" lon="4.24789">
        <ele>270.27</ele>
        <time>2021-08-10T20:24:46Z</time>
      </trkpt>
      <trkpt lat="47.96465" lon="4.2479">
        <ele>270.27</ele>
        <time>2021-08-10T20:25:05Z</time>
      </trkpt>
      <trkpt lat="47.96465" lon="4.2479">
        <ele>270.27</ele>
        <time>2021-08-10T20:25:10Z</time>
      </trkpt>
      <trkpt lat="47.96468" lon="4.24785">
        <ele>270.27</ele>
        <time>2021-08-10T20:25:17Z</time>
      </trkpt>
      <trkpt lat="47.96475" lon="4.24776">
        <ele>271.71</ele>
        <time>2021-08-10T20:25:24Z</time>
      </trkpt>
      <trkpt lat="47.96481" lon="4.24769">
        <ele>272.19</ele>
        <time>2021-08-10T20:25:31Z</time>
      </trkpt>
      <trkpt lat="47.96481" lon="4.24769">
        <ele>272.67</ele>
        <time>2021-08-10T20:25:45Z</time>
      </trkpt>
      <trkpt lat="47.96482" lon="4.24766">
        <ele>272.67</ele>
        <time>2021-08-10T20:25:50Z</time>
      </trkpt>
      <trkpt lat="47.96483" lon="4.24764">
        <ele>272.67</ele>
        <time>2021-08-10T20:25:51Z</time>
      </trkpt>
      <trkpt lat="47.96483" lon="4.24762">
        <ele>272.67</ele>
        <time>2021-08-10T20:25:52Z</time>
      </trkpt>
      <trkpt lat="47.96484" lon="4.2476">
        <ele>273.15</ele>
        <time>2021-08-10T20:25:53Z</time>
      </trkpt>
      <trkpt lat="47.96485" lon="4.24759">
        <ele>273.15</ele>
        <time>2021-08-10T20:25:54Z</time>
      </trkpt>
      <trkpt lat="47.96486" lon="4.24758">
        <ele>273.15</ele>
        <time>2021-08-10T20:25:55Z</time>
      </trkpt>
      <trkpt lat="47.96488" lon="4.24757">
        <ele>273.63</ele>
        <time>2021-08-10T20:25:56Z</time>
      </trkpt>
      <trkpt lat="47.96489" lon="4.24757">
        <ele>273.63</ele>
        <time>2021-08-10T20:25:57Z</time>
      </trkpt>
      <trkpt lat="47.9649" lon="4.24756">
        <ele>273.63</ele>
        <time>2021-08-10T20:25:58Z</time>
      </trkpt>
      <trkpt lat="47.96491" lon="4.24755">
        <ele>273.63</ele>
        <time>2021-08-10T20:25:59Z</time>
      </trkpt>
      <trkpt lat="47.96492" lon="4.24753">
        <ele>274.11</ele>
        <time>2021-08-10T20:26:00Z</time>
      </trkpt>
      <trkpt lat="47.96493" lon="4.24751">
        <ele>274.11</ele>
        <time>2021-08-10T20:26:01Z</time>
      </trkpt>
      <trkpt lat="47.96494" lon="4.2475">
        <ele>274.11</ele>
        <time>2021-08-10T20:26:02Z</time>
      </trkpt>
      <trkpt lat="47.96495" lon="4.24749">
        <ele>274.11</ele>
        <time>2021-08-10T20:26:03Z</time>
      </trkpt>
      <trkpt lat="47.96496" lon="4.24748">
        <ele>274.59</ele>
        <time>2021-08-10T20:26:04Z</time>
      </trkpt>
      <trkpt lat="47.96505" lon="4.24736">
        <ele>275.56</ele>
        <time>2021-08-10T20:26:13Z</time>
      </trkpt>
      <trkpt lat="47.96509" lon="4.24734">
        <ele>276.04</ele>
        <time>2021-08-10T20:26:16Z</time>
      </trkpt>
      <trkpt lat="47.9651" lon="4.24733">
        <ele>276.04</ele>
        <time>2021-08-10T20:26:17Z</time>
      </trkpt>
      <trkpt lat="47.96511" lon="4.24731">
        <ele>276.04</ele>
        <time>2021-08-10T20:26:18Z</time>
      </trkpt>
      <trkpt lat="47.96512" lon="4.2473">
        <ele>276.04</ele>
        <time>2021-08-10T20:26:19Z</time>
      </trkpt>
      <trkpt lat="47.96513" lon="4.24728">
        <ele>276.52</ele>
        <time>2021-08-10T20:26:20Z</time>
      </trkpt>
      <trkpt lat="47.96514" lon="4.24727">
        <ele>276.52</ele>
        <time>2021-08-10T20:26:21Z</time>
      </trkpt>
      <trkpt lat="47.96521" lon="4.24718">
        <ele>277.96</ele>
        <time>2021-08-10T20:26:28Z</time>
      </trkpt>
      <trkpt lat="47.96522" lon="4.24717">
        <ele>277.96</ele>
        <time>2021-08-10T20:26:29Z</time>
      </trkpt>
      <trkpt lat="47.96535" lon="4.24702">
        <ele>279.88</ele>
        <time>2021-08-10T20:26:41Z</time>
      </trkpt>
      <trkpt lat="47.96543" lon="4.24693">
        <ele>280.36</ele>
        <time>2021-08-10T20:26:48Z</time>
      </trkpt>
      <trkpt lat="47.96548" lon="4.24687">
        <ele>281.32</ele>
        <time>2021-08-10T20:26:53Z</time>
      </trkpt>
      <trkpt lat="47.96549" lon="4.24686">
        <ele>281.32</ele>
        <time>2021-08-10T20:26:54Z</time>
      </trkpt>
      <trkpt lat="47.96551" lon="4.24684">
        <ele>281.8</ele>
        <time>2021-08-10T20:27:00Z</time>
      </trkpt>
      <trkpt lat="47.9655" lon="4.24683">
        <ele>281.8</ele>
        <time>2021-08-10T20:27:06Z</time>
      </trkpt>
      <trkpt lat="47.96552" lon="4.24682">
        <ele>281.8</ele>
        <time>2021-08-10T20:27:19Z</time>
      </trkpt>
      <trkpt lat="47.96553" lon="4.24681">
        <ele>281.8</ele>
        <time>2021-08-10T20:27:24Z</time>
      </trkpt>
      <trkpt lat="47.96553" lon="4.2468">
        <ele>281.8</ele>
        <time>2021-08-10T20:27:25Z</time>
      </trkpt>
      <trkpt lat="47.96554" lon="4.24678">
        <ele>281.8</ele>
        <time>2021-08-10T20:27:26Z</time>
      </trkpt>
      <trkpt lat="47.96555" lon="4.24677">
        <ele>281.8</ele>
        <time>2021-08-10T20:27:27Z</time>
      </trkpt>
      <trkpt lat="47.96556" lon="4.24676">
        <ele>282.28</ele>
        <time>2021-08-10T20:27:28Z</time>
      </trkpt>
      <trkpt lat="47.96558" lon="4.24675">
        <ele>282.28</ele>
        <time>2021-08-10T20:27:29Z</time>
      </trkpt>
      <trkpt lat="47.9656" lon="4.24674">
        <ele>282.28</ele>
        <time>2021-08-10T20:27:30Z</time>
      </trkpt>
      <trkpt lat="47.96573" lon="4.24663">
        <ele>283.25</ele>
        <time>2021-08-10T20:27:37Z</time>
      </trkpt>
      <trkpt lat="47.96595" lon="4.24646">
        <ele>284.21</ele>
        <time>2021-08-10T20:27:48Z</time>
      </trkpt>
      <trkpt lat="47.9661" lon="4.24635">
        <ele>286.13</ele>
        <time>2021-08-10T20:27:56Z</time>
      </trkpt>
      <trkpt lat="47.96626" lon="4.24621">
        <ele>287.09</ele>
        <time>2021-08-10T20:28:05Z</time>
      </trkpt>
      <trkpt lat="47.96627" lon="4.24602">
        <ele>287.57</ele>
        <time>2021-08-10T20:28:11Z</time>
      </trkpt>
      <trkpt lat="47.96623" lon="4.24571">
        <ele>288.53</ele>
        <time>2021-08-10T20:28:20Z</time>
      </trkpt>
      <trkpt lat="47.96618" lon="4.2453">
        <ele>289.97</ele>
        <time>2021-08-10T20:28:31Z</time>
      </trkpt>
      <trkpt lat="47.96615" lon="4.24493">
        <ele>291.42</ele>
        <time>2021-08-10T20:28:41Z</time>
      </trkpt>
      <trkpt lat="47.96615" lon="4.24454">
        <ele>292.86</ele>
        <time>2021-08-10T20:28:51Z</time>
      </trkpt>
      <trkpt lat="47.96617" lon="4.24406">
        <ele>293.34</ele>
        <time>2021-08-10T20:29:03Z</time>
      </trkpt>
      <trkpt lat="47.96622" lon="4.24361">
        <ele>295.26</ele>
        <time>2021-08-10T20:29:14Z</time>
      </trkpt>
      <trkpt lat="47.96629" lon="4.24306">
        <ele>297.18</ele>
        <time>2021-08-10T20:29:27Z</time>
      </trkpt>
      <trkpt lat="47.96637" lon="4.24256">
        <ele>298.63</ele>
        <time>2021-08-10T20:29:39Z</time>
      </trkpt>
      <trkpt lat="47.96646" lon="4.24206">
        <ele>300.07</ele>
        <time>2021-08-10T20:29:51Z</time>
      </trkpt>
      <trkpt lat="47.96653" lon="4.24162">
        <ele>301.51</ele>
        <time>2021-08-10T20:30:01Z</time>
      </trkpt>
      <trkpt lat="47.96659" lon="4.24122">
        <ele>301.99</ele>
        <time>2021-08-10T20:30:09Z</time>
      </trkpt>
      <trkpt lat="47.96667" lon="4.24072">
        <ele>302.95</ele>
        <time>2021-08-10T20:30:18Z</time>
      </trkpt>
      <trkpt lat="47.96672" lon="4.24032">
        <ele>303.43</ele>
        <time>2021-08-10T20:30:25Z</time>
      </trkpt>
      <trkpt lat="47.96671" lon="4.24026">
        <ele>303.43</ele>
        <time>2021-08-10T20:30:26Z</time>
      </trkpt>
      <trkpt lat="47.96672" lon="4.2402">
        <ele>303.43</ele>
        <time>2021-08-10T20:30:27Z</time>
      </trkpt>
      <trkpt lat="47.96687" lon="4.23945">
        <ele>303.91</ele>
        <time>2021-08-10T20:30:40Z</time>
      </trkpt>
      <trkpt lat="47.96698" lon="4.2388">
        <ele>304.88</ele>
        <time>2021-08-10T20:30:51Z</time>
      </trkpt>
      <trkpt lat="47.96708" lon="4.2382">
        <ele>305.36</ele>
        <time>2021-08-10T20:31:01Z</time>
      </trkpt>
      <trkpt lat="47.9672" lon="4.23752">
        <ele>305.84</ele>
        <time>2021-08-10T20:31:11Z</time>
      </trkpt>
      <trkpt lat="47.96727" lon="4.23675">
        <ele>306.8</ele>
        <time>2021-08-10T20:31:22Z</time>
      </trkpt>
      <trkpt lat="47.96728" lon="4.23604">
        <ele>307.28</ele>
        <time>2021-08-10T20:31:33Z</time>
      </trkpt>
      <trkpt lat="47.96728" lon="4.23517">
        <ele>307.28</ele>
        <time>2021-08-10T20:31:46Z</time>
      </trkpt>
      <trkpt lat="47.96729" lon="4.23444">
        <ele>307.76</ele>
        <time>2021-08-10T20:31:56Z</time>
      </trkpt>
      <trkpt lat="47.96729" lon="4.23352">
        <ele>306.32</ele>
        <time>2021-08-10T20:32:07Z</time>
      </trkpt>
      <trkpt lat="47.9673" lon="4.23256">
        <ele>302.95</ele>
        <time>2021-08-10T20:32:16Z</time>
      </trkpt>
      <trkpt lat="47.96725" lon="4.23155">
        <ele>301.99</ele>
        <time>2021-08-10T20:32:25Z</time>
      </trkpt>
      <trkpt lat="47.96723" lon="4.23146">
        <ele>301.99</ele>
        <time>2021-08-10T20:32:26Z</time>
      </trkpt>
      <trkpt lat="47.96703" lon="4.23083">
        <ele>303.43</ele>
        <time>2021-08-10T20:32:33Z</time>
      </trkpt>
      <trkpt lat="47.9668" lon="4.23042">
        <ele>304.88</ele>
        <time>2021-08-10T20:32:39Z</time>
      </trkpt>
      <trkpt lat="47.96652" lon="4.23004">
        <ele>305.84</ele>
        <time>2021-08-10T20:32:47Z</time>
      </trkpt>
      <trkpt lat="47.96625" lon="4.22971">
        <ele>306.8</ele>
        <time>2021-08-10T20:32:56Z</time>
      </trkpt>
      <trkpt lat="47.96604" lon="4.22943">
        <ele>308.24</ele>
        <time>2021-08-10T20:33:04Z</time>
      </trkpt>
      <trkpt lat="47.96585" lon="4.2292">
        <ele>308.72</ele>
        <time>2021-08-10T20:33:11Z</time>
      </trkpt>
      <trkpt lat="47.96562" lon="4.2289">
        <ele>310.16</ele>
        <time>2021-08-10T20:33:20Z</time>
      </trkpt>
      <trkpt lat="47.96541" lon="4.22865">
        <ele>310.64</ele>
        <time>2021-08-10T20:33:28Z</time>
      </trkpt>
      <trkpt lat="47.9652" lon="4.22844">
        <ele>311.6</ele>
        <time>2021-08-10T20:33:36Z</time>
      </trkpt>
      <trkpt lat="47.96501" lon="4.22829">
        <ele>312.57</ele>
        <time>2021-08-10T20:33:42Z</time>
      </trkpt>
      <trkpt lat="47.96476" lon="4.22814">
        <ele>313.05</ele>
        <time>2021-08-10T20:33:50Z</time>
      </trkpt>
      <trkpt lat="47.96452" lon="4.22799">
        <ele>314.01</ele>
        <time>2021-08-10T20:33:58Z</time>
      </trkpt>
      <trkpt lat="47.96434" lon="4.22788">
        <ele>314.01</ele>
        <time>2021-08-10T20:34:04Z</time>
      </trkpt>
      <trkpt lat="47.96411" lon="4.22775">
        <ele>314.49</ele>
        <time>2021-08-10T20:34:12Z</time>
      </trkpt>
      <trkpt lat="47.9639" lon="4.22762">
        <ele>315.93</ele>
        <time>2021-08-10T20:34:19Z</time>
      </trkpt>
      <trkpt lat="47.96364" lon="4.22746">
        <ele>316.41</ele>
        <time>2021-08-10T20:34:27Z</time>
      </trkpt>
      <trkpt lat="47.9634" lon="4.22732">
        <ele>317.37</ele>
        <time>2021-08-10T20:34:34Z</time>
      </trkpt>
      <trkpt lat="47.96311" lon="4.2271">
        <ele>318.33</ele>
        <time>2021-08-10T20:34:43Z</time>
      </trkpt>
      <trkpt lat="47.96285" lon="4.22674">
        <ele>319.3</ele>
        <time>2021-08-10T20:34:53Z</time>
      </trkpt>
      <trkpt lat="47.96276" lon="4.22657">
        <ele>319.3</ele>
        <time>2021-08-10T20:34:57Z</time>
      </trkpt>
      <trkpt lat="47.96274" lon="4.2265">
        <ele>319.3</ele>
        <time>2021-08-10T20:34:58Z</time>
      </trkpt>
      <trkpt lat="47.96263" lon="4.2261">
        <ele>319.3</ele>
        <time>2021-08-10T20:35:07Z</time>
      </trkpt>
      <trkpt lat="47.96256" lon="4.22577">
        <ele>319.3</ele>
        <time>2021-08-10T20:35:13Z</time>
      </trkpt>
      <trkpt lat="47.96249" lon="4.22545">
        <ele>317.85</ele>
        <time>2021-08-10T20:35:18Z</time>
      </trkpt>
      <trkpt lat="47.96234" lon="4.22483">
        <ele>315.93</ele>
        <time>2021-08-10T20:35:26Z</time>
      </trkpt>
      <trkpt lat="47.9622" lon="4.22414">
        <ele>313.05</ele>
        <time>2021-08-10T20:35:33Z</time>
      </trkpt>
      <trkpt lat="47.9621" lon="4.22366">
        <ele>311.12</ele>
        <time>2021-08-10T20:35:37Z</time>
      </trkpt>
      <trkpt lat="47.96194" lon="4.22288">
        <ele>307.28</ele>
        <time>2021-08-10T20:35:43Z</time>
      </trkpt>
      <trkpt lat="47.96182" lon="4.22215">
        <ele>303.91</ele>
        <time>2021-08-10T20:35:48Z</time>
      </trkpt>
      <trkpt lat="47.96169" lon="4.22138">
        <ele>300.07</ele>
        <time>2021-08-10T20:35:53Z</time>
      </trkpt>
      <trkpt lat="47.96156" lon="4.22057">
        <ele>297.18</ele>
        <time>2021-08-10T20:35:58Z</time>
      </trkpt>
      <trkpt lat="47.96143" lon="4.21975">
        <ele>293.34</ele>
        <time>2021-08-10T20:36:03Z</time>
      </trkpt>
      <trkpt lat="47.96134" lon="4.21901">
        <ele>289.97</ele>
        <time>2021-08-10T20:36:08Z</time>
      </trkpt>
      <trkpt lat="47.96136" lon="4.21821">
        <ele>286.61</ele>
        <time>2021-08-10T20:36:13Z</time>
      </trkpt>
      <trkpt lat="47.96138" lon="4.21806">
        <ele>286.13</ele>
        <time>2021-08-10T20:36:14Z</time>
      </trkpt>
      <trkpt lat="47.96143" lon="4.21792">
        <ele>285.65</ele>
        <time>2021-08-10T20:36:15Z</time>
      </trkpt>
      <trkpt lat="47.96148" lon="4.2178">
        <ele>285.17</ele>
        <time>2021-08-10T20:36:16Z</time>
      </trkpt>
      <trkpt lat="47.96155" lon="4.21769">
        <ele>285.17</ele>
        <time>2021-08-10T20:36:17Z</time>
      </trkpt>
      <trkpt lat="47.96161" lon="4.21759">
        <ele>284.21</ele>
        <time>2021-08-10T20:36:18Z</time>
      </trkpt>
      <trkpt lat="47.96199" lon="4.21709">
        <ele>280.84</ele>
        <time>2021-08-10T20:36:23Z</time>
      </trkpt>
      <trkpt lat="47.96239" lon="4.21658">
        <ele>277.48</ele>
        <time>2021-08-10T20:36:28Z</time>
      </trkpt>
      <trkpt lat="47.96272" lon="4.21616">
        <ele>274.11</ele>
        <time>2021-08-10T20:36:32Z</time>
      </trkpt>
      <trkpt lat="47.96287" lon="4.21595">
        <ele>273.15</ele>
        <time>2021-08-10T20:36:34Z</time>
      </trkpt>
      <trkpt lat="47.96293" lon="4.21584">
        <ele>272.19</ele>
        <time>2021-08-10T20:36:35Z</time>
      </trkpt>
      <trkpt lat="47.96298" lon="4.21572">
        <ele>271.23</ele>
        <time>2021-08-10T20:36:36Z</time>
      </trkpt>
      <trkpt lat="47.96301" lon="4.21558">
        <ele>270.75</ele>
        <time>2021-08-10T20:36:37Z</time>
      </trkpt>
      <trkpt lat="47.96304" lon="4.21544">
        <ele>269.79</ele>
        <time>2021-08-10T20:36:38Z</time>
      </trkpt>
      <trkpt lat="47.96306" lon="4.21528">
        <ele>268.83</ele>
        <time>2021-08-10T20:36:39Z</time>
      </trkpt>
      <trkpt lat="47.96307" lon="4.21513">
        <ele>267.86</ele>
        <time>2021-08-10T20:36:40Z</time>
      </trkpt>
      <trkpt lat="47.96308" lon="4.21495">
        <ele>266.9</ele>
        <time>2021-08-10T20:36:41Z</time>
      </trkpt>
      <trkpt lat="47.9631" lon="4.2143">
        <ele>264.02</ele>
        <time>2021-08-10T20:36:45Z</time>
      </trkpt>
      <trkpt lat="47.96314" lon="4.21347">
        <ele>260.65</ele>
        <time>2021-08-10T20:36:50Z</time>
      </trkpt>
      <trkpt lat="47.96319" lon="4.21242">
        <ele>259.69</ele>
        <time>2021-08-10T20:36:57Z</time>
      </trkpt>
      <trkpt lat="47.96319" lon="4.21205">
        <ele>261.14</ele>
        <time>2021-08-10T20:37:00Z</time>
      </trkpt>
      <trkpt lat="47.96314" lon="4.21152">
        <ele>263.06</ele>
        <time>2021-08-10T20:37:06Z</time>
      </trkpt>
      <trkpt lat="47.96299" lon="4.21093">
        <ele>264.98</ele>
        <time>2021-08-10T20:37:15Z</time>
      </trkpt>
      <trkpt lat="47.96286" lon="4.21043">
        <ele>266.42</ele>
        <time>2021-08-10T20:37:24Z</time>
      </trkpt>
      <trkpt lat="47.96271" lon="4.20982">
        <ele>266.9</ele>
        <time>2021-08-10T20:37:36Z</time>
      </trkpt>
      <trkpt lat="47.96256" lon="4.20928">
        <ele>267.86</ele>
        <time>2021-08-10T20:37:46Z</time>
      </trkpt>
      <trkpt lat="47.96232" lon="4.20864">
        <ele>268.83</ele>
        <time>2021-08-10T20:37:58Z</time>
      </trkpt>
      <trkpt lat="47.96208" lon="4.20813">
        <ele>268.83</ele>
        <time>2021-08-10T20:38:08Z</time>
      </trkpt>
      <trkpt lat="47.96179" lon="4.20755">
        <ele>268.83</ele>
        <time>2021-08-10T20:38:19Z</time>
      </trkpt>
      <trkpt lat="47.96148" lon="4.20694">
        <ele>268.83</ele>
        <time>2021-08-10T20:38:30Z</time>
      </trkpt>
      <trkpt lat="47.9611" lon="4.20617">
        <ele>268.83</ele>
        <time>2021-08-10T20:38:43Z</time>
      </trkpt>
      <trkpt lat="47.96087" lon="4.20573">
        <ele>268.83</ele>
        <time>2021-08-10T20:38:51Z</time>
      </trkpt>
      <trkpt lat="47.96085" lon="4.20567">
        <ele>268.83</ele>
        <time>2021-08-10T20:38:52Z</time>
      </trkpt>
      <trkpt lat="47.96083" lon="4.20562">
        <ele>268.83</ele>
        <time>2021-08-10T20:38:53Z</time>
      </trkpt>
      <trkpt lat="47.9608" lon="4.20557">
        <ele>268.83</ele>
        <time>2021-08-10T20:38:54Z</time>
      </trkpt>
      <trkpt lat="47.96077" lon="4.20552">
        <ele>268.83</ele>
        <time>2021-08-10T20:38:55Z</time>
      </trkpt>
      <trkpt lat="47.96053" lon="4.20502">
        <ele>268.83</ele>
        <time>2021-08-10T20:39:04Z</time>
      </trkpt>
      <trkpt lat="47.96031" lon="4.20449">
        <ele>268.83</ele>
        <time>2021-08-10T20:39:13Z</time>
      </trkpt>
      <trkpt lat="47.96015" lon="4.20381">
        <ele>268.83</ele>
        <time>2021-08-10T20:39:23Z</time>
      </trkpt>
      <trkpt lat="47.95997" lon="4.20306">
        <ele>269.79</ele>
        <time>2021-08-10T20:39:34Z</time>
      </trkpt>
      <trkpt lat="47.95983" lon="4.20249">
        <ele>271.23</ele>
        <time>2021-08-10T20:39:43Z</time>
      </trkpt>
      <trkpt lat="47.95971" lon="4.20191">
        <ele>273.15</ele>
        <time>2021-08-10T20:39:54Z</time>
      </trkpt>
      <trkpt lat="47.95959" lon="4.20139">
        <ele>274.11</ele>
        <time>2021-08-10T20:40:06Z</time>
      </trkpt>
      <trkpt lat="47.9595" lon="4.20095">
        <ele>275.56</ele>
        <time>2021-08-10T20:40:16Z</time>
      </trkpt>
      <trkpt lat="47.95939" lon="4.20054">
        <ele>277</ele>
        <time>2021-08-10T20:40:26Z</time>
      </trkpt>
      <trkpt lat="47.95928" lon="4.20006">
        <ele>278.44</ele>
        <time>2021-08-10T20:40:37Z</time>
      </trkpt>
      <trkpt lat="47.95919" lon="4.19966">
        <ele>279.4</ele>
        <time>2021-08-10T20:40:46Z</time>
      </trkpt>
      <trkpt lat="47.9591" lon="4.19925">
        <ele>280.84</ele>
        <time>2021-08-10T20:40:55Z</time>
      </trkpt>
      <trkpt lat="47.95902" lon="4.19883">
        <ele>283.25</ele>
        <time>2021-08-10T20:41:06Z</time>
      </trkpt>
      <trkpt lat="47.959" lon="4.19854">
        <ele>283.73</ele>
        <time>2021-08-10T20:41:15Z</time>
      </trkpt>
      <trkpt lat="47.95898" lon="4.19816">
        <ele>285.65</ele>
        <time>2021-08-10T20:41:26Z</time>
      </trkpt>
      <trkpt lat="47.95895" lon="4.1977">
        <ele>288.05</ele>
        <time>2021-08-10T20:41:39Z</time>
      </trkpt>
      <trkpt lat="47.95894" lon="4.19742">
        <ele>289.01</ele>
        <time>2021-08-10T20:41:47Z</time>
      </trkpt>
      <trkpt lat="47.95894" lon="4.19715">
        <ele>290.46</ele>
        <time>2021-08-10T20:41:55Z</time>
      </trkpt>
      <trkpt lat="47.95892" lon="4.19686">
        <ele>291.42</ele>
        <time>2021-08-10T20:42:03Z</time>
      </trkpt>
      <trkpt lat="47.95892" lon="4.19662">
        <ele>292.38</ele>
        <time>2021-08-10T20:42:10Z</time>
      </trkpt>
      <trkpt lat="47.9589" lon="4.19634">
        <ele>293.82</ele>
        <time>2021-08-10T20:42:18Z</time>
      </trkpt>
      <trkpt lat="47.95889" lon="4.1961">
        <ele>294.78</ele>
        <time>2021-08-10T20:42:25Z</time>
      </trkpt>
      <trkpt lat="47.95887" lon="4.19579">
        <ele>296.22</ele>
        <time>2021-08-10T20:42:34Z</time>
      </trkpt>
      <trkpt lat="47.95885" lon="4.19546">
        <ele>297.18</ele>
        <time>2021-08-10T20:42:43Z</time>
      </trkpt>
      <trkpt lat="47.95883" lon="4.19518">
        <ele>298.15</ele>
        <time>2021-08-10T20:42:51Z</time>
      </trkpt>
      <trkpt lat="47.95879" lon="4.19487">
        <ele>299.11</ele>
        <time>2021-08-10T20:43:00Z</time>
      </trkpt>
      <trkpt lat="47.95873" lon="4.19454">
        <ele>300.55</ele>
        <time>2021-08-10T20:43:09Z</time>
      </trkpt>
      <trkpt lat="47.95869" lon="4.1942">
        <ele>301.51</ele>
        <time>2021-08-10T20:43:18Z</time>
      </trkpt>
      <trkpt lat="47.95862" lon="4.19373">
        <ele>301.99</ele>
        <time>2021-08-10T20:43:28Z</time>
      </trkpt>
      <trkpt lat="47.95857" lon="4.19344">
        <ele>302.47</ele>
        <time>2021-08-10T20:43:35Z</time>
      </trkpt>
      <trkpt lat="47.95851" lon="4.19304">
        <ele>302.95</ele>
        <time>2021-08-10T20:43:44Z</time>
      </trkpt>
      <trkpt lat="47.95846" lon="4.19268">
        <ele>302.95</ele>
        <time>2021-08-10T20:43:51Z</time>
      </trkpt>
      <trkpt lat="47.95843" lon="4.19227">
        <ele>302.95</ele>
        <time>2021-08-10T20:43:59Z</time>
      </trkpt>
      <trkpt lat="47.95843" lon="4.1922">
        <ele>302.95</ele>
        <time>2021-08-10T20:44:04Z</time>
      </trkpt>
      <trkpt lat="47.95842" lon="4.19219">
        <ele>302.95</ele>
        <time>2021-08-10T20:44:17Z</time>
      </trkpt>
      <trkpt lat="47.95841" lon="4.19217">
        <ele>302.95</ele>
        <time>2021-08-10T20:44:26Z</time>
      </trkpt>
      <trkpt lat="47.9584" lon="4.19215">
        <ele>302.95</ele>
        <time>2021-08-10T20:44:27Z</time>
      </trkpt>
      <trkpt lat="47.9584" lon="4.19213">
        <ele>302.95</ele>
        <time>2021-08-10T20:44:28Z</time>
      </trkpt>
      <trkpt lat="47.95839" lon="4.19212">
        <ele>302.95</ele>
        <time>2021-08-10T20:44:29Z</time>
      </trkpt>
      <trkpt lat="47.95839" lon="4.19209">
        <ele>302.95</ele>
        <time>2021-08-10T20:44:30Z</time>
      </trkpt>
      <trkpt lat="47.95837" lon="4.19185">
        <ele>302.95</ele>
        <time>2021-08-10T20:44:36Z</time>
      </trkpt>
      <trkpt lat="47.95834" lon="4.19149">
        <ele>301.51</ele>
        <time>2021-08-10T20:44:45Z</time>
      </trkpt>
      <trkpt lat="47.9583" lon="4.19111">
        <ele>300.55</ele>
        <time>2021-08-10T20:44:52Z</time>
      </trkpt>
      <trkpt lat="47.95828" lon="4.19092">
        <ele>299.59</ele>
        <time>2021-08-10T20:44:55Z</time>
      </trkpt>
      <trkpt lat="47.95826" lon="4.19063">
        <ele>299.59</ele>
        <time>2021-08-10T20:45:01Z</time>
      </trkpt>
      <trkpt lat="47.95832" lon="4.19039">
        <ele>299.59</ele>
        <time>2021-08-10T20:45:08Z</time>
      </trkpt>
      <trkpt lat="47.95842" lon="4.1901">
        <ele>301.03</ele>
        <time>2021-08-10T20:45:16Z</time>
      </trkpt>
      <trkpt lat="47.95843" lon="4.19007">
        <ele>301.03</ele>
        <time>2021-08-10T20:45:17Z</time>
      </trkpt>
      <trkpt lat="47.95853" lon="4.18977">
        <ele>301.51</ele>
        <time>2021-08-10T20:45:24Z</time>
      </trkpt>
      <trkpt lat="47.95864" lon="4.18937">
        <ele>302.47</ele>
        <time>2021-08-10T20:45:34Z</time>
      </trkpt>
      <trkpt lat="47.9587" lon="4.18903">
        <ele>303.43</ele>
        <time>2021-08-10T20:45:43Z</time>
      </trkpt>
      <trkpt lat="47.95869" lon="4.1888">
        <ele>303.91</ele>
        <time>2021-08-10T20:45:49Z</time>
      </trkpt>
      <trkpt lat="47.95861" lon="4.18855">
        <ele>304.39</ele>
        <time>2021-08-10T20:45:57Z</time>
      </trkpt>
      <trkpt lat="47.95857" lon="4.18829">
        <ele>304.88</ele>
        <time>2021-08-10T20:46:04Z</time>
      </trkpt>
      <trkpt lat="47.95857" lon="4.18791">
        <ele>305.84</ele>
        <time>2021-08-10T20:46:14Z</time>
      </trkpt>
      <trkpt lat="47.95857" lon="4.18784">
        <ele>305.84</ele>
        <time>2021-08-10T20:46:16Z</time>
      </trkpt>
      <trkpt lat="47.95857" lon="4.18781">
        <ele>306.32</ele>
        <time>2021-08-10T20:46:17Z</time>
      </trkpt>
      <trkpt lat="47.95858" lon="4.18749">
        <ele>307.28</ele>
        <time>2021-08-10T20:46:26Z</time>
      </trkpt>
      <trkpt lat="47.95864" lon="4.18736">
        <ele>307.76</ele>
        <time>2021-08-10T20:46:33Z</time>
      </trkpt>
      <trkpt lat="47.95865" lon="4.18735">
        <ele>307.76</ele>
        <time>2021-08-10T20:46:34Z</time>
      </trkpt>
      <trkpt lat="47.95866" lon="4.18735">
        <ele>308.24</ele>
        <time>2021-08-10T20:46:35Z</time>
      </trkpt>
      <trkpt lat="47.9587" lon="4.18738">
        <ele>308.24</ele>
        <time>2021-08-10T20:46:38Z</time>
      </trkpt>
      <trkpt lat="47.95873" lon="4.18742">
        <ele>308.72</ele>
        <time>2021-08-10T20:46:44Z</time>
      </trkpt>
      <trkpt lat="47.95873" lon="4.1874">
        <ele>308.72</ele>
        <time>2021-08-10T20:46:52Z</time>
      </trkpt>
      <trkpt lat="47.95874" lon="4.18741">
        <ele>309.2</ele>
        <time>2021-08-10T20:47:03Z</time>
      </trkpt>
      <trkpt lat="47.95874" lon="4.1874">
        <ele>309.2</ele>
        <time>2021-08-10T20:47:28Z</time>
      </trkpt>
      <trkpt lat="47.95873" lon="4.18741">
        <ele>309.2</ele>
        <time>2021-08-10T20:47:43Z</time>
      </trkpt>
      <trkpt lat="47.95871" lon="4.18741">
        <ele>309.2</ele>
        <time>2021-08-10T20:48:04Z</time>
      </trkpt>
      <trkpt lat="47.95871" lon="4.18741">
        <ele>309.2</ele>
        <time>2021-08-10T20:48:20Z</time>
      </trkpt>
      <trkpt lat="47.95872" lon="4.18739">
        <ele>309.2</ele>
        <time>2021-08-10T20:48:32Z</time>
      </trkpt>
      <trkpt lat="47.95872" lon="4.1874">
        <ele>309.2</ele>
        <time>2021-08-10T20:48:49Z</time>
      </trkpt>
      <trkpt lat="47.95871" lon="4.18742">
        <ele>309.68</ele>
        <time>2021-08-10T20:49:03Z</time>
      </trkpt>
      <trkpt lat="47.95871" lon="4.18743">
        <ele>309.68</ele>
        <time>2021-08-10T20:49:17Z</time>
      </trkpt>
      <trkpt lat="47.95871" lon="4.18738">
        <ele>309.68</ele>
        <time>2021-08-10T20:49:32Z</time>
      </trkpt>
      <trkpt lat="47.95871" lon="4.18735">
        <ele>309.68</ele>
        <time>2021-08-10T20:49:52Z</time>
      </trkpt>
      <trkpt lat="47.95872" lon="4.1874">
        <ele>309.68</ele>
        <time>2021-08-10T20:49:58Z</time>
      </trkpt>
      <trkpt lat="47.95877" lon="4.18745">
        <ele>310.16</ele>
        <time>2021-08-10T20:50:05Z</time>
      </trkpt>
      <trkpt lat="47.95877" lon="4.18746">
        <ele>310.16</ele>
        <time>2021-08-10T20:50:17Z</time>
      </trkpt>
      <trkpt lat="47.95879" lon="4.18747">
        <ele>310.16</ele>
        <time>2021-08-10T20:50:30Z</time>
      </trkpt>
      <trkpt lat="47.95878" lon="4.18749">
        <ele>310.16</ele>
        <time>2021-08-10T20:50:50Z</time>
      </trkpt>
      <trkpt lat="47.95877" lon="4.18747">
        <ele>310.64</ele>
        <time>2021-08-10T20:51:05Z</time>
      </trkpt>
      <trkpt lat="47.95878" lon="4.1875">
        <ele>310.64</ele>
        <time>2021-08-10T20:51:17Z</time>
      </trkpt>
      <trkpt lat="47.95879" lon="4.18752">
        <ele>310.64</ele>
        <time>2021-08-10T20:51:31Z</time>
      </trkpt>
      <trkpt lat="47.9588" lon="4.18753">
        <ele>310.64</ele>
        <time>2021-08-10T20:51:43Z</time>
      </trkpt>
      <trkpt lat="47.9588" lon="4.18754">
        <ele>310.64</ele>
        <time>2021-08-10T20:51:59Z</time>
      </trkpt>
      <trkpt lat="47.95881" lon="4.18753">
        <ele>311.12</ele>
        <time>2021-08-10T20:52:12Z</time>
      </trkpt>
      <trkpt lat="47.95881" lon="4.18751">
        <ele>311.12</ele>
        <time>2021-08-10T20:52:26Z</time>
      </trkpt>
      <trkpt lat="47.95881" lon="4.18746">
        <ele>311.12</ele>
        <time>2021-08-10T20:52:46Z</time>
      </trkpt>
      <trkpt lat="47.95879" lon="4.18747">
        <ele>311.6</ele>
        <time>2021-08-10T20:53:02Z</time>
      </trkpt>
      <trkpt lat="47.95877" lon="4.18748">
        <ele>311.6</ele>
        <time>2021-08-10T20:53:17Z</time>
      </trkpt>
      <trkpt lat="47.95878" lon="4.18749">
        <ele>311.6</ele>
        <time>2021-08-10T20:53:36Z</time>
      </trkpt>
      <trkpt lat="47.95879" lon="4.1875">
        <ele>311.6</ele>
        <time>2021-08-10T20:53:53Z</time>
      </trkpt>
      <trkpt lat="47.95881" lon="4.1875">
        <ele>312.09</ele>
        <time>2021-08-10T20:54:11Z</time>
      </trkpt>
      <trkpt lat="47.95882" lon="4.18751">
        <ele>312.09</ele>
        <time>2021-08-10T20:54:29Z</time>
      </trkpt>
      <trkpt lat="47.9588" lon="4.18753">
        <ele>312.09</ele>
        <time>2021-08-10T20:54:45Z</time>
      </trkpt>
      <trkpt lat="47.9588" lon="4.18753">
        <ele>312.09</ele>
        <time>2021-08-10T20:55:03Z</time>
      </trkpt>
      <trkpt lat="47.95879" lon="4.1875">
        <ele>312.57</ele>
        <time>2021-08-10T20:55:18Z</time>
      </trkpt>
      <trkpt lat="47.9588" lon="4.1875">
        <ele>312.57</ele>
        <time>2021-08-10T20:55:35Z</time>
      </trkpt>
      <trkpt lat="47.95881" lon="4.18749">
        <ele>312.57</ele>
        <time>2021-08-10T20:55:49Z</time>
      </trkpt>
      <trkpt lat="47.95882" lon="4.1875">
        <ele>312.57</ele>
        <time>2021-08-10T20:56:07Z</time>
      </trkpt>
      <trkpt lat="47.95883" lon="4.18752">
        <ele>312.57</ele>
        <time>2021-08-10T20:56:24Z</time>
      </trkpt>
      <trkpt lat="47.95886" lon="4.18752">
        <ele>313.05</ele>
        <time>2021-08-10T20:56:45Z</time>
      </trkpt>
      <trkpt lat="47.95888" lon="4.18752">
        <ele>313.05</ele>
        <time>2021-08-10T20:56:58Z</time>
      </trkpt>
      <trkpt lat="47.95888" lon="4.18754">
        <ele>313.05</ele>
        <time>2021-08-10T20:57:12Z</time>
      </trkpt>
      <trkpt lat="47.95882" lon="4.18757">
        <ele>313.05</ele>
        <time>2021-08-10T20:57:26Z</time>
      </trkpt>
      <trkpt lat="47.9588" lon="4.18757">
        <ele>313.05</ele>
        <time>2021-08-10T20:57:39Z</time>
      </trkpt>
      <trkpt lat="47.95879" lon="4.18755">
        <ele>313.53</ele>
        <time>2021-08-10T20:57:53Z</time>
      </trkpt>
      <trkpt lat="47.95877" lon="4.18753">
        <ele>313.53</ele>
        <time>2021-08-10T20:58:16Z</time>
      </trkpt>
      <trkpt lat="47.95877" lon="4.18752">
        <ele>313.53</ele>
        <time>2021-08-10T20:58:26Z</time>
      </trkpt>
      <trkpt lat="47.95878" lon="4.18749">
        <ele>313.53</ele>
        <time>2021-08-10T20:58:46Z</time>
      </trkpt>
      <trkpt lat="47.95878" lon="4.18748">
        <ele>313.53</ele>
        <time>2021-08-10T20:58:56Z</time>
      </trkpt>
      <trkpt lat="47.95878" lon="4.18747">
        <ele>314.01</ele>
        <time>2021-08-10T20:59:10Z</time>
      </trkpt>
      <trkpt lat="47.95879" lon="4.18748">
        <ele>314.01</ele>
        <time>2021-08-10T20:59:23Z</time>
      </trkpt>
      <trkpt lat="47.95879" lon="4.1875">
        <ele>314.01</ele>
        <time>2021-08-10T20:59:34Z</time>
      </trkpt>
      <trkpt lat="47.95878" lon="4.18752">
        <ele>314.01</ele>
        <time>2021-08-10T20:59:51Z</time>
      </trkpt>
      <trkpt lat="47.95877" lon="4.18753">
        <ele>314.01</ele>
        <time>2021-08-10T21:00:11Z</time>
      </trkpt>
      <trkpt lat="47.95877" lon="4.18753">
        <ele>314.01</ele>
        <time>2021-08-10T21:00:13Z</time>
      </trkpt>
      <trkpt lat="47.9588" lon="4.18753">
        <ele>314.01</ele>
        <time>2021-08-10T21:00:21Z</time>
      </trkpt>
      <trkpt lat="47.95877" lon="4.18749">
        <ele>314.49</ele>
        <time>2021-08-10T21:00:36Z</time>
      </trkpt>
      <trkpt lat="47.9588" lon="4.18751">
        <ele>314.49</ele>
        <time>2021-08-10T21:00:50Z</time>
      </trkpt>
      <trkpt lat="47.9588" lon="4.18751">
        <ele>314.49</ele>
        <time>2021-08-10T21:01:16Z</time>
      </trkpt>
      <trkpt lat="47.95879" lon="4.1875">
        <ele>314.49</ele>
        <time>2021-08-10T21:01:35Z</time>
      </trkpt>
      <trkpt lat="47.95878" lon="4.18749">
        <ele>314.97</ele>
        <time>2021-08-10T21:01:55Z</time>
      </trkpt>
      <trkpt lat="47.95878" lon="4.18751">
        <ele>314.97</ele>
        <time>2021-08-10T21:02:20Z</time>
      </trkpt>
      <trkpt lat="47.95879" lon="4.18749">
        <ele>314.97</ele>
        <time>2021-08-10T21:02:42Z</time>
      </trkpt>
      <trkpt lat="47.95881" lon="4.18751">
        <ele>314.01</ele>
        <time>2021-08-10T21:03:06Z</time>
      </trkpt>
      <trkpt lat="47.95879" lon="4.18754">
        <ele>315.45</ele>
        <time>2021-08-10T21:03:24Z</time>
      </trkpt>
      <trkpt lat="47.95877" lon="4.18754">
        <ele>314.01</ele>
        <time>2021-08-10T21:03:40Z</time>
      </trkpt>
      <trkpt lat="47.95877" lon="4.1875">
        <ele>315.45</ele>
        <time>2021-08-10T21:03:54Z</time>
      </trkpt>
      <trkpt lat="47.9588" lon="4.18749">
        <ele>315.45</ele>
        <time>2021-08-10T21:04:05Z</time>
      </trkpt>
      <trkpt lat="47.9588" lon="4.18748">
        <ele>315.93</ele>
        <time>2021-08-10T21:04:13Z</time>
      </trkpt>
      <trkpt lat="47.95874" lon="4.18743">
        <ele>315.93</ele>
        <time>2021-08-10T21:04:20Z</time>
      </trkpt>
      <trkpt lat="47.95873" lon="4.18743">
        <ele>315.93</ele>
        <time>2021-08-10T21:04:26Z</time>
      </trkpt>
      <trkpt lat="47.95871" lon="4.18741">
        <ele>315.93</ele>
        <time>2021-08-10T21:04:28Z</time>
      </trkpt>
      <trkpt lat="47.95873" lon="4.1874">
        <ele>315.93</ele>
        <time>2021-08-10T21:04:32Z</time>
      </trkpt>
      <trkpt lat="47.95873" lon="4.1874">
        <ele>315.93</ele>
        <time>2021-08-10T21:04:34Z</time>
      </trkpt>
      <trkpt lat="47.9587" lon="4.18739">
        <ele>315.93</ele>
        <time>2021-08-10T21:04:36Z</time>
      </trkpt>
      <trkpt lat="47.95869" lon="4.18736">
        <ele>315.93</ele>
        <time>2021-08-10T21:04:37Z</time>
      </trkpt>
      <trkpt lat="47.95868" lon="4.18733">
        <ele>315.93</ele>
        <time>2021-08-10T21:04:38Z</time>
      </trkpt>
      <trkpt lat="47.95868" lon="4.18729">
        <ele>315.93</ele>
        <time>2021-08-10T21:04:39Z</time>
      </trkpt>
      <trkpt lat="47.95868" lon="4.18726">
        <ele>315.93</ele>
        <time>2021-08-10T21:04:40Z</time>
      </trkpt>
      <trkpt lat="47.95869" lon="4.18724">
        <ele>315.93</ele>
        <time>2021-08-10T21:04:41Z</time>
      </trkpt>
      <trkpt lat="47.95869" lon="4.18722">
        <ele>315.93</ele>
        <time>2021-08-10T21:04:42Z</time>
      </trkpt>
      <trkpt lat="47.9587" lon="4.1872">
        <ele>315.93</ele>
        <time>2021-08-10T21:04:43Z</time>
      </trkpt>
      <trkpt lat="47.9587" lon="4.18719">
        <ele>315.93</ele>
        <time>2021-08-10T21:04:44Z</time>
      </trkpt>
      <trkpt lat="47.95877" lon="4.18699">
        <ele>316.89</ele>
        <time>2021-08-10T21:04:53Z</time>
      </trkpt>
      <trkpt lat="47.95878" lon="4.18672">
        <ele>318.33</ele>
        <time>2021-08-10T21:05:03Z</time>
      </trkpt>
      <trkpt lat="47.95877" lon="4.18647">
        <ele>319.3</ele>
        <time>2021-08-10T21:05:12Z</time>
      </trkpt>
      <trkpt lat="47.95876" lon="4.18644">
        <ele>319.3</ele>
        <time>2021-08-10T21:05:13Z</time>
      </trkpt>
      <trkpt lat="47.95876" lon="4.18642">
        <ele>319.3</ele>
        <time>2021-08-10T21:05:14Z</time>
      </trkpt>
      <trkpt lat="47.95876" lon="4.18639">
        <ele>319.3</ele>
        <time>2021-08-10T21:05:15Z</time>
      </trkpt>
      <trkpt lat="47.95877" lon="4.18635">
        <ele>320.26</ele>
        <time>2021-08-10T21:05:16Z</time>
      </trkpt>
      <trkpt lat="47.95877" lon="4.18632">
        <ele>320.26</ele>
        <time>2021-08-10T21:05:17Z</time>
      </trkpt>
      <trkpt lat="47.9588" lon="4.18605">
        <ele>321.22</ele>
        <time>2021-08-10T21:05:26Z</time>
      </trkpt>
      <trkpt lat="47.95886" lon="4.1858">
        <ele>322.18</ele>
        <time>2021-08-10T21:05:35Z</time>
      </trkpt>
      <trkpt lat="47.9589" lon="4.18553">
        <ele>323.14</ele>
        <time>2021-08-10T21:05:44Z</time>
      </trkpt>
      <trkpt lat="47.95889" lon="4.18523">
        <ele>324.1</ele>
        <time>2021-08-10T21:05:52Z</time>
      </trkpt>
      <trkpt lat="47.95882" lon="4.18493">
        <ele>324.58</ele>
        <time>2021-08-10T21:06:00Z</time>
      </trkpt>
      <trkpt lat="47.95881" lon="4.1849">
        <ele>325.06</ele>
        <time>2021-08-10T21:06:05Z</time>
      </trkpt>
      <trkpt lat="47.95881" lon="4.18492">
        <ele>325.06</ele>
        <time>2021-08-10T21:06:22Z</time>
      </trkpt>
      <trkpt lat="47.95881" lon="4.18492">
        <ele>325.06</ele>
        <time>2021-08-10T21:06:37Z</time>
      </trkpt>
      <trkpt lat="47.95881" lon="4.18491">
        <ele>325.06</ele>
        <time>2021-08-10T21:06:49Z</time>
      </trkpt>
      <trkpt lat="47.95879" lon="4.18491">
        <ele>325.06</ele>
        <time>2021-08-10T21:07:13Z</time>
      </trkpt>
      <trkpt lat="47.9588" lon="4.18492">
        <ele>325.06</ele>
        <time>2021-08-10T21:07:31Z</time>
      </trkpt>
      <trkpt lat="47.95878" lon="4.1849">
        <ele>325.06</ele>
        <time>2021-08-10T21:07:44Z</time>
      </trkpt>
      <trkpt lat="47.95877" lon="4.18487">
        <ele>325.06</ele>
        <time>2021-08-10T21:07:45Z</time>
      </trkpt>
      <trkpt lat="47.95876" lon="4.18484">
        <ele>325.06</ele>
        <time>2021-08-10T21:07:46Z</time>
      </trkpt>
      <trkpt lat="47.9587" lon="4.18454">
        <ele>325.06</ele>
        <time>2021-08-10T21:07:53Z</time>
      </trkpt>
      <trkpt lat="47.95869" lon="4.18429">
        <ele>325.06</ele>
        <time>2021-08-10T21:08:00Z</time>
      </trkpt>
      <trkpt lat="47.95871" lon="4.1841">
        <ele>325.06</ele>
        <time>2021-08-10T21:08:06Z</time>
      </trkpt>
      <trkpt lat="47.95869" lon="4.1841">
        <ele>325.06</ele>
        <time>2021-08-10T21:08:07Z</time>
      </trkpt>
      <trkpt lat="47.95867" lon="4.18411">
        <ele>325.06</ele>
        <time>2021-08-10T21:08:08Z</time>
      </trkpt>
      <trkpt lat="47.95864" lon="4.18412">
        <ele>325.06</ele>
        <time>2021-08-10T21:08:09Z</time>
      </trkpt>
      <trkpt lat="47.95862" lon="4.18412">
        <ele>325.06</ele>
        <time>2021-08-10T21:08:10Z</time>
      </trkpt>
      <trkpt lat="47.95852" lon="4.18402">
        <ele>325.06</ele>
        <time>2021-08-10T21:08:15Z</time>
      </trkpt>
      <trkpt lat="47.95838" lon="4.18371">
        <ele>325.06</ele>
        <time>2021-08-10T21:08:22Z</time>
      </trkpt>
      <trkpt lat="47.95816" lon="4.18329">
        <ele>324.58</ele>
        <time>2021-08-10T21:08:30Z</time>
      </trkpt>
      <trkpt lat="47.95809" lon="4.18311">
        <ele>324.58</ele>
        <time>2021-08-10T21:08:33Z</time>
      </trkpt>
      <trkpt lat="47.95805" lon="4.18305">
        <ele>324.58</ele>
        <time>2021-08-10T21:08:34Z</time>
      </trkpt>
      <trkpt lat="47.9578" lon="4.18259">
        <ele>324.58</ele>
        <time>2021-08-10T21:08:42Z</time>
      </trkpt>
      <trkpt lat="47.95752" lon="4.18204">
        <ele>324.1</ele>
        <time>2021-08-10T21:08:51Z</time>
      </trkpt>
      <trkpt lat="47.95734" lon="4.18138">
        <ele>323.14</ele>
        <time>2021-08-10T21:09:01Z</time>
      </trkpt>
      <trkpt lat="47.95724" lon="4.18053">
        <ele>322.66</ele>
        <time>2021-08-10T21:09:13Z</time>
      </trkpt>
      <trkpt lat="47.95722" lon="4.17984">
        <ele>321.22</ele>
        <time>2021-08-10T21:09:21Z</time>
      </trkpt>
      <trkpt lat="47.95734" lon="4.17884">
        <ele>319.3</ele>
        <time>2021-08-10T21:09:31Z</time>
      </trkpt>
      <trkpt lat="47.95754" lon="4.17744">
        <ele>318.81</ele>
        <time>2021-08-10T21:09:45Z</time>
      </trkpt>
      <trkpt lat="47.95761" lon="4.17706">
        <ele>318.81</ele>
        <time>2021-08-10T21:09:49Z</time>
      </trkpt>
      <trkpt lat="47.95764" lon="4.17697">
        <ele>318.81</ele>
        <time>2021-08-10T21:09:50Z</time>
      </trkpt>
      <trkpt lat="47.95796" lon="4.17619">
        <ele>318.33</ele>
        <time>2021-08-10T21:10:00Z</time>
      </trkpt>
      <trkpt lat="47.95831" lon="4.17545">
        <ele>317.37</ele>
        <time>2021-08-10T21:10:10Z</time>
      </trkpt>
      <trkpt lat="47.9587" lon="4.17461">
        <ele>315.93</ele>
        <time>2021-08-10T21:10:20Z</time>
      </trkpt>
      <trkpt lat="47.95918" lon="4.17361">
        <ele>314.97</ele>
        <time>2021-08-10T21:10:32Z</time>
      </trkpt>
      <trkpt lat="47.95941" lon="4.1729">
        <ele>314.01</ele>
        <time>2021-08-10T21:10:40Z</time>
      </trkpt>
      <trkpt lat="47.95952" lon="4.17212">
        <ele>314.01</ele>
        <time>2021-08-10T21:10:48Z</time>
      </trkpt>
      <trkpt lat="47.95964" lon="4.17125">
        <ele>313.53</ele>
        <time>2021-08-10T21:10:57Z</time>
      </trkpt>
      <trkpt lat="47.95979" lon="4.17016">
        <ele>311.6</ele>
        <time>2021-08-10T21:11:08Z</time>
      </trkpt>
      <trkpt lat="47.95992" lon="4.16914">
        <ele>309.2</ele>
        <time>2021-08-10T21:11:18Z</time>
      </trkpt>
      <trkpt lat="47.96008" lon="4.16803">
        <ele>306.32</ele>
        <time>2021-08-10T21:11:28Z</time>
      </trkpt>
      <trkpt lat="47.96014" lon="4.16701">
        <ele>304.88</ele>
        <time>2021-08-10T21:11:37Z</time>
      </trkpt>
      <trkpt lat="47.96004" lon="4.16613">
        <ele>304.39</ele>
        <time>2021-08-10T21:11:45Z</time>
      </trkpt>
      <trkpt lat="47.96001" lon="4.16534">
        <ele>304.39</ele>
        <time>2021-08-10T21:11:53Z</time>
      </trkpt>
      <trkpt lat="47.96006" lon="4.16468">
        <ele>305.84</ele>
        <time>2021-08-10T21:12:01Z</time>
      </trkpt>
      <trkpt lat="47.96007" lon="4.16453">
        <ele>306.32</ele>
        <time>2021-08-10T21:12:03Z</time>
      </trkpt>
      <trkpt lat="47.96015" lon="4.1639">
        <ele>307.76</ele>
        <time>2021-08-10T21:12:12Z</time>
      </trkpt>
      <trkpt lat="47.96021" lon="4.16335">
        <ele>308.24</ele>
        <time>2021-08-10T21:12:21Z</time>
      </trkpt>
      <trkpt lat="47.96027" lon="4.1628">
        <ele>309.68</ele>
        <time>2021-08-10T21:12:31Z</time>
      </trkpt>
      <trkpt lat="47.96032" lon="4.16235">
        <ele>309.68</ele>
        <time>2021-08-10T21:12:39Z</time>
      </trkpt>
      <trkpt lat="47.96038" lon="4.16188">
        <ele>310.16</ele>
        <time>2021-08-10T21:12:47Z</time>
      </trkpt>
      <trkpt lat="47.96038" lon="4.16182">
        <ele>310.16</ele>
        <time>2021-08-10T21:12:48Z</time>
      </trkpt>
      <trkpt lat="47.96043" lon="4.16121">
        <ele>309.2</ele>
        <time>2021-08-10T21:12:57Z</time>
      </trkpt>
      <trkpt lat="47.96044" lon="4.16106">
        <ele>309.2</ele>
        <time>2021-08-10T21:12:59Z</time>
      </trkpt>
      <trkpt lat="47.96045" lon="4.16042">
        <ele>306.8</ele>
        <time>2021-08-10T21:13:06Z</time>
      </trkpt>
      <trkpt lat="47.96044" lon="4.15999">
        <ele>305.36</ele>
        <time>2021-08-10T21:13:10Z</time>
      </trkpt>
      <trkpt lat="47.96044" lon="4.15964">
        <ele>303.91</ele>
        <time>2021-08-10T21:13:13Z</time>
      </trkpt>
      <trkpt lat="47.96045" lon="4.15952">
        <ele>303.43</ele>
        <time>2021-08-10T21:13:14Z</time>
      </trkpt>
      <trkpt lat="47.96061" lon="4.15867">
        <ele>301.51</ele>
        <time>2021-08-10T21:13:21Z</time>
      </trkpt>
      <trkpt lat="47.96066" lon="4.15816">
        <ele>300.55</ele>
        <time>2021-08-10T21:13:25Z</time>
      </trkpt>
      <trkpt lat="47.96066" lon="4.15805">
        <ele>301.03</ele>
        <time>2021-08-10T21:13:26Z</time>
      </trkpt>
      <trkpt lat="47.96065" lon="4.15793">
        <ele>301.03</ele>
        <time>2021-08-10T21:13:27Z</time>
      </trkpt>
      <trkpt lat="47.96059" lon="4.15724">
        <ele>302.47</ele>
        <time>2021-08-10T21:13:34Z</time>
      </trkpt>
      <trkpt lat="47.96059" lon="4.15717">
        <ele>302.47</ele>
        <time>2021-08-10T21:13:35Z</time>
      </trkpt>
      <trkpt lat="47.96054" lon="4.15668">
        <ele>303.43</ele>
        <time>2021-08-10T21:13:42Z</time>
      </trkpt>
      <trkpt lat="47.9605" lon="4.15628">
        <ele>304.88</ele>
        <time>2021-08-10T21:13:49Z</time>
      </trkpt>
      <trkpt lat="47.96047" lon="4.15578">
        <ele>306.32</ele>
        <time>2021-08-10T21:13:58Z</time>
      </trkpt>
      <trkpt lat="47.96043" lon="4.15537">
        <ele>307.76</ele>
        <time>2021-08-10T21:14:06Z</time>
      </trkpt>
      <trkpt lat="47.96042" lon="4.15482">
        <ele>308.72</ele>
        <time>2021-08-10T21:14:16Z</time>
      </trkpt>
      <trkpt lat="47.96046" lon="4.15428">
        <ele>309.2</ele>
        <time>2021-08-10T21:14:26Z</time>
      </trkpt>
      <trkpt lat="47.96051" lon="4.15368">
        <ele>309.2</ele>
        <time>2021-08-10T21:14:35Z</time>
      </trkpt>
      <trkpt lat="47.96052" lon="4.15353">
        <ele>308.24</ele>
        <time>2021-08-10T21:14:37Z</time>
      </trkpt>
      <trkpt lat="47.96058" lon="4.15274">
        <ele>305.36</ele>
        <time>2021-08-10T21:14:46Z</time>
      </trkpt>
      <trkpt lat="47.96063" lon="4.15207">
        <ele>303.43</ele>
        <time>2021-08-10T21:14:52Z</time>
      </trkpt>
      <trkpt lat="47.96063" lon="4.1514">
        <ele>300.07</ele>
        <time>2021-08-10T21:14:57Z</time>
      </trkpt>
      <trkpt lat="47.9606" lon="4.15084">
        <ele>298.15</ele>
        <time>2021-08-10T21:15:01Z</time>
      </trkpt>
      <trkpt lat="47.96055" lon="4.15008">
        <ele>294.78</ele>
        <time>2021-08-10T21:15:06Z</time>
      </trkpt>
      <trkpt lat="47.96053" lon="4.14971">
        <ele>295.26</ele>
        <time>2021-08-10T21:15:09Z</time>
      </trkpt>
      <trkpt lat="47.96051" lon="4.14966">
        <ele>296.7</ele>
        <time>2021-08-10T21:15:10Z</time>
      </trkpt>
      <trkpt lat="47.96049" lon="4.14965">
        <ele>296.7</ele>
        <time>2021-08-10T21:15:11Z</time>
      </trkpt>
      <trkpt lat="47.96046" lon="4.14964">
        <ele>296.7</ele>
        <time>2021-08-10T21:15:12Z</time>
      </trkpt>
      <trkpt lat="47.96042" lon="4.14963">
        <ele>296.7</ele>
        <time>2021-08-10T21:15:13Z</time>
      </trkpt>
      <trkpt lat="47.96039" lon="4.14959">
        <ele>294.78</ele>
        <time>2021-08-10T21:15:14Z</time>
      </trkpt>
      <trkpt lat="47.96036" lon="4.14954">
        <ele>294.78</ele>
        <time>2021-08-10T21:15:15Z</time>
      </trkpt>
      <trkpt lat="47.96011" lon="4.14901">
        <ele>292.38</ele>
        <time>2021-08-10T21:15:22Z</time>
      </trkpt>
      <trkpt lat="47.95972" lon="4.14816">
        <ele>289.49</ele>
        <time>2021-08-10T21:15:31Z</time>
      </trkpt>
      <trkpt lat="47.95932" lon="4.14719">
        <ele>287.57</ele>
        <time>2021-08-10T21:15:41Z</time>
      </trkpt>
      <trkpt lat="47.95888" lon="4.14628">
        <ele>285.65</ele>
        <time>2021-08-10T21:15:51Z</time>
      </trkpt>
      <trkpt lat="47.95854" lon="4.14567">
        <ele>284.21</ele>
        <time>2021-08-10T21:15:58Z</time>
      </trkpt>
      <trkpt lat="47.95851" lon="4.14557">
        <ele>284.21</ele>
        <time>2021-08-10T21:15:59Z</time>
      </trkpt>
      <trkpt lat="47.95848" lon="4.14548">
        <ele>284.21</ele>
        <time>2021-08-10T21:16:00Z</time>
      </trkpt>
      <trkpt lat="47.95839" lon="4.14486">
        <ele>285.65</ele>
        <time>2021-08-10T21:16:07Z</time>
      </trkpt>
      <trkpt lat="47.95831" lon="4.14438">
        <ele>286.13</ele>
        <time>2021-08-10T21:16:14Z</time>
      </trkpt>
      <trkpt lat="47.95812" lon="4.1438">
        <ele>286.13</ele>
        <time>2021-08-10T21:16:22Z</time>
      </trkpt>
      <trkpt lat="47.95802" lon="4.14356">
        <ele>284.69</ele>
        <time>2021-08-10T21:16:25Z</time>
      </trkpt>
      <trkpt lat="47.95776" lon="4.14292">
        <ele>281.8</ele>
        <time>2021-08-10T21:16:32Z</time>
      </trkpt>
      <trkpt lat="47.95753" lon="4.14218">
        <ele>278.44</ele>
        <time>2021-08-10T21:16:39Z</time>
      </trkpt>
      <trkpt lat="47.9574" lon="4.14164">
        <ele>274.59</ele>
        <time>2021-08-10T21:16:44Z</time>
      </trkpt>
      <trkpt lat="47.95729" lon="4.14125">
        <ele>271.71</ele>
        <time>2021-08-10T21:16:48Z</time>
      </trkpt>
      <trkpt lat="47.95714" lon="4.14085">
        <ele>268.35</ele>
        <time>2021-08-10T21:16:53Z</time>
      </trkpt>
      <trkpt lat="47.95711" lon="4.14078">
        <ele>267.86</ele>
        <time>2021-08-10T21:16:54Z</time>
      </trkpt>
      <trkpt lat="47.95708" lon="4.14072">
        <ele>266.9</ele>
        <time>2021-08-10T21:16:55Z</time>
      </trkpt>
      <trkpt lat="47.95704" lon="4.14066">
        <ele>266.42</ele>
        <time>2021-08-10T21:16:56Z</time>
      </trkpt>
      <trkpt lat="47.957" lon="4.1406">
        <ele>265.46</ele>
        <time>2021-08-10T21:16:57Z</time>
      </trkpt>
      <trkpt lat="47.95696" lon="4.14055">
        <ele>264.98</ele>
        <time>2021-08-10T21:16:58Z</time>
      </trkpt>
      <trkpt lat="47.95683" lon="4.1404">
        <ele>261.62</ele>
        <time>2021-08-10T21:17:02Z</time>
      </trkpt>
      <trkpt lat="47.95678" lon="4.14036">
        <ele>260.65</ele>
        <time>2021-08-10T21:17:07Z</time>
      </trkpt>
      <trkpt lat="47.9568" lon="4.14039">
        <ele>260.65</ele>
        <time>2021-08-10T21:17:11Z</time>
      </trkpt>
      <trkpt lat="47.95686" lon="4.14043">
        <ele>262.1</ele>
        <time>2021-08-10T21:17:17Z</time>
      </trkpt>
      <trkpt lat="47.95693" lon="4.1405">
        <ele>263.54</ele>
        <time>2021-08-10T21:17:27Z</time>
      </trkpt>
      <trkpt lat="47.95694" lon="4.14049">
        <ele>263.54</ele>
        <time>2021-08-10T21:17:28Z</time>
      </trkpt>
      <trkpt lat="47.95694" lon="4.14048">
        <ele>263.54</ele>
        <time>2021-08-10T21:17:29Z</time>
      </trkpt>
      <trkpt lat="47.95698" lon="4.1404">
        <ele>264.5</ele>
        <time>2021-08-10T21:17:37Z</time>
      </trkpt>
      <trkpt lat="47.95697" lon="4.14039">
        <ele>264.5</ele>
        <time>2021-08-10T21:17:43Z</time>
      </trkpt>
      <trkpt lat="47.95697" lon="4.14037">
        <ele>264.5</ele>
        <time>2021-08-10T21:17:44Z</time>
      </trkpt>
      <trkpt lat="47.95696" lon="4.14035">
        <ele>264.5</ele>
        <time>2021-08-10T21:17:45Z</time>
      </trkpt>
      <trkpt lat="47.95688" lon="4.14014">
        <ele>263.06</ele>
        <time>2021-08-10T21:17:52Z</time>
      </trkpt>
      <trkpt lat="47.95678" lon="4.13986">
        <ele>260.65</ele>
        <time>2021-08-10T21:18:00Z</time>
      </trkpt>
      <trkpt lat="47.95675" lon="4.13976">
        <ele>259.69</ele>
        <time>2021-08-10T21:18:02Z</time>
      </trkpt>
      <trkpt lat="47.9567" lon="4.13937">
        <ele>257.29</ele>
        <time>2021-08-10T21:18:09Z</time>
      </trkpt>
      <trkpt lat="47.95663" lon="4.13912">
        <ele>254.89</ele>
        <time>2021-08-10T21:18:15Z</time>
      </trkpt>
      <trkpt lat="47.95657" lon="4.13889">
        <ele>252.48</ele>
        <time>2021-08-10T21:18:21Z</time>
      </trkpt>
      <trkpt lat="47.95663" lon="4.13856">
        <ele>248.64</ele>
        <time>2021-08-10T21:18:27Z</time>
      </trkpt>
      <trkpt lat="47.95665" lon="4.13846">
        <ele>247.68</ele>
        <time>2021-08-10T21:18:29Z</time>
      </trkpt>
      <trkpt lat="47.95665" lon="4.13832">
        <ele>245.75</ele>
        <time>2021-08-10T21:18:31Z</time>
      </trkpt>
      <trkpt lat="47.95666" lon="4.13817">
        <ele>244.31</ele>
        <time>2021-08-10T21:18:33Z</time>
      </trkpt>
      <trkpt lat="47.95668" lon="4.13771">
        <ele>239.51</ele>
        <time>2021-08-10T21:18:39Z</time>
      </trkpt>
      <trkpt lat="47.95666" lon="4.1374">
        <ele>237.1</ele>
        <time>2021-08-10T21:18:44Z</time>
      </trkpt>
      <trkpt lat="47.95655" lon="4.13715">
        <ele>233.74</ele>
        <time>2021-08-10T21:18:49Z</time>
      </trkpt>
      <trkpt lat="47.95642" lon="4.13692">
        <ele>230.37</ele>
        <time>2021-08-10T21:18:54Z</time>
      </trkpt>
      <trkpt lat="47.95634" lon="4.1368">
        <ele>228.93</ele>
        <time>2021-08-10T21:18:57Z</time>
      </trkpt>
      <trkpt lat="47.9562" lon="4.13654">
        <ele>226.05</ele>
        <time>2021-08-10T21:19:03Z</time>
      </trkpt>
      <trkpt lat="47.95618" lon="4.1365">
        <ele>226.05</ele>
        <time>2021-08-10T21:19:04Z</time>
      </trkpt>
      <trkpt lat="47.95617" lon="4.13643">
        <ele>225.09</ele>
        <time>2021-08-10T21:19:05Z</time>
      </trkpt>
      <trkpt lat="47.95615" lon="4.13589">
        <ele>222.2</ele>
        <time>2021-08-10T21:19:13Z</time>
      </trkpt>
      <trkpt lat="47.95624" lon="4.1354">
        <ele>221.24</ele>
        <time>2021-08-10T21:19:20Z</time>
      </trkpt>
      <trkpt lat="47.95639" lon="4.13484">
        <ele>220.28</ele>
        <time>2021-08-10T21:19:29Z</time>
      </trkpt>
      <trkpt lat="47.9564" lon="4.13478">
        <ele>220.28</ele>
        <time>2021-08-10T21:19:30Z</time>
      </trkpt>
      <trkpt lat="47.9564" lon="4.13472">
        <ele>220.28</ele>
        <time>2021-08-10T21:19:31Z</time>
      </trkpt>
      <trkpt lat="47.95639" lon="4.13467">
        <ele>220.28</ele>
        <time>2021-08-10T21:19:32Z</time>
      </trkpt>
      <trkpt lat="47.95636" lon="4.13462">
        <ele>219.8</ele>
        <time>2021-08-10T21:19:33Z</time>
      </trkpt>
      <trkpt lat="47.95632" lon="4.13458">
        <ele>219.32</ele>
        <time>2021-08-10T21:19:34Z</time>
      </trkpt>
      <trkpt lat="47.95627" lon="4.13453">
        <ele>218.36</ele>
        <time>2021-08-10T21:19:35Z</time>
      </trkpt>
      <trkpt lat="47.95621" lon="4.13448">
        <ele>218.36</ele>
        <time>2021-08-10T21:19:36Z</time>
      </trkpt>
      <trkpt lat="47.95596" lon="4.13426">
        <ele>215.95</ele>
        <time>2021-08-10T21:19:40Z</time>
      </trkpt>
      <trkpt lat="47.95567" lon="4.13409">
        <ele>214.51</ele>
        <time>2021-08-10T21:19:45Z</time>
      </trkpt>
      <trkpt lat="47.95564" lon="4.13406">
        <ele>214.51</ele>
        <time>2021-08-10T21:19:46Z</time>
      </trkpt>
      <trkpt lat="47.95562" lon="4.13401">
        <ele>214.51</ele>
        <time>2021-08-10T21:19:47Z</time>
      </trkpt>
      <trkpt lat="47.95562" lon="4.13396">
        <ele>214.51</ele>
        <time>2021-08-10T21:19:48Z</time>
      </trkpt>
      <trkpt lat="47.95562" lon="4.13391">
        <ele>214.51</ele>
        <time>2021-08-10T21:19:49Z</time>
      </trkpt>
      <trkpt lat="47.95564" lon="4.13386">
        <ele>214.51</ele>
        <time>2021-08-10T21:19:50Z</time>
      </trkpt>
      <trkpt lat="47.9558" lon="4.1333">
        <ele>214.03</ele>
        <time>2021-08-10T21:19:59Z</time>
      </trkpt>
      <trkpt lat="47.95582" lon="4.13324">
        <ele>214.03</ele>
        <time>2021-08-10T21:20:00Z</time>
      </trkpt>
      <trkpt lat="47.95602" lon="4.13287">
        <ele>214.03</ele>
        <time>2021-08-10T21:20:06Z</time>
      </trkpt>
      <trkpt lat="47.95606" lon="4.13282">
        <ele>214.03</ele>
        <time>2021-08-10T21:20:07Z</time>
      </trkpt>
      <trkpt lat="47.9561" lon="4.13277">
        <ele>214.03</ele>
        <time>2021-08-10T21:20:08Z</time>
      </trkpt>
      <trkpt lat="47.95614" lon="4.13274">
        <ele>214.03</ele>
        <time>2021-08-10T21:20:09Z</time>
      </trkpt>
      <trkpt lat="47.95619" lon="4.13272">
        <ele>214.03</ele>
        <time>2021-08-10T21:20:10Z</time>
      </trkpt>
      <trkpt lat="47.95624" lon="4.1327">
        <ele>214.03</ele>
        <time>2021-08-10T21:20:11Z</time>
      </trkpt>
      <trkpt lat="47.95629" lon="4.13268">
        <ele>214.03</ele>
        <time>2021-08-10T21:20:12Z</time>
      </trkpt>
      <trkpt lat="47.95634" lon="4.13265">
        <ele>214.03</ele>
        <time>2021-08-10T21:20:13Z</time>
      </trkpt>
      <trkpt lat="47.95638" lon="4.13261">
        <ele>214.03</ele>
        <time>2021-08-10T21:20:14Z</time>
      </trkpt>
      <trkpt lat="47.95642" lon="4.13256">
        <ele>214.03</ele>
        <time>2021-08-10T21:20:15Z</time>
      </trkpt>
      <trkpt lat="47.95646" lon="4.1325">
        <ele>214.03</ele>
        <time>2021-08-10T21:20:16Z</time>
      </trkpt>
      <trkpt lat="47.9565" lon="4.13245">
        <ele>214.03</ele>
        <time>2021-08-10T21:20:17Z</time>
      </trkpt>
      <trkpt lat="47.95653" lon="4.13239">
        <ele>214.03</ele>
        <time>2021-08-10T21:20:18Z</time>
      </trkpt>
      <trkpt lat="47.95678" lon="4.13184">
        <ele>213.55</ele>
        <time>2021-08-10T21:20:26Z</time>
      </trkpt>
      <trkpt lat="47.95706" lon="4.13113">
        <ele>212.11</ele>
        <time>2021-08-10T21:20:35Z</time>
      </trkpt>
      <trkpt lat="47.95716" lon="4.13093">
        <ele>212.11</ele>
        <time>2021-08-10T21:20:38Z</time>
      </trkpt>
      <trkpt lat="47.9572" lon="4.13087">
        <ele>212.11</ele>
        <time>2021-08-10T21:20:39Z</time>
      </trkpt>
      <trkpt lat="47.95743" lon="4.13063">
        <ele>212.11</ele>
        <time>2021-08-10T21:20:44Z</time>
      </trkpt>
      <trkpt lat="47.95782" lon="4.13008">
        <ele>212.11</ele>
        <time>2021-08-10T21:20:54Z</time>
      </trkpt>
      <trkpt lat="47.95789" lon="4.12997">
        <ele>213.55</ele>
        <time>2021-08-10T21:20:56Z</time>
      </trkpt>
      <trkpt lat="47.9581" lon="4.1295">
        <ele>214.03</ele>
        <time>2021-08-10T21:21:04Z</time>
      </trkpt>
      <trkpt lat="47.95816" lon="4.12931">
        <ele>214.51</ele>
        <time>2021-08-10T21:21:07Z</time>
      </trkpt>
      <trkpt lat="47.95835" lon="4.1287">
        <ele>214.99</ele>
        <time>2021-08-10T21:21:17Z</time>
      </trkpt>
      <trkpt lat="47.9584" lon="4.12841">
        <ele>214.99</ele>
        <time>2021-08-10T21:21:22Z</time>
      </trkpt>
      <trkpt lat="47.95838" lon="4.12836">
        <ele>214.99</ele>
        <time>2021-08-10T21:21:23Z</time>
      </trkpt>
      <trkpt lat="47.95834" lon="4.12832">
        <ele>214.99</ele>
        <time>2021-08-10T21:21:24Z</time>
      </trkpt>
      <trkpt lat="47.95813" lon="4.1281">
        <ele>211.15</ele>
        <time>2021-08-10T21:21:28Z</time>
      </trkpt>
      <trkpt lat="47.95787" lon="4.12783">
        <ele>211.15</ele>
        <time>2021-08-10T21:21:33Z</time>
      </trkpt>
      <trkpt lat="47.95783" lon="4.12777">
        <ele>211.15</ele>
        <time>2021-08-10T21:21:34Z</time>
      </trkpt>
      <trkpt lat="47.9578" lon="4.12769">
        <ele>211.15</ele>
        <time>2021-08-10T21:21:35Z</time>
      </trkpt>
      <trkpt lat="47.95777" lon="4.12761">
        <ele>211.15</ele>
        <time>2021-08-10T21:21:36Z</time>
      </trkpt>
      <trkpt lat="47.95776" lon="4.12754">
        <ele>211.15</ele>
        <time>2021-08-10T21:21:37Z</time>
      </trkpt>
      <trkpt lat="47.9576" lon="4.12695">
        <ele>211.15</ele>
        <time>2021-08-10T21:21:45Z</time>
      </trkpt>
      <trkpt lat="47.95752" lon="4.12675">
        <ele>211.15</ele>
        <time>2021-08-10T21:21:48Z</time>
      </trkpt>
      <trkpt lat="47.95742" lon="4.1262">
        <ele>211.63</ele>
        <time>2021-08-10T21:21:56Z</time>
      </trkpt>
      <trkpt lat="47.95741" lon="4.12599">
        <ele>212.59</ele>
        <time>2021-08-10T21:22:00Z</time>
      </trkpt>
      <trkpt lat="47.95737" lon="4.12574">
        <ele>214.03</ele>
        <time>2021-08-10T21:22:07Z</time>
      </trkpt>
      <trkpt lat="47.95736" lon="4.12554">
        <ele>214.99</ele>
        <time>2021-08-10T21:22:15Z</time>
      </trkpt>
      <trkpt lat="47.95735" lon="4.12538">
        <ele>215.95</ele>
        <time>2021-08-10T21:22:23Z</time>
      </trkpt>
      <trkpt lat="47.95734" lon="4.1252">
        <ele>217.4</ele>
        <time>2021-08-10T21:22:32Z</time>
      </trkpt>
      <trkpt lat="47.95733" lon="4.1251">
        <ele>217.88</ele>
        <time>2021-08-10T21:22:37Z</time>
      </trkpt>
      <trkpt lat="47.95733" lon="4.12508">
        <ele>218.36</ele>
        <time>2021-08-10T21:22:38Z</time>
      </trkpt>
      <trkpt lat="47.95733" lon="4.12506">
        <ele>218.36</ele>
        <time>2021-08-10T21:22:39Z</time>
      </trkpt>
      <trkpt lat="47.95732" lon="4.12491">
        <ele>219.32</ele>
        <time>2021-08-10T21:22:47Z</time>
      </trkpt>
      <trkpt lat="47.95731" lon="4.12479">
        <ele>220.28</ele>
        <time>2021-08-10T21:22:55Z</time>
      </trkpt>
      <trkpt lat="47.9573" lon="4.12465">
        <ele>221.72</ele>
        <time>2021-08-10T21:23:04Z</time>
      </trkpt>
      <trkpt lat="47.95729" lon="4.12448">
        <ele>222.68</ele>
        <time>2021-08-10T21:23:14Z</time>
      </trkpt>
      <trkpt lat="47.95729" lon="4.12432">
        <ele>224.12</ele>
        <time>2021-08-10T21:23:24Z</time>
      </trkpt>
      <trkpt lat="47.9573" lon="4.12416">
        <ele>225.57</ele>
        <time>2021-08-10T21:23:35Z</time>
      </trkpt>
      <trkpt lat="47.95731" lon="4.12401">
        <ele>227.01</ele>
        <time>2021-08-10T21:23:46Z</time>
      </trkpt>
      <trkpt lat="47.95731" lon="4.12395">
        <ele>227.49</ele>
        <time>2021-08-10T21:23:51Z</time>
      </trkpt>
      <trkpt lat="47.95732" lon="4.12384">
        <ele>228.93</ele>
        <time>2021-08-10T21:23:59Z</time>
      </trkpt>
      <trkpt lat="47.95733" lon="4.12372">
        <ele>229.89</ele>
        <time>2021-08-10T21:24:09Z</time>
      </trkpt>
      <trkpt lat="47.95732" lon="4.12362">
        <ele>231.33</ele>
        <time>2021-08-10T21:24:18Z</time>
      </trkpt>
      <trkpt lat="47.95732" lon="4.12353">
        <ele>232.3</ele>
        <time>2021-08-10T21:24:26Z</time>
      </trkpt>
      <trkpt lat="47.95731" lon="4.12339">
        <ele>234.22</ele>
        <time>2021-08-10T21:24:38Z</time>
      </trkpt>
      <trkpt lat="47.9573" lon="4.12328">
        <ele>235.18</ele>
        <time>2021-08-10T21:24:47Z</time>
      </trkpt>
      <trkpt lat="47.9573" lon="4.1232">
        <ele>236.14</ele>
        <time>2021-08-10T21:24:54Z</time>
      </trkpt>
      <trkpt lat="47.95729" lon="4.12311">
        <ele>237.58</ele>
        <time>2021-08-10T21:25:02Z</time>
      </trkpt>
      <trkpt lat="47.95729" lon="4.12303">
        <ele>238.54</ele>
        <time>2021-08-10T21:25:09Z</time>
      </trkpt>
      <trkpt lat="47.95729" lon="4.1229">
        <ele>239.99</ele>
        <time>2021-08-10T21:25:19Z</time>
      </trkpt>
      <trkpt lat="47.9573" lon="4.12279">
        <ele>241.43</ele>
        <time>2021-08-10T21:25:28Z</time>
      </trkpt>
      <trkpt lat="47.9573" lon="4.12262">
        <ele>242.87</ele>
        <time>2021-08-10T21:25:40Z</time>
      </trkpt>
      <trkpt lat="47.95729" lon="4.12255">
        <ele>243.83</ele>
        <time>2021-08-10T21:25:48Z</time>
      </trkpt>
      <trkpt lat="47.9573" lon="4.12254">
        <ele>243.83</ele>
        <time>2021-08-10T21:26:07Z</time>
      </trkpt>
      <trkpt lat="47.95729" lon="4.12254">
        <ele>243.83</ele>
        <time>2021-08-10T21:26:19Z</time>
      </trkpt>
      <trkpt lat="47.95728" lon="4.12238">
        <ele>245.27</ele>
        <time>2021-08-10T21:26:29Z</time>
      </trkpt>
      <trkpt lat="47.95727" lon="4.12221">
        <ele>246.72</ele>
        <time>2021-08-10T21:26:40Z</time>
      </trkpt>
      <trkpt lat="47.95727" lon="4.12204">
        <ele>248.16</ele>
        <time>2021-08-10T21:26:51Z</time>
      </trkpt>
      <trkpt lat="47.95728" lon="4.12204">
        <ele>248.16</ele>
        <time>2021-08-10T21:26:59Z</time>
      </trkpt>
      <trkpt lat="47.95727" lon="4.12197">
        <ele>248.64</ele>
        <time>2021-08-10T21:27:10Z</time>
      </trkpt>
      <trkpt lat="47.95726" lon="4.12178">
        <ele>250.08</ele>
        <time>2021-08-10T21:27:21Z</time>
      </trkpt>
      <trkpt lat="47.95724" lon="4.12157">
        <ele>252</ele>
        <time>2021-08-10T21:27:33Z</time>
      </trkpt>
      <trkpt lat="47.95721" lon="4.12142">
        <ele>253.44</ele>
        <time>2021-08-10T21:27:43Z</time>
      </trkpt>
      <trkpt lat="47.95721" lon="4.12139">
        <ele>253.93</ele>
        <time>2021-08-10T21:27:45Z</time>
      </trkpt>
      <trkpt lat="47.95721" lon="4.12137">
        <ele>253.93</ele>
        <time>2021-08-10T21:27:46Z</time>
      </trkpt>
      <trkpt lat="47.9572" lon="4.12136">
        <ele>253.93</ele>
        <time>2021-08-10T21:27:47Z</time>
      </trkpt>
      <trkpt lat="47.9572" lon="4.12134">
        <ele>253.93</ele>
        <time>2021-08-10T21:27:48Z</time>
      </trkpt>
      <trkpt lat="47.9572" lon="4.12132">
        <ele>254.41</ele>
        <time>2021-08-10T21:27:49Z</time>
      </trkpt>
      <trkpt lat="47.9572" lon="4.12131">
        <ele>254.41</ele>
        <time>2021-08-10T21:27:50Z</time>
      </trkpt>
      <trkpt lat="47.9572" lon="4.12129">
        <ele>254.41</ele>
        <time>2021-08-10T21:27:51Z</time>
      </trkpt>
      <trkpt lat="47.95718" lon="4.12119">
        <ele>254.89</ele>
        <time>2021-08-10T21:28:00Z</time>
      </trkpt>
      <trkpt lat="47.95717" lon="4.12113">
        <ele>255.37</ele>
        <time>2021-08-10T21:28:08Z</time>
      </trkpt>
      <trkpt lat="47.95714" lon="4.12091">
        <ele>256.33</ele>
        <time>2021-08-10T21:28:18Z</time>
      </trkpt>
      <trkpt lat="47.95704" lon="4.12073">
        <ele>257.29</ele>
        <time>2021-08-10T21:28:27Z</time>
      </trkpt>
      <trkpt lat="47.95702" lon="4.12072">
        <ele>257.29</ele>
        <time>2021-08-10T21:28:28Z</time>
      </trkpt>
      <trkpt lat="47.95685" lon="4.12073">
        <ele>257.29</ele>
        <time>2021-08-10T21:28:36Z</time>
      </trkpt>
      <trkpt lat="47.95669" lon="4.12067">
        <ele>257.29</ele>
        <time>2021-08-10T21:28:43Z</time>
      </trkpt>
      <trkpt lat="47.95664" lon="4.12044">
        <ele>257.29</ele>
        <time>2021-08-10T21:28:49Z</time>
      </trkpt>
      <trkpt lat="47.95662" lon="4.11998">
        <ele>257.77</ele>
        <time>2021-08-10T21:28:59Z</time>
      </trkpt>
      <trkpt lat="47.95658" lon="4.11948">
        <ele>258.73</ele>
        <time>2021-08-10T21:29:10Z</time>
      </trkpt>
      <trkpt lat="47.95652" lon="4.11901">
        <ele>259.21</ele>
        <time>2021-08-10T21:29:20Z</time>
      </trkpt>
      <trkpt lat="47.95643" lon="4.11853">
        <ele>260.17</ele>
        <time>2021-08-10T21:29:30Z</time>
      </trkpt>
      <trkpt lat="47.95631" lon="4.11801">
        <ele>260.65</ele>
        <time>2021-08-10T21:29:40Z</time>
      </trkpt>
      <trkpt lat="47.95617" lon="4.1176">
        <ele>260.65</ele>
        <time>2021-08-10T21:29:48Z</time>
      </trkpt>
      <trkpt lat="47.95587" lon="4.11697">
        <ele>260.65</ele>
        <time>2021-08-10T21:29:59Z</time>
      </trkpt>
      <trkpt lat="47.95559" lon="4.11636">
        <ele>260.65</ele>
        <time>2021-08-10T21:30:09Z</time>
      </trkpt>
      <trkpt lat="47.95544" lon="4.1161">
        <ele>260.65</ele>
        <time>2021-08-10T21:30:15Z</time>
      </trkpt>
      <trkpt lat="47.95527" lon="4.11588">
        <ele>260.65</ele>
        <time>2021-08-10T21:30:22Z</time>
      </trkpt>
      <trkpt lat="47.95502" lon="4.11552">
        <ele>259.69</ele>
        <time>2021-08-10T21:30:31Z</time>
      </trkpt>
      <trkpt lat="47.95476" lon="4.115">
        <ele>259.69</ele>
        <time>2021-08-10T21:30:42Z</time>
      </trkpt>
      <trkpt lat="47.95455" lon="4.11452">
        <ele>259.69</ele>
        <time>2021-08-10T21:30:52Z</time>
      </trkpt>
      <trkpt lat="47.95442" lon="4.11423">
        <ele>261.14</ele>
        <time>2021-08-10T21:30:58Z</time>
      </trkpt>
      <trkpt lat="47.95427" lon="4.11387">
        <ele>261.62</ele>
        <time>2021-08-10T21:31:06Z</time>
      </trkpt>
      <trkpt lat="47.9541" lon="4.11348">
        <ele>262.58</ele>
        <time>2021-08-10T21:31:16Z</time>
      </trkpt>
      <trkpt lat="47.9539" lon="4.11304">
        <ele>263.06</ele>
        <time>2021-08-10T21:31:26Z</time>
      </trkpt>
      <trkpt lat="47.95363" lon="4.11256">
        <ele>263.06</ele>
        <time>2021-08-10T21:31:37Z</time>
      </trkpt>
      <trkpt lat="47.95328" lon="4.11212">
        <ele>263.06</ele>
        <time>2021-08-10T21:31:48Z</time>
      </trkpt>
      <trkpt lat="47.95301" lon="4.1118">
        <ele>263.06</ele>
        <time>2021-08-10T21:31:56Z</time>
      </trkpt>
      <trkpt lat="47.95279" lon="4.11143">
        <ele>263.54</ele>
        <time>2021-08-10T21:32:04Z</time>
      </trkpt>
      <trkpt lat="47.95267" lon="4.11121">
        <ele>265.46</ele>
        <time>2021-08-10T21:32:11Z</time>
      </trkpt>
      <trkpt lat="47.95253" lon="4.11095">
        <ele>266.42</ele>
        <time>2021-08-10T21:32:21Z</time>
      </trkpt>
      <trkpt lat="47.95242" lon="4.11074">
        <ele>267.86</ele>
        <time>2021-08-10T21:32:30Z</time>
      </trkpt>
      <trkpt lat="47.95228" lon="4.11049">
        <ele>269.79</ele>
        <time>2021-08-10T21:32:42Z</time>
      </trkpt>
      <trkpt lat="47.95218" lon="4.1103">
        <ele>271.71</ele>
        <time>2021-08-10T21:32:52Z</time>
      </trkpt>
      <trkpt lat="47.95208" lon="4.11011">
        <ele>273.15</ele>
        <time>2021-08-10T21:33:03Z</time>
      </trkpt>
      <trkpt lat="47.95199" lon="4.10994">
        <ele>274.11</ele>
        <time>2021-08-10T21:33:13Z</time>
      </trkpt>
      <trkpt lat="47.95198" lon="4.10993">
        <ele>275.07</ele>
        <time>2021-08-10T21:33:14Z</time>
      </trkpt>
      <trkpt lat="47.95197" lon="4.10991">
        <ele>275.07</ele>
        <time>2021-08-10T21:33:15Z</time>
      </trkpt>
      <trkpt lat="47.95196" lon="4.10989">
        <ele>275.07</ele>
        <time>2021-08-10T21:33:16Z</time>
      </trkpt>
      <trkpt lat="47.95195" lon="4.10988">
        <ele>275.07</ele>
        <time>2021-08-10T21:33:17Z</time>
      </trkpt>
      <trkpt lat="47.95194" lon="4.10986">
        <ele>275.56</ele>
        <time>2021-08-10T21:33:18Z</time>
      </trkpt>
      <trkpt lat="47.95186" lon="4.10971">
        <ele>276.52</ele>
        <time>2021-08-10T21:33:27Z</time>
      </trkpt>
      <trkpt lat="47.95184" lon="4.10968">
        <ele>277</ele>
        <time>2021-08-10T21:33:29Z</time>
      </trkpt>
      <trkpt lat="47.95184" lon="4.10967">
        <ele>277</ele>
        <time>2021-08-10T21:33:30Z</time>
      </trkpt>
      <trkpt lat="47.95176" lon="4.10952">
        <ele>278.92</ele>
        <time>2021-08-10T21:33:39Z</time>
      </trkpt>
      <trkpt lat="47.95165" lon="4.10934">
        <ele>279.88</ele>
        <time>2021-08-10T21:33:50Z</time>
      </trkpt>
      <trkpt lat="47.95156" lon="4.10918">
        <ele>281.32</ele>
        <time>2021-08-10T21:34:00Z</time>
      </trkpt>
      <trkpt lat="47.95148" lon="4.10902">
        <ele>282.77</ele>
        <time>2021-08-10T21:34:09Z</time>
      </trkpt>
      <trkpt lat="47.95138" lon="4.10883">
        <ele>283.73</ele>
        <time>2021-08-10T21:34:19Z</time>
      </trkpt>
      <trkpt lat="47.95128" lon="4.10865">
        <ele>285.17</ele>
        <time>2021-08-10T21:34:27Z</time>
      </trkpt>
      <trkpt lat="47.95111" lon="4.10842">
        <ele>286.13</ele>
        <time>2021-08-10T21:34:37Z</time>
      </trkpt>
      <trkpt lat="47.95099" lon="4.10851">
        <ele>286.13</ele>
        <time>2021-08-10T21:34:43Z</time>
      </trkpt>
      <trkpt lat="47.95081" lon="4.10871">
        <ele>286.13</ele>
        <time>2021-08-10T21:34:51Z</time>
      </trkpt>
      <trkpt lat="47.95063" lon="4.10897">
        <ele>286.13</ele>
        <time>2021-08-10T21:34:59Z</time>
      </trkpt>
      <trkpt lat="47.95044" lon="4.10919">
        <ele>286.61</ele>
        <time>2021-08-10T21:35:06Z</time>
      </trkpt>
      <trkpt lat="47.95023" lon="4.10946">
        <ele>287.09</ele>
        <time>2021-08-10T21:35:14Z</time>
      </trkpt>
      <trkpt lat="47.9501" lon="4.10962">
        <ele>287.57</ele>
        <time>2021-08-10T21:35:19Z</time>
      </trkpt>
      <trkpt lat="47.94995" lon="4.10985">
        <ele>288.05</ele>
        <time>2021-08-10T21:35:25Z</time>
      </trkpt>
      <trkpt lat="47.94976" lon="4.11021">
        <ele>288.53</ele>
        <time>2021-08-10T21:35:34Z</time>
      </trkpt>
      <trkpt lat="47.94966" lon="4.11054">
        <ele>289.49</ele>
        <time>2021-08-10T21:35:42Z</time>
      </trkpt>
      <trkpt lat="47.94961" lon="4.11069">
        <ele>289.49</ele>
        <time>2021-08-10T21:35:47Z</time>
      </trkpt>
      <trkpt lat="47.94957" lon="4.11069">
        <ele>289.97</ele>
        <time>2021-08-10T21:35:48Z</time>
      </trkpt>
      <trkpt lat="47.94955" lon="4.11067">
        <ele>289.97</ele>
        <time>2021-08-10T21:35:49Z</time>
      </trkpt>
      <trkpt lat="47.94953" lon="4.11064">
        <ele>289.97</ele>
        <time>2021-08-10T21:35:50Z</time>
      </trkpt>
      <trkpt lat="47.94953" lon="4.1106">
        <ele>290.46</ele>
        <time>2021-08-10T21:35:51Z</time>
      </trkpt>
      <trkpt lat="47.94952" lon="4.11056">
        <ele>290.46</ele>
        <time>2021-08-10T21:35:52Z</time>
      </trkpt>
      <trkpt lat="47.94952" lon="4.11054">
        <ele>290.46</ele>
        <time>2021-08-10T21:35:53Z</time>
      </trkpt>
      <trkpt lat="47.94951" lon="4.11051">
        <ele>290.46</ele>
        <time>2021-08-10T21:35:54Z</time>
      </trkpt>
      <trkpt lat="47.94943" lon="4.11022">
        <ele>290.46</ele>
        <time>2021-08-10T21:36:01Z</time>
      </trkpt>
      <trkpt lat="47.94933" lon="4.10993">
        <ele>289.01</ele>
        <time>2021-08-10T21:36:06Z</time>
      </trkpt>
      <trkpt lat="47.94912" lon="4.10935">
        <ele>288.05</ele>
        <time>2021-08-10T21:36:15Z</time>
      </trkpt>
      <trkpt lat="47.94887" lon="4.10863">
        <ele>285.17</ele>
        <time>2021-08-10T21:36:24Z</time>
      </trkpt>
      <trkpt lat="47.94852" lon="4.10769">
        <ele>281.8</ele>
        <time>2021-08-10T21:36:34Z</time>
      </trkpt>
      <trkpt lat="47.94837" lon="4.10727">
        <ele>280.36</ele>
        <time>2021-08-10T21:36:38Z</time>
      </trkpt>
      <trkpt lat="47.94809" lon="4.10648">
        <ele>276.52</ele>
        <time>2021-08-10T21:36:46Z</time>
      </trkpt>
      <trkpt lat="47.94788" lon="4.1059">
        <ele>273.15</ele>
        <time>2021-08-10T21:36:52Z</time>
      </trkpt>
      <trkpt lat="47.94774" lon="4.10551">
        <ele>271.23</ele>
        <time>2021-08-10T21:36:56Z</time>
      </trkpt>
      <trkpt lat="47.94759" lon="4.10514">
        <ele>267.86</ele>
        <time>2021-08-10T21:37:00Z</time>
      </trkpt>
      <trkpt lat="47.94744" lon="4.10474">
        <ele>265.46</ele>
        <time>2021-08-10T21:37:04Z</time>
      </trkpt>
      <trkpt lat="47.94728" lon="4.10424">
        <ele>262.1</ele>
        <time>2021-08-10T21:37:09Z</time>
      </trkpt>
      <trkpt lat="47.94712" lon="4.10373">
        <ele>258.73</ele>
        <time>2021-08-10T21:37:14Z</time>
      </trkpt>
      <trkpt lat="47.94706" lon="4.10354">
        <ele>257.29</ele>
        <time>2021-08-10T21:37:16Z</time>
      </trkpt>
      <trkpt lat="47.94694" lon="4.10324">
        <ele>255.37</ele>
        <time>2021-08-10T21:37:19Z</time>
      </trkpt>
      <trkpt lat="47.94667" lon="4.10286">
        <ele>252.48</ele>
        <time>2021-08-10T21:37:24Z</time>
      </trkpt>
      <trkpt lat="47.94663" lon="4.10281">
        <ele>252.48</ele>
        <time>2021-08-10T21:37:25Z</time>
      </trkpt>
      <trkpt lat="47.94653" lon="4.10272">
        <ele>251.52</ele>
        <time>2021-08-10T21:37:28Z</time>
      </trkpt>
      <trkpt lat="47.94629" lon="4.10227">
        <ele>250.08</ele>
        <time>2021-08-10T21:37:36Z</time>
      </trkpt>
      <trkpt lat="47.94613" lon="4.10202">
        <ele>250.08</ele>
        <time>2021-08-10T21:37:43Z</time>
      </trkpt>
      <trkpt lat="47.94607" lon="4.10194">
        <ele>251.52</ele>
        <time>2021-08-10T21:37:47Z</time>
      </trkpt>
      <trkpt lat="47.94598" lon="4.1018">
        <ele>252.48</ele>
        <time>2021-08-10T21:37:54Z</time>
      </trkpt>
      <trkpt lat="47.94587" lon="4.10166">
        <ele>253.44</ele>
        <time>2021-08-10T21:38:02Z</time>
      </trkpt>
      <trkpt lat="47.94575" lon="4.10149">
        <ele>254.41</ele>
        <time>2021-08-10T21:38:11Z</time>
      </trkpt>
      <trkpt lat="47.94564" lon="4.10136">
        <ele>254.89</ele>
        <time>2021-08-10T21:38:19Z</time>
      </trkpt>
      <trkpt lat="47.94552" lon="4.10121">
        <ele>255.85</ele>
        <time>2021-08-10T21:38:28Z</time>
      </trkpt>
      <trkpt lat="47.94538" lon="4.10101">
        <ele>257.29</ele>
        <time>2021-08-10T21:38:39Z</time>
      </trkpt>
      <trkpt lat="47.94526" lon="4.10084">
        <ele>258.25</ele>
        <time>2021-08-10T21:38:49Z</time>
      </trkpt>
      <trkpt lat="47.94518" lon="4.10069">
        <ele>258.73</ele>
        <time>2021-08-10T21:38:57Z</time>
      </trkpt>
      <trkpt lat="47.9451" lon="4.10053">
        <ele>259.69</ele>
        <time>2021-08-10T21:39:05Z</time>
      </trkpt>
      <trkpt lat="47.945" lon="4.10033">
        <ele>260.17</ele>
        <time>2021-08-10T21:39:14Z</time>
      </trkpt>
      <trkpt lat="47.94488" lon="4.10016">
        <ele>260.65</ele>
        <time>2021-08-10T21:39:23Z</time>
      </trkpt>
      <trkpt lat="47.94473" lon="4.10001">
        <ele>261.62</ele>
        <time>2021-08-10T21:39:33Z</time>
      </trkpt>
      <trkpt lat="47.94456" lon="4.09989">
        <ele>262.58</ele>
        <time>2021-08-10T21:39:43Z</time>
      </trkpt>
      <trkpt lat="47.94443" lon="4.09981">
        <ele>263.54</ele>
        <time>2021-08-10T21:39:52Z</time>
      </trkpt>
      <trkpt lat="47.94431" lon="4.0997">
        <ele>264.02</ele>
        <time>2021-08-10T21:40:00Z</time>
      </trkpt>
      <trkpt lat="47.94419" lon="4.09963">
        <ele>264.5</ele>
        <time>2021-08-10T21:40:07Z</time>
      </trkpt>
      <trkpt lat="47.94405" lon="4.09949">
        <ele>264.98</ele>
        <time>2021-08-10T21:40:16Z</time>
      </trkpt>
      <trkpt lat="47.94396" lon="4.09942">
        <ele>264.98</ele>
        <time>2021-08-10T21:40:21Z</time>
      </trkpt>
      <trkpt lat="47.94394" lon="4.09941">
        <ele>264.98</ele>
        <time>2021-08-10T21:40:22Z</time>
      </trkpt>
      <trkpt lat="47.94393" lon="4.0994">
        <ele>264.98</ele>
        <time>2021-08-10T21:40:23Z</time>
      </trkpt>
      <trkpt lat="47.94391" lon="4.09939">
        <ele>264.98</ele>
        <time>2021-08-10T21:40:24Z</time>
      </trkpt>
      <trkpt lat="47.94389" lon="4.09937">
        <ele>264.98</ele>
        <time>2021-08-10T21:40:25Z</time>
      </trkpt>
      <trkpt lat="47.94388" lon="4.09936">
        <ele>265.46</ele>
        <time>2021-08-10T21:40:26Z</time>
      </trkpt>
      <trkpt lat="47.94386" lon="4.09935">
        <ele>265.46</ele>
        <time>2021-08-10T21:40:27Z</time>
      </trkpt>
      <trkpt lat="47.94385" lon="4.09934">
        <ele>265.46</ele>
        <time>2021-08-10T21:40:28Z</time>
      </trkpt>
      <trkpt lat="47.94384" lon="4.09933">
        <ele>265.46</ele>
        <time>2021-08-10T21:40:29Z</time>
      </trkpt>
      <trkpt lat="47.94382" lon="4.09932">
        <ele>265.46</ele>
        <time>2021-08-10T21:40:30Z</time>
      </trkpt>
      <trkpt lat="47.94381" lon="4.0993">
        <ele>265.46</ele>
        <time>2021-08-10T21:40:31Z</time>
      </trkpt>
      <trkpt lat="47.94379" lon="4.09929">
        <ele>265.46</ele>
        <time>2021-08-10T21:40:32Z</time>
      </trkpt>
      <trkpt lat="47.94378" lon="4.09927">
        <ele>265.94</ele>
        <time>2021-08-10T21:40:33Z</time>
      </trkpt>
      <trkpt lat="47.94362" lon="4.09911">
        <ele>265.94</ele>
        <time>2021-08-10T21:40:42Z</time>
      </trkpt>
      <trkpt lat="47.94346" lon="4.09894">
        <ele>266.42</ele>
        <time>2021-08-10T21:40:51Z</time>
      </trkpt>
      <trkpt lat="47.94328" lon="4.09869">
        <ele>266.9</ele>
        <time>2021-08-10T21:41:01Z</time>
      </trkpt>
      <trkpt lat="47.94314" lon="4.09845">
        <ele>266.9</ele>
        <time>2021-08-10T21:41:09Z</time>
      </trkpt>
      <trkpt lat="47.94296" lon="4.09814">
        <ele>266.9</ele>
        <time>2021-08-10T21:41:21Z</time>
      </trkpt>
      <trkpt lat="47.94284" lon="4.09796">
        <ele>268.35</ele>
        <time>2021-08-10T21:41:30Z</time>
      </trkpt>
      <trkpt lat="47.94276" lon="4.0978">
        <ele>268.83</ele>
        <time>2021-08-10T21:41:38Z</time>
      </trkpt>
      <trkpt lat="47.94262" lon="4.09762">
        <ele>270.75</ele>
        <time>2021-08-10T21:41:49Z</time>
      </trkpt>
      <trkpt lat="47.94246" lon="4.09746">
        <ele>271.71</ele>
        <time>2021-08-10T21:42:00Z</time>
      </trkpt>
      <trkpt lat="47.94227" lon="4.09734">
        <ele>272.19</ele>
        <time>2021-08-10T21:42:10Z</time>
      </trkpt>
      <trkpt lat="47.94204" lon="4.09723">
        <ele>273.63</ele>
        <time>2021-08-10T21:42:22Z</time>
      </trkpt>
      <trkpt lat="47.94185" lon="4.09711">
        <ele>274.59</ele>
        <time>2021-08-10T21:42:32Z</time>
      </trkpt>
      <trkpt lat="47.94164" lon="4.09692">
        <ele>275.07</ele>
        <time>2021-08-10T21:42:43Z</time>
      </trkpt>
      <trkpt lat="47.94147" lon="4.09676">
        <ele>274.59</ele>
        <time>2021-08-10T21:42:52Z</time>
      </trkpt>
      <trkpt lat="47.94126" lon="4.09658">
        <ele>275.56</ele>
        <time>2021-08-10T21:43:03Z</time>
      </trkpt>
      <trkpt lat="47.94105" lon="4.09639">
        <ele>277</ele>
        <time>2021-08-10T21:43:16Z</time>
      </trkpt>
      <trkpt lat="47.94087" lon="4.09624">
        <ele>277.96</ele>
        <time>2021-08-10T21:43:27Z</time>
      </trkpt>
      <trkpt lat="47.94079" lon="4.09617">
        <ele>277.96</ele>
        <time>2021-08-10T21:43:32Z</time>
      </trkpt>
      <trkpt lat="47.94078" lon="4.09615">
        <ele>277.96</ele>
        <time>2021-08-10T21:43:33Z</time>
      </trkpt>
      <trkpt lat="47.94076" lon="4.09614">
        <ele>278.44</ele>
        <time>2021-08-10T21:43:34Z</time>
      </trkpt>
      <trkpt lat="47.94059" lon="4.09598">
        <ele>279.4</ele>
        <time>2021-08-10T21:43:45Z</time>
      </trkpt>
      <trkpt lat="47.94048" lon="4.09589">
        <ele>280.36</ele>
        <time>2021-08-10T21:43:52Z</time>
      </trkpt>
      <trkpt lat="47.94028" lon="4.09571">
        <ele>281.32</ele>
        <time>2021-08-10T21:44:05Z</time>
      </trkpt>
      <trkpt lat="47.94014" lon="4.0956">
        <ele>282.28</ele>
        <time>2021-08-10T21:44:14Z</time>
      </trkpt>
      <trkpt lat="47.94005" lon="4.09551">
        <ele>283.25</ele>
        <time>2021-08-10T21:44:21Z</time>
      </trkpt>
      <trkpt lat="47.93992" lon="4.09539">
        <ele>284.69</ele>
        <time>2021-08-10T21:44:30Z</time>
      </trkpt>
      <trkpt lat="47.9398" lon="4.09529">
        <ele>285.65</ele>
        <time>2021-08-10T21:44:38Z</time>
      </trkpt>
      <trkpt lat="47.9397" lon="4.0952">
        <ele>287.09</ele>
        <time>2021-08-10T21:44:45Z</time>
      </trkpt>
      <trkpt lat="47.93961" lon="4.09512">
        <ele>288.05</ele>
        <time>2021-08-10T21:44:52Z</time>
      </trkpt>
      <trkpt lat="47.93954" lon="4.09508">
        <ele>289.01</ele>
        <time>2021-08-10T21:44:59Z</time>
      </trkpt>
      <trkpt lat="47.93946" lon="4.095">
        <ele>289.97</ele>
        <time>2021-08-10T21:45:08Z</time>
      </trkpt>
      <trkpt lat="47.93947" lon="4.095">
        <ele>289.97</ele>
        <time>2021-08-10T21:45:29Z</time>
      </trkpt>
      <trkpt lat="47.93941" lon="4.09495">
        <ele>289.97</ele>
        <time>2021-08-10T21:45:36Z</time>
      </trkpt>
      <trkpt lat="47.93938" lon="4.09492">
        <ele>290.46</ele>
        <time>2021-08-10T21:45:42Z</time>
      </trkpt>
      <trkpt lat="47.93937" lon="4.09491">
        <ele>290.46</ele>
        <time>2021-08-10T21:45:45Z</time>
      </trkpt>
      <trkpt lat="47.93936" lon="4.0949">
        <ele>290.46</ele>
        <time>2021-08-10T21:45:46Z</time>
      </trkpt>
      <trkpt lat="47.93935" lon="4.09489">
        <ele>290.46</ele>
        <time>2021-08-10T21:45:47Z</time>
      </trkpt>
      <trkpt lat="47.93921" lon="4.09478">
        <ele>291.42</ele>
        <time>2021-08-10T21:45:55Z</time>
      </trkpt>
      <trkpt lat="47.93902" lon="4.09461">
        <ele>293.34</ele>
        <time>2021-08-10T21:46:06Z</time>
      </trkpt>
      <trkpt lat="47.93899" lon="4.09457">
        <ele>293.82</ele>
        <time>2021-08-10T21:46:08Z</time>
      </trkpt>
      <trkpt lat="47.939" lon="4.09454">
        <ele>293.82</ele>
        <time>2021-08-10T21:46:09Z</time>
      </trkpt>
      <trkpt lat="47.93901" lon="4.09452">
        <ele>293.82</ele>
        <time>2021-08-10T21:46:10Z</time>
      </trkpt>
      <trkpt lat="47.93912" lon="4.09426">
        <ele>293.82</ele>
        <time>2021-08-10T21:46:17Z</time>
      </trkpt>
      <trkpt lat="47.93925" lon="4.09391">
        <ele>292.38</ele>
        <time>2021-08-10T21:46:24Z</time>
      </trkpt>
      <trkpt lat="47.93947" lon="4.09325">
        <ele>291.9</ele>
        <time>2021-08-10T21:46:35Z</time>
      </trkpt>
      <trkpt lat="47.93964" lon="4.09278">
        <ele>291.42</ele>
        <time>2021-08-10T21:46:43Z</time>
      </trkpt>
      <trkpt lat="47.93967" lon="4.09274">
        <ele>291.42</ele>
        <time>2021-08-10T21:46:44Z</time>
      </trkpt>
      <trkpt lat="47.9397" lon="4.0927">
        <ele>291.42</ele>
        <time>2021-08-10T21:46:45Z</time>
      </trkpt>
      <trkpt lat="47.93974" lon="4.09268">
        <ele>291.42</ele>
        <time>2021-08-10T21:46:46Z</time>
      </trkpt>
      <trkpt lat="47.93977" lon="4.09266">
        <ele>291.42</ele>
        <time>2021-08-10T21:46:47Z</time>
      </trkpt>
      <trkpt lat="47.93982" lon="4.09265">
        <ele>291.42</ele>
        <time>2021-08-10T21:46:48Z</time>
      </trkpt>
      <trkpt lat="47.93986" lon="4.09266">
        <ele>291.42</ele>
        <time>2021-08-10T21:46:49Z</time>
      </trkpt>
      <trkpt lat="47.9399" lon="4.09266">
        <ele>291.42</ele>
        <time>2021-08-10T21:46:50Z</time>
      </trkpt>
      <trkpt lat="47.94032" lon="4.09269">
        <ele>290.46</ele>
        <time>2021-08-10T21:46:59Z</time>
      </trkpt>
      <trkpt lat="47.94087" lon="4.09271">
        <ele>289.49</ele>
        <time>2021-08-10T21:47:10Z</time>
      </trkpt>
      <trkpt lat="47.94143" lon="4.09275">
        <ele>288.53</ele>
        <time>2021-08-10T21:47:22Z</time>
      </trkpt>
      <trkpt lat="47.94151" lon="4.09275">
        <ele>288.53</ele>
        <time>2021-08-10T21:47:24Z</time>
      </trkpt>
      <trkpt lat="47.94155" lon="4.09272">
        <ele>288.53</ele>
        <time>2021-08-10T21:47:25Z</time>
      </trkpt>
      <trkpt lat="47.94159" lon="4.09268">
        <ele>288.53</ele>
        <time>2021-08-10T21:47:26Z</time>
      </trkpt>
      <trkpt lat="47.9416" lon="4.09264">
        <ele>288.53</ele>
        <time>2021-08-10T21:47:27Z</time>
      </trkpt>
      <trkpt lat="47.94162" lon="4.09258">
        <ele>288.53</ele>
        <time>2021-08-10T21:47:28Z</time>
      </trkpt>
      <trkpt lat="47.94163" lon="4.09252">
        <ele>288.53</ele>
        <time>2021-08-10T21:47:29Z</time>
      </trkpt>
      <trkpt lat="47.94177" lon="4.09186">
        <ele>288.05</ele>
        <time>2021-08-10T21:47:40Z</time>
      </trkpt>
      <trkpt lat="47.94189" lon="4.09126">
        <ele>287.57</ele>
        <time>2021-08-10T21:47:49Z</time>
      </trkpt>
      <trkpt lat="47.94201" lon="4.09067">
        <ele>287.09</ele>
        <time>2021-08-10T21:47:59Z</time>
      </trkpt>
      <trkpt lat="47.94206" lon="4.09043">
        <ele>286.61</ele>
        <time>2021-08-10T21:48:03Z</time>
      </trkpt>
      <trkpt lat="47.94207" lon="4.09037">
        <ele>286.61</ele>
        <time>2021-08-10T21:48:04Z</time>
      </trkpt>
      <trkpt lat="47.9422" lon="4.08974">
        <ele>285.65</ele>
        <time>2021-08-10T21:48:14Z</time>
      </trkpt>
      <trkpt lat="47.94236" lon="4.08895">
        <ele>285.17</ele>
        <time>2021-08-10T21:48:26Z</time>
      </trkpt>
      <trkpt lat="47.94247" lon="4.08838">
        <ele>285.17</ele>
        <time>2021-08-10T21:48:36Z</time>
      </trkpt>
      <trkpt lat="47.9425" lon="4.08816">
        <ele>285.17</ele>
        <time>2021-08-10T21:48:41Z</time>
      </trkpt>
      <trkpt lat="47.94249" lon="4.08812">
        <ele>285.17</ele>
        <time>2021-08-10T21:48:42Z</time>
      </trkpt>
      <trkpt lat="47.94247" lon="4.0881">
        <ele>285.17</ele>
        <time>2021-08-10T21:48:43Z</time>
      </trkpt>
      <trkpt lat="47.94245" lon="4.08809">
        <ele>285.17</ele>
        <time>2021-08-10T21:48:44Z</time>
      </trkpt>
      <trkpt lat="47.94242" lon="4.08809">
        <ele>285.17</ele>
        <time>2021-08-10T21:48:45Z</time>
      </trkpt>
      <trkpt lat="47.94239" lon="4.08808">
        <ele>285.17</ele>
        <time>2021-08-10T21:48:46Z</time>
      </trkpt>
      <trkpt lat="47.9421" lon="4.08806">
        <ele>285.17</ele>
        <time>2021-08-10T21:48:54Z</time>
      </trkpt>
      <trkpt lat="47.94176" lon="4.08801">
        <ele>284.69</ele>
        <time>2021-08-10T21:49:02Z</time>
      </trkpt>
      <trkpt lat="47.94135" lon="4.08794">
        <ele>283.73</ele>
        <time>2021-08-10T21:49:10Z</time>
      </trkpt>
      <trkpt lat="47.94082" lon="4.08785">
        <ele>281.32</ele>
        <time>2021-08-10T21:49:19Z</time>
      </trkpt>
      <trkpt lat="47.94025" lon="4.08778">
        <ele>277.96</ele>
        <time>2021-08-10T21:49:27Z</time>
      </trkpt>
      <trkpt lat="47.93971" lon="4.08763">
        <ele>277</ele>
        <time>2021-08-10T21:49:34Z</time>
      </trkpt>
      <trkpt lat="47.93948" lon="4.08752">
        <ele>278.44</ele>
        <time>2021-08-10T21:49:38Z</time>
      </trkpt>
      <trkpt lat="47.93917" lon="4.08736">
        <ele>279.88</ele>
        <time>2021-08-10T21:49:45Z</time>
      </trkpt>
      <trkpt lat="47.93891" lon="4.08724">
        <ele>280.84</ele>
        <time>2021-08-10T21:49:53Z</time>
      </trkpt>
      <trkpt lat="47.93872" lon="4.08716">
        <ele>281.8</ele>
        <time>2021-08-10T21:50:00Z</time>
      </trkpt>
      <trkpt lat="47.93842" lon="4.08703">
        <ele>282.77</ele>
        <time>2021-08-10T21:50:10Z</time>
      </trkpt>
      <trkpt lat="47.9381" lon="4.08688">
        <ele>283.73</ele>
        <time>2021-08-10T21:50:20Z</time>
      </trkpt>
      <trkpt lat="47.93761" lon="4.08666">
        <ele>283.73</ele>
        <time>2021-08-10T21:50:32Z</time>
      </trkpt>
      <trkpt lat="47.93726" lon="4.0865">
        <ele>284.21</ele>
        <time>2021-08-10T21:50:40Z</time>
      </trkpt>
      <trkpt lat="47.93686" lon="4.08631">
        <ele>284.21</ele>
        <time>2021-08-10T21:50:49Z</time>
      </trkpt>
      <trkpt lat="47.93644" lon="4.08612">
        <ele>284.21</ele>
        <time>2021-08-10T21:50:58Z</time>
      </trkpt>
      <trkpt lat="47.93615" lon="4.08599">
        <ele>284.69</ele>
        <time>2021-08-10T21:51:06Z</time>
      </trkpt>
      <trkpt lat="47.93598" lon="4.08592">
        <ele>286.13</ele>
        <time>2021-08-10T21:51:14Z</time>
      </trkpt>
      <trkpt lat="47.93582" lon="4.08584">
        <ele>287.57</ele>
        <time>2021-08-10T21:51:22Z</time>
      </trkpt>
      <trkpt lat="47.9357" lon="4.08579">
        <ele>288.53</ele>
        <time>2021-08-10T21:51:29Z</time>
      </trkpt>
      <trkpt lat="47.93553" lon="4.08571">
        <ele>289.97</ele>
        <time>2021-08-10T21:51:40Z</time>
      </trkpt>
      <trkpt lat="47.93539" lon="4.08566">
        <ele>290.94</ele>
        <time>2021-08-10T21:51:49Z</time>
      </trkpt>
      <trkpt lat="47.93523" lon="4.08559">
        <ele>292.38</ele>
        <time>2021-08-10T21:51:59Z</time>
      </trkpt>
      <trkpt lat="47.93507" lon="4.08551">
        <ele>293.82</ele>
        <time>2021-08-10T21:52:08Z</time>
      </trkpt>
      <trkpt lat="47.93483" lon="4.0854">
        <ele>294.78</ele>
        <time>2021-08-10T21:52:19Z</time>
      </trkpt>
      <trkpt lat="47.93457" lon="4.08527">
        <ele>295.74</ele>
        <time>2021-08-10T21:52:29Z</time>
      </trkpt>
      <trkpt lat="47.93429" lon="4.08515">
        <ele>295.74</ele>
        <time>2021-08-10T21:52:38Z</time>
      </trkpt>
      <trkpt lat="47.93403" lon="4.08503">
        <ele>295.74</ele>
        <time>2021-08-10T21:52:46Z</time>
      </trkpt>
      <trkpt lat="47.93377" lon="4.08491">
        <ele>294.78</ele>
        <time>2021-08-10T21:52:53Z</time>
      </trkpt>
      <trkpt lat="47.93372" lon="4.08489">
        <ele>294.78</ele>
        <time>2021-08-10T21:52:54Z</time>
      </trkpt>
      <trkpt lat="47.93323" lon="4.08467">
        <ele>293.34</ele>
        <time>2021-08-10T21:53:04Z</time>
      </trkpt>
      <trkpt lat="47.93297" lon="4.08455">
        <ele>293.34</ele>
        <time>2021-08-10T21:53:10Z</time>
      </trkpt>
      <trkpt lat="47.93251" lon="4.08434">
        <ele>293.34</ele>
        <time>2021-08-10T21:53:21Z</time>
      </trkpt>
      <trkpt lat="47.93204" lon="4.08413">
        <ele>292.86</ele>
        <time>2021-08-10T21:53:31Z</time>
      </trkpt>
      <trkpt lat="47.93176" lon="4.08399">
        <ele>292.86</ele>
        <time>2021-08-10T21:53:37Z</time>
      </trkpt>
      <trkpt lat="47.93171" lon="4.08398">
        <ele>292.86</ele>
        <time>2021-08-10T21:53:38Z</time>
      </trkpt>
      <trkpt lat="47.93122" lon="4.08375">
        <ele>292.38</ele>
        <time>2021-08-10T21:53:49Z</time>
      </trkpt>
      <trkpt lat="47.93077" lon="4.08354">
        <ele>290.94</ele>
        <time>2021-08-10T21:53:58Z</time>
      </trkpt>
      <trkpt lat="47.93028" lon="4.08332">
        <ele>289.01</ele>
        <time>2021-08-10T21:54:07Z</time>
      </trkpt>
      <trkpt lat="47.93001" lon="4.0832">
        <ele>289.49</ele>
        <time>2021-08-10T21:54:13Z</time>
      </trkpt>
      <trkpt lat="47.92998" lon="4.08319">
        <ele>289.49</ele>
        <time>2021-08-10T21:54:14Z</time>
      </trkpt>
      <trkpt lat="47.92994" lon="4.0832">
        <ele>289.49</ele>
        <time>2021-08-10T21:54:15Z</time>
      </trkpt>
      <trkpt lat="47.92991" lon="4.08322">
        <ele>289.49</ele>
        <time>2021-08-10T21:54:16Z</time>
      </trkpt>
      <trkpt lat="47.92988" lon="4.08326">
        <ele>289.49</ele>
        <time>2021-08-10T21:54:17Z</time>
      </trkpt>
      <trkpt lat="47.92987" lon="4.08329">
        <ele>290.46</ele>
        <time>2021-08-10T21:54:18Z</time>
      </trkpt>
      <trkpt lat="47.92986" lon="4.08333">
        <ele>290.46</ele>
        <time>2021-08-10T21:54:19Z</time>
      </trkpt>
      <trkpt lat="47.92983" lon="4.08354">
        <ele>291.42</ele>
        <time>2021-08-10T21:54:25Z</time>
      </trkpt>
      <trkpt lat="47.92976" lon="4.08389">
        <ele>293.34</ele>
        <time>2021-08-10T21:54:36Z</time>
      </trkpt>
      <trkpt lat="47.92972" lon="4.08408">
        <ele>294.3</ele>
        <time>2021-08-10T21:54:44Z</time>
      </trkpt>
      <trkpt lat="47.92971" lon="4.0841">
        <ele>294.3</ele>
        <time>2021-08-10T21:54:45Z</time>
      </trkpt>
      <trkpt lat="47.9297" lon="4.08412">
        <ele>294.78</ele>
        <time>2021-08-10T21:54:46Z</time>
      </trkpt>
      <trkpt lat="47.92969" lon="4.08414">
        <ele>294.78</ele>
        <time>2021-08-10T21:54:47Z</time>
      </trkpt>
      <trkpt lat="47.92968" lon="4.08416">
        <ele>294.78</ele>
        <time>2021-08-10T21:54:48Z</time>
      </trkpt>
      <trkpt lat="47.92968" lon="4.08418">
        <ele>294.78</ele>
        <time>2021-08-10T21:54:49Z</time>
      </trkpt>
      <trkpt lat="47.92967" lon="4.0842">
        <ele>294.78</ele>
        <time>2021-08-10T21:54:50Z</time>
      </trkpt>
      <trkpt lat="47.92967" lon="4.08423">
        <ele>294.78</ele>
        <time>2021-08-10T21:54:51Z</time>
      </trkpt>
      <trkpt lat="47.92966" lon="4.08425">
        <ele>295.26</ele>
        <time>2021-08-10T21:54:52Z</time>
      </trkpt>
      <trkpt lat="47.92966" lon="4.08428">
        <ele>295.26</ele>
        <time>2021-08-10T21:54:53Z</time>
      </trkpt>
      <trkpt lat="47.92965" lon="4.0843">
        <ele>295.26</ele>
        <time>2021-08-10T21:54:54Z</time>
      </trkpt>
      <trkpt lat="47.92964" lon="4.08432">
        <ele>295.26</ele>
        <time>2021-08-10T21:54:55Z</time>
      </trkpt>
      <trkpt lat="47.92964" lon="4.08435">
        <ele>295.26</ele>
        <time>2021-08-10T21:54:56Z</time>
      </trkpt>
      <trkpt lat="47.92963" lon="4.08437">
        <ele>295.74</ele>
        <time>2021-08-10T21:54:57Z</time>
      </trkpt>
      <trkpt lat="47.92962" lon="4.08442">
        <ele>295.74</ele>
        <time>2021-08-10T21:54:59Z</time>
      </trkpt>
      <trkpt lat="47.92962" lon="4.08445">
        <ele>295.74</ele>
        <time>2021-08-10T21:55:00Z</time>
      </trkpt>
      <trkpt lat="47.92961" lon="4.08448">
        <ele>295.74</ele>
        <time>2021-08-10T21:55:01Z</time>
      </trkpt>
      <trkpt lat="47.92961" lon="4.08451">
        <ele>296.22</ele>
        <time>2021-08-10T21:55:02Z</time>
      </trkpt>
      <trkpt lat="47.9296" lon="4.08453">
        <ele>296.22</ele>
        <time>2021-08-10T21:55:03Z</time>
      </trkpt>
      <trkpt lat="47.9296" lon="4.08456">
        <ele>296.22</ele>
        <time>2021-08-10T21:55:04Z</time>
      </trkpt>
      <trkpt lat="47.92952" lon="4.08496">
        <ele>297.67</ele>
        <time>2021-08-10T21:55:16Z</time>
      </trkpt>
      <trkpt lat="47.92943" lon="4.08538">
        <ele>298.63</ele>
        <time>2021-08-10T21:55:27Z</time>
      </trkpt>
      <trkpt lat="47.92932" lon="4.08592">
        <ele>299.11</ele>
        <time>2021-08-10T21:55:39Z</time>
      </trkpt>
      <trkpt lat="47.92921" lon="4.08647">
        <ele>299.11</ele>
        <time>2021-08-10T21:55:49Z</time>
      </trkpt>
      <trkpt lat="47.92917" lon="4.08668">
        <ele>297.67</ele>
        <time>2021-08-10T21:55:52Z</time>
      </trkpt>
      <trkpt lat="47.92904" lon="4.08728">
        <ele>294.3</ele>
        <time>2021-08-10T21:55:59Z</time>
      </trkpt>
      <trkpt lat="47.92894" lon="4.08778">
        <ele>292.38</ele>
        <time>2021-08-10T21:56:05Z</time>
      </trkpt>
      <trkpt lat="47.92892" lon="4.08784">
        <ele>291.9</ele>
        <time>2021-08-10T21:56:06Z</time>
      </trkpt>
      <trkpt lat="47.92888" lon="4.08789">
        <ele>291.42</ele>
        <time>2021-08-10T21:56:07Z</time>
      </trkpt>
      <trkpt lat="47.92884" lon="4.08792">
        <ele>291.42</ele>
        <time>2021-08-10T21:56:08Z</time>
      </trkpt>
      <trkpt lat="47.9288" lon="4.08791">
        <ele>290.46</ele>
        <time>2021-08-10T21:56:09Z</time>
      </trkpt>
      <trkpt lat="47.92875" lon="4.0879">
        <ele>290.46</ele>
        <time>2021-08-10T21:56:10Z</time>
      </trkpt>
      <trkpt lat="47.92839" lon="4.08772">
        <ele>289.01</ele>
        <time>2021-08-10T21:56:17Z</time>
      </trkpt>
      <trkpt lat="47.92798" lon="4.08753">
        <ele>288.53</ele>
        <time>2021-08-10T21:56:25Z</time>
      </trkpt>
      <trkpt lat="47.92764" lon="4.08738">
        <ele>290.46</ele>
        <time>2021-08-10T21:56:34Z</time>
      </trkpt>
      <trkpt lat="47.92724" lon="4.0872">
        <ele>290.46</ele>
        <time>2021-08-10T21:56:43Z</time>
      </trkpt>
      <trkpt lat="47.92674" lon="4.08697">
        <ele>287.09</ele>
        <time>2021-08-10T21:56:52Z</time>
      </trkpt>
      <trkpt lat="47.92617" lon="4.08669">
        <ele>284.21</ele>
        <time>2021-08-10T21:57:00Z</time>
      </trkpt>
      <trkpt lat="47.92575" lon="4.08656">
        <ele>282.77</ele>
        <time>2021-08-10T21:57:06Z</time>
      </trkpt>
      <trkpt lat="47.92567" lon="4.08656">
        <ele>281.8</ele>
        <time>2021-08-10T21:57:07Z</time>
      </trkpt>
      <trkpt lat="47.92534" lon="4.08658">
        <ele>278.92</ele>
        <time>2021-08-10T21:57:11Z</time>
      </trkpt>
      <trkpt lat="47.92495" lon="4.08652">
        <ele>276.04</ele>
        <time>2021-08-10T21:57:16Z</time>
      </trkpt>
      <trkpt lat="47.92466" lon="4.0864">
        <ele>273.15</ele>
        <time>2021-08-10T21:57:20Z</time>
      </trkpt>
      <trkpt lat="47.92431" lon="4.08618">
        <ele>269.79</ele>
        <time>2021-08-10T21:57:25Z</time>
      </trkpt>
      <trkpt lat="47.92425" lon="4.08613">
        <ele>269.31</ele>
        <time>2021-08-10T21:57:26Z</time>
      </trkpt>
      <trkpt lat="47.92419" lon="4.08606">
        <ele>268.83</ele>
        <time>2021-08-10T21:57:27Z</time>
      </trkpt>
      <trkpt lat="47.92413" lon="4.08599">
        <ele>268.35</ele>
        <time>2021-08-10T21:57:28Z</time>
      </trkpt>
      <trkpt lat="47.92408" lon="4.0859">
        <ele>266.9</ele>
        <time>2021-08-10T21:57:29Z</time>
      </trkpt>
      <trkpt lat="47.92403" lon="4.08582">
        <ele>265.94</ele>
        <time>2021-08-10T21:57:30Z</time>
      </trkpt>
      <trkpt lat="47.92398" lon="4.08574">
        <ele>265.94</ele>
        <time>2021-08-10T21:57:31Z</time>
      </trkpt>
      <trkpt lat="47.92382" lon="4.08549">
        <ele>263.06</ele>
        <time>2021-08-10T21:57:34Z</time>
      </trkpt>
      <trkpt lat="47.92359" lon="4.0852">
        <ele>259.69</ele>
        <time>2021-08-10T21:57:38Z</time>
      </trkpt>
      <trkpt lat="47.92333" lon="4.08495">
        <ele>256.33</ele>
        <time>2021-08-10T21:57:42Z</time>
      </trkpt>
      <trkpt lat="47.92307" lon="4.08475">
        <ele>252.96</ele>
        <time>2021-08-10T21:57:46Z</time>
      </trkpt>
      <trkpt lat="47.9227" lon="4.08446">
        <ele>249.6</ele>
        <time>2021-08-10T21:57:52Z</time>
      </trkpt>
      <trkpt lat="47.92237" lon="4.08421">
        <ele>246.72</ele>
        <time>2021-08-10T21:57:57Z</time>
      </trkpt>
      <trkpt lat="47.92198" lon="4.08398">
        <ele>243.35</ele>
        <time>2021-08-10T21:58:03Z</time>
      </trkpt>
      <trkpt lat="47.92178" lon="4.08391">
        <ele>241.43</ele>
        <time>2021-08-10T21:58:06Z</time>
      </trkpt>
      <trkpt lat="47.92171" lon="4.08389">
        <ele>240.95</ele>
        <time>2021-08-10T21:58:07Z</time>
      </trkpt>
      <trkpt lat="47.92124" lon="4.0839">
        <ele>237.1</ele>
        <time>2021-08-10T21:58:13Z</time>
      </trkpt>
      <trkpt lat="47.92108" lon="4.08395">
        <ele>236.62</ele>
        <time>2021-08-10T21:58:15Z</time>
      </trkpt>
      <trkpt lat="47.92067" lon="4.08411">
        <ele>233.26</ele>
        <time>2021-08-10T21:58:20Z</time>
      </trkpt>
      <trkpt lat="47.9204" lon="4.08423">
        <ele>231.81</ele>
        <time>2021-08-10T21:58:24Z</time>
      </trkpt>
      <trkpt lat="47.92033" lon="4.08423">
        <ele>231.81</ele>
        <time>2021-08-10T21:58:25Z</time>
      </trkpt>
      <trkpt lat="47.92026" lon="4.08422">
        <ele>230.85</ele>
        <time>2021-08-10T21:58:26Z</time>
      </trkpt>
      <trkpt lat="47.9202" lon="4.08419">
        <ele>230.85</ele>
        <time>2021-08-10T21:58:27Z</time>
      </trkpt>
      <trkpt lat="47.92013" lon="4.08416">
        <ele>230.37</ele>
        <time>2021-08-10T21:58:28Z</time>
      </trkpt>
      <trkpt lat="47.92007" lon="4.08412">
        <ele>230.37</ele>
        <time>2021-08-10T21:58:29Z</time>
      </trkpt>
      <trkpt lat="47.91973" lon="4.08384">
        <ele>227.49</ele>
        <time>2021-08-10T21:58:34Z</time>
      </trkpt>
      <trkpt lat="47.91943" lon="4.08356">
        <ele>224.12</ele>
        <time>2021-08-10T21:58:38Z</time>
      </trkpt>
      <trkpt lat="47.91929" lon="4.08339">
        <ele>223.16</ele>
        <time>2021-08-10T21:58:40Z</time>
      </trkpt>
      <trkpt lat="47.91899" lon="4.08307">
        <ele>222.68</ele>
        <time>2021-08-10T21:58:45Z</time>
      </trkpt>
      <trkpt lat="47.91894" lon="4.08304">
        <ele>222.68</ele>
        <time>2021-08-10T21:58:46Z</time>
      </trkpt>
      <trkpt lat="47.91888" lon="4.08303">
        <ele>222.68</ele>
        <time>2021-08-10T21:58:47Z</time>
      </trkpt>
      <trkpt lat="47.91867" lon="4.08302">
        <ele>222.68</ele>
        <time>2021-08-10T21:58:51Z</time>
      </trkpt>
      <trkpt lat="47.91862" lon="4.083">
        <ele>222.68</ele>
        <time>2021-08-10T21:58:52Z</time>
      </trkpt>
      <trkpt lat="47.91858" lon="4.08297">
        <ele>222.68</ele>
        <time>2021-08-10T21:58:53Z</time>
      </trkpt>
      <trkpt lat="47.91854" lon="4.08292">
        <ele>222.68</ele>
        <time>2021-08-10T21:58:54Z</time>
      </trkpt>
      <trkpt lat="47.91851" lon="4.08286">
        <ele>222.68</ele>
        <time>2021-08-10T21:58:55Z</time>
      </trkpt>
      <trkpt lat="47.91848" lon="4.0828">
        <ele>222.68</ele>
        <time>2021-08-10T21:58:56Z</time>
      </trkpt>
      <trkpt lat="47.9184" lon="4.08261">
        <ele>222.68</ele>
        <time>2021-08-10T21:58:59Z</time>
      </trkpt>
      <trkpt lat="47.91834" lon="4.0825">
        <ele>222.68</ele>
        <time>2021-08-10T21:59:01Z</time>
      </trkpt>
      <trkpt lat="47.91831" lon="4.08246">
        <ele>222.68</ele>
        <time>2021-08-10T21:59:02Z</time>
      </trkpt>
      <trkpt lat="47.91827" lon="4.08242">
        <ele>224.12</ele>
        <time>2021-08-10T21:59:03Z</time>
      </trkpt>
      <trkpt lat="47.91807" lon="4.08222">
        <ele>225.57</ele>
        <time>2021-08-10T21:59:10Z</time>
      </trkpt>
      <trkpt lat="47.91784" lon="4.082">
        <ele>225.57</ele>
        <time>2021-08-10T21:59:18Z</time>
      </trkpt>
      <trkpt lat="47.91752" lon="4.08172">
        <ele>224.12</ele>
        <time>2021-08-10T21:59:26Z</time>
      </trkpt>
      <trkpt lat="47.91704" lon="4.08134">
        <ele>222.2</ele>
        <time>2021-08-10T21:59:36Z</time>
      </trkpt>
      <trkpt lat="47.91672" lon="4.08108">
        <ele>220.76</ele>
        <time>2021-08-10T21:59:42Z</time>
      </trkpt>
      <trkpt lat="47.91647" lon="4.08087">
        <ele>219.32</ele>
        <time>2021-08-10T21:59:48Z</time>
      </trkpt>
      <trkpt lat="47.91629" lon="4.08079">
        <ele>218.84</ele>
        <time>2021-08-10T21:59:54Z</time>
      </trkpt>
      <trkpt lat="47.9163" lon="4.08076">
        <ele>218.84</ele>
        <time>2021-08-10T21:59:55Z</time>
      </trkpt>
      <trkpt lat="47.91634" lon="4.08069">
        <ele>218.36</ele>
        <time>2021-08-10T22:00:01Z</time>
      </trkpt>
      <trkpt lat="47.91634" lon="4.08068">
        <ele>217.88</ele>
        <time>2021-08-10T22:00:19Z</time>
      </trkpt>
      <trkpt lat="47.91637" lon="4.08069">
        <ele>217.88</ele>
        <time>2021-08-10T22:00:40Z</time>
      </trkpt>
      <trkpt lat="47.91638" lon="4.0807">
        <ele>217.88</ele>
        <time>2021-08-10T22:00:59Z</time>
      </trkpt>
      <trkpt lat="47.91636" lon="4.0807">
        <ele>217.88</ele>
        <time>2021-08-10T22:01:22Z</time>
      </trkpt>
      <trkpt lat="47.91636" lon="4.08069">
        <ele>217.88</ele>
        <time>2021-08-10T22:01:33Z</time>
      </trkpt>
      <trkpt lat="47.91639" lon="4.0807">
        <ele>217.88</ele>
        <time>2021-08-10T22:01:51Z</time>
      </trkpt>
      <trkpt lat="47.91638" lon="4.0807">
        <ele>217.88</ele>
        <time>2021-08-10T22:02:07Z</time>
      </trkpt>
      <trkpt lat="47.91635" lon="4.08071">
        <ele>217.88</ele>
        <time>2021-08-10T22:02:29Z</time>
      </trkpt>
      <trkpt lat="47.91635" lon="4.08071">
        <ele>217.88</ele>
        <time>2021-08-10T22:02:45Z</time>
      </trkpt>
      <trkpt lat="47.91637" lon="4.08068">
        <ele>217.88</ele>
        <time>2021-08-10T22:02:55Z</time>
      </trkpt>
      <trkpt lat="47.91638" lon="4.08067">
        <ele>217.88</ele>
        <time>2021-08-10T22:02:56Z</time>
      </trkpt>
      <trkpt lat="47.91639" lon="4.08064">
        <ele>217.88</ele>
        <time>2021-08-10T22:02:57Z</time>
      </trkpt>
      <trkpt lat="47.91641" lon="4.08036">
        <ele>216.91</ele>
        <time>2021-08-10T22:03:03Z</time>
      </trkpt>
      <trkpt lat="47.91648" lon="4.07982">
        <ele>216.43</ele>
        <time>2021-08-10T22:03:13Z</time>
      </trkpt>
      <trkpt lat="47.91647" lon="4.07956">
        <ele>218.36</ele>
        <time>2021-08-10T22:03:20Z</time>
      </trkpt>
      <trkpt lat="47.91648" lon="4.0794">
        <ele>219.32</ele>
        <time>2021-08-10T22:03:27Z</time>
      </trkpt>
      <trkpt lat="47.91648" lon="4.07929">
        <ele>220.28</ele>
        <time>2021-08-10T22:03:33Z</time>
      </trkpt>
      <trkpt lat="47.91647" lon="4.07927">
        <ele>220.28</ele>
        <time>2021-08-10T22:03:34Z</time>
      </trkpt>
      <trkpt lat="47.91647" lon="4.07926">
        <ele>220.28</ele>
        <time>2021-08-10T22:03:35Z</time>
      </trkpt>
      <trkpt lat="47.91647" lon="4.0792">
        <ele>220.76</ele>
        <time>2021-08-10T22:03:40Z</time>
      </trkpt>
      <trkpt lat="47.91644" lon="4.07909">
        <ele>222.68</ele>
        <time>2021-08-10T22:03:50Z</time>
      </trkpt>
      <trkpt lat="47.9164" lon="4.07901">
        <ele>224.61</ele>
        <time>2021-08-10T22:03:57Z</time>
      </trkpt>
      <trkpt lat="47.91636" lon="4.07893">
        <ele>225.57</ele>
        <time>2021-08-10T22:04:05Z</time>
      </trkpt>
      <trkpt lat="47.91635" lon="4.07892">
        <ele>225.57</ele>
        <time>2021-08-10T22:04:06Z</time>
      </trkpt>
      <trkpt lat="47.91634" lon="4.07891">
        <ele>226.05</ele>
        <time>2021-08-10T22:04:07Z</time>
      </trkpt>
      <trkpt lat="47.9163" lon="4.07883">
        <ele>227.49</ele>
        <time>2021-08-10T22:04:15Z</time>
      </trkpt>
      <trkpt lat="47.91628" lon="4.07871">
        <ele>228.45</ele>
        <time>2021-08-10T22:04:23Z</time>
      </trkpt>
      <trkpt lat="47.91629" lon="4.07864">
        <ele>229.41</ele>
        <time>2021-08-10T22:04:28Z</time>
      </trkpt>
      <trkpt lat="47.91631" lon="4.0786">
        <ele>229.89</ele>
        <time>2021-08-10T22:04:31Z</time>
      </trkpt>
      <trkpt lat="47.91632" lon="4.07858">
        <ele>229.89</ele>
        <time>2021-08-10T22:04:32Z</time>
      </trkpt>
      <trkpt lat="47.91637" lon="4.07852">
        <ele>229.89</ele>
        <time>2021-08-10T22:04:36Z</time>
      </trkpt>
      <trkpt lat="47.91637" lon="4.0785">
        <ele>230.37</ele>
        <time>2021-08-10T22:04:37Z</time>
      </trkpt>
      <trkpt lat="47.91636" lon="4.07838">
        <ele>230.85</ele>
        <time>2021-08-10T22:04:43Z</time>
      </trkpt>
      <trkpt lat="47.91637" lon="4.07837">
        <ele>230.85</ele>
        <time>2021-08-10T22:04:44Z</time>
      </trkpt>
      <trkpt lat="47.91642" lon="4.07827">
        <ele>230.85</ele>
        <time>2021-08-10T22:04:51Z</time>
      </trkpt>
      <trkpt lat="47.91645" lon="4.07818">
        <ele>231.33</ele>
        <time>2021-08-10T22:04:58Z</time>
      </trkpt>
      <trkpt lat="47.91647" lon="4.07818">
        <ele>231.81</ele>
        <time>2021-08-10T22:05:02Z</time>
      </trkpt>
      <trkpt lat="47.91648" lon="4.07818">
        <ele>231.81</ele>
        <time>2021-08-10T22:05:03Z</time>
      </trkpt>
      <trkpt lat="47.91649" lon="4.07818">
        <ele>231.81</ele>
        <time>2021-08-10T22:05:04Z</time>
      </trkpt>
      <trkpt lat="47.9165" lon="4.07817">
        <ele>231.81</ele>
        <time>2021-08-10T22:05:05Z</time>
      </trkpt>
      <trkpt lat="47.91653" lon="4.07818">
        <ele>231.81</ele>
        <time>2021-08-10T22:05:13Z</time>
      </trkpt>
      <trkpt lat="47.91658" lon="4.07818">
        <ele>232.3</ele>
        <time>2021-08-10T22:05:19Z</time>
      </trkpt>
      <trkpt lat="47.91658" lon="4.07815">
        <ele>232.3</ele>
        <time>2021-08-10T22:05:21Z</time>
      </trkpt>
      <trkpt lat="47.9166" lon="4.07815">
        <ele>232.3</ele>
        <time>2021-08-10T22:05:26Z</time>
      </trkpt>
      <trkpt lat="47.91661" lon="4.07815">
        <ele>232.3</ele>
        <time>2021-08-10T22:05:27Z</time>
      </trkpt>
      <trkpt lat="47.91665" lon="4.07816">
        <ele>232.3</ele>
        <time>2021-08-10T22:05:31Z</time>
      </trkpt>
      <trkpt lat="47.91666" lon="4.07814">
        <ele>232.3</ele>
        <time>2021-08-10T22:05:32Z</time>
      </trkpt>
      <trkpt lat="47.91667" lon="4.07813">
        <ele>232.3</ele>
        <time>2021-08-10T22:05:33Z</time>
      </trkpt>
      <trkpt lat="47.9167" lon="4.07805">
        <ele>232.3</ele>
        <time>2021-08-10T22:05:43Z</time>
      </trkpt>
      <trkpt lat="47.91674" lon="4.07797">
        <ele>232.3</ele>
        <time>2021-08-10T22:05:52Z</time>
      </trkpt>
      <trkpt lat="47.91677" lon="4.07788">
        <ele>232.3</ele>
        <time>2021-08-10T22:05:59Z</time>
      </trkpt>
    </trkseg>
  </trk>
</gpx>